<?xml version="1.0" encoding="utf-8"?>
<gpx xmlns:xsi="http://www.w3.org/2001/XMLSchema-instance" xmlns:xsd="http://www.w3.org/2001/XMLSchema" version="1.1" creator="Shapelink.com" xmlns="http://www.topografix.com/GPX/1/1" xmlns:gpxtpx="http://www.garmin.com/xmlschemas/TrackPointExtension/v1">
  <metadata>
    <name>Sykling 69.97 km, 2013-04-14</name>
    <desc></desc>
    <author><name>Mikael Blom</name></author> 
    <time>2013-04-14T10:03:37Z</time>
  </metadata>
  <trk>
    <name>Sykling 69.97 km, 2013-04-14</name>
    <trkseg>
      <trkpt lat="59.9786003" lon="17.7392966">
        <ele>18.8831</ele>
        <time>2013-04-14T10:03:37Z</time>
      </trkpt>
      <trkpt lat="59.9785735" lon="17.7392968">
        <ele>20.325</ele>
        <time>2013-04-14T10:03:38Z</time>
      </trkpt>
      <trkpt lat="59.9785411" lon="17.7392895">
        <ele>20.325</ele>
        <time>2013-04-14T10:03:39Z</time>
      </trkpt>
      <trkpt lat="59.9785087" lon="17.7392854">
        <ele>20.325</ele>
        <time>2013-04-14T10:03:40Z</time>
      </trkpt>
      <trkpt lat="59.9784761" lon="17.7392778">
        <ele>20.8057</ele>
        <time>2013-04-14T10:03:41Z</time>
      </trkpt>
      <trkpt lat="59.9784377" lon="17.739264">
        <ele>20.325</ele>
        <time>2013-04-14T10:03:42Z</time>
      </trkpt>
      <trkpt lat="59.9783954" lon="17.7392425">
        <ele>20.8057</ele>
        <time>2013-04-14T10:03:43Z</time>
      </trkpt>
      <trkpt lat="59.9783517" lon="17.739215">
        <ele>20.8057</ele>
        <time>2013-04-14T10:03:44Z</time>
      </trkpt>
      <trkpt lat="59.9783113" lon="17.7391932">
        <ele>22.2476</ele>
        <time>2013-04-14T10:03:45Z</time>
      </trkpt>
      <trkpt lat="59.9782642" lon="17.7391713">
        <ele>22.7283</ele>
        <time>2013-04-14T10:03:46Z</time>
      </trkpt>
      <trkpt lat="59.9782164" lon="17.7391553">
        <ele>22.7283</ele>
        <time>2013-04-14T10:03:47Z</time>
      </trkpt>
      <trkpt lat="59.9781725" lon="17.739143">
        <ele>23.6896</ele>
        <time>2013-04-14T10:03:48Z</time>
      </trkpt>
      <trkpt lat="59.9781218" lon="17.7391218">
        <ele>23.209</ele>
        <time>2013-04-14T10:03:49Z</time>
      </trkpt>
      <trkpt lat="59.9780773" lon="17.7391045">
        <ele>24.1703</ele>
        <time>2013-04-14T10:03:50Z</time>
      </trkpt>
      <trkpt lat="59.9780354" lon="17.7390873">
        <ele>25.1317</ele>
        <time>2013-04-14T10:03:51Z</time>
      </trkpt>
      <trkpt lat="59.9779922" lon="17.7390699">
        <ele>25.1317</ele>
        <time>2013-04-14T10:03:52Z</time>
      </trkpt>
      <trkpt lat="59.9779468" lon="17.7390438">
        <ele>25.6123</ele>
        <time>2013-04-14T10:03:53Z</time>
      </trkpt>
      <trkpt lat="59.9779056" lon="17.7390216">
        <ele>26.5736</ele>
        <time>2013-04-14T10:03:54Z</time>
      </trkpt>
      <trkpt lat="59.9778618" lon="17.7390032">
        <ele>27.0543</ele>
        <time>2013-04-14T10:03:55Z</time>
      </trkpt>
      <trkpt lat="59.9778108" lon="17.7389823">
        <ele>25.6123</ele>
        <time>2013-04-14T10:03:56Z</time>
      </trkpt>
      <trkpt lat="59.9777622" lon="17.7389708">
        <ele>24.651</ele>
        <time>2013-04-14T10:03:57Z</time>
      </trkpt>
      <trkpt lat="59.9777094" lon="17.7389584">
        <ele>23.6896</ele>
        <time>2013-04-14T10:03:58Z</time>
      </trkpt>
      <trkpt lat="59.9776524" lon="17.738942">
        <ele>22.7283</ele>
        <time>2013-04-14T10:03:59Z</time>
      </trkpt>
      <trkpt lat="59.9775929" lon="17.7389258">
        <ele>21.767</ele>
        <time>2013-04-14T10:04:00Z</time>
      </trkpt>
      <trkpt lat="59.9775308" lon="17.7389156">
        <ele>21.2864</ele>
        <time>2013-04-14T10:04:01Z</time>
      </trkpt>
      <trkpt lat="59.9774709" lon="17.7389243">
        <ele>21.2864</ele>
        <time>2013-04-14T10:04:02Z</time>
      </trkpt>
      <trkpt lat="59.9774046" lon="17.7389444">
        <ele>21.2864</ele>
        <time>2013-04-14T10:04:03Z</time>
      </trkpt>
      <trkpt lat="59.9773416" lon="17.7389735">
        <ele>21.767</ele>
        <time>2013-04-14T10:04:04Z</time>
      </trkpt>
      <trkpt lat="59.9772753" lon="17.7390093">
        <ele>22.2476</ele>
        <time>2013-04-14T10:04:05Z</time>
      </trkpt>
      <trkpt lat="59.9772028" lon="17.7390477">
        <ele>21.767</ele>
        <time>2013-04-14T10:04:06Z</time>
      </trkpt>
      <trkpt lat="59.9771356" lon="17.7390818">
        <ele>22.2476</ele>
        <time>2013-04-14T10:04:07Z</time>
      </trkpt>
      <trkpt lat="59.9770686" lon="17.7391197">
        <ele>22.7283</ele>
        <time>2013-04-14T10:04:08Z</time>
      </trkpt>
      <trkpt lat="59.9770027" lon="17.7391554">
        <ele>23.6896</ele>
        <time>2013-04-14T10:04:09Z</time>
      </trkpt>
      <trkpt lat="59.976935" lon="17.7391959">
        <ele>23.6896</ele>
        <time>2013-04-14T10:04:10Z</time>
      </trkpt>
      <trkpt lat="59.9768654" lon="17.7392267">
        <ele>23.6896</ele>
        <time>2013-04-14T10:04:11Z</time>
      </trkpt>
      <trkpt lat="59.9767931" lon="17.7392585">
        <ele>23.209</ele>
        <time>2013-04-14T10:04:12Z</time>
      </trkpt>
      <trkpt lat="59.9767224" lon="17.7392863">
        <ele>23.6896</ele>
        <time>2013-04-14T10:04:13Z</time>
      </trkpt>
      <trkpt lat="59.9766512" lon="17.739322">
        <ele>23.6896</ele>
        <time>2013-04-14T10:04:14Z</time>
      </trkpt>
      <trkpt lat="59.9765822" lon="17.739365">
        <ele>23.6896</ele>
        <time>2013-04-14T10:04:15Z</time>
      </trkpt>
      <trkpt lat="59.9765183" lon="17.7394179">
        <ele>23.6896</ele>
        <time>2013-04-14T10:04:16Z</time>
      </trkpt>
      <trkpt lat="59.9764562" lon="17.7394826">
        <ele>23.209</ele>
        <time>2013-04-14T10:04:17Z</time>
      </trkpt>
      <trkpt lat="59.9764033" lon="17.7395553">
        <ele>23.209</ele>
        <time>2013-04-14T10:04:18Z</time>
      </trkpt>
      <trkpt lat="59.9763522" lon="17.7396273">
        <ele>22.2476</ele>
        <time>2013-04-14T10:04:19Z</time>
      </trkpt>
      <trkpt lat="59.9763028" lon="17.7396888">
        <ele>21.2864</ele>
        <time>2013-04-14T10:04:20Z</time>
      </trkpt>
      <trkpt lat="59.9762569" lon="17.7397258">
        <ele>21.2864</ele>
        <time>2013-04-14T10:04:21Z</time>
      </trkpt>
      <trkpt lat="59.9762051" lon="17.7397304">
        <ele>21.767</ele>
        <time>2013-04-14T10:04:22Z</time>
      </trkpt>
      <trkpt lat="59.9761527" lon="17.7397008">
        <ele>21.2864</ele>
        <time>2013-04-14T10:04:23Z</time>
      </trkpt>
      <trkpt lat="59.9761005" lon="17.7396458">
        <ele>20.8057</ele>
        <time>2013-04-14T10:04:24Z</time>
      </trkpt>
      <trkpt lat="59.9760513" lon="17.7395649">
        <ele>20.8057</ele>
        <time>2013-04-14T10:04:25Z</time>
      </trkpt>
      <trkpt lat="59.9760202" lon="17.7394551">
        <ele>24.1703</ele>
        <time>2013-04-14T10:04:26Z</time>
      </trkpt>
      <trkpt lat="59.9759736" lon="17.7393412">
        <ele>25.1317</ele>
        <time>2013-04-14T10:04:27Z</time>
      </trkpt>
      <trkpt lat="59.975918" lon="17.7392247">
        <ele>26.0929</ele>
        <time>2013-04-14T10:04:28Z</time>
      </trkpt>
      <trkpt lat="59.9758573" lon="17.7391075">
        <ele>26.0929</ele>
        <time>2013-04-14T10:04:29Z</time>
      </trkpt>
      <trkpt lat="59.9757969" lon="17.7389902">
        <ele>26.5736</ele>
        <time>2013-04-14T10:04:30Z</time>
      </trkpt>
      <trkpt lat="59.975734" lon="17.7388716">
        <ele>26.5736</ele>
        <time>2013-04-14T10:04:31Z</time>
      </trkpt>
      <trkpt lat="59.9756691" lon="17.7387522">
        <ele>26.5736</ele>
        <time>2013-04-14T10:04:32Z</time>
      </trkpt>
      <trkpt lat="59.9756032" lon="17.7386307">
        <ele>26.5736</ele>
        <time>2013-04-14T10:04:33Z</time>
      </trkpt>
      <trkpt lat="59.9755369" lon="17.7385064">
        <ele>26.0929</ele>
        <time>2013-04-14T10:04:34Z</time>
      </trkpt>
      <trkpt lat="59.9754685" lon="17.7383804">
        <ele>26.0929</ele>
        <time>2013-04-14T10:04:35Z</time>
      </trkpt>
      <trkpt lat="59.9753989" lon="17.7382567">
        <ele>25.6123</ele>
        <time>2013-04-14T10:04:36Z</time>
      </trkpt>
      <trkpt lat="59.9753296" lon="17.7381384">
        <ele>25.6123</ele>
        <time>2013-04-14T10:04:37Z</time>
      </trkpt>
      <trkpt lat="59.9752614" lon="17.7380233">
        <ele>25.6123</ele>
        <time>2013-04-14T10:04:38Z</time>
      </trkpt>
      <trkpt lat="59.9751953" lon="17.737909">
        <ele>25.6123</ele>
        <time>2013-04-14T10:04:39Z</time>
      </trkpt>
      <trkpt lat="59.9751301" lon="17.7377941">
        <ele>25.1317</ele>
        <time>2013-04-14T10:04:40Z</time>
      </trkpt>
      <trkpt lat="59.9750656" lon="17.7376774">
        <ele>25.1317</ele>
        <time>2013-04-14T10:04:41Z</time>
      </trkpt>
      <trkpt lat="59.9750016" lon="17.7375584">
        <ele>24.651</ele>
        <time>2013-04-14T10:04:42Z</time>
      </trkpt>
      <trkpt lat="59.9749385" lon="17.7374364">
        <ele>24.651</ele>
        <time>2013-04-14T10:04:43Z</time>
      </trkpt>
      <trkpt lat="59.9748791" lon="17.7373143">
        <ele>24.651</ele>
        <time>2013-04-14T10:04:44Z</time>
      </trkpt>
      <trkpt lat="59.9748223" lon="17.7371891">
        <ele>24.1703</ele>
        <time>2013-04-14T10:04:45Z</time>
      </trkpt>
      <trkpt lat="59.9747692" lon="17.7370584">
        <ele>24.1703</ele>
        <time>2013-04-14T10:04:46Z</time>
      </trkpt>
      <trkpt lat="59.9747188" lon="17.7369227">
        <ele>24.1703</ele>
        <time>2013-04-14T10:04:47Z</time>
      </trkpt>
      <trkpt lat="59.9746719" lon="17.7367858">
        <ele>23.6896</ele>
        <time>2013-04-14T10:04:48Z</time>
      </trkpt>
      <trkpt lat="59.9746292" lon="17.7366472">
        <ele>23.6896</ele>
        <time>2013-04-14T10:04:49Z</time>
      </trkpt>
      <trkpt lat="59.9745893" lon="17.7365082">
        <ele>23.6896</ele>
        <time>2013-04-14T10:04:50Z</time>
      </trkpt>
      <trkpt lat="59.9745522" lon="17.7363688">
        <ele>23.6896</ele>
        <time>2013-04-14T10:04:51Z</time>
      </trkpt>
      <trkpt lat="59.974519" lon="17.736228">
        <ele>23.209</ele>
        <time>2013-04-14T10:04:52Z</time>
      </trkpt>
      <trkpt lat="59.9744887" lon="17.7360868">
        <ele>23.209</ele>
        <time>2013-04-14T10:04:53Z</time>
      </trkpt>
      <trkpt lat="59.9744594" lon="17.7359467">
        <ele>23.209</ele>
        <time>2013-04-14T10:04:54Z</time>
      </trkpt>
      <trkpt lat="59.974432" lon="17.7358066">
        <ele>22.7283</ele>
        <time>2013-04-14T10:04:55Z</time>
      </trkpt>
      <trkpt lat="59.9744062" lon="17.7356662">
        <ele>22.7283</ele>
        <time>2013-04-14T10:04:56Z</time>
      </trkpt>
      <trkpt lat="59.9743843" lon="17.7355246">
        <ele>22.7283</ele>
        <time>2013-04-14T10:04:57Z</time>
      </trkpt>
      <trkpt lat="59.9743656" lon="17.73538">
        <ele>22.2476</ele>
        <time>2013-04-14T10:04:58Z</time>
      </trkpt>
      <trkpt lat="59.9743496" lon="17.735234">
        <ele>22.2476</ele>
        <time>2013-04-14T10:04:59Z</time>
      </trkpt>
      <trkpt lat="59.9743357" lon="17.7350864">
        <ele>22.2476</ele>
        <time>2013-04-14T10:05:00Z</time>
      </trkpt>
      <trkpt lat="59.9743228" lon="17.7349376">
        <ele>21.767</ele>
        <time>2013-04-14T10:05:01Z</time>
      </trkpt>
      <trkpt lat="59.9743122" lon="17.734789">
        <ele>21.767</ele>
        <time>2013-04-14T10:05:02Z</time>
      </trkpt>
      <trkpt lat="59.9743046" lon="17.7346409">
        <ele>21.767</ele>
        <time>2013-04-14T10:05:03Z</time>
      </trkpt>
      <trkpt lat="59.9743004" lon="17.7344936">
        <ele>21.767</ele>
        <time>2013-04-14T10:05:04Z</time>
      </trkpt>
      <trkpt lat="59.9742995" lon="17.7343467">
        <ele>21.2864</ele>
        <time>2013-04-14T10:05:05Z</time>
      </trkpt>
      <trkpt lat="59.9743025" lon="17.7342018">
        <ele>21.2864</ele>
        <time>2013-04-14T10:05:06Z</time>
      </trkpt>
      <trkpt lat="59.9743072" lon="17.7340591">
        <ele>21.2864</ele>
        <time>2013-04-14T10:05:07Z</time>
      </trkpt>
      <trkpt lat="59.9743128" lon="17.7339179">
        <ele>21.2864</ele>
        <time>2013-04-14T10:05:08Z</time>
      </trkpt>
      <trkpt lat="59.9743194" lon="17.7337791">
        <ele>21.2864</ele>
        <time>2013-04-14T10:05:09Z</time>
      </trkpt>
      <trkpt lat="59.9743274" lon="17.7336428">
        <ele>21.2864</ele>
        <time>2013-04-14T10:05:10Z</time>
      </trkpt>
      <trkpt lat="59.9743354" lon="17.7335095">
        <ele>21.2864</ele>
        <time>2013-04-14T10:05:11Z</time>
      </trkpt>
      <trkpt lat="59.9743417" lon="17.7333781">
        <ele>21.2864</ele>
        <time>2013-04-14T10:05:12Z</time>
      </trkpt>
      <trkpt lat="59.9743461" lon="17.7332486">
        <ele>21.2864</ele>
        <time>2013-04-14T10:05:13Z</time>
      </trkpt>
      <trkpt lat="59.9743487" lon="17.7331206">
        <ele>21.2864</ele>
        <time>2013-04-14T10:05:14Z</time>
      </trkpt>
      <trkpt lat="59.9743517" lon="17.7329935">
        <ele>21.2864</ele>
        <time>2013-04-14T10:05:15Z</time>
      </trkpt>
      <trkpt lat="59.9743551" lon="17.7328665">
        <ele>20.8057</ele>
        <time>2013-04-14T10:05:16Z</time>
      </trkpt>
      <trkpt lat="59.9743565" lon="17.7327404">
        <ele>20.8057</ele>
        <time>2013-04-14T10:05:17Z</time>
      </trkpt>
      <trkpt lat="59.9743564" lon="17.732616">
        <ele>20.8057</ele>
        <time>2013-04-14T10:05:18Z</time>
      </trkpt>
      <trkpt lat="59.9743551" lon="17.7324939">
        <ele>20.8057</ele>
        <time>2013-04-14T10:05:19Z</time>
      </trkpt>
      <trkpt lat="59.9743527" lon="17.7323731">
        <ele>20.8057</ele>
        <time>2013-04-14T10:05:20Z</time>
      </trkpt>
      <trkpt lat="59.9743496" lon="17.7322535">
        <ele>20.8057</ele>
        <time>2013-04-14T10:05:21Z</time>
      </trkpt>
      <trkpt lat="59.974347" lon="17.7321348">
        <ele>20.8057</ele>
        <time>2013-04-14T10:05:22Z</time>
      </trkpt>
      <trkpt lat="59.9743443" lon="17.7320168">
        <ele>20.8057</ele>
        <time>2013-04-14T10:05:23Z</time>
      </trkpt>
      <trkpt lat="59.9743413" lon="17.7318999">
        <ele>20.8057</ele>
        <time>2013-04-14T10:05:24Z</time>
      </trkpt>
      <trkpt lat="59.9743393" lon="17.7317832">
        <ele>20.8057</ele>
        <time>2013-04-14T10:05:25Z</time>
      </trkpt>
      <trkpt lat="59.9743386" lon="17.7316666">
        <ele>20.8057</ele>
        <time>2013-04-14T10:05:26Z</time>
      </trkpt>
      <trkpt lat="59.9743382" lon="17.7315499">
        <ele>20.8057</ele>
        <time>2013-04-14T10:05:27Z</time>
      </trkpt>
      <trkpt lat="59.9743376" lon="17.7314339">
        <ele>20.8057</ele>
        <time>2013-04-14T10:05:28Z</time>
      </trkpt>
      <trkpt lat="59.9743387" lon="17.731319">
        <ele>20.8057</ele>
        <time>2013-04-14T10:05:29Z</time>
      </trkpt>
      <trkpt lat="59.9743424" lon="17.7312054">
        <ele>20.8057</ele>
        <time>2013-04-14T10:05:30Z</time>
      </trkpt>
      <trkpt lat="59.9743471" lon="17.7310922">
        <ele>20.8057</ele>
        <time>2013-04-14T10:05:31Z</time>
      </trkpt>
      <trkpt lat="59.9743517" lon="17.7309796">
        <ele>20.8057</ele>
        <time>2013-04-14T10:05:32Z</time>
      </trkpt>
      <trkpt lat="59.9743567" lon="17.7308678">
        <ele>20.8057</ele>
        <time>2013-04-14T10:05:33Z</time>
      </trkpt>
      <trkpt lat="59.974364" lon="17.7307569">
        <ele>20.8057</ele>
        <time>2013-04-14T10:05:34Z</time>
      </trkpt>
      <trkpt lat="59.9743729" lon="17.7306466">
        <ele>20.8057</ele>
        <time>2013-04-14T10:05:35Z</time>
      </trkpt>
      <trkpt lat="59.974382" lon="17.7305365">
        <ele>20.8057</ele>
        <time>2013-04-14T10:05:36Z</time>
      </trkpt>
      <trkpt lat="59.9743908" lon="17.7304274">
        <ele>20.8057</ele>
        <time>2013-04-14T10:05:37Z</time>
      </trkpt>
      <trkpt lat="59.9743995" lon="17.730319">
        <ele>20.8057</ele>
        <time>2013-04-14T10:05:38Z</time>
      </trkpt>
      <trkpt lat="59.9744081" lon="17.7302115">
        <ele>20.8057</ele>
        <time>2013-04-14T10:05:39Z</time>
      </trkpt>
      <trkpt lat="59.9744162" lon="17.7301054">
        <ele>20.8057</ele>
        <time>2013-04-14T10:05:40Z</time>
      </trkpt>
      <trkpt lat="59.974424" lon="17.7300001">
        <ele>20.8057</ele>
        <time>2013-04-14T10:05:41Z</time>
      </trkpt>
      <trkpt lat="59.9744329" lon="17.7298956">
        <ele>20.8057</ele>
        <time>2013-04-14T10:05:42Z</time>
      </trkpt>
      <trkpt lat="59.9744419" lon="17.7297909">
        <ele>20.8057</ele>
        <time>2013-04-14T10:05:43Z</time>
      </trkpt>
      <trkpt lat="59.9744496" lon="17.7296854">
        <ele>20.8057</ele>
        <time>2013-04-14T10:05:44Z</time>
      </trkpt>
      <trkpt lat="59.9744552" lon="17.7295784">
        <ele>20.8057</ele>
        <time>2013-04-14T10:05:45Z</time>
      </trkpt>
      <trkpt lat="59.9744592" lon="17.7294708">
        <ele>21.2864</ele>
        <time>2013-04-14T10:05:46Z</time>
      </trkpt>
      <trkpt lat="59.9744615" lon="17.7293628">
        <ele>21.2864</ele>
        <time>2013-04-14T10:05:47Z</time>
      </trkpt>
      <trkpt lat="59.9744618" lon="17.7292542">
        <ele>21.2864</ele>
        <time>2013-04-14T10:05:48Z</time>
      </trkpt>
      <trkpt lat="59.9744609" lon="17.7291452">
        <ele>21.2864</ele>
        <time>2013-04-14T10:05:49Z</time>
      </trkpt>
      <trkpt lat="59.9744592" lon="17.7290353">
        <ele>21.2864</ele>
        <time>2013-04-14T10:05:50Z</time>
      </trkpt>
      <trkpt lat="59.974457" lon="17.7289241">
        <ele>21.2864</ele>
        <time>2013-04-14T10:05:51Z</time>
      </trkpt>
      <trkpt lat="59.9744537" lon="17.7288107">
        <ele>21.2864</ele>
        <time>2013-04-14T10:05:52Z</time>
      </trkpt>
      <trkpt lat="59.9744494" lon="17.728695">
        <ele>21.2864</ele>
        <time>2013-04-14T10:05:53Z</time>
      </trkpt>
      <trkpt lat="59.9744449" lon="17.7285782">
        <ele>21.2864</ele>
        <time>2013-04-14T10:05:54Z</time>
      </trkpt>
      <trkpt lat="59.9744412" lon="17.7284614">
        <ele>21.2864</ele>
        <time>2013-04-14T10:05:55Z</time>
      </trkpt>
      <trkpt lat="59.9744382" lon="17.7283445">
        <ele>21.2864</ele>
        <time>2013-04-14T10:05:56Z</time>
      </trkpt>
      <trkpt lat="59.974435" lon="17.7282274">
        <ele>21.767</ele>
        <time>2013-04-14T10:05:57Z</time>
      </trkpt>
      <trkpt lat="59.9744325" lon="17.7281103">
        <ele>21.767</ele>
        <time>2013-04-14T10:05:58Z</time>
      </trkpt>
      <trkpt lat="59.9744298" lon="17.7279933">
        <ele>21.767</ele>
        <time>2013-04-14T10:05:59Z</time>
      </trkpt>
      <trkpt lat="59.9744267" lon="17.7278764">
        <ele>21.767</ele>
        <time>2013-04-14T10:06:00Z</time>
      </trkpt>
      <trkpt lat="59.9744245" lon="17.7277603">
        <ele>21.767</ele>
        <time>2013-04-14T10:06:01Z</time>
      </trkpt>
      <trkpt lat="59.9744221" lon="17.7276462">
        <ele>22.2476</ele>
        <time>2013-04-14T10:06:02Z</time>
      </trkpt>
      <trkpt lat="59.9744201" lon="17.7275342">
        <ele>22.2476</ele>
        <time>2013-04-14T10:06:03Z</time>
      </trkpt>
      <trkpt lat="59.974418" lon="17.7274235">
        <ele>22.7283</ele>
        <time>2013-04-14T10:06:04Z</time>
      </trkpt>
      <trkpt lat="59.9744148" lon="17.7273157">
        <ele>23.209</ele>
        <time>2013-04-14T10:06:05Z</time>
      </trkpt>
      <trkpt lat="59.974411" lon="17.7272091">
        <ele>23.209</ele>
        <time>2013-04-14T10:06:06Z</time>
      </trkpt>
      <trkpt lat="59.9744075" lon="17.7271029">
        <ele>23.6896</ele>
        <time>2013-04-14T10:06:07Z</time>
      </trkpt>
      <trkpt lat="59.9744069" lon="17.7270007">
        <ele>23.6896</ele>
        <time>2013-04-14T10:06:08Z</time>
      </trkpt>
      <trkpt lat="59.9744071" lon="17.7269029">
        <ele>24.1703</ele>
        <time>2013-04-14T10:06:09Z</time>
      </trkpt>
      <trkpt lat="59.9744062" lon="17.726805">
        <ele>24.651</ele>
        <time>2013-04-14T10:06:10Z</time>
      </trkpt>
      <trkpt lat="59.9744043" lon="17.7267054">
        <ele>24.651</ele>
        <time>2013-04-14T10:06:11Z</time>
      </trkpt>
      <trkpt lat="59.9744012" lon="17.7266071">
        <ele>25.1317</ele>
        <time>2013-04-14T10:06:12Z</time>
      </trkpt>
      <trkpt lat="59.9743973" lon="17.7265097">
        <ele>25.1317</ele>
        <time>2013-04-14T10:06:13Z</time>
      </trkpt>
      <trkpt lat="59.9743945" lon="17.7264118">
        <ele>25.6123</ele>
        <time>2013-04-14T10:06:14Z</time>
      </trkpt>
      <trkpt lat="59.9743919" lon="17.7263119">
        <ele>25.6123</ele>
        <time>2013-04-14T10:06:15Z</time>
      </trkpt>
      <trkpt lat="59.9743862" lon="17.7262102">
        <ele>25.6123</ele>
        <time>2013-04-14T10:06:16Z</time>
      </trkpt>
      <trkpt lat="59.9743789" lon="17.726106">
        <ele>25.6123</ele>
        <time>2013-04-14T10:06:17Z</time>
      </trkpt>
      <trkpt lat="59.9743719" lon="17.7260001">
        <ele>25.6123</ele>
        <time>2013-04-14T10:06:18Z</time>
      </trkpt>
      <trkpt lat="59.9743645" lon="17.7258933">
        <ele>25.6123</ele>
        <time>2013-04-14T10:06:19Z</time>
      </trkpt>
      <trkpt lat="59.9743567" lon="17.7257867">
        <ele>25.6123</ele>
        <time>2013-04-14T10:06:20Z</time>
      </trkpt>
      <trkpt lat="59.9743492" lon="17.7256814">
        <ele>25.6123</ele>
        <time>2013-04-14T10:06:21Z</time>
      </trkpt>
      <trkpt lat="59.9743413" lon="17.725575">
        <ele>25.6123</ele>
        <time>2013-04-14T10:06:22Z</time>
      </trkpt>
      <trkpt lat="59.9743319" lon="17.7254671">
        <ele>25.6123</ele>
        <time>2013-04-14T10:06:23Z</time>
      </trkpt>
      <trkpt lat="59.9743206" lon="17.7253586">
        <ele>25.6123</ele>
        <time>2013-04-14T10:06:24Z</time>
      </trkpt>
      <trkpt lat="59.9743077" lon="17.7252492">
        <ele>25.6123</ele>
        <time>2013-04-14T10:06:25Z</time>
      </trkpt>
      <trkpt lat="59.9742938" lon="17.7251391">
        <ele>25.6123</ele>
        <time>2013-04-14T10:06:26Z</time>
      </trkpt>
      <trkpt lat="59.9742797" lon="17.7250276">
        <ele>25.6123</ele>
        <time>2013-04-14T10:06:27Z</time>
      </trkpt>
      <trkpt lat="59.9742645" lon="17.7249144">
        <ele>26.0929</ele>
        <time>2013-04-14T10:06:28Z</time>
      </trkpt>
      <trkpt lat="59.9742476" lon="17.7247998">
        <ele>26.0929</ele>
        <time>2013-04-14T10:06:29Z</time>
      </trkpt>
      <trkpt lat="59.974231" lon="17.7246832">
        <ele>26.0929</ele>
        <time>2013-04-14T10:06:30Z</time>
      </trkpt>
      <trkpt lat="59.9742155" lon="17.724564">
        <ele>26.0929</ele>
        <time>2013-04-14T10:06:31Z</time>
      </trkpt>
      <trkpt lat="59.9741992" lon="17.7244437">
        <ele>26.0929</ele>
        <time>2013-04-14T10:06:32Z</time>
      </trkpt>
      <trkpt lat="59.9741812" lon="17.7243231">
        <ele>26.0929</ele>
        <time>2013-04-14T10:06:33Z</time>
      </trkpt>
      <trkpt lat="59.9741627" lon="17.7242026">
        <ele>26.0929</ele>
        <time>2013-04-14T10:06:34Z</time>
      </trkpt>
      <trkpt lat="59.9741445" lon="17.7240813">
        <ele>26.0929</ele>
        <time>2013-04-14T10:06:35Z</time>
      </trkpt>
      <trkpt lat="59.9741269" lon="17.7239592">
        <ele>26.0929</ele>
        <time>2013-04-14T10:06:36Z</time>
      </trkpt>
      <trkpt lat="59.9741098" lon="17.7238376">
        <ele>26.0929</ele>
        <time>2013-04-14T10:06:37Z</time>
      </trkpt>
      <trkpt lat="59.9740922" lon="17.7237161">
        <ele>26.5736</ele>
        <time>2013-04-14T10:06:38Z</time>
      </trkpt>
      <trkpt lat="59.9740735" lon="17.7235952">
        <ele>26.5736</ele>
        <time>2013-04-14T10:06:39Z</time>
      </trkpt>
      <trkpt lat="59.9740538" lon="17.7234748">
        <ele>26.5736</ele>
        <time>2013-04-14T10:06:40Z</time>
      </trkpt>
      <trkpt lat="59.9740324" lon="17.723356">
        <ele>26.5736</ele>
        <time>2013-04-14T10:06:41Z</time>
      </trkpt>
      <trkpt lat="59.9740088" lon="17.7232385">
        <ele>26.5736</ele>
        <time>2013-04-14T10:06:42Z</time>
      </trkpt>
      <trkpt lat="59.9739843" lon="17.7231204">
        <ele>26.5736</ele>
        <time>2013-04-14T10:06:43Z</time>
      </trkpt>
      <trkpt lat="59.973958" lon="17.7230017">
        <ele>26.5736</ele>
        <time>2013-04-14T10:06:44Z</time>
      </trkpt>
      <trkpt lat="59.973929" lon="17.7228821">
        <ele>26.5736</ele>
        <time>2013-04-14T10:06:45Z</time>
      </trkpt>
      <trkpt lat="59.9738977" lon="17.7227625">
        <ele>26.5736</ele>
        <time>2013-04-14T10:06:46Z</time>
      </trkpt>
      <trkpt lat="59.9738658" lon="17.7226419">
        <ele>26.5736</ele>
        <time>2013-04-14T10:06:47Z</time>
      </trkpt>
      <trkpt lat="59.9738353" lon="17.72252">
        <ele>26.5736</ele>
        <time>2013-04-14T10:06:48Z</time>
      </trkpt>
      <trkpt lat="59.9738058" lon="17.7223996">
        <ele>27.0543</ele>
        <time>2013-04-14T10:06:49Z</time>
      </trkpt>
      <trkpt lat="59.9737762" lon="17.7222827">
        <ele>27.0543</ele>
        <time>2013-04-14T10:06:50Z</time>
      </trkpt>
      <trkpt lat="59.9737455" lon="17.722171">
        <ele>27.0543</ele>
        <time>2013-04-14T10:06:51Z</time>
      </trkpt>
      <trkpt lat="59.9737125" lon="17.7220651">
        <ele>27.0543</ele>
        <time>2013-04-14T10:06:52Z</time>
      </trkpt>
      <trkpt lat="59.9736776" lon="17.7219642">
        <ele>27.0543</ele>
        <time>2013-04-14T10:06:53Z</time>
      </trkpt>
      <trkpt lat="59.9736398" lon="17.7218678">
        <ele>27.0543</ele>
        <time>2013-04-14T10:06:54Z</time>
      </trkpt>
      <trkpt lat="59.973603" lon="17.7217745">
        <ele>27.0543</ele>
        <time>2013-04-14T10:06:55Z</time>
      </trkpt>
      <trkpt lat="59.9735657" lon="17.7216824">
        <ele>27.5349</ele>
        <time>2013-04-14T10:06:56Z</time>
      </trkpt>
      <trkpt lat="59.973528" lon="17.7215923">
        <ele>27.5349</ele>
        <time>2013-04-14T10:06:57Z</time>
      </trkpt>
      <trkpt lat="59.9734885" lon="17.7215067">
        <ele>27.5349</ele>
        <time>2013-04-14T10:06:58Z</time>
      </trkpt>
      <trkpt lat="59.9734476" lon="17.7214256">
        <ele>27.5349</ele>
        <time>2013-04-14T10:06:59Z</time>
      </trkpt>
      <trkpt lat="59.973408" lon="17.7213452">
        <ele>27.5349</ele>
        <time>2013-04-14T10:07:00Z</time>
      </trkpt>
      <trkpt lat="59.9733696" lon="17.7212633">
        <ele>27.5349</ele>
        <time>2013-04-14T10:07:01Z</time>
      </trkpt>
      <trkpt lat="59.9733307" lon="17.7211825">
        <ele>27.5349</ele>
        <time>2013-04-14T10:07:02Z</time>
      </trkpt>
      <trkpt lat="59.9732899" lon="17.7211065">
        <ele>27.5349</ele>
        <time>2013-04-14T10:07:03Z</time>
      </trkpt>
      <trkpt lat="59.9732473" lon="17.7210349">
        <ele>27.5349</ele>
        <time>2013-04-14T10:07:04Z</time>
      </trkpt>
      <trkpt lat="59.9732041" lon="17.7209639">
        <ele>27.5349</ele>
        <time>2013-04-14T10:07:05Z</time>
      </trkpt>
      <trkpt lat="59.9731603" lon="17.7208945">
        <ele>27.5349</ele>
        <time>2013-04-14T10:07:06Z</time>
      </trkpt>
      <trkpt lat="59.9731148" lon="17.720827">
        <ele>27.5349</ele>
        <time>2013-04-14T10:07:07Z</time>
      </trkpt>
      <trkpt lat="59.9730691" lon="17.7207612">
        <ele>27.5349</ele>
        <time>2013-04-14T10:07:08Z</time>
      </trkpt>
      <trkpt lat="59.973022" lon="17.720697">
        <ele>27.5349</ele>
        <time>2013-04-14T10:07:09Z</time>
      </trkpt>
      <trkpt lat="59.9729742" lon="17.7206324">
        <ele>27.5349</ele>
        <time>2013-04-14T10:07:10Z</time>
      </trkpt>
      <trkpt lat="59.9729264" lon="17.7205677">
        <ele>27.5349</ele>
        <time>2013-04-14T10:07:11Z</time>
      </trkpt>
      <trkpt lat="59.972878" lon="17.720505">
        <ele>28.0155</ele>
        <time>2013-04-14T10:07:12Z</time>
      </trkpt>
      <trkpt lat="59.9728287" lon="17.7204438">
        <ele>28.0155</ele>
        <time>2013-04-14T10:07:13Z</time>
      </trkpt>
      <trkpt lat="59.972777" lon="17.7203861">
        <ele>28.0155</ele>
        <time>2013-04-14T10:07:14Z</time>
      </trkpt>
      <trkpt lat="59.9727236" lon="17.7203318">
        <ele>28.0155</ele>
        <time>2013-04-14T10:07:15Z</time>
      </trkpt>
      <trkpt lat="59.972669" lon="17.7202789">
        <ele>28.0155</ele>
        <time>2013-04-14T10:07:16Z</time>
      </trkpt>
      <trkpt lat="59.9726131" lon="17.7202264">
        <ele>28.0155</ele>
        <time>2013-04-14T10:07:17Z</time>
      </trkpt>
      <trkpt lat="59.9725573" lon="17.7201744">
        <ele>28.0155</ele>
        <time>2013-04-14T10:07:18Z</time>
      </trkpt>
      <trkpt lat="59.9725011" lon="17.7201235">
        <ele>28.0155</ele>
        <time>2013-04-14T10:07:19Z</time>
      </trkpt>
      <trkpt lat="59.9724442" lon="17.7200744">
        <ele>28.0155</ele>
        <time>2013-04-14T10:07:20Z</time>
      </trkpt>
      <trkpt lat="59.9723874" lon="17.7200253">
        <ele>28.0155</ele>
        <time>2013-04-14T10:07:21Z</time>
      </trkpt>
      <trkpt lat="59.9723308" lon="17.7199743">
        <ele>27.5349</ele>
        <time>2013-04-14T10:07:22Z</time>
      </trkpt>
      <trkpt lat="59.9722744" lon="17.719922">
        <ele>27.5349</ele>
        <time>2013-04-14T10:07:23Z</time>
      </trkpt>
      <trkpt lat="59.9722178" lon="17.7198707">
        <ele>27.5349</ele>
        <time>2013-04-14T10:07:24Z</time>
      </trkpt>
      <trkpt lat="59.9721608" lon="17.719821">
        <ele>28.0155</ele>
        <time>2013-04-14T10:07:25Z</time>
      </trkpt>
      <trkpt lat="59.9721033" lon="17.7197711">
        <ele>28.0155</ele>
        <time>2013-04-14T10:07:26Z</time>
      </trkpt>
      <trkpt lat="59.9720464" lon="17.7197192">
        <ele>28.0155</ele>
        <time>2013-04-14T10:07:27Z</time>
      </trkpt>
      <trkpt lat="59.971989" lon="17.7196667">
        <ele>28.0155</ele>
        <time>2013-04-14T10:07:28Z</time>
      </trkpt>
      <trkpt lat="59.971931" lon="17.719615">
        <ele>28.0155</ele>
        <time>2013-04-14T10:07:29Z</time>
      </trkpt>
      <trkpt lat="59.9718725" lon="17.7195638">
        <ele>28.0155</ele>
        <time>2013-04-14T10:07:30Z</time>
      </trkpt>
      <trkpt lat="59.971814" lon="17.7195122">
        <ele>28.0155</ele>
        <time>2013-04-14T10:07:31Z</time>
      </trkpt>
      <trkpt lat="59.9717557" lon="17.719459">
        <ele>28.0155</ele>
        <time>2013-04-14T10:07:32Z</time>
      </trkpt>
      <trkpt lat="59.9716969" lon="17.7194056">
        <ele>28.0155</ele>
        <time>2013-04-14T10:07:33Z</time>
      </trkpt>
      <trkpt lat="59.9716383" lon="17.7193523">
        <ele>28.4962</ele>
        <time>2013-04-14T10:07:34Z</time>
      </trkpt>
      <trkpt lat="59.9715793" lon="17.719299">
        <ele>28.4962</ele>
        <time>2013-04-14T10:07:35Z</time>
      </trkpt>
      <trkpt lat="59.9715209" lon="17.7192457">
        <ele>28.4962</ele>
        <time>2013-04-14T10:07:36Z</time>
      </trkpt>
      <trkpt lat="59.9714622" lon="17.7191926">
        <ele>28.4962</ele>
        <time>2013-04-14T10:07:37Z</time>
      </trkpt>
      <trkpt lat="59.9714027" lon="17.7191396">
        <ele>28.4962</ele>
        <time>2013-04-14T10:07:38Z</time>
      </trkpt>
      <trkpt lat="59.9713437" lon="17.7190859">
        <ele>28.4962</ele>
        <time>2013-04-14T10:07:39Z</time>
      </trkpt>
      <trkpt lat="59.9712849" lon="17.7190317">
        <ele>28.4962</ele>
        <time>2013-04-14T10:07:40Z</time>
      </trkpt>
      <trkpt lat="59.9712256" lon="17.7189789">
        <ele>28.4962</ele>
        <time>2013-04-14T10:07:41Z</time>
      </trkpt>
      <trkpt lat="59.971167" lon="17.7189274">
        <ele>28.4962</ele>
        <time>2013-04-14T10:07:42Z</time>
      </trkpt>
      <trkpt lat="59.9711094" lon="17.7188738">
        <ele>28.4962</ele>
        <time>2013-04-14T10:07:43Z</time>
      </trkpt>
      <trkpt lat="59.9710524" lon="17.7188189">
        <ele>28.4962</ele>
        <time>2013-04-14T10:07:44Z</time>
      </trkpt>
      <trkpt lat="59.9709953" lon="17.7187663">
        <ele>28.4962</ele>
        <time>2013-04-14T10:07:45Z</time>
      </trkpt>
      <trkpt lat="59.9709381" lon="17.7187152">
        <ele>28.9769</ele>
        <time>2013-04-14T10:07:46Z</time>
      </trkpt>
      <trkpt lat="59.9708809" lon="17.7186653">
        <ele>28.9769</ele>
        <time>2013-04-14T10:07:47Z</time>
      </trkpt>
      <trkpt lat="59.9708235" lon="17.7186158">
        <ele>28.9769</ele>
        <time>2013-04-14T10:07:48Z</time>
      </trkpt>
      <trkpt lat="59.970767" lon="17.718566">
        <ele>28.9769</ele>
        <time>2013-04-14T10:07:49Z</time>
      </trkpt>
      <trkpt lat="59.9707101" lon="17.7185152">
        <ele>28.9769</ele>
        <time>2013-04-14T10:07:50Z</time>
      </trkpt>
      <trkpt lat="59.9706534" lon="17.7184622">
        <ele>28.9769</ele>
        <time>2013-04-14T10:07:51Z</time>
      </trkpt>
      <trkpt lat="59.9705976" lon="17.7184073">
        <ele>28.9769</ele>
        <time>2013-04-14T10:07:52Z</time>
      </trkpt>
      <trkpt lat="59.9705417" lon="17.7183548">
        <ele>28.9769</ele>
        <time>2013-04-14T10:07:53Z</time>
      </trkpt>
      <trkpt lat="59.9704863" lon="17.7183048">
        <ele>28.9769</ele>
        <time>2013-04-14T10:07:54Z</time>
      </trkpt>
      <trkpt lat="59.9704313" lon="17.7182537">
        <ele>28.9769</ele>
        <time>2013-04-14T10:07:55Z</time>
      </trkpt>
      <trkpt lat="59.9703763" lon="17.7182024">
        <ele>28.9769</ele>
        <time>2013-04-14T10:07:56Z</time>
      </trkpt>
      <trkpt lat="59.9703215" lon="17.7181535">
        <ele>28.9769</ele>
        <time>2013-04-14T10:07:57Z</time>
      </trkpt>
      <trkpt lat="59.9702666" lon="17.7181055">
        <ele>28.9769</ele>
        <time>2013-04-14T10:07:58Z</time>
      </trkpt>
      <trkpt lat="59.9702113" lon="17.718057">
        <ele>28.4962</ele>
        <time>2013-04-14T10:07:59Z</time>
      </trkpt>
      <trkpt lat="59.9701563" lon="17.7180082">
        <ele>28.4962</ele>
        <time>2013-04-14T10:08:00Z</time>
      </trkpt>
      <trkpt lat="59.9701019" lon="17.7179573">
        <ele>28.4962</ele>
        <time>2013-04-14T10:08:01Z</time>
      </trkpt>
      <trkpt lat="59.9700475" lon="17.7179054">
        <ele>28.9769</ele>
        <time>2013-04-14T10:08:02Z</time>
      </trkpt>
      <trkpt lat="59.9699926" lon="17.7178564">
        <ele>28.9769</ele>
        <time>2013-04-14T10:08:03Z</time>
      </trkpt>
      <trkpt lat="59.9699378" lon="17.7178088">
        <ele>28.9769</ele>
        <time>2013-04-14T10:08:04Z</time>
      </trkpt>
      <trkpt lat="59.9698837" lon="17.7177616">
        <ele>28.9769</ele>
        <time>2013-04-14T10:08:05Z</time>
      </trkpt>
      <trkpt lat="59.9698295" lon="17.7177142">
        <ele>28.9769</ele>
        <time>2013-04-14T10:08:06Z</time>
      </trkpt>
      <trkpt lat="59.9697757" lon="17.7176683">
        <ele>28.9769</ele>
        <time>2013-04-14T10:08:07Z</time>
      </trkpt>
      <trkpt lat="59.9697217" lon="17.7176264">
        <ele>28.9769</ele>
        <time>2013-04-14T10:08:08Z</time>
      </trkpt>
      <trkpt lat="59.9696678" lon="17.7175876">
        <ele>28.9769</ele>
        <time>2013-04-14T10:08:09Z</time>
      </trkpt>
      <trkpt lat="59.9696145" lon="17.7175508">
        <ele>29.4575</ele>
        <time>2013-04-14T10:08:10Z</time>
      </trkpt>
      <trkpt lat="59.9695616" lon="17.7175153">
        <ele>29.4575</ele>
        <time>2013-04-14T10:08:11Z</time>
      </trkpt>
      <trkpt lat="59.9695077" lon="17.7174811">
        <ele>29.4575</ele>
        <time>2013-04-14T10:08:12Z</time>
      </trkpt>
      <trkpt lat="59.9694529" lon="17.7174482">
        <ele>29.4575</ele>
        <time>2013-04-14T10:08:13Z</time>
      </trkpt>
      <trkpt lat="59.9693984" lon="17.7174179">
        <ele>29.4575</ele>
        <time>2013-04-14T10:08:14Z</time>
      </trkpt>
      <trkpt lat="59.9693429" lon="17.7173887">
        <ele>29.4575</ele>
        <time>2013-04-14T10:08:15Z</time>
      </trkpt>
      <trkpt lat="59.9692875" lon="17.7173625">
        <ele>29.4575</ele>
        <time>2013-04-14T10:08:16Z</time>
      </trkpt>
      <trkpt lat="59.9692325" lon="17.7173383">
        <ele>29.4575</ele>
        <time>2013-04-14T10:08:17Z</time>
      </trkpt>
      <trkpt lat="59.9691773" lon="17.7173136">
        <ele>29.9381</ele>
        <time>2013-04-14T10:08:18Z</time>
      </trkpt>
      <trkpt lat="59.9691223" lon="17.7172896">
        <ele>29.9381</ele>
        <time>2013-04-14T10:08:19Z</time>
      </trkpt>
      <trkpt lat="59.969067" lon="17.7172664">
        <ele>29.9381</ele>
        <time>2013-04-14T10:08:20Z</time>
      </trkpt>
      <trkpt lat="59.9690114" lon="17.7172429">
        <ele>29.9381</ele>
        <time>2013-04-14T10:08:21Z</time>
      </trkpt>
      <trkpt lat="59.9689549" lon="17.7172204">
        <ele>29.9381</ele>
        <time>2013-04-14T10:08:22Z</time>
      </trkpt>
      <trkpt lat="59.9688981" lon="17.7171988">
        <ele>29.9381</ele>
        <time>2013-04-14T10:08:23Z</time>
      </trkpt>
      <trkpt lat="59.9688415" lon="17.717176">
        <ele>29.9381</ele>
        <time>2013-04-14T10:08:24Z</time>
      </trkpt>
      <trkpt lat="59.968785" lon="17.7171535">
        <ele>29.9381</ele>
        <time>2013-04-14T10:08:25Z</time>
      </trkpt>
      <trkpt lat="59.9687277" lon="17.7171312">
        <ele>29.4575</ele>
        <time>2013-04-14T10:08:26Z</time>
      </trkpt>
      <trkpt lat="59.9686699" lon="17.7171068">
        <ele>29.4575</ele>
        <time>2013-04-14T10:08:27Z</time>
      </trkpt>
      <trkpt lat="59.9686116" lon="17.7170809">
        <ele>29.4575</ele>
        <time>2013-04-14T10:08:28Z</time>
      </trkpt>
      <trkpt lat="59.9685522" lon="17.7170514">
        <ele>29.4575</ele>
        <time>2013-04-14T10:08:29Z</time>
      </trkpt>
      <trkpt lat="59.9684925" lon="17.7170193">
        <ele>28.9769</ele>
        <time>2013-04-14T10:08:30Z</time>
      </trkpt>
      <trkpt lat="59.9684324" lon="17.7169845">
        <ele>28.9769</ele>
        <time>2013-04-14T10:08:31Z</time>
      </trkpt>
      <trkpt lat="59.9683718" lon="17.7169442">
        <ele>28.4962</ele>
        <time>2013-04-14T10:08:32Z</time>
      </trkpt>
      <trkpt lat="59.9683106" lon="17.7168956">
        <ele>28.4962</ele>
        <time>2013-04-14T10:08:33Z</time>
      </trkpt>
      <trkpt lat="59.9682485" lon="17.716839">
        <ele>28.0155</ele>
        <time>2013-04-14T10:08:34Z</time>
      </trkpt>
      <trkpt lat="59.9681856" lon="17.7167735">
        <ele>27.5349</ele>
        <time>2013-04-14T10:08:35Z</time>
      </trkpt>
      <trkpt lat="59.9681232" lon="17.7166991">
        <ele>27.0543</ele>
        <time>2013-04-14T10:08:36Z</time>
      </trkpt>
      <trkpt lat="59.9680615" lon="17.7166163">
        <ele>26.5736</ele>
        <time>2013-04-14T10:08:37Z</time>
      </trkpt>
      <trkpt lat="59.9679998" lon="17.7165257">
        <ele>26.5736</ele>
        <time>2013-04-14T10:08:38Z</time>
      </trkpt>
      <trkpt lat="59.9679391" lon="17.7164257">
        <ele>26.0929</ele>
        <time>2013-04-14T10:08:39Z</time>
      </trkpt>
      <trkpt lat="59.9678798" lon="17.7163153">
        <ele>25.6123</ele>
        <time>2013-04-14T10:08:40Z</time>
      </trkpt>
      <trkpt lat="59.9678215" lon="17.7161945">
        <ele>25.1317</ele>
        <time>2013-04-14T10:08:41Z</time>
      </trkpt>
      <trkpt lat="59.9677642" lon="17.7160626">
        <ele>24.1703</ele>
        <time>2013-04-14T10:08:42Z</time>
      </trkpt>
      <trkpt lat="59.9677118" lon="17.7159236">
        <ele>23.6896</ele>
        <time>2013-04-14T10:08:43Z</time>
      </trkpt>
      <trkpt lat="59.9676638" lon="17.7157769">
        <ele>23.209</ele>
        <time>2013-04-14T10:08:44Z</time>
      </trkpt>
      <trkpt lat="59.9676205" lon="17.7156247">
        <ele>22.7283</ele>
        <time>2013-04-14T10:08:45Z</time>
      </trkpt>
      <trkpt lat="59.9675817" lon="17.7154692">
        <ele>22.2476</ele>
        <time>2013-04-14T10:08:46Z</time>
      </trkpt>
      <trkpt lat="59.9675495" lon="17.7153206">
        <ele>21.767</ele>
        <time>2013-04-14T10:08:47Z</time>
      </trkpt>
      <trkpt lat="59.9675299" lon="17.7151736">
        <ele>21.2864</ele>
        <time>2013-04-14T10:08:48Z</time>
      </trkpt>
      <trkpt lat="59.9675127" lon="17.7150242">
        <ele>21.2864</ele>
        <time>2013-04-14T10:08:49Z</time>
      </trkpt>
      <trkpt lat="59.9674916" lon="17.7148782">
        <ele>20.8057</ele>
        <time>2013-04-14T10:08:50Z</time>
      </trkpt>
      <trkpt lat="59.9674723" lon="17.7147359">
        <ele>21.2864</ele>
        <time>2013-04-14T10:08:51Z</time>
      </trkpt>
      <trkpt lat="59.9674548" lon="17.7145981">
        <ele>21.2864</ele>
        <time>2013-04-14T10:08:52Z</time>
      </trkpt>
      <trkpt lat="59.9674383" lon="17.7144696">
        <ele>21.2864</ele>
        <time>2013-04-14T10:08:53Z</time>
      </trkpt>
      <trkpt lat="59.9674226" lon="17.7143477">
        <ele>21.767</ele>
        <time>2013-04-14T10:08:54Z</time>
      </trkpt>
      <trkpt lat="59.9674078" lon="17.7142322">
        <ele>22.2476</ele>
        <time>2013-04-14T10:08:55Z</time>
      </trkpt>
      <trkpt lat="59.9673936" lon="17.7141206">
        <ele>22.2476</ele>
        <time>2013-04-14T10:08:56Z</time>
      </trkpt>
      <trkpt lat="59.9673797" lon="17.7140138">
        <ele>22.2476</ele>
        <time>2013-04-14T10:08:57Z</time>
      </trkpt>
      <trkpt lat="59.9673654" lon="17.713912">
        <ele>22.7283</ele>
        <time>2013-04-14T10:08:58Z</time>
      </trkpt>
      <trkpt lat="59.9673516" lon="17.7138138">
        <ele>23.209</ele>
        <time>2013-04-14T10:08:59Z</time>
      </trkpt>
      <trkpt lat="59.9673382" lon="17.713718">
        <ele>23.6896</ele>
        <time>2013-04-14T10:09:00Z</time>
      </trkpt>
      <trkpt lat="59.9673245" lon="17.7136232">
        <ele>24.1703</ele>
        <time>2013-04-14T10:09:01Z</time>
      </trkpt>
      <trkpt lat="59.9673104" lon="17.7135301">
        <ele>24.1703</ele>
        <time>2013-04-14T10:09:02Z</time>
      </trkpt>
      <trkpt lat="59.9672958" lon="17.7134397">
        <ele>24.651</ele>
        <time>2013-04-14T10:09:03Z</time>
      </trkpt>
      <trkpt lat="59.9672798" lon="17.7133524">
        <ele>25.1317</ele>
        <time>2013-04-14T10:09:04Z</time>
      </trkpt>
      <trkpt lat="59.9672643" lon="17.7132661">
        <ele>25.1317</ele>
        <time>2013-04-14T10:09:05Z</time>
      </trkpt>
      <trkpt lat="59.9672488" lon="17.7131803">
        <ele>25.6123</ele>
        <time>2013-04-14T10:09:06Z</time>
      </trkpt>
      <trkpt lat="59.9672322" lon="17.7130959">
        <ele>25.6123</ele>
        <time>2013-04-14T10:09:07Z</time>
      </trkpt>
      <trkpt lat="59.9672131" lon="17.713012">
        <ele>26.0929</ele>
        <time>2013-04-14T10:09:08Z</time>
      </trkpt>
      <trkpt lat="59.9671921" lon="17.7129286">
        <ele>26.0929</ele>
        <time>2013-04-14T10:09:09Z</time>
      </trkpt>
      <trkpt lat="59.9671704" lon="17.7128449">
        <ele>26.5736</ele>
        <time>2013-04-14T10:09:10Z</time>
      </trkpt>
      <trkpt lat="59.967148" lon="17.7127611">
        <ele>26.5736</ele>
        <time>2013-04-14T10:09:11Z</time>
      </trkpt>
      <trkpt lat="59.9671249" lon="17.7126774">
        <ele>27.0543</ele>
        <time>2013-04-14T10:09:12Z</time>
      </trkpt>
      <trkpt lat="59.967102" lon="17.7125938">
        <ele>27.0543</ele>
        <time>2013-04-14T10:09:13Z</time>
      </trkpt>
      <trkpt lat="59.9670782" lon="17.7125111">
        <ele>27.0543</ele>
        <time>2013-04-14T10:09:14Z</time>
      </trkpt>
      <trkpt lat="59.9670515" lon="17.7124312">
        <ele>27.5349</ele>
        <time>2013-04-14T10:09:15Z</time>
      </trkpt>
      <trkpt lat="59.9670218" lon="17.7123539">
        <ele>27.5349</ele>
        <time>2013-04-14T10:09:16Z</time>
      </trkpt>
      <trkpt lat="59.9669906" lon="17.7122763">
        <ele>27.5349</ele>
        <time>2013-04-14T10:09:17Z</time>
      </trkpt>
      <trkpt lat="59.9669588" lon="17.7121961">
        <ele>27.5349</ele>
        <time>2013-04-14T10:09:18Z</time>
      </trkpt>
      <trkpt lat="59.9669269" lon="17.7121142">
        <ele>27.5349</ele>
        <time>2013-04-14T10:09:19Z</time>
      </trkpt>
      <trkpt lat="59.9668948" lon="17.7120306">
        <ele>27.5349</ele>
        <time>2013-04-14T10:09:20Z</time>
      </trkpt>
      <trkpt lat="59.9668622" lon="17.7119449">
        <ele>28.0155</ele>
        <time>2013-04-14T10:09:21Z</time>
      </trkpt>
      <trkpt lat="59.9668296" lon="17.7118568">
        <ele>28.0155</ele>
        <time>2013-04-14T10:09:22Z</time>
      </trkpt>
      <trkpt lat="59.966798" lon="17.711767">
        <ele>28.0155</ele>
        <time>2013-04-14T10:09:23Z</time>
      </trkpt>
      <trkpt lat="59.9667657" lon="17.7116765">
        <ele>27.5349</ele>
        <time>2013-04-14T10:09:24Z</time>
      </trkpt>
      <trkpt lat="59.9667323" lon="17.7115843">
        <ele>28.0155</ele>
        <time>2013-04-14T10:09:25Z</time>
      </trkpt>
      <trkpt lat="59.9666986" lon="17.7114906">
        <ele>27.5349</ele>
        <time>2013-04-14T10:09:26Z</time>
      </trkpt>
      <trkpt lat="59.966665" lon="17.7113945">
        <ele>28.0155</ele>
        <time>2013-04-14T10:09:27Z</time>
      </trkpt>
      <trkpt lat="59.9666326" lon="17.7112945">
        <ele>28.0155</ele>
        <time>2013-04-14T10:09:28Z</time>
      </trkpt>
      <trkpt lat="59.9666023" lon="17.7111896">
        <ele>27.5349</ele>
        <time>2013-04-14T10:09:29Z</time>
      </trkpt>
      <trkpt lat="59.9665739" lon="17.7110818">
        <ele>27.5349</ele>
        <time>2013-04-14T10:09:30Z</time>
      </trkpt>
      <trkpt lat="59.9665466" lon="17.7109746">
        <ele>27.5349</ele>
        <time>2013-04-14T10:09:31Z</time>
      </trkpt>
      <trkpt lat="59.9665177" lon="17.7108704">
        <ele>27.5349</ele>
        <time>2013-04-14T10:09:32Z</time>
      </trkpt>
      <trkpt lat="59.9664867" lon="17.7107669">
        <ele>27.5349</ele>
        <time>2013-04-14T10:09:33Z</time>
      </trkpt>
      <trkpt lat="59.966456" lon="17.7106607">
        <ele>27.0543</ele>
        <time>2013-04-14T10:09:34Z</time>
      </trkpt>
      <trkpt lat="59.9664251" lon="17.7105522">
        <ele>27.0543</ele>
        <time>2013-04-14T10:09:35Z</time>
      </trkpt>
      <trkpt lat="59.9663939" lon="17.71044">
        <ele>27.0543</ele>
        <time>2013-04-14T10:09:36Z</time>
      </trkpt>
      <trkpt lat="59.9663628" lon="17.7103254">
        <ele>27.0543</ele>
        <time>2013-04-14T10:09:37Z</time>
      </trkpt>
      <trkpt lat="59.9663312" lon="17.7102089">
        <ele>27.0543</ele>
        <time>2013-04-14T10:09:38Z</time>
      </trkpt>
      <trkpt lat="59.9662987" lon="17.7100915">
        <ele>26.5736</ele>
        <time>2013-04-14T10:09:39Z</time>
      </trkpt>
      <trkpt lat="59.9662653" lon="17.7099738">
        <ele>26.5736</ele>
        <time>2013-04-14T10:09:40Z</time>
      </trkpt>
      <trkpt lat="59.9662317" lon="17.7098555">
        <ele>26.5736</ele>
        <time>2013-04-14T10:09:41Z</time>
      </trkpt>
      <trkpt lat="59.9661982" lon="17.7097371">
        <ele>26.5736</ele>
        <time>2013-04-14T10:09:42Z</time>
      </trkpt>
      <trkpt lat="59.9661659" lon="17.7096195">
        <ele>26.5736</ele>
        <time>2013-04-14T10:09:43Z</time>
      </trkpt>
      <trkpt lat="59.9661348" lon="17.7095028">
        <ele>26.5736</ele>
        <time>2013-04-14T10:09:44Z</time>
      </trkpt>
      <trkpt lat="59.966102" lon="17.709387">
        <ele>26.5736</ele>
        <time>2013-04-14T10:09:45Z</time>
      </trkpt>
      <trkpt lat="59.9660676" lon="17.7092724">
        <ele>26.5736</ele>
        <time>2013-04-14T10:09:46Z</time>
      </trkpt>
      <trkpt lat="59.9660331" lon="17.7091584">
        <ele>26.5736</ele>
        <time>2013-04-14T10:09:47Z</time>
      </trkpt>
      <trkpt lat="59.9659984" lon="17.7090439">
        <ele>26.5736</ele>
        <time>2013-04-14T10:09:48Z</time>
      </trkpt>
      <trkpt lat="59.9659629" lon="17.70893">
        <ele>26.5736</ele>
        <time>2013-04-14T10:09:49Z</time>
      </trkpt>
      <trkpt lat="59.9659264" lon="17.7088181">
        <ele>26.5736</ele>
        <time>2013-04-14T10:09:50Z</time>
      </trkpt>
      <trkpt lat="59.9658883" lon="17.7087081">
        <ele>27.0543</ele>
        <time>2013-04-14T10:09:51Z</time>
      </trkpt>
      <trkpt lat="59.9658476" lon="17.7086006">
        <ele>27.0543</ele>
        <time>2013-04-14T10:09:52Z</time>
      </trkpt>
      <trkpt lat="59.9658041" lon="17.7084976">
        <ele>27.0543</ele>
        <time>2013-04-14T10:09:53Z</time>
      </trkpt>
      <trkpt lat="59.9657583" lon="17.7083994">
        <ele>27.0543</ele>
        <time>2013-04-14T10:09:54Z</time>
      </trkpt>
      <trkpt lat="59.9657102" lon="17.7083067">
        <ele>27.0543</ele>
        <time>2013-04-14T10:09:55Z</time>
      </trkpt>
      <trkpt lat="59.96566" lon="17.7082222">
        <ele>27.0543</ele>
        <time>2013-04-14T10:09:56Z</time>
      </trkpt>
      <trkpt lat="59.9656082" lon="17.7081458">
        <ele>27.0543</ele>
        <time>2013-04-14T10:09:57Z</time>
      </trkpt>
      <trkpt lat="59.9655546" lon="17.7080788">
        <ele>27.5349</ele>
        <time>2013-04-14T10:09:58Z</time>
      </trkpt>
      <trkpt lat="59.9654992" lon="17.7080207">
        <ele>27.5349</ele>
        <time>2013-04-14T10:09:59Z</time>
      </trkpt>
      <trkpt lat="59.9654433" lon="17.7079694">
        <ele>27.5349</ele>
        <time>2013-04-14T10:10:00Z</time>
      </trkpt>
      <trkpt lat="59.9653875" lon="17.7079194">
        <ele>27.5349</ele>
        <time>2013-04-14T10:10:01Z</time>
      </trkpt>
      <trkpt lat="59.9653322" lon="17.7078702">
        <ele>27.5349</ele>
        <time>2013-04-14T10:10:02Z</time>
      </trkpt>
      <trkpt lat="59.9652775" lon="17.7078234">
        <ele>28.0155</ele>
        <time>2013-04-14T10:10:03Z</time>
      </trkpt>
      <trkpt lat="59.9652229" lon="17.707778">
        <ele>28.0155</ele>
        <time>2013-04-14T10:10:04Z</time>
      </trkpt>
      <trkpt lat="59.9651692" lon="17.7077346">
        <ele>28.0155</ele>
        <time>2013-04-14T10:10:05Z</time>
      </trkpt>
      <trkpt lat="59.9651161" lon="17.707693">
        <ele>28.0155</ele>
        <time>2013-04-14T10:10:06Z</time>
      </trkpt>
      <trkpt lat="59.9650636" lon="17.7076512">
        <ele>28.0155</ele>
        <time>2013-04-14T10:10:07Z</time>
      </trkpt>
      <trkpt lat="59.9650114" lon="17.7076101">
        <ele>28.4962</ele>
        <time>2013-04-14T10:10:08Z</time>
      </trkpt>
      <trkpt lat="59.9649587" lon="17.7075716">
        <ele>28.4962</ele>
        <time>2013-04-14T10:10:09Z</time>
      </trkpt>
      <trkpt lat="59.964905" lon="17.7075353">
        <ele>28.4962</ele>
        <time>2013-04-14T10:10:10Z</time>
      </trkpt>
      <trkpt lat="59.9648509" lon="17.7074994">
        <ele>28.4962</ele>
        <time>2013-04-14T10:10:11Z</time>
      </trkpt>
      <trkpt lat="59.9647973" lon="17.7074615">
        <ele>28.9769</ele>
        <time>2013-04-14T10:10:12Z</time>
      </trkpt>
      <trkpt lat="59.9647432" lon="17.7074211">
        <ele>28.9769</ele>
        <time>2013-04-14T10:10:13Z</time>
      </trkpt>
      <trkpt lat="59.964689" lon="17.7073831">
        <ele>28.9769</ele>
        <time>2013-04-14T10:10:14Z</time>
      </trkpt>
      <trkpt lat="59.9646344" lon="17.7073478">
        <ele>28.9769</ele>
        <time>2013-04-14T10:10:15Z</time>
      </trkpt>
      <trkpt lat="59.9645792" lon="17.7073157">
        <ele>28.9769</ele>
        <time>2013-04-14T10:10:16Z</time>
      </trkpt>
      <trkpt lat="59.964523" lon="17.7072881">
        <ele>28.9769</ele>
        <time>2013-04-14T10:10:17Z</time>
      </trkpt>
      <trkpt lat="59.9644656" lon="17.7072626">
        <ele>28.9769</ele>
        <time>2013-04-14T10:10:18Z</time>
      </trkpt>
      <trkpt lat="59.964408" lon="17.7072376">
        <ele>28.9769</ele>
        <time>2013-04-14T10:10:19Z</time>
      </trkpt>
      <trkpt lat="59.9643495" lon="17.7072162">
        <ele>29.4575</ele>
        <time>2013-04-14T10:10:20Z</time>
      </trkpt>
      <trkpt lat="59.9642889" lon="17.7071966">
        <ele>29.4575</ele>
        <time>2013-04-14T10:10:21Z</time>
      </trkpt>
      <trkpt lat="59.9642282" lon="17.7071786">
        <ele>29.4575</ele>
        <time>2013-04-14T10:10:22Z</time>
      </trkpt>
      <trkpt lat="59.9641679" lon="17.7071621">
        <ele>29.9381</ele>
        <time>2013-04-14T10:10:23Z</time>
      </trkpt>
      <trkpt lat="59.964109" lon="17.7071472">
        <ele>29.9381</ele>
        <time>2013-04-14T10:10:24Z</time>
      </trkpt>
      <trkpt lat="59.9640505" lon="17.707135">
        <ele>29.9381</ele>
        <time>2013-04-14T10:10:25Z</time>
      </trkpt>
      <trkpt lat="59.9639925" lon="17.7071264">
        <ele>29.9381</ele>
        <time>2013-04-14T10:10:26Z</time>
      </trkpt>
      <trkpt lat="59.9639334" lon="17.7071187">
        <ele>29.9381</ele>
        <time>2013-04-14T10:10:27Z</time>
      </trkpt>
      <trkpt lat="59.9638743" lon="17.7071104">
        <ele>30.4188</ele>
        <time>2013-04-14T10:10:28Z</time>
      </trkpt>
      <trkpt lat="59.9638147" lon="17.707102">
        <ele>30.4188</ele>
        <time>2013-04-14T10:10:29Z</time>
      </trkpt>
      <trkpt lat="59.9637542" lon="17.7070942">
        <ele>30.4188</ele>
        <time>2013-04-14T10:10:30Z</time>
      </trkpt>
      <trkpt lat="59.9636937" lon="17.7070868">
        <ele>30.8995</ele>
        <time>2013-04-14T10:10:31Z</time>
      </trkpt>
      <trkpt lat="59.963633" lon="17.70708">
        <ele>30.8995</ele>
        <time>2013-04-14T10:10:32Z</time>
      </trkpt>
      <trkpt lat="59.9635714" lon="17.7070739">
        <ele>30.8995</ele>
        <time>2013-04-14T10:10:33Z</time>
      </trkpt>
      <trkpt lat="59.9635092" lon="17.7070695">
        <ele>30.8995</ele>
        <time>2013-04-14T10:10:34Z</time>
      </trkpt>
      <trkpt lat="59.9634469" lon="17.7070674">
        <ele>31.3801</ele>
        <time>2013-04-14T10:10:35Z</time>
      </trkpt>
      <trkpt lat="59.963385" lon="17.707066">
        <ele>31.3801</ele>
        <time>2013-04-14T10:10:36Z</time>
      </trkpt>
      <trkpt lat="59.9633244" lon="17.707065">
        <ele>31.3801</ele>
        <time>2013-04-14T10:10:37Z</time>
      </trkpt>
      <trkpt lat="59.9632647" lon="17.7070625">
        <ele>31.8607</ele>
        <time>2013-04-14T10:10:38Z</time>
      </trkpt>
      <trkpt lat="59.9632055" lon="17.7070601">
        <ele>31.8607</ele>
        <time>2013-04-14T10:10:39Z</time>
      </trkpt>
      <trkpt lat="59.9631457" lon="17.7070626">
        <ele>32.3416</ele>
        <time>2013-04-14T10:10:40Z</time>
      </trkpt>
      <trkpt lat="59.9630865" lon="17.7070676">
        <ele>32.3416</ele>
        <time>2013-04-14T10:10:41Z</time>
      </trkpt>
      <trkpt lat="59.9630275" lon="17.7070688">
        <ele>32.8223</ele>
        <time>2013-04-14T10:10:42Z</time>
      </trkpt>
      <trkpt lat="59.9629688" lon="17.7070681">
        <ele>32.8223</ele>
        <time>2013-04-14T10:10:43Z</time>
      </trkpt>
      <trkpt lat="59.9629098" lon="17.7070676">
        <ele>32.8223</ele>
        <time>2013-04-14T10:10:44Z</time>
      </trkpt>
      <trkpt lat="59.9628513" lon="17.7070678">
        <ele>32.8223</ele>
        <time>2013-04-14T10:10:45Z</time>
      </trkpt>
      <trkpt lat="59.9627933" lon="17.707065">
        <ele>33.3029</ele>
        <time>2013-04-14T10:10:46Z</time>
      </trkpt>
      <trkpt lat="59.9627359" lon="17.7070578">
        <ele>33.3029</ele>
        <time>2013-04-14T10:10:47Z</time>
      </trkpt>
      <trkpt lat="59.9626794" lon="17.7070479">
        <ele>33.3029</ele>
        <time>2013-04-14T10:10:48Z</time>
      </trkpt>
      <trkpt lat="59.9626239" lon="17.7070358">
        <ele>33.7834</ele>
        <time>2013-04-14T10:10:49Z</time>
      </trkpt>
      <trkpt lat="59.9625684" lon="17.7070212">
        <ele>33.7834</ele>
        <time>2013-04-14T10:10:50Z</time>
      </trkpt>
      <trkpt lat="59.9625122" lon="17.7070044">
        <ele>33.7834</ele>
        <time>2013-04-14T10:10:51Z</time>
      </trkpt>
      <trkpt lat="59.9624556" lon="17.7069857">
        <ele>34.2642</ele>
        <time>2013-04-14T10:10:52Z</time>
      </trkpt>
      <trkpt lat="59.9623992" lon="17.7069643">
        <ele>34.2642</ele>
        <time>2013-04-14T10:10:53Z</time>
      </trkpt>
      <trkpt lat="59.9623432" lon="17.7069412">
        <ele>34.2642</ele>
        <time>2013-04-14T10:10:54Z</time>
      </trkpt>
      <trkpt lat="59.962287" lon="17.7069145">
        <ele>34.2642</ele>
        <time>2013-04-14T10:10:55Z</time>
      </trkpt>
      <trkpt lat="59.9622306" lon="17.7068854">
        <ele>34.2642</ele>
        <time>2013-04-14T10:10:56Z</time>
      </trkpt>
      <trkpt lat="59.9621742" lon="17.7068548">
        <ele>34.7449</ele>
        <time>2013-04-14T10:10:57Z</time>
      </trkpt>
      <trkpt lat="59.9621177" lon="17.7068211">
        <ele>34.7449</ele>
        <time>2013-04-14T10:10:58Z</time>
      </trkpt>
      <trkpt lat="59.9620609" lon="17.7067849">
        <ele>34.7449</ele>
        <time>2013-04-14T10:10:59Z</time>
      </trkpt>
      <trkpt lat="59.9620042" lon="17.7067476">
        <ele>34.7449</ele>
        <time>2013-04-14T10:11:00Z</time>
      </trkpt>
      <trkpt lat="59.9619474" lon="17.7067074">
        <ele>34.7449</ele>
        <time>2013-04-14T10:11:01Z</time>
      </trkpt>
      <trkpt lat="59.9618911" lon="17.7066656">
        <ele>34.7449</ele>
        <time>2013-04-14T10:11:02Z</time>
      </trkpt>
      <trkpt lat="59.9618354" lon="17.7066214">
        <ele>34.7449</ele>
        <time>2013-04-14T10:11:03Z</time>
      </trkpt>
      <trkpt lat="59.9617799" lon="17.7065726">
        <ele>34.7449</ele>
        <time>2013-04-14T10:11:04Z</time>
      </trkpt>
      <trkpt lat="59.9617246" lon="17.7065187">
        <ele>34.7449</ele>
        <time>2013-04-14T10:11:05Z</time>
      </trkpt>
      <trkpt lat="59.9616694" lon="17.7064596">
        <ele>34.7449</ele>
        <time>2013-04-14T10:11:06Z</time>
      </trkpt>
      <trkpt lat="59.9616146" lon="17.7063948">
        <ele>34.7449</ele>
        <time>2013-04-14T10:11:07Z</time>
      </trkpt>
      <trkpt lat="59.961562" lon="17.7063225">
        <ele>34.7449</ele>
        <time>2013-04-14T10:11:08Z</time>
      </trkpt>
      <trkpt lat="59.9615107" lon="17.7062458">
        <ele>34.7449</ele>
        <time>2013-04-14T10:11:09Z</time>
      </trkpt>
      <trkpt lat="59.9614599" lon="17.7061649">
        <ele>34.7449</ele>
        <time>2013-04-14T10:11:10Z</time>
      </trkpt>
      <trkpt lat="59.9614104" lon="17.7060779">
        <ele>34.2642</ele>
        <time>2013-04-14T10:11:11Z</time>
      </trkpt>
      <trkpt lat="59.9613616" lon="17.705986">
        <ele>34.2642</ele>
        <time>2013-04-14T10:11:12Z</time>
      </trkpt>
      <trkpt lat="59.9613119" lon="17.7058929">
        <ele>34.2642</ele>
        <time>2013-04-14T10:11:13Z</time>
      </trkpt>
      <trkpt lat="59.9612621" lon="17.7058012">
        <ele>34.2642</ele>
        <time>2013-04-14T10:11:14Z</time>
      </trkpt>
      <trkpt lat="59.9612128" lon="17.7057085">
        <ele>34.2642</ele>
        <time>2013-04-14T10:11:15Z</time>
      </trkpt>
      <trkpt lat="59.9611637" lon="17.7056167">
        <ele>34.2642</ele>
        <time>2013-04-14T10:11:16Z</time>
      </trkpt>
      <trkpt lat="59.9611142" lon="17.7055278">
        <ele>34.2642</ele>
        <time>2013-04-14T10:11:17Z</time>
      </trkpt>
      <trkpt lat="59.9610641" lon="17.7054405">
        <ele>34.2642</ele>
        <time>2013-04-14T10:11:18Z</time>
      </trkpt>
      <trkpt lat="59.9610149" lon="17.7053547">
        <ele>34.2642</ele>
        <time>2013-04-14T10:11:19Z</time>
      </trkpt>
      <trkpt lat="59.9609633" lon="17.7052725">
        <ele>33.7834</ele>
        <time>2013-04-14T10:11:20Z</time>
      </trkpt>
      <trkpt lat="59.9609118" lon="17.7051916">
        <ele>33.7834</ele>
        <time>2013-04-14T10:11:21Z</time>
      </trkpt>
      <trkpt lat="59.9608581" lon="17.7051132">
        <ele>33.7834</ele>
        <time>2013-04-14T10:11:22Z</time>
      </trkpt>
      <trkpt lat="59.9608052" lon="17.7050363">
        <ele>34.2642</ele>
        <time>2013-04-14T10:11:23Z</time>
      </trkpt>
      <trkpt lat="59.9607532" lon="17.7049622">
        <ele>34.2642</ele>
        <time>2013-04-14T10:11:24Z</time>
      </trkpt>
      <trkpt lat="59.960698" lon="17.7048915">
        <ele>34.2642</ele>
        <time>2013-04-14T10:11:25Z</time>
      </trkpt>
      <trkpt lat="59.9606435" lon="17.704823">
        <ele>34.2642</ele>
        <time>2013-04-14T10:11:26Z</time>
      </trkpt>
      <trkpt lat="59.9605883" lon="17.7047539">
        <ele>34.2642</ele>
        <time>2013-04-14T10:11:27Z</time>
      </trkpt>
      <trkpt lat="59.9605326" lon="17.7046859">
        <ele>34.2642</ele>
        <time>2013-04-14T10:11:28Z</time>
      </trkpt>
      <trkpt lat="59.9604762" lon="17.7046203">
        <ele>34.2642</ele>
        <time>2013-04-14T10:11:29Z</time>
      </trkpt>
      <trkpt lat="59.9604197" lon="17.7045559">
        <ele>34.2642</ele>
        <time>2013-04-14T10:11:30Z</time>
      </trkpt>
      <trkpt lat="59.9603634" lon="17.7044915">
        <ele>34.2642</ele>
        <time>2013-04-14T10:11:31Z</time>
      </trkpt>
      <trkpt lat="59.9603074" lon="17.7044283">
        <ele>34.2642</ele>
        <time>2013-04-14T10:11:32Z</time>
      </trkpt>
      <trkpt lat="59.9602524" lon="17.7043631">
        <ele>34.2642</ele>
        <time>2013-04-14T10:11:33Z</time>
      </trkpt>
      <trkpt lat="59.9601997" lon="17.7042918">
        <ele>34.2642</ele>
        <time>2013-04-14T10:11:34Z</time>
      </trkpt>
      <trkpt lat="59.9601523" lon="17.704214">
        <ele>34.2642</ele>
        <time>2013-04-14T10:11:35Z</time>
      </trkpt>
      <trkpt lat="59.9601095" lon="17.7041303">
        <ele>34.2642</ele>
        <time>2013-04-14T10:11:36Z</time>
      </trkpt>
      <trkpt lat="59.9600684" lon="17.704045">
        <ele>34.2642</ele>
        <time>2013-04-14T10:11:37Z</time>
      </trkpt>
      <trkpt lat="59.9600292" lon="17.7039534">
        <ele>34.2642</ele>
        <time>2013-04-14T10:11:38Z</time>
      </trkpt>
      <trkpt lat="59.9599939" lon="17.7038556">
        <ele>34.2642</ele>
        <time>2013-04-14T10:11:39Z</time>
      </trkpt>
      <trkpt lat="59.9599598" lon="17.703753">
        <ele>34.2642</ele>
        <time>2013-04-14T10:11:40Z</time>
      </trkpt>
      <trkpt lat="59.9599285" lon="17.703648">
        <ele>34.2642</ele>
        <time>2013-04-14T10:11:41Z</time>
      </trkpt>
      <trkpt lat="59.9598955" lon="17.7035454">
        <ele>34.7449</ele>
        <time>2013-04-14T10:11:42Z</time>
      </trkpt>
      <trkpt lat="59.9598629" lon="17.7034449">
        <ele>34.7449</ele>
        <time>2013-04-14T10:11:43Z</time>
      </trkpt>
      <trkpt lat="59.9598313" lon="17.7033474">
        <ele>34.7449</ele>
        <time>2013-04-14T10:11:44Z</time>
      </trkpt>
      <trkpt lat="59.9598018" lon="17.703251">
        <ele>35.2255</ele>
        <time>2013-04-14T10:11:45Z</time>
      </trkpt>
      <trkpt lat="59.9597738" lon="17.7031535">
        <ele>35.2255</ele>
        <time>2013-04-14T10:11:46Z</time>
      </trkpt>
      <trkpt lat="59.9597463" lon="17.703058">
        <ele>35.2255</ele>
        <time>2013-04-14T10:11:47Z</time>
      </trkpt>
      <trkpt lat="59.9597173" lon="17.702966">
        <ele>35.2255</ele>
        <time>2013-04-14T10:11:48Z</time>
      </trkpt>
      <trkpt lat="59.9596866" lon="17.702875">
        <ele>35.2255</ele>
        <time>2013-04-14T10:11:49Z</time>
      </trkpt>
      <trkpt lat="59.9596569" lon="17.7027807">
        <ele>34.7449</ele>
        <time>2013-04-14T10:11:50Z</time>
      </trkpt>
      <trkpt lat="59.9596283" lon="17.7026824">
        <ele>34.7449</ele>
        <time>2013-04-14T10:11:51Z</time>
      </trkpt>
      <trkpt lat="59.9595988" lon="17.7025808">
        <ele>34.7449</ele>
        <time>2013-04-14T10:11:52Z</time>
      </trkpt>
      <trkpt lat="59.9595688" lon="17.7024776">
        <ele>34.2642</ele>
        <time>2013-04-14T10:11:53Z</time>
      </trkpt>
      <trkpt lat="59.9595395" lon="17.7023725">
        <ele>34.2642</ele>
        <time>2013-04-14T10:11:54Z</time>
      </trkpt>
      <trkpt lat="59.9595102" lon="17.7022653">
        <ele>33.7834</ele>
        <time>2013-04-14T10:11:55Z</time>
      </trkpt>
      <trkpt lat="59.9594806" lon="17.702156">
        <ele>33.7834</ele>
        <time>2013-04-14T10:11:56Z</time>
      </trkpt>
      <trkpt lat="59.9594504" lon="17.7020453">
        <ele>33.3029</ele>
        <time>2013-04-14T10:11:57Z</time>
      </trkpt>
      <trkpt lat="59.9594198" lon="17.7019333">
        <ele>33.3029</ele>
        <time>2013-04-14T10:11:58Z</time>
      </trkpt>
      <trkpt lat="59.9593917" lon="17.7018188">
        <ele>33.3029</ele>
        <time>2013-04-14T10:11:59Z</time>
      </trkpt>
      <trkpt lat="59.9593673" lon="17.7017053">
        <ele>33.3029</ele>
        <time>2013-04-14T10:12:00Z</time>
      </trkpt>
      <trkpt lat="59.9593424" lon="17.7015932">
        <ele>33.3029</ele>
        <time>2013-04-14T10:12:01Z</time>
      </trkpt>
      <trkpt lat="59.9593196" lon="17.7014795">
        <ele>32.8223</ele>
        <time>2013-04-14T10:12:02Z</time>
      </trkpt>
      <trkpt lat="59.9592989" lon="17.701363">
        <ele>32.8223</ele>
        <time>2013-04-14T10:12:03Z</time>
      </trkpt>
      <trkpt lat="59.9592817" lon="17.7012448">
        <ele>32.8223</ele>
        <time>2013-04-14T10:12:04Z</time>
      </trkpt>
      <trkpt lat="59.9592666" lon="17.7011241">
        <ele>32.3416</ele>
        <time>2013-04-14T10:12:05Z</time>
      </trkpt>
      <trkpt lat="59.9592522" lon="17.7010012">
        <ele>31.8607</ele>
        <time>2013-04-14T10:12:06Z</time>
      </trkpt>
      <trkpt lat="59.959238" lon="17.7008758">
        <ele>31.8607</ele>
        <time>2013-04-14T10:12:07Z</time>
      </trkpt>
      <trkpt lat="59.9592236" lon="17.7007486">
        <ele>31.8607</ele>
        <time>2013-04-14T10:12:08Z</time>
      </trkpt>
      <trkpt lat="59.9592076" lon="17.7006186">
        <ele>31.3801</ele>
        <time>2013-04-14T10:12:09Z</time>
      </trkpt>
      <trkpt lat="59.9591921" lon="17.7004876">
        <ele>31.3801</ele>
        <time>2013-04-14T10:12:10Z</time>
      </trkpt>
      <trkpt lat="59.9591777" lon="17.7003557">
        <ele>31.3801</ele>
        <time>2013-04-14T10:12:11Z</time>
      </trkpt>
      <trkpt lat="59.9591652" lon="17.7002223">
        <ele>31.3801</ele>
        <time>2013-04-14T10:12:12Z</time>
      </trkpt>
      <trkpt lat="59.9591543" lon="17.7000882">
        <ele>31.3801</ele>
        <time>2013-04-14T10:12:13Z</time>
      </trkpt>
      <trkpt lat="59.9591432" lon="17.6999543">
        <ele>31.3801</ele>
        <time>2013-04-14T10:12:14Z</time>
      </trkpt>
      <trkpt lat="59.959132" lon="17.6998201">
        <ele>31.3801</ele>
        <time>2013-04-14T10:12:15Z</time>
      </trkpt>
      <trkpt lat="59.9591222" lon="17.6996856">
        <ele>31.3801</ele>
        <time>2013-04-14T10:12:16Z</time>
      </trkpt>
      <trkpt lat="59.9591123" lon="17.6995515">
        <ele>31.3801</ele>
        <time>2013-04-14T10:12:17Z</time>
      </trkpt>
      <trkpt lat="59.9591023" lon="17.699419">
        <ele>31.3801</ele>
        <time>2013-04-14T10:12:18Z</time>
      </trkpt>
      <trkpt lat="59.9590938" lon="17.6992888">
        <ele>31.3801</ele>
        <time>2013-04-14T10:12:19Z</time>
      </trkpt>
      <trkpt lat="59.9590879" lon="17.6991617">
        <ele>31.8607</ele>
        <time>2013-04-14T10:12:20Z</time>
      </trkpt>
      <trkpt lat="59.9590826" lon="17.6990358">
        <ele>31.8607</ele>
        <time>2013-04-14T10:12:21Z</time>
      </trkpt>
      <trkpt lat="59.9590791" lon="17.6989102">
        <ele>31.8607</ele>
        <time>2013-04-14T10:12:22Z</time>
      </trkpt>
      <trkpt lat="59.959077" lon="17.6987848">
        <ele>31.8607</ele>
        <time>2013-04-14T10:12:23Z</time>
      </trkpt>
      <trkpt lat="59.9590749" lon="17.6986606">
        <ele>31.8607</ele>
        <time>2013-04-14T10:12:24Z</time>
      </trkpt>
      <trkpt lat="59.9590718" lon="17.6985371">
        <ele>31.8607</ele>
        <time>2013-04-14T10:12:25Z</time>
      </trkpt>
      <trkpt lat="59.9590689" lon="17.6984133">
        <ele>31.8607</ele>
        <time>2013-04-14T10:12:26Z</time>
      </trkpt>
      <trkpt lat="59.9590655" lon="17.6982883">
        <ele>31.3801</ele>
        <time>2013-04-14T10:12:27Z</time>
      </trkpt>
      <trkpt lat="59.959059" lon="17.698161">
        <ele>31.3801</ele>
        <time>2013-04-14T10:12:28Z</time>
      </trkpt>
      <trkpt lat="59.9590501" lon="17.6980316">
        <ele>31.3801</ele>
        <time>2013-04-14T10:12:29Z</time>
      </trkpt>
      <trkpt lat="59.9590394" lon="17.697902">
        <ele>31.3801</ele>
        <time>2013-04-14T10:12:30Z</time>
      </trkpt>
      <trkpt lat="59.9590265" lon="17.6977716">
        <ele>30.8995</ele>
        <time>2013-04-14T10:12:31Z</time>
      </trkpt>
      <trkpt lat="59.9590103" lon="17.6976383">
        <ele>30.8995</ele>
        <time>2013-04-14T10:12:32Z</time>
      </trkpt>
      <trkpt lat="59.9589902" lon="17.6975018">
        <ele>30.4188</ele>
        <time>2013-04-14T10:12:33Z</time>
      </trkpt>
      <trkpt lat="59.9589666" lon="17.6973613">
        <ele>30.4188</ele>
        <time>2013-04-14T10:12:34Z</time>
      </trkpt>
      <trkpt lat="59.9589409" lon="17.6972194">
        <ele>30.4188</ele>
        <time>2013-04-14T10:12:35Z</time>
      </trkpt>
      <trkpt lat="59.9589143" lon="17.6970793">
        <ele>29.9381</ele>
        <time>2013-04-14T10:12:36Z</time>
      </trkpt>
      <trkpt lat="59.958885" lon="17.6969433">
        <ele>29.9381</ele>
        <time>2013-04-14T10:12:37Z</time>
      </trkpt>
      <trkpt lat="59.9588539" lon="17.6968131">
        <ele>29.9381</ele>
        <time>2013-04-14T10:12:38Z</time>
      </trkpt>
      <trkpt lat="59.9588221" lon="17.6966854">
        <ele>29.9381</ele>
        <time>2013-04-14T10:12:39Z</time>
      </trkpt>
      <trkpt lat="59.9587902" lon="17.6965614">
        <ele>29.9381</ele>
        <time>2013-04-14T10:12:40Z</time>
      </trkpt>
      <trkpt lat="59.9587549" lon="17.6964424">
        <ele>29.4575</ele>
        <time>2013-04-14T10:12:41Z</time>
      </trkpt>
      <trkpt lat="59.9587153" lon="17.6963287">
        <ele>29.4575</ele>
        <time>2013-04-14T10:12:42Z</time>
      </trkpt>
      <trkpt lat="59.958673" lon="17.6962181">
        <ele>29.4575</ele>
        <time>2013-04-14T10:12:43Z</time>
      </trkpt>
      <trkpt lat="59.9586302" lon="17.6961077">
        <ele>29.4575</ele>
        <time>2013-04-14T10:12:44Z</time>
      </trkpt>
      <trkpt lat="59.9585872" lon="17.6959965">
        <ele>29.4575</ele>
        <time>2013-04-14T10:12:45Z</time>
      </trkpt>
      <trkpt lat="59.9585435" lon="17.6958855">
        <ele>29.4575</ele>
        <time>2013-04-14T10:12:46Z</time>
      </trkpt>
      <trkpt lat="59.9584989" lon="17.6957752">
        <ele>29.4575</ele>
        <time>2013-04-14T10:12:47Z</time>
      </trkpt>
      <trkpt lat="59.9584541" lon="17.6956638">
        <ele>29.4575</ele>
        <time>2013-04-14T10:12:48Z</time>
      </trkpt>
      <trkpt lat="59.95841" lon="17.6955514">
        <ele>29.4575</ele>
        <time>2013-04-14T10:12:49Z</time>
      </trkpt>
      <trkpt lat="59.9583667" lon="17.6954395">
        <ele>29.4575</ele>
        <time>2013-04-14T10:12:50Z</time>
      </trkpt>
      <trkpt lat="59.9583237" lon="17.6953275">
        <ele>29.4575</ele>
        <time>2013-04-14T10:12:51Z</time>
      </trkpt>
      <trkpt lat="59.9582825" lon="17.6952141">
        <ele>29.4575</ele>
        <time>2013-04-14T10:12:52Z</time>
      </trkpt>
      <trkpt lat="59.9582415" lon="17.6951016">
        <ele>29.4575</ele>
        <time>2013-04-14T10:12:53Z</time>
      </trkpt>
      <trkpt lat="59.9582002" lon="17.6949918">
        <ele>29.4575</ele>
        <time>2013-04-14T10:12:54Z</time>
      </trkpt>
      <trkpt lat="59.9581587" lon="17.6948826">
        <ele>29.4575</ele>
        <time>2013-04-14T10:12:55Z</time>
      </trkpt>
      <trkpt lat="59.9581188" lon="17.6947728">
        <ele>29.4575</ele>
        <time>2013-04-14T10:12:56Z</time>
      </trkpt>
      <trkpt lat="59.9580801" lon="17.694663">
        <ele>29.4575</ele>
        <time>2013-04-14T10:12:57Z</time>
      </trkpt>
      <trkpt lat="59.958042" lon="17.6945532">
        <ele>29.4575</ele>
        <time>2013-04-14T10:12:58Z</time>
      </trkpt>
      <trkpt lat="59.9580042" lon="17.694443">
        <ele>29.4575</ele>
        <time>2013-04-14T10:12:59Z</time>
      </trkpt>
      <trkpt lat="59.9579658" lon="17.6943342">
        <ele>28.9769</ele>
        <time>2013-04-14T10:13:00Z</time>
      </trkpt>
      <trkpt lat="59.9579269" lon="17.6942263">
        <ele>28.9769</ele>
        <time>2013-04-14T10:13:01Z</time>
      </trkpt>
      <trkpt lat="59.9578896" lon="17.6941182">
        <ele>28.9769</ele>
        <time>2013-04-14T10:13:02Z</time>
      </trkpt>
      <trkpt lat="59.9578523" lon="17.6940112">
        <ele>28.9769</ele>
        <time>2013-04-14T10:13:03Z</time>
      </trkpt>
      <trkpt lat="59.9578142" lon="17.6939045">
        <ele>28.9769</ele>
        <time>2013-04-14T10:13:04Z</time>
      </trkpt>
      <trkpt lat="59.957776" lon="17.6937968">
        <ele>28.9769</ele>
        <time>2013-04-14T10:13:05Z</time>
      </trkpt>
      <trkpt lat="59.9577391" lon="17.6936876">
        <ele>28.9769</ele>
        <time>2013-04-14T10:13:06Z</time>
      </trkpt>
      <trkpt lat="59.9577022" lon="17.6935776">
        <ele>28.9769</ele>
        <time>2013-04-14T10:13:07Z</time>
      </trkpt>
      <trkpt lat="59.957664" lon="17.6934683">
        <ele>28.4962</ele>
        <time>2013-04-14T10:13:08Z</time>
      </trkpt>
      <trkpt lat="59.9576252" lon="17.6933588">
        <ele>28.4962</ele>
        <time>2013-04-14T10:13:09Z</time>
      </trkpt>
      <trkpt lat="59.9575871" lon="17.6932486">
        <ele>28.4962</ele>
        <time>2013-04-14T10:13:10Z</time>
      </trkpt>
      <trkpt lat="59.957549" lon="17.6931374">
        <ele>28.4962</ele>
        <time>2013-04-14T10:13:11Z</time>
      </trkpt>
      <trkpt lat="59.95751" lon="17.6930252">
        <ele>28.4962</ele>
        <time>2013-04-14T10:13:12Z</time>
      </trkpt>
      <trkpt lat="59.9574703" lon="17.6929138">
        <ele>28.9769</ele>
        <time>2013-04-14T10:13:13Z</time>
      </trkpt>
      <trkpt lat="59.9574302" lon="17.6928033">
        <ele>28.4962</ele>
        <time>2013-04-14T10:13:14Z</time>
      </trkpt>
      <trkpt lat="59.957389" lon="17.6926926">
        <ele>28.4962</ele>
        <time>2013-04-14T10:13:15Z</time>
      </trkpt>
      <trkpt lat="59.9573512" lon="17.6925816">
        <ele>28.9769</ele>
        <time>2013-04-14T10:13:16Z</time>
      </trkpt>
      <trkpt lat="59.9573133" lon="17.6924716">
        <ele>28.9769</ele>
        <time>2013-04-14T10:13:17Z</time>
      </trkpt>
      <trkpt lat="59.9572751" lon="17.692363">
        <ele>28.9769</ele>
        <time>2013-04-14T10:13:18Z</time>
      </trkpt>
      <trkpt lat="59.9572383" lon="17.6922548">
        <ele>28.4962</ele>
        <time>2013-04-14T10:13:19Z</time>
      </trkpt>
      <trkpt lat="59.9572026" lon="17.6921479">
        <ele>28.4962</ele>
        <time>2013-04-14T10:13:20Z</time>
      </trkpt>
      <trkpt lat="59.9571662" lon="17.6920404">
        <ele>28.4962</ele>
        <time>2013-04-14T10:13:21Z</time>
      </trkpt>
      <trkpt lat="59.9571288" lon="17.6919346">
        <ele>28.4962</ele>
        <time>2013-04-14T10:13:22Z</time>
      </trkpt>
      <trkpt lat="59.9570912" lon="17.6918301">
        <ele>28.4962</ele>
        <time>2013-04-14T10:13:23Z</time>
      </trkpt>
      <trkpt lat="59.9570542" lon="17.6917246">
        <ele>28.4962</ele>
        <time>2013-04-14T10:13:24Z</time>
      </trkpt>
      <trkpt lat="59.9570181" lon="17.691619">
        <ele>28.4962</ele>
        <time>2013-04-14T10:13:25Z</time>
      </trkpt>
      <trkpt lat="59.9569827" lon="17.6915154">
        <ele>28.4962</ele>
        <time>2013-04-14T10:13:26Z</time>
      </trkpt>
      <trkpt lat="59.956947" lon="17.6914146">
        <ele>28.9769</ele>
        <time>2013-04-14T10:13:27Z</time>
      </trkpt>
      <trkpt lat="59.9569113" lon="17.6913167">
        <ele>28.9769</ele>
        <time>2013-04-14T10:13:28Z</time>
      </trkpt>
      <trkpt lat="59.9568777" lon="17.6912203">
        <ele>29.4575</ele>
        <time>2013-04-14T10:13:29Z</time>
      </trkpt>
      <trkpt lat="59.9568458" lon="17.6911277">
        <ele>29.4575</ele>
        <time>2013-04-14T10:13:30Z</time>
      </trkpt>
      <trkpt lat="59.956816" lon="17.69104">
        <ele>29.9381</ele>
        <time>2013-04-14T10:13:31Z</time>
      </trkpt>
      <trkpt lat="59.9567856" lon="17.6909556">
        <ele>30.4188</ele>
        <time>2013-04-14T10:13:32Z</time>
      </trkpt>
      <trkpt lat="59.9567562" lon="17.6908722">
        <ele>30.4188</ele>
        <time>2013-04-14T10:13:33Z</time>
      </trkpt>
      <trkpt lat="59.9567298" lon="17.6907914">
        <ele>30.4188</ele>
        <time>2013-04-14T10:13:34Z</time>
      </trkpt>
      <trkpt lat="59.9567025" lon="17.6907101">
        <ele>30.8995</ele>
        <time>2013-04-14T10:13:35Z</time>
      </trkpt>
      <trkpt lat="59.9566766" lon="17.6906277">
        <ele>30.8995</ele>
        <time>2013-04-14T10:13:36Z</time>
      </trkpt>
      <trkpt lat="59.9566486" lon="17.6905452">
        <ele>30.8995</ele>
        <time>2013-04-14T10:13:37Z</time>
      </trkpt>
      <trkpt lat="59.9566203" lon="17.6904636">
        <ele>31.3801</ele>
        <time>2013-04-14T10:13:38Z</time>
      </trkpt>
      <trkpt lat="59.9565911" lon="17.6903866">
        <ele>31.3801</ele>
        <time>2013-04-14T10:13:39Z</time>
      </trkpt>
      <trkpt lat="59.9565597" lon="17.690311">
        <ele>31.8607</ele>
        <time>2013-04-14T10:13:40Z</time>
      </trkpt>
      <trkpt lat="59.9565283" lon="17.6902356">
        <ele>31.8607</ele>
        <time>2013-04-14T10:13:41Z</time>
      </trkpt>
      <trkpt lat="59.9564965" lon="17.6901599">
        <ele>31.8607</ele>
        <time>2013-04-14T10:13:42Z</time>
      </trkpt>
      <trkpt lat="59.9564637" lon="17.6900859">
        <ele>32.3416</ele>
        <time>2013-04-14T10:13:43Z</time>
      </trkpt>
      <trkpt lat="59.95643" lon="17.6900132">
        <ele>32.3416</ele>
        <time>2013-04-14T10:13:44Z</time>
      </trkpt>
      <trkpt lat="59.9563964" lon="17.6899383">
        <ele>32.3416</ele>
        <time>2013-04-14T10:13:45Z</time>
      </trkpt>
      <trkpt lat="59.9563643" lon="17.6898603">
        <ele>32.3416</ele>
        <time>2013-04-14T10:13:46Z</time>
      </trkpt>
      <trkpt lat="59.9563359" lon="17.6897721">
        <ele>32.3416</ele>
        <time>2013-04-14T10:13:47Z</time>
      </trkpt>
      <trkpt lat="59.956309" lon="17.6896773">
        <ele>32.3416</ele>
        <time>2013-04-14T10:13:48Z</time>
      </trkpt>
      <trkpt lat="59.956281" lon="17.6895828">
        <ele>32.3416</ele>
        <time>2013-04-14T10:13:49Z</time>
      </trkpt>
      <trkpt lat="59.9562518" lon="17.6894933">
        <ele>32.3416</ele>
        <time>2013-04-14T10:13:50Z</time>
      </trkpt>
      <trkpt lat="59.9562193" lon="17.6894047">
        <ele>32.3416</ele>
        <time>2013-04-14T10:13:51Z</time>
      </trkpt>
      <trkpt lat="59.9561888" lon="17.6893083">
        <ele>31.8607</ele>
        <time>2013-04-14T10:13:52Z</time>
      </trkpt>
      <trkpt lat="59.9561634" lon="17.6892002">
        <ele>31.8607</ele>
        <time>2013-04-14T10:13:53Z</time>
      </trkpt>
      <trkpt lat="59.9561421" lon="17.6890866">
        <ele>32.3416</ele>
        <time>2013-04-14T10:13:54Z</time>
      </trkpt>
      <trkpt lat="59.9561222" lon="17.6889725">
        <ele>32.3416</ele>
        <time>2013-04-14T10:13:55Z</time>
      </trkpt>
      <trkpt lat="59.9561035" lon="17.6888597">
        <ele>32.3416</ele>
        <time>2013-04-14T10:13:56Z</time>
      </trkpt>
      <trkpt lat="59.9560856" lon="17.6887466">
        <ele>32.3416</ele>
        <time>2013-04-14T10:13:57Z</time>
      </trkpt>
      <trkpt lat="59.956067" lon="17.6886303">
        <ele>32.3416</ele>
        <time>2013-04-14T10:13:58Z</time>
      </trkpt>
      <trkpt lat="59.9560482" lon="17.6885116">
        <ele>32.3416</ele>
        <time>2013-04-14T10:13:59Z</time>
      </trkpt>
      <trkpt lat="59.9560292" lon="17.6883925">
        <ele>32.3416</ele>
        <time>2013-04-14T10:14:00Z</time>
      </trkpt>
      <trkpt lat="59.9560106" lon="17.6882726">
        <ele>32.3416</ele>
        <time>2013-04-14T10:14:01Z</time>
      </trkpt>
      <trkpt lat="59.9559927" lon="17.6881516">
        <ele>32.3416</ele>
        <time>2013-04-14T10:14:02Z</time>
      </trkpt>
      <trkpt lat="59.9559748" lon="17.6880303">
        <ele>32.3416</ele>
        <time>2013-04-14T10:14:03Z</time>
      </trkpt>
      <trkpt lat="59.9559559" lon="17.6879095">
        <ele>32.3416</ele>
        <time>2013-04-14T10:14:04Z</time>
      </trkpt>
      <trkpt lat="59.9559359" lon="17.687789">
        <ele>32.3416</ele>
        <time>2013-04-14T10:14:05Z</time>
      </trkpt>
      <trkpt lat="59.9559163" lon="17.6876681">
        <ele>32.3416</ele>
        <time>2013-04-14T10:14:06Z</time>
      </trkpt>
      <trkpt lat="59.9558976" lon="17.6875461">
        <ele>32.3416</ele>
        <time>2013-04-14T10:14:07Z</time>
      </trkpt>
      <trkpt lat="59.9558793" lon="17.6874233">
        <ele>32.8223</ele>
        <time>2013-04-14T10:14:08Z</time>
      </trkpt>
      <trkpt lat="59.9558603" lon="17.6873019">
        <ele>32.8223</ele>
        <time>2013-04-14T10:14:09Z</time>
      </trkpt>
      <trkpt lat="59.9558407" lon="17.6871813">
        <ele>32.8223</ele>
        <time>2013-04-14T10:14:10Z</time>
      </trkpt>
      <trkpt lat="59.9558217" lon="17.6870602">
        <ele>32.8223</ele>
        <time>2013-04-14T10:14:11Z</time>
      </trkpt>
      <trkpt lat="59.9558029" lon="17.6869389">
        <ele>32.8223</ele>
        <time>2013-04-14T10:14:12Z</time>
      </trkpt>
      <trkpt lat="59.9557851" lon="17.6868161">
        <ele>33.3029</ele>
        <time>2013-04-14T10:14:13Z</time>
      </trkpt>
      <trkpt lat="59.9557686" lon="17.6866906">
        <ele>33.3029</ele>
        <time>2013-04-14T10:14:14Z</time>
      </trkpt>
      <trkpt lat="59.9557515" lon="17.6865634">
        <ele>33.3029</ele>
        <time>2013-04-14T10:14:15Z</time>
      </trkpt>
      <trkpt lat="59.9557364" lon="17.6864339">
        <ele>33.3029</ele>
        <time>2013-04-14T10:14:16Z</time>
      </trkpt>
      <trkpt lat="59.955723" lon="17.6863018">
        <ele>33.3029</ele>
        <time>2013-04-14T10:14:17Z</time>
      </trkpt>
      <trkpt lat="59.9557059" lon="17.6861683">
        <ele>33.3029</ele>
        <time>2013-04-14T10:14:18Z</time>
      </trkpt>
      <trkpt lat="59.9556867" lon="17.6860364">
        <ele>33.3029</ele>
        <time>2013-04-14T10:14:19Z</time>
      </trkpt>
      <trkpt lat="59.9556667" lon="17.6859034">
        <ele>33.3029</ele>
        <time>2013-04-14T10:14:20Z</time>
      </trkpt>
      <trkpt lat="59.9556469" lon="17.6857683">
        <ele>33.3029</ele>
        <time>2013-04-14T10:14:21Z</time>
      </trkpt>
      <trkpt lat="59.9556278" lon="17.6856325">
        <ele>33.3029</ele>
        <time>2013-04-14T10:14:22Z</time>
      </trkpt>
      <trkpt lat="59.9556094" lon="17.6854964">
        <ele>33.3029</ele>
        <time>2013-04-14T10:14:23Z</time>
      </trkpt>
      <trkpt lat="59.955591" lon="17.68536">
        <ele>33.3029</ele>
        <time>2013-04-14T10:14:24Z</time>
      </trkpt>
      <trkpt lat="59.9555732" lon="17.6852223">
        <ele>33.3029</ele>
        <time>2013-04-14T10:14:25Z</time>
      </trkpt>
      <trkpt lat="59.9555551" lon="17.6850841">
        <ele>33.3029</ele>
        <time>2013-04-14T10:14:26Z</time>
      </trkpt>
      <trkpt lat="59.955537" lon="17.6849457">
        <ele>33.3029</ele>
        <time>2013-04-14T10:14:27Z</time>
      </trkpt>
      <trkpt lat="59.9555174" lon="17.684808">
        <ele>33.3029</ele>
        <time>2013-04-14T10:14:28Z</time>
      </trkpt>
      <trkpt lat="59.9554951" lon="17.6846716">
        <ele>33.3029</ele>
        <time>2013-04-14T10:14:29Z</time>
      </trkpt>
      <trkpt lat="59.9554724" lon="17.6845379">
        <ele>33.3029</ele>
        <time>2013-04-14T10:14:30Z</time>
      </trkpt>
      <trkpt lat="59.9554498" lon="17.6844054">
        <ele>33.3029</ele>
        <time>2013-04-14T10:14:31Z</time>
      </trkpt>
      <trkpt lat="59.9554266" lon="17.6842734">
        <ele>33.3029</ele>
        <time>2013-04-14T10:14:32Z</time>
      </trkpt>
      <trkpt lat="59.9554034" lon="17.6841412">
        <ele>33.7834</ele>
        <time>2013-04-14T10:14:33Z</time>
      </trkpt>
      <trkpt lat="59.9553802" lon="17.6840075">
        <ele>33.7834</ele>
        <time>2013-04-14T10:14:34Z</time>
      </trkpt>
      <trkpt lat="59.9553551" lon="17.6838749">
        <ele>33.7834</ele>
        <time>2013-04-14T10:14:35Z</time>
      </trkpt>
      <trkpt lat="59.9553274" lon="17.6837445">
        <ele>33.7834</ele>
        <time>2013-04-14T10:14:36Z</time>
      </trkpt>
      <trkpt lat="59.9552982" lon="17.6836144">
        <ele>33.7834</ele>
        <time>2013-04-14T10:14:37Z</time>
      </trkpt>
      <trkpt lat="59.9552677" lon="17.6834855">
        <ele>33.7834</ele>
        <time>2013-04-14T10:14:38Z</time>
      </trkpt>
      <trkpt lat="59.9552362" lon="17.6833596">
        <ele>33.7834</ele>
        <time>2013-04-14T10:14:39Z</time>
      </trkpt>
      <trkpt lat="59.9552045" lon="17.6832366">
        <ele>34.2642</ele>
        <time>2013-04-14T10:14:40Z</time>
      </trkpt>
      <trkpt lat="59.9551737" lon="17.6831143">
        <ele>34.2642</ele>
        <time>2013-04-14T10:14:41Z</time>
      </trkpt>
      <trkpt lat="59.9551429" lon="17.6829917">
        <ele>34.2642</ele>
        <time>2013-04-14T10:14:42Z</time>
      </trkpt>
      <trkpt lat="59.9551116" lon="17.6828715">
        <ele>34.2642</ele>
        <time>2013-04-14T10:14:43Z</time>
      </trkpt>
      <trkpt lat="59.9550792" lon="17.6827546">
        <ele>34.2642</ele>
        <time>2013-04-14T10:14:44Z</time>
      </trkpt>
      <trkpt lat="59.9550444" lon="17.6826385">
        <ele>34.2642</ele>
        <time>2013-04-14T10:14:45Z</time>
      </trkpt>
      <trkpt lat="59.9550082" lon="17.6825235">
        <ele>33.7834</ele>
        <time>2013-04-14T10:14:46Z</time>
      </trkpt>
      <trkpt lat="59.9549745" lon="17.6824103">
        <ele>34.2642</ele>
        <time>2013-04-14T10:14:47Z</time>
      </trkpt>
      <trkpt lat="59.9549401" lon="17.682296">
        <ele>33.7834</ele>
        <time>2013-04-14T10:14:48Z</time>
      </trkpt>
      <trkpt lat="59.9549046" lon="17.6821831">
        <ele>33.7834</ele>
        <time>2013-04-14T10:14:49Z</time>
      </trkpt>
      <trkpt lat="59.9548656" lon="17.6820764">
        <ele>33.7834</ele>
        <time>2013-04-14T10:14:50Z</time>
      </trkpt>
      <trkpt lat="59.9548189" lon="17.6819812">
        <ele>33.7834</ele>
        <time>2013-04-14T10:14:51Z</time>
      </trkpt>
      <trkpt lat="59.9547647" lon="17.6819044">
        <ele>33.7834</ele>
        <time>2013-04-14T10:14:52Z</time>
      </trkpt>
      <trkpt lat="59.9547103" lon="17.6818307">
        <ele>33.7834</ele>
        <time>2013-04-14T10:14:53Z</time>
      </trkpt>
      <trkpt lat="59.9546646" lon="17.681738">
        <ele>33.7834</ele>
        <time>2013-04-14T10:14:54Z</time>
      </trkpt>
      <trkpt lat="59.9546259" lon="17.681635">
        <ele>33.7834</ele>
        <time>2013-04-14T10:14:55Z</time>
      </trkpt>
      <trkpt lat="59.9545884" lon="17.6815298">
        <ele>33.7834</ele>
        <time>2013-04-14T10:14:56Z</time>
      </trkpt>
      <trkpt lat="59.9545502" lon="17.6814236">
        <ele>34.2642</ele>
        <time>2013-04-14T10:14:57Z</time>
      </trkpt>
      <trkpt lat="59.9545119" lon="17.6813145">
        <ele>34.2642</ele>
        <time>2013-04-14T10:14:58Z</time>
      </trkpt>
      <trkpt lat="59.9544741" lon="17.6812011">
        <ele>34.2642</ele>
        <time>2013-04-14T10:14:59Z</time>
      </trkpt>
      <trkpt lat="59.9544368" lon="17.6810834">
        <ele>33.7834</ele>
        <time>2013-04-14T10:15:00Z</time>
      </trkpt>
      <trkpt lat="59.9543995" lon="17.6809633">
        <ele>34.2642</ele>
        <time>2013-04-14T10:15:01Z</time>
      </trkpt>
      <trkpt lat="59.9543622" lon="17.6808457">
        <ele>34.2642</ele>
        <time>2013-04-14T10:15:02Z</time>
      </trkpt>
      <trkpt lat="59.9543257" lon="17.6807309">
        <ele>34.2642</ele>
        <time>2013-04-14T10:15:03Z</time>
      </trkpt>
      <trkpt lat="59.9542887" lon="17.6806177">
        <ele>34.7449</ele>
        <time>2013-04-14T10:15:04Z</time>
      </trkpt>
      <trkpt lat="59.9542511" lon="17.680508">
        <ele>34.7449</ele>
        <time>2013-04-14T10:15:05Z</time>
      </trkpt>
      <trkpt lat="59.9542115" lon="17.6803985">
        <ele>34.7449</ele>
        <time>2013-04-14T10:15:06Z</time>
      </trkpt>
      <trkpt lat="59.9541725" lon="17.6802885">
        <ele>34.7449</ele>
        <time>2013-04-14T10:15:07Z</time>
      </trkpt>
      <trkpt lat="59.9541343" lon="17.6801789">
        <ele>35.2255</ele>
        <time>2013-04-14T10:15:08Z</time>
      </trkpt>
      <trkpt lat="59.9540959" lon="17.6800699">
        <ele>35.2255</ele>
        <time>2013-04-14T10:15:09Z</time>
      </trkpt>
      <trkpt lat="59.9540574" lon="17.6799603">
        <ele>35.2255</ele>
        <time>2013-04-14T10:15:10Z</time>
      </trkpt>
      <trkpt lat="59.9540203" lon="17.679851">
        <ele>35.2255</ele>
        <time>2013-04-14T10:15:11Z</time>
      </trkpt>
      <trkpt lat="59.9539847" lon="17.6797438">
        <ele>35.7061</ele>
        <time>2013-04-14T10:15:12Z</time>
      </trkpt>
      <trkpt lat="59.9539504" lon="17.6796367">
        <ele>35.7061</ele>
        <time>2013-04-14T10:15:13Z</time>
      </trkpt>
      <trkpt lat="59.9539173" lon="17.6795299">
        <ele>35.7061</ele>
        <time>2013-04-14T10:15:14Z</time>
      </trkpt>
      <trkpt lat="59.9538839" lon="17.6794243">
        <ele>36.1868</ele>
        <time>2013-04-14T10:15:15Z</time>
      </trkpt>
      <trkpt lat="59.9538498" lon="17.6793195">
        <ele>36.1868</ele>
        <time>2013-04-14T10:15:16Z</time>
      </trkpt>
      <trkpt lat="59.9538152" lon="17.6792154">
        <ele>36.1868</ele>
        <time>2013-04-14T10:15:17Z</time>
      </trkpt>
      <trkpt lat="59.9537814" lon="17.6791134">
        <ele>36.1868</ele>
        <time>2013-04-14T10:15:18Z</time>
      </trkpt>
      <trkpt lat="59.9537478" lon="17.6790133">
        <ele>36.6675</ele>
        <time>2013-04-14T10:15:19Z</time>
      </trkpt>
      <trkpt lat="59.9537143" lon="17.6789139">
        <ele>36.6675</ele>
        <time>2013-04-14T10:15:20Z</time>
      </trkpt>
      <trkpt lat="59.9536791" lon="17.6788146">
        <ele>36.6675</ele>
        <time>2013-04-14T10:15:21Z</time>
      </trkpt>
      <trkpt lat="59.9536442" lon="17.6787187">
        <ele>36.6675</ele>
        <time>2013-04-14T10:15:22Z</time>
      </trkpt>
      <trkpt lat="59.9536091" lon="17.6786258">
        <ele>36.6675</ele>
        <time>2013-04-14T10:15:23Z</time>
      </trkpt>
      <trkpt lat="59.9535778" lon="17.6785314">
        <ele>37.1481</ele>
        <time>2013-04-14T10:15:24Z</time>
      </trkpt>
      <trkpt lat="59.9535475" lon="17.6784372">
        <ele>37.1481</ele>
        <time>2013-04-14T10:15:25Z</time>
      </trkpt>
      <trkpt lat="59.9535178" lon="17.6783439">
        <ele>37.1481</ele>
        <time>2013-04-14T10:15:26Z</time>
      </trkpt>
      <trkpt lat="59.9534869" lon="17.6782512">
        <ele>37.1481</ele>
        <time>2013-04-14T10:15:27Z</time>
      </trkpt>
      <trkpt lat="59.9534524" lon="17.6781592">
        <ele>37.1481</ele>
        <time>2013-04-14T10:15:28Z</time>
      </trkpt>
      <trkpt lat="59.9534162" lon="17.6780661">
        <ele>37.1481</ele>
        <time>2013-04-14T10:15:29Z</time>
      </trkpt>
      <trkpt lat="59.9533812" lon="17.6779686">
        <ele>36.6675</ele>
        <time>2013-04-14T10:15:30Z</time>
      </trkpt>
      <trkpt lat="59.9533454" lon="17.677869">
        <ele>36.6675</ele>
        <time>2013-04-14T10:15:31Z</time>
      </trkpt>
      <trkpt lat="59.9533074" lon="17.67777">
        <ele>36.6675</ele>
        <time>2013-04-14T10:15:32Z</time>
      </trkpt>
      <trkpt lat="59.9532706" lon="17.6776666">
        <ele>36.6675</ele>
        <time>2013-04-14T10:15:33Z</time>
      </trkpt>
      <trkpt lat="59.9532366" lon="17.6775615">
        <ele>36.6675</ele>
        <time>2013-04-14T10:15:34Z</time>
      </trkpt>
      <trkpt lat="59.9532013" lon="17.6774602">
        <ele>36.6675</ele>
        <time>2013-04-14T10:15:35Z</time>
      </trkpt>
      <trkpt lat="59.9531665" lon="17.6773604">
        <ele>36.6675</ele>
        <time>2013-04-14T10:15:36Z</time>
      </trkpt>
      <trkpt lat="59.9531309" lon="17.6772613">
        <ele>37.1481</ele>
        <time>2013-04-14T10:15:37Z</time>
      </trkpt>
      <trkpt lat="59.9530931" lon="17.6771593">
        <ele>37.1481</ele>
        <time>2013-04-14T10:15:38Z</time>
      </trkpt>
      <trkpt lat="59.9530527" lon="17.6770577">
        <ele>36.6675</ele>
        <time>2013-04-14T10:15:39Z</time>
      </trkpt>
      <trkpt lat="59.9530118" lon="17.6769572">
        <ele>37.1481</ele>
        <time>2013-04-14T10:15:40Z</time>
      </trkpt>
      <trkpt lat="59.9529708" lon="17.6768585">
        <ele>37.1481</ele>
        <time>2013-04-14T10:15:41Z</time>
      </trkpt>
      <trkpt lat="59.9529298" lon="17.6767605">
        <ele>37.1481</ele>
        <time>2013-04-14T10:15:42Z</time>
      </trkpt>
      <trkpt lat="59.9528888" lon="17.6766609">
        <ele>36.6675</ele>
        <time>2013-04-14T10:15:43Z</time>
      </trkpt>
      <trkpt lat="59.952848" lon="17.6765607">
        <ele>36.6675</ele>
        <time>2013-04-14T10:15:44Z</time>
      </trkpt>
      <trkpt lat="59.9528085" lon="17.6764586">
        <ele>37.1481</ele>
        <time>2013-04-14T10:15:45Z</time>
      </trkpt>
      <trkpt lat="59.952772" lon="17.6763528">
        <ele>37.1481</ele>
        <time>2013-04-14T10:15:46Z</time>
      </trkpt>
      <trkpt lat="59.9527377" lon="17.6762437">
        <ele>37.1481</ele>
        <time>2013-04-14T10:15:47Z</time>
      </trkpt>
      <trkpt lat="59.9527029" lon="17.676132">
        <ele>37.1481</ele>
        <time>2013-04-14T10:15:48Z</time>
      </trkpt>
      <trkpt lat="59.9526658" lon="17.6760209">
        <ele>37.1481</ele>
        <time>2013-04-14T10:15:49Z</time>
      </trkpt>
      <trkpt lat="59.9526263" lon="17.6759145">
        <ele>37.6287</ele>
        <time>2013-04-14T10:15:50Z</time>
      </trkpt>
      <trkpt lat="59.9525863" lon="17.6758116">
        <ele>38.1094</ele>
        <time>2013-04-14T10:15:51Z</time>
      </trkpt>
      <trkpt lat="59.9525469" lon="17.6757122">
        <ele>38.1094</ele>
        <time>2013-04-14T10:15:52Z</time>
      </trkpt>
      <trkpt lat="59.9525078" lon="17.6756182">
        <ele>38.5901</ele>
        <time>2013-04-14T10:15:53Z</time>
      </trkpt>
      <trkpt lat="59.9524713" lon="17.675527">
        <ele>39.0707</ele>
        <time>2013-04-14T10:15:54Z</time>
      </trkpt>
      <trkpt lat="59.9524369" lon="17.6754354">
        <ele>39.0707</ele>
        <time>2013-04-14T10:15:55Z</time>
      </trkpt>
      <trkpt lat="59.9524024" lon="17.6753423">
        <ele>39.5513</ele>
        <time>2013-04-14T10:15:56Z</time>
      </trkpt>
      <trkpt lat="59.9523706" lon="17.6752476">
        <ele>40.0321</ele>
        <time>2013-04-14T10:15:57Z</time>
      </trkpt>
      <trkpt lat="59.9523398" lon="17.6751511">
        <ele>40.5128</ele>
        <time>2013-04-14T10:15:58Z</time>
      </trkpt>
      <trkpt lat="59.9523124" lon="17.6750522">
        <ele>40.5128</ele>
        <time>2013-04-14T10:15:59Z</time>
      </trkpt>
      <trkpt lat="59.9522907" lon="17.6749474">
        <ele>40.9934</ele>
        <time>2013-04-14T10:16:00Z</time>
      </trkpt>
      <trkpt lat="59.952272" lon="17.6748351">
        <ele>40.5128</ele>
        <time>2013-04-14T10:16:01Z</time>
      </trkpt>
      <trkpt lat="59.9522537" lon="17.674715">
        <ele>40.5128</ele>
        <time>2013-04-14T10:16:02Z</time>
      </trkpt>
      <trkpt lat="59.9522322" lon="17.6745855">
        <ele>40.0321</ele>
        <time>2013-04-14T10:16:03Z</time>
      </trkpt>
      <trkpt lat="59.9522073" lon="17.6744534">
        <ele>40.0321</ele>
        <time>2013-04-14T10:16:04Z</time>
      </trkpt>
      <trkpt lat="59.9521804" lon="17.6743216">
        <ele>40.0321</ele>
        <time>2013-04-14T10:16:05Z</time>
      </trkpt>
      <trkpt lat="59.9521524" lon="17.6741903">
        <ele>39.5513</ele>
        <time>2013-04-14T10:16:06Z</time>
      </trkpt>
      <trkpt lat="59.9521244" lon="17.674061">
        <ele>39.5513</ele>
        <time>2013-04-14T10:16:07Z</time>
      </trkpt>
      <trkpt lat="59.952098" lon="17.6739302">
        <ele>39.0707</ele>
        <time>2013-04-14T10:16:08Z</time>
      </trkpt>
      <trkpt lat="59.9520721" lon="17.673796">
        <ele>39.0707</ele>
        <time>2013-04-14T10:16:09Z</time>
      </trkpt>
      <trkpt lat="59.9520467" lon="17.6736596">
        <ele>39.0707</ele>
        <time>2013-04-14T10:16:10Z</time>
      </trkpt>
      <trkpt lat="59.9520217" lon="17.6735226">
        <ele>39.0707</ele>
        <time>2013-04-14T10:16:11Z</time>
      </trkpt>
      <trkpt lat="59.951997" lon="17.6733836">
        <ele>38.5901</ele>
        <time>2013-04-14T10:16:12Z</time>
      </trkpt>
      <trkpt lat="59.9519735" lon="17.6732412">
        <ele>38.1094</ele>
        <time>2013-04-14T10:16:13Z</time>
      </trkpt>
      <trkpt lat="59.9519507" lon="17.6730975">
        <ele>37.6287</ele>
        <time>2013-04-14T10:16:14Z</time>
      </trkpt>
      <trkpt lat="59.9519296" lon="17.6729526">
        <ele>37.1481</ele>
        <time>2013-04-14T10:16:15Z</time>
      </trkpt>
      <trkpt lat="59.9519104" lon="17.672806">
        <ele>36.6675</ele>
        <time>2013-04-14T10:16:16Z</time>
      </trkpt>
      <trkpt lat="59.9518927" lon="17.6726574">
        <ele>36.6675</ele>
        <time>2013-04-14T10:16:17Z</time>
      </trkpt>
      <trkpt lat="59.9518757" lon="17.6725076">
        <ele>36.1868</ele>
        <time>2013-04-14T10:16:18Z</time>
      </trkpt>
      <trkpt lat="59.9518597" lon="17.6723558">
        <ele>35.7061</ele>
        <time>2013-04-14T10:16:19Z</time>
      </trkpt>
      <trkpt lat="59.9518439" lon="17.6722021">
        <ele>35.2255</ele>
        <time>2013-04-14T10:16:20Z</time>
      </trkpt>
      <trkpt lat="59.9518284" lon="17.6720489">
        <ele>35.2255</ele>
        <time>2013-04-14T10:16:21Z</time>
      </trkpt>
      <trkpt lat="59.9518177" lon="17.6718995">
        <ele>34.7449</ele>
        <time>2013-04-14T10:16:22Z</time>
      </trkpt>
      <trkpt lat="59.9518125" lon="17.6717548">
        <ele>34.7449</ele>
        <time>2013-04-14T10:16:23Z</time>
      </trkpt>
      <trkpt lat="59.9518089" lon="17.6716132">
        <ele>34.2642</ele>
        <time>2013-04-14T10:16:24Z</time>
      </trkpt>
      <trkpt lat="59.9518028" lon="17.6714711">
        <ele>33.7834</ele>
        <time>2013-04-14T10:16:25Z</time>
      </trkpt>
      <trkpt lat="59.9517887" lon="17.6713291">
        <ele>33.3029</ele>
        <time>2013-04-14T10:16:26Z</time>
      </trkpt>
      <trkpt lat="59.9517653" lon="17.6711883">
        <ele>32.8223</ele>
        <time>2013-04-14T10:16:27Z</time>
      </trkpt>
      <trkpt lat="59.9517385" lon="17.6710443">
        <ele>32.3416</ele>
        <time>2013-04-14T10:16:28Z</time>
      </trkpt>
      <trkpt lat="59.9517193" lon="17.67089">
        <ele>31.8607</ele>
        <time>2013-04-14T10:16:29Z</time>
      </trkpt>
      <trkpt lat="59.9517129" lon="17.6707271">
        <ele>31.3801</ele>
        <time>2013-04-14T10:16:30Z</time>
      </trkpt>
      <trkpt lat="59.9517176" lon="17.6705622">
        <ele>30.8995</ele>
        <time>2013-04-14T10:16:31Z</time>
      </trkpt>
      <trkpt lat="59.9517297" lon="17.6703988">
        <ele>30.4188</ele>
        <time>2013-04-14T10:16:32Z</time>
      </trkpt>
      <trkpt lat="59.951745" lon="17.6702373">
        <ele>30.4188</ele>
        <time>2013-04-14T10:16:33Z</time>
      </trkpt>
      <trkpt lat="59.9517591" lon="17.6700768">
        <ele>29.9381</ele>
        <time>2013-04-14T10:16:34Z</time>
      </trkpt>
      <trkpt lat="59.9517704" lon="17.6699175">
        <ele>29.9381</ele>
        <time>2013-04-14T10:16:35Z</time>
      </trkpt>
      <trkpt lat="59.9517792" lon="17.6697602">
        <ele>29.4575</ele>
        <time>2013-04-14T10:16:36Z</time>
      </trkpt>
      <trkpt lat="59.9517851" lon="17.6696048">
        <ele>29.4575</ele>
        <time>2013-04-14T10:16:37Z</time>
      </trkpt>
      <trkpt lat="59.9517902" lon="17.6694515">
        <ele>29.4575</ele>
        <time>2013-04-14T10:16:38Z</time>
      </trkpt>
      <trkpt lat="59.9517963" lon="17.6693023">
        <ele>29.4575</ele>
        <time>2013-04-14T10:16:39Z</time>
      </trkpt>
      <trkpt lat="59.9518012" lon="17.6691563">
        <ele>29.4575</ele>
        <time>2013-04-14T10:16:40Z</time>
      </trkpt>
      <trkpt lat="59.9518039" lon="17.6690115">
        <ele>28.9769</ele>
        <time>2013-04-14T10:16:41Z</time>
      </trkpt>
      <trkpt lat="59.9518017" lon="17.6688652">
        <ele>28.9769</ele>
        <time>2013-04-14T10:16:42Z</time>
      </trkpt>
      <trkpt lat="59.951789" lon="17.6687177">
        <ele>28.4962</ele>
        <time>2013-04-14T10:16:43Z</time>
      </trkpt>
      <trkpt lat="59.9517659" lon="17.668572">
        <ele>28.4962</ele>
        <time>2013-04-14T10:16:44Z</time>
      </trkpt>
      <trkpt lat="59.951736" lon="17.6684297">
        <ele>28.0155</ele>
        <time>2013-04-14T10:16:45Z</time>
      </trkpt>
      <trkpt lat="59.9517005" lon="17.6682937">
        <ele>28.0155</ele>
        <time>2013-04-14T10:16:46Z</time>
      </trkpt>
      <trkpt lat="59.9516562" lon="17.6681733">
        <ele>28.0155</ele>
        <time>2013-04-14T10:16:47Z</time>
      </trkpt>
      <trkpt lat="59.9516008" lon="17.6680808">
        <ele>28.0155</ele>
        <time>2013-04-14T10:16:48Z</time>
      </trkpt>
      <trkpt lat="59.9515366" lon="17.6680259">
        <ele>28.4962</ele>
        <time>2013-04-14T10:16:49Z</time>
      </trkpt>
      <trkpt lat="59.9514694" lon="17.6680084">
        <ele>28.4962</ele>
        <time>2013-04-14T10:16:50Z</time>
      </trkpt>
      <trkpt lat="59.9514029" lon="17.6680144">
        <ele>28.4962</ele>
        <time>2013-04-14T10:16:51Z</time>
      </trkpt>
      <trkpt lat="59.9513385" lon="17.6680307">
        <ele>28.4962</ele>
        <time>2013-04-14T10:16:52Z</time>
      </trkpt>
      <trkpt lat="59.9512757" lon="17.6680487">
        <ele>28.9769</ele>
        <time>2013-04-14T10:16:53Z</time>
      </trkpt>
      <trkpt lat="59.9512146" lon="17.6680654">
        <ele>28.9769</ele>
        <time>2013-04-14T10:16:54Z</time>
      </trkpt>
      <trkpt lat="59.951155" lon="17.668083">
        <ele>28.9769</ele>
        <time>2013-04-14T10:16:55Z</time>
      </trkpt>
      <trkpt lat="59.9510971" lon="17.6681003">
        <ele>29.4575</ele>
        <time>2013-04-14T10:16:56Z</time>
      </trkpt>
      <trkpt lat="59.9510407" lon="17.6681207">
        <ele>29.4575</ele>
        <time>2013-04-14T10:16:57Z</time>
      </trkpt>
      <trkpt lat="59.9509857" lon="17.668144">
        <ele>29.9381</ele>
        <time>2013-04-14T10:16:58Z</time>
      </trkpt>
      <trkpt lat="59.950931" lon="17.6681647">
        <ele>29.9381</ele>
        <time>2013-04-14T10:16:59Z</time>
      </trkpt>
      <trkpt lat="59.9508765" lon="17.6681801">
        <ele>29.9381</ele>
        <time>2013-04-14T10:17:00Z</time>
      </trkpt>
      <trkpt lat="59.950822" lon="17.6681911">
        <ele>30.4188</ele>
        <time>2013-04-14T10:17:01Z</time>
      </trkpt>
      <trkpt lat="59.9507672" lon="17.668201">
        <ele>30.4188</ele>
        <time>2013-04-14T10:17:02Z</time>
      </trkpt>
      <trkpt lat="59.9507117" lon="17.6682096">
        <ele>30.4188</ele>
        <time>2013-04-14T10:17:03Z</time>
      </trkpt>
      <trkpt lat="59.9506558" lon="17.6682175">
        <ele>30.4188</ele>
        <time>2013-04-14T10:17:04Z</time>
      </trkpt>
      <trkpt lat="59.9505997" lon="17.668226">
        <ele>30.8995</ele>
        <time>2013-04-14T10:17:05Z</time>
      </trkpt>
      <trkpt lat="59.9505429" lon="17.6682336">
        <ele>30.8995</ele>
        <time>2013-04-14T10:17:06Z</time>
      </trkpt>
      <trkpt lat="59.9504852" lon="17.6682383">
        <ele>30.8995</ele>
        <time>2013-04-14T10:17:07Z</time>
      </trkpt>
      <trkpt lat="59.9504263" lon="17.6682389">
        <ele>30.8995</ele>
        <time>2013-04-14T10:17:08Z</time>
      </trkpt>
      <trkpt lat="59.9503664" lon="17.6682356">
        <ele>30.8995</ele>
        <time>2013-04-14T10:17:09Z</time>
      </trkpt>
      <trkpt lat="59.9503063" lon="17.6682287">
        <ele>30.8995</ele>
        <time>2013-04-14T10:17:10Z</time>
      </trkpt>
      <trkpt lat="59.9502461" lon="17.6682213">
        <ele>30.8995</ele>
        <time>2013-04-14T10:17:11Z</time>
      </trkpt>
      <trkpt lat="59.9501858" lon="17.6682128">
        <ele>30.8995</ele>
        <time>2013-04-14T10:17:12Z</time>
      </trkpt>
      <trkpt lat="59.9501254" lon="17.6682003">
        <ele>30.8995</ele>
        <time>2013-04-14T10:17:13Z</time>
      </trkpt>
      <trkpt lat="59.9500647" lon="17.6681829">
        <ele>30.8995</ele>
        <time>2013-04-14T10:17:14Z</time>
      </trkpt>
      <trkpt lat="59.9500038" lon="17.6681641">
        <ele>30.8995</ele>
        <time>2013-04-14T10:17:15Z</time>
      </trkpt>
      <trkpt lat="59.9499436" lon="17.6681435">
        <ele>30.8995</ele>
        <time>2013-04-14T10:17:16Z</time>
      </trkpt>
      <trkpt lat="59.9498835" lon="17.6681187">
        <ele>30.8995</ele>
        <time>2013-04-14T10:17:17Z</time>
      </trkpt>
      <trkpt lat="59.9498232" lon="17.6680927">
        <ele>30.4188</ele>
        <time>2013-04-14T10:17:18Z</time>
      </trkpt>
      <trkpt lat="59.9497623" lon="17.6680669">
        <ele>30.4188</ele>
        <time>2013-04-14T10:17:19Z</time>
      </trkpt>
      <trkpt lat="59.9497011" lon="17.668039">
        <ele>30.4188</ele>
        <time>2013-04-14T10:17:20Z</time>
      </trkpt>
      <trkpt lat="59.9496398" lon="17.6680094">
        <ele>30.4188</ele>
        <time>2013-04-14T10:17:21Z</time>
      </trkpt>
      <trkpt lat="59.9495788" lon="17.6679787">
        <ele>29.9381</ele>
        <time>2013-04-14T10:17:22Z</time>
      </trkpt>
      <trkpt lat="59.9495178" lon="17.667946">
        <ele>29.9381</ele>
        <time>2013-04-14T10:17:23Z</time>
      </trkpt>
      <trkpt lat="59.9494566" lon="17.6679126">
        <ele>29.9381</ele>
        <time>2013-04-14T10:17:24Z</time>
      </trkpt>
      <trkpt lat="59.949395" lon="17.6678793">
        <ele>29.9381</ele>
        <time>2013-04-14T10:17:25Z</time>
      </trkpt>
      <trkpt lat="59.9493328" lon="17.6678467">
        <ele>29.9381</ele>
        <time>2013-04-14T10:17:26Z</time>
      </trkpt>
      <trkpt lat="59.949271" lon="17.667814">
        <ele>29.9381</ele>
        <time>2013-04-14T10:17:27Z</time>
      </trkpt>
      <trkpt lat="59.9492097" lon="17.6677814">
        <ele>29.9381</ele>
        <time>2013-04-14T10:17:28Z</time>
      </trkpt>
      <trkpt lat="59.9491493" lon="17.6677472">
        <ele>29.9381</ele>
        <time>2013-04-14T10:17:29Z</time>
      </trkpt>
      <trkpt lat="59.9490889" lon="17.6677131">
        <ele>29.9381</ele>
        <time>2013-04-14T10:17:30Z</time>
      </trkpt>
      <trkpt lat="59.9490293" lon="17.6676786">
        <ele>29.9381</ele>
        <time>2013-04-14T10:17:31Z</time>
      </trkpt>
      <trkpt lat="59.94897" lon="17.6676431">
        <ele>29.9381</ele>
        <time>2013-04-14T10:17:32Z</time>
      </trkpt>
      <trkpt lat="59.9489103" lon="17.6676085">
        <ele>29.9381</ele>
        <time>2013-04-14T10:17:33Z</time>
      </trkpt>
      <trkpt lat="59.9488501" lon="17.6675735">
        <ele>29.9381</ele>
        <time>2013-04-14T10:17:34Z</time>
      </trkpt>
      <trkpt lat="59.94879" lon="17.6675369">
        <ele>29.9381</ele>
        <time>2013-04-14T10:17:35Z</time>
      </trkpt>
      <trkpt lat="59.9487294" lon="17.6675002">
        <ele>29.4575</ele>
        <time>2013-04-14T10:17:36Z</time>
      </trkpt>
      <trkpt lat="59.9486685" lon="17.6674647">
        <ele>29.4575</ele>
        <time>2013-04-14T10:17:37Z</time>
      </trkpt>
      <trkpt lat="59.9486077" lon="17.6674295">
        <ele>29.4575</ele>
        <time>2013-04-14T10:17:38Z</time>
      </trkpt>
      <trkpt lat="59.9485479" lon="17.6673951">
        <ele>29.4575</ele>
        <time>2013-04-14T10:17:39Z</time>
      </trkpt>
      <trkpt lat="59.9484883" lon="17.6673623">
        <ele>28.9769</ele>
        <time>2013-04-14T10:17:40Z</time>
      </trkpt>
      <trkpt lat="59.9484294" lon="17.6673305">
        <ele>28.9769</ele>
        <time>2013-04-14T10:17:41Z</time>
      </trkpt>
      <trkpt lat="59.9483715" lon="17.667298">
        <ele>28.9769</ele>
        <time>2013-04-14T10:17:42Z</time>
      </trkpt>
      <trkpt lat="59.9483134" lon="17.6672643">
        <ele>28.9769</ele>
        <time>2013-04-14T10:17:43Z</time>
      </trkpt>
      <trkpt lat="59.9482549" lon="17.6672316">
        <ele>28.9769</ele>
        <time>2013-04-14T10:17:44Z</time>
      </trkpt>
      <trkpt lat="59.9481967" lon="17.6671991">
        <ele>28.9769</ele>
        <time>2013-04-14T10:17:45Z</time>
      </trkpt>
      <trkpt lat="59.9481395" lon="17.6671671">
        <ele>28.9769</ele>
        <time>2013-04-14T10:17:46Z</time>
      </trkpt>
      <trkpt lat="59.9480834" lon="17.6671342">
        <ele>28.4962</ele>
        <time>2013-04-14T10:17:47Z</time>
      </trkpt>
      <trkpt lat="59.9480275" lon="17.6670997">
        <ele>28.4962</ele>
        <time>2013-04-14T10:17:48Z</time>
      </trkpt>
      <trkpt lat="59.947971" lon="17.6670665">
        <ele>28.4962</ele>
        <time>2013-04-14T10:17:49Z</time>
      </trkpt>
      <trkpt lat="59.9479146" lon="17.6670356">
        <ele>28.4962</ele>
        <time>2013-04-14T10:17:50Z</time>
      </trkpt>
      <trkpt lat="59.9478582" lon="17.6670047">
        <ele>28.4962</ele>
        <time>2013-04-14T10:17:51Z</time>
      </trkpt>
      <trkpt lat="59.9478016" lon="17.6669739">
        <ele>28.4962</ele>
        <time>2013-04-14T10:17:52Z</time>
      </trkpt>
      <trkpt lat="59.9477446" lon="17.6669448">
        <ele>28.4962</ele>
        <time>2013-04-14T10:17:53Z</time>
      </trkpt>
      <trkpt lat="59.9476877" lon="17.6669164">
        <ele>28.4962</ele>
        <time>2013-04-14T10:17:54Z</time>
      </trkpt>
      <trkpt lat="59.9476307" lon="17.6668887">
        <ele>28.4962</ele>
        <time>2013-04-14T10:17:55Z</time>
      </trkpt>
      <trkpt lat="59.9475741" lon="17.6668604">
        <ele>28.4962</ele>
        <time>2013-04-14T10:17:56Z</time>
      </trkpt>
      <trkpt lat="59.9475176" lon="17.6668315">
        <ele>28.0155</ele>
        <time>2013-04-14T10:17:57Z</time>
      </trkpt>
      <trkpt lat="59.9474611" lon="17.6668032">
        <ele>28.0155</ele>
        <time>2013-04-14T10:17:58Z</time>
      </trkpt>
      <trkpt lat="59.9474041" lon="17.6667771">
        <ele>28.0155</ele>
        <time>2013-04-14T10:17:59Z</time>
      </trkpt>
      <trkpt lat="59.9473468" lon="17.6667511">
        <ele>28.0155</ele>
        <time>2013-04-14T10:18:00Z</time>
      </trkpt>
      <trkpt lat="59.9472891" lon="17.6667231">
        <ele>28.0155</ele>
        <time>2013-04-14T10:18:01Z</time>
      </trkpt>
      <trkpt lat="59.9472303" lon="17.6666949">
        <ele>28.0155</ele>
        <time>2013-04-14T10:18:02Z</time>
      </trkpt>
      <trkpt lat="59.9471702" lon="17.6666692">
        <ele>28.0155</ele>
        <time>2013-04-14T10:18:03Z</time>
      </trkpt>
      <trkpt lat="59.9471096" lon="17.6666439">
        <ele>28.0155</ele>
        <time>2013-04-14T10:18:04Z</time>
      </trkpt>
      <trkpt lat="59.947049" lon="17.6666169">
        <ele>28.0155</ele>
        <time>2013-04-14T10:18:05Z</time>
      </trkpt>
      <trkpt lat="59.9469883" lon="17.66659">
        <ele>28.0155</ele>
        <time>2013-04-14T10:18:06Z</time>
      </trkpt>
      <trkpt lat="59.9469276" lon="17.6665626">
        <ele>28.0155</ele>
        <time>2013-04-14T10:18:07Z</time>
      </trkpt>
      <trkpt lat="59.9468671" lon="17.6665352">
        <ele>28.0155</ele>
        <time>2013-04-14T10:18:08Z</time>
      </trkpt>
      <trkpt lat="59.946807" lon="17.6665098">
        <ele>28.0155</ele>
        <time>2013-04-14T10:18:09Z</time>
      </trkpt>
      <trkpt lat="59.9467459" lon="17.6664905">
        <ele>27.5349</ele>
        <time>2013-04-14T10:18:10Z</time>
      </trkpt>
      <trkpt lat="59.9466848" lon="17.6664797">
        <ele>27.5349</ele>
        <time>2013-04-14T10:18:11Z</time>
      </trkpt>
      <trkpt lat="59.9466241" lon="17.666475">
        <ele>27.5349</ele>
        <time>2013-04-14T10:18:12Z</time>
      </trkpt>
      <trkpt lat="59.9465634" lon="17.666472">
        <ele>27.5349</ele>
        <time>2013-04-14T10:18:13Z</time>
      </trkpt>
      <trkpt lat="59.9465033" lon="17.6664624">
        <ele>27.0543</ele>
        <time>2013-04-14T10:18:14Z</time>
      </trkpt>
      <trkpt lat="59.9464438" lon="17.6664429">
        <ele>27.0543</ele>
        <time>2013-04-14T10:18:15Z</time>
      </trkpt>
      <trkpt lat="59.9463859" lon="17.6664169">
        <ele>27.0543</ele>
        <time>2013-04-14T10:18:16Z</time>
      </trkpt>
      <trkpt lat="59.9463289" lon="17.6663838">
        <ele>27.0543</ele>
        <time>2013-04-14T10:18:17Z</time>
      </trkpt>
      <trkpt lat="59.9462723" lon="17.6663451">
        <ele>27.0543</ele>
        <time>2013-04-14T10:18:18Z</time>
      </trkpt>
      <trkpt lat="59.9462161" lon="17.6663044">
        <ele>27.0543</ele>
        <time>2013-04-14T10:18:19Z</time>
      </trkpt>
      <trkpt lat="59.9461598" lon="17.6662667">
        <ele>27.0543</ele>
        <time>2013-04-14T10:18:20Z</time>
      </trkpt>
      <trkpt lat="59.9461025" lon="17.6662352">
        <ele>27.0543</ele>
        <time>2013-04-14T10:18:21Z</time>
      </trkpt>
      <trkpt lat="59.9460449" lon="17.6662086">
        <ele>27.0543</ele>
        <time>2013-04-14T10:18:22Z</time>
      </trkpt>
      <trkpt lat="59.9459873" lon="17.6661839">
        <ele>27.0543</ele>
        <time>2013-04-14T10:18:23Z</time>
      </trkpt>
      <trkpt lat="59.9459303" lon="17.6661605">
        <ele>27.0543</ele>
        <time>2013-04-14T10:18:24Z</time>
      </trkpt>
      <trkpt lat="59.9458723" lon="17.6661379">
        <ele>27.0543</ele>
        <time>2013-04-14T10:18:25Z</time>
      </trkpt>
      <trkpt lat="59.9458139" lon="17.666116">
        <ele>26.5736</ele>
        <time>2013-04-14T10:18:26Z</time>
      </trkpt>
      <trkpt lat="59.9457545" lon="17.666093">
        <ele>26.5736</ele>
        <time>2013-04-14T10:18:27Z</time>
      </trkpt>
      <trkpt lat="59.9456948" lon="17.6660695">
        <ele>26.5736</ele>
        <time>2013-04-14T10:18:28Z</time>
      </trkpt>
      <trkpt lat="59.9456347" lon="17.6660458">
        <ele>26.0929</ele>
        <time>2013-04-14T10:18:29Z</time>
      </trkpt>
      <trkpt lat="59.9455742" lon="17.6660213">
        <ele>26.0929</ele>
        <time>2013-04-14T10:18:30Z</time>
      </trkpt>
      <trkpt lat="59.9455135" lon="17.6659974">
        <ele>26.0929</ele>
        <time>2013-04-14T10:18:31Z</time>
      </trkpt>
      <trkpt lat="59.9454523" lon="17.6659756">
        <ele>26.0929</ele>
        <time>2013-04-14T10:18:32Z</time>
      </trkpt>
      <trkpt lat="59.9453907" lon="17.6659549">
        <ele>26.0929</ele>
        <time>2013-04-14T10:18:33Z</time>
      </trkpt>
      <trkpt lat="59.9453284" lon="17.6659342">
        <ele>25.6123</ele>
        <time>2013-04-14T10:18:34Z</time>
      </trkpt>
      <trkpt lat="59.9452654" lon="17.665914">
        <ele>25.6123</ele>
        <time>2013-04-14T10:18:35Z</time>
      </trkpt>
      <trkpt lat="59.9452021" lon="17.6658931">
        <ele>25.6123</ele>
        <time>2013-04-14T10:18:36Z</time>
      </trkpt>
      <trkpt lat="59.945139" lon="17.6658715">
        <ele>25.6123</ele>
        <time>2013-04-14T10:18:37Z</time>
      </trkpt>
      <trkpt lat="59.9450758" lon="17.6658508">
        <ele>25.6123</ele>
        <time>2013-04-14T10:18:38Z</time>
      </trkpt>
      <trkpt lat="59.945013" lon="17.6658302">
        <ele>25.6123</ele>
        <time>2013-04-14T10:18:39Z</time>
      </trkpt>
      <trkpt lat="59.9449501" lon="17.6658099">
        <ele>25.1317</ele>
        <time>2013-04-14T10:18:40Z</time>
      </trkpt>
      <trkpt lat="59.9448877" lon="17.6657885">
        <ele>25.1317</ele>
        <time>2013-04-14T10:18:41Z</time>
      </trkpt>
      <trkpt lat="59.9448262" lon="17.6657637">
        <ele>25.1317</ele>
        <time>2013-04-14T10:18:42Z</time>
      </trkpt>
      <trkpt lat="59.9447651" lon="17.6657348">
        <ele>25.6123</ele>
        <time>2013-04-14T10:18:43Z</time>
      </trkpt>
      <trkpt lat="59.9447043" lon="17.6657047">
        <ele>25.6123</ele>
        <time>2013-04-14T10:18:44Z</time>
      </trkpt>
      <trkpt lat="59.9446431" lon="17.6656746">
        <ele>25.6123</ele>
        <time>2013-04-14T10:18:45Z</time>
      </trkpt>
      <trkpt lat="59.9445814" lon="17.6656461">
        <ele>25.6123</ele>
        <time>2013-04-14T10:18:46Z</time>
      </trkpt>
      <trkpt lat="59.9445193" lon="17.6656213">
        <ele>25.6123</ele>
        <time>2013-04-14T10:18:47Z</time>
      </trkpt>
      <trkpt lat="59.9444573" lon="17.6655976">
        <ele>25.6123</ele>
        <time>2013-04-14T10:18:48Z</time>
      </trkpt>
      <trkpt lat="59.9443962" lon="17.665574">
        <ele>25.6123</ele>
        <time>2013-04-14T10:18:49Z</time>
      </trkpt>
      <trkpt lat="59.9443365" lon="17.6655506">
        <ele>25.6123</ele>
        <time>2013-04-14T10:18:50Z</time>
      </trkpt>
      <trkpt lat="59.9442772" lon="17.6655286">
        <ele>25.6123</ele>
        <time>2013-04-14T10:18:51Z</time>
      </trkpt>
      <trkpt lat="59.9442188" lon="17.6655046">
        <ele>25.6123</ele>
        <time>2013-04-14T10:18:52Z</time>
      </trkpt>
      <trkpt lat="59.9441605" lon="17.6654774">
        <ele>25.6123</ele>
        <time>2013-04-14T10:18:53Z</time>
      </trkpt>
      <trkpt lat="59.9441015" lon="17.6654501">
        <ele>25.6123</ele>
        <time>2013-04-14T10:18:54Z</time>
      </trkpt>
      <trkpt lat="59.9440425" lon="17.6654214">
        <ele>25.6123</ele>
        <time>2013-04-14T10:18:55Z</time>
      </trkpt>
      <trkpt lat="59.9439844" lon="17.6653924">
        <ele>25.6123</ele>
        <time>2013-04-14T10:18:56Z</time>
      </trkpt>
      <trkpt lat="59.9439264" lon="17.6653643">
        <ele>25.6123</ele>
        <time>2013-04-14T10:18:57Z</time>
      </trkpt>
      <trkpt lat="59.9438689" lon="17.6653331">
        <ele>26.0929</ele>
        <time>2013-04-14T10:18:58Z</time>
      </trkpt>
      <trkpt lat="59.9438115" lon="17.6652982">
        <ele>26.0929</ele>
        <time>2013-04-14T10:18:59Z</time>
      </trkpt>
      <trkpt lat="59.9437544" lon="17.6652637">
        <ele>26.0929</ele>
        <time>2013-04-14T10:19:00Z</time>
      </trkpt>
      <trkpt lat="59.9436979" lon="17.6652296">
        <ele>26.0929</ele>
        <time>2013-04-14T10:19:01Z</time>
      </trkpt>
      <trkpt lat="59.9436424" lon="17.6651939">
        <ele>26.0929</ele>
        <time>2013-04-14T10:19:02Z</time>
      </trkpt>
      <trkpt lat="59.9435877" lon="17.6651575">
        <ele>26.0929</ele>
        <time>2013-04-14T10:19:03Z</time>
      </trkpt>
      <trkpt lat="59.9435345" lon="17.66512">
        <ele>26.0929</ele>
        <time>2013-04-14T10:19:04Z</time>
      </trkpt>
      <trkpt lat="59.9434822" lon="17.6650815">
        <ele>26.0929</ele>
        <time>2013-04-14T10:19:05Z</time>
      </trkpt>
      <trkpt lat="59.9434301" lon="17.6650438">
        <ele>26.5736</ele>
        <time>2013-04-14T10:19:06Z</time>
      </trkpt>
      <trkpt lat="59.9433778" lon="17.6650068">
        <ele>26.5736</ele>
        <time>2013-04-14T10:19:07Z</time>
      </trkpt>
      <trkpt lat="59.9433263" lon="17.6649679">
        <ele>26.5736</ele>
        <time>2013-04-14T10:19:08Z</time>
      </trkpt>
      <trkpt lat="59.9432751" lon="17.6649256">
        <ele>26.5736</ele>
        <time>2013-04-14T10:19:09Z</time>
      </trkpt>
      <trkpt lat="59.9432241" lon="17.664881">
        <ele>26.5736</ele>
        <time>2013-04-14T10:19:10Z</time>
      </trkpt>
      <trkpt lat="59.9431732" lon="17.6648356">
        <ele>26.5736</ele>
        <time>2013-04-14T10:19:11Z</time>
      </trkpt>
      <trkpt lat="59.9431217" lon="17.6647895">
        <ele>26.5736</ele>
        <time>2013-04-14T10:19:12Z</time>
      </trkpt>
      <trkpt lat="59.9430702" lon="17.6647417">
        <ele>27.0543</ele>
        <time>2013-04-14T10:19:13Z</time>
      </trkpt>
      <trkpt lat="59.9430193" lon="17.6646949">
        <ele>27.0543</ele>
        <time>2013-04-14T10:19:14Z</time>
      </trkpt>
      <trkpt lat="59.9429692" lon="17.6646495">
        <ele>27.0543</ele>
        <time>2013-04-14T10:19:15Z</time>
      </trkpt>
      <trkpt lat="59.9429214" lon="17.6646024">
        <ele>27.0543</ele>
        <time>2013-04-14T10:19:16Z</time>
      </trkpt>
      <trkpt lat="59.9428752" lon="17.6645531">
        <ele>27.0543</ele>
        <time>2013-04-14T10:19:17Z</time>
      </trkpt>
      <trkpt lat="59.9428298" lon="17.6645034">
        <ele>27.5349</ele>
        <time>2013-04-14T10:19:18Z</time>
      </trkpt>
      <trkpt lat="59.942785" lon="17.6644552">
        <ele>27.5349</ele>
        <time>2013-04-14T10:19:19Z</time>
      </trkpt>
      <trkpt lat="59.9427406" lon="17.6644084">
        <ele>27.5349</ele>
        <time>2013-04-14T10:19:20Z</time>
      </trkpt>
      <trkpt lat="59.9426971" lon="17.6643615">
        <ele>27.5349</ele>
        <time>2013-04-14T10:19:21Z</time>
      </trkpt>
      <trkpt lat="59.9426548" lon="17.6643155">
        <ele>27.5349</ele>
        <time>2013-04-14T10:19:22Z</time>
      </trkpt>
      <trkpt lat="59.9426127" lon="17.6642688">
        <ele>27.5349</ele>
        <time>2013-04-14T10:19:23Z</time>
      </trkpt>
      <trkpt lat="59.9425703" lon="17.6642191">
        <ele>27.5349</ele>
        <time>2013-04-14T10:19:24Z</time>
      </trkpt>
      <trkpt lat="59.9425272" lon="17.6641672">
        <ele>27.5349</ele>
        <time>2013-04-14T10:19:25Z</time>
      </trkpt>
      <trkpt lat="59.9424835" lon="17.6641147">
        <ele>27.5349</ele>
        <time>2013-04-14T10:19:26Z</time>
      </trkpt>
      <trkpt lat="59.94244" lon="17.66406">
        <ele>27.5349</ele>
        <time>2013-04-14T10:19:27Z</time>
      </trkpt>
      <trkpt lat="59.9423967" lon="17.6640025">
        <ele>27.5349</ele>
        <time>2013-04-14T10:19:28Z</time>
      </trkpt>
      <trkpt lat="59.9423533" lon="17.6639444">
        <ele>27.5349</ele>
        <time>2013-04-14T10:19:29Z</time>
      </trkpt>
      <trkpt lat="59.9423097" lon="17.6638866">
        <ele>28.0155</ele>
        <time>2013-04-14T10:19:30Z</time>
      </trkpt>
      <trkpt lat="59.9422667" lon="17.6638275">
        <ele>27.5349</ele>
        <time>2013-04-14T10:19:31Z</time>
      </trkpt>
      <trkpt lat="59.9422237" lon="17.6637679">
        <ele>27.5349</ele>
        <time>2013-04-14T10:19:32Z</time>
      </trkpt>
      <trkpt lat="59.9421807" lon="17.6637083">
        <ele>28.0155</ele>
        <time>2013-04-14T10:19:33Z</time>
      </trkpt>
      <trkpt lat="59.9421387" lon="17.6636467">
        <ele>27.5349</ele>
        <time>2013-04-14T10:19:34Z</time>
      </trkpt>
      <trkpt lat="59.9420967" lon="17.6635833">
        <ele>27.5349</ele>
        <time>2013-04-14T10:19:35Z</time>
      </trkpt>
      <trkpt lat="59.9420549" lon="17.6635171">
        <ele>27.5349</ele>
        <time>2013-04-14T10:19:36Z</time>
      </trkpt>
      <trkpt lat="59.9420137" lon="17.6634502">
        <ele>27.5349</ele>
        <time>2013-04-14T10:19:37Z</time>
      </trkpt>
      <trkpt lat="59.9419727" lon="17.663385">
        <ele>27.5349</ele>
        <time>2013-04-14T10:19:38Z</time>
      </trkpt>
      <trkpt lat="59.9419327" lon="17.6633208">
        <ele>27.5349</ele>
        <time>2013-04-14T10:19:39Z</time>
      </trkpt>
      <trkpt lat="59.9418941" lon="17.663255">
        <ele>27.5349</ele>
        <time>2013-04-14T10:19:40Z</time>
      </trkpt>
      <trkpt lat="59.9418554" lon="17.6631871">
        <ele>27.5349</ele>
        <time>2013-04-14T10:19:41Z</time>
      </trkpt>
      <trkpt lat="59.9418161" lon="17.6631189">
        <ele>27.5349</ele>
        <time>2013-04-14T10:19:42Z</time>
      </trkpt>
      <trkpt lat="59.9417761" lon="17.6630509">
        <ele>27.5349</ele>
        <time>2013-04-14T10:19:43Z</time>
      </trkpt>
      <trkpt lat="59.9417357" lon="17.6629811">
        <ele>27.5349</ele>
        <time>2013-04-14T10:19:44Z</time>
      </trkpt>
      <trkpt lat="59.9416953" lon="17.6629095">
        <ele>27.5349</ele>
        <time>2013-04-14T10:19:45Z</time>
      </trkpt>
      <trkpt lat="59.9416544" lon="17.6628361">
        <ele>27.0543</ele>
        <time>2013-04-14T10:19:46Z</time>
      </trkpt>
      <trkpt lat="59.9416128" lon="17.6627608">
        <ele>27.0543</ele>
        <time>2013-04-14T10:19:47Z</time>
      </trkpt>
      <trkpt lat="59.9415706" lon="17.6626842">
        <ele>27.0543</ele>
        <time>2013-04-14T10:19:48Z</time>
      </trkpt>
      <trkpt lat="59.9415275" lon="17.6626101">
        <ele>27.0543</ele>
        <time>2013-04-14T10:19:49Z</time>
      </trkpt>
      <trkpt lat="59.9414824" lon="17.6625402">
        <ele>27.0543</ele>
        <time>2013-04-14T10:19:50Z</time>
      </trkpt>
      <trkpt lat="59.9414367" lon="17.6624739">
        <ele>26.5736</ele>
        <time>2013-04-14T10:19:51Z</time>
      </trkpt>
      <trkpt lat="59.9413886" lon="17.6624094">
        <ele>26.5736</ele>
        <time>2013-04-14T10:19:52Z</time>
      </trkpt>
      <trkpt lat="59.9413387" lon="17.6623484">
        <ele>26.0929</ele>
        <time>2013-04-14T10:19:53Z</time>
      </trkpt>
      <trkpt lat="59.9412866" lon="17.6622936">
        <ele>26.0929</ele>
        <time>2013-04-14T10:19:54Z</time>
      </trkpt>
      <trkpt lat="59.9412323" lon="17.662245">
        <ele>25.6123</ele>
        <time>2013-04-14T10:19:55Z</time>
      </trkpt>
      <trkpt lat="59.9411767" lon="17.6622019">
        <ele>25.1317</ele>
        <time>2013-04-14T10:19:56Z</time>
      </trkpt>
      <trkpt lat="59.9411197" lon="17.6621649">
        <ele>25.1317</ele>
        <time>2013-04-14T10:19:57Z</time>
      </trkpt>
      <trkpt lat="59.9410618" lon="17.662134">
        <ele>25.1317</ele>
        <time>2013-04-14T10:19:58Z</time>
      </trkpt>
      <trkpt lat="59.9410033" lon="17.6621066">
        <ele>24.651</ele>
        <time>2013-04-14T10:19:59Z</time>
      </trkpt>
      <trkpt lat="59.9409442" lon="17.6620838">
        <ele>24.651</ele>
        <time>2013-04-14T10:20:00Z</time>
      </trkpt>
      <trkpt lat="59.940884" lon="17.6620667">
        <ele>24.651</ele>
        <time>2013-04-14T10:20:01Z</time>
      </trkpt>
      <trkpt lat="59.9408225" lon="17.6620544">
        <ele>24.1703</ele>
        <time>2013-04-14T10:20:02Z</time>
      </trkpt>
      <trkpt lat="59.9407608" lon="17.6620435">
        <ele>24.1703</ele>
        <time>2013-04-14T10:20:03Z</time>
      </trkpt>
      <trkpt lat="59.9406991" lon="17.662024">
        <ele>23.6896</ele>
        <time>2013-04-14T10:20:04Z</time>
      </trkpt>
      <trkpt lat="59.9406386" lon="17.6619867">
        <ele>23.6896</ele>
        <time>2013-04-14T10:20:05Z</time>
      </trkpt>
      <trkpt lat="59.9405815" lon="17.6619267">
        <ele>23.6896</ele>
        <time>2013-04-14T10:20:06Z</time>
      </trkpt>
      <trkpt lat="59.9405303" lon="17.661844">
        <ele>23.209</ele>
        <time>2013-04-14T10:20:07Z</time>
      </trkpt>
      <trkpt lat="59.9404877" lon="17.6617402">
        <ele>22.7283</ele>
        <time>2013-04-14T10:20:08Z</time>
      </trkpt>
      <trkpt lat="59.940456" lon="17.6616171">
        <ele>22.7283</ele>
        <time>2013-04-14T10:20:09Z</time>
      </trkpt>
      <trkpt lat="59.940436" lon="17.6614806">
        <ele>22.7283</ele>
        <time>2013-04-14T10:20:10Z</time>
      </trkpt>
      <trkpt lat="59.9404257" lon="17.6613393">
        <ele>22.7283</ele>
        <time>2013-04-14T10:20:11Z</time>
      </trkpt>
      <trkpt lat="59.9404223" lon="17.6611932">
        <ele>22.7283</ele>
        <time>2013-04-14T10:20:12Z</time>
      </trkpt>
      <trkpt lat="59.940421" lon="17.6610525">
        <ele>22.7283</ele>
        <time>2013-04-14T10:20:13Z</time>
      </trkpt>
      <trkpt lat="59.9404335" lon="17.6609173">
        <ele>23.209</ele>
        <time>2013-04-14T10:20:14Z</time>
      </trkpt>
      <trkpt lat="59.9404588" lon="17.6607862">
        <ele>23.6896</ele>
        <time>2013-04-14T10:20:15Z</time>
      </trkpt>
      <trkpt lat="59.9404897" lon="17.660665">
        <ele>24.651</ele>
        <time>2013-04-14T10:20:16Z</time>
      </trkpt>
      <trkpt lat="59.9405161" lon="17.6605464">
        <ele>25.1317</ele>
        <time>2013-04-14T10:20:17Z</time>
      </trkpt>
      <trkpt lat="59.9405328" lon="17.6604254">
        <ele>25.6123</ele>
        <time>2013-04-14T10:20:18Z</time>
      </trkpt>
      <trkpt lat="59.9405395" lon="17.6603044">
        <ele>26.0929</ele>
        <time>2013-04-14T10:20:19Z</time>
      </trkpt>
      <trkpt lat="59.9405311" lon="17.6601958">
        <ele>26.5736</ele>
        <time>2013-04-14T10:20:20Z</time>
      </trkpt>
      <trkpt lat="59.9405158" lon="17.6600941">
        <ele>27.0543</ele>
        <time>2013-04-14T10:20:21Z</time>
      </trkpt>
      <trkpt lat="59.9404987" lon="17.6599913">
        <ele>28.0155</ele>
        <time>2013-04-14T10:20:22Z</time>
      </trkpt>
      <trkpt lat="59.940465" lon="17.6598919">
        <ele>28.4962</ele>
        <time>2013-04-14T10:20:23Z</time>
      </trkpt>
      <trkpt lat="59.9404236" lon="17.6598036">
        <ele>28.4962</ele>
        <time>2013-04-14T10:20:24Z</time>
      </trkpt>
      <trkpt lat="59.9404506" lon="17.6597858">
        <ele>28.0155</ele>
        <time>2013-04-14T10:20:25Z</time>
      </trkpt>
      <trkpt lat="59.9404232" lon="17.6596791">
        <ele>28.9769</ele>
        <time>2013-04-14T10:20:26Z</time>
      </trkpt>
      <trkpt lat="59.940392" lon="17.6595619">
        <ele>28.4962</ele>
        <time>2013-04-14T10:20:27Z</time>
      </trkpt>
      <trkpt lat="59.9403692" lon="17.6594364">
        <ele>28.4962</ele>
        <time>2013-04-14T10:20:28Z</time>
      </trkpt>
      <trkpt lat="59.9403495" lon="17.6593112">
        <ele>28.4962</ele>
        <time>2013-04-14T10:20:29Z</time>
      </trkpt>
      <trkpt lat="59.9403219" lon="17.6591781">
        <ele>28.4962</ele>
        <time>2013-04-14T10:20:30Z</time>
      </trkpt>
      <trkpt lat="59.9402972" lon="17.6590435">
        <ele>28.9769</ele>
        <time>2013-04-14T10:20:31Z</time>
      </trkpt>
      <trkpt lat="59.9402707" lon="17.6589172">
        <ele>28.9769</ele>
        <time>2013-04-14T10:20:32Z</time>
      </trkpt>
      <trkpt lat="59.9402469" lon="17.6587929">
        <ele>28.9769</ele>
        <time>2013-04-14T10:20:33Z</time>
      </trkpt>
      <trkpt lat="59.9402214" lon="17.6586732">
        <ele>29.4575</ele>
        <time>2013-04-14T10:20:34Z</time>
      </trkpt>
      <trkpt lat="59.9401942" lon="17.6585565">
        <ele>29.4575</ele>
        <time>2013-04-14T10:20:35Z</time>
      </trkpt>
      <trkpt lat="59.9401672" lon="17.6584422">
        <ele>29.4575</ele>
        <time>2013-04-14T10:20:36Z</time>
      </trkpt>
      <trkpt lat="59.9401414" lon="17.6583299">
        <ele>29.4575</ele>
        <time>2013-04-14T10:20:37Z</time>
      </trkpt>
      <trkpt lat="59.9401165" lon="17.6582193">
        <ele>29.4575</ele>
        <time>2013-04-14T10:20:38Z</time>
      </trkpt>
      <trkpt lat="59.9400929" lon="17.6581105">
        <ele>29.9381</ele>
        <time>2013-04-14T10:20:39Z</time>
      </trkpt>
      <trkpt lat="59.9400704" lon="17.6580014">
        <ele>29.9381</ele>
        <time>2013-04-14T10:20:40Z</time>
      </trkpt>
      <trkpt lat="59.9400491" lon="17.6578932">
        <ele>29.9381</ele>
        <time>2013-04-14T10:20:41Z</time>
      </trkpt>
      <trkpt lat="59.9400274" lon="17.6577859">
        <ele>29.9381</ele>
        <time>2013-04-14T10:20:42Z</time>
      </trkpt>
      <trkpt lat="59.9400054" lon="17.6576786">
        <ele>30.4188</ele>
        <time>2013-04-14T10:20:43Z</time>
      </trkpt>
      <trkpt lat="59.9399833" lon="17.6575708">
        <ele>30.4188</ele>
        <time>2013-04-14T10:20:44Z</time>
      </trkpt>
      <trkpt lat="59.939962" lon="17.6574637">
        <ele>30.4188</ele>
        <time>2013-04-14T10:20:45Z</time>
      </trkpt>
      <trkpt lat="59.9399403" lon="17.6573604">
        <ele>30.4188</ele>
        <time>2013-04-14T10:20:46Z</time>
      </trkpt>
      <trkpt lat="59.9399185" lon="17.6572599">
        <ele>30.8995</ele>
        <time>2013-04-14T10:20:47Z</time>
      </trkpt>
      <trkpt lat="59.9398972" lon="17.6571605">
        <ele>30.8995</ele>
        <time>2013-04-14T10:20:48Z</time>
      </trkpt>
      <trkpt lat="59.939877" lon="17.6570637">
        <ele>31.3801</ele>
        <time>2013-04-14T10:20:49Z</time>
      </trkpt>
      <trkpt lat="59.9398558" lon="17.6569701">
        <ele>31.3801</ele>
        <time>2013-04-14T10:20:50Z</time>
      </trkpt>
      <trkpt lat="59.9398346" lon="17.6568745">
        <ele>31.8607</ele>
        <time>2013-04-14T10:20:51Z</time>
      </trkpt>
      <trkpt lat="59.9398154" lon="17.6567745">
        <ele>31.8607</ele>
        <time>2013-04-14T10:20:52Z</time>
      </trkpt>
      <trkpt lat="59.9397962" lon="17.6566717">
        <ele>31.8607</ele>
        <time>2013-04-14T10:20:53Z</time>
      </trkpt>
      <trkpt lat="59.9397745" lon="17.6565658">
        <ele>32.3416</ele>
        <time>2013-04-14T10:20:54Z</time>
      </trkpt>
      <trkpt lat="59.9397518" lon="17.656457">
        <ele>32.3416</ele>
        <time>2013-04-14T10:20:55Z</time>
      </trkpt>
      <trkpt lat="59.9397295" lon="17.6563451">
        <ele>32.3416</ele>
        <time>2013-04-14T10:20:56Z</time>
      </trkpt>
      <trkpt lat="59.9397057" lon="17.6562339">
        <ele>32.3416</ele>
        <time>2013-04-14T10:20:57Z</time>
      </trkpt>
      <trkpt lat="59.9396818" lon="17.6561294">
        <ele>32.8223</ele>
        <time>2013-04-14T10:20:58Z</time>
      </trkpt>
      <trkpt lat="59.939659" lon="17.6560298">
        <ele>32.8223</ele>
        <time>2013-04-14T10:20:59Z</time>
      </trkpt>
      <trkpt lat="59.9396374" lon="17.6559334">
        <ele>33.3029</ele>
        <time>2013-04-14T10:21:00Z</time>
      </trkpt>
      <trkpt lat="59.9396172" lon="17.6558376">
        <ele>33.3029</ele>
        <time>2013-04-14T10:21:01Z</time>
      </trkpt>
      <trkpt lat="59.9395985" lon="17.6557409">
        <ele>33.7834</ele>
        <time>2013-04-14T10:21:02Z</time>
      </trkpt>
      <trkpt lat="59.9395803" lon="17.6556434">
        <ele>33.7834</ele>
        <time>2013-04-14T10:21:03Z</time>
      </trkpt>
      <trkpt lat="59.9395611" lon="17.655546">
        <ele>34.2642</ele>
        <time>2013-04-14T10:21:04Z</time>
      </trkpt>
      <trkpt lat="59.9395419" lon="17.6554485">
        <ele>34.2642</ele>
        <time>2013-04-14T10:21:05Z</time>
      </trkpt>
      <trkpt lat="59.9395237" lon="17.6553503">
        <ele>34.2642</ele>
        <time>2013-04-14T10:21:06Z</time>
      </trkpt>
      <trkpt lat="59.9395046" lon="17.6552529">
        <ele>34.7449</ele>
        <time>2013-04-14T10:21:07Z</time>
      </trkpt>
      <trkpt lat="59.9394843" lon="17.6551569">
        <ele>34.7449</ele>
        <time>2013-04-14T10:21:08Z</time>
      </trkpt>
      <trkpt lat="59.9394632" lon="17.6550611">
        <ele>34.7449</ele>
        <time>2013-04-14T10:21:09Z</time>
      </trkpt>
      <trkpt lat="59.9394413" lon="17.6549662">
        <ele>35.2255</ele>
        <time>2013-04-14T10:21:10Z</time>
      </trkpt>
      <trkpt lat="59.9394206" lon="17.6548698">
        <ele>35.2255</ele>
        <time>2013-04-14T10:21:11Z</time>
      </trkpt>
      <trkpt lat="59.9394011" lon="17.6547714">
        <ele>35.2255</ele>
        <time>2013-04-14T10:21:12Z</time>
      </trkpt>
      <trkpt lat="59.9393811" lon="17.6546721">
        <ele>35.2255</ele>
        <time>2013-04-14T10:21:13Z</time>
      </trkpt>
      <trkpt lat="59.9393604" lon="17.6545716">
        <ele>35.2255</ele>
        <time>2013-04-14T10:21:14Z</time>
      </trkpt>
      <trkpt lat="59.9393394" lon="17.6544706">
        <ele>35.2255</ele>
        <time>2013-04-14T10:21:15Z</time>
      </trkpt>
      <trkpt lat="59.9393185" lon="17.654371">
        <ele>35.2255</ele>
        <time>2013-04-14T10:21:16Z</time>
      </trkpt>
      <trkpt lat="59.9392954" lon="17.6542721">
        <ele>35.7061</ele>
        <time>2013-04-14T10:21:17Z</time>
      </trkpt>
      <trkpt lat="59.939272" lon="17.6541736">
        <ele>35.7061</ele>
        <time>2013-04-14T10:21:18Z</time>
      </trkpt>
      <trkpt lat="59.9392498" lon="17.6540728">
        <ele>35.7061</ele>
        <time>2013-04-14T10:21:19Z</time>
      </trkpt>
      <trkpt lat="59.9392296" lon="17.6539691">
        <ele>35.7061</ele>
        <time>2013-04-14T10:21:20Z</time>
      </trkpt>
      <trkpt lat="59.9392088" lon="17.653864">
        <ele>35.7061</ele>
        <time>2013-04-14T10:21:21Z</time>
      </trkpt>
      <trkpt lat="59.9391855" lon="17.6537578">
        <ele>35.7061</ele>
        <time>2013-04-14T10:21:22Z</time>
      </trkpt>
      <trkpt lat="59.9391625" lon="17.6536506">
        <ele>35.7061</ele>
        <time>2013-04-14T10:21:23Z</time>
      </trkpt>
      <trkpt lat="59.9391401" lon="17.6535423">
        <ele>35.7061</ele>
        <time>2013-04-14T10:21:24Z</time>
      </trkpt>
      <trkpt lat="59.9391178" lon="17.6534328">
        <ele>35.7061</ele>
        <time>2013-04-14T10:21:25Z</time>
      </trkpt>
      <trkpt lat="59.9390948" lon="17.6533231">
        <ele>35.7061</ele>
        <time>2013-04-14T10:21:26Z</time>
      </trkpt>
      <trkpt lat="59.9390703" lon="17.6532143">
        <ele>35.7061</ele>
        <time>2013-04-14T10:21:27Z</time>
      </trkpt>
      <trkpt lat="59.9390445" lon="17.6531057">
        <ele>35.7061</ele>
        <time>2013-04-14T10:21:28Z</time>
      </trkpt>
      <trkpt lat="59.939018" lon="17.6529974">
        <ele>35.7061</ele>
        <time>2013-04-14T10:21:29Z</time>
      </trkpt>
      <trkpt lat="59.9389911" lon="17.6528896">
        <ele>35.7061</ele>
        <time>2013-04-14T10:21:30Z</time>
      </trkpt>
      <trkpt lat="59.9389638" lon="17.6527832">
        <ele>35.7061</ele>
        <time>2013-04-14T10:21:31Z</time>
      </trkpt>
      <trkpt lat="59.9389368" lon="17.652677">
        <ele>35.7061</ele>
        <time>2013-04-14T10:21:32Z</time>
      </trkpt>
      <trkpt lat="59.93891" lon="17.6525707">
        <ele>35.7061</ele>
        <time>2013-04-14T10:21:33Z</time>
      </trkpt>
      <trkpt lat="59.938882" lon="17.6524655">
        <ele>35.7061</ele>
        <time>2013-04-14T10:21:34Z</time>
      </trkpt>
      <trkpt lat="59.9388528" lon="17.6523613">
        <ele>35.2255</ele>
        <time>2013-04-14T10:21:35Z</time>
      </trkpt>
      <trkpt lat="59.9388224" lon="17.6522577">
        <ele>35.2255</ele>
        <time>2013-04-14T10:21:36Z</time>
      </trkpt>
      <trkpt lat="59.9387914" lon="17.6521541">
        <ele>35.2255</ele>
        <time>2013-04-14T10:21:37Z</time>
      </trkpt>
      <trkpt lat="59.9387612" lon="17.6520509">
        <ele>35.2255</ele>
        <time>2013-04-14T10:21:38Z</time>
      </trkpt>
      <trkpt lat="59.9387307" lon="17.6519489">
        <ele>35.2255</ele>
        <time>2013-04-14T10:21:39Z</time>
      </trkpt>
      <trkpt lat="59.9386995" lon="17.6518477">
        <ele>35.2255</ele>
        <time>2013-04-14T10:21:40Z</time>
      </trkpt>
      <trkpt lat="59.9386675" lon="17.6517468">
        <ele>35.2255</ele>
        <time>2013-04-14T10:21:41Z</time>
      </trkpt>
      <trkpt lat="59.9386359" lon="17.6516457">
        <ele>35.2255</ele>
        <time>2013-04-14T10:21:42Z</time>
      </trkpt>
      <trkpt lat="59.9386057" lon="17.6515442">
        <ele>35.2255</ele>
        <time>2013-04-14T10:21:43Z</time>
      </trkpt>
      <trkpt lat="59.9385756" lon="17.6514437">
        <ele>35.2255</ele>
        <time>2013-04-14T10:21:44Z</time>
      </trkpt>
      <trkpt lat="59.9385438" lon="17.6513454">
        <ele>34.7449</ele>
        <time>2013-04-14T10:21:45Z</time>
      </trkpt>
      <trkpt lat="59.9385104" lon="17.6512484">
        <ele>34.7449</ele>
        <time>2013-04-14T10:21:46Z</time>
      </trkpt>
      <trkpt lat="59.9384757" lon="17.6511517">
        <ele>34.7449</ele>
        <time>2013-04-14T10:21:47Z</time>
      </trkpt>
      <trkpt lat="59.9384384" lon="17.6510552">
        <ele>34.7449</ele>
        <time>2013-04-14T10:21:48Z</time>
      </trkpt>
      <trkpt lat="59.9383977" lon="17.6509626">
        <ele>34.7449</ele>
        <time>2013-04-14T10:21:49Z</time>
      </trkpt>
      <trkpt lat="59.938355" lon="17.6508749">
        <ele>34.7449</ele>
        <time>2013-04-14T10:21:50Z</time>
      </trkpt>
      <trkpt lat="59.9383122" lon="17.650787">
        <ele>34.7449</ele>
        <time>2013-04-14T10:21:51Z</time>
      </trkpt>
      <trkpt lat="59.9382717" lon="17.6506962">
        <ele>34.7449</ele>
        <time>2013-04-14T10:21:52Z</time>
      </trkpt>
      <trkpt lat="59.9382349" lon="17.650601">
        <ele>35.2255</ele>
        <time>2013-04-14T10:21:53Z</time>
      </trkpt>
      <trkpt lat="59.9381998" lon="17.6505026">
        <ele>35.2255</ele>
        <time>2013-04-14T10:21:54Z</time>
      </trkpt>
      <trkpt lat="59.9381656" lon="17.6504053">
        <ele>35.2255</ele>
        <time>2013-04-14T10:21:55Z</time>
      </trkpt>
      <trkpt lat="59.9381327" lon="17.6503074">
        <ele>35.2255</ele>
        <time>2013-04-14T10:21:56Z</time>
      </trkpt>
      <trkpt lat="59.9381007" lon="17.6502104">
        <ele>35.2255</ele>
        <time>2013-04-14T10:21:57Z</time>
      </trkpt>
      <trkpt lat="59.938068" lon="17.6501188">
        <ele>35.2255</ele>
        <time>2013-04-14T10:21:58Z</time>
      </trkpt>
      <trkpt lat="59.9380344" lon="17.6500331">
        <ele>35.2255</ele>
        <time>2013-04-14T10:21:59Z</time>
      </trkpt>
      <trkpt lat="59.9379998" lon="17.6499493">
        <ele>35.7061</ele>
        <time>2013-04-14T10:22:00Z</time>
      </trkpt>
      <trkpt lat="59.9379654" lon="17.649865">
        <ele>35.7061</ele>
        <time>2013-04-14T10:22:01Z</time>
      </trkpt>
      <trkpt lat="59.9379314" lon="17.6497817">
        <ele>35.7061</ele>
        <time>2013-04-14T10:22:02Z</time>
      </trkpt>
      <trkpt lat="59.9378978" lon="17.6497001">
        <ele>36.1868</ele>
        <time>2013-04-14T10:22:03Z</time>
      </trkpt>
      <trkpt lat="59.937865" lon="17.6496179">
        <ele>36.1868</ele>
        <time>2013-04-14T10:22:04Z</time>
      </trkpt>
      <trkpt lat="59.9378326" lon="17.6495343">
        <ele>36.1868</ele>
        <time>2013-04-14T10:22:05Z</time>
      </trkpt>
      <trkpt lat="59.9378041" lon="17.6494442">
        <ele>36.1868</ele>
        <time>2013-04-14T10:22:06Z</time>
      </trkpt>
      <trkpt lat="59.9377775" lon="17.6493512">
        <ele>36.6675</ele>
        <time>2013-04-14T10:22:07Z</time>
      </trkpt>
      <trkpt lat="59.9377454" lon="17.6492668">
        <ele>36.6675</ele>
        <time>2013-04-14T10:22:08Z</time>
      </trkpt>
      <trkpt lat="59.9377083" lon="17.6491906">
        <ele>37.1481</ele>
        <time>2013-04-14T10:22:09Z</time>
      </trkpt>
      <trkpt lat="59.9376719" lon="17.6491143">
        <ele>37.1481</ele>
        <time>2013-04-14T10:22:10Z</time>
      </trkpt>
      <trkpt lat="59.9376383" lon="17.6490342">
        <ele>37.1481</ele>
        <time>2013-04-14T10:22:11Z</time>
      </trkpt>
      <trkpt lat="59.9376098" lon="17.6489487">
        <ele>37.6287</ele>
        <time>2013-04-14T10:22:12Z</time>
      </trkpt>
      <trkpt lat="59.937588" lon="17.6488598">
        <ele>37.6287</ele>
        <time>2013-04-14T10:22:13Z</time>
      </trkpt>
      <trkpt lat="59.9375677" lon="17.6487735">
        <ele>38.1094</ele>
        <time>2013-04-14T10:22:14Z</time>
      </trkpt>
      <trkpt lat="59.9375427" lon="17.6486926">
        <ele>38.1094</ele>
        <time>2013-04-14T10:22:15Z</time>
      </trkpt>
      <trkpt lat="59.9375116" lon="17.6486164">
        <ele>38.1094</ele>
        <time>2013-04-14T10:22:16Z</time>
      </trkpt>
      <trkpt lat="59.9374744" lon="17.6485455">
        <ele>38.5901</ele>
        <time>2013-04-14T10:22:17Z</time>
      </trkpt>
      <trkpt lat="59.937432" lon="17.6484844">
        <ele>38.5901</ele>
        <time>2013-04-14T10:22:18Z</time>
      </trkpt>
      <trkpt lat="59.9373866" lon="17.6484306">
        <ele>38.5901</ele>
        <time>2013-04-14T10:22:19Z</time>
      </trkpt>
      <trkpt lat="59.9373408" lon="17.6483778">
        <ele>38.5901</ele>
        <time>2013-04-14T10:22:20Z</time>
      </trkpt>
      <trkpt lat="59.9372944" lon="17.6483225">
        <ele>38.5901</ele>
        <time>2013-04-14T10:22:21Z</time>
      </trkpt>
      <trkpt lat="59.9372487" lon="17.6482646">
        <ele>39.0707</ele>
        <time>2013-04-14T10:22:22Z</time>
      </trkpt>
      <trkpt lat="59.937204" lon="17.6482048">
        <ele>39.0707</ele>
        <time>2013-04-14T10:22:23Z</time>
      </trkpt>
      <trkpt lat="59.9371579" lon="17.6481452">
        <ele>39.0707</ele>
        <time>2013-04-14T10:22:24Z</time>
      </trkpt>
      <trkpt lat="59.9371125" lon="17.6480851">
        <ele>39.0707</ele>
        <time>2013-04-14T10:22:25Z</time>
      </trkpt>
      <trkpt lat="59.9370672" lon="17.6480249">
        <ele>39.0707</ele>
        <time>2013-04-14T10:22:26Z</time>
      </trkpt>
      <trkpt lat="59.9370209" lon="17.6479654">
        <ele>39.0707</ele>
        <time>2013-04-14T10:22:27Z</time>
      </trkpt>
      <trkpt lat="59.9369742" lon="17.647907">
        <ele>39.0707</ele>
        <time>2013-04-14T10:22:28Z</time>
      </trkpt>
      <trkpt lat="59.9369266" lon="17.6478492">
        <ele>39.0707</ele>
        <time>2013-04-14T10:22:29Z</time>
      </trkpt>
      <trkpt lat="59.9368783" lon="17.6477897">
        <ele>39.0707</ele>
        <time>2013-04-14T10:22:30Z</time>
      </trkpt>
      <trkpt lat="59.936829" lon="17.6477273">
        <ele>39.0707</ele>
        <time>2013-04-14T10:22:31Z</time>
      </trkpt>
      <trkpt lat="59.9367792" lon="17.6476634">
        <ele>39.0707</ele>
        <time>2013-04-14T10:22:32Z</time>
      </trkpt>
      <trkpt lat="59.936729" lon="17.6476001">
        <ele>39.0707</ele>
        <time>2013-04-14T10:22:33Z</time>
      </trkpt>
      <trkpt lat="59.9366784" lon="17.647537">
        <ele>39.5513</ele>
        <time>2013-04-14T10:22:34Z</time>
      </trkpt>
      <trkpt lat="59.9366267" lon="17.6474743">
        <ele>39.5513</ele>
        <time>2013-04-14T10:22:35Z</time>
      </trkpt>
      <trkpt lat="59.9365754" lon="17.647409">
        <ele>39.5513</ele>
        <time>2013-04-14T10:22:36Z</time>
      </trkpt>
      <trkpt lat="59.9365244" lon="17.6473434">
        <ele>39.5513</ele>
        <time>2013-04-14T10:22:37Z</time>
      </trkpt>
      <trkpt lat="59.9364738" lon="17.6472792">
        <ele>39.5513</ele>
        <time>2013-04-14T10:22:38Z</time>
      </trkpt>
      <trkpt lat="59.9364234" lon="17.6472169">
        <ele>39.5513</ele>
        <time>2013-04-14T10:22:39Z</time>
      </trkpt>
      <trkpt lat="59.9363731" lon="17.6471588">
        <ele>40.0321</ele>
        <time>2013-04-14T10:22:40Z</time>
      </trkpt>
      <trkpt lat="59.936328" lon="17.6470925">
        <ele>40.0321</ele>
        <time>2013-04-14T10:22:41Z</time>
      </trkpt>
      <trkpt lat="59.9362995" lon="17.6470034">
        <ele>40.0321</ele>
        <time>2013-04-14T10:22:42Z</time>
      </trkpt>
      <trkpt lat="59.9362754" lon="17.6469076">
        <ele>40.0321</ele>
        <time>2013-04-14T10:22:43Z</time>
      </trkpt>
      <trkpt lat="59.9362402" lon="17.6468306">
        <ele>40.0321</ele>
        <time>2013-04-14T10:22:44Z</time>
      </trkpt>
      <trkpt lat="59.9361985" lon="17.6467683">
        <ele>40.0321</ele>
        <time>2013-04-14T10:22:45Z</time>
      </trkpt>
      <trkpt lat="59.9361547" lon="17.6467091">
        <ele>40.0321</ele>
        <time>2013-04-14T10:22:46Z</time>
      </trkpt>
      <trkpt lat="59.9361107" lon="17.6466519">
        <ele>40.0321</ele>
        <time>2013-04-14T10:22:47Z</time>
      </trkpt>
      <trkpt lat="59.9360666" lon="17.6465961">
        <ele>40.0321</ele>
        <time>2013-04-14T10:22:48Z</time>
      </trkpt>
      <trkpt lat="59.9360231" lon="17.6465403">
        <ele>40.0321</ele>
        <time>2013-04-14T10:22:49Z</time>
      </trkpt>
      <trkpt lat="59.9359791" lon="17.6464844">
        <ele>40.0321</ele>
        <time>2013-04-14T10:22:50Z</time>
      </trkpt>
      <trkpt lat="59.9359339" lon="17.6464299">
        <ele>40.0321</ele>
        <time>2013-04-14T10:22:51Z</time>
      </trkpt>
      <trkpt lat="59.9358884" lon="17.6463747">
        <ele>40.0321</ele>
        <time>2013-04-14T10:22:52Z</time>
      </trkpt>
      <trkpt lat="59.9358437" lon="17.6463157">
        <ele>40.0321</ele>
        <time>2013-04-14T10:22:53Z</time>
      </trkpt>
      <trkpt lat="59.9357983" lon="17.6462581">
        <ele>39.5513</ele>
        <time>2013-04-14T10:22:54Z</time>
      </trkpt>
      <trkpt lat="59.9357521" lon="17.6461997">
        <ele>39.5513</ele>
        <time>2013-04-14T10:22:55Z</time>
      </trkpt>
      <trkpt lat="59.9357048" lon="17.6461396">
        <ele>39.5513</ele>
        <time>2013-04-14T10:22:56Z</time>
      </trkpt>
      <trkpt lat="59.9356561" lon="17.6460794">
        <ele>39.5513</ele>
        <time>2013-04-14T10:22:57Z</time>
      </trkpt>
      <trkpt lat="59.9356059" lon="17.6460198">
        <ele>39.0707</ele>
        <time>2013-04-14T10:22:58Z</time>
      </trkpt>
      <trkpt lat="59.9355547" lon="17.645959">
        <ele>39.0707</ele>
        <time>2013-04-14T10:22:59Z</time>
      </trkpt>
      <trkpt lat="59.9355021" lon="17.6458986">
        <ele>39.0707</ele>
        <time>2013-04-14T10:23:00Z</time>
      </trkpt>
      <trkpt lat="59.9354481" lon="17.6458425">
        <ele>39.0707</ele>
        <time>2013-04-14T10:23:01Z</time>
      </trkpt>
      <trkpt lat="59.935393" lon="17.6457897">
        <ele>38.5901</ele>
        <time>2013-04-14T10:23:02Z</time>
      </trkpt>
      <trkpt lat="59.9353372" lon="17.6457343">
        <ele>39.0707</ele>
        <time>2013-04-14T10:23:03Z</time>
      </trkpt>
      <trkpt lat="59.9352823" lon="17.6456734">
        <ele>39.0707</ele>
        <time>2013-04-14T10:23:04Z</time>
      </trkpt>
      <trkpt lat="59.9352283" lon="17.6456099">
        <ele>38.5901</ele>
        <time>2013-04-14T10:23:05Z</time>
      </trkpt>
      <trkpt lat="59.9351751" lon="17.645544">
        <ele>38.5901</ele>
        <time>2013-04-14T10:23:06Z</time>
      </trkpt>
      <trkpt lat="59.9351224" lon="17.6454757">
        <ele>38.5901</ele>
        <time>2013-04-14T10:23:07Z</time>
      </trkpt>
      <trkpt lat="59.9350688" lon="17.6454096">
        <ele>38.5901</ele>
        <time>2013-04-14T10:23:08Z</time>
      </trkpt>
      <trkpt lat="59.9350133" lon="17.6453454">
        <ele>38.5901</ele>
        <time>2013-04-14T10:23:09Z</time>
      </trkpt>
      <trkpt lat="59.9349581" lon="17.6452822">
        <ele>38.5901</ele>
        <time>2013-04-14T10:23:10Z</time>
      </trkpt>
      <trkpt lat="59.9349035" lon="17.6452199">
        <ele>38.5901</ele>
        <time>2013-04-14T10:23:11Z</time>
      </trkpt>
      <trkpt lat="59.9348483" lon="17.6451581">
        <ele>38.1094</ele>
        <time>2013-04-14T10:23:12Z</time>
      </trkpt>
      <trkpt lat="59.9347918" lon="17.6450947">
        <ele>38.1094</ele>
        <time>2013-04-14T10:23:13Z</time>
      </trkpt>
      <trkpt lat="59.9347364" lon="17.6450268">
        <ele>38.1094</ele>
        <time>2013-04-14T10:23:14Z</time>
      </trkpt>
      <trkpt lat="59.9346815" lon="17.6449567">
        <ele>38.1094</ele>
        <time>2013-04-14T10:23:15Z</time>
      </trkpt>
      <trkpt lat="59.9346256" lon="17.6448855">
        <ele>38.1094</ele>
        <time>2013-04-14T10:23:16Z</time>
      </trkpt>
      <trkpt lat="59.9345688" lon="17.6448126">
        <ele>37.6287</ele>
        <time>2013-04-14T10:23:17Z</time>
      </trkpt>
      <trkpt lat="59.9345142" lon="17.6447331">
        <ele>37.6287</ele>
        <time>2013-04-14T10:23:18Z</time>
      </trkpt>
      <trkpt lat="59.9344633" lon="17.6446454">
        <ele>37.1481</ele>
        <time>2013-04-14T10:23:19Z</time>
      </trkpt>
      <trkpt lat="59.9344116" lon="17.6445523">
        <ele>36.6675</ele>
        <time>2013-04-14T10:23:20Z</time>
      </trkpt>
      <trkpt lat="59.9343556" lon="17.6444589">
        <ele>36.1868</ele>
        <time>2013-04-14T10:23:21Z</time>
      </trkpt>
      <trkpt lat="59.9342949" lon="17.6443702">
        <ele>35.7061</ele>
        <time>2013-04-14T10:23:22Z</time>
      </trkpt>
      <trkpt lat="59.9342318" lon="17.6442859">
        <ele>35.7061</ele>
        <time>2013-04-14T10:23:23Z</time>
      </trkpt>
      <trkpt lat="59.9341686" lon="17.6442043">
        <ele>35.7061</ele>
        <time>2013-04-14T10:23:24Z</time>
      </trkpt>
      <trkpt lat="59.9341069" lon="17.6441249">
        <ele>35.2255</ele>
        <time>2013-04-14T10:23:25Z</time>
      </trkpt>
      <trkpt lat="59.9340451" lon="17.6440465">
        <ele>34.7449</ele>
        <time>2013-04-14T10:23:26Z</time>
      </trkpt>
      <trkpt lat="59.9339842" lon="17.6439679">
        <ele>34.7449</ele>
        <time>2013-04-14T10:23:27Z</time>
      </trkpt>
      <trkpt lat="59.9339221" lon="17.6438938">
        <ele>34.2642</ele>
        <time>2013-04-14T10:23:28Z</time>
      </trkpt>
      <trkpt lat="59.9338577" lon="17.6438294">
        <ele>34.2642</ele>
        <time>2013-04-14T10:23:29Z</time>
      </trkpt>
      <trkpt lat="59.9337926" lon="17.6437711">
        <ele>34.2642</ele>
        <time>2013-04-14T10:23:30Z</time>
      </trkpt>
      <trkpt lat="59.9337283" lon="17.6437109">
        <ele>33.7834</ele>
        <time>2013-04-14T10:23:31Z</time>
      </trkpt>
      <trkpt lat="59.9336649" lon="17.643645">
        <ele>33.7834</ele>
        <time>2013-04-14T10:23:32Z</time>
      </trkpt>
      <trkpt lat="59.9336009" lon="17.6435737">
        <ele>33.3029</ele>
        <time>2013-04-14T10:23:33Z</time>
      </trkpt>
      <trkpt lat="59.9335357" lon="17.6434981">
        <ele>32.8223</ele>
        <time>2013-04-14T10:23:34Z</time>
      </trkpt>
      <trkpt lat="59.9334698" lon="17.6434166">
        <ele>32.3416</ele>
        <time>2013-04-14T10:23:35Z</time>
      </trkpt>
      <trkpt lat="59.933404" lon="17.6433268">
        <ele>32.3416</ele>
        <time>2013-04-14T10:23:36Z</time>
      </trkpt>
      <trkpt lat="59.9333393" lon="17.6432267">
        <ele>31.3801</ele>
        <time>2013-04-14T10:23:37Z</time>
      </trkpt>
      <trkpt lat="59.9332743" lon="17.6431175">
        <ele>30.8995</ele>
        <time>2013-04-14T10:23:38Z</time>
      </trkpt>
      <trkpt lat="59.9332071" lon="17.6430064">
        <ele>29.9381</ele>
        <time>2013-04-14T10:23:39Z</time>
      </trkpt>
      <trkpt lat="59.9331356" lon="17.6429002">
        <ele>29.9381</ele>
        <time>2013-04-14T10:23:40Z</time>
      </trkpt>
      <trkpt lat="59.9330612" lon="17.6428015">
        <ele>29.4575</ele>
        <time>2013-04-14T10:23:41Z</time>
      </trkpt>
      <trkpt lat="59.9329876" lon="17.642708">
        <ele>28.9769</ele>
        <time>2013-04-14T10:23:42Z</time>
      </trkpt>
      <trkpt lat="59.9329161" lon="17.6426128">
        <ele>28.4962</ele>
        <time>2013-04-14T10:23:43Z</time>
      </trkpt>
      <trkpt lat="59.9328508" lon="17.6425086">
        <ele>28.0155</ele>
        <time>2013-04-14T10:23:44Z</time>
      </trkpt>
      <trkpt lat="59.9327898" lon="17.6423967">
        <ele>28.0155</ele>
        <time>2013-04-14T10:23:45Z</time>
      </trkpt>
      <trkpt lat="59.9327285" lon="17.6422886">
        <ele>27.5349</ele>
        <time>2013-04-14T10:23:46Z</time>
      </trkpt>
      <trkpt lat="59.9326622" lon="17.6421927">
        <ele>27.5349</ele>
        <time>2013-04-14T10:23:47Z</time>
      </trkpt>
      <trkpt lat="59.9325923" lon="17.6421084">
        <ele>27.0543</ele>
        <time>2013-04-14T10:23:48Z</time>
      </trkpt>
      <trkpt lat="59.9325237" lon="17.6420312">
        <ele>27.0543</ele>
        <time>2013-04-14T10:23:49Z</time>
      </trkpt>
      <trkpt lat="59.9324541" lon="17.6419594">
        <ele>26.5736</ele>
        <time>2013-04-14T10:23:50Z</time>
      </trkpt>
      <trkpt lat="59.9323842" lon="17.6418928">
        <ele>26.5736</ele>
        <time>2013-04-14T10:23:51Z</time>
      </trkpt>
      <trkpt lat="59.9323139" lon="17.6418306">
        <ele>26.0929</ele>
        <time>2013-04-14T10:23:52Z</time>
      </trkpt>
      <trkpt lat="59.9322451" lon="17.6417711">
        <ele>26.0929</ele>
        <time>2013-04-14T10:23:53Z</time>
      </trkpt>
      <trkpt lat="59.9321787" lon="17.6417097">
        <ele>26.0929</ele>
        <time>2013-04-14T10:23:54Z</time>
      </trkpt>
      <trkpt lat="59.9321162" lon="17.6416471">
        <ele>26.0929</ele>
        <time>2013-04-14T10:23:55Z</time>
      </trkpt>
      <trkpt lat="59.9320549" lon="17.6415906">
        <ele>26.0929</ele>
        <time>2013-04-14T10:23:56Z</time>
      </trkpt>
      <trkpt lat="59.931994" lon="17.6415426">
        <ele>25.6123</ele>
        <time>2013-04-14T10:23:57Z</time>
      </trkpt>
      <trkpt lat="59.9319304" lon="17.6414976">
        <ele>25.6123</ele>
        <time>2013-04-14T10:23:58Z</time>
      </trkpt>
      <trkpt lat="59.931865" lon="17.6414528">
        <ele>25.1317</ele>
        <time>2013-04-14T10:23:59Z</time>
      </trkpt>
      <trkpt lat="59.9317982" lon="17.641406">
        <ele>25.1317</ele>
        <time>2013-04-14T10:24:00Z</time>
      </trkpt>
      <trkpt lat="59.9317303" lon="17.6413572">
        <ele>25.1317</ele>
        <time>2013-04-14T10:24:01Z</time>
      </trkpt>
      <trkpt lat="59.931664" lon="17.6413085">
        <ele>25.1317</ele>
        <time>2013-04-14T10:24:02Z</time>
      </trkpt>
      <trkpt lat="59.9315991" lon="17.6412602">
        <ele>24.651</ele>
        <time>2013-04-14T10:24:03Z</time>
      </trkpt>
      <trkpt lat="59.9315351" lon="17.6412132">
        <ele>24.651</ele>
        <time>2013-04-14T10:24:04Z</time>
      </trkpt>
      <trkpt lat="59.9314711" lon="17.6411693">
        <ele>24.651</ele>
        <time>2013-04-14T10:24:05Z</time>
      </trkpt>
      <trkpt lat="59.931408" lon="17.6411276">
        <ele>24.651</ele>
        <time>2013-04-14T10:24:06Z</time>
      </trkpt>
      <trkpt lat="59.9313454" lon="17.641084">
        <ele>24.1703</ele>
        <time>2013-04-14T10:24:07Z</time>
      </trkpt>
      <trkpt lat="59.931281" lon="17.6410359">
        <ele>24.1703</ele>
        <time>2013-04-14T10:24:08Z</time>
      </trkpt>
      <trkpt lat="59.9312128" lon="17.6409856">
        <ele>23.209</ele>
        <time>2013-04-14T10:24:09Z</time>
      </trkpt>
      <trkpt lat="59.9311424" lon="17.6409327">
        <ele>22.7283</ele>
        <time>2013-04-14T10:24:10Z</time>
      </trkpt>
      <trkpt lat="59.9310695" lon="17.6408792">
        <ele>22.7283</ele>
        <time>2013-04-14T10:24:11Z</time>
      </trkpt>
      <trkpt lat="59.9309954" lon="17.6408313">
        <ele>22.2476</ele>
        <time>2013-04-14T10:24:12Z</time>
      </trkpt>
      <trkpt lat="59.9309208" lon="17.6407956">
        <ele>22.7283</ele>
        <time>2013-04-14T10:24:13Z</time>
      </trkpt>
      <trkpt lat="59.9308465" lon="17.6407754">
        <ele>22.7283</ele>
        <time>2013-04-14T10:24:14Z</time>
      </trkpt>
      <trkpt lat="59.9307739" lon="17.6407675">
        <ele>22.7283</ele>
        <time>2013-04-14T10:24:15Z</time>
      </trkpt>
      <trkpt lat="59.9307031" lon="17.6407687">
        <ele>22.7283</ele>
        <time>2013-04-14T10:24:16Z</time>
      </trkpt>
      <trkpt lat="59.9306327" lon="17.6407786">
        <ele>22.7283</ele>
        <time>2013-04-14T10:24:17Z</time>
      </trkpt>
      <trkpt lat="59.9305613" lon="17.6407923">
        <ele>22.7283</ele>
        <time>2013-04-14T10:24:18Z</time>
      </trkpt>
      <trkpt lat="59.9304887" lon="17.6408014">
        <ele>22.2476</ele>
        <time>2013-04-14T10:24:19Z</time>
      </trkpt>
      <trkpt lat="59.930415" lon="17.6408039">
        <ele>22.2476</ele>
        <time>2013-04-14T10:24:20Z</time>
      </trkpt>
      <trkpt lat="59.9303408" lon="17.6408023">
        <ele>22.2476</ele>
        <time>2013-04-14T10:24:21Z</time>
      </trkpt>
      <trkpt lat="59.9302668" lon="17.6407977">
        <ele>22.2476</ele>
        <time>2013-04-14T10:24:22Z</time>
      </trkpt>
      <trkpt lat="59.9301929" lon="17.6407949">
        <ele>22.2476</ele>
        <time>2013-04-14T10:24:23Z</time>
      </trkpt>
      <trkpt lat="59.9301196" lon="17.6407934">
        <ele>21.767</ele>
        <time>2013-04-14T10:24:24Z</time>
      </trkpt>
      <trkpt lat="59.9300474" lon="17.6407913">
        <ele>21.767</ele>
        <time>2013-04-14T10:24:25Z</time>
      </trkpt>
      <trkpt lat="59.929976" lon="17.6407894">
        <ele>21.767</ele>
        <time>2013-04-14T10:24:26Z</time>
      </trkpt>
      <trkpt lat="59.9299064" lon="17.6407908">
        <ele>22.2476</ele>
        <time>2013-04-14T10:24:27Z</time>
      </trkpt>
      <trkpt lat="59.9298396" lon="17.6407946">
        <ele>22.2476</ele>
        <time>2013-04-14T10:24:28Z</time>
      </trkpt>
      <trkpt lat="59.9297753" lon="17.640801">
        <ele>22.2476</ele>
        <time>2013-04-14T10:24:29Z</time>
      </trkpt>
      <trkpt lat="59.9297121" lon="17.6408125">
        <ele>22.2476</ele>
        <time>2013-04-14T10:24:30Z</time>
      </trkpt>
      <trkpt lat="59.929648" lon="17.6408287">
        <ele>22.2476</ele>
        <time>2013-04-14T10:24:31Z</time>
      </trkpt>
      <trkpt lat="59.9295827" lon="17.6408442">
        <ele>22.2476</ele>
        <time>2013-04-14T10:24:32Z</time>
      </trkpt>
      <trkpt lat="59.9295163" lon="17.6408563">
        <ele>22.2476</ele>
        <time>2013-04-14T10:24:33Z</time>
      </trkpt>
      <trkpt lat="59.9294495" lon="17.6408661">
        <ele>22.2476</ele>
        <time>2013-04-14T10:24:34Z</time>
      </trkpt>
      <trkpt lat="59.9293823" lon="17.640875">
        <ele>22.2476</ele>
        <time>2013-04-14T10:24:35Z</time>
      </trkpt>
      <trkpt lat="59.9293154" lon="17.640882">
        <ele>22.7283</ele>
        <time>2013-04-14T10:24:36Z</time>
      </trkpt>
      <trkpt lat="59.9292486" lon="17.6408846">
        <ele>22.7283</ele>
        <time>2013-04-14T10:24:37Z</time>
      </trkpt>
      <trkpt lat="59.9291817" lon="17.6408853">
        <ele>22.7283</ele>
        <time>2013-04-14T10:24:38Z</time>
      </trkpt>
      <trkpt lat="59.9291149" lon="17.6408872">
        <ele>22.7283</ele>
        <time>2013-04-14T10:24:39Z</time>
      </trkpt>
      <trkpt lat="59.9290489" lon="17.6408913">
        <ele>22.7283</ele>
        <time>2013-04-14T10:24:40Z</time>
      </trkpt>
      <trkpt lat="59.9289836" lon="17.6408976">
        <ele>22.7283</ele>
        <time>2013-04-14T10:24:41Z</time>
      </trkpt>
      <trkpt lat="59.9289186" lon="17.6409058">
        <ele>22.7283</ele>
        <time>2013-04-14T10:24:42Z</time>
      </trkpt>
      <trkpt lat="59.9288536" lon="17.6409157">
        <ele>22.7283</ele>
        <time>2013-04-14T10:24:43Z</time>
      </trkpt>
      <trkpt lat="59.928789" lon="17.6409303">
        <ele>22.7283</ele>
        <time>2013-04-14T10:24:44Z</time>
      </trkpt>
      <trkpt lat="59.9287249" lon="17.6409474">
        <ele>22.7283</ele>
        <time>2013-04-14T10:24:45Z</time>
      </trkpt>
      <trkpt lat="59.9286616" lon="17.6409625">
        <ele>22.7283</ele>
        <time>2013-04-14T10:24:46Z</time>
      </trkpt>
      <trkpt lat="59.9285988" lon="17.6409749">
        <ele>22.7283</ele>
        <time>2013-04-14T10:24:47Z</time>
      </trkpt>
      <trkpt lat="59.9285363" lon="17.6409874">
        <ele>22.7283</ele>
        <time>2013-04-14T10:24:48Z</time>
      </trkpt>
      <trkpt lat="59.9284736" lon="17.6409999">
        <ele>22.7283</ele>
        <time>2013-04-14T10:24:49Z</time>
      </trkpt>
      <trkpt lat="59.9284098" lon="17.6410105">
        <ele>22.7283</ele>
        <time>2013-04-14T10:24:50Z</time>
      </trkpt>
      <trkpt lat="59.9283449" lon="17.6410193">
        <ele>22.7283</ele>
        <time>2013-04-14T10:24:51Z</time>
      </trkpt>
      <trkpt lat="59.9282794" lon="17.6410282">
        <ele>22.7283</ele>
        <time>2013-04-14T10:24:52Z</time>
      </trkpt>
      <trkpt lat="59.9282136" lon="17.6410385">
        <ele>22.7283</ele>
        <time>2013-04-14T10:24:53Z</time>
      </trkpt>
      <trkpt lat="59.9281478" lon="17.6410484">
        <ele>22.7283</ele>
        <time>2013-04-14T10:24:54Z</time>
      </trkpt>
      <trkpt lat="59.9280826" lon="17.6410553">
        <ele>22.7283</ele>
        <time>2013-04-14T10:24:55Z</time>
      </trkpt>
      <trkpt lat="59.9280174" lon="17.6410602">
        <ele>22.7283</ele>
        <time>2013-04-14T10:24:56Z</time>
      </trkpt>
      <trkpt lat="59.9279521" lon="17.6410671">
        <ele>22.2476</ele>
        <time>2013-04-14T10:24:57Z</time>
      </trkpt>
      <trkpt lat="59.927887" lon="17.6410754">
        <ele>22.2476</ele>
        <time>2013-04-14T10:24:58Z</time>
      </trkpt>
      <trkpt lat="59.927822" lon="17.6410814">
        <ele>22.7283</ele>
        <time>2013-04-14T10:24:59Z</time>
      </trkpt>
      <trkpt lat="59.9277576" lon="17.6410882">
        <ele>22.7283</ele>
        <time>2013-04-14T10:25:00Z</time>
      </trkpt>
      <trkpt lat="59.9276935" lon="17.6410961">
        <ele>22.7283</ele>
        <time>2013-04-14T10:25:01Z</time>
      </trkpt>
      <trkpt lat="59.9276298" lon="17.6411032">
        <ele>22.7283</ele>
        <time>2013-04-14T10:25:02Z</time>
      </trkpt>
      <trkpt lat="59.927567" lon="17.6411106">
        <ele>22.7283</ele>
        <time>2013-04-14T10:25:03Z</time>
      </trkpt>
      <trkpt lat="59.9275047" lon="17.641118">
        <ele>22.7283</ele>
        <time>2013-04-14T10:25:04Z</time>
      </trkpt>
      <trkpt lat="59.9274427" lon="17.641124">
        <ele>22.7283</ele>
        <time>2013-04-14T10:25:05Z</time>
      </trkpt>
      <trkpt lat="59.9273812" lon="17.6411287">
        <ele>22.7283</ele>
        <time>2013-04-14T10:25:06Z</time>
      </trkpt>
      <trkpt lat="59.9273199" lon="17.6411339">
        <ele>22.7283</ele>
        <time>2013-04-14T10:25:07Z</time>
      </trkpt>
      <trkpt lat="59.9272582" lon="17.64114">
        <ele>22.7283</ele>
        <time>2013-04-14T10:25:08Z</time>
      </trkpt>
      <trkpt lat="59.9271957" lon="17.6411454">
        <ele>22.7283</ele>
        <time>2013-04-14T10:25:09Z</time>
      </trkpt>
      <trkpt lat="59.927133" lon="17.6411495">
        <ele>22.7283</ele>
        <time>2013-04-14T10:25:10Z</time>
      </trkpt>
      <trkpt lat="59.9270699" lon="17.6411539">
        <ele>22.7283</ele>
        <time>2013-04-14T10:25:11Z</time>
      </trkpt>
      <trkpt lat="59.9270067" lon="17.6411596">
        <ele>22.7283</ele>
        <time>2013-04-14T10:25:12Z</time>
      </trkpt>
      <trkpt lat="59.9269434" lon="17.641166">
        <ele>23.209</ele>
        <time>2013-04-14T10:25:13Z</time>
      </trkpt>
      <trkpt lat="59.9268802" lon="17.6411737">
        <ele>23.209</ele>
        <time>2013-04-14T10:25:14Z</time>
      </trkpt>
      <trkpt lat="59.9268179" lon="17.6411829">
        <ele>23.209</ele>
        <time>2013-04-14T10:25:15Z</time>
      </trkpt>
      <trkpt lat="59.9267559" lon="17.6411903">
        <ele>23.209</ele>
        <time>2013-04-14T10:25:16Z</time>
      </trkpt>
      <trkpt lat="59.9266942" lon="17.6411962">
        <ele>23.209</ele>
        <time>2013-04-14T10:25:17Z</time>
      </trkpt>
      <trkpt lat="59.9266324" lon="17.6412033">
        <ele>23.209</ele>
        <time>2013-04-14T10:25:18Z</time>
      </trkpt>
      <trkpt lat="59.9265699" lon="17.641211">
        <ele>23.209</ele>
        <time>2013-04-14T10:25:19Z</time>
      </trkpt>
      <trkpt lat="59.9265072" lon="17.6412174">
        <ele>23.209</ele>
        <time>2013-04-14T10:25:20Z</time>
      </trkpt>
      <trkpt lat="59.9264441" lon="17.641223">
        <ele>23.209</ele>
        <time>2013-04-14T10:25:21Z</time>
      </trkpt>
      <trkpt lat="59.9263807" lon="17.6412296">
        <ele>23.209</ele>
        <time>2013-04-14T10:25:22Z</time>
      </trkpt>
      <trkpt lat="59.9263169" lon="17.6412387">
        <ele>23.209</ele>
        <time>2013-04-14T10:25:23Z</time>
      </trkpt>
      <trkpt lat="59.9262529" lon="17.6412499">
        <ele>23.209</ele>
        <time>2013-04-14T10:25:24Z</time>
      </trkpt>
      <trkpt lat="59.9261892" lon="17.6412596">
        <ele>23.209</ele>
        <time>2013-04-14T10:25:25Z</time>
      </trkpt>
      <trkpt lat="59.9261255" lon="17.6412684">
        <ele>23.6896</ele>
        <time>2013-04-14T10:25:26Z</time>
      </trkpt>
      <trkpt lat="59.9260621" lon="17.6412774">
        <ele>23.6896</ele>
        <time>2013-04-14T10:25:27Z</time>
      </trkpt>
      <trkpt lat="59.9259989" lon="17.6412855">
        <ele>23.6896</ele>
        <time>2013-04-14T10:25:28Z</time>
      </trkpt>
      <trkpt lat="59.9259359" lon="17.6412927">
        <ele>23.6896</ele>
        <time>2013-04-14T10:25:29Z</time>
      </trkpt>
      <trkpt lat="59.9258732" lon="17.6413008">
        <ele>23.6896</ele>
        <time>2013-04-14T10:25:30Z</time>
      </trkpt>
      <trkpt lat="59.9258109" lon="17.6413101">
        <ele>23.6896</ele>
        <time>2013-04-14T10:25:31Z</time>
      </trkpt>
      <trkpt lat="59.925749" lon="17.6413195">
        <ele>24.1703</ele>
        <time>2013-04-14T10:25:32Z</time>
      </trkpt>
      <trkpt lat="59.9256882" lon="17.6413286">
        <ele>24.1703</ele>
        <time>2013-04-14T10:25:33Z</time>
      </trkpt>
      <trkpt lat="59.9256282" lon="17.6413385">
        <ele>24.1703</ele>
        <time>2013-04-14T10:25:34Z</time>
      </trkpt>
      <trkpt lat="59.925569" lon="17.6413484">
        <ele>24.1703</ele>
        <time>2013-04-14T10:25:35Z</time>
      </trkpt>
      <trkpt lat="59.9255106" lon="17.6413561">
        <ele>24.1703</ele>
        <time>2013-04-14T10:25:36Z</time>
      </trkpt>
      <trkpt lat="59.9254527" lon="17.6413619">
        <ele>24.651</ele>
        <time>2013-04-14T10:25:37Z</time>
      </trkpt>
      <trkpt lat="59.9253959" lon="17.6413676">
        <ele>24.651</ele>
        <time>2013-04-14T10:25:38Z</time>
      </trkpt>
      <trkpt lat="59.9253401" lon="17.6413762">
        <ele>24.651</ele>
        <time>2013-04-14T10:25:39Z</time>
      </trkpt>
      <trkpt lat="59.9252853" lon="17.6413871">
        <ele>24.651</ele>
        <time>2013-04-14T10:25:40Z</time>
      </trkpt>
      <trkpt lat="59.9252305" lon="17.6413946">
        <ele>24.651</ele>
        <time>2013-04-14T10:25:41Z</time>
      </trkpt>
      <trkpt lat="59.9251758" lon="17.6413945">
        <ele>25.1317</ele>
        <time>2013-04-14T10:25:42Z</time>
      </trkpt>
      <trkpt lat="59.9251208" lon="17.6413892">
        <ele>25.1317</ele>
        <time>2013-04-14T10:25:43Z</time>
      </trkpt>
      <trkpt lat="59.9250656" lon="17.6413858">
        <ele>25.1317</ele>
        <time>2013-04-14T10:25:44Z</time>
      </trkpt>
      <trkpt lat="59.9250107" lon="17.6413857">
        <ele>25.1317</ele>
        <time>2013-04-14T10:25:45Z</time>
      </trkpt>
      <trkpt lat="59.9249558" lon="17.641387">
        <ele>25.1317</ele>
        <time>2013-04-14T10:25:46Z</time>
      </trkpt>
      <trkpt lat="59.9249013" lon="17.6413924">
        <ele>25.1317</ele>
        <time>2013-04-14T10:25:47Z</time>
      </trkpt>
      <trkpt lat="59.9248466" lon="17.6414018">
        <ele>25.1317</ele>
        <time>2013-04-14T10:25:48Z</time>
      </trkpt>
      <trkpt lat="59.924792" lon="17.6414109">
        <ele>25.6123</ele>
        <time>2013-04-14T10:25:49Z</time>
      </trkpt>
      <trkpt lat="59.9247371" lon="17.6414195">
        <ele>25.6123</ele>
        <time>2013-04-14T10:25:50Z</time>
      </trkpt>
      <trkpt lat="59.9246818" lon="17.6414313">
        <ele>25.6123</ele>
        <time>2013-04-14T10:25:51Z</time>
      </trkpt>
      <trkpt lat="59.9246264" lon="17.6414474">
        <ele>25.6123</ele>
        <time>2013-04-14T10:25:52Z</time>
      </trkpt>
      <trkpt lat="59.9245705" lon="17.6414635">
        <ele>25.6123</ele>
        <time>2013-04-14T10:25:53Z</time>
      </trkpt>
      <trkpt lat="59.924514" lon="17.6414766">
        <ele>25.6123</ele>
        <time>2013-04-14T10:25:54Z</time>
      </trkpt>
      <trkpt lat="59.9244576" lon="17.6414862">
        <ele>25.6123</ele>
        <time>2013-04-14T10:25:55Z</time>
      </trkpt>
      <trkpt lat="59.9244011" lon="17.6414929">
        <ele>25.6123</ele>
        <time>2013-04-14T10:25:56Z</time>
      </trkpt>
      <trkpt lat="59.9243447" lon="17.6414968">
        <ele>25.6123</ele>
        <time>2013-04-14T10:25:57Z</time>
      </trkpt>
      <trkpt lat="59.9242885" lon="17.6414987">
        <ele>25.6123</ele>
        <time>2013-04-14T10:25:58Z</time>
      </trkpt>
      <trkpt lat="59.9242317" lon="17.6415002">
        <ele>25.6123</ele>
        <time>2013-04-14T10:25:59Z</time>
      </trkpt>
      <trkpt lat="59.9241746" lon="17.6415022">
        <ele>25.6123</ele>
        <time>2013-04-14T10:26:00Z</time>
      </trkpt>
      <trkpt lat="59.9241176" lon="17.6415053">
        <ele>25.6123</ele>
        <time>2013-04-14T10:26:01Z</time>
      </trkpt>
      <trkpt lat="59.9240605" lon="17.6415101">
        <ele>25.6123</ele>
        <time>2013-04-14T10:26:02Z</time>
      </trkpt>
      <trkpt lat="59.9240035" lon="17.6415168">
        <ele>25.6123</ele>
        <time>2013-04-14T10:26:03Z</time>
      </trkpt>
      <trkpt lat="59.9239465" lon="17.6415241">
        <ele>25.6123</ele>
        <time>2013-04-14T10:26:04Z</time>
      </trkpt>
      <trkpt lat="59.9238895" lon="17.6415312">
        <ele>25.6123</ele>
        <time>2013-04-14T10:26:05Z</time>
      </trkpt>
      <trkpt lat="59.9238313" lon="17.6415398">
        <ele>25.6123</ele>
        <time>2013-04-14T10:26:06Z</time>
      </trkpt>
      <trkpt lat="59.9237737" lon="17.6415488">
        <ele>25.6123</ele>
        <time>2013-04-14T10:26:07Z</time>
      </trkpt>
      <trkpt lat="59.923717" lon="17.6415577">
        <ele>25.6123</ele>
        <time>2013-04-14T10:26:08Z</time>
      </trkpt>
      <trkpt lat="59.9236626" lon="17.6415649">
        <ele>25.6123</ele>
        <time>2013-04-14T10:26:09Z</time>
      </trkpt>
      <trkpt lat="59.9236105" lon="17.6415717">
        <ele>25.6123</ele>
        <time>2013-04-14T10:26:10Z</time>
      </trkpt>
      <trkpt lat="59.9235603" lon="17.6415792">
        <ele>25.6123</ele>
        <time>2013-04-14T10:26:11Z</time>
      </trkpt>
      <trkpt lat="59.9235114" lon="17.6415845">
        <ele>25.6123</ele>
        <time>2013-04-14T10:26:12Z</time>
      </trkpt>
      <trkpt lat="59.9234634" lon="17.6415903">
        <ele>25.6123</ele>
        <time>2013-04-14T10:26:13Z</time>
      </trkpt>
      <trkpt lat="59.9234163" lon="17.6415995">
        <ele>25.6123</ele>
        <time>2013-04-14T10:26:14Z</time>
      </trkpt>
      <trkpt lat="59.9233698" lon="17.6416096">
        <ele>25.6123</ele>
        <time>2013-04-14T10:26:15Z</time>
      </trkpt>
      <trkpt lat="59.9233241" lon="17.6416184">
        <ele>25.6123</ele>
        <time>2013-04-14T10:26:16Z</time>
      </trkpt>
      <trkpt lat="59.9232785" lon="17.6416251">
        <ele>26.0929</ele>
        <time>2013-04-14T10:26:17Z</time>
      </trkpt>
      <trkpt lat="59.9232324" lon="17.6416308">
        <ele>26.0929</ele>
        <time>2013-04-14T10:26:18Z</time>
      </trkpt>
      <trkpt lat="59.9231858" lon="17.6416388">
        <ele>26.0929</ele>
        <time>2013-04-14T10:26:19Z</time>
      </trkpt>
      <trkpt lat="59.9231391" lon="17.6416479">
        <ele>26.0929</ele>
        <time>2013-04-14T10:26:20Z</time>
      </trkpt>
      <trkpt lat="59.9230921" lon="17.6416559">
        <ele>26.0929</ele>
        <time>2013-04-14T10:26:21Z</time>
      </trkpt>
      <trkpt lat="59.9230448" lon="17.6416623">
        <ele>26.0929</ele>
        <time>2013-04-14T10:26:22Z</time>
      </trkpt>
      <trkpt lat="59.9229977" lon="17.6416674">
        <ele>26.0929</ele>
        <time>2013-04-14T10:26:23Z</time>
      </trkpt>
      <trkpt lat="59.9229514" lon="17.6416714">
        <ele>26.0929</ele>
        <time>2013-04-14T10:26:24Z</time>
      </trkpt>
      <trkpt lat="59.9229058" lon="17.6416747">
        <ele>26.0929</ele>
        <time>2013-04-14T10:26:25Z</time>
      </trkpt>
      <trkpt lat="59.922861" lon="17.6416779">
        <ele>26.0929</ele>
        <time>2013-04-14T10:26:26Z</time>
      </trkpt>
      <trkpt lat="59.922817" lon="17.6416818">
        <ele>26.0929</ele>
        <time>2013-04-14T10:26:27Z</time>
      </trkpt>
      <trkpt lat="59.9227737" lon="17.641686">
        <ele>26.0929</ele>
        <time>2013-04-14T10:26:28Z</time>
      </trkpt>
      <trkpt lat="59.9227307" lon="17.6416918">
        <ele>26.0929</ele>
        <time>2013-04-14T10:26:29Z</time>
      </trkpt>
      <trkpt lat="59.9226881" lon="17.6416987">
        <ele>26.5736</ele>
        <time>2013-04-14T10:26:30Z</time>
      </trkpt>
      <trkpt lat="59.9226444" lon="17.6417054">
        <ele>26.5736</ele>
        <time>2013-04-14T10:26:31Z</time>
      </trkpt>
      <trkpt lat="59.9225999" lon="17.6417141">
        <ele>26.5736</ele>
        <time>2013-04-14T10:26:32Z</time>
      </trkpt>
      <trkpt lat="59.9225548" lon="17.6417222">
        <ele>26.5736</ele>
        <time>2013-04-14T10:26:33Z</time>
      </trkpt>
      <trkpt lat="59.922509" lon="17.6417291">
        <ele>26.5736</ele>
        <time>2013-04-14T10:26:34Z</time>
      </trkpt>
      <trkpt lat="59.9224626" lon="17.6417351">
        <ele>26.5736</ele>
        <time>2013-04-14T10:26:35Z</time>
      </trkpt>
      <trkpt lat="59.9224158" lon="17.6417411">
        <ele>26.5736</ele>
        <time>2013-04-14T10:26:36Z</time>
      </trkpt>
      <trkpt lat="59.9223683" lon="17.6417479">
        <ele>26.5736</ele>
        <time>2013-04-14T10:26:37Z</time>
      </trkpt>
      <trkpt lat="59.9223207" lon="17.6417512">
        <ele>26.5736</ele>
        <time>2013-04-14T10:26:38Z</time>
      </trkpt>
      <trkpt lat="59.9222725" lon="17.6417509">
        <ele>26.5736</ele>
        <time>2013-04-14T10:26:39Z</time>
      </trkpt>
      <trkpt lat="59.9222234" lon="17.6417533">
        <ele>26.5736</ele>
        <time>2013-04-14T10:26:40Z</time>
      </trkpt>
      <trkpt lat="59.9221739" lon="17.6417584">
        <ele>26.5736</ele>
        <time>2013-04-14T10:26:41Z</time>
      </trkpt>
      <trkpt lat="59.9221238" lon="17.6417643">
        <ele>26.5736</ele>
        <time>2013-04-14T10:26:42Z</time>
      </trkpt>
      <trkpt lat="59.9220731" lon="17.6417701">
        <ele>26.5736</ele>
        <time>2013-04-14T10:26:43Z</time>
      </trkpt>
      <trkpt lat="59.9220222" lon="17.6417751">
        <ele>26.5736</ele>
        <time>2013-04-14T10:26:44Z</time>
      </trkpt>
      <trkpt lat="59.9219714" lon="17.6417812">
        <ele>26.5736</ele>
        <time>2013-04-14T10:26:45Z</time>
      </trkpt>
      <trkpt lat="59.9219208" lon="17.6417886">
        <ele>27.0543</ele>
        <time>2013-04-14T10:26:46Z</time>
      </trkpt>
      <trkpt lat="59.92187" lon="17.6417958">
        <ele>27.0543</ele>
        <time>2013-04-14T10:26:47Z</time>
      </trkpt>
      <trkpt lat="59.9218192" lon="17.641804">
        <ele>27.0543</ele>
        <time>2013-04-14T10:26:48Z</time>
      </trkpt>
      <trkpt lat="59.921768" lon="17.6418133">
        <ele>27.0543</ele>
        <time>2013-04-14T10:26:49Z</time>
      </trkpt>
      <trkpt lat="59.9217168" lon="17.6418239">
        <ele>27.0543</ele>
        <time>2013-04-14T10:26:50Z</time>
      </trkpt>
      <trkpt lat="59.9216657" lon="17.6418353">
        <ele>27.0543</ele>
        <time>2013-04-14T10:26:51Z</time>
      </trkpt>
      <trkpt lat="59.9216146" lon="17.6418457">
        <ele>27.0543</ele>
        <time>2013-04-14T10:26:52Z</time>
      </trkpt>
      <trkpt lat="59.9215619" lon="17.6418496">
        <ele>27.0543</ele>
        <time>2013-04-14T10:26:53Z</time>
      </trkpt>
      <trkpt lat="59.9215099" lon="17.6418522">
        <ele>27.0543</ele>
        <time>2013-04-14T10:26:54Z</time>
      </trkpt>
      <trkpt lat="59.9214582" lon="17.6418571">
        <ele>27.0543</ele>
        <time>2013-04-14T10:26:55Z</time>
      </trkpt>
      <trkpt lat="59.9214072" lon="17.6418626">
        <ele>26.5736</ele>
        <time>2013-04-14T10:26:56Z</time>
      </trkpt>
      <trkpt lat="59.9213557" lon="17.6418685">
        <ele>26.5736</ele>
        <time>2013-04-14T10:26:57Z</time>
      </trkpt>
      <trkpt lat="59.9213018" lon="17.6418736">
        <ele>26.5736</ele>
        <time>2013-04-14T10:26:58Z</time>
      </trkpt>
      <trkpt lat="59.9212457" lon="17.6418793">
        <ele>26.0929</ele>
        <time>2013-04-14T10:26:59Z</time>
      </trkpt>
      <trkpt lat="59.9211881" lon="17.641884">
        <ele>25.6123</ele>
        <time>2013-04-14T10:27:00Z</time>
      </trkpt>
      <trkpt lat="59.9211287" lon="17.6418902">
        <ele>25.6123</ele>
        <time>2013-04-14T10:27:01Z</time>
      </trkpt>
      <trkpt lat="59.9210688" lon="17.6419006">
        <ele>25.1317</ele>
        <time>2013-04-14T10:27:02Z</time>
      </trkpt>
      <trkpt lat="59.9210089" lon="17.6419103">
        <ele>25.1317</ele>
        <time>2013-04-14T10:27:03Z</time>
      </trkpt>
      <trkpt lat="59.920949" lon="17.641915">
        <ele>25.1317</ele>
        <time>2013-04-14T10:27:04Z</time>
      </trkpt>
      <trkpt lat="59.9208893" lon="17.6419198">
        <ele>25.1317</ele>
        <time>2013-04-14T10:27:05Z</time>
      </trkpt>
      <trkpt lat="59.9208287" lon="17.6419206">
        <ele>25.1317</ele>
        <time>2013-04-14T10:27:06Z</time>
      </trkpt>
      <trkpt lat="59.9207682" lon="17.6419176">
        <ele>24.651</ele>
        <time>2013-04-14T10:27:07Z</time>
      </trkpt>
      <trkpt lat="59.9207074" lon="17.6419151">
        <ele>24.651</ele>
        <time>2013-04-14T10:27:08Z</time>
      </trkpt>
      <trkpt lat="59.9206454" lon="17.6419133">
        <ele>24.651</ele>
        <time>2013-04-14T10:27:09Z</time>
      </trkpt>
      <trkpt lat="59.9205822" lon="17.6419128">
        <ele>24.651</ele>
        <time>2013-04-14T10:27:10Z</time>
      </trkpt>
      <trkpt lat="59.9205186" lon="17.6419135">
        <ele>24.651</ele>
        <time>2013-04-14T10:27:11Z</time>
      </trkpt>
      <trkpt lat="59.9204551" lon="17.6419138">
        <ele>24.651</ele>
        <time>2013-04-14T10:27:12Z</time>
      </trkpt>
      <trkpt lat="59.9203919" lon="17.6419164">
        <ele>25.1317</ele>
        <time>2013-04-14T10:27:13Z</time>
      </trkpt>
      <trkpt lat="59.9203291" lon="17.6419202">
        <ele>25.1317</ele>
        <time>2013-04-14T10:27:14Z</time>
      </trkpt>
      <trkpt lat="59.9202671" lon="17.6419223">
        <ele>25.1317</ele>
        <time>2013-04-14T10:27:15Z</time>
      </trkpt>
      <trkpt lat="59.9202067" lon="17.6419234">
        <ele>25.1317</ele>
        <time>2013-04-14T10:27:16Z</time>
      </trkpt>
      <trkpt lat="59.920148" lon="17.6419242">
        <ele>25.6123</ele>
        <time>2013-04-14T10:27:17Z</time>
      </trkpt>
      <trkpt lat="59.9200892" lon="17.6419259">
        <ele>25.1317</ele>
        <time>2013-04-14T10:27:18Z</time>
      </trkpt>
      <trkpt lat="59.920029" lon="17.6419307">
        <ele>25.1317</ele>
        <time>2013-04-14T10:27:19Z</time>
      </trkpt>
      <trkpt lat="59.9199677" lon="17.6419375">
        <ele>25.6123</ele>
        <time>2013-04-14T10:27:20Z</time>
      </trkpt>
      <trkpt lat="59.919906" lon="17.6419456">
        <ele>25.6123</ele>
        <time>2013-04-14T10:27:21Z</time>
      </trkpt>
      <trkpt lat="59.919845" lon="17.6419585">
        <ele>25.6123</ele>
        <time>2013-04-14T10:27:22Z</time>
      </trkpt>
      <trkpt lat="59.9197851" lon="17.6419767">
        <ele>25.6123</ele>
        <time>2013-04-14T10:27:23Z</time>
      </trkpt>
      <trkpt lat="59.9197263" lon="17.641995">
        <ele>25.6123</ele>
        <time>2013-04-14T10:27:24Z</time>
      </trkpt>
      <trkpt lat="59.9196676" lon="17.6420095">
        <ele>25.6123</ele>
        <time>2013-04-14T10:27:25Z</time>
      </trkpt>
      <trkpt lat="59.9196094" lon="17.6420202">
        <ele>25.6123</ele>
        <time>2013-04-14T10:27:26Z</time>
      </trkpt>
      <trkpt lat="59.9195514" lon="17.642028">
        <ele>25.6123</ele>
        <time>2013-04-14T10:27:27Z</time>
      </trkpt>
      <trkpt lat="59.9194934" lon="17.6420345">
        <ele>26.0929</ele>
        <time>2013-04-14T10:27:28Z</time>
      </trkpt>
      <trkpt lat="59.9194354" lon="17.6420392">
        <ele>26.0929</ele>
        <time>2013-04-14T10:27:29Z</time>
      </trkpt>
      <trkpt lat="59.9193775" lon="17.6420445">
        <ele>26.0929</ele>
        <time>2013-04-14T10:27:30Z</time>
      </trkpt>
      <trkpt lat="59.9193199" lon="17.6420521">
        <ele>26.0929</ele>
        <time>2013-04-14T10:27:31Z</time>
      </trkpt>
      <trkpt lat="59.9192618" lon="17.6420596">
        <ele>26.0929</ele>
        <time>2013-04-14T10:27:32Z</time>
      </trkpt>
      <trkpt lat="59.9192038" lon="17.6420659">
        <ele>26.0929</ele>
        <time>2013-04-14T10:27:33Z</time>
      </trkpt>
      <trkpt lat="59.9191458" lon="17.6420704">
        <ele>26.0929</ele>
        <time>2013-04-14T10:27:34Z</time>
      </trkpt>
      <trkpt lat="59.9190882" lon="17.6420763">
        <ele>26.0929</ele>
        <time>2013-04-14T10:27:35Z</time>
      </trkpt>
      <trkpt lat="59.9190303" lon="17.6420848">
        <ele>26.5736</ele>
        <time>2013-04-14T10:27:36Z</time>
      </trkpt>
      <trkpt lat="59.9189718" lon="17.6420927">
        <ele>26.0929</ele>
        <time>2013-04-14T10:27:37Z</time>
      </trkpt>
      <trkpt lat="59.9189122" lon="17.6420999">
        <ele>26.0929</ele>
        <time>2013-04-14T10:27:38Z</time>
      </trkpt>
      <trkpt lat="59.9188516" lon="17.6421072">
        <ele>26.0929</ele>
        <time>2013-04-14T10:27:39Z</time>
      </trkpt>
      <trkpt lat="59.9187903" lon="17.6421151">
        <ele>26.0929</ele>
        <time>2013-04-14T10:27:40Z</time>
      </trkpt>
      <trkpt lat="59.9187282" lon="17.6421241">
        <ele>26.0929</ele>
        <time>2013-04-14T10:27:41Z</time>
      </trkpt>
      <trkpt lat="59.9186664" lon="17.642133">
        <ele>26.0929</ele>
        <time>2013-04-14T10:27:42Z</time>
      </trkpt>
      <trkpt lat="59.918605" lon="17.6421412">
        <ele>26.0929</ele>
        <time>2013-04-14T10:27:43Z</time>
      </trkpt>
      <trkpt lat="59.9185438" lon="17.6421497">
        <ele>26.0929</ele>
        <time>2013-04-14T10:27:44Z</time>
      </trkpt>
      <trkpt lat="59.9184821" lon="17.6421585">
        <ele>26.0929</ele>
        <time>2013-04-14T10:27:45Z</time>
      </trkpt>
      <trkpt lat="59.9184196" lon="17.6421669">
        <ele>26.0929</ele>
        <time>2013-04-14T10:27:46Z</time>
      </trkpt>
      <trkpt lat="59.9183549" lon="17.6421757">
        <ele>25.6123</ele>
        <time>2013-04-14T10:27:47Z</time>
      </trkpt>
      <trkpt lat="59.9182894" lon="17.6421881">
        <ele>25.6123</ele>
        <time>2013-04-14T10:27:48Z</time>
      </trkpt>
      <trkpt lat="59.9182227" lon="17.6422">
        <ele>25.1317</ele>
        <time>2013-04-14T10:27:49Z</time>
      </trkpt>
      <trkpt lat="59.9181546" lon="17.6422067">
        <ele>25.1317</ele>
        <time>2013-04-14T10:27:50Z</time>
      </trkpt>
      <trkpt lat="59.9180847" lon="17.6422107">
        <ele>24.651</ele>
        <time>2013-04-14T10:27:51Z</time>
      </trkpt>
      <trkpt lat="59.9180129" lon="17.642216">
        <ele>24.1703</ele>
        <time>2013-04-14T10:27:52Z</time>
      </trkpt>
      <trkpt lat="59.9179394" lon="17.6422239">
        <ele>23.6896</ele>
        <time>2013-04-14T10:27:53Z</time>
      </trkpt>
      <trkpt lat="59.9178649" lon="17.6422317">
        <ele>23.6896</ele>
        <time>2013-04-14T10:27:54Z</time>
      </trkpt>
      <trkpt lat="59.9177901" lon="17.6422376">
        <ele>23.6896</ele>
        <time>2013-04-14T10:27:55Z</time>
      </trkpt>
      <trkpt lat="59.917715" lon="17.6422425">
        <ele>23.209</ele>
        <time>2013-04-14T10:27:56Z</time>
      </trkpt>
      <trkpt lat="59.9176397" lon="17.6422457">
        <ele>23.209</ele>
        <time>2013-04-14T10:27:57Z</time>
      </trkpt>
      <trkpt lat="59.9175646" lon="17.6422456">
        <ele>22.7283</ele>
        <time>2013-04-14T10:27:58Z</time>
      </trkpt>
      <trkpt lat="59.91749" lon="17.6422449">
        <ele>22.7283</ele>
        <time>2013-04-14T10:27:59Z</time>
      </trkpt>
      <trkpt lat="59.9174158" lon="17.6422474">
        <ele>22.7283</ele>
        <time>2013-04-14T10:28:00Z</time>
      </trkpt>
      <trkpt lat="59.9173422" lon="17.6422506">
        <ele>22.2476</ele>
        <time>2013-04-14T10:28:01Z</time>
      </trkpt>
      <trkpt lat="59.917269" lon="17.6422487">
        <ele>22.2476</ele>
        <time>2013-04-14T10:28:02Z</time>
      </trkpt>
      <trkpt lat="59.917196" lon="17.6422435">
        <ele>22.2476</ele>
        <time>2013-04-14T10:28:03Z</time>
      </trkpt>
      <trkpt lat="59.9171243" lon="17.6422486">
        <ele>22.2476</ele>
        <time>2013-04-14T10:28:04Z</time>
      </trkpt>
      <trkpt lat="59.9170547" lon="17.64227">
        <ele>22.2476</ele>
        <time>2013-04-14T10:28:05Z</time>
      </trkpt>
      <trkpt lat="59.9169874" lon="17.6422948">
        <ele>22.2476</ele>
        <time>2013-04-14T10:28:06Z</time>
      </trkpt>
      <trkpt lat="59.9169214" lon="17.6423111">
        <ele>22.2476</ele>
        <time>2013-04-14T10:28:07Z</time>
      </trkpt>
      <trkpt lat="59.9168567" lon="17.6423222">
        <ele>22.2476</ele>
        <time>2013-04-14T10:28:08Z</time>
      </trkpt>
      <trkpt lat="59.9167931" lon="17.6423326">
        <ele>22.2476</ele>
        <time>2013-04-14T10:28:09Z</time>
      </trkpt>
      <trkpt lat="59.9167307" lon="17.6423419">
        <ele>22.2476</ele>
        <time>2013-04-14T10:28:10Z</time>
      </trkpt>
      <trkpt lat="59.9166692" lon="17.6423502">
        <ele>22.7283</ele>
        <time>2013-04-14T10:28:11Z</time>
      </trkpt>
      <trkpt lat="59.9166091" lon="17.642358">
        <ele>22.7283</ele>
        <time>2013-04-14T10:28:12Z</time>
      </trkpt>
      <trkpt lat="59.9165501" lon="17.6423636">
        <ele>22.7283</ele>
        <time>2013-04-14T10:28:13Z</time>
      </trkpt>
      <trkpt lat="59.9164924" lon="17.64237">
        <ele>22.7283</ele>
        <time>2013-04-14T10:28:14Z</time>
      </trkpt>
      <trkpt lat="59.9164355" lon="17.6423804">
        <ele>22.7283</ele>
        <time>2013-04-14T10:28:15Z</time>
      </trkpt>
      <trkpt lat="59.9163791" lon="17.6423906">
        <ele>22.7283</ele>
        <time>2013-04-14T10:28:16Z</time>
      </trkpt>
      <trkpt lat="59.9163236" lon="17.642398">
        <ele>22.7283</ele>
        <time>2013-04-14T10:28:17Z</time>
      </trkpt>
      <trkpt lat="59.9162682" lon="17.6424054">
        <ele>22.7283</ele>
        <time>2013-04-14T10:28:18Z</time>
      </trkpt>
      <trkpt lat="59.9162122" lon="17.6424144">
        <ele>22.7283</ele>
        <time>2013-04-14T10:28:19Z</time>
      </trkpt>
      <trkpt lat="59.9161548" lon="17.6424184">
        <ele>22.2476</ele>
        <time>2013-04-14T10:28:20Z</time>
      </trkpt>
      <trkpt lat="59.9160958" lon="17.6424158">
        <ele>22.2476</ele>
        <time>2013-04-14T10:28:21Z</time>
      </trkpt>
      <trkpt lat="59.9160352" lon="17.6424127">
        <ele>22.2476</ele>
        <time>2013-04-14T10:28:22Z</time>
      </trkpt>
      <trkpt lat="59.915973" lon="17.6424112">
        <ele>22.2476</ele>
        <time>2013-04-14T10:28:23Z</time>
      </trkpt>
      <trkpt lat="59.9159096" lon="17.6424111">
        <ele>21.767</ele>
        <time>2013-04-14T10:28:24Z</time>
      </trkpt>
      <trkpt lat="59.9158451" lon="17.6424133">
        <ele>21.767</ele>
        <time>2013-04-14T10:28:25Z</time>
      </trkpt>
      <trkpt lat="59.9157799" lon="17.6424155">
        <ele>21.767</ele>
        <time>2013-04-14T10:28:26Z</time>
      </trkpt>
      <trkpt lat="59.9157145" lon="17.6424186">
        <ele>21.767</ele>
        <time>2013-04-14T10:28:27Z</time>
      </trkpt>
      <trkpt lat="59.915649" lon="17.6424253">
        <ele>21.767</ele>
        <time>2013-04-14T10:28:28Z</time>
      </trkpt>
      <trkpt lat="59.9155829" lon="17.6424332">
        <ele>21.2864</ele>
        <time>2013-04-14T10:28:29Z</time>
      </trkpt>
      <trkpt lat="59.9155165" lon="17.642442">
        <ele>21.2864</ele>
        <time>2013-04-14T10:28:30Z</time>
      </trkpt>
      <trkpt lat="59.9154501" lon="17.6424544">
        <ele>21.2864</ele>
        <time>2013-04-14T10:28:31Z</time>
      </trkpt>
      <trkpt lat="59.9153841" lon="17.642472">
        <ele>21.2864</ele>
        <time>2013-04-14T10:28:32Z</time>
      </trkpt>
      <trkpt lat="59.9153193" lon="17.6424988">
        <ele>21.2864</ele>
        <time>2013-04-14T10:28:33Z</time>
      </trkpt>
      <trkpt lat="59.9152566" lon="17.6425381">
        <ele>21.2864</ele>
        <time>2013-04-14T10:28:34Z</time>
      </trkpt>
      <trkpt lat="59.9151981" lon="17.6425823">
        <ele>21.767</ele>
        <time>2013-04-14T10:28:35Z</time>
      </trkpt>
      <trkpt lat="59.9151467" lon="17.6426189">
        <ele>22.2476</ele>
        <time>2013-04-14T10:28:36Z</time>
      </trkpt>
      <trkpt lat="59.9150996" lon="17.642645">
        <ele>22.2476</ele>
        <time>2013-04-14T10:28:37Z</time>
      </trkpt>
      <trkpt lat="59.9150519" lon="17.6426671">
        <ele>22.7283</ele>
        <time>2013-04-14T10:28:38Z</time>
      </trkpt>
      <trkpt lat="59.9150001" lon="17.6426801">
        <ele>22.7283</ele>
        <time>2013-04-14T10:28:39Z</time>
      </trkpt>
      <trkpt lat="59.9149477" lon="17.642687">
        <ele>22.7283</ele>
        <time>2013-04-14T10:28:40Z</time>
      </trkpt>
      <trkpt lat="59.9148959" lon="17.6426929">
        <ele>22.7283</ele>
        <time>2013-04-14T10:28:41Z</time>
      </trkpt>
      <trkpt lat="59.9148443" lon="17.6426978">
        <ele>22.7283</ele>
        <time>2013-04-14T10:28:42Z</time>
      </trkpt>
      <trkpt lat="59.9147931" lon="17.6427038">
        <ele>22.7283</ele>
        <time>2013-04-14T10:28:43Z</time>
      </trkpt>
      <trkpt lat="59.9147427" lon="17.6427113">
        <ele>22.7283</ele>
        <time>2013-04-14T10:28:44Z</time>
      </trkpt>
      <trkpt lat="59.9146934" lon="17.6427189">
        <ele>22.7283</ele>
        <time>2013-04-14T10:28:45Z</time>
      </trkpt>
      <trkpt lat="59.9146438" lon="17.6427278">
        <ele>22.7283</ele>
        <time>2013-04-14T10:28:46Z</time>
      </trkpt>
      <trkpt lat="59.9145925" lon="17.642737">
        <ele>22.7283</ele>
        <time>2013-04-14T10:28:47Z</time>
      </trkpt>
      <trkpt lat="59.9145384" lon="17.6427469">
        <ele>22.7283</ele>
        <time>2013-04-14T10:28:48Z</time>
      </trkpt>
      <trkpt lat="59.914483" lon="17.6427579">
        <ele>22.7283</ele>
        <time>2013-04-14T10:28:49Z</time>
      </trkpt>
      <trkpt lat="59.914426" lon="17.6427672">
        <ele>22.7283</ele>
        <time>2013-04-14T10:28:50Z</time>
      </trkpt>
      <trkpt lat="59.9143681" lon="17.6427765">
        <ele>22.7283</ele>
        <time>2013-04-14T10:28:51Z</time>
      </trkpt>
      <trkpt lat="59.9143079" lon="17.6427849">
        <ele>22.7283</ele>
        <time>2013-04-14T10:28:52Z</time>
      </trkpt>
      <trkpt lat="59.9142464" lon="17.6427948">
        <ele>22.7283</ele>
        <time>2013-04-14T10:28:53Z</time>
      </trkpt>
      <trkpt lat="59.9141855" lon="17.6428067">
        <ele>22.7283</ele>
        <time>2013-04-14T10:28:54Z</time>
      </trkpt>
      <trkpt lat="59.9141236" lon="17.6428252">
        <ele>23.209</ele>
        <time>2013-04-14T10:28:55Z</time>
      </trkpt>
      <trkpt lat="59.9140632" lon="17.6428438">
        <ele>23.209</ele>
        <time>2013-04-14T10:28:56Z</time>
      </trkpt>
      <trkpt lat="59.9140061" lon="17.6428556">
        <ele>23.209</ele>
        <time>2013-04-14T10:28:57Z</time>
      </trkpt>
      <trkpt lat="59.9139507" lon="17.6428623">
        <ele>23.209</ele>
        <time>2013-04-14T10:28:58Z</time>
      </trkpt>
      <trkpt lat="59.9138963" lon="17.6428678">
        <ele>23.209</ele>
        <time>2013-04-14T10:28:59Z</time>
      </trkpt>
      <trkpt lat="59.9138427" lon="17.6428759">
        <ele>23.209</ele>
        <time>2013-04-14T10:29:00Z</time>
      </trkpt>
      <trkpt lat="59.9137897" lon="17.6428877">
        <ele>23.6896</ele>
        <time>2013-04-14T10:29:01Z</time>
      </trkpt>
      <trkpt lat="59.9137379" lon="17.6428986">
        <ele>23.6896</ele>
        <time>2013-04-14T10:29:02Z</time>
      </trkpt>
      <trkpt lat="59.9136869" lon="17.6429072">
        <ele>24.1703</ele>
        <time>2013-04-14T10:29:03Z</time>
      </trkpt>
      <trkpt lat="59.9136358" lon="17.6429159">
        <ele>24.1703</ele>
        <time>2013-04-14T10:29:04Z</time>
      </trkpt>
      <trkpt lat="59.9135845" lon="17.6429248">
        <ele>24.1703</ele>
        <time>2013-04-14T10:29:05Z</time>
      </trkpt>
      <trkpt lat="59.913533" lon="17.642935">
        <ele>24.651</ele>
        <time>2013-04-14T10:29:06Z</time>
      </trkpt>
      <trkpt lat="59.9134804" lon="17.6429473">
        <ele>24.651</ele>
        <time>2013-04-14T10:29:07Z</time>
      </trkpt>
      <trkpt lat="59.913427" lon="17.6429592">
        <ele>24.651</ele>
        <time>2013-04-14T10:29:08Z</time>
      </trkpt>
      <trkpt lat="59.913375" lon="17.6429687">
        <ele>25.1317</ele>
        <time>2013-04-14T10:29:09Z</time>
      </trkpt>
      <trkpt lat="59.9133203" lon="17.6429822">
        <ele>25.1317</ele>
        <time>2013-04-14T10:29:10Z</time>
      </trkpt>
      <trkpt lat="59.9132654" lon="17.6430013">
        <ele>25.1317</ele>
        <time>2013-04-14T10:29:11Z</time>
      </trkpt>
      <trkpt lat="59.9132099" lon="17.6430198">
        <ele>25.1317</ele>
        <time>2013-04-14T10:29:12Z</time>
      </trkpt>
      <trkpt lat="59.9131544" lon="17.6430344">
        <ele>25.1317</ele>
        <time>2013-04-14T10:29:13Z</time>
      </trkpt>
      <trkpt lat="59.9130978" lon="17.643045">
        <ele>25.1317</ele>
        <time>2013-04-14T10:29:14Z</time>
      </trkpt>
      <trkpt lat="59.9130411" lon="17.6430526">
        <ele>25.6123</ele>
        <time>2013-04-14T10:29:15Z</time>
      </trkpt>
      <trkpt lat="59.9129851" lon="17.6430593">
        <ele>25.6123</ele>
        <time>2013-04-14T10:29:16Z</time>
      </trkpt>
      <trkpt lat="59.9129295" lon="17.643068">
        <ele>25.6123</ele>
        <time>2013-04-14T10:29:17Z</time>
      </trkpt>
      <trkpt lat="59.9128744" lon="17.6430775">
        <ele>26.0929</ele>
        <time>2013-04-14T10:29:18Z</time>
      </trkpt>
      <trkpt lat="59.9128189" lon="17.6430857">
        <ele>26.0929</ele>
        <time>2013-04-14T10:29:19Z</time>
      </trkpt>
      <trkpt lat="59.9127629" lon="17.6430879">
        <ele>26.0929</ele>
        <time>2013-04-14T10:29:20Z</time>
      </trkpt>
      <trkpt lat="59.9127059" lon="17.6430814">
        <ele>25.6123</ele>
        <time>2013-04-14T10:29:21Z</time>
      </trkpt>
      <trkpt lat="59.9126475" lon="17.6430621">
        <ele>25.1317</ele>
        <time>2013-04-14T10:29:22Z</time>
      </trkpt>
      <trkpt lat="59.9125856" lon="17.6430327">
        <ele>25.1317</ele>
        <time>2013-04-14T10:29:23Z</time>
      </trkpt>
      <trkpt lat="59.9125193" lon="17.6430068">
        <ele>24.651</ele>
        <time>2013-04-14T10:29:24Z</time>
      </trkpt>
      <trkpt lat="59.9124524" lon="17.6430002">
        <ele>24.651</ele>
        <time>2013-04-14T10:29:25Z</time>
      </trkpt>
      <trkpt lat="59.9123868" lon="17.6430082">
        <ele>24.651</ele>
        <time>2013-04-14T10:29:26Z</time>
      </trkpt>
      <trkpt lat="59.9123236" lon="17.6430226">
        <ele>24.651</ele>
        <time>2013-04-14T10:29:27Z</time>
      </trkpt>
      <trkpt lat="59.9122619" lon="17.6430406">
        <ele>24.651</ele>
        <time>2013-04-14T10:29:28Z</time>
      </trkpt>
      <trkpt lat="59.9122014" lon="17.6430586">
        <ele>24.651</ele>
        <time>2013-04-14T10:29:29Z</time>
      </trkpt>
      <trkpt lat="59.9121422" lon="17.6430783">
        <ele>25.1317</ele>
        <time>2013-04-14T10:29:30Z</time>
      </trkpt>
      <trkpt lat="59.9120841" lon="17.6431003">
        <ele>25.1317</ele>
        <time>2013-04-14T10:29:31Z</time>
      </trkpt>
      <trkpt lat="59.9120287" lon="17.6431215">
        <ele>25.1317</ele>
        <time>2013-04-14T10:29:32Z</time>
      </trkpt>
      <trkpt lat="59.911975" lon="17.6431382">
        <ele>25.1317</ele>
        <time>2013-04-14T10:29:33Z</time>
      </trkpt>
      <trkpt lat="59.911922" lon="17.6431525">
        <ele>25.1317</ele>
        <time>2013-04-14T10:29:34Z</time>
      </trkpt>
      <trkpt lat="59.9118702" lon="17.6431656">
        <ele>25.1317</ele>
        <time>2013-04-14T10:29:35Z</time>
      </trkpt>
      <trkpt lat="59.9118191" lon="17.6431775">
        <ele>25.1317</ele>
        <time>2013-04-14T10:29:36Z</time>
      </trkpt>
      <trkpt lat="59.911765" lon="17.643189">
        <ele>25.1317</ele>
        <time>2013-04-14T10:29:37Z</time>
      </trkpt>
      <trkpt lat="59.9117085" lon="17.6432001">
        <ele>25.1317</ele>
        <time>2013-04-14T10:29:38Z</time>
      </trkpt>
      <trkpt lat="59.9116505" lon="17.6432085">
        <ele>24.651</ele>
        <time>2013-04-14T10:29:39Z</time>
      </trkpt>
      <trkpt lat="59.9115917" lon="17.6432154">
        <ele>24.651</ele>
        <time>2013-04-14T10:29:40Z</time>
      </trkpt>
      <trkpt lat="59.9115322" lon="17.6432261">
        <ele>24.651</ele>
        <time>2013-04-14T10:29:41Z</time>
      </trkpt>
      <trkpt lat="59.9114735" lon="17.6432391">
        <ele>24.651</ele>
        <time>2013-04-14T10:29:42Z</time>
      </trkpt>
      <trkpt lat="59.9114154" lon="17.6432501">
        <ele>24.651</ele>
        <time>2013-04-14T10:29:43Z</time>
      </trkpt>
      <trkpt lat="59.911358" lon="17.6432619">
        <ele>24.651</ele>
        <time>2013-04-14T10:29:44Z</time>
      </trkpt>
      <trkpt lat="59.9113011" lon="17.643278">
        <ele>24.651</ele>
        <time>2013-04-14T10:29:45Z</time>
      </trkpt>
      <trkpt lat="59.9112446" lon="17.6432943">
        <ele>24.651</ele>
        <time>2013-04-14T10:29:46Z</time>
      </trkpt>
      <trkpt lat="59.9111875" lon="17.6433081">
        <ele>24.651</ele>
        <time>2013-04-14T10:29:47Z</time>
      </trkpt>
      <trkpt lat="59.9111299" lon="17.6433204">
        <ele>24.651</ele>
        <time>2013-04-14T10:29:48Z</time>
      </trkpt>
      <trkpt lat="59.9110714" lon="17.6433307">
        <ele>24.1703</ele>
        <time>2013-04-14T10:29:49Z</time>
      </trkpt>
      <trkpt lat="59.9110118" lon="17.6433401">
        <ele>24.1703</ele>
        <time>2013-04-14T10:29:50Z</time>
      </trkpt>
      <trkpt lat="59.9109522" lon="17.6433498">
        <ele>24.1703</ele>
        <time>2013-04-14T10:29:51Z</time>
      </trkpt>
      <trkpt lat="59.9108924" lon="17.6433603">
        <ele>24.1703</ele>
        <time>2013-04-14T10:29:52Z</time>
      </trkpt>
      <trkpt lat="59.9108326" lon="17.6433724">
        <ele>24.1703</ele>
        <time>2013-04-14T10:29:53Z</time>
      </trkpt>
      <trkpt lat="59.9107717" lon="17.6433835">
        <ele>23.6896</ele>
        <time>2013-04-14T10:29:54Z</time>
      </trkpt>
      <trkpt lat="59.9107101" lon="17.643393">
        <ele>23.6896</ele>
        <time>2013-04-14T10:29:55Z</time>
      </trkpt>
      <trkpt lat="59.9106482" lon="17.643405">
        <ele>23.6896</ele>
        <time>2013-04-14T10:29:56Z</time>
      </trkpt>
      <trkpt lat="59.9105867" lon="17.6434223">
        <ele>23.6896</ele>
        <time>2013-04-14T10:29:57Z</time>
      </trkpt>
      <trkpt lat="59.9105269" lon="17.6434471">
        <ele>23.6896</ele>
        <time>2013-04-14T10:29:58Z</time>
      </trkpt>
      <trkpt lat="59.9104687" lon="17.6434788">
        <ele>23.6896</ele>
        <time>2013-04-14T10:29:59Z</time>
      </trkpt>
      <trkpt lat="59.9104125" lon="17.64351">
        <ele>23.6896</ele>
        <time>2013-04-14T10:30:00Z</time>
      </trkpt>
      <trkpt lat="59.9103568" lon="17.6435343">
        <ele>23.6896</ele>
        <time>2013-04-14T10:30:01Z</time>
      </trkpt>
      <trkpt lat="59.9103007" lon="17.6435499">
        <ele>24.1703</ele>
        <time>2013-04-14T10:30:02Z</time>
      </trkpt>
      <trkpt lat="59.9102438" lon="17.6435597">
        <ele>23.6896</ele>
        <time>2013-04-14T10:30:03Z</time>
      </trkpt>
      <trkpt lat="59.9101864" lon="17.643567">
        <ele>23.6896</ele>
        <time>2013-04-14T10:30:04Z</time>
      </trkpt>
      <trkpt lat="59.9101289" lon="17.6435723">
        <ele>23.6896</ele>
        <time>2013-04-14T10:30:05Z</time>
      </trkpt>
      <trkpt lat="59.9100703" lon="17.643572">
        <ele>23.6896</ele>
        <time>2013-04-14T10:30:06Z</time>
      </trkpt>
      <trkpt lat="59.9100092" lon="17.6435622">
        <ele>23.209</ele>
        <time>2013-04-14T10:30:07Z</time>
      </trkpt>
      <trkpt lat="59.9099442" lon="17.6435414">
        <ele>22.7283</ele>
        <time>2013-04-14T10:30:08Z</time>
      </trkpt>
      <trkpt lat="59.9098765" lon="17.6435138">
        <ele>22.7283</ele>
        <time>2013-04-14T10:30:09Z</time>
      </trkpt>
      <trkpt lat="59.9098075" lon="17.6434924">
        <ele>22.2476</ele>
        <time>2013-04-14T10:30:10Z</time>
      </trkpt>
      <trkpt lat="59.909738" lon="17.6434874">
        <ele>22.2476</ele>
        <time>2013-04-14T10:30:11Z</time>
      </trkpt>
      <trkpt lat="59.9096682" lon="17.6434962">
        <ele>22.2476</ele>
        <time>2013-04-14T10:30:12Z</time>
      </trkpt>
      <trkpt lat="59.9095984" lon="17.6435112">
        <ele>21.767</ele>
        <time>2013-04-14T10:30:13Z</time>
      </trkpt>
      <trkpt lat="59.9095289" lon="17.6435295">
        <ele>21.767</ele>
        <time>2013-04-14T10:30:14Z</time>
      </trkpt>
      <trkpt lat="59.9094595" lon="17.6435468">
        <ele>21.767</ele>
        <time>2013-04-14T10:30:15Z</time>
      </trkpt>
      <trkpt lat="59.9093908" lon="17.6435619">
        <ele>21.767</ele>
        <time>2013-04-14T10:30:16Z</time>
      </trkpt>
      <trkpt lat="59.9093233" lon="17.6435752">
        <ele>21.767</ele>
        <time>2013-04-14T10:30:17Z</time>
      </trkpt>
      <trkpt lat="59.9092564" lon="17.6435844">
        <ele>21.767</ele>
        <time>2013-04-14T10:30:18Z</time>
      </trkpt>
      <trkpt lat="59.9091903" lon="17.6435929">
        <ele>21.767</ele>
        <time>2013-04-14T10:30:19Z</time>
      </trkpt>
      <trkpt lat="59.9091253" lon="17.6436034">
        <ele>21.767</ele>
        <time>2013-04-14T10:30:20Z</time>
      </trkpt>
      <trkpt lat="59.9090616" lon="17.6436137">
        <ele>21.767</ele>
        <time>2013-04-14T10:30:21Z</time>
      </trkpt>
      <trkpt lat="59.9089986" lon="17.6436224">
        <ele>21.767</ele>
        <time>2013-04-14T10:30:22Z</time>
      </trkpt>
      <trkpt lat="59.9089363" lon="17.6436301">
        <ele>21.767</ele>
        <time>2013-04-14T10:30:23Z</time>
      </trkpt>
      <trkpt lat="59.9088738" lon="17.6436379">
        <ele>21.767</ele>
        <time>2013-04-14T10:30:24Z</time>
      </trkpt>
      <trkpt lat="59.908812" lon="17.6436437">
        <ele>21.767</ele>
        <time>2013-04-14T10:30:25Z</time>
      </trkpt>
      <trkpt lat="59.9087509" lon="17.6436456">
        <ele>21.767</ele>
        <time>2013-04-14T10:30:26Z</time>
      </trkpt>
      <trkpt lat="59.9086906" lon="17.6436481">
        <ele>21.767</ele>
        <time>2013-04-14T10:30:27Z</time>
      </trkpt>
      <trkpt lat="59.9086312" lon="17.6436533">
        <ele>21.767</ele>
        <time>2013-04-14T10:30:28Z</time>
      </trkpt>
      <trkpt lat="59.9085737" lon="17.6436578">
        <ele>21.767</ele>
        <time>2013-04-14T10:30:29Z</time>
      </trkpt>
      <trkpt lat="59.9085187" lon="17.6436592">
        <ele>21.767</ele>
        <time>2013-04-14T10:30:30Z</time>
      </trkpt>
      <trkpt lat="59.9084666" lon="17.6436597">
        <ele>21.767</ele>
        <time>2013-04-14T10:30:31Z</time>
      </trkpt>
      <trkpt lat="59.9084183" lon="17.6436644">
        <ele>21.767</ele>
        <time>2013-04-14T10:30:32Z</time>
      </trkpt>
      <trkpt lat="59.9083729" lon="17.6436715">
        <ele>21.767</ele>
        <time>2013-04-14T10:30:33Z</time>
      </trkpt>
      <trkpt lat="59.9083298" lon="17.6436836">
        <ele>21.767</ele>
        <time>2013-04-14T10:30:34Z</time>
      </trkpt>
      <trkpt lat="59.9082893" lon="17.6437134">
        <ele>22.2476</ele>
        <time>2013-04-14T10:30:35Z</time>
      </trkpt>
      <trkpt lat="59.9082489" lon="17.6437473">
        <ele>22.2476</ele>
        <time>2013-04-14T10:30:36Z</time>
      </trkpt>
      <trkpt lat="59.9082058" lon="17.643769">
        <ele>22.2476</ele>
        <time>2013-04-14T10:30:37Z</time>
      </trkpt>
      <trkpt lat="59.9081591" lon="17.6437768">
        <ele>22.2476</ele>
        <time>2013-04-14T10:30:38Z</time>
      </trkpt>
      <trkpt lat="59.9081101" lon="17.6437746">
        <ele>22.2476</ele>
        <time>2013-04-14T10:30:39Z</time>
      </trkpt>
      <trkpt lat="59.9080595" lon="17.6437711">
        <ele>22.2476</ele>
        <time>2013-04-14T10:30:40Z</time>
      </trkpt>
      <trkpt lat="59.908007" lon="17.6437683">
        <ele>22.2476</ele>
        <time>2013-04-14T10:30:41Z</time>
      </trkpt>
      <trkpt lat="59.9079526" lon="17.6437626">
        <ele>22.2476</ele>
        <time>2013-04-14T10:30:42Z</time>
      </trkpt>
      <trkpt lat="59.9078966" lon="17.6437565">
        <ele>22.2476</ele>
        <time>2013-04-14T10:30:43Z</time>
      </trkpt>
      <trkpt lat="59.90784" lon="17.6437497">
        <ele>21.767</ele>
        <time>2013-04-14T10:30:44Z</time>
      </trkpt>
      <trkpt lat="59.9077832" lon="17.643739">
        <ele>21.767</ele>
        <time>2013-04-14T10:30:45Z</time>
      </trkpt>
      <trkpt lat="59.9077253" lon="17.6437281">
        <ele>21.767</ele>
        <time>2013-04-14T10:30:46Z</time>
      </trkpt>
      <trkpt lat="59.9076662" lon="17.6437198">
        <ele>21.767</ele>
        <time>2013-04-14T10:30:47Z</time>
      </trkpt>
      <trkpt lat="59.9076061" lon="17.6437121">
        <ele>21.767</ele>
        <time>2013-04-14T10:30:48Z</time>
      </trkpt>
      <trkpt lat="59.9075455" lon="17.6437023">
        <ele>21.767</ele>
        <time>2013-04-14T10:30:49Z</time>
      </trkpt>
      <trkpt lat="59.9074842" lon="17.6436904">
        <ele>21.2864</ele>
        <time>2013-04-14T10:30:50Z</time>
      </trkpt>
      <trkpt lat="59.907422" lon="17.6436775">
        <ele>21.2864</ele>
        <time>2013-04-14T10:30:51Z</time>
      </trkpt>
      <trkpt lat="59.9073591" lon="17.6436655">
        <ele>21.2864</ele>
        <time>2013-04-14T10:30:52Z</time>
      </trkpt>
      <trkpt lat="59.9072963" lon="17.6436546">
        <ele>21.2864</ele>
        <time>2013-04-14T10:30:53Z</time>
      </trkpt>
      <trkpt lat="59.9072342" lon="17.6436447">
        <ele>21.2864</ele>
        <time>2013-04-14T10:30:54Z</time>
      </trkpt>
      <trkpt lat="59.9071723" lon="17.6436376">
        <ele>21.2864</ele>
        <time>2013-04-14T10:30:55Z</time>
      </trkpt>
      <trkpt lat="59.90711" lon="17.6436344">
        <ele>20.8057</ele>
        <time>2013-04-14T10:30:56Z</time>
      </trkpt>
      <trkpt lat="59.9070476" lon="17.6436301">
        <ele>20.8057</ele>
        <time>2013-04-14T10:30:57Z</time>
      </trkpt>
      <trkpt lat="59.9069845" lon="17.6436229">
        <ele>20.8057</ele>
        <time>2013-04-14T10:30:58Z</time>
      </trkpt>
      <trkpt lat="59.9069208" lon="17.6436129">
        <ele>20.8057</ele>
        <time>2013-04-14T10:30:59Z</time>
      </trkpt>
      <trkpt lat="59.9068568" lon="17.6436005">
        <ele>20.8057</ele>
        <time>2013-04-14T10:31:00Z</time>
      </trkpt>
      <trkpt lat="59.9067918" lon="17.6435908">
        <ele>20.325</ele>
        <time>2013-04-14T10:31:01Z</time>
      </trkpt>
      <trkpt lat="59.906726" lon="17.6435845">
        <ele>20.325</ele>
        <time>2013-04-14T10:31:02Z</time>
      </trkpt>
      <trkpt lat="59.9066597" lon="17.643579">
        <ele>20.325</ele>
        <time>2013-04-14T10:31:03Z</time>
      </trkpt>
      <trkpt lat="59.9065929" lon="17.643573">
        <ele>20.325</ele>
        <time>2013-04-14T10:31:04Z</time>
      </trkpt>
      <trkpt lat="59.906526" lon="17.6435638">
        <ele>19.8444</ele>
        <time>2013-04-14T10:31:05Z</time>
      </trkpt>
      <trkpt lat="59.9064596" lon="17.6435476">
        <ele>19.8444</ele>
        <time>2013-04-14T10:31:06Z</time>
      </trkpt>
      <trkpt lat="59.9063949" lon="17.6435234">
        <ele>19.8444</ele>
        <time>2013-04-14T10:31:07Z</time>
      </trkpt>
      <trkpt lat="59.9063313" lon="17.6434985">
        <ele>19.3638</ele>
        <time>2013-04-14T10:31:08Z</time>
      </trkpt>
      <trkpt lat="59.9062691" lon="17.6434779">
        <ele>19.3638</ele>
        <time>2013-04-14T10:31:09Z</time>
      </trkpt>
      <trkpt lat="59.9062084" lon="17.6434583">
        <ele>19.3638</ele>
        <time>2013-04-14T10:31:10Z</time>
      </trkpt>
      <trkpt lat="59.9061499" lon="17.643435">
        <ele>19.3638</ele>
        <time>2013-04-14T10:31:11Z</time>
      </trkpt>
      <trkpt lat="59.9060921" lon="17.6434083">
        <ele>19.3638</ele>
        <time>2013-04-14T10:31:12Z</time>
      </trkpt>
      <trkpt lat="59.9060348" lon="17.6433816">
        <ele>19.3638</ele>
        <time>2013-04-14T10:31:13Z</time>
      </trkpt>
      <trkpt lat="59.9059795" lon="17.6433557">
        <ele>19.3638</ele>
        <time>2013-04-14T10:31:14Z</time>
      </trkpt>
      <trkpt lat="59.9059294" lon="17.6433306">
        <ele>19.3638</ele>
        <time>2013-04-14T10:31:15Z</time>
      </trkpt>
      <trkpt lat="59.9058845" lon="17.6433265">
        <ele>19.8444</ele>
        <time>2013-04-14T10:31:16Z</time>
      </trkpt>
      <trkpt lat="59.9058445" lon="17.6433599">
        <ele>19.8444</ele>
        <time>2013-04-14T10:31:17Z</time>
      </trkpt>
      <trkpt lat="59.9058162" lon="17.6434276">
        <ele>19.8444</ele>
        <time>2013-04-14T10:31:18Z</time>
      </trkpt>
      <trkpt lat="59.9058054" lon="17.6435199">
        <ele>19.8444</ele>
        <time>2013-04-14T10:31:19Z</time>
      </trkpt>
      <trkpt lat="59.9058141" lon="17.6436197">
        <ele>19.8444</ele>
        <time>2013-04-14T10:31:20Z</time>
      </trkpt>
      <trkpt lat="59.9058346" lon="17.6437176">
        <ele>20.325</ele>
        <time>2013-04-14T10:31:21Z</time>
      </trkpt>
      <trkpt lat="59.9058614" lon="17.6438139">
        <ele>20.325</ele>
        <time>2013-04-14T10:31:22Z</time>
      </trkpt>
      <trkpt lat="59.9058935" lon="17.643913">
        <ele>20.8057</ele>
        <time>2013-04-14T10:31:23Z</time>
      </trkpt>
      <trkpt lat="59.9059262" lon="17.6440098">
        <ele>20.8057</ele>
        <time>2013-04-14T10:31:24Z</time>
      </trkpt>
      <trkpt lat="59.9059584" lon="17.6441021">
        <ele>20.8057</ele>
        <time>2013-04-14T10:31:25Z</time>
      </trkpt>
      <trkpt lat="59.9059893" lon="17.6441947">
        <ele>21.2864</ele>
        <time>2013-04-14T10:31:26Z</time>
      </trkpt>
      <trkpt lat="59.906018" lon="17.6442917">
        <ele>21.767</ele>
        <time>2013-04-14T10:31:27Z</time>
      </trkpt>
      <trkpt lat="59.9060436" lon="17.6443926">
        <ele>21.767</ele>
        <time>2013-04-14T10:31:28Z</time>
      </trkpt>
      <trkpt lat="59.906067" lon="17.6444948">
        <ele>21.767</ele>
        <time>2013-04-14T10:31:29Z</time>
      </trkpt>
      <trkpt lat="59.9060858" lon="17.6446016">
        <ele>21.767</ele>
        <time>2013-04-14T10:31:30Z</time>
      </trkpt>
      <trkpt lat="59.9061013" lon="17.6447124">
        <ele>22.2476</ele>
        <time>2013-04-14T10:31:31Z</time>
      </trkpt>
      <trkpt lat="59.9061142" lon="17.6448246">
        <ele>22.2476</ele>
        <time>2013-04-14T10:31:32Z</time>
      </trkpt>
      <trkpt lat="59.9061216" lon="17.6449386">
        <ele>22.7283</ele>
        <time>2013-04-14T10:31:33Z</time>
      </trkpt>
      <trkpt lat="59.906122" lon="17.6450552">
        <ele>22.7283</ele>
        <time>2013-04-14T10:31:34Z</time>
      </trkpt>
      <trkpt lat="59.9061183" lon="17.6451717">
        <ele>23.209</ele>
        <time>2013-04-14T10:31:35Z</time>
      </trkpt>
      <trkpt lat="59.9061114" lon="17.6452873">
        <ele>23.209</ele>
        <time>2013-04-14T10:31:36Z</time>
      </trkpt>
      <trkpt lat="59.9061022" lon="17.6454022">
        <ele>23.6896</ele>
        <time>2013-04-14T10:31:37Z</time>
      </trkpt>
      <trkpt lat="59.9060914" lon="17.6455161">
        <ele>23.6896</ele>
        <time>2013-04-14T10:31:38Z</time>
      </trkpt>
      <trkpt lat="59.9060783" lon="17.6456278">
        <ele>23.6896</ele>
        <time>2013-04-14T10:31:39Z</time>
      </trkpt>
      <trkpt lat="59.9060636" lon="17.6457389">
        <ele>24.1703</ele>
        <time>2013-04-14T10:31:40Z</time>
      </trkpt>
      <trkpt lat="59.9060486" lon="17.6458484">
        <ele>24.1703</ele>
        <time>2013-04-14T10:31:41Z</time>
      </trkpt>
      <trkpt lat="59.9060335" lon="17.6459576">
        <ele>24.1703</ele>
        <time>2013-04-14T10:31:42Z</time>
      </trkpt>
      <trkpt lat="59.9060198" lon="17.646067">
        <ele>24.1703</ele>
        <time>2013-04-14T10:31:43Z</time>
      </trkpt>
      <trkpt lat="59.9060075" lon="17.6461752">
        <ele>24.1703</ele>
        <time>2013-04-14T10:31:44Z</time>
      </trkpt>
      <trkpt lat="59.9059939" lon="17.6462853">
        <ele>24.651</ele>
        <time>2013-04-14T10:31:45Z</time>
      </trkpt>
      <trkpt lat="59.9059797" lon="17.6463965">
        <ele>24.651</ele>
        <time>2013-04-14T10:31:46Z</time>
      </trkpt>
      <trkpt lat="59.9059659" lon="17.6465091">
        <ele>24.651</ele>
        <time>2013-04-14T10:31:47Z</time>
      </trkpt>
      <trkpt lat="59.9059521" lon="17.6466225">
        <ele>25.1317</ele>
        <time>2013-04-14T10:31:48Z</time>
      </trkpt>
      <trkpt lat="59.9059397" lon="17.6467366">
        <ele>25.1317</ele>
        <time>2013-04-14T10:31:49Z</time>
      </trkpt>
      <trkpt lat="59.9059293" lon="17.6468507">
        <ele>25.1317</ele>
        <time>2013-04-14T10:31:50Z</time>
      </trkpt>
      <trkpt lat="59.9059206" lon="17.6469644">
        <ele>25.1317</ele>
        <time>2013-04-14T10:31:51Z</time>
      </trkpt>
      <trkpt lat="59.9059153" lon="17.6470781">
        <ele>25.6123</ele>
        <time>2013-04-14T10:31:52Z</time>
      </trkpt>
      <trkpt lat="59.9059123" lon="17.6471916">
        <ele>25.6123</ele>
        <time>2013-04-14T10:31:53Z</time>
      </trkpt>
      <trkpt lat="59.9059115" lon="17.6473065">
        <ele>25.6123</ele>
        <time>2013-04-14T10:31:54Z</time>
      </trkpt>
      <trkpt lat="59.9059123" lon="17.6474236">
        <ele>25.6123</ele>
        <time>2013-04-14T10:31:55Z</time>
      </trkpt>
      <trkpt lat="59.9059159" lon="17.64754">
        <ele>25.6123</ele>
        <time>2013-04-14T10:31:56Z</time>
      </trkpt>
      <trkpt lat="59.9059234" lon="17.6476514">
        <ele>25.1317</ele>
        <time>2013-04-14T10:31:57Z</time>
      </trkpt>
      <trkpt lat="59.9059371" lon="17.6477608">
        <ele>25.1317</ele>
        <time>2013-04-14T10:31:58Z</time>
      </trkpt>
      <trkpt lat="59.905956" lon="17.6478687">
        <ele>25.1317</ele>
        <time>2013-04-14T10:31:59Z</time>
      </trkpt>
      <trkpt lat="59.905979" lon="17.6479754">
        <ele>25.1317</ele>
        <time>2013-04-14T10:32:00Z</time>
      </trkpt>
      <trkpt lat="59.9060055" lon="17.6480805">
        <ele>25.1317</ele>
        <time>2013-04-14T10:32:01Z</time>
      </trkpt>
      <trkpt lat="59.9060345" lon="17.6481846">
        <ele>25.1317</ele>
        <time>2013-04-14T10:32:02Z</time>
      </trkpt>
      <trkpt lat="59.9060659" lon="17.6482882">
        <ele>25.1317</ele>
        <time>2013-04-14T10:32:03Z</time>
      </trkpt>
      <trkpt lat="59.9061007" lon="17.6483905">
        <ele>25.1317</ele>
        <time>2013-04-14T10:32:04Z</time>
      </trkpt>
      <trkpt lat="59.9061381" lon="17.6484907">
        <ele>25.1317</ele>
        <time>2013-04-14T10:32:05Z</time>
      </trkpt>
      <trkpt lat="59.9061775" lon="17.6485912">
        <ele>25.1317</ele>
        <time>2013-04-14T10:32:06Z</time>
      </trkpt>
      <trkpt lat="59.9062178" lon="17.6486932">
        <ele>25.1317</ele>
        <time>2013-04-14T10:32:07Z</time>
      </trkpt>
      <trkpt lat="59.9062586" lon="17.6487953">
        <ele>25.1317</ele>
        <time>2013-04-14T10:32:08Z</time>
      </trkpt>
      <trkpt lat="59.9062986" lon="17.6488979">
        <ele>25.6123</ele>
        <time>2013-04-14T10:32:09Z</time>
      </trkpt>
      <trkpt lat="59.9063374" lon="17.6490028">
        <ele>25.6123</ele>
        <time>2013-04-14T10:32:10Z</time>
      </trkpt>
      <trkpt lat="59.9063741" lon="17.649109">
        <ele>25.6123</ele>
        <time>2013-04-14T10:32:11Z</time>
      </trkpt>
      <trkpt lat="59.9064075" lon="17.6492185">
        <ele>25.6123</ele>
        <time>2013-04-14T10:32:12Z</time>
      </trkpt>
      <trkpt lat="59.9064391" lon="17.6493309">
        <ele>25.6123</ele>
        <time>2013-04-14T10:32:13Z</time>
      </trkpt>
      <trkpt lat="59.9064701" lon="17.6494437">
        <ele>26.0929</ele>
        <time>2013-04-14T10:32:14Z</time>
      </trkpt>
      <trkpt lat="59.9065005" lon="17.6495568">
        <ele>26.0929</ele>
        <time>2013-04-14T10:32:15Z</time>
      </trkpt>
      <trkpt lat="59.9065302" lon="17.6496705">
        <ele>26.0929</ele>
        <time>2013-04-14T10:32:16Z</time>
      </trkpt>
      <trkpt lat="59.9065587" lon="17.6497843">
        <ele>26.5736</ele>
        <time>2013-04-14T10:32:17Z</time>
      </trkpt>
      <trkpt lat="59.9065851" lon="17.6498995">
        <ele>26.5736</ele>
        <time>2013-04-14T10:32:18Z</time>
      </trkpt>
      <trkpt lat="59.9066104" lon="17.6500152">
        <ele>26.5736</ele>
        <time>2013-04-14T10:32:19Z</time>
      </trkpt>
      <trkpt lat="59.9066365" lon="17.6501301">
        <ele>26.5736</ele>
        <time>2013-04-14T10:32:20Z</time>
      </trkpt>
      <trkpt lat="59.9066636" lon="17.6502446">
        <ele>27.0543</ele>
        <time>2013-04-14T10:32:21Z</time>
      </trkpt>
      <trkpt lat="59.9066909" lon="17.6503605">
        <ele>27.0543</ele>
        <time>2013-04-14T10:32:22Z</time>
      </trkpt>
      <trkpt lat="59.9067187" lon="17.6504769">
        <ele>27.0543</ele>
        <time>2013-04-14T10:32:23Z</time>
      </trkpt>
      <trkpt lat="59.9067458" lon="17.6505919">
        <ele>27.0543</ele>
        <time>2013-04-14T10:32:24Z</time>
      </trkpt>
      <trkpt lat="59.9067721" lon="17.6507055">
        <ele>27.0543</ele>
        <time>2013-04-14T10:32:25Z</time>
      </trkpt>
      <trkpt lat="59.9067988" lon="17.6508186">
        <ele>27.0543</ele>
        <time>2013-04-14T10:32:26Z</time>
      </trkpt>
      <trkpt lat="59.906826" lon="17.6509315">
        <ele>27.0543</ele>
        <time>2013-04-14T10:32:27Z</time>
      </trkpt>
      <trkpt lat="59.9068534" lon="17.6510443">
        <ele>27.5349</ele>
        <time>2013-04-14T10:32:28Z</time>
      </trkpt>
      <trkpt lat="59.9068794" lon="17.6511582">
        <ele>27.5349</ele>
        <time>2013-04-14T10:32:29Z</time>
      </trkpt>
      <trkpt lat="59.9069047" lon="17.6512735">
        <ele>27.5349</ele>
        <time>2013-04-14T10:32:30Z</time>
      </trkpt>
      <trkpt lat="59.9069296" lon="17.6513896">
        <ele>27.5349</ele>
        <time>2013-04-14T10:32:31Z</time>
      </trkpt>
      <trkpt lat="59.9069538" lon="17.6515066">
        <ele>27.5349</ele>
        <time>2013-04-14T10:32:32Z</time>
      </trkpt>
      <trkpt lat="59.9069757" lon="17.6516255">
        <ele>27.5349</ele>
        <time>2013-04-14T10:32:33Z</time>
      </trkpt>
      <trkpt lat="59.9069946" lon="17.6517464">
        <ele>27.5349</ele>
        <time>2013-04-14T10:32:34Z</time>
      </trkpt>
      <trkpt lat="59.9070117" lon="17.651869">
        <ele>28.0155</ele>
        <time>2013-04-14T10:32:35Z</time>
      </trkpt>
      <trkpt lat="59.9070279" lon="17.651993">
        <ele>28.0155</ele>
        <time>2013-04-14T10:32:36Z</time>
      </trkpt>
      <trkpt lat="59.907042" lon="17.6521197">
        <ele>28.0155</ele>
        <time>2013-04-14T10:32:37Z</time>
      </trkpt>
      <trkpt lat="59.9070523" lon="17.6522489">
        <ele>28.0155</ele>
        <time>2013-04-14T10:32:38Z</time>
      </trkpt>
      <trkpt lat="59.9070591" lon="17.6523807">
        <ele>28.0155</ele>
        <time>2013-04-14T10:32:39Z</time>
      </trkpt>
      <trkpt lat="59.9070639" lon="17.6525139">
        <ele>28.0155</ele>
        <time>2013-04-14T10:32:40Z</time>
      </trkpt>
      <trkpt lat="59.9070673" lon="17.6526478">
        <ele>28.0155</ele>
        <time>2013-04-14T10:32:41Z</time>
      </trkpt>
      <trkpt lat="59.9070679" lon="17.6527819">
        <ele>28.0155</ele>
        <time>2013-04-14T10:32:42Z</time>
      </trkpt>
      <trkpt lat="59.9070659" lon="17.6529161">
        <ele>28.0155</ele>
        <time>2013-04-14T10:32:43Z</time>
      </trkpt>
      <trkpt lat="59.9070625" lon="17.6530507">
        <ele>28.0155</ele>
        <time>2013-04-14T10:32:44Z</time>
      </trkpt>
      <trkpt lat="59.9070578" lon="17.6531859">
        <ele>28.0155</ele>
        <time>2013-04-14T10:32:45Z</time>
      </trkpt>
      <trkpt lat="59.9070521" lon="17.653322">
        <ele>28.0155</ele>
        <time>2013-04-14T10:32:46Z</time>
      </trkpt>
      <trkpt lat="59.907046" lon="17.653459">
        <ele>28.0155</ele>
        <time>2013-04-14T10:32:47Z</time>
      </trkpt>
      <trkpt lat="59.9070405" lon="17.6535984">
        <ele>28.0155</ele>
        <time>2013-04-14T10:32:48Z</time>
      </trkpt>
      <trkpt lat="59.9070358" lon="17.6537397">
        <ele>28.0155</ele>
        <time>2013-04-14T10:32:49Z</time>
      </trkpt>
      <trkpt lat="59.9070312" lon="17.6538823">
        <ele>28.0155</ele>
        <time>2013-04-14T10:32:50Z</time>
      </trkpt>
      <trkpt lat="59.9070255" lon="17.6540263">
        <ele>27.5349</ele>
        <time>2013-04-14T10:32:51Z</time>
      </trkpt>
      <trkpt lat="59.9070207" lon="17.6541727">
        <ele>27.5349</ele>
        <time>2013-04-14T10:32:52Z</time>
      </trkpt>
      <trkpt lat="59.9070166" lon="17.6543162">
        <ele>27.5349</ele>
        <time>2013-04-14T10:32:53Z</time>
      </trkpt>
      <trkpt lat="59.9070145" lon="17.6544565">
        <ele>27.5349</ele>
        <time>2013-04-14T10:32:54Z</time>
      </trkpt>
      <trkpt lat="59.9070136" lon="17.6545918">
        <ele>27.5349</ele>
        <time>2013-04-14T10:32:55Z</time>
      </trkpt>
      <trkpt lat="59.9070112" lon="17.6547244">
        <ele>27.5349</ele>
        <time>2013-04-14T10:32:56Z</time>
      </trkpt>
      <trkpt lat="59.9070076" lon="17.654856">
        <ele>28.0155</ele>
        <time>2013-04-14T10:32:57Z</time>
      </trkpt>
      <trkpt lat="59.9070055" lon="17.6549871">
        <ele>28.0155</ele>
        <time>2013-04-14T10:32:58Z</time>
      </trkpt>
      <trkpt lat="59.9070048" lon="17.6551176">
        <ele>28.4962</ele>
        <time>2013-04-14T10:32:59Z</time>
      </trkpt>
      <trkpt lat="59.9070051" lon="17.6552477">
        <ele>28.4962</ele>
        <time>2013-04-14T10:33:00Z</time>
      </trkpt>
      <trkpt lat="59.9070051" lon="17.6553771">
        <ele>28.4962</ele>
        <time>2013-04-14T10:33:01Z</time>
      </trkpt>
      <trkpt lat="59.907004" lon="17.6555056">
        <ele>28.9769</ele>
        <time>2013-04-14T10:33:02Z</time>
      </trkpt>
      <trkpt lat="59.9070035" lon="17.6556324">
        <ele>28.9769</ele>
        <time>2013-04-14T10:33:03Z</time>
      </trkpt>
      <trkpt lat="59.9070055" lon="17.6557568">
        <ele>29.4575</ele>
        <time>2013-04-14T10:33:04Z</time>
      </trkpt>
      <trkpt lat="59.9070092" lon="17.6558797">
        <ele>29.4575</ele>
        <time>2013-04-14T10:33:05Z</time>
      </trkpt>
      <trkpt lat="59.9070131" lon="17.6560013">
        <ele>29.9381</ele>
        <time>2013-04-14T10:33:06Z</time>
      </trkpt>
      <trkpt lat="59.9070166" lon="17.6561206">
        <ele>29.9381</ele>
        <time>2013-04-14T10:33:07Z</time>
      </trkpt>
      <trkpt lat="59.9070198" lon="17.6562361">
        <ele>30.4188</ele>
        <time>2013-04-14T10:33:08Z</time>
      </trkpt>
      <trkpt lat="59.907024" lon="17.6563488">
        <ele>30.4188</ele>
        <time>2013-04-14T10:33:09Z</time>
      </trkpt>
      <trkpt lat="59.907029" lon="17.6564609">
        <ele>30.4188</ele>
        <time>2013-04-14T10:33:10Z</time>
      </trkpt>
      <trkpt lat="59.9070332" lon="17.6565726">
        <ele>30.4188</ele>
        <time>2013-04-14T10:33:11Z</time>
      </trkpt>
      <trkpt lat="59.9070392" lon="17.6566841">
        <ele>30.4188</ele>
        <time>2013-04-14T10:33:12Z</time>
      </trkpt>
      <trkpt lat="59.9070487" lon="17.6567954">
        <ele>30.4188</ele>
        <time>2013-04-14T10:33:13Z</time>
      </trkpt>
      <trkpt lat="59.9070595" lon="17.6569079">
        <ele>30.4188</ele>
        <time>2013-04-14T10:33:14Z</time>
      </trkpt>
      <trkpt lat="59.9070724" lon="17.6570213">
        <ele>30.4188</ele>
        <time>2013-04-14T10:33:15Z</time>
      </trkpt>
      <trkpt lat="59.9070891" lon="17.6571337">
        <ele>30.4188</ele>
        <time>2013-04-14T10:33:16Z</time>
      </trkpt>
      <trkpt lat="59.9071087" lon="17.6572454">
        <ele>30.4188</ele>
        <time>2013-04-14T10:33:17Z</time>
      </trkpt>
      <trkpt lat="59.9071295" lon="17.6573574">
        <ele>30.4188</ele>
        <time>2013-04-14T10:33:18Z</time>
      </trkpt>
      <trkpt lat="59.9071501" lon="17.6574707">
        <ele>30.4188</ele>
        <time>2013-04-14T10:33:19Z</time>
      </trkpt>
      <trkpt lat="59.9071697" lon="17.6575847">
        <ele>30.4188</ele>
        <time>2013-04-14T10:33:20Z</time>
      </trkpt>
      <trkpt lat="59.9071889" lon="17.6576994">
        <ele>30.8995</ele>
        <time>2013-04-14T10:33:21Z</time>
      </trkpt>
      <trkpt lat="59.9072076" lon="17.6578153">
        <ele>30.8995</ele>
        <time>2013-04-14T10:33:22Z</time>
      </trkpt>
      <trkpt lat="59.9072262" lon="17.6579315">
        <ele>30.8995</ele>
        <time>2013-04-14T10:33:23Z</time>
      </trkpt>
      <trkpt lat="59.9072441" lon="17.6580475">
        <ele>30.8995</ele>
        <time>2013-04-14T10:33:24Z</time>
      </trkpt>
      <trkpt lat="59.9072611" lon="17.6581628">
        <ele>31.3801</ele>
        <time>2013-04-14T10:33:25Z</time>
      </trkpt>
      <trkpt lat="59.9072751" lon="17.658278">
        <ele>31.3801</ele>
        <time>2013-04-14T10:33:26Z</time>
      </trkpt>
      <trkpt lat="59.9072884" lon="17.6583923">
        <ele>31.3801</ele>
        <time>2013-04-14T10:33:27Z</time>
      </trkpt>
      <trkpt lat="59.9073027" lon="17.6585038">
        <ele>31.3801</ele>
        <time>2013-04-14T10:33:28Z</time>
      </trkpt>
      <trkpt lat="59.9073174" lon="17.6586137">
        <ele>31.3801</ele>
        <time>2013-04-14T10:33:29Z</time>
      </trkpt>
      <trkpt lat="59.9073319" lon="17.6587255">
        <ele>31.3801</ele>
        <time>2013-04-14T10:33:30Z</time>
      </trkpt>
      <trkpt lat="59.907344" lon="17.6588344">
        <ele>31.8607</ele>
        <time>2013-04-14T10:33:31Z</time>
      </trkpt>
      <trkpt lat="59.9073567" lon="17.6589446">
        <ele>31.8607</ele>
        <time>2013-04-14T10:33:32Z</time>
      </trkpt>
      <trkpt lat="59.9073703" lon="17.6590561">
        <ele>31.8607</ele>
        <time>2013-04-14T10:33:33Z</time>
      </trkpt>
      <trkpt lat="59.9073818" lon="17.6591694">
        <ele>31.8607</ele>
        <time>2013-04-14T10:33:34Z</time>
      </trkpt>
      <trkpt lat="59.9073905" lon="17.6592839">
        <ele>31.8607</ele>
        <time>2013-04-14T10:33:35Z</time>
      </trkpt>
      <trkpt lat="59.9073993" lon="17.6593984">
        <ele>31.8607</ele>
        <time>2013-04-14T10:33:36Z</time>
      </trkpt>
      <trkpt lat="59.9074072" lon="17.659515">
        <ele>31.8607</ele>
        <time>2013-04-14T10:33:37Z</time>
      </trkpt>
      <trkpt lat="59.907416" lon="17.6596321">
        <ele>31.8607</ele>
        <time>2013-04-14T10:33:38Z</time>
      </trkpt>
      <trkpt lat="59.9074293" lon="17.6597497">
        <ele>31.8607</ele>
        <time>2013-04-14T10:33:39Z</time>
      </trkpt>
      <trkpt lat="59.9074455" lon="17.6598671">
        <ele>31.8607</ele>
        <time>2013-04-14T10:33:40Z</time>
      </trkpt>
      <trkpt lat="59.907463" lon="17.6599836">
        <ele>31.8607</ele>
        <time>2013-04-14T10:33:41Z</time>
      </trkpt>
      <trkpt lat="59.9074833" lon="17.6600991">
        <ele>31.8607</ele>
        <time>2013-04-14T10:33:42Z</time>
      </trkpt>
      <trkpt lat="59.907505" lon="17.6602146">
        <ele>31.8607</ele>
        <time>2013-04-14T10:33:43Z</time>
      </trkpt>
      <trkpt lat="59.9075253" lon="17.6603301">
        <ele>32.3416</ele>
        <time>2013-04-14T10:33:44Z</time>
      </trkpt>
      <trkpt lat="59.907546" lon="17.6604457">
        <ele>32.3416</ele>
        <time>2013-04-14T10:33:45Z</time>
      </trkpt>
      <trkpt lat="59.907565" lon="17.6605586">
        <ele>32.8223</ele>
        <time>2013-04-14T10:33:46Z</time>
      </trkpt>
      <trkpt lat="59.9075829" lon="17.6606697">
        <ele>32.8223</ele>
        <time>2013-04-14T10:33:47Z</time>
      </trkpt>
      <trkpt lat="59.907601" lon="17.6607808">
        <ele>33.3029</ele>
        <time>2013-04-14T10:33:48Z</time>
      </trkpt>
      <trkpt lat="59.9076191" lon="17.6608919">
        <ele>32.8223</ele>
        <time>2013-04-14T10:33:49Z</time>
      </trkpt>
      <trkpt lat="59.907634" lon="17.6610063">
        <ele>32.8223</ele>
        <time>2013-04-14T10:33:50Z</time>
      </trkpt>
      <trkpt lat="59.9076454" lon="17.6611255">
        <ele>32.8223</ele>
        <time>2013-04-14T10:33:51Z</time>
      </trkpt>
      <trkpt lat="59.9076546" lon="17.6612503">
        <ele>32.3416</ele>
        <time>2013-04-14T10:33:52Z</time>
      </trkpt>
      <trkpt lat="59.907663" lon="17.661381">
        <ele>32.3416</ele>
        <time>2013-04-14T10:33:53Z</time>
      </trkpt>
      <trkpt lat="59.9076717" lon="17.6615127">
        <ele>32.3416</ele>
        <time>2013-04-14T10:33:54Z</time>
      </trkpt>
      <trkpt lat="59.9076837" lon="17.6616459">
        <ele>31.8607</ele>
        <time>2013-04-14T10:33:55Z</time>
      </trkpt>
      <trkpt lat="59.9076966" lon="17.6617803">
        <ele>31.8607</ele>
        <time>2013-04-14T10:33:56Z</time>
      </trkpt>
      <trkpt lat="59.9077086" lon="17.6619153">
        <ele>31.3801</ele>
        <time>2013-04-14T10:33:57Z</time>
      </trkpt>
      <trkpt lat="59.9077207" lon="17.6620506">
        <ele>31.3801</ele>
        <time>2013-04-14T10:33:58Z</time>
      </trkpt>
      <trkpt lat="59.9077335" lon="17.6621838">
        <ele>31.3801</ele>
        <time>2013-04-14T10:33:59Z</time>
      </trkpt>
      <trkpt lat="59.9077496" lon="17.6623143">
        <ele>31.3801</ele>
        <time>2013-04-14T10:34:00Z</time>
      </trkpt>
      <trkpt lat="59.907766" lon="17.6624412">
        <ele>30.8995</ele>
        <time>2013-04-14T10:34:01Z</time>
      </trkpt>
      <trkpt lat="59.9077838" lon="17.6625662">
        <ele>30.8995</ele>
        <time>2013-04-14T10:34:02Z</time>
      </trkpt>
      <trkpt lat="59.9078022" lon="17.6626895">
        <ele>30.8995</ele>
        <time>2013-04-14T10:34:03Z</time>
      </trkpt>
      <trkpt lat="59.9078196" lon="17.6628106">
        <ele>30.8995</ele>
        <time>2013-04-14T10:34:04Z</time>
      </trkpt>
      <trkpt lat="59.9078343" lon="17.6629307">
        <ele>30.8995</ele>
        <time>2013-04-14T10:34:05Z</time>
      </trkpt>
      <trkpt lat="59.9078478" lon="17.6630509">
        <ele>30.8995</ele>
        <time>2013-04-14T10:34:06Z</time>
      </trkpt>
      <trkpt lat="59.9078608" lon="17.6631695">
        <ele>30.8995</ele>
        <time>2013-04-14T10:34:07Z</time>
      </trkpt>
      <trkpt lat="59.9078742" lon="17.663286">
        <ele>30.8995</ele>
        <time>2013-04-14T10:34:08Z</time>
      </trkpt>
      <trkpt lat="59.9078884" lon="17.6634021">
        <ele>30.8995</ele>
        <time>2013-04-14T10:34:09Z</time>
      </trkpt>
      <trkpt lat="59.9079025" lon="17.663519">
        <ele>30.8995</ele>
        <time>2013-04-14T10:34:10Z</time>
      </trkpt>
      <trkpt lat="59.9079153" lon="17.6636374">
        <ele>31.3801</ele>
        <time>2013-04-14T10:34:11Z</time>
      </trkpt>
      <trkpt lat="59.9079255" lon="17.6637575">
        <ele>31.3801</ele>
        <time>2013-04-14T10:34:12Z</time>
      </trkpt>
      <trkpt lat="59.9079346" lon="17.6638785">
        <ele>31.3801</ele>
        <time>2013-04-14T10:34:13Z</time>
      </trkpt>
      <trkpt lat="59.9079438" lon="17.6639999">
        <ele>31.3801</ele>
        <time>2013-04-14T10:34:14Z</time>
      </trkpt>
      <trkpt lat="59.9079511" lon="17.6641212">
        <ele>31.3801</ele>
        <time>2013-04-14T10:34:15Z</time>
      </trkpt>
      <trkpt lat="59.9079563" lon="17.6642413">
        <ele>31.3801</ele>
        <time>2013-04-14T10:34:16Z</time>
      </trkpt>
      <trkpt lat="59.9079597" lon="17.6643615">
        <ele>31.8607</ele>
        <time>2013-04-14T10:34:17Z</time>
      </trkpt>
      <trkpt lat="59.9079579" lon="17.6644828">
        <ele>31.8607</ele>
        <time>2013-04-14T10:34:18Z</time>
      </trkpt>
      <trkpt lat="59.9079567" lon="17.6646018">
        <ele>31.8607</ele>
        <time>2013-04-14T10:34:19Z</time>
      </trkpt>
      <trkpt lat="59.9079551" lon="17.6647166">
        <ele>31.8607</ele>
        <time>2013-04-14T10:34:20Z</time>
      </trkpt>
      <trkpt lat="59.907951" lon="17.6648324">
        <ele>32.3416</ele>
        <time>2013-04-14T10:34:21Z</time>
      </trkpt>
      <trkpt lat="59.9079496" lon="17.6649451">
        <ele>32.8223</ele>
        <time>2013-04-14T10:34:22Z</time>
      </trkpt>
      <trkpt lat="59.9079444" lon="17.6650597">
        <ele>32.8223</ele>
        <time>2013-04-14T10:34:23Z</time>
      </trkpt>
      <trkpt lat="59.9079364" lon="17.6651823">
        <ele>32.8223</ele>
        <time>2013-04-14T10:34:24Z</time>
      </trkpt>
      <trkpt lat="59.9079274" lon="17.6653078">
        <ele>33.3029</ele>
        <time>2013-04-14T10:34:25Z</time>
      </trkpt>
      <trkpt lat="59.9079151" lon="17.6654338">
        <ele>32.8223</ele>
        <time>2013-04-14T10:34:26Z</time>
      </trkpt>
      <trkpt lat="59.9079094" lon="17.6655577">
        <ele>33.3029</ele>
        <time>2013-04-14T10:34:27Z</time>
      </trkpt>
      <trkpt lat="59.9079034" lon="17.6656824">
        <ele>33.7834</ele>
        <time>2013-04-14T10:34:28Z</time>
      </trkpt>
      <trkpt lat="59.9078901" lon="17.6658115">
        <ele>33.7834</ele>
        <time>2013-04-14T10:34:29Z</time>
      </trkpt>
      <trkpt lat="59.9078732" lon="17.6659459">
        <ele>33.7834</ele>
        <time>2013-04-14T10:34:30Z</time>
      </trkpt>
      <trkpt lat="59.9078629" lon="17.6660813">
        <ele>34.2642</ele>
        <time>2013-04-14T10:34:31Z</time>
      </trkpt>
      <trkpt lat="59.9078542" lon="17.6662202">
        <ele>34.2642</ele>
        <time>2013-04-14T10:34:32Z</time>
      </trkpt>
      <trkpt lat="59.9078432" lon="17.666358">
        <ele>34.7449</ele>
        <time>2013-04-14T10:34:33Z</time>
      </trkpt>
      <trkpt lat="59.9078313" lon="17.6664906">
        <ele>34.7449</ele>
        <time>2013-04-14T10:34:34Z</time>
      </trkpt>
      <trkpt lat="59.9078233" lon="17.6666216">
        <ele>35.2255</ele>
        <time>2013-04-14T10:34:35Z</time>
      </trkpt>
      <trkpt lat="59.907811" lon="17.6667392">
        <ele>35.7061</ele>
        <time>2013-04-14T10:34:36Z</time>
      </trkpt>
      <trkpt lat="59.9078045" lon="17.6668529">
        <ele>35.7061</ele>
        <time>2013-04-14T10:34:37Z</time>
      </trkpt>
      <trkpt lat="59.9077989" lon="17.6669658">
        <ele>36.1868</ele>
        <time>2013-04-14T10:34:38Z</time>
      </trkpt>
      <trkpt lat="59.9077978" lon="17.6670806">
        <ele>36.1868</ele>
        <time>2013-04-14T10:34:39Z</time>
      </trkpt>
      <trkpt lat="59.9077978" lon="17.6671966">
        <ele>36.6675</ele>
        <time>2013-04-14T10:34:40Z</time>
      </trkpt>
      <trkpt lat="59.9077997" lon="17.6673126">
        <ele>37.1481</ele>
        <time>2013-04-14T10:34:41Z</time>
      </trkpt>
      <trkpt lat="59.9077982" lon="17.667426">
        <ele>37.1481</ele>
        <time>2013-04-14T10:34:42Z</time>
      </trkpt>
      <trkpt lat="59.9077939" lon="17.6675405">
        <ele>37.1481</ele>
        <time>2013-04-14T10:34:43Z</time>
      </trkpt>
      <trkpt lat="59.9077771" lon="17.6676589">
        <ele>36.6675</ele>
        <time>2013-04-14T10:34:44Z</time>
      </trkpt>
      <trkpt lat="59.9077572" lon="17.6677783">
        <ele>36.1868</ele>
        <time>2013-04-14T10:34:45Z</time>
      </trkpt>
      <trkpt lat="59.9077274" lon="17.6678949">
        <ele>35.7061</ele>
        <time>2013-04-14T10:34:46Z</time>
      </trkpt>
      <trkpt lat="59.9076934" lon="17.6679998">
        <ele>36.1868</ele>
        <time>2013-04-14T10:34:47Z</time>
      </trkpt>
      <trkpt lat="59.9076491" lon="17.6680885">
        <ele>36.6675</ele>
        <time>2013-04-14T10:34:48Z</time>
      </trkpt>
      <trkpt lat="59.9075945" lon="17.6681554">
        <ele>36.6675</ele>
        <time>2013-04-14T10:34:49Z</time>
      </trkpt>
      <trkpt lat="59.9075292" lon="17.6682091">
        <ele>36.1868</ele>
        <time>2013-04-14T10:34:50Z</time>
      </trkpt>
      <trkpt lat="59.9074616" lon="17.6682454">
        <ele>35.2255</ele>
        <time>2013-04-14T10:34:51Z</time>
      </trkpt>
      <trkpt lat="59.9073963" lon="17.6682698">
        <ele>34.7449</ele>
        <time>2013-04-14T10:34:52Z</time>
      </trkpt>
      <trkpt lat="59.9073303" lon="17.6682942">
        <ele>34.2642</ele>
        <time>2013-04-14T10:34:53Z</time>
      </trkpt>
      <trkpt lat="59.9072633" lon="17.6683194">
        <ele>34.2642</ele>
        <time>2013-04-14T10:34:54Z</time>
      </trkpt>
      <trkpt lat="59.9071965" lon="17.6683429">
        <ele>34.2642</ele>
        <time>2013-04-14T10:34:55Z</time>
      </trkpt>
      <trkpt lat="59.9071299" lon="17.6683626">
        <ele>34.2642</ele>
        <time>2013-04-14T10:34:56Z</time>
      </trkpt>
      <trkpt lat="59.9070612" lon="17.6683791">
        <ele>34.2642</ele>
        <time>2013-04-14T10:34:57Z</time>
      </trkpt>
      <trkpt lat="59.9069959" lon="17.6683979">
        <ele>34.2642</ele>
        <time>2013-04-14T10:34:58Z</time>
      </trkpt>
      <trkpt lat="59.9069361" lon="17.6684164">
        <ele>34.2642</ele>
        <time>2013-04-14T10:34:59Z</time>
      </trkpt>
      <trkpt lat="59.9068796" lon="17.6684344">
        <ele>34.2642</ele>
        <time>2013-04-14T10:35:00Z</time>
      </trkpt>
      <trkpt lat="59.906823" lon="17.6684546">
        <ele>34.2642</ele>
        <time>2013-04-14T10:35:01Z</time>
      </trkpt>
      <trkpt lat="59.9067674" lon="17.6684722">
        <ele>34.2642</ele>
        <time>2013-04-14T10:35:02Z</time>
      </trkpt>
      <trkpt lat="59.9067121" lon="17.6684883">
        <ele>34.2642</ele>
        <time>2013-04-14T10:35:03Z</time>
      </trkpt>
      <trkpt lat="59.9066572" lon="17.668506">
        <ele>34.2642</ele>
        <time>2013-04-14T10:35:04Z</time>
      </trkpt>
      <trkpt lat="59.9066022" lon="17.6685212">
        <ele>33.7834</ele>
        <time>2013-04-14T10:35:05Z</time>
      </trkpt>
      <trkpt lat="59.9065457" lon="17.668531">
        <ele>33.7834</ele>
        <time>2013-04-14T10:35:06Z</time>
      </trkpt>
      <trkpt lat="59.9064875" lon="17.6685395">
        <ele>33.3029</ele>
        <time>2013-04-14T10:35:07Z</time>
      </trkpt>
      <trkpt lat="59.9064274" lon="17.6685438">
        <ele>33.3029</ele>
        <time>2013-04-14T10:35:08Z</time>
      </trkpt>
      <trkpt lat="59.9063666" lon="17.6685404">
        <ele>33.3029</ele>
        <time>2013-04-14T10:35:09Z</time>
      </trkpt>
      <trkpt lat="59.9063057" lon="17.6685293">
        <ele>32.8223</ele>
        <time>2013-04-14T10:35:10Z</time>
      </trkpt>
      <trkpt lat="59.906244" lon="17.6685105">
        <ele>32.8223</ele>
        <time>2013-04-14T10:35:11Z</time>
      </trkpt>
      <trkpt lat="59.9061811" lon="17.6684893">
        <ele>32.8223</ele>
        <time>2013-04-14T10:35:12Z</time>
      </trkpt>
      <trkpt lat="59.9061173" lon="17.6684667">
        <ele>32.8223</ele>
        <time>2013-04-14T10:35:13Z</time>
      </trkpt>
      <trkpt lat="59.9060526" lon="17.6684434">
        <ele>32.3416</ele>
        <time>2013-04-14T10:35:14Z</time>
      </trkpt>
      <trkpt lat="59.9059874" lon="17.6684207">
        <ele>32.3416</ele>
        <time>2013-04-14T10:35:15Z</time>
      </trkpt>
      <trkpt lat="59.9059229" lon="17.6683957">
        <ele>32.3416</ele>
        <time>2013-04-14T10:35:16Z</time>
      </trkpt>
      <trkpt lat="59.9058603" lon="17.6683667">
        <ele>32.3416</ele>
        <time>2013-04-14T10:35:17Z</time>
      </trkpt>
      <trkpt lat="59.9057988" lon="17.6683357">
        <ele>32.3416</ele>
        <time>2013-04-14T10:35:18Z</time>
      </trkpt>
      <trkpt lat="59.9057377" lon="17.6683061">
        <ele>31.8607</ele>
        <time>2013-04-14T10:35:19Z</time>
      </trkpt>
      <trkpt lat="59.9056787" lon="17.6682785">
        <ele>32.3416</ele>
        <time>2013-04-14T10:35:20Z</time>
      </trkpt>
      <trkpt lat="59.9056195" lon="17.6682502">
        <ele>32.3416</ele>
        <time>2013-04-14T10:35:21Z</time>
      </trkpt>
      <trkpt lat="59.9055601" lon="17.6682222">
        <ele>32.3416</ele>
        <time>2013-04-14T10:35:22Z</time>
      </trkpt>
      <trkpt lat="59.9055012" lon="17.6681957">
        <ele>32.3416</ele>
        <time>2013-04-14T10:35:23Z</time>
      </trkpt>
      <trkpt lat="59.9054434" lon="17.6681678">
        <ele>32.3416</ele>
        <time>2013-04-14T10:35:24Z</time>
      </trkpt>
      <trkpt lat="59.9053859" lon="17.6681357">
        <ele>32.3416</ele>
        <time>2013-04-14T10:35:25Z</time>
      </trkpt>
      <trkpt lat="59.9053296" lon="17.668103">
        <ele>32.8223</ele>
        <time>2013-04-14T10:35:26Z</time>
      </trkpt>
      <trkpt lat="59.9052741" lon="17.6680704">
        <ele>32.8223</ele>
        <time>2013-04-14T10:35:27Z</time>
      </trkpt>
      <trkpt lat="59.9052199" lon="17.6680408">
        <ele>32.8223</ele>
        <time>2013-04-14T10:35:28Z</time>
      </trkpt>
      <trkpt lat="59.9051663" lon="17.6680124">
        <ele>32.8223</ele>
        <time>2013-04-14T10:35:29Z</time>
      </trkpt>
      <trkpt lat="59.9051149" lon="17.6679819">
        <ele>32.8223</ele>
        <time>2013-04-14T10:35:30Z</time>
      </trkpt>
      <trkpt lat="59.9050647" lon="17.6679523">
        <ele>32.8223</ele>
        <time>2013-04-14T10:35:31Z</time>
      </trkpt>
      <trkpt lat="59.9050133" lon="17.6679249">
        <ele>32.8223</ele>
        <time>2013-04-14T10:35:32Z</time>
      </trkpt>
      <trkpt lat="59.9049632" lon="17.6678988">
        <ele>32.8223</ele>
        <time>2013-04-14T10:35:33Z</time>
      </trkpt>
      <trkpt lat="59.9049144" lon="17.6678753">
        <ele>33.3029</ele>
        <time>2013-04-14T10:35:34Z</time>
      </trkpt>
      <trkpt lat="59.9048659" lon="17.6678556">
        <ele>33.7834</ele>
        <time>2013-04-14T10:35:35Z</time>
      </trkpt>
      <trkpt lat="59.9048191" lon="17.6678397">
        <ele>33.7834</ele>
        <time>2013-04-14T10:35:36Z</time>
      </trkpt>
      <trkpt lat="59.9047741" lon="17.667831">
        <ele>34.2642</ele>
        <time>2013-04-14T10:35:37Z</time>
      </trkpt>
      <trkpt lat="59.9047313" lon="17.6678264">
        <ele>34.7449</ele>
        <time>2013-04-14T10:35:38Z</time>
      </trkpt>
      <trkpt lat="59.9046902" lon="17.6678229">
        <ele>35.2255</ele>
        <time>2013-04-14T10:35:39Z</time>
      </trkpt>
      <trkpt lat="59.9046497" lon="17.6678208">
        <ele>35.7061</ele>
        <time>2013-04-14T10:35:40Z</time>
      </trkpt>
      <trkpt lat="59.9046089" lon="17.6678227">
        <ele>35.7061</ele>
        <time>2013-04-14T10:35:41Z</time>
      </trkpt>
      <trkpt lat="59.9045678" lon="17.6678275">
        <ele>35.7061</ele>
        <time>2013-04-14T10:35:42Z</time>
      </trkpt>
      <trkpt lat="59.9045255" lon="17.6678331">
        <ele>35.7061</ele>
        <time>2013-04-14T10:35:43Z</time>
      </trkpt>
      <trkpt lat="59.9044821" lon="17.6678384">
        <ele>35.7061</ele>
        <time>2013-04-14T10:35:44Z</time>
      </trkpt>
      <trkpt lat="59.90444" lon="17.6678455">
        <ele>36.1868</ele>
        <time>2013-04-14T10:35:45Z</time>
      </trkpt>
      <trkpt lat="59.9043986" lon="17.667854">
        <ele>36.6675</ele>
        <time>2013-04-14T10:35:46Z</time>
      </trkpt>
      <trkpt lat="59.9043567" lon="17.6678648">
        <ele>36.6675</ele>
        <time>2013-04-14T10:35:47Z</time>
      </trkpt>
      <trkpt lat="59.9043135" lon="17.6678799">
        <ele>37.1481</ele>
        <time>2013-04-14T10:35:48Z</time>
      </trkpt>
      <trkpt lat="59.9042707" lon="17.667898">
        <ele>37.1481</ele>
        <time>2013-04-14T10:35:49Z</time>
      </trkpt>
      <trkpt lat="59.9042283" lon="17.6679227">
        <ele>37.1481</ele>
        <time>2013-04-14T10:35:50Z</time>
      </trkpt>
      <trkpt lat="59.9041879" lon="17.6679532">
        <ele>37.6287</ele>
        <time>2013-04-14T10:35:51Z</time>
      </trkpt>
      <trkpt lat="59.9041487" lon="17.6679834">
        <ele>38.1094</ele>
        <time>2013-04-14T10:35:52Z</time>
      </trkpt>
      <trkpt lat="59.9041096" lon="17.6680139">
        <ele>39.0707</ele>
        <time>2013-04-14T10:35:53Z</time>
      </trkpt>
      <trkpt lat="59.9040671" lon="17.6680519">
        <ele>39.0707</ele>
        <time>2013-04-14T10:35:54Z</time>
      </trkpt>
      <trkpt lat="59.9040254" lon="17.6680953">
        <ele>39.5513</ele>
        <time>2013-04-14T10:35:55Z</time>
      </trkpt>
      <trkpt lat="59.9039848" lon="17.6681508">
        <ele>39.5513</ele>
        <time>2013-04-14T10:35:56Z</time>
      </trkpt>
      <trkpt lat="59.9039402" lon="17.6682182">
        <ele>40.5128</ele>
        <time>2013-04-14T10:35:57Z</time>
      </trkpt>
      <trkpt lat="59.9038966" lon="17.668293">
        <ele>40.0321</ele>
        <time>2013-04-14T10:35:58Z</time>
      </trkpt>
      <trkpt lat="59.9038577" lon="17.6683756">
        <ele>39.5513</ele>
        <time>2013-04-14T10:35:59Z</time>
      </trkpt>
      <trkpt lat="59.9038184" lon="17.6684655">
        <ele>39.0707</ele>
        <time>2013-04-14T10:36:00Z</time>
      </trkpt>
      <trkpt lat="59.9037799" lon="17.6685611">
        <ele>39.0707</ele>
        <time>2013-04-14T10:36:01Z</time>
      </trkpt>
      <trkpt lat="59.9037449" lon="17.668661">
        <ele>39.0707</ele>
        <time>2013-04-14T10:36:02Z</time>
      </trkpt>
      <trkpt lat="59.9037071" lon="17.668761">
        <ele>39.5513</ele>
        <time>2013-04-14T10:36:03Z</time>
      </trkpt>
      <trkpt lat="59.9036641" lon="17.6688604">
        <ele>40.5128</ele>
        <time>2013-04-14T10:36:04Z</time>
      </trkpt>
      <trkpt lat="59.9036273" lon="17.6689593">
        <ele>40.5128</ele>
        <time>2013-04-14T10:36:05Z</time>
      </trkpt>
      <trkpt lat="59.9035918" lon="17.6690598">
        <ele>40.9934</ele>
        <time>2013-04-14T10:36:06Z</time>
      </trkpt>
      <trkpt lat="59.9035566" lon="17.6691726">
        <ele>40.9934</ele>
        <time>2013-04-14T10:36:07Z</time>
      </trkpt>
      <trkpt lat="59.9035248" lon="17.669282">
        <ele>40.9934</ele>
        <time>2013-04-14T10:36:08Z</time>
      </trkpt>
      <trkpt lat="59.9034979" lon="17.6693924">
        <ele>40.9934</ele>
        <time>2013-04-14T10:36:09Z</time>
      </trkpt>
      <trkpt lat="59.9034724" lon="17.6695007">
        <ele>40.9934</ele>
        <time>2013-04-14T10:36:10Z</time>
      </trkpt>
      <trkpt lat="59.9034432" lon="17.6696047">
        <ele>40.5128</ele>
        <time>2013-04-14T10:36:11Z</time>
      </trkpt>
      <trkpt lat="59.9034075" lon="17.6697053">
        <ele>40.9934</ele>
        <time>2013-04-14T10:36:12Z</time>
      </trkpt>
      <trkpt lat="59.9033673" lon="17.669787">
        <ele>40.9934</ele>
        <time>2013-04-14T10:36:13Z</time>
      </trkpt>
      <trkpt lat="59.9033165" lon="17.669851">
        <ele>40.5128</ele>
        <time>2013-04-14T10:36:14Z</time>
      </trkpt>
      <trkpt lat="59.9032635" lon="17.6698812">
        <ele>40.0321</ele>
        <time>2013-04-14T10:36:15Z</time>
      </trkpt>
      <trkpt lat="59.9032013" lon="17.6698922">
        <ele>40.0321</ele>
        <time>2013-04-14T10:36:16Z</time>
      </trkpt>
      <trkpt lat="59.9031419" lon="17.6698786">
        <ele>39.5513</ele>
        <time>2013-04-14T10:36:17Z</time>
      </trkpt>
      <trkpt lat="59.9030857" lon="17.6698525">
        <ele>39.5513</ele>
        <time>2013-04-14T10:36:18Z</time>
      </trkpt>
      <trkpt lat="59.9030321" lon="17.6698209">
        <ele>39.0707</ele>
        <time>2013-04-14T10:36:19Z</time>
      </trkpt>
      <trkpt lat="59.9029813" lon="17.6697919">
        <ele>39.0707</ele>
        <time>2013-04-14T10:36:20Z</time>
      </trkpt>
      <trkpt lat="59.9029303" lon="17.6697714">
        <ele>39.0707</ele>
        <time>2013-04-14T10:36:21Z</time>
      </trkpt>
      <trkpt lat="59.9028824" lon="17.6697612">
        <ele>38.5901</ele>
        <time>2013-04-14T10:36:22Z</time>
      </trkpt>
      <trkpt lat="59.9028299" lon="17.6697607">
        <ele>38.5901</ele>
        <time>2013-04-14T10:36:23Z</time>
      </trkpt>
      <trkpt lat="59.9027744" lon="17.6697724">
        <ele>39.0707</ele>
        <time>2013-04-14T10:36:24Z</time>
      </trkpt>
      <trkpt lat="59.9027145" lon="17.6697909">
        <ele>39.0707</ele>
        <time>2013-04-14T10:36:25Z</time>
      </trkpt>
      <trkpt lat="59.902652" lon="17.6698151">
        <ele>38.5901</ele>
        <time>2013-04-14T10:36:26Z</time>
      </trkpt>
      <trkpt lat="59.9025871" lon="17.6698441">
        <ele>38.5901</ele>
        <time>2013-04-14T10:36:27Z</time>
      </trkpt>
      <trkpt lat="59.9025203" lon="17.6698739">
        <ele>38.5901</ele>
        <time>2013-04-14T10:36:28Z</time>
      </trkpt>
      <trkpt lat="59.9024524" lon="17.6698983">
        <ele>38.5901</ele>
        <time>2013-04-14T10:36:29Z</time>
      </trkpt>
      <trkpt lat="59.9023841" lon="17.6699125">
        <ele>38.5901</ele>
        <time>2013-04-14T10:36:30Z</time>
      </trkpt>
      <trkpt lat="59.902316" lon="17.669919">
        <ele>38.1094</ele>
        <time>2013-04-14T10:36:31Z</time>
      </trkpt>
      <trkpt lat="59.9022481" lon="17.6699154">
        <ele>38.1094</ele>
        <time>2013-04-14T10:36:32Z</time>
      </trkpt>
      <trkpt lat="59.9021823" lon="17.6698995">
        <ele>38.1094</ele>
        <time>2013-04-14T10:36:33Z</time>
      </trkpt>
      <trkpt lat="59.9021189" lon="17.6698732">
        <ele>38.1094</ele>
        <time>2013-04-14T10:36:34Z</time>
      </trkpt>
      <trkpt lat="59.9020585" lon="17.6698408">
        <ele>37.6287</ele>
        <time>2013-04-14T10:36:35Z</time>
      </trkpt>
      <trkpt lat="59.9020003" lon="17.6698007">
        <ele>37.6287</ele>
        <time>2013-04-14T10:36:36Z</time>
      </trkpt>
      <trkpt lat="59.9019454" lon="17.6697601">
        <ele>37.6287</ele>
        <time>2013-04-14T10:36:37Z</time>
      </trkpt>
      <trkpt lat="59.9018909" lon="17.669717">
        <ele>37.1481</ele>
        <time>2013-04-14T10:36:38Z</time>
      </trkpt>
      <trkpt lat="59.901837" lon="17.6696705">
        <ele>37.1481</ele>
        <time>2013-04-14T10:36:39Z</time>
      </trkpt>
      <trkpt lat="59.9017879" lon="17.6696255">
        <ele>37.6287</ele>
        <time>2013-04-14T10:36:40Z</time>
      </trkpt>
      <trkpt lat="59.9017348" lon="17.6695913">
        <ele>37.6287</ele>
        <time>2013-04-14T10:36:41Z</time>
      </trkpt>
      <trkpt lat="59.9016767" lon="17.6695662">
        <ele>37.6287</ele>
        <time>2013-04-14T10:36:42Z</time>
      </trkpt>
      <trkpt lat="59.901622" lon="17.6695452">
        <ele>37.6287</ele>
        <time>2013-04-14T10:36:43Z</time>
      </trkpt>
      <trkpt lat="59.9015654" lon="17.6695259">
        <ele>37.6287</ele>
        <time>2013-04-14T10:36:44Z</time>
      </trkpt>
      <trkpt lat="59.9015089" lon="17.669512">
        <ele>37.6287</ele>
        <time>2013-04-14T10:36:45Z</time>
      </trkpt>
      <trkpt lat="59.9014465" lon="17.6695091">
        <ele>37.6287</ele>
        <time>2013-04-14T10:36:46Z</time>
      </trkpt>
      <trkpt lat="59.9013818" lon="17.6695176">
        <ele>37.1481</ele>
        <time>2013-04-14T10:36:47Z</time>
      </trkpt>
      <trkpt lat="59.9013154" lon="17.6695266">
        <ele>37.1481</ele>
        <time>2013-04-14T10:36:48Z</time>
      </trkpt>
      <trkpt lat="59.9012494" lon="17.6695407">
        <ele>37.1481</ele>
        <time>2013-04-14T10:36:49Z</time>
      </trkpt>
      <trkpt lat="59.9011831" lon="17.6695631">
        <ele>37.6287</ele>
        <time>2013-04-14T10:36:50Z</time>
      </trkpt>
      <trkpt lat="59.9011189" lon="17.6695846">
        <ele>37.1481</ele>
        <time>2013-04-14T10:36:51Z</time>
      </trkpt>
      <trkpt lat="59.901062" lon="17.6696038">
        <ele>37.1481</ele>
        <time>2013-04-14T10:36:52Z</time>
      </trkpt>
      <trkpt lat="59.9010047" lon="17.6696312">
        <ele>37.1481</ele>
        <time>2013-04-14T10:36:53Z</time>
      </trkpt>
      <trkpt lat="59.9009531" lon="17.669655">
        <ele>37.1481</ele>
        <time>2013-04-14T10:36:54Z</time>
      </trkpt>
      <trkpt lat="59.9008977" lon="17.6696742">
        <ele>37.1481</ele>
        <time>2013-04-14T10:36:55Z</time>
      </trkpt>
      <trkpt lat="59.9008374" lon="17.6696867">
        <ele>37.6287</ele>
        <time>2013-04-14T10:36:56Z</time>
      </trkpt>
      <trkpt lat="59.9007729" lon="17.6696923">
        <ele>37.1481</ele>
        <time>2013-04-14T10:36:57Z</time>
      </trkpt>
      <trkpt lat="59.9007031" lon="17.6696961">
        <ele>37.1481</ele>
        <time>2013-04-14T10:36:58Z</time>
      </trkpt>
      <trkpt lat="59.9006268" lon="17.6697087">
        <ele>36.1868</ele>
        <time>2013-04-14T10:36:59Z</time>
      </trkpt>
      <trkpt lat="59.9005446" lon="17.669726">
        <ele>35.2255</ele>
        <time>2013-04-14T10:37:00Z</time>
      </trkpt>
      <trkpt lat="59.9004441" lon="17.6697923">
        <ele>35.2255</ele>
        <time>2013-04-14T10:37:01Z</time>
      </trkpt>
      <trkpt lat="59.9003641" lon="17.6698146">
        <ele>34.7449</ele>
        <time>2013-04-14T10:37:02Z</time>
      </trkpt>
      <trkpt lat="59.9002845" lon="17.6698346">
        <ele>34.7449</ele>
        <time>2013-04-14T10:37:03Z</time>
      </trkpt>
      <trkpt lat="59.9002089" lon="17.6698598">
        <ele>34.2642</ele>
        <time>2013-04-14T10:37:04Z</time>
      </trkpt>
      <trkpt lat="59.9001406" lon="17.6698835">
        <ele>34.2642</ele>
        <time>2013-04-14T10:37:05Z</time>
      </trkpt>
      <trkpt lat="59.9000799" lon="17.6699104">
        <ele>34.2642</ele>
        <time>2013-04-14T10:37:06Z</time>
      </trkpt>
      <trkpt lat="59.9000223" lon="17.6699338">
        <ele>34.7449</ele>
        <time>2013-04-14T10:37:07Z</time>
      </trkpt>
      <trkpt lat="59.8999689" lon="17.6699582">
        <ele>34.7449</ele>
        <time>2013-04-14T10:37:08Z</time>
      </trkpt>
      <trkpt lat="59.8999143" lon="17.6699936">
        <ele>34.7449</ele>
        <time>2013-04-14T10:37:09Z</time>
      </trkpt>
      <trkpt lat="59.8998581" lon="17.6700245">
        <ele>34.7449</ele>
        <time>2013-04-14T10:37:10Z</time>
      </trkpt>
      <trkpt lat="59.8998047" lon="17.6700496">
        <ele>34.2642</ele>
        <time>2013-04-14T10:37:11Z</time>
      </trkpt>
      <trkpt lat="59.8997506" lon="17.6700741">
        <ele>34.2642</ele>
        <time>2013-04-14T10:37:12Z</time>
      </trkpt>
      <trkpt lat="59.8996965" lon="17.6700969">
        <ele>33.7834</ele>
        <time>2013-04-14T10:37:13Z</time>
      </trkpt>
      <trkpt lat="59.8996374" lon="17.6701171">
        <ele>33.7834</ele>
        <time>2013-04-14T10:37:14Z</time>
      </trkpt>
      <trkpt lat="59.8995806" lon="17.670139">
        <ele>33.3029</ele>
        <time>2013-04-14T10:37:15Z</time>
      </trkpt>
      <trkpt lat="59.8995239" lon="17.6701699">
        <ele>33.3029</ele>
        <time>2013-04-14T10:37:16Z</time>
      </trkpt>
      <trkpt lat="59.8994692" lon="17.6702108">
        <ele>33.3029</ele>
        <time>2013-04-14T10:37:17Z</time>
      </trkpt>
      <trkpt lat="59.8994173" lon="17.670272">
        <ele>33.3029</ele>
        <time>2013-04-14T10:37:18Z</time>
      </trkpt>
      <trkpt lat="59.8993682" lon="17.6703524">
        <ele>34.2642</ele>
        <time>2013-04-14T10:37:19Z</time>
      </trkpt>
      <trkpt lat="59.8993374" lon="17.6704484">
        <ele>33.7834</ele>
        <time>2013-04-14T10:37:20Z</time>
      </trkpt>
      <trkpt lat="59.8993143" lon="17.6705616">
        <ele>34.2642</ele>
        <time>2013-04-14T10:37:21Z</time>
      </trkpt>
      <trkpt lat="59.8992999" lon="17.6706898">
        <ele>34.2642</ele>
        <time>2013-04-14T10:37:22Z</time>
      </trkpt>
      <trkpt lat="59.8992966" lon="17.6708175">
        <ele>34.2642</ele>
        <time>2013-04-14T10:37:23Z</time>
      </trkpt>
      <trkpt lat="59.8992894" lon="17.6709583">
        <ele>34.2642</ele>
        <time>2013-04-14T10:37:24Z</time>
      </trkpt>
      <trkpt lat="59.8992914" lon="17.6710956">
        <ele>34.7449</ele>
        <time>2013-04-14T10:37:25Z</time>
      </trkpt>
      <trkpt lat="59.8992961" lon="17.6712278">
        <ele>34.7449</ele>
        <time>2013-04-14T10:37:26Z</time>
      </trkpt>
      <trkpt lat="59.899304" lon="17.671355">
        <ele>34.7449</ele>
        <time>2013-04-14T10:37:27Z</time>
      </trkpt>
      <trkpt lat="59.8993076" lon="17.6714846">
        <ele>34.7449</ele>
        <time>2013-04-14T10:37:28Z</time>
      </trkpt>
      <trkpt lat="59.8993091" lon="17.67161">
        <ele>34.7449</ele>
        <time>2013-04-14T10:37:29Z</time>
      </trkpt>
      <trkpt lat="59.8993108" lon="17.6717308">
        <ele>34.7449</ele>
        <time>2013-04-14T10:37:30Z</time>
      </trkpt>
      <trkpt lat="59.8993168" lon="17.6718462">
        <ele>34.7449</ele>
        <time>2013-04-14T10:37:31Z</time>
      </trkpt>
      <trkpt lat="59.8993169" lon="17.6719664">
        <ele>35.7061</ele>
        <time>2013-04-14T10:37:32Z</time>
      </trkpt>
      <trkpt lat="59.8993092" lon="17.6720841">
        <ele>36.1868</ele>
        <time>2013-04-14T10:37:33Z</time>
      </trkpt>
      <trkpt lat="59.8992905" lon="17.6722037">
        <ele>37.1481</ele>
        <time>2013-04-14T10:37:34Z</time>
      </trkpt>
      <trkpt lat="59.8992717" lon="17.6723115">
        <ele>38.1094</ele>
        <time>2013-04-14T10:37:35Z</time>
      </trkpt>
      <trkpt lat="59.8992625" lon="17.672399">
        <ele>38.1094</ele>
        <time>2013-04-14T10:37:36Z</time>
      </trkpt>
      <trkpt lat="59.8992489" lon="17.6724896">
        <ele>38.5901</ele>
        <time>2013-04-14T10:37:37Z</time>
      </trkpt>
      <trkpt lat="59.8992309" lon="17.6725875">
        <ele>38.5901</ele>
        <time>2013-04-14T10:37:38Z</time>
      </trkpt>
      <trkpt lat="59.8992116" lon="17.6726802">
        <ele>38.5901</ele>
        <time>2013-04-14T10:37:39Z</time>
      </trkpt>
      <trkpt lat="59.8991978" lon="17.6727713">
        <ele>39.0707</ele>
        <time>2013-04-14T10:37:40Z</time>
      </trkpt>
      <trkpt lat="59.8991801" lon="17.6728657">
        <ele>39.0707</ele>
        <time>2013-04-14T10:37:41Z</time>
      </trkpt>
      <trkpt lat="59.8991647" lon="17.6729605">
        <ele>39.5513</ele>
        <time>2013-04-14T10:37:42Z</time>
      </trkpt>
      <trkpt lat="59.8991536" lon="17.6730589">
        <ele>40.0321</ele>
        <time>2013-04-14T10:37:43Z</time>
      </trkpt>
      <trkpt lat="59.899143" lon="17.6731557">
        <ele>40.0321</ele>
        <time>2013-04-14T10:37:44Z</time>
      </trkpt>
      <trkpt lat="59.8991382" lon="17.6732526">
        <ele>40.0321</ele>
        <time>2013-04-14T10:37:45Z</time>
      </trkpt>
      <trkpt lat="59.8991341" lon="17.6733468">
        <ele>40.5128</ele>
        <time>2013-04-14T10:37:46Z</time>
      </trkpt>
      <trkpt lat="59.8991263" lon="17.6734468">
        <ele>40.5128</ele>
        <time>2013-04-14T10:37:47Z</time>
      </trkpt>
      <trkpt lat="59.8991153" lon="17.6735561">
        <ele>40.0321</ele>
        <time>2013-04-14T10:37:48Z</time>
      </trkpt>
      <trkpt lat="59.8991048" lon="17.6736822">
        <ele>40.9934</ele>
        <time>2013-04-14T10:37:49Z</time>
      </trkpt>
      <trkpt lat="59.8990948" lon="17.6738144">
        <ele>40.9934</ele>
        <time>2013-04-14T10:37:50Z</time>
      </trkpt>
      <trkpt lat="59.8990843" lon="17.6739434">
        <ele>41.474</ele>
        <time>2013-04-14T10:37:51Z</time>
      </trkpt>
      <trkpt lat="59.89906" lon="17.6740633">
        <ele>40.9934</ele>
        <time>2013-04-14T10:37:52Z</time>
      </trkpt>
      <trkpt lat="59.8990355" lon="17.6741763">
        <ele>40.5128</ele>
        <time>2013-04-14T10:37:53Z</time>
      </trkpt>
      <trkpt lat="59.8990082" lon="17.674262">
        <ele>40.9934</ele>
        <time>2013-04-14T10:37:54Z</time>
      </trkpt>
      <trkpt lat="59.8989746" lon="17.6743359">
        <ele>40.9934</ele>
        <time>2013-04-14T10:37:55Z</time>
      </trkpt>
      <trkpt lat="59.8989335" lon="17.6743943">
        <ele>40.9934</ele>
        <time>2013-04-14T10:37:56Z</time>
      </trkpt>
      <trkpt lat="59.8988876" lon="17.6744544">
        <ele>40.9934</ele>
        <time>2013-04-14T10:37:57Z</time>
      </trkpt>
      <trkpt lat="59.8988429" lon="17.6745063">
        <ele>40.5128</ele>
        <time>2013-04-14T10:37:58Z</time>
      </trkpt>
      <trkpt lat="59.8987984" lon="17.6745631">
        <ele>40.5128</ele>
        <time>2013-04-14T10:37:59Z</time>
      </trkpt>
      <trkpt lat="59.8987486" lon="17.6746202">
        <ele>40.0321</ele>
        <time>2013-04-14T10:38:00Z</time>
      </trkpt>
      <trkpt lat="59.898701" lon="17.6746863">
        <ele>39.0707</ele>
        <time>2013-04-14T10:38:01Z</time>
      </trkpt>
      <trkpt lat="59.8986519" lon="17.674762">
        <ele>38.5901</ele>
        <time>2013-04-14T10:38:02Z</time>
      </trkpt>
      <trkpt lat="59.8986022" lon="17.674848">
        <ele>37.6287</ele>
        <time>2013-04-14T10:38:03Z</time>
      </trkpt>
      <trkpt lat="59.8985557" lon="17.6749481">
        <ele>37.1481</ele>
        <time>2013-04-14T10:38:04Z</time>
      </trkpt>
      <trkpt lat="59.8985145" lon="17.6750632">
        <ele>36.6675</ele>
        <time>2013-04-14T10:38:05Z</time>
      </trkpt>
      <trkpt lat="59.8984797" lon="17.6751889">
        <ele>36.6675</ele>
        <time>2013-04-14T10:38:06Z</time>
      </trkpt>
      <trkpt lat="59.8984544" lon="17.675322">
        <ele>36.1868</ele>
        <time>2013-04-14T10:38:07Z</time>
      </trkpt>
      <trkpt lat="59.8984358" lon="17.675462">
        <ele>36.1868</ele>
        <time>2013-04-14T10:38:08Z</time>
      </trkpt>
      <trkpt lat="59.8984249" lon="17.6756026">
        <ele>36.1868</ele>
        <time>2013-04-14T10:38:09Z</time>
      </trkpt>
      <trkpt lat="59.8984182" lon="17.6757442">
        <ele>35.7061</ele>
        <time>2013-04-14T10:38:10Z</time>
      </trkpt>
      <trkpt lat="59.8984088" lon="17.6758924">
        <ele>35.7061</ele>
        <time>2013-04-14T10:38:11Z</time>
      </trkpt>
      <trkpt lat="59.8983998" lon="17.6760451">
        <ele>35.2255</ele>
        <time>2013-04-14T10:38:12Z</time>
      </trkpt>
      <trkpt lat="59.8983872" lon="17.6761996">
        <ele>35.2255</ele>
        <time>2013-04-14T10:38:13Z</time>
      </trkpt>
      <trkpt lat="59.8983726" lon="17.6763548">
        <ele>34.7449</ele>
        <time>2013-04-14T10:38:14Z</time>
      </trkpt>
      <trkpt lat="59.8983568" lon="17.6765099">
        <ele>34.7449</ele>
        <time>2013-04-14T10:38:15Z</time>
      </trkpt>
      <trkpt lat="59.8983404" lon="17.6766651">
        <ele>34.2642</ele>
        <time>2013-04-14T10:38:16Z</time>
      </trkpt>
      <trkpt lat="59.8983249" lon="17.6768222">
        <ele>33.7834</ele>
        <time>2013-04-14T10:38:17Z</time>
      </trkpt>
      <trkpt lat="59.8983069" lon="17.6769796">
        <ele>33.3029</ele>
        <time>2013-04-14T10:38:18Z</time>
      </trkpt>
      <trkpt lat="59.8982865" lon="17.677137">
        <ele>33.3029</ele>
        <time>2013-04-14T10:38:19Z</time>
      </trkpt>
      <trkpt lat="59.8982637" lon="17.6772918">
        <ele>32.8223</ele>
        <time>2013-04-14T10:38:20Z</time>
      </trkpt>
      <trkpt lat="59.8982367" lon="17.6774449">
        <ele>32.8223</ele>
        <time>2013-04-14T10:38:21Z</time>
      </trkpt>
      <trkpt lat="59.898209" lon="17.677593">
        <ele>32.8223</ele>
        <time>2013-04-14T10:38:22Z</time>
      </trkpt>
      <trkpt lat="59.8981797" lon="17.677735">
        <ele>32.3416</ele>
        <time>2013-04-14T10:38:23Z</time>
      </trkpt>
      <trkpt lat="59.8981491" lon="17.6778708">
        <ele>32.3416</ele>
        <time>2013-04-14T10:38:24Z</time>
      </trkpt>
      <trkpt lat="59.8981176" lon="17.6780027">
        <ele>31.8607</ele>
        <time>2013-04-14T10:38:25Z</time>
      </trkpt>
      <trkpt lat="59.8980836" lon="17.6781264">
        <ele>31.3801</ele>
        <time>2013-04-14T10:38:26Z</time>
      </trkpt>
      <trkpt lat="59.8980478" lon="17.6782412">
        <ele>31.3801</ele>
        <time>2013-04-14T10:38:27Z</time>
      </trkpt>
      <trkpt lat="59.898012" lon="17.6783474">
        <ele>30.8995</ele>
        <time>2013-04-14T10:38:28Z</time>
      </trkpt>
      <trkpt lat="59.8979777" lon="17.6784463">
        <ele>30.8995</ele>
        <time>2013-04-14T10:38:29Z</time>
      </trkpt>
      <trkpt lat="59.8979457" lon="17.6785405">
        <ele>30.8995</ele>
        <time>2013-04-14T10:38:30Z</time>
      </trkpt>
      <trkpt lat="59.8979145" lon="17.6786288">
        <ele>30.8995</ele>
        <time>2013-04-14T10:38:31Z</time>
      </trkpt>
      <trkpt lat="59.8978824" lon="17.6787143">
        <ele>30.8995</ele>
        <time>2013-04-14T10:38:32Z</time>
      </trkpt>
      <trkpt lat="59.8978503" lon="17.6787979">
        <ele>30.8995</ele>
        <time>2013-04-14T10:38:33Z</time>
      </trkpt>
      <trkpt lat="59.8978172" lon="17.6788795">
        <ele>30.8995</ele>
        <time>2013-04-14T10:38:34Z</time>
      </trkpt>
      <trkpt lat="59.8977836" lon="17.6789609">
        <ele>30.8995</ele>
        <time>2013-04-14T10:38:35Z</time>
      </trkpt>
      <trkpt lat="59.8977507" lon="17.6790446">
        <ele>30.8995</ele>
        <time>2013-04-14T10:38:36Z</time>
      </trkpt>
      <trkpt lat="59.8977187" lon="17.6791306">
        <ele>30.8995</ele>
        <time>2013-04-14T10:38:37Z</time>
      </trkpt>
      <trkpt lat="59.8976862" lon="17.6792178">
        <ele>31.3801</ele>
        <time>2013-04-14T10:38:38Z</time>
      </trkpt>
      <trkpt lat="59.8976525" lon="17.679305">
        <ele>31.3801</ele>
        <time>2013-04-14T10:38:39Z</time>
      </trkpt>
      <trkpt lat="59.8976184" lon="17.679391">
        <ele>31.3801</ele>
        <time>2013-04-14T10:38:40Z</time>
      </trkpt>
      <trkpt lat="59.8975834" lon="17.6794792">
        <ele>31.3801</ele>
        <time>2013-04-14T10:38:41Z</time>
      </trkpt>
      <trkpt lat="59.8975498" lon="17.6795661">
        <ele>31.3801</ele>
        <time>2013-04-14T10:38:42Z</time>
      </trkpt>
      <trkpt lat="59.8975158" lon="17.6796542">
        <ele>30.8995</ele>
        <time>2013-04-14T10:38:43Z</time>
      </trkpt>
      <trkpt lat="59.897482" lon="17.6797446">
        <ele>30.8995</ele>
        <time>2013-04-14T10:38:44Z</time>
      </trkpt>
      <trkpt lat="59.8974482" lon="17.6798353">
        <ele>30.8995</ele>
        <time>2013-04-14T10:38:45Z</time>
      </trkpt>
      <trkpt lat="59.8974138" lon="17.6799252">
        <ele>30.8995</ele>
        <time>2013-04-14T10:38:46Z</time>
      </trkpt>
      <trkpt lat="59.8973795" lon="17.6800158">
        <ele>30.8995</ele>
        <time>2013-04-14T10:38:47Z</time>
      </trkpt>
      <trkpt lat="59.8973453" lon="17.680108">
        <ele>30.8995</ele>
        <time>2013-04-14T10:38:48Z</time>
      </trkpt>
      <trkpt lat="59.8973112" lon="17.6802012">
        <ele>30.8995</ele>
        <time>2013-04-14T10:38:49Z</time>
      </trkpt>
      <trkpt lat="59.8972758" lon="17.6802933">
        <ele>30.8995</ele>
        <time>2013-04-14T10:38:50Z</time>
      </trkpt>
      <trkpt lat="59.8972386" lon="17.6803856">
        <ele>31.3801</ele>
        <time>2013-04-14T10:38:51Z</time>
      </trkpt>
      <trkpt lat="59.8972023" lon="17.6804794">
        <ele>31.3801</ele>
        <time>2013-04-14T10:38:52Z</time>
      </trkpt>
      <trkpt lat="59.8971656" lon="17.6805742">
        <ele>31.3801</ele>
        <time>2013-04-14T10:38:53Z</time>
      </trkpt>
      <trkpt lat="59.8971274" lon="17.6806684">
        <ele>31.3801</ele>
        <time>2013-04-14T10:38:54Z</time>
      </trkpt>
      <trkpt lat="59.8970887" lon="17.6807612">
        <ele>31.3801</ele>
        <time>2013-04-14T10:38:55Z</time>
      </trkpt>
      <trkpt lat="59.8970492" lon="17.6808537">
        <ele>31.3801</ele>
        <time>2013-04-14T10:38:56Z</time>
      </trkpt>
      <trkpt lat="59.8970101" lon="17.6809456">
        <ele>31.3801</ele>
        <time>2013-04-14T10:38:57Z</time>
      </trkpt>
      <trkpt lat="59.8969703" lon="17.6810352">
        <ele>31.3801</ele>
        <time>2013-04-14T10:38:58Z</time>
      </trkpt>
      <trkpt lat="59.8969294" lon="17.6811218">
        <ele>31.3801</ele>
        <time>2013-04-14T10:38:59Z</time>
      </trkpt>
      <trkpt lat="59.8968885" lon="17.6812072">
        <ele>31.3801</ele>
        <time>2013-04-14T10:39:00Z</time>
      </trkpt>
      <trkpt lat="59.8968464" lon="17.681289">
        <ele>31.3801</ele>
        <time>2013-04-14T10:39:01Z</time>
      </trkpt>
      <trkpt lat="59.8968031" lon="17.6813665">
        <ele>31.3801</ele>
        <time>2013-04-14T10:39:02Z</time>
      </trkpt>
      <trkpt lat="59.8967593" lon="17.6814403">
        <ele>31.3801</ele>
        <time>2013-04-14T10:39:03Z</time>
      </trkpt>
      <trkpt lat="59.8967149" lon="17.68151">
        <ele>31.8607</ele>
        <time>2013-04-14T10:39:04Z</time>
      </trkpt>
      <trkpt lat="59.8966717" lon="17.6815779">
        <ele>31.8607</ele>
        <time>2013-04-14T10:39:05Z</time>
      </trkpt>
      <trkpt lat="59.8966278" lon="17.6816431">
        <ele>32.3416</ele>
        <time>2013-04-14T10:39:06Z</time>
      </trkpt>
      <trkpt lat="59.8965823" lon="17.681705">
        <ele>32.8223</ele>
        <time>2013-04-14T10:39:07Z</time>
      </trkpt>
      <trkpt lat="59.8965351" lon="17.6817645">
        <ele>32.8223</ele>
        <time>2013-04-14T10:39:08Z</time>
      </trkpt>
      <trkpt lat="59.8964884" lon="17.6818244">
        <ele>32.8223</ele>
        <time>2013-04-14T10:39:09Z</time>
      </trkpt>
      <trkpt lat="59.8964426" lon="17.6818845">
        <ele>32.8223</ele>
        <time>2013-04-14T10:39:10Z</time>
      </trkpt>
      <trkpt lat="59.896396" lon="17.6819438">
        <ele>33.3029</ele>
        <time>2013-04-14T10:39:11Z</time>
      </trkpt>
      <trkpt lat="59.8963504" lon="17.6820002">
        <ele>33.3029</ele>
        <time>2013-04-14T10:39:12Z</time>
      </trkpt>
      <trkpt lat="59.8963069" lon="17.6820536">
        <ele>33.7834</ele>
        <time>2013-04-14T10:39:13Z</time>
      </trkpt>
      <trkpt lat="59.8962658" lon="17.6821055">
        <ele>33.7834</ele>
        <time>2013-04-14T10:39:14Z</time>
      </trkpt>
      <trkpt lat="59.8962252" lon="17.6821516">
        <ele>34.2642</ele>
        <time>2013-04-14T10:39:15Z</time>
      </trkpt>
      <trkpt lat="59.8961855" lon="17.6821965">
        <ele>34.2642</ele>
        <time>2013-04-14T10:39:16Z</time>
      </trkpt>
      <trkpt lat="59.8961515" lon="17.6822379">
        <ele>34.7449</ele>
        <time>2013-04-14T10:39:17Z</time>
      </trkpt>
      <trkpt lat="59.896118" lon="17.6822762">
        <ele>34.7449</ele>
        <time>2013-04-14T10:39:18Z</time>
      </trkpt>
      <trkpt lat="59.8960844" lon="17.6823157">
        <ele>35.2255</ele>
        <time>2013-04-14T10:39:19Z</time>
      </trkpt>
      <trkpt lat="59.8960524" lon="17.6823556">
        <ele>35.2255</ele>
        <time>2013-04-14T10:39:20Z</time>
      </trkpt>
      <trkpt lat="59.8960194" lon="17.6823946">
        <ele>35.7061</ele>
        <time>2013-04-14T10:39:21Z</time>
      </trkpt>
      <trkpt lat="59.8959815" lon="17.6824328">
        <ele>35.7061</ele>
        <time>2013-04-14T10:39:22Z</time>
      </trkpt>
      <trkpt lat="59.8959411" lon="17.6824679">
        <ele>36.1868</ele>
        <time>2013-04-14T10:39:23Z</time>
      </trkpt>
      <trkpt lat="59.8959011" lon="17.6824991">
        <ele>36.6675</ele>
        <time>2013-04-14T10:39:24Z</time>
      </trkpt>
      <trkpt lat="59.8958626" lon="17.6825284">
        <ele>36.6675</ele>
        <time>2013-04-14T10:39:25Z</time>
      </trkpt>
      <trkpt lat="59.8958243" lon="17.6825545">
        <ele>36.6675</ele>
        <time>2013-04-14T10:39:26Z</time>
      </trkpt>
      <trkpt lat="59.8957831" lon="17.6825793">
        <ele>36.6675</ele>
        <time>2013-04-14T10:39:27Z</time>
      </trkpt>
      <trkpt lat="59.8957396" lon="17.6826053">
        <ele>36.1868</ele>
        <time>2013-04-14T10:39:28Z</time>
      </trkpt>
      <trkpt lat="59.8956909" lon="17.6826415">
        <ele>35.2255</ele>
        <time>2013-04-14T10:39:29Z</time>
      </trkpt>
      <trkpt lat="59.895639" lon="17.6826838">
        <ele>35.2255</ele>
        <time>2013-04-14T10:39:30Z</time>
      </trkpt>
      <trkpt lat="59.8955894" lon="17.682732">
        <ele>34.7449</ele>
        <time>2013-04-14T10:39:31Z</time>
      </trkpt>
      <trkpt lat="59.8955442" lon="17.6827864">
        <ele>34.7449</ele>
        <time>2013-04-14T10:39:32Z</time>
      </trkpt>
      <trkpt lat="59.8954924" lon="17.6828459">
        <ele>34.2642</ele>
        <time>2013-04-14T10:39:33Z</time>
      </trkpt>
      <trkpt lat="59.8954399" lon="17.6829051">
        <ele>33.7834</ele>
        <time>2013-04-14T10:39:34Z</time>
      </trkpt>
      <trkpt lat="59.8953878" lon="17.6829669">
        <ele>33.7834</ele>
        <time>2013-04-14T10:39:35Z</time>
      </trkpt>
      <trkpt lat="59.895336" lon="17.6830321">
        <ele>33.3029</ele>
        <time>2013-04-14T10:39:36Z</time>
      </trkpt>
      <trkpt lat="59.8952845" lon="17.6830969">
        <ele>33.3029</ele>
        <time>2013-04-14T10:39:37Z</time>
      </trkpt>
      <trkpt lat="59.8952322" lon="17.6831648">
        <ele>32.3416</ele>
        <time>2013-04-14T10:39:38Z</time>
      </trkpt>
      <trkpt lat="59.8951804" lon="17.6832412">
        <ele>31.3801</ele>
        <time>2013-04-14T10:39:39Z</time>
      </trkpt>
      <trkpt lat="59.8951219" lon="17.6833176">
        <ele>30.8995</ele>
        <time>2013-04-14T10:39:40Z</time>
      </trkpt>
      <trkpt lat="59.8950712" lon="17.6833971">
        <ele>30.4188</ele>
        <time>2013-04-14T10:39:41Z</time>
      </trkpt>
      <trkpt lat="59.8950291" lon="17.6834838">
        <ele>30.4188</ele>
        <time>2013-04-14T10:39:42Z</time>
      </trkpt>
      <trkpt lat="59.8949909" lon="17.6835793">
        <ele>29.9381</ele>
        <time>2013-04-14T10:39:43Z</time>
      </trkpt>
      <trkpt lat="59.89495" lon="17.6836869">
        <ele>30.4188</ele>
        <time>2013-04-14T10:39:44Z</time>
      </trkpt>
      <trkpt lat="59.8949194" lon="17.6837963">
        <ele>29.9381</ele>
        <time>2013-04-14T10:39:45Z</time>
      </trkpt>
      <trkpt lat="59.8948956" lon="17.6839013">
        <ele>29.9381</ele>
        <time>2013-04-14T10:39:46Z</time>
      </trkpt>
      <trkpt lat="59.89488" lon="17.6840027">
        <ele>29.9381</ele>
        <time>2013-04-14T10:39:47Z</time>
      </trkpt>
      <trkpt lat="59.894866" lon="17.6841029">
        <ele>29.9381</ele>
        <time>2013-04-14T10:39:48Z</time>
      </trkpt>
      <trkpt lat="59.8948554" lon="17.6842063">
        <ele>29.4575</ele>
        <time>2013-04-14T10:39:49Z</time>
      </trkpt>
      <trkpt lat="59.894847" lon="17.6843132">
        <ele>29.4575</ele>
        <time>2013-04-14T10:39:50Z</time>
      </trkpt>
      <trkpt lat="59.8948401" lon="17.6844224">
        <ele>28.9769</ele>
        <time>2013-04-14T10:39:51Z</time>
      </trkpt>
      <trkpt lat="59.8948283" lon="17.6845375">
        <ele>28.9769</ele>
        <time>2013-04-14T10:39:52Z</time>
      </trkpt>
      <trkpt lat="59.8948206" lon="17.6846535">
        <ele>28.4962</ele>
        <time>2013-04-14T10:39:53Z</time>
      </trkpt>
      <trkpt lat="59.8948097" lon="17.6847716">
        <ele>28.4962</ele>
        <time>2013-04-14T10:39:54Z</time>
      </trkpt>
      <trkpt lat="59.8947999" lon="17.684889">
        <ele>28.0155</ele>
        <time>2013-04-14T10:39:55Z</time>
      </trkpt>
      <trkpt lat="59.8947922" lon="17.6850033">
        <ele>27.5349</ele>
        <time>2013-04-14T10:39:56Z</time>
      </trkpt>
      <trkpt lat="59.894786" lon="17.6851119">
        <ele>27.5349</ele>
        <time>2013-04-14T10:39:57Z</time>
      </trkpt>
      <trkpt lat="59.8947765" lon="17.6852238">
        <ele>27.5349</ele>
        <time>2013-04-14T10:39:58Z</time>
      </trkpt>
      <trkpt lat="59.8947693" lon="17.6853315">
        <ele>27.0543</ele>
        <time>2013-04-14T10:39:59Z</time>
      </trkpt>
      <trkpt lat="59.8947592" lon="17.6854433">
        <ele>27.0543</ele>
        <time>2013-04-14T10:40:00Z</time>
      </trkpt>
      <trkpt lat="59.8947506" lon="17.6855584">
        <ele>27.0543</ele>
        <time>2013-04-14T10:40:01Z</time>
      </trkpt>
      <trkpt lat="59.8947414" lon="17.6856777">
        <ele>27.0543</ele>
        <time>2013-04-14T10:40:02Z</time>
      </trkpt>
      <trkpt lat="59.8947292" lon="17.6858004">
        <ele>27.0543</ele>
        <time>2013-04-14T10:40:03Z</time>
      </trkpt>
      <trkpt lat="59.894719" lon="17.6859294">
        <ele>27.0543</ele>
        <time>2013-04-14T10:40:04Z</time>
      </trkpt>
      <trkpt lat="59.8947066" lon="17.6860599">
        <ele>27.5349</ele>
        <time>2013-04-14T10:40:05Z</time>
      </trkpt>
      <trkpt lat="59.894692" lon="17.6861916">
        <ele>27.5349</ele>
        <time>2013-04-14T10:40:06Z</time>
      </trkpt>
      <trkpt lat="59.8946759" lon="17.6863244">
        <ele>28.0155</ele>
        <time>2013-04-14T10:40:07Z</time>
      </trkpt>
      <trkpt lat="59.8946591" lon="17.6864558">
        <ele>28.0155</ele>
        <time>2013-04-14T10:40:08Z</time>
      </trkpt>
      <trkpt lat="59.8946432" lon="17.686582">
        <ele>28.0155</ele>
        <time>2013-04-14T10:40:09Z</time>
      </trkpt>
      <trkpt lat="59.8946268" lon="17.6867038">
        <ele>28.0155</ele>
        <time>2013-04-14T10:40:10Z</time>
      </trkpt>
      <trkpt lat="59.8946052" lon="17.6868203">
        <ele>28.0155</ele>
        <time>2013-04-14T10:40:11Z</time>
      </trkpt>
      <trkpt lat="59.8945828" lon="17.6869353">
        <ele>28.0155</ele>
        <time>2013-04-14T10:40:12Z</time>
      </trkpt>
      <trkpt lat="59.8945616" lon="17.687047">
        <ele>28.0155</ele>
        <time>2013-04-14T10:40:13Z</time>
      </trkpt>
      <trkpt lat="59.894543" lon="17.6871563">
        <ele>28.4962</ele>
        <time>2013-04-14T10:40:14Z</time>
      </trkpt>
      <trkpt lat="59.8945243" lon="17.6872612">
        <ele>28.4962</ele>
        <time>2013-04-14T10:40:15Z</time>
      </trkpt>
      <trkpt lat="59.8945029" lon="17.6873637">
        <ele>28.4962</ele>
        <time>2013-04-14T10:40:16Z</time>
      </trkpt>
      <trkpt lat="59.8944775" lon="17.687468">
        <ele>28.9769</ele>
        <time>2013-04-14T10:40:17Z</time>
      </trkpt>
      <trkpt lat="59.8944523" lon="17.6875715">
        <ele>28.9769</ele>
        <time>2013-04-14T10:40:18Z</time>
      </trkpt>
      <trkpt lat="59.8944286" lon="17.6876761">
        <ele>28.9769</ele>
        <time>2013-04-14T10:40:19Z</time>
      </trkpt>
      <trkpt lat="59.8944062" lon="17.6877811">
        <ele>28.9769</ele>
        <time>2013-04-14T10:40:20Z</time>
      </trkpt>
      <trkpt lat="59.8943849" lon="17.6878854">
        <ele>28.4962</ele>
        <time>2013-04-14T10:40:21Z</time>
      </trkpt>
      <trkpt lat="59.8943609" lon="17.687991">
        <ele>28.4962</ele>
        <time>2013-04-14T10:40:22Z</time>
      </trkpt>
      <trkpt lat="59.8943362" lon="17.6880946">
        <ele>28.4962</ele>
        <time>2013-04-14T10:40:23Z</time>
      </trkpt>
      <trkpt lat="59.8943128" lon="17.6882039">
        <ele>28.4962</ele>
        <time>2013-04-14T10:40:24Z</time>
      </trkpt>
      <trkpt lat="59.8942949" lon="17.6883094">
        <ele>28.4962</ele>
        <time>2013-04-14T10:40:25Z</time>
      </trkpt>
      <trkpt lat="59.8942793" lon="17.6884149">
        <ele>28.4962</ele>
        <time>2013-04-14T10:40:26Z</time>
      </trkpt>
      <trkpt lat="59.8942631" lon="17.6885202">
        <ele>28.0155</ele>
        <time>2013-04-14T10:40:27Z</time>
      </trkpt>
      <trkpt lat="59.8942461" lon="17.6886271">
        <ele>27.5349</ele>
        <time>2013-04-14T10:40:28Z</time>
      </trkpt>
      <trkpt lat="59.89423" lon="17.6887354">
        <ele>27.5349</ele>
        <time>2013-04-14T10:40:29Z</time>
      </trkpt>
      <trkpt lat="59.8942156" lon="17.6888478">
        <ele>27.5349</ele>
        <time>2013-04-14T10:40:30Z</time>
      </trkpt>
      <trkpt lat="59.8942027" lon="17.6889605">
        <ele>27.5349</ele>
        <time>2013-04-14T10:40:31Z</time>
      </trkpt>
      <trkpt lat="59.8941905" lon="17.6890733">
        <ele>27.5349</ele>
        <time>2013-04-14T10:40:32Z</time>
      </trkpt>
      <trkpt lat="59.8941792" lon="17.6891859">
        <ele>27.5349</ele>
        <time>2013-04-14T10:40:33Z</time>
      </trkpt>
      <trkpt lat="59.8941659" lon="17.6892985">
        <ele>27.5349</ele>
        <time>2013-04-14T10:40:34Z</time>
      </trkpt>
      <trkpt lat="59.8941523" lon="17.6894113">
        <ele>28.0155</ele>
        <time>2013-04-14T10:40:35Z</time>
      </trkpt>
      <trkpt lat="59.8941415" lon="17.6895346">
        <ele>28.4962</ele>
        <time>2013-04-14T10:40:36Z</time>
      </trkpt>
      <trkpt lat="59.894129" lon="17.6896565">
        <ele>28.4962</ele>
        <time>2013-04-14T10:40:37Z</time>
      </trkpt>
      <trkpt lat="59.8941171" lon="17.6897745">
        <ele>28.9769</ele>
        <time>2013-04-14T10:40:38Z</time>
      </trkpt>
      <trkpt lat="59.8941046" lon="17.6898812">
        <ele>29.4575</ele>
        <time>2013-04-14T10:40:39Z</time>
      </trkpt>
      <trkpt lat="59.8940884" lon="17.6899786">
        <ele>29.4575</ele>
        <time>2013-04-14T10:40:40Z</time>
      </trkpt>
      <trkpt lat="59.8940718" lon="17.6900789">
        <ele>29.9381</ele>
        <time>2013-04-14T10:40:41Z</time>
      </trkpt>
      <trkpt lat="59.8940539" lon="17.6901869">
        <ele>29.9381</ele>
        <time>2013-04-14T10:40:42Z</time>
      </trkpt>
      <trkpt lat="59.8940372" lon="17.6902972">
        <ele>29.9381</ele>
        <time>2013-04-14T10:40:43Z</time>
      </trkpt>
      <trkpt lat="59.8940226" lon="17.6904095">
        <ele>29.9381</ele>
        <time>2013-04-14T10:40:44Z</time>
      </trkpt>
      <trkpt lat="59.8940057" lon="17.6905287">
        <ele>29.9381</ele>
        <time>2013-04-14T10:40:45Z</time>
      </trkpt>
      <trkpt lat="59.8939881" lon="17.6906482">
        <ele>29.9381</ele>
        <time>2013-04-14T10:40:46Z</time>
      </trkpt>
      <trkpt lat="59.8939713" lon="17.6907711">
        <ele>29.4575</ele>
        <time>2013-04-14T10:40:47Z</time>
      </trkpt>
      <trkpt lat="59.8939546" lon="17.6908981">
        <ele>28.9769</ele>
        <time>2013-04-14T10:40:48Z</time>
      </trkpt>
      <trkpt lat="59.8939366" lon="17.6910253">
        <ele>28.9769</ele>
        <time>2013-04-14T10:40:49Z</time>
      </trkpt>
      <trkpt lat="59.8939203" lon="17.6911494">
        <ele>28.4962</ele>
        <time>2013-04-14T10:40:50Z</time>
      </trkpt>
      <trkpt lat="59.8939079" lon="17.6912782">
        <ele>28.0155</ele>
        <time>2013-04-14T10:40:51Z</time>
      </trkpt>
      <trkpt lat="59.8938981" lon="17.6914099">
        <ele>28.0155</ele>
        <time>2013-04-14T10:40:52Z</time>
      </trkpt>
      <trkpt lat="59.8938882" lon="17.6915493">
        <ele>28.0155</ele>
        <time>2013-04-14T10:40:53Z</time>
      </trkpt>
      <trkpt lat="59.8938797" lon="17.6916907">
        <ele>28.0155</ele>
        <time>2013-04-14T10:40:54Z</time>
      </trkpt>
      <trkpt lat="59.8938736" lon="17.6918355">
        <ele>28.0155</ele>
        <time>2013-04-14T10:40:55Z</time>
      </trkpt>
      <trkpt lat="59.8938688" lon="17.6919845">
        <ele>28.0155</ele>
        <time>2013-04-14T10:40:56Z</time>
      </trkpt>
      <trkpt lat="59.8938685" lon="17.6921392">
        <ele>28.0155</ele>
        <time>2013-04-14T10:40:57Z</time>
      </trkpt>
      <trkpt lat="59.8938654" lon="17.692297">
        <ele>28.0155</ele>
        <time>2013-04-14T10:40:58Z</time>
      </trkpt>
      <trkpt lat="59.8938608" lon="17.6924541">
        <ele>28.0155</ele>
        <time>2013-04-14T10:40:59Z</time>
      </trkpt>
      <trkpt lat="59.8938564" lon="17.6926091">
        <ele>28.0155</ele>
        <time>2013-04-14T10:41:00Z</time>
      </trkpt>
      <trkpt lat="59.8938501" lon="17.6927645">
        <ele>28.0155</ele>
        <time>2013-04-14T10:41:01Z</time>
      </trkpt>
      <trkpt lat="59.8938445" lon="17.6929199">
        <ele>28.0155</ele>
        <time>2013-04-14T10:41:02Z</time>
      </trkpt>
      <trkpt lat="59.8938379" lon="17.6930756">
        <ele>28.4962</ele>
        <time>2013-04-14T10:41:03Z</time>
      </trkpt>
      <trkpt lat="59.8938313" lon="17.6932275">
        <ele>28.4962</ele>
        <time>2013-04-14T10:41:04Z</time>
      </trkpt>
      <trkpt lat="59.893827" lon="17.6933759">
        <ele>28.4962</ele>
        <time>2013-04-14T10:41:05Z</time>
      </trkpt>
      <trkpt lat="59.8938212" lon="17.6935239">
        <ele>28.0155</ele>
        <time>2013-04-14T10:41:06Z</time>
      </trkpt>
      <trkpt lat="59.8938159" lon="17.6936714">
        <ele>28.4962</ele>
        <time>2013-04-14T10:41:07Z</time>
      </trkpt>
      <trkpt lat="59.8938092" lon="17.6938165">
        <ele>28.4962</ele>
        <time>2013-04-14T10:41:08Z</time>
      </trkpt>
      <trkpt lat="59.8938032" lon="17.6939595">
        <ele>28.4962</ele>
        <time>2013-04-14T10:41:09Z</time>
      </trkpt>
      <trkpt lat="59.8937992" lon="17.6940993">
        <ele>28.9769</ele>
        <time>2013-04-14T10:41:10Z</time>
      </trkpt>
      <trkpt lat="59.893796" lon="17.6942409">
        <ele>28.9769</ele>
        <time>2013-04-14T10:41:11Z</time>
      </trkpt>
      <trkpt lat="59.8937924" lon="17.6943812">
        <ele>28.9769</ele>
        <time>2013-04-14T10:41:12Z</time>
      </trkpt>
      <trkpt lat="59.8937887" lon="17.6945198">
        <ele>28.9769</ele>
        <time>2013-04-14T10:41:13Z</time>
      </trkpt>
      <trkpt lat="59.8937856" lon="17.6946576">
        <ele>28.9769</ele>
        <time>2013-04-14T10:41:14Z</time>
      </trkpt>
      <trkpt lat="59.8937814" lon="17.6947925">
        <ele>29.4575</ele>
        <time>2013-04-14T10:41:15Z</time>
      </trkpt>
      <trkpt lat="59.8937774" lon="17.6949255">
        <ele>29.4575</ele>
        <time>2013-04-14T10:41:16Z</time>
      </trkpt>
      <trkpt lat="59.8937737" lon="17.695058">
        <ele>29.4575</ele>
        <time>2013-04-14T10:41:17Z</time>
      </trkpt>
      <trkpt lat="59.8937688" lon="17.6951907">
        <ele>29.4575</ele>
        <time>2013-04-14T10:41:18Z</time>
      </trkpt>
      <trkpt lat="59.8937637" lon="17.6953222">
        <ele>29.4575</ele>
        <time>2013-04-14T10:41:19Z</time>
      </trkpt>
      <trkpt lat="59.8937596" lon="17.6954499">
        <ele>29.9381</ele>
        <time>2013-04-14T10:41:20Z</time>
      </trkpt>
      <trkpt lat="59.8937571" lon="17.6955757">
        <ele>29.9381</ele>
        <time>2013-04-14T10:41:21Z</time>
      </trkpt>
      <trkpt lat="59.8937561" lon="17.6956998">
        <ele>29.9381</ele>
        <time>2013-04-14T10:41:22Z</time>
      </trkpt>
      <trkpt lat="59.8937544" lon="17.6958208">
        <ele>30.4188</ele>
        <time>2013-04-14T10:41:23Z</time>
      </trkpt>
      <trkpt lat="59.8937527" lon="17.6959414">
        <ele>30.4188</ele>
        <time>2013-04-14T10:41:24Z</time>
      </trkpt>
      <trkpt lat="59.8937519" lon="17.6960601">
        <ele>30.4188</ele>
        <time>2013-04-14T10:41:25Z</time>
      </trkpt>
      <trkpt lat="59.8937504" lon="17.6961754">
        <ele>30.8995</ele>
        <time>2013-04-14T10:41:26Z</time>
      </trkpt>
      <trkpt lat="59.8937462" lon="17.6962875">
        <ele>30.4188</ele>
        <time>2013-04-14T10:41:27Z</time>
      </trkpt>
      <trkpt lat="59.8937461" lon="17.6964009">
        <ele>30.8995</ele>
        <time>2013-04-14T10:41:28Z</time>
      </trkpt>
      <trkpt lat="59.8937498" lon="17.6965174">
        <ele>31.3801</ele>
        <time>2013-04-14T10:41:29Z</time>
      </trkpt>
      <trkpt lat="59.8937522" lon="17.6966375">
        <ele>31.8607</ele>
        <time>2013-04-14T10:41:30Z</time>
      </trkpt>
      <trkpt lat="59.8937574" lon="17.696759">
        <ele>31.8607</ele>
        <time>2013-04-14T10:41:31Z</time>
      </trkpt>
      <trkpt lat="59.8937587" lon="17.6968859">
        <ele>31.8607</ele>
        <time>2013-04-14T10:41:32Z</time>
      </trkpt>
      <trkpt lat="59.8937487" lon="17.6970187">
        <ele>31.8607</ele>
        <time>2013-04-14T10:41:33Z</time>
      </trkpt>
      <trkpt lat="59.8937359" lon="17.6971593">
        <ele>31.8607</ele>
        <time>2013-04-14T10:41:34Z</time>
      </trkpt>
      <trkpt lat="59.8937178" lon="17.6973001">
        <ele>31.8607</ele>
        <time>2013-04-14T10:41:35Z</time>
      </trkpt>
      <trkpt lat="59.8936963" lon="17.6974338">
        <ele>31.3801</ele>
        <time>2013-04-14T10:41:36Z</time>
      </trkpt>
      <trkpt lat="59.8936701" lon="17.6975648">
        <ele>31.3801</ele>
        <time>2013-04-14T10:41:37Z</time>
      </trkpt>
      <trkpt lat="59.8936388" lon="17.6976919">
        <ele>30.8995</ele>
        <time>2013-04-14T10:41:38Z</time>
      </trkpt>
      <trkpt lat="59.8936042" lon="17.6978166">
        <ele>30.4188</ele>
        <time>2013-04-14T10:41:39Z</time>
      </trkpt>
      <trkpt lat="59.8935709" lon="17.6979378">
        <ele>29.9381</ele>
        <time>2013-04-14T10:41:40Z</time>
      </trkpt>
      <trkpt lat="59.8935344" lon="17.6980527">
        <ele>29.9381</ele>
        <time>2013-04-14T10:41:41Z</time>
      </trkpt>
      <trkpt lat="59.8934972" lon="17.6981616">
        <ele>29.4575</ele>
        <time>2013-04-14T10:41:42Z</time>
      </trkpt>
      <trkpt lat="59.893459" lon="17.6982672">
        <ele>29.4575</ele>
        <time>2013-04-14T10:41:43Z</time>
      </trkpt>
      <trkpt lat="59.89342" lon="17.6983648">
        <ele>28.9769</ele>
        <time>2013-04-14T10:41:44Z</time>
      </trkpt>
      <trkpt lat="59.8933795" lon="17.6984559">
        <ele>28.9769</ele>
        <time>2013-04-14T10:41:45Z</time>
      </trkpt>
      <trkpt lat="59.8933375" lon="17.6985411">
        <ele>28.4962</ele>
        <time>2013-04-14T10:41:46Z</time>
      </trkpt>
      <trkpt lat="59.8932981" lon="17.698624">
        <ele>28.4962</ele>
        <time>2013-04-14T10:41:47Z</time>
      </trkpt>
      <trkpt lat="59.8932681" lon="17.6987129">
        <ele>28.4962</ele>
        <time>2013-04-14T10:41:48Z</time>
      </trkpt>
      <trkpt lat="59.8932433" lon="17.6988123">
        <ele>28.9769</ele>
        <time>2013-04-14T10:41:49Z</time>
      </trkpt>
      <trkpt lat="59.8932313" lon="17.6989128">
        <ele>28.9769</ele>
        <time>2013-04-14T10:41:50Z</time>
      </trkpt>
      <trkpt lat="59.893222" lon="17.6990153">
        <ele>28.9769</ele>
        <time>2013-04-14T10:41:51Z</time>
      </trkpt>
      <trkpt lat="59.8932069" lon="17.6991126">
        <ele>28.9769</ele>
        <time>2013-04-14T10:41:52Z</time>
      </trkpt>
      <trkpt lat="59.8931864" lon="17.6992054">
        <ele>28.4962</ele>
        <time>2013-04-14T10:41:53Z</time>
      </trkpt>
      <trkpt lat="59.8931624" lon="17.6992922">
        <ele>28.4962</ele>
        <time>2013-04-14T10:41:54Z</time>
      </trkpt>
      <trkpt lat="59.893136" lon="17.6993738">
        <ele>28.0155</ele>
        <time>2013-04-14T10:41:55Z</time>
      </trkpt>
      <trkpt lat="59.8931042" lon="17.6994519">
        <ele>28.0155</ele>
        <time>2013-04-14T10:41:56Z</time>
      </trkpt>
      <trkpt lat="59.8930702" lon="17.6995307">
        <ele>28.0155</ele>
        <time>2013-04-14T10:41:57Z</time>
      </trkpt>
      <trkpt lat="59.8930363" lon="17.6996109">
        <ele>28.0155</ele>
        <time>2013-04-14T10:41:58Z</time>
      </trkpt>
      <trkpt lat="59.8930008" lon="17.6996908">
        <ele>28.0155</ele>
        <time>2013-04-14T10:41:59Z</time>
      </trkpt>
      <trkpt lat="59.8929655" lon="17.6997733">
        <ele>28.0155</ele>
        <time>2013-04-14T10:42:00Z</time>
      </trkpt>
      <trkpt lat="59.8929307" lon="17.6998581">
        <ele>28.0155</ele>
        <time>2013-04-14T10:42:01Z</time>
      </trkpt>
      <trkpt lat="59.8928954" lon="17.6999413">
        <ele>28.0155</ele>
        <time>2013-04-14T10:42:02Z</time>
      </trkpt>
      <trkpt lat="59.8928584" lon="17.7000203">
        <ele>28.0155</ele>
        <time>2013-04-14T10:42:03Z</time>
      </trkpt>
      <trkpt lat="59.8928204" lon="17.700098">
        <ele>27.5349</ele>
        <time>2013-04-14T10:42:04Z</time>
      </trkpt>
      <trkpt lat="59.8927846" lon="17.7001817">
        <ele>27.5349</ele>
        <time>2013-04-14T10:42:05Z</time>
      </trkpt>
      <trkpt lat="59.8927496" lon="17.7002703">
        <ele>27.0543</ele>
        <time>2013-04-14T10:42:06Z</time>
      </trkpt>
      <trkpt lat="59.8927164" lon="17.7003606">
        <ele>27.0543</ele>
        <time>2013-04-14T10:42:07Z</time>
      </trkpt>
      <trkpt lat="59.8926843" lon="17.7004497">
        <ele>27.0543</ele>
        <time>2013-04-14T10:42:08Z</time>
      </trkpt>
      <trkpt lat="59.8926523" lon="17.7005361">
        <ele>26.5736</ele>
        <time>2013-04-14T10:42:09Z</time>
      </trkpt>
      <trkpt lat="59.8926221" lon="17.7006186">
        <ele>26.5736</ele>
        <time>2013-04-14T10:42:10Z</time>
      </trkpt>
      <trkpt lat="59.8925931" lon="17.7006968">
        <ele>26.5736</ele>
        <time>2013-04-14T10:42:11Z</time>
      </trkpt>
      <trkpt lat="59.8925681" lon="17.7007647">
        <ele>26.5736</ele>
        <time>2013-04-14T10:42:12Z</time>
      </trkpt>
      <trkpt lat="59.8925481" lon="17.7008214">
        <ele>26.5736</ele>
        <time>2013-04-14T10:42:13Z</time>
      </trkpt>
      <trkpt lat="59.892532" lon="17.7008668">
        <ele>26.5736</ele>
        <time>2013-04-14T10:42:14Z</time>
      </trkpt>
      <trkpt lat="59.8925195" lon="17.700904">
        <ele>26.5736</ele>
        <time>2013-04-14T10:42:15Z</time>
      </trkpt>
      <trkpt lat="59.8925069" lon="17.7009237">
        <ele>26.5736</ele>
        <time>2013-04-14T10:42:16Z</time>
      </trkpt>
      <trkpt lat="59.8924919" lon="17.7009255">
        <ele>26.5736</ele>
        <time>2013-04-14T10:42:17Z</time>
      </trkpt>
      <trkpt lat="59.8924769" lon="17.7009321">
        <ele>26.5736</ele>
        <time>2013-04-14T10:42:18Z</time>
      </trkpt>
      <trkpt lat="59.8924665" lon="17.7009548">
        <ele>26.5736</ele>
        <time>2013-04-14T10:42:19Z</time>
      </trkpt>
      <trkpt lat="59.8924577" lon="17.7009817">
        <ele>27.0543</ele>
        <time>2013-04-14T10:42:20Z</time>
      </trkpt>
      <trkpt lat="59.8924491" lon="17.7010051">
        <ele>27.0543</ele>
        <time>2013-04-14T10:42:21Z</time>
      </trkpt>
      <trkpt lat="59.892442" lon="17.7010236">
        <ele>27.0543</ele>
        <time>2013-04-14T10:42:22Z</time>
      </trkpt>
      <trkpt lat="59.8924382" lon="17.70105">
        <ele>27.0543</ele>
        <time>2013-04-14T10:42:23Z</time>
      </trkpt>
      <trkpt lat="59.892447" lon="17.7010796">
        <ele>27.0543</ele>
        <time>2013-04-14T10:42:24Z</time>
      </trkpt>
      <trkpt lat="59.8924641" lon="17.7011105">
        <ele>27.0543</ele>
        <time>2013-04-14T10:42:25Z</time>
      </trkpt>
      <trkpt lat="59.8924883" lon="17.7011455">
        <ele>27.0543</ele>
        <time>2013-04-14T10:42:26Z</time>
      </trkpt>
      <trkpt lat="59.8925175" lon="17.7011811">
        <ele>27.0543</ele>
        <time>2013-04-14T10:42:27Z</time>
      </trkpt>
      <trkpt lat="59.892547" lon="17.70122">
        <ele>27.0543</ele>
        <time>2013-04-14T10:42:28Z</time>
      </trkpt>
      <trkpt lat="59.8925776" lon="17.7012623">
        <ele>27.0543</ele>
        <time>2013-04-14T10:42:29Z</time>
      </trkpt>
      <trkpt lat="59.8926092" lon="17.701306">
        <ele>27.0543</ele>
        <time>2013-04-14T10:42:30Z</time>
      </trkpt>
      <trkpt lat="59.8926428" lon="17.7013526">
        <ele>26.5736</ele>
        <time>2013-04-14T10:42:31Z</time>
      </trkpt>
      <trkpt lat="59.892679" lon="17.7014003">
        <ele>26.5736</ele>
        <time>2013-04-14T10:42:32Z</time>
      </trkpt>
      <trkpt lat="59.8927158" lon="17.7014493">
        <ele>26.5736</ele>
        <time>2013-04-14T10:42:33Z</time>
      </trkpt>
      <trkpt lat="59.8927518" lon="17.7014992">
        <ele>26.5736</ele>
        <time>2013-04-14T10:42:34Z</time>
      </trkpt>
      <trkpt lat="59.8927853" lon="17.7015511">
        <ele>26.5736</ele>
        <time>2013-04-14T10:42:35Z</time>
      </trkpt>
      <trkpt lat="59.8928174" lon="17.7016036">
        <ele>26.5736</ele>
        <time>2013-04-14T10:42:36Z</time>
      </trkpt>
      <trkpt lat="59.8928471" lon="17.7016533">
        <ele>26.0929</ele>
        <time>2013-04-14T10:42:37Z</time>
      </trkpt>
      <trkpt lat="59.8928816" lon="17.7016974">
        <ele>26.0929</ele>
        <time>2013-04-14T10:42:38Z</time>
      </trkpt>
      <trkpt lat="59.8929185" lon="17.7017369">
        <ele>25.6123</ele>
        <time>2013-04-14T10:42:39Z</time>
      </trkpt>
      <trkpt lat="59.8929536" lon="17.701782">
        <ele>25.6123</ele>
        <time>2013-04-14T10:42:40Z</time>
      </trkpt>
      <trkpt lat="59.8929884" lon="17.7018297">
        <ele>25.6123</ele>
        <time>2013-04-14T10:42:41Z</time>
      </trkpt>
      <trkpt lat="59.8930235" lon="17.7018771">
        <ele>25.6123</ele>
        <time>2013-04-14T10:42:42Z</time>
      </trkpt>
      <trkpt lat="59.8930582" lon="17.7019298">
        <ele>25.6123</ele>
        <time>2013-04-14T10:42:43Z</time>
      </trkpt>
      <trkpt lat="59.8930905" lon="17.7019949">
        <ele>25.1317</ele>
        <time>2013-04-14T10:42:44Z</time>
      </trkpt>
      <trkpt lat="59.893122" lon="17.7020704">
        <ele>25.1317</ele>
        <time>2013-04-14T10:42:45Z</time>
      </trkpt>
      <trkpt lat="59.8931537" lon="17.7021546">
        <ele>25.1317</ele>
        <time>2013-04-14T10:42:46Z</time>
      </trkpt>
      <trkpt lat="59.8931878" lon="17.7022455">
        <ele>25.1317</ele>
        <time>2013-04-14T10:42:47Z</time>
      </trkpt>
      <trkpt lat="59.8932285" lon="17.7023359">
        <ele>25.1317</ele>
        <time>2013-04-14T10:42:48Z</time>
      </trkpt>
      <trkpt lat="59.8932777" lon="17.70242">
        <ele>25.1317</ele>
        <time>2013-04-14T10:42:49Z</time>
      </trkpt>
      <trkpt lat="59.8933322" lon="17.7024968">
        <ele>24.651</ele>
        <time>2013-04-14T10:42:50Z</time>
      </trkpt>
      <trkpt lat="59.8933898" lon="17.702571">
        <ele>24.651</ele>
        <time>2013-04-14T10:42:51Z</time>
      </trkpt>
      <trkpt lat="59.893448" lon="17.7026479">
        <ele>24.651</ele>
        <time>2013-04-14T10:42:52Z</time>
      </trkpt>
      <trkpt lat="59.8935064" lon="17.7027284">
        <ele>24.651</ele>
        <time>2013-04-14T10:42:53Z</time>
      </trkpt>
      <trkpt lat="59.8935655" lon="17.7028109">
        <ele>24.651</ele>
        <time>2013-04-14T10:42:54Z</time>
      </trkpt>
      <trkpt lat="59.8936266" lon="17.702894">
        <ele>24.651</ele>
        <time>2013-04-14T10:42:55Z</time>
      </trkpt>
      <trkpt lat="59.8936886" lon="17.7029776">
        <ele>24.651</ele>
        <time>2013-04-14T10:42:56Z</time>
      </trkpt>
      <trkpt lat="59.8937486" lon="17.7030658">
        <ele>24.651</ele>
        <time>2013-04-14T10:42:57Z</time>
      </trkpt>
      <trkpt lat="59.8937991" lon="17.7031673">
        <ele>24.651</ele>
        <time>2013-04-14T10:42:58Z</time>
      </trkpt>
      <trkpt lat="59.8938462" lon="17.7032753">
        <ele>24.651</ele>
        <time>2013-04-14T10:42:59Z</time>
      </trkpt>
      <trkpt lat="59.893898" lon="17.7033716">
        <ele>24.651</ele>
        <time>2013-04-14T10:43:00Z</time>
      </trkpt>
      <trkpt lat="59.8939559" lon="17.7034577">
        <ele>24.651</ele>
        <time>2013-04-14T10:43:01Z</time>
      </trkpt>
      <trkpt lat="59.8940169" lon="17.703541">
        <ele>24.651</ele>
        <time>2013-04-14T10:43:02Z</time>
      </trkpt>
      <trkpt lat="59.8940793" lon="17.7036238">
        <ele>24.651</ele>
        <time>2013-04-14T10:43:03Z</time>
      </trkpt>
      <trkpt lat="59.8941431" lon="17.7037054">
        <ele>24.651</ele>
        <time>2013-04-14T10:43:04Z</time>
      </trkpt>
      <trkpt lat="59.8942065" lon="17.7037894">
        <ele>24.651</ele>
        <time>2013-04-14T10:43:05Z</time>
      </trkpt>
      <trkpt lat="59.8942683" lon="17.7038749">
        <ele>24.651</ele>
        <time>2013-04-14T10:43:06Z</time>
      </trkpt>
      <trkpt lat="59.8943291" lon="17.7039592">
        <ele>24.1703</ele>
        <time>2013-04-14T10:43:07Z</time>
      </trkpt>
      <trkpt lat="59.8943906" lon="17.7040426">
        <ele>24.1703</ele>
        <time>2013-04-14T10:43:08Z</time>
      </trkpt>
      <trkpt lat="59.8944523" lon="17.7041251">
        <ele>24.1703</ele>
        <time>2013-04-14T10:43:09Z</time>
      </trkpt>
      <trkpt lat="59.894513" lon="17.7042093">
        <ele>24.1703</ele>
        <time>2013-04-14T10:43:10Z</time>
      </trkpt>
      <trkpt lat="59.8945723" lon="17.7042974">
        <ele>24.1703</ele>
        <time>2013-04-14T10:43:11Z</time>
      </trkpt>
      <trkpt lat="59.8946329" lon="17.704385">
        <ele>24.1703</ele>
        <time>2013-04-14T10:43:12Z</time>
      </trkpt>
      <trkpt lat="59.8946947" lon="17.7044723">
        <ele>24.1703</ele>
        <time>2013-04-14T10:43:13Z</time>
      </trkpt>
      <trkpt lat="59.8947573" lon="17.7045597">
        <ele>24.1703</ele>
        <time>2013-04-14T10:43:14Z</time>
      </trkpt>
      <trkpt lat="59.8948204" lon="17.7046471">
        <ele>24.1703</ele>
        <time>2013-04-14T10:43:15Z</time>
      </trkpt>
      <trkpt lat="59.8948827" lon="17.7047357">
        <ele>24.1703</ele>
        <time>2013-04-14T10:43:16Z</time>
      </trkpt>
      <trkpt lat="59.8949454" lon="17.7048249">
        <ele>24.1703</ele>
        <time>2013-04-14T10:43:17Z</time>
      </trkpt>
      <trkpt lat="59.8950084" lon="17.7049149">
        <ele>24.1703</ele>
        <time>2013-04-14T10:43:18Z</time>
      </trkpt>
      <trkpt lat="59.8950707" lon="17.7050072">
        <ele>24.1703</ele>
        <time>2013-04-14T10:43:19Z</time>
      </trkpt>
      <trkpt lat="59.895132" lon="17.7051008">
        <ele>24.1703</ele>
        <time>2013-04-14T10:43:20Z</time>
      </trkpt>
      <trkpt lat="59.8951939" lon="17.7051927">
        <ele>24.1703</ele>
        <time>2013-04-14T10:43:21Z</time>
      </trkpt>
      <trkpt lat="59.8952583" lon="17.7052787">
        <ele>24.1703</ele>
        <time>2013-04-14T10:43:22Z</time>
      </trkpt>
      <trkpt lat="59.8953256" lon="17.7053552">
        <ele>24.1703</ele>
        <time>2013-04-14T10:43:23Z</time>
      </trkpt>
      <trkpt lat="59.8953945" lon="17.7054268">
        <ele>24.1703</ele>
        <time>2013-04-14T10:43:24Z</time>
      </trkpt>
      <trkpt lat="59.8954629" lon="17.7055011">
        <ele>24.1703</ele>
        <time>2013-04-14T10:43:25Z</time>
      </trkpt>
      <trkpt lat="59.8955291" lon="17.7055811">
        <ele>24.1703</ele>
        <time>2013-04-14T10:43:26Z</time>
      </trkpt>
      <trkpt lat="59.8955923" lon="17.7056645">
        <ele>23.6896</ele>
        <time>2013-04-14T10:43:27Z</time>
      </trkpt>
      <trkpt lat="59.8956544" lon="17.705749">
        <ele>23.6896</ele>
        <time>2013-04-14T10:43:28Z</time>
      </trkpt>
      <trkpt lat="59.8957167" lon="17.7058334">
        <ele>23.6896</ele>
        <time>2013-04-14T10:43:29Z</time>
      </trkpt>
      <trkpt lat="59.8957794" lon="17.7059178">
        <ele>23.6896</ele>
        <time>2013-04-14T10:43:30Z</time>
      </trkpt>
      <trkpt lat="59.895843" lon="17.7060028">
        <ele>23.6896</ele>
        <time>2013-04-14T10:43:31Z</time>
      </trkpt>
      <trkpt lat="59.8959053" lon="17.706088">
        <ele>23.6896</ele>
        <time>2013-04-14T10:43:32Z</time>
      </trkpt>
      <trkpt lat="59.895967" lon="17.7061719">
        <ele>23.6896</ele>
        <time>2013-04-14T10:43:33Z</time>
      </trkpt>
      <trkpt lat="59.8960296" lon="17.7062533">
        <ele>23.6896</ele>
        <time>2013-04-14T10:43:34Z</time>
      </trkpt>
      <trkpt lat="59.8960926" lon="17.7063343">
        <ele>23.6896</ele>
        <time>2013-04-14T10:43:35Z</time>
      </trkpt>
      <trkpt lat="59.8961545" lon="17.7064178">
        <ele>23.209</ele>
        <time>2013-04-14T10:43:36Z</time>
      </trkpt>
      <trkpt lat="59.8962174" lon="17.7065021">
        <ele>23.6896</ele>
        <time>2013-04-14T10:43:37Z</time>
      </trkpt>
      <trkpt lat="59.8962819" lon="17.7065871">
        <ele>23.6896</ele>
        <time>2013-04-14T10:43:38Z</time>
      </trkpt>
      <trkpt lat="59.8963464" lon="17.7066726">
        <ele>23.6896</ele>
        <time>2013-04-14T10:43:39Z</time>
      </trkpt>
      <trkpt lat="59.8964094" lon="17.7067581">
        <ele>23.6896</ele>
        <time>2013-04-14T10:43:40Z</time>
      </trkpt>
      <trkpt lat="59.8964734" lon="17.7068436">
        <ele>23.6896</ele>
        <time>2013-04-14T10:43:41Z</time>
      </trkpt>
      <trkpt lat="59.8965368" lon="17.7069286">
        <ele>23.209</ele>
        <time>2013-04-14T10:43:42Z</time>
      </trkpt>
      <trkpt lat="59.8966013" lon="17.7070137">
        <ele>23.6896</ele>
        <time>2013-04-14T10:43:43Z</time>
      </trkpt>
      <trkpt lat="59.8966655" lon="17.7070984">
        <ele>23.6896</ele>
        <time>2013-04-14T10:43:44Z</time>
      </trkpt>
      <trkpt lat="59.8967296" lon="17.7071834">
        <ele>23.6896</ele>
        <time>2013-04-14T10:43:45Z</time>
      </trkpt>
      <trkpt lat="59.8967943" lon="17.7072701">
        <ele>23.6896</ele>
        <time>2013-04-14T10:43:46Z</time>
      </trkpt>
      <trkpt lat="59.8968595" lon="17.7073574">
        <ele>23.6896</ele>
        <time>2013-04-14T10:43:47Z</time>
      </trkpt>
      <trkpt lat="59.8969278" lon="17.7074443">
        <ele>23.6896</ele>
        <time>2013-04-14T10:43:48Z</time>
      </trkpt>
      <trkpt lat="59.8969962" lon="17.7075309">
        <ele>24.1703</ele>
        <time>2013-04-14T10:43:49Z</time>
      </trkpt>
      <trkpt lat="59.8970646" lon="17.7076206">
        <ele>24.1703</ele>
        <time>2013-04-14T10:43:50Z</time>
      </trkpt>
      <trkpt lat="59.8971319" lon="17.707713">
        <ele>24.1703</ele>
        <time>2013-04-14T10:43:51Z</time>
      </trkpt>
      <trkpt lat="59.8971992" lon="17.707804">
        <ele>24.1703</ele>
        <time>2013-04-14T10:43:52Z</time>
      </trkpt>
      <trkpt lat="59.8972676" lon="17.7078945">
        <ele>24.1703</ele>
        <time>2013-04-14T10:43:53Z</time>
      </trkpt>
      <trkpt lat="59.8973364" lon="17.7079886">
        <ele>24.651</ele>
        <time>2013-04-14T10:43:54Z</time>
      </trkpt>
      <trkpt lat="59.8974029" lon="17.7080887">
        <ele>24.651</ele>
        <time>2013-04-14T10:43:55Z</time>
      </trkpt>
      <trkpt lat="59.8974672" lon="17.7081935">
        <ele>24.651</ele>
        <time>2013-04-14T10:43:56Z</time>
      </trkpt>
      <trkpt lat="59.8975318" lon="17.7082963">
        <ele>24.651</ele>
        <time>2013-04-14T10:43:57Z</time>
      </trkpt>
      <trkpt lat="59.8976002" lon="17.7083906">
        <ele>24.651</ele>
        <time>2013-04-14T10:43:58Z</time>
      </trkpt>
      <trkpt lat="59.8976722" lon="17.7084735">
        <ele>24.651</ele>
        <time>2013-04-14T10:43:59Z</time>
      </trkpt>
      <trkpt lat="59.8977457" lon="17.7085514">
        <ele>24.651</ele>
        <time>2013-04-14T10:44:00Z</time>
      </trkpt>
      <trkpt lat="59.8978162" lon="17.7086325">
        <ele>24.651</ele>
        <time>2013-04-14T10:44:01Z</time>
      </trkpt>
      <trkpt lat="59.8978809" lon="17.7087195">
        <ele>24.1703</ele>
        <time>2013-04-14T10:44:02Z</time>
      </trkpt>
      <trkpt lat="59.8979431" lon="17.7088093">
        <ele>24.1703</ele>
        <time>2013-04-14T10:44:03Z</time>
      </trkpt>
      <trkpt lat="59.8980048" lon="17.7088978">
        <ele>24.1703</ele>
        <time>2013-04-14T10:44:04Z</time>
      </trkpt>
      <trkpt lat="59.8980665" lon="17.708983">
        <ele>23.6896</ele>
        <time>2013-04-14T10:44:05Z</time>
      </trkpt>
      <trkpt lat="59.8981295" lon="17.7090667">
        <ele>24.1703</ele>
        <time>2013-04-14T10:44:06Z</time>
      </trkpt>
      <trkpt lat="59.8981914" lon="17.7091502">
        <ele>24.1703</ele>
        <time>2013-04-14T10:44:07Z</time>
      </trkpt>
      <trkpt lat="59.8982539" lon="17.709233">
        <ele>24.1703</ele>
        <time>2013-04-14T10:44:08Z</time>
      </trkpt>
      <trkpt lat="59.8983161" lon="17.7093148">
        <ele>24.1703</ele>
        <time>2013-04-14T10:44:09Z</time>
      </trkpt>
      <trkpt lat="59.8983784" lon="17.7093946">
        <ele>24.651</ele>
        <time>2013-04-14T10:44:10Z</time>
      </trkpt>
      <trkpt lat="59.8984395" lon="17.7094739">
        <ele>24.1703</ele>
        <time>2013-04-14T10:44:11Z</time>
      </trkpt>
      <trkpt lat="59.8985001" lon="17.7095537">
        <ele>24.1703</ele>
        <time>2013-04-14T10:44:12Z</time>
      </trkpt>
      <trkpt lat="59.8985606" lon="17.7096336">
        <ele>24.1703</ele>
        <time>2013-04-14T10:44:13Z</time>
      </trkpt>
      <trkpt lat="59.8986206" lon="17.7097138">
        <ele>24.1703</ele>
        <time>2013-04-14T10:44:14Z</time>
      </trkpt>
      <trkpt lat="59.8986803" lon="17.7097935">
        <ele>24.1703</ele>
        <time>2013-04-14T10:44:15Z</time>
      </trkpt>
      <trkpt lat="59.8987404" lon="17.7098712">
        <ele>24.1703</ele>
        <time>2013-04-14T10:44:16Z</time>
      </trkpt>
      <trkpt lat="59.898801" lon="17.7099475">
        <ele>24.1703</ele>
        <time>2013-04-14T10:44:17Z</time>
      </trkpt>
      <trkpt lat="59.8988611" lon="17.7100256">
        <ele>24.1703</ele>
        <time>2013-04-14T10:44:18Z</time>
      </trkpt>
      <trkpt lat="59.8989213" lon="17.7101064">
        <ele>24.1703</ele>
        <time>2013-04-14T10:44:19Z</time>
      </trkpt>
      <trkpt lat="59.8989818" lon="17.7101881">
        <ele>24.1703</ele>
        <time>2013-04-14T10:44:20Z</time>
      </trkpt>
      <trkpt lat="59.8990421" lon="17.7102701">
        <ele>24.1703</ele>
        <time>2013-04-14T10:44:21Z</time>
      </trkpt>
      <trkpt lat="59.8991024" lon="17.710351">
        <ele>24.1703</ele>
        <time>2013-04-14T10:44:22Z</time>
      </trkpt>
      <trkpt lat="59.8991635" lon="17.7104306">
        <ele>24.1703</ele>
        <time>2013-04-14T10:44:23Z</time>
      </trkpt>
      <trkpt lat="59.8992251" lon="17.7105083">
        <ele>24.651</ele>
        <time>2013-04-14T10:44:24Z</time>
      </trkpt>
      <trkpt lat="59.8992873" lon="17.710584">
        <ele>24.651</ele>
        <time>2013-04-14T10:44:25Z</time>
      </trkpt>
      <trkpt lat="59.8993495" lon="17.71066">
        <ele>24.651</ele>
        <time>2013-04-14T10:44:26Z</time>
      </trkpt>
      <trkpt lat="59.8994117" lon="17.7107368">
        <ele>24.651</ele>
        <time>2013-04-14T10:44:27Z</time>
      </trkpt>
      <trkpt lat="59.899474" lon="17.7108128">
        <ele>24.651</ele>
        <time>2013-04-14T10:44:28Z</time>
      </trkpt>
      <trkpt lat="59.8995368" lon="17.710888">
        <ele>24.651</ele>
        <time>2013-04-14T10:44:29Z</time>
      </trkpt>
      <trkpt lat="59.8996" lon="17.7109618">
        <ele>24.651</ele>
        <time>2013-04-14T10:44:30Z</time>
      </trkpt>
      <trkpt lat="59.8996639" lon="17.7110347">
        <ele>24.651</ele>
        <time>2013-04-14T10:44:31Z</time>
      </trkpt>
      <trkpt lat="59.8997273" lon="17.7111084">
        <ele>24.651</ele>
        <time>2013-04-14T10:44:32Z</time>
      </trkpt>
      <trkpt lat="59.8997899" lon="17.7111839">
        <ele>25.1317</ele>
        <time>2013-04-14T10:44:33Z</time>
      </trkpt>
      <trkpt lat="59.8998528" lon="17.7112581">
        <ele>25.1317</ele>
        <time>2013-04-14T10:44:34Z</time>
      </trkpt>
      <trkpt lat="59.8999163" lon="17.7113295">
        <ele>25.1317</ele>
        <time>2013-04-14T10:44:35Z</time>
      </trkpt>
      <trkpt lat="59.8999797" lon="17.7114015">
        <ele>25.1317</ele>
        <time>2013-04-14T10:44:36Z</time>
      </trkpt>
      <trkpt lat="59.9000426" lon="17.7114753">
        <ele>25.1317</ele>
        <time>2013-04-14T10:44:37Z</time>
      </trkpt>
      <trkpt lat="59.9001046" lon="17.7115486">
        <ele>25.1317</ele>
        <time>2013-04-14T10:44:38Z</time>
      </trkpt>
      <trkpt lat="59.9001658" lon="17.7116195">
        <ele>25.1317</ele>
        <time>2013-04-14T10:44:39Z</time>
      </trkpt>
      <trkpt lat="59.9002265" lon="17.7116869">
        <ele>25.1317</ele>
        <time>2013-04-14T10:44:40Z</time>
      </trkpt>
      <trkpt lat="59.9002864" lon="17.7117525">
        <ele>25.6123</ele>
        <time>2013-04-14T10:44:41Z</time>
      </trkpt>
      <trkpt lat="59.9003453" lon="17.7118174">
        <ele>25.6123</ele>
        <time>2013-04-14T10:44:42Z</time>
      </trkpt>
      <trkpt lat="59.9004038" lon="17.7118818">
        <ele>25.6123</ele>
        <time>2013-04-14T10:44:43Z</time>
      </trkpt>
      <trkpt lat="59.9004617" lon="17.7119475">
        <ele>25.6123</ele>
        <time>2013-04-14T10:44:44Z</time>
      </trkpt>
      <trkpt lat="59.9005192" lon="17.712012">
        <ele>25.6123</ele>
        <time>2013-04-14T10:44:45Z</time>
      </trkpt>
      <trkpt lat="59.9005762" lon="17.7120736">
        <ele>25.6123</ele>
        <time>2013-04-14T10:44:46Z</time>
      </trkpt>
      <trkpt lat="59.9006322" lon="17.7121345">
        <ele>25.6123</ele>
        <time>2013-04-14T10:44:47Z</time>
      </trkpt>
      <trkpt lat="59.9006876" lon="17.7121945">
        <ele>25.6123</ele>
        <time>2013-04-14T10:44:48Z</time>
      </trkpt>
      <trkpt lat="59.9007428" lon="17.7122525">
        <ele>25.6123</ele>
        <time>2013-04-14T10:44:49Z</time>
      </trkpt>
      <trkpt lat="59.9007969" lon="17.712309">
        <ele>25.6123</ele>
        <time>2013-04-14T10:44:50Z</time>
      </trkpt>
      <trkpt lat="59.9008513" lon="17.7123644">
        <ele>25.6123</ele>
        <time>2013-04-14T10:44:51Z</time>
      </trkpt>
      <trkpt lat="59.9009057" lon="17.7124174">
        <ele>25.6123</ele>
        <time>2013-04-14T10:44:52Z</time>
      </trkpt>
      <trkpt lat="59.9009586" lon="17.7124709">
        <ele>25.6123</ele>
        <time>2013-04-14T10:44:53Z</time>
      </trkpt>
      <trkpt lat="59.9010067" lon="17.7125332">
        <ele>25.1317</ele>
        <time>2013-04-14T10:44:54Z</time>
      </trkpt>
      <trkpt lat="59.9010388" lon="17.7126179">
        <ele>25.1317</ele>
        <time>2013-04-14T10:44:55Z</time>
      </trkpt>
      <trkpt lat="59.9010441" lon="17.7127168">
        <ele>25.1317</ele>
        <time>2013-04-14T10:44:56Z</time>
      </trkpt>
      <trkpt lat="59.9010269" lon="17.7128147">
        <ele>25.1317</ele>
        <time>2013-04-14T10:44:57Z</time>
      </trkpt>
      <trkpt lat="59.9009995" lon="17.7129084">
        <ele>25.1317</ele>
        <time>2013-04-14T10:44:58Z</time>
      </trkpt>
      <trkpt lat="59.9009679" lon="17.7130015">
        <ele>25.1317</ele>
        <time>2013-04-14T10:44:59Z</time>
      </trkpt>
      <trkpt lat="59.9009345" lon="17.7130959">
        <ele>25.1317</ele>
        <time>2013-04-14T10:45:00Z</time>
      </trkpt>
      <trkpt lat="59.9009009" lon="17.7131905">
        <ele>25.1317</ele>
        <time>2013-04-14T10:45:01Z</time>
      </trkpt>
      <trkpt lat="59.9008672" lon="17.7132845">
        <ele>25.1317</ele>
        <time>2013-04-14T10:45:02Z</time>
      </trkpt>
      <trkpt lat="59.9008308" lon="17.7133803">
        <ele>25.1317</ele>
        <time>2013-04-14T10:45:03Z</time>
      </trkpt>
      <trkpt lat="59.9007978" lon="17.7134796">
        <ele>25.1317</ele>
        <time>2013-04-14T10:45:04Z</time>
      </trkpt>
      <trkpt lat="59.9007659" lon="17.7135792">
        <ele>25.6123</ele>
        <time>2013-04-14T10:45:05Z</time>
      </trkpt>
      <trkpt lat="59.9007331" lon="17.713677">
        <ele>25.6123</ele>
        <time>2013-04-14T10:45:06Z</time>
      </trkpt>
      <trkpt lat="59.9007004" lon="17.7137754">
        <ele>25.6123</ele>
        <time>2013-04-14T10:45:07Z</time>
      </trkpt>
      <trkpt lat="59.9006703" lon="17.7138769">
        <ele>25.6123</ele>
        <time>2013-04-14T10:45:08Z</time>
      </trkpt>
      <trkpt lat="59.9006412" lon="17.7139775">
        <ele>26.0929</ele>
        <time>2013-04-14T10:45:09Z</time>
      </trkpt>
      <trkpt lat="59.9006099" lon="17.7140731">
        <ele>26.0929</ele>
        <time>2013-04-14T10:45:10Z</time>
      </trkpt>
      <trkpt lat="59.9005766" lon="17.7141691">
        <ele>26.0929</ele>
        <time>2013-04-14T10:45:11Z</time>
      </trkpt>
      <trkpt lat="59.900545" lon="17.7142661">
        <ele>26.5736</ele>
        <time>2013-04-14T10:45:12Z</time>
      </trkpt>
      <trkpt lat="59.900515" lon="17.714364">
        <ele>26.5736</ele>
        <time>2013-04-14T10:45:13Z</time>
      </trkpt>
      <trkpt lat="59.9004859" lon="17.7144623">
        <ele>26.5736</ele>
        <time>2013-04-14T10:45:14Z</time>
      </trkpt>
      <trkpt lat="59.9004571" lon="17.7145603">
        <ele>26.5736</ele>
        <time>2013-04-14T10:45:15Z</time>
      </trkpt>
      <trkpt lat="59.9004281" lon="17.7146582">
        <ele>26.5736</ele>
        <time>2013-04-14T10:45:16Z</time>
      </trkpt>
      <trkpt lat="59.9003995" lon="17.7147561">
        <ele>27.0543</ele>
        <time>2013-04-14T10:45:17Z</time>
      </trkpt>
      <trkpt lat="59.9003738" lon="17.7148545">
        <ele>27.0543</ele>
        <time>2013-04-14T10:45:18Z</time>
      </trkpt>
      <trkpt lat="59.9003496" lon="17.7149545">
        <ele>27.0543</ele>
        <time>2013-04-14T10:45:19Z</time>
      </trkpt>
      <trkpt lat="59.9003254" lon="17.7150539">
        <ele>27.0543</ele>
        <time>2013-04-14T10:45:20Z</time>
      </trkpt>
      <trkpt lat="59.9003016" lon="17.7151542">
        <ele>27.0543</ele>
        <time>2013-04-14T10:45:21Z</time>
      </trkpt>
      <trkpt lat="59.9002777" lon="17.7152549">
        <ele>27.0543</ele>
        <time>2013-04-14T10:45:22Z</time>
      </trkpt>
      <trkpt lat="59.9002543" lon="17.7153563">
        <ele>27.0543</ele>
        <time>2013-04-14T10:45:23Z</time>
      </trkpt>
      <trkpt lat="59.9002322" lon="17.7154599">
        <ele>27.0543</ele>
        <time>2013-04-14T10:45:24Z</time>
      </trkpt>
      <trkpt lat="59.9002125" lon="17.715563">
        <ele>27.5349</ele>
        <time>2013-04-14T10:45:25Z</time>
      </trkpt>
      <trkpt lat="59.9001927" lon="17.7156688">
        <ele>27.0543</ele>
        <time>2013-04-14T10:45:26Z</time>
      </trkpt>
      <trkpt lat="59.9001737" lon="17.7157761">
        <ele>27.0543</ele>
        <time>2013-04-14T10:45:27Z</time>
      </trkpt>
      <trkpt lat="59.9001591" lon="17.7158859">
        <ele>27.0543</ele>
        <time>2013-04-14T10:45:28Z</time>
      </trkpt>
      <trkpt lat="59.9001458" lon="17.7159976">
        <ele>27.0543</ele>
        <time>2013-04-14T10:45:29Z</time>
      </trkpt>
      <trkpt lat="59.9001332" lon="17.7161121">
        <ele>27.0543</ele>
        <time>2013-04-14T10:45:30Z</time>
      </trkpt>
      <trkpt lat="59.9001232" lon="17.7162296">
        <ele>27.0543</ele>
        <time>2013-04-14T10:45:31Z</time>
      </trkpt>
      <trkpt lat="59.9001147" lon="17.7163496">
        <ele>27.0543</ele>
        <time>2013-04-14T10:45:32Z</time>
      </trkpt>
      <trkpt lat="59.9001078" lon="17.716472">
        <ele>27.0543</ele>
        <time>2013-04-14T10:45:33Z</time>
      </trkpt>
      <trkpt lat="59.9001015" lon="17.7165954">
        <ele>27.0543</ele>
        <time>2013-04-14T10:45:34Z</time>
      </trkpt>
      <trkpt lat="59.9000938" lon="17.7167195">
        <ele>27.0543</ele>
        <time>2013-04-14T10:45:35Z</time>
      </trkpt>
      <trkpt lat="59.900087" lon="17.7168419">
        <ele>27.0543</ele>
        <time>2013-04-14T10:45:36Z</time>
      </trkpt>
      <trkpt lat="59.9000813" lon="17.716964">
        <ele>27.0543</ele>
        <time>2013-04-14T10:45:37Z</time>
      </trkpt>
      <trkpt lat="59.9000758" lon="17.7170854">
        <ele>27.0543</ele>
        <time>2013-04-14T10:45:38Z</time>
      </trkpt>
      <trkpt lat="59.9000679" lon="17.7172093">
        <ele>27.0543</ele>
        <time>2013-04-14T10:45:39Z</time>
      </trkpt>
      <trkpt lat="59.9000595" lon="17.7173286">
        <ele>27.0543</ele>
        <time>2013-04-14T10:45:40Z</time>
      </trkpt>
      <trkpt lat="59.9000483" lon="17.717445">
        <ele>27.0543</ele>
        <time>2013-04-14T10:45:41Z</time>
      </trkpt>
      <trkpt lat="59.9000364" lon="17.7175623">
        <ele>27.0543</ele>
        <time>2013-04-14T10:45:42Z</time>
      </trkpt>
      <trkpt lat="59.9000224" lon="17.7176744">
        <ele>27.0543</ele>
        <time>2013-04-14T10:45:43Z</time>
      </trkpt>
      <trkpt lat="59.9000028" lon="17.7177838">
        <ele>27.0543</ele>
        <time>2013-04-14T10:45:44Z</time>
      </trkpt>
      <trkpt lat="59.899983" lon="17.7178885">
        <ele>27.5349</ele>
        <time>2013-04-14T10:45:45Z</time>
      </trkpt>
      <trkpt lat="59.8999603" lon="17.7179889">
        <ele>27.5349</ele>
        <time>2013-04-14T10:45:46Z</time>
      </trkpt>
      <trkpt lat="59.8999342" lon="17.7180875">
        <ele>28.0155</ele>
        <time>2013-04-14T10:45:47Z</time>
      </trkpt>
      <trkpt lat="59.8999057" lon="17.7181848">
        <ele>28.0155</ele>
        <time>2013-04-14T10:45:48Z</time>
      </trkpt>
      <trkpt lat="59.8998767" lon="17.7182804">
        <ele>28.4962</ele>
        <time>2013-04-14T10:45:49Z</time>
      </trkpt>
      <trkpt lat="59.8998464" lon="17.7183743">
        <ele>28.9769</ele>
        <time>2013-04-14T10:45:50Z</time>
      </trkpt>
      <trkpt lat="59.8998163" lon="17.7184661">
        <ele>28.9769</ele>
        <time>2013-04-14T10:45:51Z</time>
      </trkpt>
      <trkpt lat="59.8997863" lon="17.7185583">
        <ele>28.9769</ele>
        <time>2013-04-14T10:45:52Z</time>
      </trkpt>
      <trkpt lat="59.8997566" lon="17.7186506">
        <ele>29.4575</ele>
        <time>2013-04-14T10:45:53Z</time>
      </trkpt>
      <trkpt lat="59.8997267" lon="17.7187458">
        <ele>29.4575</ele>
        <time>2013-04-14T10:45:54Z</time>
      </trkpt>
      <trkpt lat="59.8996969" lon="17.7188406">
        <ele>28.9769</ele>
        <time>2013-04-14T10:45:55Z</time>
      </trkpt>
      <trkpt lat="59.8996662" lon="17.7189338">
        <ele>28.9769</ele>
        <time>2013-04-14T10:45:56Z</time>
      </trkpt>
      <trkpt lat="59.8996417" lon="17.7190302">
        <ele>28.9769</ele>
        <time>2013-04-14T10:45:57Z</time>
      </trkpt>
      <trkpt lat="59.8996151" lon="17.7191328">
        <ele>28.9769</ele>
        <time>2013-04-14T10:45:58Z</time>
      </trkpt>
      <trkpt lat="59.8995886" lon="17.7192379">
        <ele>28.9769</ele>
        <time>2013-04-14T10:45:59Z</time>
      </trkpt>
      <trkpt lat="59.8995681" lon="17.7193439">
        <ele>28.9769</ele>
        <time>2013-04-14T10:46:00Z</time>
      </trkpt>
      <trkpt lat="59.8995498" lon="17.7194519">
        <ele>28.4962</ele>
        <time>2013-04-14T10:46:01Z</time>
      </trkpt>
      <trkpt lat="59.8995302" lon="17.7195611">
        <ele>28.0155</ele>
        <time>2013-04-14T10:46:02Z</time>
      </trkpt>
      <trkpt lat="59.8995094" lon="17.7196694">
        <ele>27.5349</ele>
        <time>2013-04-14T10:46:03Z</time>
      </trkpt>
      <trkpt lat="59.8994873" lon="17.7197785">
        <ele>27.5349</ele>
        <time>2013-04-14T10:46:04Z</time>
      </trkpt>
      <trkpt lat="59.8994657" lon="17.7198884">
        <ele>27.5349</ele>
        <time>2013-04-14T10:46:05Z</time>
      </trkpt>
      <trkpt lat="59.8994452" lon="17.7199984">
        <ele>27.0543</ele>
        <time>2013-04-14T10:46:06Z</time>
      </trkpt>
      <trkpt lat="59.899424" lon="17.7201098">
        <ele>27.0543</ele>
        <time>2013-04-14T10:46:07Z</time>
      </trkpt>
      <trkpt lat="59.8994037" lon="17.7202233">
        <ele>26.5736</ele>
        <time>2013-04-14T10:46:08Z</time>
      </trkpt>
      <trkpt lat="59.8993832" lon="17.7203405">
        <ele>26.5736</ele>
        <time>2013-04-14T10:46:09Z</time>
      </trkpt>
      <trkpt lat="59.8993631" lon="17.7204589">
        <ele>26.0929</ele>
        <time>2013-04-14T10:46:10Z</time>
      </trkpt>
      <trkpt lat="59.8993419" lon="17.7205781">
        <ele>26.0929</ele>
        <time>2013-04-14T10:46:11Z</time>
      </trkpt>
      <trkpt lat="59.899321" lon="17.7206981">
        <ele>26.0929</ele>
        <time>2013-04-14T10:46:12Z</time>
      </trkpt>
      <trkpt lat="59.8992996" lon="17.7208173">
        <ele>26.0929</ele>
        <time>2013-04-14T10:46:13Z</time>
      </trkpt>
      <trkpt lat="59.8992765" lon="17.7209374">
        <ele>26.0929</ele>
        <time>2013-04-14T10:46:14Z</time>
      </trkpt>
      <trkpt lat="59.8992546" lon="17.7210586">
        <ele>26.0929</ele>
        <time>2013-04-14T10:46:15Z</time>
      </trkpt>
      <trkpt lat="59.8992335" lon="17.7211815">
        <ele>26.0929</ele>
        <time>2013-04-14T10:46:16Z</time>
      </trkpt>
      <trkpt lat="59.8992138" lon="17.7213056">
        <ele>26.0929</ele>
        <time>2013-04-14T10:46:17Z</time>
      </trkpt>
      <trkpt lat="59.8991946" lon="17.7214291">
        <ele>26.0929</ele>
        <time>2013-04-14T10:46:18Z</time>
      </trkpt>
      <trkpt lat="59.8991755" lon="17.7215513">
        <ele>26.0929</ele>
        <time>2013-04-14T10:46:19Z</time>
      </trkpt>
      <trkpt lat="59.8991548" lon="17.7216716">
        <ele>26.0929</ele>
        <time>2013-04-14T10:46:20Z</time>
      </trkpt>
      <trkpt lat="59.8991336" lon="17.7217913">
        <ele>26.0929</ele>
        <time>2013-04-14T10:46:21Z</time>
      </trkpt>
      <trkpt lat="59.8991142" lon="17.7219108">
        <ele>26.0929</ele>
        <time>2013-04-14T10:46:22Z</time>
      </trkpt>
      <trkpt lat="59.8990958" lon="17.72203">
        <ele>26.0929</ele>
        <time>2013-04-14T10:46:23Z</time>
      </trkpt>
      <trkpt lat="59.8990779" lon="17.7221491">
        <ele>25.6123</ele>
        <time>2013-04-14T10:46:24Z</time>
      </trkpt>
      <trkpt lat="59.89906" lon="17.7222691">
        <ele>25.6123</ele>
        <time>2013-04-14T10:46:25Z</time>
      </trkpt>
      <trkpt lat="59.8990427" lon="17.7223899">
        <ele>25.6123</ele>
        <time>2013-04-14T10:46:26Z</time>
      </trkpt>
      <trkpt lat="59.8990261" lon="17.7225102">
        <ele>25.6123</ele>
        <time>2013-04-14T10:46:27Z</time>
      </trkpt>
      <trkpt lat="59.8990072" lon="17.722634">
        <ele>25.6123</ele>
        <time>2013-04-14T10:46:28Z</time>
      </trkpt>
      <trkpt lat="59.8989891" lon="17.7227588">
        <ele>25.1317</ele>
        <time>2013-04-14T10:46:29Z</time>
      </trkpt>
      <trkpt lat="59.8989704" lon="17.7228837">
        <ele>25.1317</ele>
        <time>2013-04-14T10:46:30Z</time>
      </trkpt>
      <trkpt lat="59.8989521" lon="17.7230085">
        <ele>25.1317</ele>
        <time>2013-04-14T10:46:31Z</time>
      </trkpt>
      <trkpt lat="59.898934" lon="17.7231347">
        <ele>24.651</ele>
        <time>2013-04-14T10:46:32Z</time>
      </trkpt>
      <trkpt lat="59.898915" lon="17.7232626">
        <ele>24.651</ele>
        <time>2013-04-14T10:46:33Z</time>
      </trkpt>
      <trkpt lat="59.8988928" lon="17.7233933">
        <ele>24.651</ele>
        <time>2013-04-14T10:46:34Z</time>
      </trkpt>
      <trkpt lat="59.8988695" lon="17.7235273">
        <ele>24.651</ele>
        <time>2013-04-14T10:46:35Z</time>
      </trkpt>
      <trkpt lat="59.8988463" lon="17.723662">
        <ele>24.1703</ele>
        <time>2013-04-14T10:46:36Z</time>
      </trkpt>
      <trkpt lat="59.8988244" lon="17.7237959">
        <ele>24.1703</ele>
        <time>2013-04-14T10:46:37Z</time>
      </trkpt>
      <trkpt lat="59.8988046" lon="17.72393">
        <ele>23.6896</ele>
        <time>2013-04-14T10:46:38Z</time>
      </trkpt>
      <trkpt lat="59.8987842" lon="17.7240601">
        <ele>23.6896</ele>
        <time>2013-04-14T10:46:39Z</time>
      </trkpt>
      <trkpt lat="59.8987626" lon="17.7241868">
        <ele>23.209</ele>
        <time>2013-04-14T10:46:40Z</time>
      </trkpt>
      <trkpt lat="59.8987397" lon="17.7243148">
        <ele>23.209</ele>
        <time>2013-04-14T10:46:41Z</time>
      </trkpt>
      <trkpt lat="59.898718" lon="17.7244424">
        <ele>23.209</ele>
        <time>2013-04-14T10:46:42Z</time>
      </trkpt>
      <trkpt lat="59.8986961" lon="17.7245688">
        <ele>23.209</ele>
        <time>2013-04-14T10:46:43Z</time>
      </trkpt>
      <trkpt lat="59.898673" lon="17.7246944">
        <ele>23.209</ele>
        <time>2013-04-14T10:46:44Z</time>
      </trkpt>
      <trkpt lat="59.8986503" lon="17.7248201">
        <ele>23.209</ele>
        <time>2013-04-14T10:46:45Z</time>
      </trkpt>
      <trkpt lat="59.8986285" lon="17.7249469">
        <ele>23.209</ele>
        <time>2013-04-14T10:46:46Z</time>
      </trkpt>
      <trkpt lat="59.8986098" lon="17.7250738">
        <ele>23.209</ele>
        <time>2013-04-14T10:46:47Z</time>
      </trkpt>
      <trkpt lat="59.8985915" lon="17.7251981">
        <ele>22.7283</ele>
        <time>2013-04-14T10:46:48Z</time>
      </trkpt>
      <trkpt lat="59.8985715" lon="17.725321">
        <ele>22.7283</ele>
        <time>2013-04-14T10:46:49Z</time>
      </trkpt>
      <trkpt lat="59.8985511" lon="17.7254436">
        <ele>22.2476</ele>
        <time>2013-04-14T10:46:50Z</time>
      </trkpt>
      <trkpt lat="59.8985293" lon="17.725566">
        <ele>22.2476</ele>
        <time>2013-04-14T10:46:51Z</time>
      </trkpt>
      <trkpt lat="59.8985055" lon="17.7256887">
        <ele>22.2476</ele>
        <time>2013-04-14T10:46:52Z</time>
      </trkpt>
      <trkpt lat="59.8984814" lon="17.7258114">
        <ele>21.767</ele>
        <time>2013-04-14T10:46:53Z</time>
      </trkpt>
      <trkpt lat="59.8984565" lon="17.7259335">
        <ele>21.767</ele>
        <time>2013-04-14T10:46:54Z</time>
      </trkpt>
      <trkpt lat="59.89843" lon="17.7260544">
        <ele>21.767</ele>
        <time>2013-04-14T10:46:55Z</time>
      </trkpt>
      <trkpt lat="59.8984021" lon="17.7261742">
        <ele>21.767</ele>
        <time>2013-04-14T10:46:56Z</time>
      </trkpt>
      <trkpt lat="59.8983742" lon="17.7262937">
        <ele>21.2864</ele>
        <time>2013-04-14T10:46:57Z</time>
      </trkpt>
      <trkpt lat="59.8983452" lon="17.7264125">
        <ele>21.2864</ele>
        <time>2013-04-14T10:46:58Z</time>
      </trkpt>
      <trkpt lat="59.8983128" lon="17.7265313">
        <ele>21.2864</ele>
        <time>2013-04-14T10:46:59Z</time>
      </trkpt>
      <trkpt lat="59.8982798" lon="17.726649">
        <ele>21.2864</ele>
        <time>2013-04-14T10:47:00Z</time>
      </trkpt>
      <trkpt lat="59.8982462" lon="17.7267639">
        <ele>21.2864</ele>
        <time>2013-04-14T10:47:01Z</time>
      </trkpt>
      <trkpt lat="59.898212" lon="17.7268758">
        <ele>21.2864</ele>
        <time>2013-04-14T10:47:02Z</time>
      </trkpt>
      <trkpt lat="59.8981772" lon="17.7269853">
        <ele>21.767</ele>
        <time>2013-04-14T10:47:03Z</time>
      </trkpt>
      <trkpt lat="59.898141" lon="17.7270926">
        <ele>21.767</ele>
        <time>2013-04-14T10:47:04Z</time>
      </trkpt>
      <trkpt lat="59.8981046" lon="17.7271967">
        <ele>21.767</ele>
        <time>2013-04-14T10:47:05Z</time>
      </trkpt>
      <trkpt lat="59.8980668" lon="17.7272971">
        <ele>21.767</ele>
        <time>2013-04-14T10:47:06Z</time>
      </trkpt>
      <trkpt lat="59.8980281" lon="17.7273941">
        <ele>21.767</ele>
        <time>2013-04-14T10:47:07Z</time>
      </trkpt>
      <trkpt lat="59.8979904" lon="17.727491">
        <ele>21.767</ele>
        <time>2013-04-14T10:47:08Z</time>
      </trkpt>
      <trkpt lat="59.8979534" lon="17.7275882">
        <ele>21.767</ele>
        <time>2013-04-14T10:47:09Z</time>
      </trkpt>
      <trkpt lat="59.8979161" lon="17.7276842">
        <ele>21.767</ele>
        <time>2013-04-14T10:47:10Z</time>
      </trkpt>
      <trkpt lat="59.8978801" lon="17.727782">
        <ele>21.767</ele>
        <time>2013-04-14T10:47:11Z</time>
      </trkpt>
      <trkpt lat="59.8978463" lon="17.727883">
        <ele>21.767</ele>
        <time>2013-04-14T10:47:12Z</time>
      </trkpt>
      <trkpt lat="59.8978156" lon="17.7279857">
        <ele>21.767</ele>
        <time>2013-04-14T10:47:13Z</time>
      </trkpt>
      <trkpt lat="59.8977863" lon="17.7280898">
        <ele>21.767</ele>
        <time>2013-04-14T10:47:14Z</time>
      </trkpt>
      <trkpt lat="59.8977596" lon="17.7281942">
        <ele>21.767</ele>
        <time>2013-04-14T10:47:15Z</time>
      </trkpt>
      <trkpt lat="59.8977352" lon="17.7282994">
        <ele>22.2476</ele>
        <time>2013-04-14T10:47:16Z</time>
      </trkpt>
      <trkpt lat="59.8977111" lon="17.7284057">
        <ele>22.2476</ele>
        <time>2013-04-14T10:47:17Z</time>
      </trkpt>
      <trkpt lat="59.8976871" lon="17.7285113">
        <ele>22.2476</ele>
        <time>2013-04-14T10:47:18Z</time>
      </trkpt>
      <trkpt lat="59.8976639" lon="17.728617">
        <ele>21.767</ele>
        <time>2013-04-14T10:47:19Z</time>
      </trkpt>
      <trkpt lat="59.8976427" lon="17.7287237">
        <ele>22.2476</ele>
        <time>2013-04-14T10:47:20Z</time>
      </trkpt>
      <trkpt lat="59.8976215" lon="17.7288316">
        <ele>22.2476</ele>
        <time>2013-04-14T10:47:21Z</time>
      </trkpt>
      <trkpt lat="59.8976005" lon="17.7289398">
        <ele>21.767</ele>
        <time>2013-04-14T10:47:22Z</time>
      </trkpt>
      <trkpt lat="59.8975801" lon="17.7290485">
        <ele>22.2476</ele>
        <time>2013-04-14T10:47:23Z</time>
      </trkpt>
      <trkpt lat="59.8975608" lon="17.7291569">
        <ele>22.2476</ele>
        <time>2013-04-14T10:47:24Z</time>
      </trkpt>
      <trkpt lat="59.8975422" lon="17.7292653">
        <ele>22.2476</ele>
        <time>2013-04-14T10:47:25Z</time>
      </trkpt>
      <trkpt lat="59.8975246" lon="17.7293727">
        <ele>22.7283</ele>
        <time>2013-04-14T10:47:26Z</time>
      </trkpt>
      <trkpt lat="59.897509" lon="17.7294805">
        <ele>22.7283</ele>
        <time>2013-04-14T10:47:27Z</time>
      </trkpt>
      <trkpt lat="59.8974961" lon="17.7295866">
        <ele>22.7283</ele>
        <time>2013-04-14T10:47:28Z</time>
      </trkpt>
      <trkpt lat="59.8974848" lon="17.7296851">
        <ele>23.209</ele>
        <time>2013-04-14T10:47:29Z</time>
      </trkpt>
      <trkpt lat="59.8974739" lon="17.729779">
        <ele>23.209</ele>
        <time>2013-04-14T10:47:30Z</time>
      </trkpt>
      <trkpt lat="59.8974653" lon="17.7298666">
        <ele>23.6896</ele>
        <time>2013-04-14T10:47:31Z</time>
      </trkpt>
      <trkpt lat="59.8974589" lon="17.7299544">
        <ele>24.1703</ele>
        <time>2013-04-14T10:47:32Z</time>
      </trkpt>
      <trkpt lat="59.8974572" lon="17.7300399">
        <ele>24.1703</ele>
        <time>2013-04-14T10:47:33Z</time>
      </trkpt>
      <trkpt lat="59.8974581" lon="17.7301238">
        <ele>24.651</ele>
        <time>2013-04-14T10:47:34Z</time>
      </trkpt>
      <trkpt lat="59.897463" lon="17.7302047">
        <ele>24.651</ele>
        <time>2013-04-14T10:47:35Z</time>
      </trkpt>
      <trkpt lat="59.8974723" lon="17.7302814">
        <ele>25.6123</ele>
        <time>2013-04-14T10:47:36Z</time>
      </trkpt>
      <trkpt lat="59.8974831" lon="17.7303539">
        <ele>25.6123</ele>
        <time>2013-04-14T10:47:37Z</time>
      </trkpt>
      <trkpt lat="59.8974943" lon="17.7304252">
        <ele>26.0929</ele>
        <time>2013-04-14T10:47:38Z</time>
      </trkpt>
      <trkpt lat="59.8974992" lon="17.7305055">
        <ele>26.5736</ele>
        <time>2013-04-14T10:47:39Z</time>
      </trkpt>
      <trkpt lat="59.8975059" lon="17.7305879">
        <ele>27.5349</ele>
        <time>2013-04-14T10:47:40Z</time>
      </trkpt>
      <trkpt lat="59.8975166" lon="17.7306662">
        <ele>27.5349</ele>
        <time>2013-04-14T10:47:41Z</time>
      </trkpt>
      <trkpt lat="59.8975268" lon="17.7307466">
        <ele>27.5349</ele>
        <time>2013-04-14T10:47:42Z</time>
      </trkpt>
      <trkpt lat="59.897534" lon="17.7308339">
        <ele>27.5349</ele>
        <time>2013-04-14T10:47:43Z</time>
      </trkpt>
      <trkpt lat="59.8975365" lon="17.7309325">
        <ele>28.0155</ele>
        <time>2013-04-14T10:47:44Z</time>
      </trkpt>
      <trkpt lat="59.8975447" lon="17.7310246">
        <ele>28.4962</ele>
        <time>2013-04-14T10:47:45Z</time>
      </trkpt>
      <trkpt lat="59.8975464" lon="17.7311269">
        <ele>28.9769</ele>
        <time>2013-04-14T10:47:46Z</time>
      </trkpt>
      <trkpt lat="59.8975509" lon="17.7312246">
        <ele>28.9769</ele>
        <time>2013-04-14T10:47:47Z</time>
      </trkpt>
      <trkpt lat="59.8975537" lon="17.7313244">
        <ele>29.4575</ele>
        <time>2013-04-14T10:47:48Z</time>
      </trkpt>
      <trkpt lat="59.8975531" lon="17.7314215">
        <ele>29.9381</ele>
        <time>2013-04-14T10:47:49Z</time>
      </trkpt>
      <trkpt lat="59.8975536" lon="17.7315101">
        <ele>30.4188</ele>
        <time>2013-04-14T10:47:50Z</time>
      </trkpt>
      <trkpt lat="59.8975511" lon="17.7316016">
        <ele>30.4188</ele>
        <time>2013-04-14T10:47:51Z</time>
      </trkpt>
      <trkpt lat="59.8975425" lon="17.7316945">
        <ele>31.3801</ele>
        <time>2013-04-14T10:47:52Z</time>
      </trkpt>
      <trkpt lat="59.8975354" lon="17.7317927">
        <ele>32.3416</ele>
        <time>2013-04-14T10:47:53Z</time>
      </trkpt>
      <trkpt lat="59.8975296" lon="17.7318945">
        <ele>32.3416</ele>
        <time>2013-04-14T10:47:54Z</time>
      </trkpt>
      <trkpt lat="59.8975189" lon="17.7320027">
        <ele>33.3029</ele>
        <time>2013-04-14T10:47:55Z</time>
      </trkpt>
      <trkpt lat="59.8975119" lon="17.7321066">
        <ele>33.7834</ele>
        <time>2013-04-14T10:47:56Z</time>
      </trkpt>
      <trkpt lat="59.897507" lon="17.7322094">
        <ele>33.7834</ele>
        <time>2013-04-14T10:47:57Z</time>
      </trkpt>
      <trkpt lat="59.8975019" lon="17.7323114">
        <ele>34.2642</ele>
        <time>2013-04-14T10:47:58Z</time>
      </trkpt>
      <trkpt lat="59.8974961" lon="17.7324125">
        <ele>34.2642</ele>
        <time>2013-04-14T10:47:59Z</time>
      </trkpt>
      <trkpt lat="59.897489" lon="17.7325165">
        <ele>34.7449</ele>
        <time>2013-04-14T10:48:00Z</time>
      </trkpt>
      <trkpt lat="59.8974878" lon="17.7326197">
        <ele>34.2642</ele>
        <time>2013-04-14T10:48:01Z</time>
      </trkpt>
      <trkpt lat="59.8974873" lon="17.7327259">
        <ele>33.7834</ele>
        <time>2013-04-14T10:48:02Z</time>
      </trkpt>
      <trkpt lat="59.8974873" lon="17.7328274">
        <ele>33.3029</ele>
        <time>2013-04-14T10:48:03Z</time>
      </trkpt>
      <trkpt lat="59.8974867" lon="17.7329292">
        <ele>33.3029</ele>
        <time>2013-04-14T10:48:04Z</time>
      </trkpt>
      <trkpt lat="59.8974821" lon="17.7330328">
        <ele>33.3029</ele>
        <time>2013-04-14T10:48:05Z</time>
      </trkpt>
      <trkpt lat="59.8974762" lon="17.7331377">
        <ele>33.3029</ele>
        <time>2013-04-14T10:48:06Z</time>
      </trkpt>
      <trkpt lat="59.8974695" lon="17.7332435">
        <ele>32.8223</ele>
        <time>2013-04-14T10:48:07Z</time>
      </trkpt>
      <trkpt lat="59.8974614" lon="17.733347">
        <ele>32.8223</ele>
        <time>2013-04-14T10:48:08Z</time>
      </trkpt>
      <trkpt lat="59.8974558" lon="17.7334459">
        <ele>32.3416</ele>
        <time>2013-04-14T10:48:09Z</time>
      </trkpt>
      <trkpt lat="59.8974437" lon="17.7335491">
        <ele>31.8607</ele>
        <time>2013-04-14T10:48:10Z</time>
      </trkpt>
      <trkpt lat="59.8974314" lon="17.7336532">
        <ele>31.8607</ele>
        <time>2013-04-14T10:48:11Z</time>
      </trkpt>
      <trkpt lat="59.8974174" lon="17.7337581">
        <ele>31.3801</ele>
        <time>2013-04-14T10:48:12Z</time>
      </trkpt>
      <trkpt lat="59.8973982" lon="17.7338613">
        <ele>31.3801</ele>
        <time>2013-04-14T10:48:13Z</time>
      </trkpt>
      <trkpt lat="59.8973744" lon="17.7339669">
        <ele>30.8995</ele>
        <time>2013-04-14T10:48:14Z</time>
      </trkpt>
      <trkpt lat="59.897349" lon="17.7340716">
        <ele>30.8995</ele>
        <time>2013-04-14T10:48:15Z</time>
      </trkpt>
      <trkpt lat="59.897323" lon="17.7341751">
        <ele>30.4188</ele>
        <time>2013-04-14T10:48:16Z</time>
      </trkpt>
      <trkpt lat="59.8972968" lon="17.7342833">
        <ele>29.9381</ele>
        <time>2013-04-14T10:48:17Z</time>
      </trkpt>
      <trkpt lat="59.8972728" lon="17.7343897">
        <ele>29.4575</ele>
        <time>2013-04-14T10:48:18Z</time>
      </trkpt>
      <trkpt lat="59.8972535" lon="17.734499">
        <ele>28.4962</ele>
        <time>2013-04-14T10:48:19Z</time>
      </trkpt>
      <trkpt lat="59.8972356" lon="17.7346108">
        <ele>28.4962</ele>
        <time>2013-04-14T10:48:20Z</time>
      </trkpt>
      <trkpt lat="59.8972198" lon="17.7347283">
        <ele>28.0155</ele>
        <time>2013-04-14T10:48:21Z</time>
      </trkpt>
      <trkpt lat="59.8972087" lon="17.7348487">
        <ele>27.5349</ele>
        <time>2013-04-14T10:48:22Z</time>
      </trkpt>
      <trkpt lat="59.8972022" lon="17.7349734">
        <ele>27.0543</ele>
        <time>2013-04-14T10:48:23Z</time>
      </trkpt>
      <trkpt lat="59.8971973" lon="17.7351025">
        <ele>26.5736</ele>
        <time>2013-04-14T10:48:24Z</time>
      </trkpt>
      <trkpt lat="59.8971892" lon="17.7352351">
        <ele>26.5736</ele>
        <time>2013-04-14T10:48:25Z</time>
      </trkpt>
      <trkpt lat="59.8971867" lon="17.7353727">
        <ele>26.0929</ele>
        <time>2013-04-14T10:48:26Z</time>
      </trkpt>
      <trkpt lat="59.8971821" lon="17.7355143">
        <ele>26.0929</ele>
        <time>2013-04-14T10:48:27Z</time>
      </trkpt>
      <trkpt lat="59.8971775" lon="17.7356583">
        <ele>26.0929</ele>
        <time>2013-04-14T10:48:28Z</time>
      </trkpt>
      <trkpt lat="59.897173" lon="17.7358032">
        <ele>26.5736</ele>
        <time>2013-04-14T10:48:29Z</time>
      </trkpt>
      <trkpt lat="59.897165" lon="17.7359508">
        <ele>27.0543</ele>
        <time>2013-04-14T10:48:30Z</time>
      </trkpt>
      <trkpt lat="59.8971531" lon="17.7360965">
        <ele>27.0543</ele>
        <time>2013-04-14T10:48:31Z</time>
      </trkpt>
      <trkpt lat="59.8971369" lon="17.7362429">
        <ele>27.0543</ele>
        <time>2013-04-14T10:48:32Z</time>
      </trkpt>
      <trkpt lat="59.8971169" lon="17.736388">
        <ele>27.0543</ele>
        <time>2013-04-14T10:48:33Z</time>
      </trkpt>
      <trkpt lat="59.8970911" lon="17.7365289">
        <ele>27.0543</ele>
        <time>2013-04-14T10:48:34Z</time>
      </trkpt>
      <trkpt lat="59.8970611" lon="17.7366632">
        <ele>26.5736</ele>
        <time>2013-04-14T10:48:35Z</time>
      </trkpt>
      <trkpt lat="59.8970274" lon="17.7367902">
        <ele>26.5736</ele>
        <time>2013-04-14T10:48:36Z</time>
      </trkpt>
      <trkpt lat="59.8969911" lon="17.7369101">
        <ele>26.5736</ele>
        <time>2013-04-14T10:48:37Z</time>
      </trkpt>
      <trkpt lat="59.8969523" lon="17.7370234">
        <ele>27.0543</ele>
        <time>2013-04-14T10:48:38Z</time>
      </trkpt>
      <trkpt lat="59.8969136" lon="17.7371314">
        <ele>27.0543</ele>
        <time>2013-04-14T10:48:39Z</time>
      </trkpt>
      <trkpt lat="59.8968745" lon="17.7372326">
        <ele>27.0543</ele>
        <time>2013-04-14T10:48:40Z</time>
      </trkpt>
      <trkpt lat="59.8968352" lon="17.7373277">
        <ele>27.5349</ele>
        <time>2013-04-14T10:48:41Z</time>
      </trkpt>
      <trkpt lat="59.8967971" lon="17.7374212">
        <ele>27.5349</ele>
        <time>2013-04-14T10:48:42Z</time>
      </trkpt>
      <trkpt lat="59.8967596" lon="17.737515">
        <ele>27.5349</ele>
        <time>2013-04-14T10:48:43Z</time>
      </trkpt>
      <trkpt lat="59.8967235" lon="17.7376112">
        <ele>27.5349</ele>
        <time>2013-04-14T10:48:44Z</time>
      </trkpt>
      <trkpt lat="59.8966885" lon="17.73771">
        <ele>27.0543</ele>
        <time>2013-04-14T10:48:45Z</time>
      </trkpt>
      <trkpt lat="59.8966564" lon="17.7378132">
        <ele>27.0543</ele>
        <time>2013-04-14T10:48:46Z</time>
      </trkpt>
      <trkpt lat="59.896627" lon="17.7379232">
        <ele>27.0543</ele>
        <time>2013-04-14T10:48:47Z</time>
      </trkpt>
      <trkpt lat="59.896602" lon="17.7380391">
        <ele>27.0543</ele>
        <time>2013-04-14T10:48:48Z</time>
      </trkpt>
      <trkpt lat="59.8965786" lon="17.7381592">
        <ele>27.5349</ele>
        <time>2013-04-14T10:48:49Z</time>
      </trkpt>
      <trkpt lat="59.8965564" lon="17.7382789">
        <ele>27.5349</ele>
        <time>2013-04-14T10:48:50Z</time>
      </trkpt>
      <trkpt lat="59.89653" lon="17.7383975">
        <ele>27.5349</ele>
        <time>2013-04-14T10:48:51Z</time>
      </trkpt>
      <trkpt lat="59.8964988" lon="17.7385089">
        <ele>27.5349</ele>
        <time>2013-04-14T10:48:52Z</time>
      </trkpt>
      <trkpt lat="59.8964594" lon="17.7386073">
        <ele>27.5349</ele>
        <time>2013-04-14T10:48:53Z</time>
      </trkpt>
      <trkpt lat="59.8964127" lon="17.7386877">
        <ele>27.5349</ele>
        <time>2013-04-14T10:48:54Z</time>
      </trkpt>
      <trkpt lat="59.8963576" lon="17.7387513">
        <ele>27.5349</ele>
        <time>2013-04-14T10:48:55Z</time>
      </trkpt>
      <trkpt lat="59.8962991" lon="17.7387921">
        <ele>27.5349</ele>
        <time>2013-04-14T10:48:56Z</time>
      </trkpt>
      <trkpt lat="59.8962366" lon="17.7388193">
        <ele>27.5349</ele>
        <time>2013-04-14T10:48:57Z</time>
      </trkpt>
      <trkpt lat="59.8961696" lon="17.7388426">
        <ele>27.0543</ele>
        <time>2013-04-14T10:48:58Z</time>
      </trkpt>
      <trkpt lat="59.8960997" lon="17.7388646">
        <ele>27.0543</ele>
        <time>2013-04-14T10:48:59Z</time>
      </trkpt>
      <trkpt lat="59.8960281" lon="17.7388869">
        <ele>27.0543</ele>
        <time>2013-04-14T10:49:00Z</time>
      </trkpt>
      <trkpt lat="59.895956" lon="17.7389107">
        <ele>26.5736</ele>
        <time>2013-04-14T10:49:01Z</time>
      </trkpt>
      <trkpt lat="59.8958836" lon="17.7389336">
        <ele>26.5736</ele>
        <time>2013-04-14T10:49:02Z</time>
      </trkpt>
      <trkpt lat="59.895812" lon="17.7389554">
        <ele>26.5736</ele>
        <time>2013-04-14T10:49:03Z</time>
      </trkpt>
      <trkpt lat="59.8957411" lon="17.7389762">
        <ele>26.5736</ele>
        <time>2013-04-14T10:49:04Z</time>
      </trkpt>
      <trkpt lat="59.8956705" lon="17.7389958">
        <ele>26.5736</ele>
        <time>2013-04-14T10:49:05Z</time>
      </trkpt>
      <trkpt lat="59.8956003" lon="17.7390145">
        <ele>26.5736</ele>
        <time>2013-04-14T10:49:06Z</time>
      </trkpt>
      <trkpt lat="59.8955304" lon="17.7390324">
        <ele>26.5736</ele>
        <time>2013-04-14T10:49:07Z</time>
      </trkpt>
      <trkpt lat="59.8954611" lon="17.7390495">
        <ele>26.5736</ele>
        <time>2013-04-14T10:49:08Z</time>
      </trkpt>
      <trkpt lat="59.8953919" lon="17.7390653">
        <ele>26.5736</ele>
        <time>2013-04-14T10:49:09Z</time>
      </trkpt>
      <trkpt lat="59.8953232" lon="17.7390802">
        <ele>27.0543</ele>
        <time>2013-04-14T10:49:10Z</time>
      </trkpt>
      <trkpt lat="59.8952558" lon="17.7390979">
        <ele>27.0543</ele>
        <time>2013-04-14T10:49:11Z</time>
      </trkpt>
      <trkpt lat="59.8951899" lon="17.7391187">
        <ele>27.0543</ele>
        <time>2013-04-14T10:49:12Z</time>
      </trkpt>
      <trkpt lat="59.8951265" lon="17.7391445">
        <ele>27.0543</ele>
        <time>2013-04-14T10:49:13Z</time>
      </trkpt>
      <trkpt lat="59.895066" lon="17.7391692">
        <ele>27.0543</ele>
        <time>2013-04-14T10:49:14Z</time>
      </trkpt>
      <trkpt lat="59.8950079" lon="17.7391901">
        <ele>27.5349</ele>
        <time>2013-04-14T10:49:15Z</time>
      </trkpt>
      <trkpt lat="59.8949532" lon="17.7392139">
        <ele>27.5349</ele>
        <time>2013-04-14T10:49:16Z</time>
      </trkpt>
      <trkpt lat="59.8949027" lon="17.7392431">
        <ele>27.5349</ele>
        <time>2013-04-14T10:49:17Z</time>
      </trkpt>
      <trkpt lat="59.8948562" lon="17.739274">
        <ele>28.0155</ele>
        <time>2013-04-14T10:49:18Z</time>
      </trkpt>
      <trkpt lat="59.8948128" lon="17.739302">
        <ele>28.0155</ele>
        <time>2013-04-14T10:49:19Z</time>
      </trkpt>
      <trkpt lat="59.8947733" lon="17.7393243">
        <ele>28.0155</ele>
        <time>2013-04-14T10:49:20Z</time>
      </trkpt>
      <trkpt lat="59.8947377" lon="17.7393446">
        <ele>28.4962</ele>
        <time>2013-04-14T10:49:21Z</time>
      </trkpt>
      <trkpt lat="59.89471" lon="17.7393759">
        <ele>28.4962</ele>
        <time>2013-04-14T10:49:22Z</time>
      </trkpt>
      <trkpt lat="59.8946936" lon="17.7394187">
        <ele>28.4962</ele>
        <time>2013-04-14T10:49:23Z</time>
      </trkpt>
      <trkpt lat="59.8946854" lon="17.7394691">
        <ele>28.4962</ele>
        <time>2013-04-14T10:49:24Z</time>
      </trkpt>
      <trkpt lat="59.8946823" lon="17.7395209">
        <ele>28.9769</ele>
        <time>2013-04-14T10:49:25Z</time>
      </trkpt>
      <trkpt lat="59.8946823" lon="17.7395681">
        <ele>29.4575</ele>
        <time>2013-04-14T10:49:26Z</time>
      </trkpt>
      <trkpt lat="59.8946837" lon="17.7396081">
        <ele>29.4575</ele>
        <time>2013-04-14T10:49:27Z</time>
      </trkpt>
      <trkpt lat="59.8946836" lon="17.7396434">
        <ele>29.4575</ele>
        <time>2013-04-14T10:49:28Z</time>
      </trkpt>
      <trkpt lat="59.8946828" lon="17.7396771">
        <ele>29.9381</ele>
        <time>2013-04-14T10:49:29Z</time>
      </trkpt>
      <trkpt lat="59.8946828" lon="17.7397005">
        <ele>29.9381</ele>
        <time>2013-04-14T10:49:30Z</time>
      </trkpt>
      <trkpt lat="59.8946859" lon="17.7397108">
        <ele>29.4575</ele>
        <time>2013-04-14T10:49:31Z</time>
      </trkpt>
      <trkpt lat="59.8946895" lon="17.7397118">
        <ele>29.9381</ele>
        <time>2013-04-14T10:49:32Z</time>
      </trkpt>
      <trkpt lat="59.8946907" lon="17.7397096">
        <ele>29.9381</ele>
        <time>2013-04-14T10:49:33Z</time>
      </trkpt>
      <trkpt lat="59.8946144" lon="17.7393678">
        <ele>28.9769</ele>
        <time>2013-04-14T10:53:24Z</time>
      </trkpt>
      <trkpt lat="59.8946025" lon="17.7393775">
        <ele>28.9769</ele>
        <time>2013-04-14T10:53:25Z</time>
      </trkpt>
      <trkpt lat="59.8945876" lon="17.7393871">
        <ele>29.4575</ele>
        <time>2013-04-14T10:53:26Z</time>
      </trkpt>
      <trkpt lat="59.8945713" lon="17.7393951">
        <ele>29.4575</ele>
        <time>2013-04-14T10:53:27Z</time>
      </trkpt>
      <trkpt lat="59.8945542" lon="17.7394104">
        <ele>29.4575</ele>
        <time>2013-04-14T10:53:28Z</time>
      </trkpt>
      <trkpt lat="59.8945351" lon="17.739434">
        <ele>29.4575</ele>
        <time>2013-04-14T10:53:29Z</time>
      </trkpt>
      <trkpt lat="59.8945122" lon="17.7394595">
        <ele>29.4575</ele>
        <time>2013-04-14T10:53:30Z</time>
      </trkpt>
      <trkpt lat="59.894488" lon="17.7394867">
        <ele>29.4575</ele>
        <time>2013-04-14T10:53:31Z</time>
      </trkpt>
      <trkpt lat="59.8944606" lon="17.7395158">
        <ele>29.4575</ele>
        <time>2013-04-14T10:53:32Z</time>
      </trkpt>
      <trkpt lat="59.8944356" lon="17.7395496">
        <ele>29.4575</ele>
        <time>2013-04-14T10:53:33Z</time>
      </trkpt>
      <trkpt lat="59.8944072" lon="17.7395843">
        <ele>29.4575</ele>
        <time>2013-04-14T10:53:34Z</time>
      </trkpt>
      <trkpt lat="59.8943792" lon="17.7396258">
        <ele>29.4575</ele>
        <time>2013-04-14T10:53:35Z</time>
      </trkpt>
      <trkpt lat="59.8943508" lon="17.7396719">
        <ele>29.4575</ele>
        <time>2013-04-14T10:53:36Z</time>
      </trkpt>
      <trkpt lat="59.8943231" lon="17.739726">
        <ele>29.4575</ele>
        <time>2013-04-14T10:53:37Z</time>
      </trkpt>
      <trkpt lat="59.8942975" lon="17.7397836">
        <ele>29.4575</ele>
        <time>2013-04-14T10:53:38Z</time>
      </trkpt>
      <trkpt lat="59.8942721" lon="17.7398433">
        <ele>29.4575</ele>
        <time>2013-04-14T10:53:39Z</time>
      </trkpt>
      <trkpt lat="59.8942466" lon="17.7399003">
        <ele>29.4575</ele>
        <time>2013-04-14T10:53:40Z</time>
      </trkpt>
      <trkpt lat="59.8942234" lon="17.7399536">
        <ele>28.9769</ele>
        <time>2013-04-14T10:53:41Z</time>
      </trkpt>
      <trkpt lat="59.8942021" lon="17.7400055">
        <ele>28.4962</ele>
        <time>2013-04-14T10:53:42Z</time>
      </trkpt>
      <trkpt lat="59.8941801" lon="17.7400605">
        <ele>28.4962</ele>
        <time>2013-04-14T10:53:43Z</time>
      </trkpt>
      <trkpt lat="59.894156" lon="17.7401306">
        <ele>28.0155</ele>
        <time>2013-04-14T10:53:44Z</time>
      </trkpt>
      <trkpt lat="59.894129" lon="17.7402094">
        <ele>27.5349</ele>
        <time>2013-04-14T10:53:45Z</time>
      </trkpt>
      <trkpt lat="59.894101" lon="17.7402914">
        <ele>27.0543</ele>
        <time>2013-04-14T10:53:46Z</time>
      </trkpt>
      <trkpt lat="59.8940713" lon="17.7403778">
        <ele>26.5736</ele>
        <time>2013-04-14T10:53:47Z</time>
      </trkpt>
      <trkpt lat="59.894042" lon="17.7404675">
        <ele>26.5736</ele>
        <time>2013-04-14T10:53:48Z</time>
      </trkpt>
      <trkpt lat="59.8940135" lon="17.7405592">
        <ele>26.0929</ele>
        <time>2013-04-14T10:53:49Z</time>
      </trkpt>
      <trkpt lat="59.8939862" lon="17.7406498">
        <ele>26.0929</ele>
        <time>2013-04-14T10:53:50Z</time>
      </trkpt>
      <trkpt lat="59.8939605" lon="17.7407364">
        <ele>26.0929</ele>
        <time>2013-04-14T10:53:51Z</time>
      </trkpt>
      <trkpt lat="59.8939348" lon="17.7408176">
        <ele>26.5736</ele>
        <time>2013-04-14T10:53:52Z</time>
      </trkpt>
      <trkpt lat="59.8939084" lon="17.7408962">
        <ele>26.5736</ele>
        <time>2013-04-14T10:53:53Z</time>
      </trkpt>
      <trkpt lat="59.893884" lon="17.7409753">
        <ele>26.5736</ele>
        <time>2013-04-14T10:53:54Z</time>
      </trkpt>
      <trkpt lat="59.8938586" lon="17.7410533">
        <ele>26.5736</ele>
        <time>2013-04-14T10:53:55Z</time>
      </trkpt>
      <trkpt lat="59.8938305" lon="17.7411337">
        <ele>26.0929</ele>
        <time>2013-04-14T10:53:56Z</time>
      </trkpt>
      <trkpt lat="59.8938033" lon="17.7412196">
        <ele>26.0929</ele>
        <time>2013-04-14T10:53:57Z</time>
      </trkpt>
      <trkpt lat="59.8937753" lon="17.7413062">
        <ele>26.0929</ele>
        <time>2013-04-14T10:53:58Z</time>
      </trkpt>
      <trkpt lat="59.8937457" lon="17.7413974">
        <ele>26.0929</ele>
        <time>2013-04-14T10:53:59Z</time>
      </trkpt>
      <trkpt lat="59.8937163" lon="17.7414914">
        <ele>25.6123</ele>
        <time>2013-04-14T10:54:00Z</time>
      </trkpt>
      <trkpt lat="59.8936861" lon="17.7415843">
        <ele>25.6123</ele>
        <time>2013-04-14T10:54:01Z</time>
      </trkpt>
      <trkpt lat="59.8936559" lon="17.7416771">
        <ele>25.6123</ele>
        <time>2013-04-14T10:54:02Z</time>
      </trkpt>
      <trkpt lat="59.8936265" lon="17.7417672">
        <ele>25.6123</ele>
        <time>2013-04-14T10:54:03Z</time>
      </trkpt>
      <trkpt lat="59.8935991" lon="17.7418545">
        <ele>25.6123</ele>
        <time>2013-04-14T10:54:04Z</time>
      </trkpt>
      <trkpt lat="59.89357" lon="17.7419442">
        <ele>26.0929</ele>
        <time>2013-04-14T10:54:05Z</time>
      </trkpt>
      <trkpt lat="59.8935425" lon="17.7420298">
        <ele>26.0929</ele>
        <time>2013-04-14T10:54:06Z</time>
      </trkpt>
      <trkpt lat="59.8935167" lon="17.7421121">
        <ele>26.0929</ele>
        <time>2013-04-14T10:54:07Z</time>
      </trkpt>
      <trkpt lat="59.8934899" lon="17.7421935">
        <ele>26.0929</ele>
        <time>2013-04-14T10:54:08Z</time>
      </trkpt>
      <trkpt lat="59.8934655" lon="17.7422726">
        <ele>26.0929</ele>
        <time>2013-04-14T10:54:09Z</time>
      </trkpt>
      <trkpt lat="59.8934422" lon="17.7423532">
        <ele>26.0929</ele>
        <time>2013-04-14T10:54:10Z</time>
      </trkpt>
      <trkpt lat="59.8934207" lon="17.7424317">
        <ele>26.5736</ele>
        <time>2013-04-14T10:54:11Z</time>
      </trkpt>
      <trkpt lat="59.893396" lon="17.7425083">
        <ele>26.5736</ele>
        <time>2013-04-14T10:54:12Z</time>
      </trkpt>
      <trkpt lat="59.8933717" lon="17.7425785">
        <ele>27.0543</ele>
        <time>2013-04-14T10:54:13Z</time>
      </trkpt>
      <trkpt lat="59.8933519" lon="17.7426471">
        <ele>27.0543</ele>
        <time>2013-04-14T10:54:14Z</time>
      </trkpt>
      <trkpt lat="59.8933387" lon="17.7427122">
        <ele>27.5349</ele>
        <time>2013-04-14T10:54:15Z</time>
      </trkpt>
      <trkpt lat="59.893321" lon="17.7427787">
        <ele>28.0155</ele>
        <time>2013-04-14T10:54:16Z</time>
      </trkpt>
      <trkpt lat="59.8932987" lon="17.7428431">
        <ele>28.0155</ele>
        <time>2013-04-14T10:54:17Z</time>
      </trkpt>
      <trkpt lat="59.8932783" lon="17.7429084">
        <ele>28.0155</ele>
        <time>2013-04-14T10:54:18Z</time>
      </trkpt>
      <trkpt lat="59.8932575" lon="17.7429767">
        <ele>28.0155</ele>
        <time>2013-04-14T10:54:19Z</time>
      </trkpt>
      <trkpt lat="59.893237" lon="17.7430452">
        <ele>28.0155</ele>
        <time>2013-04-14T10:54:20Z</time>
      </trkpt>
      <trkpt lat="59.8932158" lon="17.7431117">
        <ele>28.4962</ele>
        <time>2013-04-14T10:54:21Z</time>
      </trkpt>
      <trkpt lat="59.893195" lon="17.7431758">
        <ele>28.4962</ele>
        <time>2013-04-14T10:54:22Z</time>
      </trkpt>
      <trkpt lat="59.8931734" lon="17.7432423">
        <ele>28.9769</ele>
        <time>2013-04-14T10:54:23Z</time>
      </trkpt>
      <trkpt lat="59.8931495" lon="17.7433113">
        <ele>28.9769</ele>
        <time>2013-04-14T10:54:24Z</time>
      </trkpt>
      <trkpt lat="59.8931277" lon="17.7433777">
        <ele>29.4575</ele>
        <time>2013-04-14T10:54:25Z</time>
      </trkpt>
      <trkpt lat="59.8931065" lon="17.743447">
        <ele>29.4575</ele>
        <time>2013-04-14T10:54:26Z</time>
      </trkpt>
      <trkpt lat="59.8930859" lon="17.7435186">
        <ele>29.9381</ele>
        <time>2013-04-14T10:54:27Z</time>
      </trkpt>
      <trkpt lat="59.8930634" lon="17.7435896">
        <ele>29.4575</ele>
        <time>2013-04-14T10:54:28Z</time>
      </trkpt>
      <trkpt lat="59.8930439" lon="17.743657">
        <ele>29.4575</ele>
        <time>2013-04-14T10:54:29Z</time>
      </trkpt>
      <trkpt lat="59.8930258" lon="17.7437319">
        <ele>29.4575</ele>
        <time>2013-04-14T10:54:30Z</time>
      </trkpt>
      <trkpt lat="59.8930038" lon="17.7438113">
        <ele>29.4575</ele>
        <time>2013-04-14T10:54:31Z</time>
      </trkpt>
      <trkpt lat="59.892977" lon="17.7438885">
        <ele>28.9769</ele>
        <time>2013-04-14T10:54:32Z</time>
      </trkpt>
      <trkpt lat="59.8929472" lon="17.7439687">
        <ele>28.9769</ele>
        <time>2013-04-14T10:54:33Z</time>
      </trkpt>
      <trkpt lat="59.8929148" lon="17.7440554">
        <ele>28.4962</ele>
        <time>2013-04-14T10:54:34Z</time>
      </trkpt>
      <trkpt lat="59.8928807" lon="17.7441498">
        <ele>28.0155</ele>
        <time>2013-04-14T10:54:35Z</time>
      </trkpt>
      <trkpt lat="59.8928467" lon="17.7442552">
        <ele>27.5349</ele>
        <time>2013-04-14T10:54:36Z</time>
      </trkpt>
      <trkpt lat="59.8928107" lon="17.7443719">
        <ele>26.5736</ele>
        <time>2013-04-14T10:54:37Z</time>
      </trkpt>
      <trkpt lat="59.8927729" lon="17.7444933">
        <ele>25.6123</ele>
        <time>2013-04-14T10:54:38Z</time>
      </trkpt>
      <trkpt lat="59.89273" lon="17.744624">
        <ele>25.1317</ele>
        <time>2013-04-14T10:54:39Z</time>
      </trkpt>
      <trkpt lat="59.8926862" lon="17.7447635">
        <ele>24.651</ele>
        <time>2013-04-14T10:54:40Z</time>
      </trkpt>
      <trkpt lat="59.8926427" lon="17.7449035">
        <ele>23.6896</ele>
        <time>2013-04-14T10:54:41Z</time>
      </trkpt>
      <trkpt lat="59.8925977" lon="17.7450425">
        <ele>23.6896</ele>
        <time>2013-04-14T10:54:42Z</time>
      </trkpt>
      <trkpt lat="59.892553" lon="17.7451803">
        <ele>23.209</ele>
        <time>2013-04-14T10:54:43Z</time>
      </trkpt>
      <trkpt lat="59.8925067" lon="17.7453193">
        <ele>23.209</ele>
        <time>2013-04-14T10:54:44Z</time>
      </trkpt>
      <trkpt lat="59.8924613" lon="17.7454561">
        <ele>23.209</ele>
        <time>2013-04-14T10:54:45Z</time>
      </trkpt>
      <trkpt lat="59.892417" lon="17.7455916">
        <ele>23.209</ele>
        <time>2013-04-14T10:54:46Z</time>
      </trkpt>
      <trkpt lat="59.892375" lon="17.7457254">
        <ele>23.209</ele>
        <time>2013-04-14T10:54:47Z</time>
      </trkpt>
      <trkpt lat="59.8923331" lon="17.7458553">
        <ele>22.7283</ele>
        <time>2013-04-14T10:54:48Z</time>
      </trkpt>
      <trkpt lat="59.8922891" lon="17.7459782">
        <ele>22.7283</ele>
        <time>2013-04-14T10:54:49Z</time>
      </trkpt>
      <trkpt lat="59.8922439" lon="17.7460956">
        <ele>22.7283</ele>
        <time>2013-04-14T10:54:50Z</time>
      </trkpt>
      <trkpt lat="59.892198" lon="17.7462065">
        <ele>22.7283</ele>
        <time>2013-04-14T10:54:51Z</time>
      </trkpt>
      <trkpt lat="59.8921492" lon="17.7463097">
        <ele>22.7283</ele>
        <time>2013-04-14T10:54:52Z</time>
      </trkpt>
      <trkpt lat="59.8920972" lon="17.7464064">
        <ele>22.2476</ele>
        <time>2013-04-14T10:54:53Z</time>
      </trkpt>
      <trkpt lat="59.8920431" lon="17.7464988">
        <ele>22.2476</ele>
        <time>2013-04-14T10:54:54Z</time>
      </trkpt>
      <trkpt lat="59.8919866" lon="17.7465881">
        <ele>22.2476</ele>
        <time>2013-04-14T10:54:55Z</time>
      </trkpt>
      <trkpt lat="59.8919294" lon="17.7466727">
        <ele>22.2476</ele>
        <time>2013-04-14T10:54:56Z</time>
      </trkpt>
      <trkpt lat="59.8918726" lon="17.7467545">
        <ele>22.2476</ele>
        <time>2013-04-14T10:54:57Z</time>
      </trkpt>
      <trkpt lat="59.8918172" lon="17.7468358">
        <ele>22.2476</ele>
        <time>2013-04-14T10:54:58Z</time>
      </trkpt>
      <trkpt lat="59.8917628" lon="17.7469158">
        <ele>22.2476</ele>
        <time>2013-04-14T10:54:59Z</time>
      </trkpt>
      <trkpt lat="59.8917082" lon="17.7469942">
        <ele>22.2476</ele>
        <time>2013-04-14T10:55:00Z</time>
      </trkpt>
      <trkpt lat="59.8916539" lon="17.747072">
        <ele>22.2476</ele>
        <time>2013-04-14T10:55:01Z</time>
      </trkpt>
      <trkpt lat="59.8916001" lon="17.7471498">
        <ele>22.2476</ele>
        <time>2013-04-14T10:55:02Z</time>
      </trkpt>
      <trkpt lat="59.8915476" lon="17.7472285">
        <ele>22.7283</ele>
        <time>2013-04-14T10:55:03Z</time>
      </trkpt>
      <trkpt lat="59.8914959" lon="17.7473073">
        <ele>22.7283</ele>
        <time>2013-04-14T10:55:04Z</time>
      </trkpt>
      <trkpt lat="59.891443" lon="17.7473841">
        <ele>22.7283</ele>
        <time>2013-04-14T10:55:05Z</time>
      </trkpt>
      <trkpt lat="59.8913892" lon="17.7474576">
        <ele>22.7283</ele>
        <time>2013-04-14T10:55:06Z</time>
      </trkpt>
      <trkpt lat="59.8913364" lon="17.7475264">
        <ele>22.7283</ele>
        <time>2013-04-14T10:55:07Z</time>
      </trkpt>
      <trkpt lat="59.8912852" lon="17.7475928">
        <ele>22.7283</ele>
        <time>2013-04-14T10:55:08Z</time>
      </trkpt>
      <trkpt lat="59.8912354" lon="17.7476585">
        <ele>22.7283</ele>
        <time>2013-04-14T10:55:09Z</time>
      </trkpt>
      <trkpt lat="59.8911845" lon="17.7477216">
        <ele>22.7283</ele>
        <time>2013-04-14T10:55:10Z</time>
      </trkpt>
      <trkpt lat="59.8911323" lon="17.7477844">
        <ele>22.7283</ele>
        <time>2013-04-14T10:55:11Z</time>
      </trkpt>
      <trkpt lat="59.8910806" lon="17.7478511">
        <ele>23.209</ele>
        <time>2013-04-14T10:55:12Z</time>
      </trkpt>
      <trkpt lat="59.8910293" lon="17.7479178">
        <ele>23.209</ele>
        <time>2013-04-14T10:55:13Z</time>
      </trkpt>
      <trkpt lat="59.8909778" lon="17.7479821">
        <ele>23.209</ele>
        <time>2013-04-14T10:55:14Z</time>
      </trkpt>
      <trkpt lat="59.8909271" lon="17.7480474">
        <ele>23.209</ele>
        <time>2013-04-14T10:55:15Z</time>
      </trkpt>
      <trkpt lat="59.8908776" lon="17.7481123">
        <ele>23.6896</ele>
        <time>2013-04-14T10:55:16Z</time>
      </trkpt>
      <trkpt lat="59.8908288" lon="17.7481765">
        <ele>23.6896</ele>
        <time>2013-04-14T10:55:17Z</time>
      </trkpt>
      <trkpt lat="59.8907816" lon="17.7482407">
        <ele>23.6896</ele>
        <time>2013-04-14T10:55:18Z</time>
      </trkpt>
      <trkpt lat="59.8907365" lon="17.7483074">
        <ele>24.1703</ele>
        <time>2013-04-14T10:55:19Z</time>
      </trkpt>
      <trkpt lat="59.8906946" lon="17.7483781">
        <ele>24.651</ele>
        <time>2013-04-14T10:55:20Z</time>
      </trkpt>
      <trkpt lat="59.8906563" lon="17.7484506">
        <ele>24.651</ele>
        <time>2013-04-14T10:55:21Z</time>
      </trkpt>
      <trkpt lat="59.8906198" lon="17.7485241">
        <ele>25.1317</ele>
        <time>2013-04-14T10:55:22Z</time>
      </trkpt>
      <trkpt lat="59.8905837" lon="17.7486003">
        <ele>25.1317</ele>
        <time>2013-04-14T10:55:23Z</time>
      </trkpt>
      <trkpt lat="59.8905481" lon="17.7486789">
        <ele>25.6123</ele>
        <time>2013-04-14T10:55:24Z</time>
      </trkpt>
      <trkpt lat="59.8905133" lon="17.7487584">
        <ele>25.6123</ele>
        <time>2013-04-14T10:55:25Z</time>
      </trkpt>
      <trkpt lat="59.8904796" lon="17.7488407">
        <ele>26.0929</ele>
        <time>2013-04-14T10:55:26Z</time>
      </trkpt>
      <trkpt lat="59.8904461" lon="17.7489226">
        <ele>26.0929</ele>
        <time>2013-04-14T10:55:27Z</time>
      </trkpt>
      <trkpt lat="59.8904118" lon="17.7490017">
        <ele>26.0929</ele>
        <time>2013-04-14T10:55:28Z</time>
      </trkpt>
      <trkpt lat="59.890378" lon="17.7490815">
        <ele>26.5736</ele>
        <time>2013-04-14T10:55:29Z</time>
      </trkpt>
      <trkpt lat="59.8903442" lon="17.7491597">
        <ele>26.5736</ele>
        <time>2013-04-14T10:55:30Z</time>
      </trkpt>
      <trkpt lat="59.8903116" lon="17.7492375">
        <ele>26.5736</ele>
        <time>2013-04-14T10:55:31Z</time>
      </trkpt>
      <trkpt lat="59.8902785" lon="17.749312">
        <ele>27.0543</ele>
        <time>2013-04-14T10:55:32Z</time>
      </trkpt>
      <trkpt lat="59.8902449" lon="17.749383">
        <ele>26.5736</ele>
        <time>2013-04-14T10:55:33Z</time>
      </trkpt>
      <trkpt lat="59.8902113" lon="17.749455">
        <ele>27.0543</ele>
        <time>2013-04-14T10:55:34Z</time>
      </trkpt>
      <trkpt lat="59.8901781" lon="17.7495301">
        <ele>27.0543</ele>
        <time>2013-04-14T10:55:35Z</time>
      </trkpt>
      <trkpt lat="59.8901445" lon="17.7496037">
        <ele>27.0543</ele>
        <time>2013-04-14T10:55:36Z</time>
      </trkpt>
      <trkpt lat="59.8901103" lon="17.7496788">
        <ele>27.5349</ele>
        <time>2013-04-14T10:55:37Z</time>
      </trkpt>
      <trkpt lat="59.8900746" lon="17.7497553">
        <ele>27.5349</ele>
        <time>2013-04-14T10:55:38Z</time>
      </trkpt>
      <trkpt lat="59.8900365" lon="17.7498285">
        <ele>27.5349</ele>
        <time>2013-04-14T10:55:39Z</time>
      </trkpt>
      <trkpt lat="59.8899985" lon="17.7498978">
        <ele>27.5349</ele>
        <time>2013-04-14T10:55:40Z</time>
      </trkpt>
      <trkpt lat="59.8899592" lon="17.749964">
        <ele>27.5349</ele>
        <time>2013-04-14T10:55:41Z</time>
      </trkpt>
      <trkpt lat="59.8899206" lon="17.7500241">
        <ele>27.5349</ele>
        <time>2013-04-14T10:55:42Z</time>
      </trkpt>
      <trkpt lat="59.8898808" lon="17.7500816">
        <ele>27.5349</ele>
        <time>2013-04-14T10:55:43Z</time>
      </trkpt>
      <trkpt lat="59.8898402" lon="17.7501378">
        <ele>28.0155</ele>
        <time>2013-04-14T10:55:44Z</time>
      </trkpt>
      <trkpt lat="59.8898004" lon="17.7502009">
        <ele>28.0155</ele>
        <time>2013-04-14T10:55:45Z</time>
      </trkpt>
      <trkpt lat="59.8897622" lon="17.7502666">
        <ele>28.0155</ele>
        <time>2013-04-14T10:55:46Z</time>
      </trkpt>
      <trkpt lat="59.8897234" lon="17.7503351">
        <ele>28.4962</ele>
        <time>2013-04-14T10:55:47Z</time>
      </trkpt>
      <trkpt lat="59.8896866" lon="17.7504028">
        <ele>28.9769</ele>
        <time>2013-04-14T10:55:48Z</time>
      </trkpt>
      <trkpt lat="59.8896515" lon="17.7504728">
        <ele>28.9769</ele>
        <time>2013-04-14T10:55:49Z</time>
      </trkpt>
      <trkpt lat="59.8896197" lon="17.750546">
        <ele>28.9769</ele>
        <time>2013-04-14T10:55:50Z</time>
      </trkpt>
      <trkpt lat="59.8895905" lon="17.7506247">
        <ele>29.4575</ele>
        <time>2013-04-14T10:55:51Z</time>
      </trkpt>
      <trkpt lat="59.8895669" lon="17.7507056">
        <ele>29.4575</ele>
        <time>2013-04-14T10:55:52Z</time>
      </trkpt>
      <trkpt lat="59.8895452" lon="17.7507894">
        <ele>28.9769</ele>
        <time>2013-04-14T10:55:53Z</time>
      </trkpt>
      <trkpt lat="59.889526" lon="17.7508769">
        <ele>29.4575</ele>
        <time>2013-04-14T10:55:54Z</time>
      </trkpt>
      <trkpt lat="59.8895099" lon="17.750967">
        <ele>29.4575</ele>
        <time>2013-04-14T10:55:55Z</time>
      </trkpt>
      <trkpt lat="59.889496" lon="17.7510588">
        <ele>29.4575</ele>
        <time>2013-04-14T10:55:56Z</time>
      </trkpt>
      <trkpt lat="59.8894872" lon="17.75115">
        <ele>29.9381</ele>
        <time>2013-04-14T10:55:57Z</time>
      </trkpt>
      <trkpt lat="59.8894835" lon="17.7512415">
        <ele>29.9381</ele>
        <time>2013-04-14T10:55:58Z</time>
      </trkpt>
      <trkpt lat="59.8894803" lon="17.7513354">
        <ele>29.4575</ele>
        <time>2013-04-14T10:55:59Z</time>
      </trkpt>
      <trkpt lat="59.8894757" lon="17.7514311">
        <ele>29.4575</ele>
        <time>2013-04-14T10:56:00Z</time>
      </trkpt>
      <trkpt lat="59.8894711" lon="17.7515306">
        <ele>29.4575</ele>
        <time>2013-04-14T10:56:01Z</time>
      </trkpt>
      <trkpt lat="59.8894659" lon="17.7516343">
        <ele>29.4575</ele>
        <time>2013-04-14T10:56:02Z</time>
      </trkpt>
      <trkpt lat="59.8894587" lon="17.7517435">
        <ele>29.4575</ele>
        <time>2013-04-14T10:56:03Z</time>
      </trkpt>
      <trkpt lat="59.8894504" lon="17.7518576">
        <ele>29.4575</ele>
        <time>2013-04-14T10:56:04Z</time>
      </trkpt>
      <trkpt lat="59.8894412" lon="17.751977">
        <ele>28.9769</ele>
        <time>2013-04-14T10:56:05Z</time>
      </trkpt>
      <trkpt lat="59.8894306" lon="17.7520998">
        <ele>28.9769</ele>
        <time>2013-04-14T10:56:06Z</time>
      </trkpt>
      <trkpt lat="59.8894206" lon="17.7522243">
        <ele>28.9769</ele>
        <time>2013-04-14T10:56:07Z</time>
      </trkpt>
      <trkpt lat="59.8894146" lon="17.7523497">
        <ele>28.4962</ele>
        <time>2013-04-14T10:56:08Z</time>
      </trkpt>
      <trkpt lat="59.8894047" lon="17.7524792">
        <ele>28.4962</ele>
        <time>2013-04-14T10:56:09Z</time>
      </trkpt>
      <trkpt lat="59.889393" lon="17.7526076">
        <ele>28.0155</ele>
        <time>2013-04-14T10:56:10Z</time>
      </trkpt>
      <trkpt lat="59.8893792" lon="17.752732">
        <ele>28.0155</ele>
        <time>2013-04-14T10:56:11Z</time>
      </trkpt>
      <trkpt lat="59.8893638" lon="17.7528543">
        <ele>27.5349</ele>
        <time>2013-04-14T10:56:12Z</time>
      </trkpt>
      <trkpt lat="59.889343" lon="17.7529745">
        <ele>27.5349</ele>
        <time>2013-04-14T10:56:13Z</time>
      </trkpt>
      <trkpt lat="59.8893126" lon="17.7530936">
        <ele>27.5349</ele>
        <time>2013-04-14T10:56:14Z</time>
      </trkpt>
      <trkpt lat="59.8892805" lon="17.7532063">
        <ele>27.5349</ele>
        <time>2013-04-14T10:56:15Z</time>
      </trkpt>
      <trkpt lat="59.8892463" lon="17.7533163">
        <ele>27.5349</ele>
        <time>2013-04-14T10:56:16Z</time>
      </trkpt>
      <trkpt lat="59.8892136" lon="17.7534274">
        <ele>27.5349</ele>
        <time>2013-04-14T10:56:17Z</time>
      </trkpt>
      <trkpt lat="59.8891829" lon="17.7535399">
        <ele>26.5736</ele>
        <time>2013-04-14T10:56:18Z</time>
      </trkpt>
      <trkpt lat="59.8891521" lon="17.7536524">
        <ele>26.0929</ele>
        <time>2013-04-14T10:56:19Z</time>
      </trkpt>
      <trkpt lat="59.8891219" lon="17.7537662">
        <ele>26.0929</ele>
        <time>2013-04-14T10:56:20Z</time>
      </trkpt>
      <trkpt lat="59.8890924" lon="17.7538813">
        <ele>26.0929</ele>
        <time>2013-04-14T10:56:21Z</time>
      </trkpt>
      <trkpt lat="59.8890637" lon="17.7539946">
        <ele>26.0929</ele>
        <time>2013-04-14T10:56:22Z</time>
      </trkpt>
      <trkpt lat="59.8890374" lon="17.7541071">
        <ele>26.0929</ele>
        <time>2013-04-14T10:56:23Z</time>
      </trkpt>
      <trkpt lat="59.8890128" lon="17.754218">
        <ele>26.0929</ele>
        <time>2013-04-14T10:56:24Z</time>
      </trkpt>
      <trkpt lat="59.8889878" lon="17.7543248">
        <ele>26.5736</ele>
        <time>2013-04-14T10:56:25Z</time>
      </trkpt>
      <trkpt lat="59.888961" lon="17.7544252">
        <ele>27.0543</ele>
        <time>2013-04-14T10:56:26Z</time>
      </trkpt>
      <trkpt lat="59.8889333" lon="17.7545222">
        <ele>27.0543</ele>
        <time>2013-04-14T10:56:27Z</time>
      </trkpt>
      <trkpt lat="59.8889047" lon="17.7546164">
        <ele>27.5349</ele>
        <time>2013-04-14T10:56:28Z</time>
      </trkpt>
      <trkpt lat="59.8888717" lon="17.7547055">
        <ele>27.5349</ele>
        <time>2013-04-14T10:56:29Z</time>
      </trkpt>
      <trkpt lat="59.8888344" lon="17.7547889">
        <ele>28.0155</ele>
        <time>2013-04-14T10:56:30Z</time>
      </trkpt>
      <trkpt lat="59.8887919" lon="17.7548682">
        <ele>28.4962</ele>
        <time>2013-04-14T10:56:31Z</time>
      </trkpt>
      <trkpt lat="59.8887454" lon="17.7549407">
        <ele>28.9769</ele>
        <time>2013-04-14T10:56:32Z</time>
      </trkpt>
      <trkpt lat="59.888698" lon="17.7550087">
        <ele>29.4575</ele>
        <time>2013-04-14T10:56:33Z</time>
      </trkpt>
      <trkpt lat="59.8886495" lon="17.7550677">
        <ele>29.4575</ele>
        <time>2013-04-14T10:56:34Z</time>
      </trkpt>
      <trkpt lat="59.8885988" lon="17.7551204">
        <ele>29.9381</ele>
        <time>2013-04-14T10:56:35Z</time>
      </trkpt>
      <trkpt lat="59.8885443" lon="17.7551679">
        <ele>29.9381</ele>
        <time>2013-04-14T10:56:36Z</time>
      </trkpt>
      <trkpt lat="59.8884861" lon="17.7552092">
        <ele>30.4188</ele>
        <time>2013-04-14T10:56:37Z</time>
      </trkpt>
      <trkpt lat="59.8884257" lon="17.7552459">
        <ele>30.4188</ele>
        <time>2013-04-14T10:56:38Z</time>
      </trkpt>
      <trkpt lat="59.8883672" lon="17.7552729">
        <ele>30.8995</ele>
        <time>2013-04-14T10:56:39Z</time>
      </trkpt>
      <trkpt lat="59.8883123" lon="17.7552874">
        <ele>31.3801</ele>
        <time>2013-04-14T10:56:40Z</time>
      </trkpt>
      <trkpt lat="59.8882589" lon="17.7552945">
        <ele>31.8607</ele>
        <time>2013-04-14T10:56:41Z</time>
      </trkpt>
      <trkpt lat="59.8882057" lon="17.7552975">
        <ele>31.8607</ele>
        <time>2013-04-14T10:56:42Z</time>
      </trkpt>
      <trkpt lat="59.8881528" lon="17.7552956">
        <ele>31.8607</ele>
        <time>2013-04-14T10:56:43Z</time>
      </trkpt>
      <trkpt lat="59.8881007" lon="17.7552915">
        <ele>32.3416</ele>
        <time>2013-04-14T10:56:44Z</time>
      </trkpt>
      <trkpt lat="59.8880492" lon="17.7552852">
        <ele>32.3416</ele>
        <time>2013-04-14T10:56:45Z</time>
      </trkpt>
      <trkpt lat="59.8879979" lon="17.7552765">
        <ele>32.3416</ele>
        <time>2013-04-14T10:56:46Z</time>
      </trkpt>
      <trkpt lat="59.8879456" lon="17.7552684">
        <ele>32.3416</ele>
        <time>2013-04-14T10:56:47Z</time>
      </trkpt>
      <trkpt lat="59.8878921" lon="17.7552634">
        <ele>32.3416</ele>
        <time>2013-04-14T10:56:48Z</time>
      </trkpt>
      <trkpt lat="59.8878368" lon="17.7552594">
        <ele>32.3416</ele>
        <time>2013-04-14T10:56:49Z</time>
      </trkpt>
      <trkpt lat="59.8877809" lon="17.7552551">
        <ele>32.8223</ele>
        <time>2013-04-14T10:56:50Z</time>
      </trkpt>
      <trkpt lat="59.8877249" lon="17.7552566">
        <ele>32.8223</ele>
        <time>2013-04-14T10:56:51Z</time>
      </trkpt>
      <trkpt lat="59.8876689" lon="17.7552669">
        <ele>32.8223</ele>
        <time>2013-04-14T10:56:52Z</time>
      </trkpt>
      <trkpt lat="59.8876144" lon="17.7552848">
        <ele>32.8223</ele>
        <time>2013-04-14T10:56:53Z</time>
      </trkpt>
      <trkpt lat="59.8875612" lon="17.7553105">
        <ele>33.3029</ele>
        <time>2013-04-14T10:56:54Z</time>
      </trkpt>
      <trkpt lat="59.8875099" lon="17.7553452">
        <ele>33.3029</ele>
        <time>2013-04-14T10:56:55Z</time>
      </trkpt>
      <trkpt lat="59.8874606" lon="17.7553871">
        <ele>33.7834</ele>
        <time>2013-04-14T10:56:56Z</time>
      </trkpt>
      <trkpt lat="59.8874136" lon="17.7554322">
        <ele>33.7834</ele>
        <time>2013-04-14T10:56:57Z</time>
      </trkpt>
      <trkpt lat="59.8873685" lon="17.7554847">
        <ele>34.2642</ele>
        <time>2013-04-14T10:56:58Z</time>
      </trkpt>
      <trkpt lat="59.8873255" lon="17.7555445">
        <ele>34.2642</ele>
        <time>2013-04-14T10:56:59Z</time>
      </trkpt>
      <trkpt lat="59.8872852" lon="17.7556059">
        <ele>34.2642</ele>
        <time>2013-04-14T10:57:00Z</time>
      </trkpt>
      <trkpt lat="59.8872472" lon="17.7556711">
        <ele>34.7449</ele>
        <time>2013-04-14T10:57:01Z</time>
      </trkpt>
      <trkpt lat="59.8872103" lon="17.7557396">
        <ele>34.7449</ele>
        <time>2013-04-14T10:57:02Z</time>
      </trkpt>
      <trkpt lat="59.8871727" lon="17.7558094">
        <ele>34.7449</ele>
        <time>2013-04-14T10:57:03Z</time>
      </trkpt>
      <trkpt lat="59.887135" lon="17.7558763">
        <ele>35.2255</ele>
        <time>2013-04-14T10:57:04Z</time>
      </trkpt>
      <trkpt lat="59.8870966" lon="17.7559462">
        <ele>35.2255</ele>
        <time>2013-04-14T10:57:05Z</time>
      </trkpt>
      <trkpt lat="59.8870583" lon="17.7560126">
        <ele>35.2255</ele>
        <time>2013-04-14T10:57:06Z</time>
      </trkpt>
      <trkpt lat="59.8870177" lon="17.7560766">
        <ele>35.7061</ele>
        <time>2013-04-14T10:57:07Z</time>
      </trkpt>
      <trkpt lat="59.8869737" lon="17.7561389">
        <ele>35.7061</ele>
        <time>2013-04-14T10:57:08Z</time>
      </trkpt>
      <trkpt lat="59.8869312" lon="17.7561974">
        <ele>35.7061</ele>
        <time>2013-04-14T10:57:09Z</time>
      </trkpt>
      <trkpt lat="59.8868919" lon="17.7562523">
        <ele>36.1868</ele>
        <time>2013-04-14T10:57:10Z</time>
      </trkpt>
      <trkpt lat="59.8868469" lon="17.756301">
        <ele>36.1868</ele>
        <time>2013-04-14T10:57:11Z</time>
      </trkpt>
      <trkpt lat="59.8867977" lon="17.7563496">
        <ele>36.1868</ele>
        <time>2013-04-14T10:57:12Z</time>
      </trkpt>
      <trkpt lat="59.8867464" lon="17.7563987">
        <ele>36.1868</ele>
        <time>2013-04-14T10:57:13Z</time>
      </trkpt>
      <trkpt lat="59.8866944" lon="17.7564471">
        <ele>36.1868</ele>
        <time>2013-04-14T10:57:14Z</time>
      </trkpt>
      <trkpt lat="59.8866421" lon="17.756493">
        <ele>36.1868</ele>
        <time>2013-04-14T10:57:15Z</time>
      </trkpt>
      <trkpt lat="59.8865884" lon="17.7565398">
        <ele>36.1868</ele>
        <time>2013-04-14T10:57:16Z</time>
      </trkpt>
      <trkpt lat="59.8865298" lon="17.7565967">
        <ele>35.7061</ele>
        <time>2013-04-14T10:57:17Z</time>
      </trkpt>
      <trkpt lat="59.8864701" lon="17.7566538">
        <ele>35.2255</ele>
        <time>2013-04-14T10:57:18Z</time>
      </trkpt>
      <trkpt lat="59.8864024" lon="17.7567117">
        <ele>34.2642</ele>
        <time>2013-04-14T10:57:19Z</time>
      </trkpt>
      <trkpt lat="59.8863334" lon="17.7567722">
        <ele>33.7834</ele>
        <time>2013-04-14T10:57:20Z</time>
      </trkpt>
      <trkpt lat="59.8862631" lon="17.7568367">
        <ele>33.3029</ele>
        <time>2013-04-14T10:57:21Z</time>
      </trkpt>
      <trkpt lat="59.8861924" lon="17.7569045">
        <ele>33.3029</ele>
        <time>2013-04-14T10:57:22Z</time>
      </trkpt>
      <trkpt lat="59.8861227" lon="17.756977">
        <ele>32.8223</ele>
        <time>2013-04-14T10:57:23Z</time>
      </trkpt>
      <trkpt lat="59.8860547" lon="17.7570552">
        <ele>32.8223</ele>
        <time>2013-04-14T10:57:24Z</time>
      </trkpt>
      <trkpt lat="59.8859894" lon="17.7571412">
        <ele>32.3416</ele>
        <time>2013-04-14T10:57:25Z</time>
      </trkpt>
      <trkpt lat="59.8859293" lon="17.7572386">
        <ele>32.3416</ele>
        <time>2013-04-14T10:57:26Z</time>
      </trkpt>
      <trkpt lat="59.8858715" lon="17.7573464">
        <ele>32.3416</ele>
        <time>2013-04-14T10:57:27Z</time>
      </trkpt>
      <trkpt lat="59.8858176" lon="17.7574591">
        <ele>32.3416</ele>
        <time>2013-04-14T10:57:28Z</time>
      </trkpt>
      <trkpt lat="59.8857684" lon="17.7575753">
        <ele>31.3801</ele>
        <time>2013-04-14T10:57:29Z</time>
      </trkpt>
      <trkpt lat="59.8857236" lon="17.7576981">
        <ele>30.8995</ele>
        <time>2013-04-14T10:57:30Z</time>
      </trkpt>
      <trkpt lat="59.8856829" lon="17.7578308">
        <ele>30.4188</ele>
        <time>2013-04-14T10:57:31Z</time>
      </trkpt>
      <trkpt lat="59.8856446" lon="17.7579763">
        <ele>29.4575</ele>
        <time>2013-04-14T10:57:32Z</time>
      </trkpt>
      <trkpt lat="59.8856125" lon="17.7581275">
        <ele>28.9769</ele>
        <time>2013-04-14T10:57:33Z</time>
      </trkpt>
      <trkpt lat="59.885586" lon="17.7582819">
        <ele>28.9769</ele>
        <time>2013-04-14T10:57:34Z</time>
      </trkpt>
      <trkpt lat="59.8855637" lon="17.7584368">
        <ele>28.4962</ele>
        <time>2013-04-14T10:57:35Z</time>
      </trkpt>
      <trkpt lat="59.8855444" lon="17.7585891">
        <ele>28.4962</ele>
        <time>2013-04-14T10:57:36Z</time>
      </trkpt>
      <trkpt lat="59.8855295" lon="17.7587371">
        <ele>28.0155</ele>
        <time>2013-04-14T10:57:37Z</time>
      </trkpt>
      <trkpt lat="59.8855139" lon="17.7588828">
        <ele>28.0155</ele>
        <time>2013-04-14T10:57:38Z</time>
      </trkpt>
      <trkpt lat="59.8854963" lon="17.7590289">
        <ele>28.0155</ele>
        <time>2013-04-14T10:57:39Z</time>
      </trkpt>
      <trkpt lat="59.8854801" lon="17.7591722">
        <ele>27.5349</ele>
        <time>2013-04-14T10:57:40Z</time>
      </trkpt>
      <trkpt lat="59.8854641" lon="17.7593126">
        <ele>27.5349</ele>
        <time>2013-04-14T10:57:41Z</time>
      </trkpt>
      <trkpt lat="59.8854468" lon="17.7594517">
        <ele>27.5349</ele>
        <time>2013-04-14T10:57:42Z</time>
      </trkpt>
      <trkpt lat="59.8854305" lon="17.7595904">
        <ele>27.5349</ele>
        <time>2013-04-14T10:57:43Z</time>
      </trkpt>
      <trkpt lat="59.8854155" lon="17.7597245">
        <ele>27.5349</ele>
        <time>2013-04-14T10:57:44Z</time>
      </trkpt>
      <trkpt lat="59.8854074" lon="17.7598592">
        <ele>27.5349</ele>
        <time>2013-04-14T10:57:45Z</time>
      </trkpt>
      <trkpt lat="59.8854006" lon="17.759987">
        <ele>28.0155</ele>
        <time>2013-04-14T10:57:46Z</time>
      </trkpt>
      <trkpt lat="59.8853905" lon="17.7601141">
        <ele>28.0155</ele>
        <time>2013-04-14T10:57:47Z</time>
      </trkpt>
      <trkpt lat="59.8853808" lon="17.7602394">
        <ele>28.4962</ele>
        <time>2013-04-14T10:57:48Z</time>
      </trkpt>
      <trkpt lat="59.8853742" lon="17.7603656">
        <ele>28.9769</ele>
        <time>2013-04-14T10:57:49Z</time>
      </trkpt>
      <trkpt lat="59.8853633" lon="17.7604876">
        <ele>28.9769</ele>
        <time>2013-04-14T10:57:50Z</time>
      </trkpt>
      <trkpt lat="59.8853509" lon="17.7606076">
        <ele>29.4575</ele>
        <time>2013-04-14T10:57:51Z</time>
      </trkpt>
      <trkpt lat="59.8853364" lon="17.7607247">
        <ele>29.9381</ele>
        <time>2013-04-14T10:57:52Z</time>
      </trkpt>
      <trkpt lat="59.8853218" lon="17.7608388">
        <ele>30.4188</ele>
        <time>2013-04-14T10:57:53Z</time>
      </trkpt>
      <trkpt lat="59.8853043" lon="17.7609564">
        <ele>30.4188</ele>
        <time>2013-04-14T10:57:54Z</time>
      </trkpt>
      <trkpt lat="59.8852857" lon="17.7610712">
        <ele>30.4188</ele>
        <time>2013-04-14T10:57:55Z</time>
      </trkpt>
      <trkpt lat="59.885269" lon="17.761187">
        <ele>30.8995</ele>
        <time>2013-04-14T10:57:56Z</time>
      </trkpt>
      <trkpt lat="59.8852509" lon="17.7612993">
        <ele>30.8995</ele>
        <time>2013-04-14T10:57:57Z</time>
      </trkpt>
      <trkpt lat="59.8852279" lon="17.7614168">
        <ele>31.3801</ele>
        <time>2013-04-14T10:57:58Z</time>
      </trkpt>
      <trkpt lat="59.8852079" lon="17.7615257">
        <ele>31.3801</ele>
        <time>2013-04-14T10:57:59Z</time>
      </trkpt>
      <trkpt lat="59.8851973" lon="17.7616287">
        <ele>31.3801</ele>
        <time>2013-04-14T10:58:00Z</time>
      </trkpt>
      <trkpt lat="59.8851856" lon="17.7617358">
        <ele>31.8607</ele>
        <time>2013-04-14T10:58:01Z</time>
      </trkpt>
      <trkpt lat="59.8851766" lon="17.7618414">
        <ele>32.3416</ele>
        <time>2013-04-14T10:58:02Z</time>
      </trkpt>
      <trkpt lat="59.8851554" lon="17.7619505">
        <ele>31.8607</ele>
        <time>2013-04-14T10:58:03Z</time>
      </trkpt>
      <trkpt lat="59.885139" lon="17.7620627">
        <ele>32.3416</ele>
        <time>2013-04-14T10:58:04Z</time>
      </trkpt>
      <trkpt lat="59.8851274" lon="17.7621757">
        <ele>32.3416</ele>
        <time>2013-04-14T10:58:05Z</time>
      </trkpt>
      <trkpt lat="59.8851113" lon="17.7622895">
        <ele>32.3416</ele>
        <time>2013-04-14T10:58:06Z</time>
      </trkpt>
      <trkpt lat="59.885098" lon="17.7624026">
        <ele>32.3416</ele>
        <time>2013-04-14T10:58:07Z</time>
      </trkpt>
      <trkpt lat="59.8850833" lon="17.7625167">
        <ele>32.3416</ele>
        <time>2013-04-14T10:58:08Z</time>
      </trkpt>
      <trkpt lat="59.885073" lon="17.7626247">
        <ele>31.8607</ele>
        <time>2013-04-14T10:58:09Z</time>
      </trkpt>
      <trkpt lat="59.8850614" lon="17.7627351">
        <ele>31.8607</ele>
        <time>2013-04-14T10:58:10Z</time>
      </trkpt>
      <trkpt lat="59.8850471" lon="17.7628481">
        <ele>31.8607</ele>
        <time>2013-04-14T10:58:11Z</time>
      </trkpt>
      <trkpt lat="59.8850326" lon="17.76296">
        <ele>31.3801</ele>
        <time>2013-04-14T10:58:12Z</time>
      </trkpt>
      <trkpt lat="59.8850075" lon="17.7630743">
        <ele>30.8995</ele>
        <time>2013-04-14T10:58:13Z</time>
      </trkpt>
      <trkpt lat="59.8849863" lon="17.7631843">
        <ele>31.3801</ele>
        <time>2013-04-14T10:58:14Z</time>
      </trkpt>
      <trkpt lat="59.884966" lon="17.7632925">
        <ele>31.3801</ele>
        <time>2013-04-14T10:58:15Z</time>
      </trkpt>
      <trkpt lat="59.884949" lon="17.7633957">
        <ele>31.3801</ele>
        <time>2013-04-14T10:58:16Z</time>
      </trkpt>
      <trkpt lat="59.8849307" lon="17.7635035">
        <ele>31.3801</ele>
        <time>2013-04-14T10:58:17Z</time>
      </trkpt>
      <trkpt lat="59.8848981" lon="17.7636138">
        <ele>31.8607</ele>
        <time>2013-04-14T10:58:18Z</time>
      </trkpt>
      <trkpt lat="59.8848598" lon="17.7637272">
        <ele>31.3801</ele>
        <time>2013-04-14T10:58:19Z</time>
      </trkpt>
      <trkpt lat="59.8848317" lon="17.7638427">
        <ele>31.3801</ele>
        <time>2013-04-14T10:58:20Z</time>
      </trkpt>
      <trkpt lat="59.8848064" lon="17.7639613">
        <ele>31.3801</ele>
        <time>2013-04-14T10:58:21Z</time>
      </trkpt>
      <trkpt lat="59.884781" lon="17.7640876">
        <ele>31.8607</ele>
        <time>2013-04-14T10:58:22Z</time>
      </trkpt>
      <trkpt lat="59.8847612" lon="17.7642157">
        <ele>31.8607</ele>
        <time>2013-04-14T10:58:23Z</time>
      </trkpt>
      <trkpt lat="59.8847456" lon="17.7643484">
        <ele>32.3416</ele>
        <time>2013-04-14T10:58:24Z</time>
      </trkpt>
      <trkpt lat="59.8847328" lon="17.7644856">
        <ele>32.3416</ele>
        <time>2013-04-14T10:58:25Z</time>
      </trkpt>
      <trkpt lat="59.8847244" lon="17.764624">
        <ele>32.8223</ele>
        <time>2013-04-14T10:58:26Z</time>
      </trkpt>
      <trkpt lat="59.8847173" lon="17.7647649">
        <ele>32.3416</ele>
        <time>2013-04-14T10:58:27Z</time>
      </trkpt>
      <trkpt lat="59.8847142" lon="17.7649031">
        <ele>32.8223</ele>
        <time>2013-04-14T10:58:28Z</time>
      </trkpt>
      <trkpt lat="59.8847115" lon="17.7650378">
        <ele>33.3029</ele>
        <time>2013-04-14T10:58:29Z</time>
      </trkpt>
      <trkpt lat="59.8847086" lon="17.7651741">
        <ele>33.7834</ele>
        <time>2013-04-14T10:58:30Z</time>
      </trkpt>
      <trkpt lat="59.8847069" lon="17.7653103">
        <ele>33.7834</ele>
        <time>2013-04-14T10:58:31Z</time>
      </trkpt>
      <trkpt lat="59.8847031" lon="17.7654486">
        <ele>33.7834</ele>
        <time>2013-04-14T10:58:32Z</time>
      </trkpt>
      <trkpt lat="59.8846981" lon="17.7655864">
        <ele>33.3029</ele>
        <time>2013-04-14T10:58:33Z</time>
      </trkpt>
      <trkpt lat="59.8846945" lon="17.7657221">
        <ele>33.3029</ele>
        <time>2013-04-14T10:58:34Z</time>
      </trkpt>
      <trkpt lat="59.8846892" lon="17.7658552">
        <ele>33.3029</ele>
        <time>2013-04-14T10:58:35Z</time>
      </trkpt>
      <trkpt lat="59.8846817" lon="17.7659881">
        <ele>33.7834</ele>
        <time>2013-04-14T10:58:36Z</time>
      </trkpt>
      <trkpt lat="59.8846733" lon="17.7661189">
        <ele>33.7834</ele>
        <time>2013-04-14T10:58:37Z</time>
      </trkpt>
      <trkpt lat="59.884665" lon="17.7662477">
        <ele>33.7834</ele>
        <time>2013-04-14T10:58:38Z</time>
      </trkpt>
      <trkpt lat="59.8846627" lon="17.7663699">
        <ele>33.3029</ele>
        <time>2013-04-14T10:58:39Z</time>
      </trkpt>
      <trkpt lat="59.8846588" lon="17.7664883">
        <ele>33.3029</ele>
        <time>2013-04-14T10:58:40Z</time>
      </trkpt>
      <trkpt lat="59.8846515" lon="17.7666027">
        <ele>33.3029</ele>
        <time>2013-04-14T10:58:41Z</time>
      </trkpt>
      <trkpt lat="59.8846494" lon="17.7667094">
        <ele>33.3029</ele>
        <time>2013-04-14T10:58:42Z</time>
      </trkpt>
      <trkpt lat="59.8846472" lon="17.7668182">
        <ele>33.7834</ele>
        <time>2013-04-14T10:58:43Z</time>
      </trkpt>
      <trkpt lat="59.8846484" lon="17.7669218">
        <ele>33.7834</ele>
        <time>2013-04-14T10:58:44Z</time>
      </trkpt>
      <trkpt lat="59.8846483" lon="17.7670176">
        <ele>34.7449</ele>
        <time>2013-04-14T10:58:45Z</time>
      </trkpt>
      <trkpt lat="59.8846506" lon="17.767114">
        <ele>35.2255</ele>
        <time>2013-04-14T10:58:46Z</time>
      </trkpt>
      <trkpt lat="59.8846557" lon="17.7672098">
        <ele>36.1868</ele>
        <time>2013-04-14T10:58:47Z</time>
      </trkpt>
      <trkpt lat="59.8846648" lon="17.7673035">
        <ele>37.1481</ele>
        <time>2013-04-14T10:58:48Z</time>
      </trkpt>
      <trkpt lat="59.884677" lon="17.7673968">
        <ele>37.1481</ele>
        <time>2013-04-14T10:58:49Z</time>
      </trkpt>
      <trkpt lat="59.8846888" lon="17.7674917">
        <ele>37.6287</ele>
        <time>2013-04-14T10:58:50Z</time>
      </trkpt>
      <trkpt lat="59.8846959" lon="17.7675968">
        <ele>37.6287</ele>
        <time>2013-04-14T10:58:51Z</time>
      </trkpt>
      <trkpt lat="59.884695" lon="17.7677137">
        <ele>37.6287</ele>
        <time>2013-04-14T10:58:52Z</time>
      </trkpt>
      <trkpt lat="59.8846878" lon="17.7678301">
        <ele>37.6287</ele>
        <time>2013-04-14T10:58:53Z</time>
      </trkpt>
      <trkpt lat="59.8846706" lon="17.7679451">
        <ele>37.6287</ele>
        <time>2013-04-14T10:58:54Z</time>
      </trkpt>
      <trkpt lat="59.8846381" lon="17.7680582">
        <ele>38.1094</ele>
        <time>2013-04-14T10:58:55Z</time>
      </trkpt>
      <trkpt lat="59.8846007" lon="17.7681675">
        <ele>37.6287</ele>
        <time>2013-04-14T10:58:56Z</time>
      </trkpt>
      <trkpt lat="59.8845691" lon="17.7682748">
        <ele>37.6287</ele>
        <time>2013-04-14T10:58:57Z</time>
      </trkpt>
      <trkpt lat="59.8845391" lon="17.7683906">
        <ele>37.6287</ele>
        <time>2013-04-14T10:58:58Z</time>
      </trkpt>
      <trkpt lat="59.8845214" lon="17.7685135">
        <ele>37.6287</ele>
        <time>2013-04-14T10:58:59Z</time>
      </trkpt>
      <trkpt lat="59.8845068" lon="17.7686431">
        <ele>37.6287</ele>
        <time>2013-04-14T10:59:00Z</time>
      </trkpt>
      <trkpt lat="59.8845013" lon="17.7687814">
        <ele>37.1481</ele>
        <time>2013-04-14T10:59:01Z</time>
      </trkpt>
      <trkpt lat="59.8845086" lon="17.7689213">
        <ele>37.1481</ele>
        <time>2013-04-14T10:59:02Z</time>
      </trkpt>
      <trkpt lat="59.884536" lon="17.7690498">
        <ele>36.6675</ele>
        <time>2013-04-14T10:59:03Z</time>
      </trkpt>
      <trkpt lat="59.8845812" lon="17.7691615">
        <ele>36.1868</ele>
        <time>2013-04-14T10:59:04Z</time>
      </trkpt>
      <trkpt lat="59.8846282" lon="17.7692652">
        <ele>36.1868</ele>
        <time>2013-04-14T10:59:05Z</time>
      </trkpt>
      <trkpt lat="59.8846778" lon="17.7693676">
        <ele>36.1868</ele>
        <time>2013-04-14T10:59:06Z</time>
      </trkpt>
      <trkpt lat="59.8847292" lon="17.7694695">
        <ele>36.1868</ele>
        <time>2013-04-14T10:59:07Z</time>
      </trkpt>
      <trkpt lat="59.8847789" lon="17.7695753">
        <ele>36.1868</ele>
        <time>2013-04-14T10:59:08Z</time>
      </trkpt>
      <trkpt lat="59.884829" lon="17.7696802">
        <ele>36.1868</ele>
        <time>2013-04-14T10:59:09Z</time>
      </trkpt>
      <trkpt lat="59.8848789" lon="17.7697832">
        <ele>36.1868</ele>
        <time>2013-04-14T10:59:10Z</time>
      </trkpt>
      <trkpt lat="59.8849281" lon="17.7698844">
        <ele>36.1868</ele>
        <time>2013-04-14T10:59:11Z</time>
      </trkpt>
      <trkpt lat="59.8849768" lon="17.7699841">
        <ele>36.1868</ele>
        <time>2013-04-14T10:59:12Z</time>
      </trkpt>
      <trkpt lat="59.885026" lon="17.7700836">
        <ele>36.1868</ele>
        <time>2013-04-14T10:59:13Z</time>
      </trkpt>
      <trkpt lat="59.8850737" lon="17.770183">
        <ele>36.1868</ele>
        <time>2013-04-14T10:59:14Z</time>
      </trkpt>
      <trkpt lat="59.8851212" lon="17.770278">
        <ele>36.1868</ele>
        <time>2013-04-14T10:59:15Z</time>
      </trkpt>
      <trkpt lat="59.8851705" lon="17.7703681">
        <ele>36.1868</ele>
        <time>2013-04-14T10:59:16Z</time>
      </trkpt>
      <trkpt lat="59.8852238" lon="17.7704539">
        <ele>35.7061</ele>
        <time>2013-04-14T10:59:17Z</time>
      </trkpt>
      <trkpt lat="59.8852788" lon="17.7705364">
        <ele>35.7061</ele>
        <time>2013-04-14T10:59:18Z</time>
      </trkpt>
      <trkpt lat="59.8853356" lon="17.7706129">
        <ele>35.7061</ele>
        <time>2013-04-14T10:59:19Z</time>
      </trkpt>
      <trkpt lat="59.8853915" lon="17.7706898">
        <ele>35.7061</ele>
        <time>2013-04-14T10:59:20Z</time>
      </trkpt>
      <trkpt lat="59.8854451" lon="17.7707716">
        <ele>35.7061</ele>
        <time>2013-04-14T10:59:21Z</time>
      </trkpt>
      <trkpt lat="59.8854965" lon="17.7708586">
        <ele>35.2255</ele>
        <time>2013-04-14T10:59:22Z</time>
      </trkpt>
      <trkpt lat="59.8855451" lon="17.7709513">
        <ele>35.2255</ele>
        <time>2013-04-14T10:59:23Z</time>
      </trkpt>
      <trkpt lat="59.885589" lon="17.7710542">
        <ele>35.2255</ele>
        <time>2013-04-14T10:59:24Z</time>
      </trkpt>
      <trkpt lat="59.8856306" lon="17.7711656">
        <ele>35.2255</ele>
        <time>2013-04-14T10:59:25Z</time>
      </trkpt>
      <trkpt lat="59.8856684" lon="17.7712856">
        <ele>35.2255</ele>
        <time>2013-04-14T10:59:26Z</time>
      </trkpt>
      <trkpt lat="59.8857" lon="17.7714151">
        <ele>35.2255</ele>
        <time>2013-04-14T10:59:27Z</time>
      </trkpt>
      <trkpt lat="59.8857252" lon="17.7715502">
        <ele>35.2255</ele>
        <time>2013-04-14T10:59:28Z</time>
      </trkpt>
      <trkpt lat="59.885743" lon="17.7716895">
        <ele>35.2255</ele>
        <time>2013-04-14T10:59:29Z</time>
      </trkpt>
      <trkpt lat="59.8857534" lon="17.7718311">
        <ele>34.7449</ele>
        <time>2013-04-14T10:59:30Z</time>
      </trkpt>
      <trkpt lat="59.885759" lon="17.771975">
        <ele>34.7449</ele>
        <time>2013-04-14T10:59:31Z</time>
      </trkpt>
      <trkpt lat="59.8857588" lon="17.7721216">
        <ele>34.7449</ele>
        <time>2013-04-14T10:59:32Z</time>
      </trkpt>
      <trkpt lat="59.8857502" lon="17.7722667">
        <ele>34.7449</ele>
        <time>2013-04-14T10:59:33Z</time>
      </trkpt>
      <trkpt lat="59.8857322" lon="17.7724091">
        <ele>34.2642</ele>
        <time>2013-04-14T10:59:34Z</time>
      </trkpt>
      <trkpt lat="59.8857044" lon="17.7725479">
        <ele>34.2642</ele>
        <time>2013-04-14T10:59:35Z</time>
      </trkpt>
      <trkpt lat="59.8856659" lon="17.7726774">
        <ele>34.2642</ele>
        <time>2013-04-14T10:59:36Z</time>
      </trkpt>
      <trkpt lat="59.8856201" lon="17.7727971">
        <ele>34.2642</ele>
        <time>2013-04-14T10:59:37Z</time>
      </trkpt>
      <trkpt lat="59.8855674" lon="17.7729051">
        <ele>33.7834</ele>
        <time>2013-04-14T10:59:38Z</time>
      </trkpt>
      <trkpt lat="59.8855089" lon="17.7730075">
        <ele>33.7834</ele>
        <time>2013-04-14T10:59:39Z</time>
      </trkpt>
      <trkpt lat="59.8854485" lon="17.7731053">
        <ele>34.2642</ele>
        <time>2013-04-14T10:59:40Z</time>
      </trkpt>
      <trkpt lat="59.8853876" lon="17.773199">
        <ele>34.2642</ele>
        <time>2013-04-14T10:59:41Z</time>
      </trkpt>
      <trkpt lat="59.8853312" lon="17.7732897">
        <ele>34.2642</ele>
        <time>2013-04-14T10:59:42Z</time>
      </trkpt>
      <trkpt lat="59.885281" lon="17.7733811">
        <ele>34.2642</ele>
        <time>2013-04-14T10:59:43Z</time>
      </trkpt>
      <trkpt lat="59.8852301" lon="17.7734766">
        <ele>34.7449</ele>
        <time>2013-04-14T10:59:44Z</time>
      </trkpt>
      <trkpt lat="59.885182" lon="17.773578">
        <ele>34.7449</ele>
        <time>2013-04-14T10:59:45Z</time>
      </trkpt>
      <trkpt lat="59.8851426" lon="17.773688">
        <ele>34.7449</ele>
        <time>2013-04-14T10:59:46Z</time>
      </trkpt>
      <trkpt lat="59.8851032" lon="17.7738045">
        <ele>34.7449</ele>
        <time>2013-04-14T10:59:47Z</time>
      </trkpt>
      <trkpt lat="59.8850644" lon="17.7739245">
        <ele>34.7449</ele>
        <time>2013-04-14T10:59:48Z</time>
      </trkpt>
      <trkpt lat="59.8850266" lon="17.7740483">
        <ele>35.2255</ele>
        <time>2013-04-14T10:59:49Z</time>
      </trkpt>
      <trkpt lat="59.8849924" lon="17.774174">
        <ele>35.2255</ele>
        <time>2013-04-14T10:59:50Z</time>
      </trkpt>
      <trkpt lat="59.8849587" lon="17.7743003">
        <ele>35.7061</ele>
        <time>2013-04-14T10:59:51Z</time>
      </trkpt>
      <trkpt lat="59.8849219" lon="17.7744277">
        <ele>35.7061</ele>
        <time>2013-04-14T10:59:52Z</time>
      </trkpt>
      <trkpt lat="59.8848839" lon="17.7745515">
        <ele>35.7061</ele>
        <time>2013-04-14T10:59:53Z</time>
      </trkpt>
      <trkpt lat="59.8848458" lon="17.7746732">
        <ele>35.2255</ele>
        <time>2013-04-14T10:59:54Z</time>
      </trkpt>
      <trkpt lat="59.8848054" lon="17.7747932">
        <ele>34.7449</ele>
        <time>2013-04-14T10:59:55Z</time>
      </trkpt>
      <trkpt lat="59.8847639" lon="17.7749146">
        <ele>34.2642</ele>
        <time>2013-04-14T10:59:56Z</time>
      </trkpt>
      <trkpt lat="59.8847244" lon="17.7750369">
        <ele>33.3029</ele>
        <time>2013-04-14T10:59:57Z</time>
      </trkpt>
      <trkpt lat="59.8846829" lon="17.775159">
        <ele>33.3029</ele>
        <time>2013-04-14T10:59:58Z</time>
      </trkpt>
      <trkpt lat="59.8846406" lon="17.7752742">
        <ele>33.3029</ele>
        <time>2013-04-14T10:59:59Z</time>
      </trkpt>
      <trkpt lat="59.8845972" lon="17.7753848">
        <ele>33.3029</ele>
        <time>2013-04-14T11:00:00Z</time>
      </trkpt>
      <trkpt lat="59.8845526" lon="17.7754954">
        <ele>33.3029</ele>
        <time>2013-04-14T11:00:01Z</time>
      </trkpt>
      <trkpt lat="59.8845111" lon="17.7756081">
        <ele>32.8223</ele>
        <time>2013-04-14T11:00:02Z</time>
      </trkpt>
      <trkpt lat="59.8844736" lon="17.7757278">
        <ele>32.3416</ele>
        <time>2013-04-14T11:00:03Z</time>
      </trkpt>
      <trkpt lat="59.8844371" lon="17.7758505">
        <ele>31.8607</ele>
        <time>2013-04-14T11:00:04Z</time>
      </trkpt>
      <trkpt lat="59.8843998" lon="17.7759734">
        <ele>31.8607</ele>
        <time>2013-04-14T11:00:05Z</time>
      </trkpt>
      <trkpt lat="59.8843619" lon="17.7760957">
        <ele>31.3801</ele>
        <time>2013-04-14T11:00:06Z</time>
      </trkpt>
      <trkpt lat="59.8843247" lon="17.7762183">
        <ele>30.8995</ele>
        <time>2013-04-14T11:00:07Z</time>
      </trkpt>
      <trkpt lat="59.884288" lon="17.7763422">
        <ele>30.4188</ele>
        <time>2013-04-14T11:00:08Z</time>
      </trkpt>
      <trkpt lat="59.8842525" lon="17.7764662">
        <ele>29.9381</ele>
        <time>2013-04-14T11:00:09Z</time>
      </trkpt>
      <trkpt lat="59.8842196" lon="17.7765889">
        <ele>29.4575</ele>
        <time>2013-04-14T11:00:10Z</time>
      </trkpt>
      <trkpt lat="59.8841838" lon="17.7767097">
        <ele>28.9769</ele>
        <time>2013-04-14T11:00:11Z</time>
      </trkpt>
      <trkpt lat="59.8841419" lon="17.7768285">
        <ele>28.4962</ele>
        <time>2013-04-14T11:00:12Z</time>
      </trkpt>
      <trkpt lat="59.8841013" lon="17.7769451">
        <ele>28.4962</ele>
        <time>2013-04-14T11:00:13Z</time>
      </trkpt>
      <trkpt lat="59.8840593" lon="17.7770565">
        <ele>28.4962</ele>
        <time>2013-04-14T11:00:14Z</time>
      </trkpt>
      <trkpt lat="59.8840123" lon="17.7771605">
        <ele>28.4962</ele>
        <time>2013-04-14T11:00:15Z</time>
      </trkpt>
      <trkpt lat="59.8839595" lon="17.7772561">
        <ele>28.4962</ele>
        <time>2013-04-14T11:00:16Z</time>
      </trkpt>
      <trkpt lat="59.8839028" lon="17.7773458">
        <ele>28.4962</ele>
        <time>2013-04-14T11:00:17Z</time>
      </trkpt>
      <trkpt lat="59.8838429" lon="17.7774271">
        <ele>28.9769</ele>
        <time>2013-04-14T11:00:18Z</time>
      </trkpt>
      <trkpt lat="59.8837797" lon="17.7775031">
        <ele>29.4575</ele>
        <time>2013-04-14T11:00:19Z</time>
      </trkpt>
      <trkpt lat="59.883714" lon="17.7775726">
        <ele>29.9381</ele>
        <time>2013-04-14T11:00:20Z</time>
      </trkpt>
      <trkpt lat="59.8836461" lon="17.7776337">
        <ele>29.9381</ele>
        <time>2013-04-14T11:00:21Z</time>
      </trkpt>
      <trkpt lat="59.8835759" lon="17.7776829">
        <ele>29.9381</ele>
        <time>2013-04-14T11:00:22Z</time>
      </trkpt>
      <trkpt lat="59.8835048" lon="17.7777237">
        <ele>30.4188</ele>
        <time>2013-04-14T11:00:23Z</time>
      </trkpt>
      <trkpt lat="59.8834352" lon="17.7777523">
        <ele>30.4188</ele>
        <time>2013-04-14T11:00:24Z</time>
      </trkpt>
      <trkpt lat="59.8833661" lon="17.7777684">
        <ele>30.8995</ele>
        <time>2013-04-14T11:00:25Z</time>
      </trkpt>
      <trkpt lat="59.8832989" lon="17.777783">
        <ele>30.8995</ele>
        <time>2013-04-14T11:00:26Z</time>
      </trkpt>
      <trkpt lat="59.8832337" lon="17.777802">
        <ele>31.3801</ele>
        <time>2013-04-14T11:00:27Z</time>
      </trkpt>
      <trkpt lat="59.8831701" lon="17.7778264">
        <ele>31.3801</ele>
        <time>2013-04-14T11:00:28Z</time>
      </trkpt>
      <trkpt lat="59.8831089" lon="17.7778606">
        <ele>31.8607</ele>
        <time>2013-04-14T11:00:29Z</time>
      </trkpt>
      <trkpt lat="59.8830513" lon="17.7779061">
        <ele>31.8607</ele>
        <time>2013-04-14T11:00:30Z</time>
      </trkpt>
      <trkpt lat="59.882997" lon="17.7779659">
        <ele>31.8607</ele>
        <time>2013-04-14T11:00:31Z</time>
      </trkpt>
      <trkpt lat="59.8829492" lon="17.7780481">
        <ele>31.8607</ele>
        <time>2013-04-14T11:00:32Z</time>
      </trkpt>
      <trkpt lat="59.882911" lon="17.7781512">
        <ele>32.3416</ele>
        <time>2013-04-14T11:00:33Z</time>
      </trkpt>
      <trkpt lat="59.8828861" lon="17.7782677">
        <ele>32.3416</ele>
        <time>2013-04-14T11:00:34Z</time>
      </trkpt>
      <trkpt lat="59.8828722" lon="17.7783899">
        <ele>32.3416</ele>
        <time>2013-04-14T11:00:35Z</time>
      </trkpt>
      <trkpt lat="59.8828659" lon="17.7785142">
        <ele>32.8223</ele>
        <time>2013-04-14T11:00:36Z</time>
      </trkpt>
      <trkpt lat="59.8828679" lon="17.7786353">
        <ele>33.7834</ele>
        <time>2013-04-14T11:00:37Z</time>
      </trkpt>
      <trkpt lat="59.8828757" lon="17.7787576">
        <ele>34.2642</ele>
        <time>2013-04-14T11:00:38Z</time>
      </trkpt>
      <trkpt lat="59.8828882" lon="17.77888">
        <ele>34.7449</ele>
        <time>2013-04-14T11:00:39Z</time>
      </trkpt>
      <trkpt lat="59.8829054" lon="17.7789992">
        <ele>35.2255</ele>
        <time>2013-04-14T11:00:40Z</time>
      </trkpt>
      <trkpt lat="59.8829271" lon="17.7791115">
        <ele>35.7061</ele>
        <time>2013-04-14T11:00:41Z</time>
      </trkpt>
      <trkpt lat="59.8829514" lon="17.7792188">
        <ele>36.1868</ele>
        <time>2013-04-14T11:00:42Z</time>
      </trkpt>
      <trkpt lat="59.8829799" lon="17.7793172">
        <ele>36.6675</ele>
        <time>2013-04-14T11:00:43Z</time>
      </trkpt>
      <trkpt lat="59.883012" lon="17.7794085">
        <ele>36.6675</ele>
        <time>2013-04-14T11:00:44Z</time>
      </trkpt>
      <trkpt lat="59.8830467" lon="17.7794958">
        <ele>37.1481</ele>
        <time>2013-04-14T11:00:45Z</time>
      </trkpt>
      <trkpt lat="59.8830839" lon="17.7795817">
        <ele>37.6287</ele>
        <time>2013-04-14T11:00:46Z</time>
      </trkpt>
      <trkpt lat="59.8831224" lon="17.7796669">
        <ele>37.6287</ele>
        <time>2013-04-14T11:00:47Z</time>
      </trkpt>
      <trkpt lat="59.8831648" lon="17.7797476">
        <ele>37.6287</ele>
        <time>2013-04-14T11:00:48Z</time>
      </trkpt>
      <trkpt lat="59.8832064" lon="17.77983">
        <ele>37.6287</ele>
        <time>2013-04-14T11:00:49Z</time>
      </trkpt>
      <trkpt lat="59.8832428" lon="17.7799217">
        <ele>37.6287</ele>
        <time>2013-04-14T11:00:50Z</time>
      </trkpt>
      <trkpt lat="59.8832714" lon="17.7800243">
        <ele>37.6287</ele>
        <time>2013-04-14T11:00:51Z</time>
      </trkpt>
      <trkpt lat="59.8832928" lon="17.7801362">
        <ele>37.6287</ele>
        <time>2013-04-14T11:00:52Z</time>
      </trkpt>
      <trkpt lat="59.8833071" lon="17.7802554">
        <ele>37.6287</ele>
        <time>2013-04-14T11:00:53Z</time>
      </trkpt>
      <trkpt lat="59.8833119" lon="17.7803796">
        <ele>37.6287</ele>
        <time>2013-04-14T11:00:54Z</time>
      </trkpt>
      <trkpt lat="59.8833117" lon="17.7805044">
        <ele>37.6287</ele>
        <time>2013-04-14T11:00:55Z</time>
      </trkpt>
      <trkpt lat="59.883306" lon="17.7806282">
        <ele>37.6287</ele>
        <time>2013-04-14T11:00:56Z</time>
      </trkpt>
      <trkpt lat="59.8832964" lon="17.7807502">
        <ele>38.1094</ele>
        <time>2013-04-14T11:00:57Z</time>
      </trkpt>
      <trkpt lat="59.883284" lon="17.7808724">
        <ele>38.1094</ele>
        <time>2013-04-14T11:00:58Z</time>
      </trkpt>
      <trkpt lat="59.8832737" lon="17.7809915">
        <ele>38.1094</ele>
        <time>2013-04-14T11:00:59Z</time>
      </trkpt>
      <trkpt lat="59.8832643" lon="17.781111">
        <ele>38.1094</ele>
        <time>2013-04-14T11:01:00Z</time>
      </trkpt>
      <trkpt lat="59.8832574" lon="17.7812328">
        <ele>38.1094</ele>
        <time>2013-04-14T11:01:01Z</time>
      </trkpt>
      <trkpt lat="59.8832573" lon="17.7813559">
        <ele>38.1094</ele>
        <time>2013-04-14T11:01:02Z</time>
      </trkpt>
      <trkpt lat="59.8832539" lon="17.7814767">
        <ele>38.1094</ele>
        <time>2013-04-14T11:01:03Z</time>
      </trkpt>
      <trkpt lat="59.8832508" lon="17.7815997">
        <ele>38.1094</ele>
        <time>2013-04-14T11:01:04Z</time>
      </trkpt>
      <trkpt lat="59.8832473" lon="17.7817228">
        <ele>38.1094</ele>
        <time>2013-04-14T11:01:05Z</time>
      </trkpt>
      <trkpt lat="59.8832404" lon="17.7818482">
        <ele>38.5901</ele>
        <time>2013-04-14T11:01:06Z</time>
      </trkpt>
      <trkpt lat="59.8832403" lon="17.7819654">
        <ele>38.5901</ele>
        <time>2013-04-14T11:01:07Z</time>
      </trkpt>
      <trkpt lat="59.8832401" lon="17.7820792">
        <ele>38.5901</ele>
        <time>2013-04-14T11:01:08Z</time>
      </trkpt>
      <trkpt lat="59.8832405" lon="17.78219">
        <ele>38.5901</ele>
        <time>2013-04-14T11:01:09Z</time>
      </trkpt>
      <trkpt lat="59.8832405" lon="17.7822973">
        <ele>39.0707</ele>
        <time>2013-04-14T11:01:10Z</time>
      </trkpt>
      <trkpt lat="59.8832409" lon="17.7824025">
        <ele>39.5513</ele>
        <time>2013-04-14T11:01:11Z</time>
      </trkpt>
      <trkpt lat="59.8832371" lon="17.782502">
        <ele>39.0707</ele>
        <time>2013-04-14T11:01:12Z</time>
      </trkpt>
      <trkpt lat="59.8832239" lon="17.7825929">
        <ele>39.0707</ele>
        <time>2013-04-14T11:01:13Z</time>
      </trkpt>
      <trkpt lat="59.8831613" lon="17.7826668">
        <ele>38.5901</ele>
        <time>2013-04-14T11:01:14Z</time>
      </trkpt>
      <trkpt lat="59.8830743" lon="17.7827024">
        <ele>38.5901</ele>
        <time>2013-04-14T11:01:15Z</time>
      </trkpt>
      <trkpt lat="59.8830001" lon="17.7827305">
        <ele>38.1094</ele>
        <time>2013-04-14T11:01:16Z</time>
      </trkpt>
      <trkpt lat="59.8829281" lon="17.7827525">
        <ele>37.1481</ele>
        <time>2013-04-14T11:01:17Z</time>
      </trkpt>
      <trkpt lat="59.8828543" lon="17.7827725">
        <ele>36.6675</ele>
        <time>2013-04-14T11:01:18Z</time>
      </trkpt>
      <trkpt lat="59.8827758" lon="17.7827929">
        <ele>36.1868</ele>
        <time>2013-04-14T11:01:19Z</time>
      </trkpt>
      <trkpt lat="59.8826965" lon="17.7828189">
        <ele>35.7061</ele>
        <time>2013-04-14T11:01:20Z</time>
      </trkpt>
      <trkpt lat="59.8826155" lon="17.7828459">
        <ele>35.2255</ele>
        <time>2013-04-14T11:01:21Z</time>
      </trkpt>
      <trkpt lat="59.8825337" lon="17.7828758">
        <ele>34.7449</ele>
        <time>2013-04-14T11:01:22Z</time>
      </trkpt>
      <trkpt lat="59.8824515" lon="17.7829084">
        <ele>34.7449</ele>
        <time>2013-04-14T11:01:23Z</time>
      </trkpt>
      <trkpt lat="59.8823695" lon="17.7829402">
        <ele>34.2642</ele>
        <time>2013-04-14T11:01:24Z</time>
      </trkpt>
      <trkpt lat="59.8822872" lon="17.7829695">
        <ele>34.2642</ele>
        <time>2013-04-14T11:01:25Z</time>
      </trkpt>
      <trkpt lat="59.8822038" lon="17.7829987">
        <ele>33.7834</ele>
        <time>2013-04-14T11:01:26Z</time>
      </trkpt>
      <trkpt lat="59.882118" lon="17.7830341">
        <ele>33.3029</ele>
        <time>2013-04-14T11:01:27Z</time>
      </trkpt>
      <trkpt lat="59.8820283" lon="17.7830742">
        <ele>32.8223</ele>
        <time>2013-04-14T11:01:28Z</time>
      </trkpt>
      <trkpt lat="59.8819341" lon="17.7831144">
        <ele>32.3416</ele>
        <time>2013-04-14T11:01:29Z</time>
      </trkpt>
      <trkpt lat="59.8818383" lon="17.7831516">
        <ele>31.3801</ele>
        <time>2013-04-14T11:01:30Z</time>
      </trkpt>
      <trkpt lat="59.8817408" lon="17.7831837">
        <ele>30.8995</ele>
        <time>2013-04-14T11:01:31Z</time>
      </trkpt>
      <trkpt lat="59.881644" lon="17.7832145">
        <ele>30.4188</ele>
        <time>2013-04-14T11:01:32Z</time>
      </trkpt>
      <trkpt lat="59.8815486" lon="17.7832453">
        <ele>29.9381</ele>
        <time>2013-04-14T11:01:33Z</time>
      </trkpt>
      <trkpt lat="59.8814549" lon="17.7832746">
        <ele>29.4575</ele>
        <time>2013-04-14T11:01:34Z</time>
      </trkpt>
      <trkpt lat="59.8813632" lon="17.7833042">
        <ele>28.9769</ele>
        <time>2013-04-14T11:01:35Z</time>
      </trkpt>
      <trkpt lat="59.8812735" lon="17.7833343">
        <ele>28.4962</ele>
        <time>2013-04-14T11:01:36Z</time>
      </trkpt>
      <trkpt lat="59.8811855" lon="17.783366">
        <ele>28.4962</ele>
        <time>2013-04-14T11:01:37Z</time>
      </trkpt>
      <trkpt lat="59.8810998" lon="17.7834012">
        <ele>28.0155</ele>
        <time>2013-04-14T11:01:38Z</time>
      </trkpt>
      <trkpt lat="59.8810156" lon="17.783435">
        <ele>28.0155</ele>
        <time>2013-04-14T11:01:39Z</time>
      </trkpt>
      <trkpt lat="59.8809321" lon="17.7834655">
        <ele>27.5349</ele>
        <time>2013-04-14T11:01:40Z</time>
      </trkpt>
      <trkpt lat="59.8808491" lon="17.7834877">
        <ele>27.0543</ele>
        <time>2013-04-14T11:01:41Z</time>
      </trkpt>
      <trkpt lat="59.8807666" lon="17.7834884">
        <ele>26.5736</ele>
        <time>2013-04-14T11:01:42Z</time>
      </trkpt>
      <trkpt lat="59.8806862" lon="17.7834648">
        <ele>26.5736</ele>
        <time>2013-04-14T11:01:43Z</time>
      </trkpt>
      <trkpt lat="59.8806069" lon="17.7834224">
        <ele>26.0929</ele>
        <time>2013-04-14T11:01:44Z</time>
      </trkpt>
      <trkpt lat="59.8805293" lon="17.7833692">
        <ele>25.6123</ele>
        <time>2013-04-14T11:01:45Z</time>
      </trkpt>
      <trkpt lat="59.880452" lon="17.7833124">
        <ele>25.1317</ele>
        <time>2013-04-14T11:01:46Z</time>
      </trkpt>
      <trkpt lat="59.8803775" lon="17.7832534">
        <ele>24.651</ele>
        <time>2013-04-14T11:01:47Z</time>
      </trkpt>
      <trkpt lat="59.8803017" lon="17.7831949">
        <ele>24.1703</ele>
        <time>2013-04-14T11:01:48Z</time>
      </trkpt>
      <trkpt lat="59.8802247" lon="17.7831375">
        <ele>24.1703</ele>
        <time>2013-04-14T11:01:49Z</time>
      </trkpt>
      <trkpt lat="59.8801479" lon="17.7830769">
        <ele>23.6896</ele>
        <time>2013-04-14T11:01:50Z</time>
      </trkpt>
      <trkpt lat="59.8800709" lon="17.7830163">
        <ele>23.209</ele>
        <time>2013-04-14T11:01:51Z</time>
      </trkpt>
      <trkpt lat="59.879994" lon="17.7829588">
        <ele>22.7283</ele>
        <time>2013-04-14T11:01:52Z</time>
      </trkpt>
      <trkpt lat="59.8799178" lon="17.7829023">
        <ele>22.2476</ele>
        <time>2013-04-14T11:01:53Z</time>
      </trkpt>
      <trkpt lat="59.8798416" lon="17.7828521">
        <ele>22.2476</ele>
        <time>2013-04-14T11:01:54Z</time>
      </trkpt>
      <trkpt lat="59.8797644" lon="17.7828146">
        <ele>21.767</ele>
        <time>2013-04-14T11:01:55Z</time>
      </trkpt>
      <trkpt lat="59.8796864" lon="17.7827914">
        <ele>21.767</ele>
        <time>2013-04-14T11:01:56Z</time>
      </trkpt>
      <trkpt lat="59.8796097" lon="17.78279">
        <ele>21.2864</ele>
        <time>2013-04-14T11:01:57Z</time>
      </trkpt>
      <trkpt lat="59.8795358" lon="17.7828175">
        <ele>21.2864</ele>
        <time>2013-04-14T11:01:58Z</time>
      </trkpt>
      <trkpt lat="59.879466" lon="17.7828724">
        <ele>21.2864</ele>
        <time>2013-04-14T11:01:59Z</time>
      </trkpt>
      <trkpt lat="59.8794003" lon="17.7829474">
        <ele>21.2864</ele>
        <time>2013-04-14T11:02:00Z</time>
      </trkpt>
      <trkpt lat="59.8793373" lon="17.7830323">
        <ele>21.2864</ele>
        <time>2013-04-14T11:02:01Z</time>
      </trkpt>
      <trkpt lat="59.8792751" lon="17.7831224">
        <ele>21.2864</ele>
        <time>2013-04-14T11:02:02Z</time>
      </trkpt>
      <trkpt lat="59.8792135" lon="17.7832157">
        <ele>21.2864</ele>
        <time>2013-04-14T11:02:03Z</time>
      </trkpt>
      <trkpt lat="59.8791524" lon="17.7833111">
        <ele>21.2864</ele>
        <time>2013-04-14T11:02:04Z</time>
      </trkpt>
      <trkpt lat="59.8790907" lon="17.7834088">
        <ele>21.2864</ele>
        <time>2013-04-14T11:02:05Z</time>
      </trkpt>
      <trkpt lat="59.8790285" lon="17.7835089">
        <ele>21.2864</ele>
        <time>2013-04-14T11:02:06Z</time>
      </trkpt>
      <trkpt lat="59.8789664" lon="17.7836109">
        <ele>21.2864</ele>
        <time>2013-04-14T11:02:07Z</time>
      </trkpt>
      <trkpt lat="59.8789042" lon="17.7837124">
        <ele>21.2864</ele>
        <time>2013-04-14T11:02:08Z</time>
      </trkpt>
      <trkpt lat="59.8788431" lon="17.783811">
        <ele>21.2864</ele>
        <time>2013-04-14T11:02:09Z</time>
      </trkpt>
      <trkpt lat="59.8787841" lon="17.7839077">
        <ele>21.2864</ele>
        <time>2013-04-14T11:02:10Z</time>
      </trkpt>
      <trkpt lat="59.8787274" lon="17.7840016">
        <ele>21.2864</ele>
        <time>2013-04-14T11:02:11Z</time>
      </trkpt>
      <trkpt lat="59.8786722" lon="17.7840927">
        <ele>21.2864</ele>
        <time>2013-04-14T11:02:12Z</time>
      </trkpt>
      <trkpt lat="59.8786193" lon="17.7841828">
        <ele>20.8057</ele>
        <time>2013-04-14T11:02:13Z</time>
      </trkpt>
      <trkpt lat="59.8785679" lon="17.7842721">
        <ele>20.8057</ele>
        <time>2013-04-14T11:02:14Z</time>
      </trkpt>
      <trkpt lat="59.8785171" lon="17.784363">
        <ele>20.8057</ele>
        <time>2013-04-14T11:02:15Z</time>
      </trkpt>
      <trkpt lat="59.8784681" lon="17.7844599">
        <ele>20.8057</ele>
        <time>2013-04-14T11:02:16Z</time>
      </trkpt>
      <trkpt lat="59.878424" lon="17.7845634">
        <ele>20.8057</ele>
        <time>2013-04-14T11:02:17Z</time>
      </trkpt>
      <trkpt lat="59.878384" lon="17.7846724">
        <ele>20.8057</ele>
        <time>2013-04-14T11:02:18Z</time>
      </trkpt>
      <trkpt lat="59.8783476" lon="17.784787">
        <ele>20.8057</ele>
        <time>2013-04-14T11:02:19Z</time>
      </trkpt>
      <trkpt lat="59.8783163" lon="17.7849076">
        <ele>20.8057</ele>
        <time>2013-04-14T11:02:20Z</time>
      </trkpt>
      <trkpt lat="59.8782883" lon="17.7850319">
        <ele>20.8057</ele>
        <time>2013-04-14T11:02:21Z</time>
      </trkpt>
      <trkpt lat="59.8782632" lon="17.7851609">
        <ele>20.8057</ele>
        <time>2013-04-14T11:02:22Z</time>
      </trkpt>
      <trkpt lat="59.8782401" lon="17.7852935">
        <ele>20.8057</ele>
        <time>2013-04-14T11:02:23Z</time>
      </trkpt>
      <trkpt lat="59.8782163" lon="17.7854281">
        <ele>20.8057</ele>
        <time>2013-04-14T11:02:24Z</time>
      </trkpt>
      <trkpt lat="59.8781925" lon="17.7855655">
        <ele>21.2864</ele>
        <time>2013-04-14T11:02:25Z</time>
      </trkpt>
      <trkpt lat="59.8781697" lon="17.7857078">
        <ele>20.8057</ele>
        <time>2013-04-14T11:02:26Z</time>
      </trkpt>
      <trkpt lat="59.8781467" lon="17.7858483">
        <ele>20.8057</ele>
        <time>2013-04-14T11:02:27Z</time>
      </trkpt>
      <trkpt lat="59.8781218" lon="17.7859871">
        <ele>20.8057</ele>
        <time>2013-04-14T11:02:28Z</time>
      </trkpt>
      <trkpt lat="59.8780966" lon="17.7861253">
        <ele>20.8057</ele>
        <time>2013-04-14T11:02:29Z</time>
      </trkpt>
      <trkpt lat="59.8780722" lon="17.7862596">
        <ele>20.8057</ele>
        <time>2013-04-14T11:02:30Z</time>
      </trkpt>
      <trkpt lat="59.8780472" lon="17.7863881">
        <ele>20.8057</ele>
        <time>2013-04-14T11:02:31Z</time>
      </trkpt>
      <trkpt lat="59.8780209" lon="17.7865124">
        <ele>20.325</ele>
        <time>2013-04-14T11:02:32Z</time>
      </trkpt>
      <trkpt lat="59.8779946" lon="17.7866335">
        <ele>20.8057</ele>
        <time>2013-04-14T11:02:33Z</time>
      </trkpt>
      <trkpt lat="59.8779685" lon="17.7867518">
        <ele>20.8057</ele>
        <time>2013-04-14T11:02:34Z</time>
      </trkpt>
      <trkpt lat="59.8779428" lon="17.7868702">
        <ele>20.8057</ele>
        <time>2013-04-14T11:02:35Z</time>
      </trkpt>
      <trkpt lat="59.8779174" lon="17.7869889">
        <ele>20.8057</ele>
        <time>2013-04-14T11:02:36Z</time>
      </trkpt>
      <trkpt lat="59.8778939" lon="17.7871056">
        <ele>21.2864</ele>
        <time>2013-04-14T11:02:37Z</time>
      </trkpt>
      <trkpt lat="59.8778727" lon="17.7872224">
        <ele>21.2864</ele>
        <time>2013-04-14T11:02:38Z</time>
      </trkpt>
      <trkpt lat="59.8778475" lon="17.7873407">
        <ele>21.2864</ele>
        <time>2013-04-14T11:02:39Z</time>
      </trkpt>
      <trkpt lat="59.877821" lon="17.787454">
        <ele>21.2864</ele>
        <time>2013-04-14T11:02:40Z</time>
      </trkpt>
      <trkpt lat="59.8777957" lon="17.7875658">
        <ele>21.2864</ele>
        <time>2013-04-14T11:02:41Z</time>
      </trkpt>
      <trkpt lat="59.8777693" lon="17.7876769">
        <ele>21.2864</ele>
        <time>2013-04-14T11:02:42Z</time>
      </trkpt>
      <trkpt lat="59.8777464" lon="17.7877813">
        <ele>21.767</ele>
        <time>2013-04-14T11:02:43Z</time>
      </trkpt>
      <trkpt lat="59.877724" lon="17.7878856">
        <ele>21.767</ele>
        <time>2013-04-14T11:02:44Z</time>
      </trkpt>
      <trkpt lat="59.8776998" lon="17.7879904">
        <ele>21.767</ele>
        <time>2013-04-14T11:02:45Z</time>
      </trkpt>
      <trkpt lat="59.8776739" lon="17.7880957">
        <ele>21.767</ele>
        <time>2013-04-14T11:02:46Z</time>
      </trkpt>
      <trkpt lat="59.8776492" lon="17.7882009">
        <ele>21.767</ele>
        <time>2013-04-14T11:02:47Z</time>
      </trkpt>
      <trkpt lat="59.8776295" lon="17.7883067">
        <ele>22.2476</ele>
        <time>2013-04-14T11:02:48Z</time>
      </trkpt>
      <trkpt lat="59.8776159" lon="17.7884113">
        <ele>22.2476</ele>
        <time>2013-04-14T11:02:49Z</time>
      </trkpt>
      <trkpt lat="59.8776065" lon="17.7885155">
        <ele>22.2476</ele>
        <time>2013-04-14T11:02:50Z</time>
      </trkpt>
      <trkpt lat="59.8775957" lon="17.7886224">
        <ele>22.2476</ele>
        <time>2013-04-14T11:02:51Z</time>
      </trkpt>
      <trkpt lat="59.8775888" lon="17.7887303">
        <ele>22.7283</ele>
        <time>2013-04-14T11:02:52Z</time>
      </trkpt>
      <trkpt lat="59.8775869" lon="17.7888375">
        <ele>23.209</ele>
        <time>2013-04-14T11:02:53Z</time>
      </trkpt>
      <trkpt lat="59.8775862" lon="17.7889484">
        <ele>23.209</ele>
        <time>2013-04-14T11:02:54Z</time>
      </trkpt>
      <trkpt lat="59.8775895" lon="17.7890601">
        <ele>23.6896</ele>
        <time>2013-04-14T11:02:55Z</time>
      </trkpt>
      <trkpt lat="59.8775966" lon="17.7891743">
        <ele>24.1703</ele>
        <time>2013-04-14T11:02:56Z</time>
      </trkpt>
      <trkpt lat="59.8776034" lon="17.7892921">
        <ele>24.1703</ele>
        <time>2013-04-14T11:02:57Z</time>
      </trkpt>
      <trkpt lat="59.8776105" lon="17.7894122">
        <ele>24.1703</ele>
        <time>2013-04-14T11:02:58Z</time>
      </trkpt>
      <trkpt lat="59.8776164" lon="17.7895333">
        <ele>24.1703</ele>
        <time>2013-04-14T11:02:59Z</time>
      </trkpt>
      <trkpt lat="59.8776209" lon="17.7896556">
        <ele>24.651</ele>
        <time>2013-04-14T11:03:00Z</time>
      </trkpt>
      <trkpt lat="59.8776245" lon="17.7897773">
        <ele>24.651</ele>
        <time>2013-04-14T11:03:01Z</time>
      </trkpt>
      <trkpt lat="59.8776266" lon="17.7898979">
        <ele>24.651</ele>
        <time>2013-04-14T11:03:02Z</time>
      </trkpt>
      <trkpt lat="59.8776281" lon="17.7900183">
        <ele>25.1317</ele>
        <time>2013-04-14T11:03:03Z</time>
      </trkpt>
      <trkpt lat="59.8776295" lon="17.7901385">
        <ele>25.1317</ele>
        <time>2013-04-14T11:03:04Z</time>
      </trkpt>
      <trkpt lat="59.8776299" lon="17.7902585">
        <ele>25.6123</ele>
        <time>2013-04-14T11:03:05Z</time>
      </trkpt>
      <trkpt lat="59.87763" lon="17.7903782">
        <ele>26.0929</ele>
        <time>2013-04-14T11:03:06Z</time>
      </trkpt>
      <trkpt lat="59.8776308" lon="17.7904975">
        <ele>26.0929</ele>
        <time>2013-04-14T11:03:07Z</time>
      </trkpt>
      <trkpt lat="59.8776329" lon="17.7906156">
        <ele>26.0929</ele>
        <time>2013-04-14T11:03:08Z</time>
      </trkpt>
      <trkpt lat="59.8776345" lon="17.7907331">
        <ele>26.5736</ele>
        <time>2013-04-14T11:03:09Z</time>
      </trkpt>
      <trkpt lat="59.8776369" lon="17.7908502">
        <ele>26.5736</ele>
        <time>2013-04-14T11:03:10Z</time>
      </trkpt>
      <trkpt lat="59.8776397" lon="17.7909678">
        <ele>26.5736</ele>
        <time>2013-04-14T11:03:11Z</time>
      </trkpt>
      <trkpt lat="59.8776437" lon="17.7910859">
        <ele>27.0543</ele>
        <time>2013-04-14T11:03:12Z</time>
      </trkpt>
      <trkpt lat="59.8776476" lon="17.791206">
        <ele>27.0543</ele>
        <time>2013-04-14T11:03:13Z</time>
      </trkpt>
      <trkpt lat="59.8776522" lon="17.7913278">
        <ele>27.5349</ele>
        <time>2013-04-14T11:03:14Z</time>
      </trkpt>
      <trkpt lat="59.8776573" lon="17.7914505">
        <ele>27.5349</ele>
        <time>2013-04-14T11:03:15Z</time>
      </trkpt>
      <trkpt lat="59.8776618" lon="17.7915726">
        <ele>28.0155</ele>
        <time>2013-04-14T11:03:16Z</time>
      </trkpt>
      <trkpt lat="59.8776662" lon="17.7916939">
        <ele>28.0155</ele>
        <time>2013-04-14T11:03:17Z</time>
      </trkpt>
      <trkpt lat="59.8776688" lon="17.7918153">
        <ele>28.4962</ele>
        <time>2013-04-14T11:03:18Z</time>
      </trkpt>
      <trkpt lat="59.8776686" lon="17.7919375">
        <ele>28.4962</ele>
        <time>2013-04-14T11:03:19Z</time>
      </trkpt>
      <trkpt lat="59.877666" lon="17.7920608">
        <ele>28.4962</ele>
        <time>2013-04-14T11:03:20Z</time>
      </trkpt>
      <trkpt lat="59.8776625" lon="17.7921852">
        <ele>28.4962</ele>
        <time>2013-04-14T11:03:21Z</time>
      </trkpt>
      <trkpt lat="59.8776573" lon="17.7923075">
        <ele>28.4962</ele>
        <time>2013-04-14T11:03:22Z</time>
      </trkpt>
      <trkpt lat="59.8776504" lon="17.7924258">
        <ele>28.4962</ele>
        <time>2013-04-14T11:03:23Z</time>
      </trkpt>
      <trkpt lat="59.8776429" lon="17.7925403">
        <ele>28.4962</ele>
        <time>2013-04-14T11:03:24Z</time>
      </trkpt>
      <trkpt lat="59.8776335" lon="17.7926529">
        <ele>28.4962</ele>
        <time>2013-04-14T11:03:25Z</time>
      </trkpt>
      <trkpt lat="59.8776219" lon="17.7927648">
        <ele>28.4962</ele>
        <time>2013-04-14T11:03:26Z</time>
      </trkpt>
      <trkpt lat="59.8776064" lon="17.7928782">
        <ele>28.4962</ele>
        <time>2013-04-14T11:03:27Z</time>
      </trkpt>
      <trkpt lat="59.877592" lon="17.7929931">
        <ele>28.4962</ele>
        <time>2013-04-14T11:03:28Z</time>
      </trkpt>
      <trkpt lat="59.8775782" lon="17.7931092">
        <ele>28.4962</ele>
        <time>2013-04-14T11:03:29Z</time>
      </trkpt>
      <trkpt lat="59.8775634" lon="17.7932258">
        <ele>28.4962</ele>
        <time>2013-04-14T11:03:30Z</time>
      </trkpt>
      <trkpt lat="59.8775463" lon="17.7933443">
        <ele>28.4962</ele>
        <time>2013-04-14T11:03:31Z</time>
      </trkpt>
      <trkpt lat="59.8775282" lon="17.7934635">
        <ele>28.4962</ele>
        <time>2013-04-14T11:03:32Z</time>
      </trkpt>
      <trkpt lat="59.8775072" lon="17.7935806">
        <ele>28.4962</ele>
        <time>2013-04-14T11:03:33Z</time>
      </trkpt>
      <trkpt lat="59.8774843" lon="17.7936977">
        <ele>28.0155</ele>
        <time>2013-04-14T11:03:34Z</time>
      </trkpt>
      <trkpt lat="59.8774594" lon="17.7938144">
        <ele>27.5349</ele>
        <time>2013-04-14T11:03:35Z</time>
      </trkpt>
      <trkpt lat="59.877431" lon="17.7939297">
        <ele>27.5349</ele>
        <time>2013-04-14T11:03:36Z</time>
      </trkpt>
      <trkpt lat="59.8774018" lon="17.7940446">
        <ele>27.5349</ele>
        <time>2013-04-14T11:03:37Z</time>
      </trkpt>
      <trkpt lat="59.8773705" lon="17.7941598">
        <ele>27.0543</ele>
        <time>2013-04-14T11:03:38Z</time>
      </trkpt>
      <trkpt lat="59.8773383" lon="17.7942731">
        <ele>27.0543</ele>
        <time>2013-04-14T11:03:39Z</time>
      </trkpt>
      <trkpt lat="59.8773067" lon="17.7943867">
        <ele>27.0543</ele>
        <time>2013-04-14T11:03:40Z</time>
      </trkpt>
      <trkpt lat="59.8772729" lon="17.7945031">
        <ele>27.5349</ele>
        <time>2013-04-14T11:03:41Z</time>
      </trkpt>
      <trkpt lat="59.8772398" lon="17.7946185">
        <ele>27.5349</ele>
        <time>2013-04-14T11:03:42Z</time>
      </trkpt>
      <trkpt lat="59.8772083" lon="17.7947382">
        <ele>27.0543</ele>
        <time>2013-04-14T11:03:43Z</time>
      </trkpt>
      <trkpt lat="59.8771751" lon="17.7948616">
        <ele>26.5736</ele>
        <time>2013-04-14T11:03:44Z</time>
      </trkpt>
      <trkpt lat="59.877143" lon="17.7949856">
        <ele>26.0929</ele>
        <time>2013-04-14T11:03:45Z</time>
      </trkpt>
      <trkpt lat="59.8771098" lon="17.7951075">
        <ele>25.6123</ele>
        <time>2013-04-14T11:03:46Z</time>
      </trkpt>
      <trkpt lat="59.8770759" lon="17.795231">
        <ele>25.6123</ele>
        <time>2013-04-14T11:03:47Z</time>
      </trkpt>
      <trkpt lat="59.8770418" lon="17.7953552">
        <ele>25.6123</ele>
        <time>2013-04-14T11:03:48Z</time>
      </trkpt>
      <trkpt lat="59.877007" lon="17.7954781">
        <ele>25.6123</ele>
        <time>2013-04-14T11:03:49Z</time>
      </trkpt>
      <trkpt lat="59.8769725" lon="17.7956009">
        <ele>25.6123</ele>
        <time>2013-04-14T11:03:50Z</time>
      </trkpt>
      <trkpt lat="59.8769359" lon="17.7957189">
        <ele>25.6123</ele>
        <time>2013-04-14T11:03:51Z</time>
      </trkpt>
      <trkpt lat="59.8768995" lon="17.7958353">
        <ele>25.6123</ele>
        <time>2013-04-14T11:03:52Z</time>
      </trkpt>
      <trkpt lat="59.8768648" lon="17.795953">
        <ele>25.1317</ele>
        <time>2013-04-14T11:03:53Z</time>
      </trkpt>
      <trkpt lat="59.8768321" lon="17.7960719">
        <ele>25.1317</ele>
        <time>2013-04-14T11:03:54Z</time>
      </trkpt>
      <trkpt lat="59.8768007" lon="17.7961909">
        <ele>25.1317</ele>
        <time>2013-04-14T11:03:55Z</time>
      </trkpt>
      <trkpt lat="59.8767688" lon="17.7963093">
        <ele>25.6123</ele>
        <time>2013-04-14T11:03:56Z</time>
      </trkpt>
      <trkpt lat="59.8767363" lon="17.7964279">
        <ele>25.6123</ele>
        <time>2013-04-14T11:03:57Z</time>
      </trkpt>
      <trkpt lat="59.8767047" lon="17.7965513">
        <ele>25.6123</ele>
        <time>2013-04-14T11:03:58Z</time>
      </trkpt>
      <trkpt lat="59.8766747" lon="17.7966757">
        <ele>25.6123</ele>
        <time>2013-04-14T11:03:59Z</time>
      </trkpt>
      <trkpt lat="59.8766447" lon="17.7968014">
        <ele>25.6123</ele>
        <time>2013-04-14T11:04:00Z</time>
      </trkpt>
      <trkpt lat="59.8766129" lon="17.7969295">
        <ele>24.651</ele>
        <time>2013-04-14T11:04:01Z</time>
      </trkpt>
      <trkpt lat="59.8765815" lon="17.7970554">
        <ele>24.651</ele>
        <time>2013-04-14T11:04:02Z</time>
      </trkpt>
      <trkpt lat="59.8765479" lon="17.7971829">
        <ele>24.1703</ele>
        <time>2013-04-14T11:04:03Z</time>
      </trkpt>
      <trkpt lat="59.8765129" lon="17.7973099">
        <ele>24.1703</ele>
        <time>2013-04-14T11:04:04Z</time>
      </trkpt>
      <trkpt lat="59.8764789" lon="17.7974367">
        <ele>23.6896</ele>
        <time>2013-04-14T11:04:05Z</time>
      </trkpt>
      <trkpt lat="59.8764457" lon="17.7975637">
        <ele>23.6896</ele>
        <time>2013-04-14T11:04:06Z</time>
      </trkpt>
      <trkpt lat="59.8764116" lon="17.7976908">
        <ele>23.6896</ele>
        <time>2013-04-14T11:04:07Z</time>
      </trkpt>
      <trkpt lat="59.8763754" lon="17.797818">
        <ele>23.6896</ele>
        <time>2013-04-14T11:04:08Z</time>
      </trkpt>
      <trkpt lat="59.8763369" lon="17.7979416">
        <ele>23.209</ele>
        <time>2013-04-14T11:04:09Z</time>
      </trkpt>
      <trkpt lat="59.8762979" lon="17.7980638">
        <ele>22.7283</ele>
        <time>2013-04-14T11:04:10Z</time>
      </trkpt>
      <trkpt lat="59.8762564" lon="17.7981898">
        <ele>22.2476</ele>
        <time>2013-04-14T11:04:11Z</time>
      </trkpt>
      <trkpt lat="59.8762167" lon="17.7983173">
        <ele>22.2476</ele>
        <time>2013-04-14T11:04:12Z</time>
      </trkpt>
      <trkpt lat="59.8761774" lon="17.7984472">
        <ele>21.767</ele>
        <time>2013-04-14T11:04:13Z</time>
      </trkpt>
      <trkpt lat="59.876137" lon="17.7985764">
        <ele>21.767</ele>
        <time>2013-04-14T11:04:14Z</time>
      </trkpt>
      <trkpt lat="59.8760961" lon="17.7987047">
        <ele>22.2476</ele>
        <time>2013-04-14T11:04:15Z</time>
      </trkpt>
      <trkpt lat="59.8760541" lon="17.7988307">
        <ele>22.2476</ele>
        <time>2013-04-14T11:04:16Z</time>
      </trkpt>
      <trkpt lat="59.8760106" lon="17.7989527">
        <ele>22.7283</ele>
        <time>2013-04-14T11:04:17Z</time>
      </trkpt>
      <trkpt lat="59.8759651" lon="17.7990705">
        <ele>22.7283</ele>
        <time>2013-04-14T11:04:18Z</time>
      </trkpt>
      <trkpt lat="59.8759197" lon="17.7991853">
        <ele>22.2476</ele>
        <time>2013-04-14T11:04:19Z</time>
      </trkpt>
      <trkpt lat="59.8758733" lon="17.7993">
        <ele>22.2476</ele>
        <time>2013-04-14T11:04:20Z</time>
      </trkpt>
      <trkpt lat="59.8758241" lon="17.7994179">
        <ele>22.2476</ele>
        <time>2013-04-14T11:04:21Z</time>
      </trkpt>
      <trkpt lat="59.8757762" lon="17.7995391">
        <ele>21.767</ele>
        <time>2013-04-14T11:04:22Z</time>
      </trkpt>
      <trkpt lat="59.8757304" lon="17.7996641">
        <ele>21.767</ele>
        <time>2013-04-14T11:04:23Z</time>
      </trkpt>
      <trkpt lat="59.8756883" lon="17.7997936">
        <ele>21.2864</ele>
        <time>2013-04-14T11:04:24Z</time>
      </trkpt>
      <trkpt lat="59.8756484" lon="17.7999255">
        <ele>21.2864</ele>
        <time>2013-04-14T11:04:25Z</time>
      </trkpt>
      <trkpt lat="59.8756098" lon="17.8000579">
        <ele>21.2864</ele>
        <time>2013-04-14T11:04:26Z</time>
      </trkpt>
      <trkpt lat="59.8755734" lon="17.8001918">
        <ele>20.8057</ele>
        <time>2013-04-14T11:04:27Z</time>
      </trkpt>
      <trkpt lat="59.8755387" lon="17.8003255">
        <ele>20.8057</ele>
        <time>2013-04-14T11:04:28Z</time>
      </trkpt>
      <trkpt lat="59.8755034" lon="17.8004589">
        <ele>20.8057</ele>
        <time>2013-04-14T11:04:29Z</time>
      </trkpt>
      <trkpt lat="59.8754666" lon="17.8005924">
        <ele>20.8057</ele>
        <time>2013-04-14T11:04:30Z</time>
      </trkpt>
      <trkpt lat="59.8754284" lon="17.8007257">
        <ele>20.8057</ele>
        <time>2013-04-14T11:04:31Z</time>
      </trkpt>
      <trkpt lat="59.8753934" lon="17.8008608">
        <ele>20.8057</ele>
        <time>2013-04-14T11:04:32Z</time>
      </trkpt>
      <trkpt lat="59.8753598" lon="17.8010041">
        <ele>20.325</ele>
        <time>2013-04-14T11:04:33Z</time>
      </trkpt>
      <trkpt lat="59.8753267" lon="17.8011507">
        <ele>20.325</ele>
        <time>2013-04-14T11:04:34Z</time>
      </trkpt>
      <trkpt lat="59.8752914" lon="17.8013021">
        <ele>19.8444</ele>
        <time>2013-04-14T11:04:35Z</time>
      </trkpt>
      <trkpt lat="59.8752548" lon="17.8014586">
        <ele>19.3638</ele>
        <time>2013-04-14T11:04:36Z</time>
      </trkpt>
      <trkpt lat="59.8752179" lon="17.8016196">
        <ele>19.3638</ele>
        <time>2013-04-14T11:04:37Z</time>
      </trkpt>
      <trkpt lat="59.8751791" lon="17.8017823">
        <ele>18.8831</ele>
        <time>2013-04-14T11:04:38Z</time>
      </trkpt>
      <trkpt lat="59.8751377" lon="17.8019437">
        <ele>18.4023</ele>
        <time>2013-04-14T11:04:39Z</time>
      </trkpt>
      <trkpt lat="59.8750931" lon="17.8021038">
        <ele>18.4023</ele>
        <time>2013-04-14T11:04:40Z</time>
      </trkpt>
      <trkpt lat="59.8750446" lon="17.8022609">
        <ele>17.9218</ele>
        <time>2013-04-14T11:04:41Z</time>
      </trkpt>
      <trkpt lat="59.8749906" lon="17.8024101">
        <ele>17.9218</ele>
        <time>2013-04-14T11:04:42Z</time>
      </trkpt>
      <trkpt lat="59.8749319" lon="17.80255">
        <ele>17.4412</ele>
        <time>2013-04-14T11:04:43Z</time>
      </trkpt>
      <trkpt lat="59.8748706" lon="17.8026816">
        <ele>17.4412</ele>
        <time>2013-04-14T11:04:44Z</time>
      </trkpt>
      <trkpt lat="59.8748099" lon="17.8028095">
        <ele>17.4412</ele>
        <time>2013-04-14T11:04:45Z</time>
      </trkpt>
      <trkpt lat="59.8747522" lon="17.802938">
        <ele>17.9218</ele>
        <time>2013-04-14T11:04:46Z</time>
      </trkpt>
      <trkpt lat="59.874699" lon="17.803069">
        <ele>17.9218</ele>
        <time>2013-04-14T11:04:47Z</time>
      </trkpt>
      <trkpt lat="59.8746504" lon="17.8032026">
        <ele>18.4023</ele>
        <time>2013-04-14T11:04:48Z</time>
      </trkpt>
      <trkpt lat="59.8746062" lon="17.8033369">
        <ele>18.4023</ele>
        <time>2013-04-14T11:04:49Z</time>
      </trkpt>
      <trkpt lat="59.8745638" lon="17.8034709">
        <ele>18.4023</ele>
        <time>2013-04-14T11:04:50Z</time>
      </trkpt>
      <trkpt lat="59.8745229" lon="17.8036029">
        <ele>18.8831</ele>
        <time>2013-04-14T11:04:51Z</time>
      </trkpt>
      <trkpt lat="59.8744825" lon="17.8037324">
        <ele>18.8831</ele>
        <time>2013-04-14T11:04:52Z</time>
      </trkpt>
      <trkpt lat="59.8744415" lon="17.8038596">
        <ele>18.8831</ele>
        <time>2013-04-14T11:04:53Z</time>
      </trkpt>
      <trkpt lat="59.8744001" lon="17.8039868">
        <ele>18.8831</ele>
        <time>2013-04-14T11:04:54Z</time>
      </trkpt>
      <trkpt lat="59.8743575" lon="17.8041123">
        <ele>18.8831</ele>
        <time>2013-04-14T11:04:55Z</time>
      </trkpt>
      <trkpt lat="59.8743125" lon="17.804235">
        <ele>18.8831</ele>
        <time>2013-04-14T11:04:56Z</time>
      </trkpt>
      <trkpt lat="59.8742669" lon="17.8043542">
        <ele>18.8831</ele>
        <time>2013-04-14T11:04:57Z</time>
      </trkpt>
      <trkpt lat="59.8742182" lon="17.8044707">
        <ele>18.8831</ele>
        <time>2013-04-14T11:04:58Z</time>
      </trkpt>
      <trkpt lat="59.8741654" lon="17.8045894">
        <ele>18.8831</ele>
        <time>2013-04-14T11:04:59Z</time>
      </trkpt>
      <trkpt lat="59.8741121" lon="17.8047092">
        <ele>18.8831</ele>
        <time>2013-04-14T11:05:00Z</time>
      </trkpt>
      <trkpt lat="59.8740572" lon="17.8048273">
        <ele>18.8831</ele>
        <time>2013-04-14T11:05:01Z</time>
      </trkpt>
      <trkpt lat="59.8740031" lon="17.8049463">
        <ele>18.8831</ele>
        <time>2013-04-14T11:05:02Z</time>
      </trkpt>
      <trkpt lat="59.873948" lon="17.805067">
        <ele>18.8831</ele>
        <time>2013-04-14T11:05:03Z</time>
      </trkpt>
      <trkpt lat="59.8738938" lon="17.8051882">
        <ele>18.8831</ele>
        <time>2013-04-14T11:05:04Z</time>
      </trkpt>
      <trkpt lat="59.8738422" lon="17.8053104">
        <ele>18.8831</ele>
        <time>2013-04-14T11:05:05Z</time>
      </trkpt>
      <trkpt lat="59.8737936" lon="17.8054352">
        <ele>18.8831</ele>
        <time>2013-04-14T11:05:06Z</time>
      </trkpt>
      <trkpt lat="59.8737484" lon="17.8055615">
        <ele>19.3638</ele>
        <time>2013-04-14T11:05:07Z</time>
      </trkpt>
      <trkpt lat="59.8737078" lon="17.8056879">
        <ele>19.3638</ele>
        <time>2013-04-14T11:05:08Z</time>
      </trkpt>
      <trkpt lat="59.8736697" lon="17.8058109">
        <ele>19.3638</ele>
        <time>2013-04-14T11:05:09Z</time>
      </trkpt>
      <trkpt lat="59.8736324" lon="17.8059313">
        <ele>19.8444</ele>
        <time>2013-04-14T11:05:10Z</time>
      </trkpt>
      <trkpt lat="59.8735959" lon="17.8060512">
        <ele>19.8444</ele>
        <time>2013-04-14T11:05:11Z</time>
      </trkpt>
      <trkpt lat="59.8735604" lon="17.8061734">
        <ele>19.3638</ele>
        <time>2013-04-14T11:05:12Z</time>
      </trkpt>
      <trkpt lat="59.8735252" lon="17.8062965">
        <ele>19.3638</ele>
        <time>2013-04-14T11:05:13Z</time>
      </trkpt>
      <trkpt lat="59.8734896" lon="17.8064195">
        <ele>19.3638</ele>
        <time>2013-04-14T11:05:14Z</time>
      </trkpt>
      <trkpt lat="59.8734543" lon="17.8065431">
        <ele>19.3638</ele>
        <time>2013-04-14T11:05:15Z</time>
      </trkpt>
      <trkpt lat="59.8734206" lon="17.8066671">
        <ele>19.3638</ele>
        <time>2013-04-14T11:05:16Z</time>
      </trkpt>
      <trkpt lat="59.8733896" lon="17.806792">
        <ele>19.3638</ele>
        <time>2013-04-14T11:05:17Z</time>
      </trkpt>
      <trkpt lat="59.8733611" lon="17.8069173">
        <ele>19.3638</ele>
        <time>2013-04-14T11:05:18Z</time>
      </trkpt>
      <trkpt lat="59.8733346" lon="17.8070411">
        <ele>19.3638</ele>
        <time>2013-04-14T11:05:19Z</time>
      </trkpt>
      <trkpt lat="59.8733112" lon="17.8071633">
        <ele>19.3638</ele>
        <time>2013-04-14T11:05:20Z</time>
      </trkpt>
      <trkpt lat="59.8732901" lon="17.8072845">
        <ele>19.8444</ele>
        <time>2013-04-14T11:05:21Z</time>
      </trkpt>
      <trkpt lat="59.8732703" lon="17.8074042">
        <ele>19.8444</ele>
        <time>2013-04-14T11:05:22Z</time>
      </trkpt>
      <trkpt lat="59.8732528" lon="17.8075227">
        <ele>19.8444</ele>
        <time>2013-04-14T11:05:23Z</time>
      </trkpt>
      <trkpt lat="59.8732382" lon="17.8076421">
        <ele>20.325</ele>
        <time>2013-04-14T11:05:24Z</time>
      </trkpt>
      <trkpt lat="59.8732268" lon="17.8077566">
        <ele>20.325</ele>
        <time>2013-04-14T11:05:25Z</time>
      </trkpt>
      <trkpt lat="59.8732139" lon="17.8078713">
        <ele>20.8057</ele>
        <time>2013-04-14T11:05:26Z</time>
      </trkpt>
      <trkpt lat="59.8732031" lon="17.8079849">
        <ele>21.2864</ele>
        <time>2013-04-14T11:05:27Z</time>
      </trkpt>
      <trkpt lat="59.8731978" lon="17.8080957">
        <ele>21.2864</ele>
        <time>2013-04-14T11:05:28Z</time>
      </trkpt>
      <trkpt lat="59.8731937" lon="17.8082038">
        <ele>22.2476</ele>
        <time>2013-04-14T11:05:29Z</time>
      </trkpt>
      <trkpt lat="59.8731884" lon="17.8083129">
        <ele>22.2476</ele>
        <time>2013-04-14T11:05:30Z</time>
      </trkpt>
      <trkpt lat="59.8731826" lon="17.8084215">
        <ele>22.7283</ele>
        <time>2013-04-14T11:05:31Z</time>
      </trkpt>
      <trkpt lat="59.873176" lon="17.8085307">
        <ele>22.7283</ele>
        <time>2013-04-14T11:05:32Z</time>
      </trkpt>
      <trkpt lat="59.8731672" lon="17.8086445">
        <ele>23.209</ele>
        <time>2013-04-14T11:05:33Z</time>
      </trkpt>
      <trkpt lat="59.8731595" lon="17.8087583">
        <ele>23.209</ele>
        <time>2013-04-14T11:05:34Z</time>
      </trkpt>
      <trkpt lat="59.8731496" lon="17.8088739">
        <ele>23.209</ele>
        <time>2013-04-14T11:05:35Z</time>
      </trkpt>
      <trkpt lat="59.8731367" lon="17.8089899">
        <ele>23.209</ele>
        <time>2013-04-14T11:05:36Z</time>
      </trkpt>
      <trkpt lat="59.8731238" lon="17.8091069">
        <ele>23.6896</ele>
        <time>2013-04-14T11:05:37Z</time>
      </trkpt>
      <trkpt lat="59.8731119" lon="17.8092257">
        <ele>23.6896</ele>
        <time>2013-04-14T11:05:38Z</time>
      </trkpt>
      <trkpt lat="59.8730973" lon="17.8093447">
        <ele>23.6896</ele>
        <time>2013-04-14T11:05:39Z</time>
      </trkpt>
      <trkpt lat="59.8730801" lon="17.8094644">
        <ele>23.6896</ele>
        <time>2013-04-14T11:05:40Z</time>
      </trkpt>
      <trkpt lat="59.8730601" lon="17.8095861">
        <ele>23.6896</ele>
        <time>2013-04-14T11:05:41Z</time>
      </trkpt>
      <trkpt lat="59.8730388" lon="17.8097052">
        <ele>23.6896</ele>
        <time>2013-04-14T11:05:42Z</time>
      </trkpt>
      <trkpt lat="59.8730163" lon="17.8098261">
        <ele>23.6896</ele>
        <time>2013-04-14T11:05:43Z</time>
      </trkpt>
      <trkpt lat="59.8729943" lon="17.8099491">
        <ele>23.6896</ele>
        <time>2013-04-14T11:05:44Z</time>
      </trkpt>
      <trkpt lat="59.8729693" lon="17.8100695">
        <ele>23.6896</ele>
        <time>2013-04-14T11:05:45Z</time>
      </trkpt>
      <trkpt lat="59.8729417" lon="17.8101905">
        <ele>23.209</ele>
        <time>2013-04-14T11:05:46Z</time>
      </trkpt>
      <trkpt lat="59.8729115" lon="17.8103124">
        <ele>22.7283</ele>
        <time>2013-04-14T11:05:47Z</time>
      </trkpt>
      <trkpt lat="59.8728782" lon="17.8104334">
        <ele>22.7283</ele>
        <time>2013-04-14T11:05:48Z</time>
      </trkpt>
      <trkpt lat="59.8728441" lon="17.8105517">
        <ele>22.2476</ele>
        <time>2013-04-14T11:05:49Z</time>
      </trkpt>
      <trkpt lat="59.8728087" lon="17.8106702">
        <ele>21.767</ele>
        <time>2013-04-14T11:05:50Z</time>
      </trkpt>
      <trkpt lat="59.8727688" lon="17.8107934">
        <ele>21.2864</ele>
        <time>2013-04-14T11:05:51Z</time>
      </trkpt>
      <trkpt lat="59.8727309" lon="17.8109179">
        <ele>20.8057</ele>
        <time>2013-04-14T11:05:52Z</time>
      </trkpt>
      <trkpt lat="59.8726903" lon="17.8110469">
        <ele>20.8057</ele>
        <time>2013-04-14T11:05:53Z</time>
      </trkpt>
      <trkpt lat="59.8726493" lon="17.8111769">
        <ele>20.8057</ele>
        <time>2013-04-14T11:05:54Z</time>
      </trkpt>
      <trkpt lat="59.8726093" lon="17.8113109">
        <ele>20.8057</ele>
        <time>2013-04-14T11:05:55Z</time>
      </trkpt>
      <trkpt lat="59.8725714" lon="17.8114446">
        <ele>20.8057</ele>
        <time>2013-04-14T11:05:56Z</time>
      </trkpt>
      <trkpt lat="59.8725341" lon="17.8115774">
        <ele>20.325</ele>
        <time>2013-04-14T11:05:57Z</time>
      </trkpt>
      <trkpt lat="59.8724984" lon="17.8117141">
        <ele>20.325</ele>
        <time>2013-04-14T11:05:58Z</time>
      </trkpt>
      <trkpt lat="59.872466" lon="17.8118555">
        <ele>20.325</ele>
        <time>2013-04-14T11:05:59Z</time>
      </trkpt>
      <trkpt lat="59.8724366" lon="17.8119995">
        <ele>19.8444</ele>
        <time>2013-04-14T11:06:00Z</time>
      </trkpt>
      <trkpt lat="59.8724081" lon="17.8121419">
        <ele>20.325</ele>
        <time>2013-04-14T11:06:01Z</time>
      </trkpt>
      <trkpt lat="59.8723814" lon="17.8122835">
        <ele>20.325</ele>
        <time>2013-04-14T11:06:02Z</time>
      </trkpt>
      <trkpt lat="59.8723569" lon="17.8124232">
        <ele>20.325</ele>
        <time>2013-04-14T11:06:03Z</time>
      </trkpt>
      <trkpt lat="59.8723321" lon="17.8125619">
        <ele>20.325</ele>
        <time>2013-04-14T11:06:04Z</time>
      </trkpt>
      <trkpt lat="59.8723085" lon="17.8126987">
        <ele>19.8444</ele>
        <time>2013-04-14T11:06:05Z</time>
      </trkpt>
      <trkpt lat="59.872285" lon="17.8128325">
        <ele>20.325</ele>
        <time>2013-04-14T11:06:06Z</time>
      </trkpt>
      <trkpt lat="59.8722612" lon="17.8129656">
        <ele>20.325</ele>
        <time>2013-04-14T11:06:07Z</time>
      </trkpt>
      <trkpt lat="59.8722377" lon="17.813098">
        <ele>20.325</ele>
        <time>2013-04-14T11:06:08Z</time>
      </trkpt>
      <trkpt lat="59.8722146" lon="17.8132294">
        <ele>20.325</ele>
        <time>2013-04-14T11:06:09Z</time>
      </trkpt>
      <trkpt lat="59.8721923" lon="17.8133593">
        <ele>20.325</ele>
        <time>2013-04-14T11:06:10Z</time>
      </trkpt>
      <trkpt lat="59.8721691" lon="17.8134871">
        <ele>20.325</ele>
        <time>2013-04-14T11:06:11Z</time>
      </trkpt>
      <trkpt lat="59.8721468" lon="17.8136167">
        <ele>20.325</ele>
        <time>2013-04-14T11:06:12Z</time>
      </trkpt>
      <trkpt lat="59.8721282" lon="17.8137512">
        <ele>20.325</ele>
        <time>2013-04-14T11:06:13Z</time>
      </trkpt>
      <trkpt lat="59.8721099" lon="17.8138859">
        <ele>20.325</ele>
        <time>2013-04-14T11:06:14Z</time>
      </trkpt>
      <trkpt lat="59.8720913" lon="17.8140187">
        <ele>20.8057</ele>
        <time>2013-04-14T11:06:15Z</time>
      </trkpt>
      <trkpt lat="59.8720727" lon="17.8141501">
        <ele>20.8057</ele>
        <time>2013-04-14T11:06:16Z</time>
      </trkpt>
      <trkpt lat="59.8720543" lon="17.8142808">
        <ele>20.325</ele>
        <time>2013-04-14T11:06:17Z</time>
      </trkpt>
      <trkpt lat="59.8720322" lon="17.8144065">
        <ele>20.325</ele>
        <time>2013-04-14T11:06:18Z</time>
      </trkpt>
      <trkpt lat="59.8720103" lon="17.8145319">
        <ele>20.325</ele>
        <time>2013-04-14T11:06:19Z</time>
      </trkpt>
      <trkpt lat="59.8719892" lon="17.8146616">
        <ele>20.325</ele>
        <time>2013-04-14T11:06:20Z</time>
      </trkpt>
      <trkpt lat="59.8719751" lon="17.8147927">
        <ele>20.325</ele>
        <time>2013-04-14T11:06:21Z</time>
      </trkpt>
      <trkpt lat="59.8719652" lon="17.8149257">
        <ele>20.325</ele>
        <time>2013-04-14T11:06:22Z</time>
      </trkpt>
      <trkpt lat="59.8719599" lon="17.8150599">
        <ele>20.325</ele>
        <time>2013-04-14T11:06:23Z</time>
      </trkpt>
      <trkpt lat="59.8719587" lon="17.8151956">
        <ele>20.8057</ele>
        <time>2013-04-14T11:06:24Z</time>
      </trkpt>
      <trkpt lat="59.8719597" lon="17.8153314">
        <ele>20.8057</ele>
        <time>2013-04-14T11:06:25Z</time>
      </trkpt>
      <trkpt lat="59.8719635" lon="17.8154659">
        <ele>20.8057</ele>
        <time>2013-04-14T11:06:26Z</time>
      </trkpt>
      <trkpt lat="59.8719699" lon="17.8155997">
        <ele>21.2864</ele>
        <time>2013-04-14T11:06:27Z</time>
      </trkpt>
      <trkpt lat="59.8719778" lon="17.8157324">
        <ele>21.2864</ele>
        <time>2013-04-14T11:06:28Z</time>
      </trkpt>
      <trkpt lat="59.8719866" lon="17.8158638">
        <ele>21.2864</ele>
        <time>2013-04-14T11:06:29Z</time>
      </trkpt>
      <trkpt lat="59.871994" lon="17.8159944">
        <ele>21.767</ele>
        <time>2013-04-14T11:06:30Z</time>
      </trkpt>
      <trkpt lat="59.8720006" lon="17.8161229">
        <ele>21.767</ele>
        <time>2013-04-14T11:06:31Z</time>
      </trkpt>
      <trkpt lat="59.8720074" lon="17.8162487">
        <ele>22.2476</ele>
        <time>2013-04-14T11:06:32Z</time>
      </trkpt>
      <trkpt lat="59.8720121" lon="17.8163745">
        <ele>22.2476</ele>
        <time>2013-04-14T11:06:33Z</time>
      </trkpt>
      <trkpt lat="59.8720197" lon="17.8164989">
        <ele>22.7283</ele>
        <time>2013-04-14T11:06:34Z</time>
      </trkpt>
      <trkpt lat="59.8720288" lon="17.8166222">
        <ele>22.7283</ele>
        <time>2013-04-14T11:06:35Z</time>
      </trkpt>
      <trkpt lat="59.8720378" lon="17.8167465">
        <ele>22.7283</ele>
        <time>2013-04-14T11:06:36Z</time>
      </trkpt>
      <trkpt lat="59.8720461" lon="17.8168731">
        <ele>22.7283</ele>
        <time>2013-04-14T11:06:37Z</time>
      </trkpt>
      <trkpt lat="59.8720552" lon="17.8170019">
        <ele>22.7283</ele>
        <time>2013-04-14T11:06:38Z</time>
      </trkpt>
      <trkpt lat="59.8720654" lon="17.8171321">
        <ele>22.7283</ele>
        <time>2013-04-14T11:06:39Z</time>
      </trkpt>
      <trkpt lat="59.8720761" lon="17.8172631">
        <ele>22.7283</ele>
        <time>2013-04-14T11:06:40Z</time>
      </trkpt>
      <trkpt lat="59.8720872" lon="17.8173947">
        <ele>22.7283</ele>
        <time>2013-04-14T11:06:41Z</time>
      </trkpt>
      <trkpt lat="59.8720994" lon="17.8175272">
        <ele>22.7283</ele>
        <time>2013-04-14T11:06:42Z</time>
      </trkpt>
      <trkpt lat="59.8721132" lon="17.8176604">
        <ele>22.7283</ele>
        <time>2013-04-14T11:06:43Z</time>
      </trkpt>
      <trkpt lat="59.8721266" lon="17.8177961">
        <ele>22.7283</ele>
        <time>2013-04-14T11:06:44Z</time>
      </trkpt>
      <trkpt lat="59.8721393" lon="17.8179332">
        <ele>22.2476</ele>
        <time>2013-04-14T11:06:45Z</time>
      </trkpt>
      <trkpt lat="59.8721524" lon="17.8180723">
        <ele>22.2476</ele>
        <time>2013-04-14T11:06:46Z</time>
      </trkpt>
      <trkpt lat="59.8721675" lon="17.8182125">
        <ele>22.2476</ele>
        <time>2013-04-14T11:06:47Z</time>
      </trkpt>
      <trkpt lat="59.8721841" lon="17.8183539">
        <ele>22.2476</ele>
        <time>2013-04-14T11:06:48Z</time>
      </trkpt>
      <trkpt lat="59.8722006" lon="17.8184962">
        <ele>22.2476</ele>
        <time>2013-04-14T11:06:49Z</time>
      </trkpt>
      <trkpt lat="59.8722172" lon="17.8186389">
        <ele>21.767</ele>
        <time>2013-04-14T11:06:50Z</time>
      </trkpt>
      <trkpt lat="59.8722343" lon="17.8187824">
        <ele>21.767</ele>
        <time>2013-04-14T11:06:51Z</time>
      </trkpt>
      <trkpt lat="59.8722517" lon="17.8189264">
        <ele>21.767</ele>
        <time>2013-04-14T11:06:52Z</time>
      </trkpt>
      <trkpt lat="59.8722689" lon="17.819071">
        <ele>21.767</ele>
        <time>2013-04-14T11:06:53Z</time>
      </trkpt>
      <trkpt lat="59.8722864" lon="17.8192162">
        <ele>21.2864</ele>
        <time>2013-04-14T11:06:54Z</time>
      </trkpt>
      <trkpt lat="59.8723027" lon="17.8193615">
        <ele>21.2864</ele>
        <time>2013-04-14T11:06:55Z</time>
      </trkpt>
      <trkpt lat="59.8723173" lon="17.8195081">
        <ele>21.2864</ele>
        <time>2013-04-14T11:06:56Z</time>
      </trkpt>
      <trkpt lat="59.8723322" lon="17.8196557">
        <ele>21.2864</ele>
        <time>2013-04-14T11:06:57Z</time>
      </trkpt>
      <trkpt lat="59.8723482" lon="17.8198045">
        <ele>21.2864</ele>
        <time>2013-04-14T11:06:58Z</time>
      </trkpt>
      <trkpt lat="59.8723659" lon="17.819953">
        <ele>21.2864</ele>
        <time>2013-04-14T11:06:59Z</time>
      </trkpt>
      <trkpt lat="59.8723845" lon="17.8201003">
        <ele>21.2864</ele>
        <time>2013-04-14T11:07:00Z</time>
      </trkpt>
      <trkpt lat="59.8724028" lon="17.8202468">
        <ele>21.2864</ele>
        <time>2013-04-14T11:07:01Z</time>
      </trkpt>
      <trkpt lat="59.8724202" lon="17.8203928">
        <ele>21.2864</ele>
        <time>2013-04-14T11:07:02Z</time>
      </trkpt>
      <trkpt lat="59.8724377" lon="17.8205374">
        <ele>21.2864</ele>
        <time>2013-04-14T11:07:03Z</time>
      </trkpt>
      <trkpt lat="59.872454" lon="17.8206817">
        <ele>21.2864</ele>
        <time>2013-04-14T11:07:04Z</time>
      </trkpt>
      <trkpt lat="59.8724696" lon="17.820825">
        <ele>21.2864</ele>
        <time>2013-04-14T11:07:05Z</time>
      </trkpt>
      <trkpt lat="59.8724855" lon="17.8209663">
        <ele>21.767</ele>
        <time>2013-04-14T11:07:06Z</time>
      </trkpt>
      <trkpt lat="59.8725011" lon="17.8211051">
        <ele>21.767</ele>
        <time>2013-04-14T11:07:07Z</time>
      </trkpt>
      <trkpt lat="59.8725162" lon="17.8212414">
        <ele>21.767</ele>
        <time>2013-04-14T11:07:08Z</time>
      </trkpt>
      <trkpt lat="59.8725325" lon="17.8213753">
        <ele>22.2476</ele>
        <time>2013-04-14T11:07:09Z</time>
      </trkpt>
      <trkpt lat="59.872549" lon="17.8215084">
        <ele>22.7283</ele>
        <time>2013-04-14T11:07:10Z</time>
      </trkpt>
      <trkpt lat="59.8725637" lon="17.8216412">
        <ele>22.7283</ele>
        <time>2013-04-14T11:07:11Z</time>
      </trkpt>
      <trkpt lat="59.8725765" lon="17.8217742">
        <ele>23.209</ele>
        <time>2013-04-14T11:07:12Z</time>
      </trkpt>
      <trkpt lat="59.8725903" lon="17.8219066">
        <ele>23.209</ele>
        <time>2013-04-14T11:07:13Z</time>
      </trkpt>
      <trkpt lat="59.8726057" lon="17.8220394">
        <ele>23.6896</ele>
        <time>2013-04-14T11:07:14Z</time>
      </trkpt>
      <trkpt lat="59.8726205" lon="17.8221743">
        <ele>23.6896</ele>
        <time>2013-04-14T11:07:15Z</time>
      </trkpt>
      <trkpt lat="59.8726348" lon="17.822312">
        <ele>24.1703</ele>
        <time>2013-04-14T11:07:16Z</time>
      </trkpt>
      <trkpt lat="59.8726498" lon="17.8224514">
        <ele>24.651</ele>
        <time>2013-04-14T11:07:17Z</time>
      </trkpt>
      <trkpt lat="59.8726668" lon="17.8225918">
        <ele>24.651</ele>
        <time>2013-04-14T11:07:18Z</time>
      </trkpt>
      <trkpt lat="59.8726886" lon="17.8227305">
        <ele>25.1317</ele>
        <time>2013-04-14T11:07:19Z</time>
      </trkpt>
      <trkpt lat="59.8727165" lon="17.8228663">
        <ele>25.1317</ele>
        <time>2013-04-14T11:07:20Z</time>
      </trkpt>
      <trkpt lat="59.8727516" lon="17.8229954">
        <ele>25.6123</ele>
        <time>2013-04-14T11:07:21Z</time>
      </trkpt>
      <trkpt lat="59.872792" lon="17.8231181">
        <ele>25.6123</ele>
        <time>2013-04-14T11:07:22Z</time>
      </trkpt>
      <trkpt lat="59.8728326" lon="17.8232414">
        <ele>25.1317</ele>
        <time>2013-04-14T11:07:23Z</time>
      </trkpt>
      <trkpt lat="59.8728683" lon="17.8233704">
        <ele>25.1317</ele>
        <time>2013-04-14T11:07:24Z</time>
      </trkpt>
      <trkpt lat="59.8728971" lon="17.8235064">
        <ele>25.1317</ele>
        <time>2013-04-14T11:07:25Z</time>
      </trkpt>
      <trkpt lat="59.8729164" lon="17.8236488">
        <ele>25.1317</ele>
        <time>2013-04-14T11:07:26Z</time>
      </trkpt>
      <trkpt lat="59.8729236" lon="17.8237967">
        <ele>24.651</ele>
        <time>2013-04-14T11:07:27Z</time>
      </trkpt>
      <trkpt lat="59.8729212" lon="17.8239499">
        <ele>24.651</ele>
        <time>2013-04-14T11:07:28Z</time>
      </trkpt>
      <trkpt lat="59.8729128" lon="17.8241069">
        <ele>24.651</ele>
        <time>2013-04-14T11:07:29Z</time>
      </trkpt>
      <trkpt lat="59.8728984" lon="17.8242692">
        <ele>24.1703</ele>
        <time>2013-04-14T11:07:30Z</time>
      </trkpt>
      <trkpt lat="59.8728818" lon="17.8244364">
        <ele>24.1703</ele>
        <time>2013-04-14T11:07:31Z</time>
      </trkpt>
      <trkpt lat="59.8728626" lon="17.8246067">
        <ele>23.6896</ele>
        <time>2013-04-14T11:07:32Z</time>
      </trkpt>
      <trkpt lat="59.8728419" lon="17.8247789">
        <ele>23.6896</ele>
        <time>2013-04-14T11:07:33Z</time>
      </trkpt>
      <trkpt lat="59.8728197" lon="17.8249534">
        <ele>23.209</ele>
        <time>2013-04-14T11:07:34Z</time>
      </trkpt>
      <trkpt lat="59.8727944" lon="17.8251281">
        <ele>23.209</ele>
        <time>2013-04-14T11:07:35Z</time>
      </trkpt>
      <trkpt lat="59.8727668" lon="17.8253031">
        <ele>22.7283</ele>
        <time>2013-04-14T11:07:36Z</time>
      </trkpt>
      <trkpt lat="59.8727363" lon="17.8254749">
        <ele>22.7283</ele>
        <time>2013-04-14T11:07:37Z</time>
      </trkpt>
      <trkpt lat="59.8727029" lon="17.8256439">
        <ele>22.2476</ele>
        <time>2013-04-14T11:07:38Z</time>
      </trkpt>
      <trkpt lat="59.8726679" lon="17.8258093">
        <ele>21.767</ele>
        <time>2013-04-14T11:07:39Z</time>
      </trkpt>
      <trkpt lat="59.8726337" lon="17.8259718">
        <ele>21.767</ele>
        <time>2013-04-14T11:07:40Z</time>
      </trkpt>
      <trkpt lat="59.8726009" lon="17.8261315">
        <ele>21.2864</ele>
        <time>2013-04-14T11:07:41Z</time>
      </trkpt>
      <trkpt lat="59.8725692" lon="17.8262886">
        <ele>21.2864</ele>
        <time>2013-04-14T11:07:42Z</time>
      </trkpt>
      <trkpt lat="59.8725404" lon="17.8264446">
        <ele>20.8057</ele>
        <time>2013-04-14T11:07:43Z</time>
      </trkpt>
      <trkpt lat="59.8725138" lon="17.826603">
        <ele>20.325</ele>
        <time>2013-04-14T11:07:44Z</time>
      </trkpt>
      <trkpt lat="59.87249" lon="17.8267593">
        <ele>20.325</ele>
        <time>2013-04-14T11:07:45Z</time>
      </trkpt>
      <trkpt lat="59.872469" lon="17.8269141">
        <ele>20.325</ele>
        <time>2013-04-14T11:07:46Z</time>
      </trkpt>
      <trkpt lat="59.8724498" lon="17.8270699">
        <ele>19.8444</ele>
        <time>2013-04-14T11:07:47Z</time>
      </trkpt>
      <trkpt lat="59.8724301" lon="17.8272267">
        <ele>19.8444</ele>
        <time>2013-04-14T11:07:48Z</time>
      </trkpt>
      <trkpt lat="59.8724108" lon="17.8273855">
        <ele>19.3638</ele>
        <time>2013-04-14T11:07:49Z</time>
      </trkpt>
      <trkpt lat="59.8723932" lon="17.8275459">
        <ele>19.3638</ele>
        <time>2013-04-14T11:07:50Z</time>
      </trkpt>
      <trkpt lat="59.8723768" lon="17.8277077">
        <ele>18.8831</ele>
        <time>2013-04-14T11:07:51Z</time>
      </trkpt>
      <trkpt lat="59.8723598" lon="17.8278711">
        <ele>18.8831</ele>
        <time>2013-04-14T11:07:52Z</time>
      </trkpt>
      <trkpt lat="59.8723421" lon="17.8280365">
        <ele>18.8831</ele>
        <time>2013-04-14T11:07:53Z</time>
      </trkpt>
      <trkpt lat="59.8723239" lon="17.8282013">
        <ele>18.8831</ele>
        <time>2013-04-14T11:07:54Z</time>
      </trkpt>
      <trkpt lat="59.8723049" lon="17.8283646">
        <ele>18.8831</ele>
        <time>2013-04-14T11:07:55Z</time>
      </trkpt>
      <trkpt lat="59.8722857" lon="17.8285292">
        <ele>18.4023</ele>
        <time>2013-04-14T11:07:56Z</time>
      </trkpt>
      <trkpt lat="59.8722665" lon="17.8286945">
        <ele>18.4023</ele>
        <time>2013-04-14T11:07:57Z</time>
      </trkpt>
      <trkpt lat="59.8722472" lon="17.8288596">
        <ele>18.4023</ele>
        <time>2013-04-14T11:07:58Z</time>
      </trkpt>
      <trkpt lat="59.8722289" lon="17.8290227">
        <ele>17.9218</ele>
        <time>2013-04-14T11:07:59Z</time>
      </trkpt>
      <trkpt lat="59.8722114" lon="17.829183">
        <ele>17.9218</ele>
        <time>2013-04-14T11:08:00Z</time>
      </trkpt>
      <trkpt lat="59.8721933" lon="17.829342">
        <ele>17.9218</ele>
        <time>2013-04-14T11:08:01Z</time>
      </trkpt>
      <trkpt lat="59.8721523" lon="17.8296502">
        <ele>17.4412</ele>
        <time>2013-04-14T11:08:02Z</time>
      </trkpt>
      <trkpt lat="59.8721297" lon="17.8298004">
        <ele>17.4412</ele>
        <time>2013-04-14T11:08:03Z</time>
      </trkpt>
      <trkpt lat="59.8720997" lon="17.8299432">
        <ele>17.9218</ele>
        <time>2013-04-14T11:08:04Z</time>
      </trkpt>
      <trkpt lat="59.8720621" lon="17.8300751">
        <ele>17.9218</ele>
        <time>2013-04-14T11:08:05Z</time>
      </trkpt>
      <trkpt lat="59.8720193" lon="17.8301972">
        <ele>17.9218</ele>
        <time>2013-04-14T11:08:06Z</time>
      </trkpt>
      <trkpt lat="59.8719716" lon="17.8303112">
        <ele>17.9218</ele>
        <time>2013-04-14T11:08:07Z</time>
      </trkpt>
      <trkpt lat="59.8719169" lon="17.8304141">
        <ele>17.9218</ele>
        <time>2013-04-14T11:08:08Z</time>
      </trkpt>
      <trkpt lat="59.8718559" lon="17.8304997">
        <ele>17.4412</ele>
        <time>2013-04-14T11:08:09Z</time>
      </trkpt>
      <trkpt lat="59.8717899" lon="17.8305722">
        <ele>17.4412</ele>
        <time>2013-04-14T11:08:10Z</time>
      </trkpt>
      <trkpt lat="59.8717213" lon="17.830638">
        <ele>17.4412</ele>
        <time>2013-04-14T11:08:11Z</time>
      </trkpt>
      <trkpt lat="59.8716506" lon="17.830699">
        <ele>17.4412</ele>
        <time>2013-04-14T11:08:12Z</time>
      </trkpt>
      <trkpt lat="59.871578" lon="17.8307544">
        <ele>17.4412</ele>
        <time>2013-04-14T11:08:13Z</time>
      </trkpt>
      <trkpt lat="59.8715037" lon="17.8308082">
        <ele>16.9604</ele>
        <time>2013-04-14T11:08:14Z</time>
      </trkpt>
      <trkpt lat="59.8714287" lon="17.8308637">
        <ele>16.9604</ele>
        <time>2013-04-14T11:08:15Z</time>
      </trkpt>
      <trkpt lat="59.8713537" lon="17.830921">
        <ele>16.9604</ele>
        <time>2013-04-14T11:08:16Z</time>
      </trkpt>
      <trkpt lat="59.8712795" lon="17.8309789">
        <ele>16.4797</ele>
        <time>2013-04-14T11:08:17Z</time>
      </trkpt>
      <trkpt lat="59.871206" lon="17.8310348">
        <ele>16.4797</ele>
        <time>2013-04-14T11:08:18Z</time>
      </trkpt>
      <trkpt lat="59.8711341" lon="17.8310912">
        <ele>16.4797</ele>
        <time>2013-04-14T11:08:19Z</time>
      </trkpt>
      <trkpt lat="59.8710636" lon="17.8311494">
        <ele>16.4797</ele>
        <time>2013-04-14T11:08:20Z</time>
      </trkpt>
      <trkpt lat="59.8709932" lon="17.8312079">
        <ele>16.4797</ele>
        <time>2013-04-14T11:08:21Z</time>
      </trkpt>
      <trkpt lat="59.8709227" lon="17.8312677">
        <ele>16.4797</ele>
        <time>2013-04-14T11:08:22Z</time>
      </trkpt>
      <trkpt lat="59.8708523" lon="17.8313299">
        <ele>16.4797</ele>
        <time>2013-04-14T11:08:23Z</time>
      </trkpt>
      <trkpt lat="59.8707823" lon="17.8313965">
        <ele>16.4797</ele>
        <time>2013-04-14T11:08:24Z</time>
      </trkpt>
      <trkpt lat="59.8707123" lon="17.8314667">
        <ele>16.4797</ele>
        <time>2013-04-14T11:08:25Z</time>
      </trkpt>
      <trkpt lat="59.8706419" lon="17.8315399">
        <ele>16.4797</ele>
        <time>2013-04-14T11:08:26Z</time>
      </trkpt>
      <trkpt lat="59.8705719" lon="17.831616">
        <ele>16.4797</ele>
        <time>2013-04-14T11:08:27Z</time>
      </trkpt>
      <trkpt lat="59.870503" lon="17.831694">
        <ele>16.4797</ele>
        <time>2013-04-14T11:08:28Z</time>
      </trkpt>
      <trkpt lat="59.8704358" lon="17.8317739">
        <ele>16.4797</ele>
        <time>2013-04-14T11:08:29Z</time>
      </trkpt>
      <trkpt lat="59.8703715" lon="17.8318578">
        <ele>16.4797</ele>
        <time>2013-04-14T11:08:30Z</time>
      </trkpt>
      <trkpt lat="59.8703112" lon="17.8319481">
        <ele>16.4797</ele>
        <time>2013-04-14T11:08:31Z</time>
      </trkpt>
      <trkpt lat="59.8702548" lon="17.8320442">
        <ele>16.4797</ele>
        <time>2013-04-14T11:08:32Z</time>
      </trkpt>
      <trkpt lat="59.870201" lon="17.8321434">
        <ele>16.4797</ele>
        <time>2013-04-14T11:08:33Z</time>
      </trkpt>
      <trkpt lat="59.8701478" lon="17.832246">
        <ele>16.4797</ele>
        <time>2013-04-14T11:08:34Z</time>
      </trkpt>
      <trkpt lat="59.8700963" lon="17.8323535">
        <ele>15.999</ele>
        <time>2013-04-14T11:08:35Z</time>
      </trkpt>
      <trkpt lat="59.8700463" lon="17.8324651">
        <ele>15.999</ele>
        <time>2013-04-14T11:08:36Z</time>
      </trkpt>
      <trkpt lat="59.8699969" lon="17.8325817">
        <ele>15.999</ele>
        <time>2013-04-14T11:08:37Z</time>
      </trkpt>
      <trkpt lat="59.8699476" lon="17.8327039">
        <ele>15.5184</ele>
        <time>2013-04-14T11:08:38Z</time>
      </trkpt>
      <trkpt lat="59.8698968" lon="17.8328282">
        <ele>15.5184</ele>
        <time>2013-04-14T11:08:39Z</time>
      </trkpt>
      <trkpt lat="59.8698435" lon="17.8329524">
        <ele>15.5184</ele>
        <time>2013-04-14T11:08:40Z</time>
      </trkpt>
      <trkpt lat="59.8697891" lon="17.8330753">
        <ele>15.5184</ele>
        <time>2013-04-14T11:08:41Z</time>
      </trkpt>
      <trkpt lat="59.8697342" lon="17.8331956">
        <ele>15.5184</ele>
        <time>2013-04-14T11:08:42Z</time>
      </trkpt>
      <trkpt lat="59.8696796" lon="17.8333128">
        <ele>15.5184</ele>
        <time>2013-04-14T11:08:43Z</time>
      </trkpt>
      <trkpt lat="59.8696271" lon="17.8334242">
        <ele>15.5184</ele>
        <time>2013-04-14T11:08:44Z</time>
      </trkpt>
      <trkpt lat="59.8695758" lon="17.8335322">
        <ele>15.5184</ele>
        <time>2013-04-14T11:08:45Z</time>
      </trkpt>
      <trkpt lat="59.8695266" lon="17.8336376">
        <ele>15.5184</ele>
        <time>2013-04-14T11:08:46Z</time>
      </trkpt>
      <trkpt lat="59.86948" lon="17.8337405">
        <ele>15.5184</ele>
        <time>2013-04-14T11:08:47Z</time>
      </trkpt>
      <trkpt lat="59.869435" lon="17.8338404">
        <ele>15.5184</ele>
        <time>2013-04-14T11:08:48Z</time>
      </trkpt>
      <trkpt lat="59.8693892" lon="17.8339377">
        <ele>15.0377</ele>
        <time>2013-04-14T11:08:49Z</time>
      </trkpt>
      <trkpt lat="59.8693415" lon="17.8340352">
        <ele>15.0377</ele>
        <time>2013-04-14T11:08:50Z</time>
      </trkpt>
      <trkpt lat="59.8692923" lon="17.8341363">
        <ele>15.0377</ele>
        <time>2013-04-14T11:08:51Z</time>
      </trkpt>
      <trkpt lat="59.8692434" lon="17.8342434">
        <ele>15.0377</ele>
        <time>2013-04-14T11:08:52Z</time>
      </trkpt>
      <trkpt lat="59.8691972" lon="17.8343527">
        <ele>15.0377</ele>
        <time>2013-04-14T11:08:53Z</time>
      </trkpt>
      <trkpt lat="59.8691523" lon="17.8344609">
        <ele>15.0377</ele>
        <time>2013-04-14T11:08:54Z</time>
      </trkpt>
      <trkpt lat="59.8691084" lon="17.8345693">
        <ele>15.0377</ele>
        <time>2013-04-14T11:08:55Z</time>
      </trkpt>
      <trkpt lat="59.8690641" lon="17.8346807">
        <ele>15.0377</ele>
        <time>2013-04-14T11:08:56Z</time>
      </trkpt>
      <trkpt lat="59.8690183" lon="17.8347903">
        <ele>15.0377</ele>
        <time>2013-04-14T11:08:57Z</time>
      </trkpt>
      <trkpt lat="59.8689727" lon="17.8349013">
        <ele>15.5184</ele>
        <time>2013-04-14T11:08:58Z</time>
      </trkpt>
      <trkpt lat="59.868928" lon="17.8350135">
        <ele>15.5184</ele>
        <time>2013-04-14T11:08:59Z</time>
      </trkpt>
      <trkpt lat="59.8688833" lon="17.8351236">
        <ele>15.5184</ele>
        <time>2013-04-14T11:09:00Z</time>
      </trkpt>
      <trkpt lat="59.8688378" lon="17.8352303">
        <ele>15.5184</ele>
        <time>2013-04-14T11:09:01Z</time>
      </trkpt>
      <trkpt lat="59.8687927" lon="17.8353334">
        <ele>15.999</ele>
        <time>2013-04-14T11:09:02Z</time>
      </trkpt>
      <trkpt lat="59.8687492" lon="17.8354352">
        <ele>15.999</ele>
        <time>2013-04-14T11:09:03Z</time>
      </trkpt>
      <trkpt lat="59.8687075" lon="17.8355353">
        <ele>16.4797</ele>
        <time>2013-04-14T11:09:04Z</time>
      </trkpt>
      <trkpt lat="59.8686657" lon="17.8356332">
        <ele>16.9604</ele>
        <time>2013-04-14T11:09:05Z</time>
      </trkpt>
      <trkpt lat="59.8686243" lon="17.835728">
        <ele>16.9604</ele>
        <time>2013-04-14T11:09:06Z</time>
      </trkpt>
      <trkpt lat="59.868584" lon="17.8358205">
        <ele>17.4412</ele>
        <time>2013-04-14T11:09:07Z</time>
      </trkpt>
      <trkpt lat="59.8685441" lon="17.8359083">
        <ele>18.4023</ele>
        <time>2013-04-14T11:09:08Z</time>
      </trkpt>
      <trkpt lat="59.8685065" lon="17.8359918">
        <ele>18.8831</ele>
        <time>2013-04-14T11:09:09Z</time>
      </trkpt>
      <trkpt lat="59.868474" lon="17.8360715">
        <ele>19.3638</ele>
        <time>2013-04-14T11:09:10Z</time>
      </trkpt>
      <trkpt lat="59.8684435" lon="17.836152">
        <ele>19.8444</ele>
        <time>2013-04-14T11:09:11Z</time>
      </trkpt>
      <trkpt lat="59.8684122" lon="17.8362346">
        <ele>20.325</ele>
        <time>2013-04-14T11:09:12Z</time>
      </trkpt>
      <trkpt lat="59.8683834" lon="17.8363144">
        <ele>20.325</ele>
        <time>2013-04-14T11:09:13Z</time>
      </trkpt>
      <trkpt lat="59.868357" lon="17.8363926">
        <ele>20.325</ele>
        <time>2013-04-14T11:09:14Z</time>
      </trkpt>
      <trkpt lat="59.8683309" lon="17.8364765">
        <ele>19.8444</ele>
        <time>2013-04-14T11:09:15Z</time>
      </trkpt>
      <trkpt lat="59.8683056" lon="17.8365608">
        <ele>19.8444</ele>
        <time>2013-04-14T11:09:16Z</time>
      </trkpt>
      <trkpt lat="59.8682813" lon="17.8366445">
        <ele>19.8444</ele>
        <time>2013-04-14T11:09:17Z</time>
      </trkpt>
      <trkpt lat="59.8682551" lon="17.8367267">
        <ele>20.325</ele>
        <time>2013-04-14T11:09:18Z</time>
      </trkpt>
      <trkpt lat="59.8682291" lon="17.8368047">
        <ele>20.325</ele>
        <time>2013-04-14T11:09:19Z</time>
      </trkpt>
      <trkpt lat="59.868197" lon="17.8368805">
        <ele>20.325</ele>
        <time>2013-04-14T11:09:20Z</time>
      </trkpt>
      <trkpt lat="59.8681628" lon="17.8369541">
        <ele>20.325</ele>
        <time>2013-04-14T11:09:21Z</time>
      </trkpt>
      <trkpt lat="59.8681266" lon="17.8370267">
        <ele>20.325</ele>
        <time>2013-04-14T11:09:22Z</time>
      </trkpt>
      <trkpt lat="59.8680852" lon="17.8370913">
        <ele>20.325</ele>
        <time>2013-04-14T11:09:23Z</time>
      </trkpt>
      <trkpt lat="59.8680375" lon="17.8371446">
        <ele>20.325</ele>
        <time>2013-04-14T11:09:24Z</time>
      </trkpt>
      <trkpt lat="59.8679841" lon="17.8371917">
        <ele>20.325</ele>
        <time>2013-04-14T11:09:25Z</time>
      </trkpt>
      <trkpt lat="59.8679285" lon="17.8372363">
        <ele>20.325</ele>
        <time>2013-04-14T11:09:26Z</time>
      </trkpt>
      <trkpt lat="59.8678706" lon="17.8372797">
        <ele>20.325</ele>
        <time>2013-04-14T11:09:27Z</time>
      </trkpt>
      <trkpt lat="59.8678111" lon="17.8373207">
        <ele>20.325</ele>
        <time>2013-04-14T11:09:28Z</time>
      </trkpt>
      <trkpt lat="59.8677507" lon="17.8373564">
        <ele>20.8057</ele>
        <time>2013-04-14T11:09:29Z</time>
      </trkpt>
      <trkpt lat="59.8676891" lon="17.8373882">
        <ele>20.8057</ele>
        <time>2013-04-14T11:09:30Z</time>
      </trkpt>
      <trkpt lat="59.8676275" lon="17.8374193">
        <ele>20.8057</ele>
        <time>2013-04-14T11:09:31Z</time>
      </trkpt>
      <trkpt lat="59.8675655" lon="17.8374472">
        <ele>21.2864</ele>
        <time>2013-04-14T11:09:32Z</time>
      </trkpt>
      <trkpt lat="59.8675042" lon="17.8374737">
        <ele>21.2864</ele>
        <time>2013-04-14T11:09:33Z</time>
      </trkpt>
      <trkpt lat="59.8674427" lon="17.8375053">
        <ele>21.2864</ele>
        <time>2013-04-14T11:09:34Z</time>
      </trkpt>
      <trkpt lat="59.8673809" lon="17.8375453">
        <ele>21.2864</ele>
        <time>2013-04-14T11:09:35Z</time>
      </trkpt>
      <trkpt lat="59.8673195" lon="17.8375968">
        <ele>21.2864</ele>
        <time>2013-04-14T11:09:36Z</time>
      </trkpt>
      <trkpt lat="59.8672593" lon="17.8376659">
        <ele>21.2864</ele>
        <time>2013-04-14T11:09:37Z</time>
      </trkpt>
      <trkpt lat="59.8672013" lon="17.8377551">
        <ele>21.2864</ele>
        <time>2013-04-14T11:09:38Z</time>
      </trkpt>
      <trkpt lat="59.86715" lon="17.8378618">
        <ele>20.8057</ele>
        <time>2013-04-14T11:09:39Z</time>
      </trkpt>
      <trkpt lat="59.8671074" lon="17.8379834">
        <ele>20.8057</ele>
        <time>2013-04-14T11:09:40Z</time>
      </trkpt>
      <trkpt lat="59.8670702" lon="17.8381123">
        <ele>20.325</ele>
        <time>2013-04-14T11:09:41Z</time>
      </trkpt>
      <trkpt lat="59.8670365" lon="17.8382455">
        <ele>20.325</ele>
        <time>2013-04-14T11:09:42Z</time>
      </trkpt>
      <trkpt lat="59.8670055" lon="17.8383792">
        <ele>20.325</ele>
        <time>2013-04-14T11:09:43Z</time>
      </trkpt>
      <trkpt lat="59.8669748" lon="17.8385095">
        <ele>20.325</ele>
        <time>2013-04-14T11:09:44Z</time>
      </trkpt>
      <trkpt lat="59.866944" lon="17.8386387">
        <ele>20.325</ele>
        <time>2013-04-14T11:09:45Z</time>
      </trkpt>
      <trkpt lat="59.8669133" lon="17.8387698">
        <ele>19.8444</ele>
        <time>2013-04-14T11:09:46Z</time>
      </trkpt>
      <trkpt lat="59.8668765" lon="17.8389043">
        <ele>19.3638</ele>
        <time>2013-04-14T11:09:47Z</time>
      </trkpt>
      <trkpt lat="59.8668391" lon="17.8390329">
        <ele>18.8831</ele>
        <time>2013-04-14T11:09:48Z</time>
      </trkpt>
      <trkpt lat="59.8667946" lon="17.8391572">
        <ele>18.8831</ele>
        <time>2013-04-14T11:09:49Z</time>
      </trkpt>
      <trkpt lat="59.866744" lon="17.8392769">
        <ele>18.8831</ele>
        <time>2013-04-14T11:09:50Z</time>
      </trkpt>
      <trkpt lat="59.866689" lon="17.8393922">
        <ele>18.8831</ele>
        <time>2013-04-14T11:09:51Z</time>
      </trkpt>
      <trkpt lat="59.8666298" lon="17.8395043">
        <ele>18.4023</ele>
        <time>2013-04-14T11:09:52Z</time>
      </trkpt>
      <trkpt lat="59.8665647" lon="17.8396115">
        <ele>17.9218</ele>
        <time>2013-04-14T11:09:53Z</time>
      </trkpt>
      <trkpt lat="59.8664923" lon="17.8397058">
        <ele>17.9218</ele>
        <time>2013-04-14T11:09:54Z</time>
      </trkpt>
      <trkpt lat="59.8664124" lon="17.8397799">
        <ele>17.4412</ele>
        <time>2013-04-14T11:09:55Z</time>
      </trkpt>
      <trkpt lat="59.8663259" lon="17.8398343">
        <ele>16.9604</ele>
        <time>2013-04-14T11:09:56Z</time>
      </trkpt>
      <trkpt lat="59.8662353" lon="17.839872">
        <ele>16.9604</ele>
        <time>2013-04-14T11:09:57Z</time>
      </trkpt>
      <trkpt lat="59.866143" lon="17.839895">
        <ele>16.9604</ele>
        <time>2013-04-14T11:09:58Z</time>
      </trkpt>
      <trkpt lat="59.8660508" lon="17.8399083">
        <ele>16.9604</ele>
        <time>2013-04-14T11:09:59Z</time>
      </trkpt>
      <trkpt lat="59.8659613" lon="17.839918">
        <ele>16.9604</ele>
        <time>2013-04-14T11:10:00Z</time>
      </trkpt>
      <trkpt lat="59.8658752" lon="17.8399214">
        <ele>16.9604</ele>
        <time>2013-04-14T11:10:01Z</time>
      </trkpt>
      <trkpt lat="59.8657922" lon="17.8399177">
        <ele>16.9604</ele>
        <time>2013-04-14T11:10:02Z</time>
      </trkpt>
      <trkpt lat="59.8657125" lon="17.8399035">
        <ele>16.9604</ele>
        <time>2013-04-14T11:10:03Z</time>
      </trkpt>
      <trkpt lat="59.8656358" lon="17.8398833">
        <ele>16.9604</ele>
        <time>2013-04-14T11:10:04Z</time>
      </trkpt>
      <trkpt lat="59.8655618" lon="17.8398634">
        <ele>16.9604</ele>
        <time>2013-04-14T11:10:05Z</time>
      </trkpt>
      <trkpt lat="59.8654908" lon="17.8398436">
        <ele>16.9604</ele>
        <time>2013-04-14T11:10:06Z</time>
      </trkpt>
      <trkpt lat="59.8654219" lon="17.8398273">
        <ele>17.4412</ele>
        <time>2013-04-14T11:10:07Z</time>
      </trkpt>
      <trkpt lat="59.8653544" lon="17.8398203">
        <ele>17.4412</ele>
        <time>2013-04-14T11:10:08Z</time>
      </trkpt>
      <trkpt lat="59.8652891" lon="17.8398275">
        <ele>17.4412</ele>
        <time>2013-04-14T11:10:09Z</time>
      </trkpt>
      <trkpt lat="59.8652261" lon="17.8398475">
        <ele>17.4412</ele>
        <time>2013-04-14T11:10:10Z</time>
      </trkpt>
      <trkpt lat="59.8651651" lon="17.8398793">
        <ele>16.9604</ele>
        <time>2013-04-14T11:10:11Z</time>
      </trkpt>
      <trkpt lat="59.8651055" lon="17.8399223">
        <ele>16.9604</ele>
        <time>2013-04-14T11:10:12Z</time>
      </trkpt>
      <trkpt lat="59.8650478" lon="17.8399767">
        <ele>16.9604</ele>
        <time>2013-04-14T11:10:13Z</time>
      </trkpt>
      <trkpt lat="59.8649914" lon="17.8400414">
        <ele>16.9604</ele>
        <time>2013-04-14T11:10:14Z</time>
      </trkpt>
      <trkpt lat="59.864935" lon="17.840112">
        <ele>16.4797</ele>
        <time>2013-04-14T11:10:15Z</time>
      </trkpt>
      <trkpt lat="59.8648801" lon="17.8401892">
        <ele>16.4797</ele>
        <time>2013-04-14T11:10:16Z</time>
      </trkpt>
      <trkpt lat="59.8648271" lon="17.8402733">
        <ele>16.4797</ele>
        <time>2013-04-14T11:10:17Z</time>
      </trkpt>
      <trkpt lat="59.864776" lon="17.8403625">
        <ele>16.4797</ele>
        <time>2013-04-14T11:10:18Z</time>
      </trkpt>
      <trkpt lat="59.8647266" lon="17.8404548">
        <ele>16.4797</ele>
        <time>2013-04-14T11:10:19Z</time>
      </trkpt>
      <trkpt lat="59.8646791" lon="17.8405506">
        <ele>16.4797</ele>
        <time>2013-04-14T11:10:20Z</time>
      </trkpt>
      <trkpt lat="59.8646329" lon="17.8406465">
        <ele>16.9604</ele>
        <time>2013-04-14T11:10:21Z</time>
      </trkpt>
      <trkpt lat="59.8645881" lon="17.8407442">
        <ele>16.9604</ele>
        <time>2013-04-14T11:10:22Z</time>
      </trkpt>
      <trkpt lat="59.8645468" lon="17.8408454">
        <ele>16.9604</ele>
        <time>2013-04-14T11:10:23Z</time>
      </trkpt>
      <trkpt lat="59.8645071" lon="17.8409495">
        <ele>16.9604</ele>
        <time>2013-04-14T11:10:24Z</time>
      </trkpt>
      <trkpt lat="59.8644684" lon="17.841056">
        <ele>16.9604</ele>
        <time>2013-04-14T11:10:25Z</time>
      </trkpt>
      <trkpt lat="59.8644308" lon="17.8411645">
        <ele>16.9604</ele>
        <time>2013-04-14T11:10:26Z</time>
      </trkpt>
      <trkpt lat="59.8643947" lon="17.8412765">
        <ele>16.9604</ele>
        <time>2013-04-14T11:10:27Z</time>
      </trkpt>
      <trkpt lat="59.8643595" lon="17.841391">
        <ele>16.9604</ele>
        <time>2013-04-14T11:10:28Z</time>
      </trkpt>
      <trkpt lat="59.8643236" lon="17.8415068">
        <ele>16.9604</ele>
        <time>2013-04-14T11:10:29Z</time>
      </trkpt>
      <trkpt lat="59.8642878" lon="17.8416245">
        <ele>16.4797</ele>
        <time>2013-04-14T11:10:30Z</time>
      </trkpt>
      <trkpt lat="59.8642526" lon="17.8417472">
        <ele>16.4797</ele>
        <time>2013-04-14T11:10:31Z</time>
      </trkpt>
      <trkpt lat="59.8642181" lon="17.8418742">
        <ele>16.4797</ele>
        <time>2013-04-14T11:10:32Z</time>
      </trkpt>
      <trkpt lat="59.8641845" lon="17.8420026">
        <ele>16.4797</ele>
        <time>2013-04-14T11:10:33Z</time>
      </trkpt>
      <trkpt lat="59.8641508" lon="17.8421311">
        <ele>15.999</ele>
        <time>2013-04-14T11:10:34Z</time>
      </trkpt>
      <trkpt lat="59.864117" lon="17.8422602">
        <ele>15.999</ele>
        <time>2013-04-14T11:10:35Z</time>
      </trkpt>
      <trkpt lat="59.864084" lon="17.84239">
        <ele>15.999</ele>
        <time>2013-04-14T11:10:36Z</time>
      </trkpt>
      <trkpt lat="59.8640523" lon="17.8425211">
        <ele>15.999</ele>
        <time>2013-04-14T11:10:37Z</time>
      </trkpt>
      <trkpt lat="59.8640223" lon="17.8426537">
        <ele>15.999</ele>
        <time>2013-04-14T11:10:38Z</time>
      </trkpt>
      <trkpt lat="59.8639938" lon="17.8427872">
        <ele>15.999</ele>
        <time>2013-04-14T11:10:39Z</time>
      </trkpt>
      <trkpt lat="59.8639669" lon="17.8429216">
        <ele>15.999</ele>
        <time>2013-04-14T11:10:40Z</time>
      </trkpt>
      <trkpt lat="59.8639413" lon="17.8430564">
        <ele>15.999</ele>
        <time>2013-04-14T11:10:41Z</time>
      </trkpt>
      <trkpt lat="59.863917" lon="17.843192">
        <ele>15.999</ele>
        <time>2013-04-14T11:10:42Z</time>
      </trkpt>
      <trkpt lat="59.8638949" lon="17.8433278">
        <ele>15.999</ele>
        <time>2013-04-14T11:10:43Z</time>
      </trkpt>
      <trkpt lat="59.8638766" lon="17.8434634">
        <ele>15.999</ele>
        <time>2013-04-14T11:10:44Z</time>
      </trkpt>
      <trkpt lat="59.8638602" lon="17.843599">
        <ele>15.5184</ele>
        <time>2013-04-14T11:10:45Z</time>
      </trkpt>
      <trkpt lat="59.8638427" lon="17.8437339">
        <ele>15.5184</ele>
        <time>2013-04-14T11:10:46Z</time>
      </trkpt>
      <trkpt lat="59.8638244" lon="17.8438706">
        <ele>15.5184</ele>
        <time>2013-04-14T11:10:47Z</time>
      </trkpt>
      <trkpt lat="59.863803" lon="17.8440099">
        <ele>15.0377</ele>
        <time>2013-04-14T11:10:48Z</time>
      </trkpt>
      <trkpt lat="59.8637777" lon="17.8441487">
        <ele>14.557</ele>
        <time>2013-04-14T11:10:49Z</time>
      </trkpt>
      <trkpt lat="59.8637493" lon="17.8442896">
        <ele>14.0764</ele>
        <time>2013-04-14T11:10:50Z</time>
      </trkpt>
      <trkpt lat="59.8637203" lon="17.8444337">
        <ele>14.0764</ele>
        <time>2013-04-14T11:10:51Z</time>
      </trkpt>
      <trkpt lat="59.8636902" lon="17.8445828">
        <ele>13.5958</ele>
        <time>2013-04-14T11:10:52Z</time>
      </trkpt>
      <trkpt lat="59.8636605" lon="17.8447362">
        <ele>13.5958</ele>
        <time>2013-04-14T11:10:53Z</time>
      </trkpt>
      <trkpt lat="59.8636303" lon="17.8448926">
        <ele>13.5958</ele>
        <time>2013-04-14T11:10:54Z</time>
      </trkpt>
      <trkpt lat="59.8635992" lon="17.8450507">
        <ele>13.1151</ele>
        <time>2013-04-14T11:10:55Z</time>
      </trkpt>
      <trkpt lat="59.863569" lon="17.8452072">
        <ele>13.1151</ele>
        <time>2013-04-14T11:10:56Z</time>
      </trkpt>
      <trkpt lat="59.8635407" lon="17.8453605">
        <ele>12.6344</ele>
        <time>2013-04-14T11:10:57Z</time>
      </trkpt>
      <trkpt lat="59.8635134" lon="17.8455089">
        <ele>12.6344</ele>
        <time>2013-04-14T11:10:58Z</time>
      </trkpt>
      <trkpt lat="59.8634862" lon="17.8456525">
        <ele>12.6344</ele>
        <time>2013-04-14T11:10:59Z</time>
      </trkpt>
      <trkpt lat="59.8634608" lon="17.8457948">
        <ele>12.6344</ele>
        <time>2013-04-14T11:11:00Z</time>
      </trkpt>
      <trkpt lat="59.8634372" lon="17.8459369">
        <ele>12.6344</ele>
        <time>2013-04-14T11:11:01Z</time>
      </trkpt>
      <trkpt lat="59.8634147" lon="17.8460788">
        <ele>12.1538</ele>
        <time>2013-04-14T11:11:02Z</time>
      </trkpt>
      <trkpt lat="59.8633927" lon="17.8462206">
        <ele>12.1538</ele>
        <time>2013-04-14T11:11:03Z</time>
      </trkpt>
      <trkpt lat="59.8633692" lon="17.8463632">
        <ele>12.1538</ele>
        <time>2013-04-14T11:11:04Z</time>
      </trkpt>
      <trkpt lat="59.8633423" lon="17.8465048">
        <ele>12.1538</ele>
        <time>2013-04-14T11:11:05Z</time>
      </trkpt>
      <trkpt lat="59.8633117" lon="17.8466459">
        <ele>11.6732</ele>
        <time>2013-04-14T11:11:06Z</time>
      </trkpt>
      <trkpt lat="59.8632791" lon="17.8467866">
        <ele>11.6732</ele>
        <time>2013-04-14T11:11:07Z</time>
      </trkpt>
      <trkpt lat="59.8632469" lon="17.8469289">
        <ele>11.1925</ele>
        <time>2013-04-14T11:11:08Z</time>
      </trkpt>
      <trkpt lat="59.8632138" lon="17.8470714">
        <ele>11.1925</ele>
        <time>2013-04-14T11:11:09Z</time>
      </trkpt>
      <trkpt lat="59.8631778" lon="17.8472118">
        <ele>11.1925</ele>
        <time>2013-04-14T11:11:10Z</time>
      </trkpt>
      <trkpt lat="59.8631406" lon="17.8473535">
        <ele>10.7118</ele>
        <time>2013-04-14T11:11:11Z</time>
      </trkpt>
      <trkpt lat="59.8631037" lon="17.8474972">
        <ele>10.7118</ele>
        <time>2013-04-14T11:11:12Z</time>
      </trkpt>
      <trkpt lat="59.8630669" lon="17.8476417">
        <ele>10.7118</ele>
        <time>2013-04-14T11:11:13Z</time>
      </trkpt>
      <trkpt lat="59.8630311" lon="17.8477857">
        <ele>10.7118</ele>
        <time>2013-04-14T11:11:14Z</time>
      </trkpt>
      <trkpt lat="59.8629957" lon="17.8479264">
        <ele>10.2312</ele>
        <time>2013-04-14T11:11:15Z</time>
      </trkpt>
      <trkpt lat="59.8629605" lon="17.8480634">
        <ele>10.2312</ele>
        <time>2013-04-14T11:11:16Z</time>
      </trkpt>
      <trkpt lat="59.8629251" lon="17.8481986">
        <ele>10.2312</ele>
        <time>2013-04-14T11:11:17Z</time>
      </trkpt>
      <trkpt lat="59.8628895" lon="17.8483322">
        <ele>10.2312</ele>
        <time>2013-04-14T11:11:18Z</time>
      </trkpt>
      <trkpt lat="59.8628543" lon="17.8484648">
        <ele>10.2312</ele>
        <time>2013-04-14T11:11:19Z</time>
      </trkpt>
      <trkpt lat="59.8628194" lon="17.8485965">
        <ele>10.2312</ele>
        <time>2013-04-14T11:11:20Z</time>
      </trkpt>
      <trkpt lat="59.8627853" lon="17.8487298">
        <ele>10.2312</ele>
        <time>2013-04-14T11:11:21Z</time>
      </trkpt>
      <trkpt lat="59.8627524" lon="17.848864">
        <ele>9.75061</ele>
        <time>2013-04-14T11:11:22Z</time>
      </trkpt>
      <trkpt lat="59.8627199" lon="17.8489984">
        <ele>9.75061</ele>
        <time>2013-04-14T11:11:23Z</time>
      </trkpt>
      <trkpt lat="59.8626874" lon="17.8491316">
        <ele>9.75061</ele>
        <time>2013-04-14T11:11:24Z</time>
      </trkpt>
      <trkpt lat="59.8626553" lon="17.8492618">
        <ele>9.75061</ele>
        <time>2013-04-14T11:11:25Z</time>
      </trkpt>
      <trkpt lat="59.8626235" lon="17.8493889">
        <ele>9.2699</ele>
        <time>2013-04-14T11:11:26Z</time>
      </trkpt>
      <trkpt lat="59.8625927" lon="17.8495159">
        <ele>9.2699</ele>
        <time>2013-04-14T11:11:27Z</time>
      </trkpt>
      <trkpt lat="59.8625635" lon="17.8496446">
        <ele>9.2699</ele>
        <time>2013-04-14T11:11:28Z</time>
      </trkpt>
      <trkpt lat="59.8625346" lon="17.8497745">
        <ele>8.78918</ele>
        <time>2013-04-14T11:11:29Z</time>
      </trkpt>
      <trkpt lat="59.8625048" lon="17.8499037">
        <ele>8.78918</ele>
        <time>2013-04-14T11:11:30Z</time>
      </trkpt>
      <trkpt lat="59.862475" lon="17.8500348">
        <ele>8.78918</ele>
        <time>2013-04-14T11:11:31Z</time>
      </trkpt>
      <trkpt lat="59.8624424" lon="17.8501637">
        <ele>8.78918</ele>
        <time>2013-04-14T11:11:32Z</time>
      </trkpt>
      <trkpt lat="59.8624028" lon="17.8502854">
        <ele>8.30859</ele>
        <time>2013-04-14T11:11:33Z</time>
      </trkpt>
      <trkpt lat="59.8623542" lon="17.8503908">
        <ele>8.30859</ele>
        <time>2013-04-14T11:11:34Z</time>
      </trkpt>
      <trkpt lat="59.8622959" lon="17.8504717">
        <ele>8.30859</ele>
        <time>2013-04-14T11:11:35Z</time>
      </trkpt>
      <trkpt lat="59.8622314" lon="17.8505242">
        <ele>8.30859</ele>
        <time>2013-04-14T11:11:36Z</time>
      </trkpt>
      <trkpt lat="59.8621627" lon="17.8505483">
        <ele>8.30859</ele>
        <time>2013-04-14T11:11:37Z</time>
      </trkpt>
      <trkpt lat="59.8620926" lon="17.8505533">
        <ele>8.30859</ele>
        <time>2013-04-14T11:11:38Z</time>
      </trkpt>
      <trkpt lat="59.8620222" lon="17.850551">
        <ele>8.78918</ele>
        <time>2013-04-14T11:11:39Z</time>
      </trkpt>
      <trkpt lat="59.8619518" lon="17.8505475">
        <ele>8.78918</ele>
        <time>2013-04-14T11:11:40Z</time>
      </trkpt>
      <trkpt lat="59.8618817" lon="17.8505434">
        <ele>8.78918</ele>
        <time>2013-04-14T11:11:41Z</time>
      </trkpt>
      <trkpt lat="59.8618125" lon="17.8505405">
        <ele>8.78918</ele>
        <time>2013-04-14T11:11:42Z</time>
      </trkpt>
      <trkpt lat="59.8617447" lon="17.8505379">
        <ele>8.78918</ele>
        <time>2013-04-14T11:11:43Z</time>
      </trkpt>
      <trkpt lat="59.8616786" lon="17.8505296">
        <ele>8.78918</ele>
        <time>2013-04-14T11:11:44Z</time>
      </trkpt>
      <trkpt lat="59.8616126" lon="17.8505185">
        <ele>8.78918</ele>
        <time>2013-04-14T11:11:45Z</time>
      </trkpt>
      <trkpt lat="59.8615463" lon="17.8505054">
        <ele>8.78918</ele>
        <time>2013-04-14T11:11:46Z</time>
      </trkpt>
      <trkpt lat="59.8614795" lon="17.850494">
        <ele>8.78918</ele>
        <time>2013-04-14T11:11:47Z</time>
      </trkpt>
      <trkpt lat="59.8614125" lon="17.8504845">
        <ele>8.78918</ele>
        <time>2013-04-14T11:11:48Z</time>
      </trkpt>
      <trkpt lat="59.8613448" lon="17.8504721">
        <ele>8.30859</ele>
        <time>2013-04-14T11:11:49Z</time>
      </trkpt>
      <trkpt lat="59.8612769" lon="17.8504549">
        <ele>8.30859</ele>
        <time>2013-04-14T11:11:50Z</time>
      </trkpt>
      <trkpt lat="59.8612091" lon="17.8504364">
        <ele>8.30859</ele>
        <time>2013-04-14T11:11:51Z</time>
      </trkpt>
      <trkpt lat="59.8611412" lon="17.8504176">
        <ele>8.30859</ele>
        <time>2013-04-14T11:11:52Z</time>
      </trkpt>
      <trkpt lat="59.8610731" lon="17.850399">
        <ele>8.30859</ele>
        <time>2013-04-14T11:11:53Z</time>
      </trkpt>
      <trkpt lat="59.8610049" lon="17.8503834">
        <ele>8.30859</ele>
        <time>2013-04-14T11:11:54Z</time>
      </trkpt>
      <trkpt lat="59.8609375" lon="17.850368">
        <ele>8.30859</ele>
        <time>2013-04-14T11:11:55Z</time>
      </trkpt>
      <trkpt lat="59.8608707" lon="17.8503535">
        <ele>8.30859</ele>
        <time>2013-04-14T11:11:56Z</time>
      </trkpt>
      <trkpt lat="59.8608043" lon="17.8503406">
        <ele>8.30859</ele>
        <time>2013-04-14T11:11:57Z</time>
      </trkpt>
      <trkpt lat="59.8607384" lon="17.8503276">
        <ele>8.30859</ele>
        <time>2013-04-14T11:11:58Z</time>
      </trkpt>
      <trkpt lat="59.8606732" lon="17.8503136">
        <ele>8.30859</ele>
        <time>2013-04-14T11:11:59Z</time>
      </trkpt>
      <trkpt lat="59.8606084" lon="17.8502989">
        <ele>8.78918</ele>
        <time>2013-04-14T11:12:00Z</time>
      </trkpt>
      <trkpt lat="59.8605436" lon="17.8502859">
        <ele>8.78918</ele>
        <time>2013-04-14T11:12:01Z</time>
      </trkpt>
      <trkpt lat="59.8604787" lon="17.8502748">
        <ele>8.78918</ele>
        <time>2013-04-14T11:12:02Z</time>
      </trkpt>
      <trkpt lat="59.8604138" lon="17.8502655">
        <ele>8.78918</ele>
        <time>2013-04-14T11:12:03Z</time>
      </trkpt>
      <trkpt lat="59.8603487" lon="17.8502581">
        <ele>8.78918</ele>
        <time>2013-04-14T11:12:04Z</time>
      </trkpt>
      <trkpt lat="59.8602842" lon="17.850253">
        <ele>8.78918</ele>
        <time>2013-04-14T11:12:05Z</time>
      </trkpt>
      <trkpt lat="59.8602202" lon="17.8502494">
        <ele>8.78918</ele>
        <time>2013-04-14T11:12:06Z</time>
      </trkpt>
      <trkpt lat="59.860157" lon="17.8502471">
        <ele>8.78918</ele>
        <time>2013-04-14T11:12:07Z</time>
      </trkpt>
      <trkpt lat="59.8600942" lon="17.8502453">
        <ele>9.2699</ele>
        <time>2013-04-14T11:12:08Z</time>
      </trkpt>
      <trkpt lat="59.8600313" lon="17.8502451">
        <ele>9.2699</ele>
        <time>2013-04-14T11:12:09Z</time>
      </trkpt>
      <trkpt lat="59.8599682" lon="17.8502478">
        <ele>9.2699</ele>
        <time>2013-04-14T11:12:10Z</time>
      </trkpt>
      <trkpt lat="59.8599042" lon="17.8502524">
        <ele>9.2699</ele>
        <time>2013-04-14T11:12:11Z</time>
      </trkpt>
      <trkpt lat="59.8598394" lon="17.8502564">
        <ele>9.2699</ele>
        <time>2013-04-14T11:12:12Z</time>
      </trkpt>
      <trkpt lat="59.8597737" lon="17.8502614">
        <ele>9.75061</ele>
        <time>2013-04-14T11:12:13Z</time>
      </trkpt>
      <trkpt lat="59.8597081" lon="17.8502685">
        <ele>9.75061</ele>
        <time>2013-04-14T11:12:14Z</time>
      </trkpt>
      <trkpt lat="59.8596425" lon="17.850278">
        <ele>9.75061</ele>
        <time>2013-04-14T11:12:15Z</time>
      </trkpt>
      <trkpt lat="59.8595777" lon="17.8502903">
        <ele>9.75061</ele>
        <time>2013-04-14T11:12:16Z</time>
      </trkpt>
      <trkpt lat="59.8595133" lon="17.8503033">
        <ele>10.2312</ele>
        <time>2013-04-14T11:12:17Z</time>
      </trkpt>
      <trkpt lat="59.8594496" lon="17.8503165">
        <ele>10.2312</ele>
        <time>2013-04-14T11:12:18Z</time>
      </trkpt>
      <trkpt lat="59.8593866" lon="17.8503302">
        <ele>10.2312</ele>
        <time>2013-04-14T11:12:19Z</time>
      </trkpt>
      <trkpt lat="59.8593246" lon="17.8503415">
        <ele>10.2312</ele>
        <time>2013-04-14T11:12:20Z</time>
      </trkpt>
      <trkpt lat="59.8592634" lon="17.8503493">
        <ele>10.7118</ele>
        <time>2013-04-14T11:12:21Z</time>
      </trkpt>
      <trkpt lat="59.8592032" lon="17.8503592">
        <ele>10.7118</ele>
        <time>2013-04-14T11:12:22Z</time>
      </trkpt>
      <trkpt lat="59.8591436" lon="17.8503746">
        <ele>10.7118</ele>
        <time>2013-04-14T11:12:23Z</time>
      </trkpt>
      <trkpt lat="59.8590845" lon="17.8503913">
        <ele>10.7118</ele>
        <time>2013-04-14T11:12:24Z</time>
      </trkpt>
      <trkpt lat="59.8590256" lon="17.8504058">
        <ele>11.1925</ele>
        <time>2013-04-14T11:12:25Z</time>
      </trkpt>
      <trkpt lat="59.8589676" lon="17.8504203">
        <ele>11.1925</ele>
        <time>2013-04-14T11:12:26Z</time>
      </trkpt>
      <trkpt lat="59.8589101" lon="17.8504359">
        <ele>11.1925</ele>
        <time>2013-04-14T11:12:27Z</time>
      </trkpt>
      <trkpt lat="59.8588527" lon="17.8504512">
        <ele>11.1925</ele>
        <time>2013-04-14T11:12:28Z</time>
      </trkpt>
      <trkpt lat="59.8587955" lon="17.850466">
        <ele>11.1925</ele>
        <time>2013-04-14T11:12:29Z</time>
      </trkpt>
      <trkpt lat="59.8587376" lon="17.8504799">
        <ele>11.1925</ele>
        <time>2013-04-14T11:12:30Z</time>
      </trkpt>
      <trkpt lat="59.858679" lon="17.8504942">
        <ele>11.1925</ele>
        <time>2013-04-14T11:12:31Z</time>
      </trkpt>
      <trkpt lat="59.8586209" lon="17.8505124">
        <ele>11.1925</ele>
        <time>2013-04-14T11:12:32Z</time>
      </trkpt>
      <trkpt lat="59.858564" lon="17.8505332">
        <ele>11.1925</ele>
        <time>2013-04-14T11:12:33Z</time>
      </trkpt>
      <trkpt lat="59.8585075" lon="17.850555">
        <ele>11.1925</ele>
        <time>2013-04-14T11:12:34Z</time>
      </trkpt>
      <trkpt lat="59.8584509" lon="17.8505794">
        <ele>11.1925</ele>
        <time>2013-04-14T11:12:35Z</time>
      </trkpt>
      <trkpt lat="59.8583939" lon="17.8506068">
        <ele>10.7118</ele>
        <time>2013-04-14T11:12:36Z</time>
      </trkpt>
      <trkpt lat="59.8583365" lon="17.850637">
        <ele>10.7118</ele>
        <time>2013-04-14T11:12:37Z</time>
      </trkpt>
      <trkpt lat="59.8582789" lon="17.8506708">
        <ele>10.7118</ele>
        <time>2013-04-14T11:12:38Z</time>
      </trkpt>
      <trkpt lat="59.8582211" lon="17.8507094">
        <ele>10.7118</ele>
        <time>2013-04-14T11:12:39Z</time>
      </trkpt>
      <trkpt lat="59.8581629" lon="17.8507518">
        <ele>10.2312</ele>
        <time>2013-04-14T11:12:40Z</time>
      </trkpt>
      <trkpt lat="59.8581034" lon="17.8507948">
        <ele>10.2312</ele>
        <time>2013-04-14T11:12:41Z</time>
      </trkpt>
      <trkpt lat="59.8580434" lon="17.8508412">
        <ele>10.2312</ele>
        <time>2013-04-14T11:12:42Z</time>
      </trkpt>
      <trkpt lat="59.8579833" lon="17.8508923">
        <ele>10.2312</ele>
        <time>2013-04-14T11:12:43Z</time>
      </trkpt>
      <trkpt lat="59.8579227" lon="17.85095">
        <ele>10.2312</ele>
        <time>2013-04-14T11:12:44Z</time>
      </trkpt>
      <trkpt lat="59.8578611" lon="17.8510114">
        <ele>10.2312</ele>
        <time>2013-04-14T11:12:45Z</time>
      </trkpt>
      <trkpt lat="59.8577974" lon="17.85107">
        <ele>10.2312</ele>
        <time>2013-04-14T11:12:46Z</time>
      </trkpt>
      <trkpt lat="59.8577326" lon="17.8511263">
        <ele>10.7118</ele>
        <time>2013-04-14T11:12:47Z</time>
      </trkpt>
      <trkpt lat="59.8576687" lon="17.8511838">
        <ele>10.7118</ele>
        <time>2013-04-14T11:12:48Z</time>
      </trkpt>
      <trkpt lat="59.8576062" lon="17.8512428">
        <ele>10.7118</ele>
        <time>2013-04-14T11:12:49Z</time>
      </trkpt>
      <trkpt lat="59.8575446" lon="17.8512983">
        <ele>11.1925</ele>
        <time>2013-04-14T11:12:50Z</time>
      </trkpt>
      <trkpt lat="59.8574832" lon="17.8513489">
        <ele>11.1925</ele>
        <time>2013-04-14T11:12:51Z</time>
      </trkpt>
      <trkpt lat="59.8574224" lon="17.8513994">
        <ele>11.1925</ele>
        <time>2013-04-14T11:12:52Z</time>
      </trkpt>
      <trkpt lat="59.8573622" lon="17.8514504">
        <ele>11.1925</ele>
        <time>2013-04-14T11:12:53Z</time>
      </trkpt>
      <trkpt lat="59.857302" lon="17.8515024">
        <ele>11.6732</ele>
        <time>2013-04-14T11:12:54Z</time>
      </trkpt>
      <trkpt lat="59.8572421" lon="17.8515572">
        <ele>11.6732</ele>
        <time>2013-04-14T11:12:55Z</time>
      </trkpt>
      <trkpt lat="59.857183" lon="17.8516117">
        <ele>11.6732</ele>
        <time>2013-04-14T11:12:56Z</time>
      </trkpt>
      <trkpt lat="59.8571248" lon="17.8516638">
        <ele>12.1538</ele>
        <time>2013-04-14T11:12:57Z</time>
      </trkpt>
      <trkpt lat="59.8570671" lon="17.8517129">
        <ele>12.1538</ele>
        <time>2013-04-14T11:12:58Z</time>
      </trkpt>
      <trkpt lat="59.8570113" lon="17.8517639">
        <ele>12.6344</ele>
        <time>2013-04-14T11:12:59Z</time>
      </trkpt>
      <trkpt lat="59.8569571" lon="17.8518195">
        <ele>12.6344</ele>
        <time>2013-04-14T11:13:00Z</time>
      </trkpt>
      <trkpt lat="59.8569042" lon="17.851877">
        <ele>13.1151</ele>
        <time>2013-04-14T11:13:01Z</time>
      </trkpt>
      <trkpt lat="59.8568533" lon="17.8519361">
        <ele>13.1151</ele>
        <time>2013-04-14T11:13:02Z</time>
      </trkpt>
      <trkpt lat="59.8568049" lon="17.8520013">
        <ele>13.1151</ele>
        <time>2013-04-14T11:13:03Z</time>
      </trkpt>
      <trkpt lat="59.8567614" lon="17.8520743">
        <ele>13.5958</ele>
        <time>2013-04-14T11:13:04Z</time>
      </trkpt>
      <trkpt lat="59.856724" lon="17.8521536">
        <ele>13.5958</ele>
        <time>2013-04-14T11:13:05Z</time>
      </trkpt>
      <trkpt lat="59.8566909" lon="17.8522359">
        <ele>13.5958</ele>
        <time>2013-04-14T11:13:06Z</time>
      </trkpt>
      <trkpt lat="59.8566609" lon="17.8523193">
        <ele>14.0764</ele>
        <time>2013-04-14T11:13:07Z</time>
      </trkpt>
      <trkpt lat="59.8566343" lon="17.8524056">
        <ele>14.0764</ele>
        <time>2013-04-14T11:13:08Z</time>
      </trkpt>
      <trkpt lat="59.8566111" lon="17.8524937">
        <ele>14.557</ele>
        <time>2013-04-14T11:13:09Z</time>
      </trkpt>
      <trkpt lat="59.8565926" lon="17.8525835">
        <ele>14.557</ele>
        <time>2013-04-14T11:13:10Z</time>
      </trkpt>
      <trkpt lat="59.856577" lon="17.8526742">
        <ele>14.557</ele>
        <time>2013-04-14T11:13:11Z</time>
      </trkpt>
      <trkpt lat="59.8565629" lon="17.8527665">
        <ele>15.0377</ele>
        <time>2013-04-14T11:13:12Z</time>
      </trkpt>
      <trkpt lat="59.8565513" lon="17.8528584">
        <ele>15.0377</ele>
        <time>2013-04-14T11:13:13Z</time>
      </trkpt>
      <trkpt lat="59.8565407" lon="17.8529493">
        <ele>15.0377</ele>
        <time>2013-04-14T11:13:14Z</time>
      </trkpt>
      <trkpt lat="59.8565311" lon="17.8530412">
        <ele>15.5184</ele>
        <time>2013-04-14T11:13:15Z</time>
      </trkpt>
      <trkpt lat="59.8565203" lon="17.8531325">
        <ele>15.5184</ele>
        <time>2013-04-14T11:13:16Z</time>
      </trkpt>
      <trkpt lat="59.8565079" lon="17.8532243">
        <ele>15.5184</ele>
        <time>2013-04-14T11:13:17Z</time>
      </trkpt>
      <trkpt lat="59.8564951" lon="17.853317">
        <ele>15.0377</ele>
        <time>2013-04-14T11:13:18Z</time>
      </trkpt>
      <trkpt lat="59.8564805" lon="17.8534091">
        <ele>15.0377</ele>
        <time>2013-04-14T11:13:19Z</time>
      </trkpt>
      <trkpt lat="59.8564591" lon="17.8534973">
        <ele>15.0377</ele>
        <time>2013-04-14T11:13:20Z</time>
      </trkpt>
      <trkpt lat="59.8564267" lon="17.8535745">
        <ele>14.557</ele>
        <time>2013-04-14T11:13:21Z</time>
      </trkpt>
      <trkpt lat="59.8563816" lon="17.8536292">
        <ele>14.557</ele>
        <time>2013-04-14T11:13:22Z</time>
      </trkpt>
      <trkpt lat="59.8563287" lon="17.8536594">
        <ele>14.557</ele>
        <time>2013-04-14T11:13:23Z</time>
      </trkpt>
      <trkpt lat="59.8562716" lon="17.8536698">
        <ele>14.0764</ele>
        <time>2013-04-14T11:13:24Z</time>
      </trkpt>
      <trkpt lat="59.8562124" lon="17.853667">
        <ele>14.0764</ele>
        <time>2013-04-14T11:13:25Z</time>
      </trkpt>
      <trkpt lat="59.8561536" lon="17.8536603">
        <ele>13.5958</ele>
        <time>2013-04-14T11:13:26Z</time>
      </trkpt>
      <trkpt lat="59.8560951" lon="17.8536513">
        <ele>13.1151</ele>
        <time>2013-04-14T11:13:27Z</time>
      </trkpt>
      <trkpt lat="59.8560371" lon="17.8536427">
        <ele>12.6344</ele>
        <time>2013-04-14T11:13:28Z</time>
      </trkpt>
      <trkpt lat="59.8559797" lon="17.8536366">
        <ele>12.6344</ele>
        <time>2013-04-14T11:13:29Z</time>
      </trkpt>
      <trkpt lat="59.8559235" lon="17.8536351">
        <ele>12.1538</ele>
        <time>2013-04-14T11:13:30Z</time>
      </trkpt>
      <trkpt lat="59.8558678" lon="17.8536369">
        <ele>12.1538</ele>
        <time>2013-04-14T11:13:31Z</time>
      </trkpt>
      <trkpt lat="59.8558123" lon="17.8536361">
        <ele>11.6732</ele>
        <time>2013-04-14T11:13:32Z</time>
      </trkpt>
      <trkpt lat="59.8557568" lon="17.8536299">
        <ele>11.6732</ele>
        <time>2013-04-14T11:13:33Z</time>
      </trkpt>
      <trkpt lat="59.8557015" lon="17.8536261">
        <ele>11.1925</ele>
        <time>2013-04-14T11:13:34Z</time>
      </trkpt>
      <trkpt lat="59.8556462" lon="17.8536279">
        <ele>11.1925</ele>
        <time>2013-04-14T11:13:35Z</time>
      </trkpt>
      <trkpt lat="59.8555918" lon="17.8536391">
        <ele>10.7118</ele>
        <time>2013-04-14T11:13:36Z</time>
      </trkpt>
      <trkpt lat="59.8555403" lon="17.8536658">
        <ele>10.7118</ele>
        <time>2013-04-14T11:13:37Z</time>
      </trkpt>
      <trkpt lat="59.8554939" lon="17.8537128">
        <ele>10.7118</ele>
        <time>2013-04-14T11:13:38Z</time>
      </trkpt>
      <trkpt lat="59.8554553" lon="17.8537826">
        <ele>10.7118</ele>
        <time>2013-04-14T11:13:39Z</time>
      </trkpt>
      <trkpt lat="59.8554254" lon="17.8538703">
        <ele>10.7118</ele>
        <time>2013-04-14T11:13:40Z</time>
      </trkpt>
      <trkpt lat="59.8554032" lon="17.8539712">
        <ele>10.2312</ele>
        <time>2013-04-14T11:13:41Z</time>
      </trkpt>
      <trkpt lat="59.8553865" lon="17.85408">
        <ele>10.2312</ele>
        <time>2013-04-14T11:13:42Z</time>
      </trkpt>
      <trkpt lat="59.8553747" lon="17.8541948">
        <ele>10.2312</ele>
        <time>2013-04-14T11:13:43Z</time>
      </trkpt>
      <trkpt lat="59.8553673" lon="17.8543137">
        <ele>10.2312</ele>
        <time>2013-04-14T11:13:44Z</time>
      </trkpt>
      <trkpt lat="59.8553613" lon="17.8544353">
        <ele>10.2312</ele>
        <time>2013-04-14T11:13:45Z</time>
      </trkpt>
      <trkpt lat="59.8553549" lon="17.8545592">
        <ele>9.75061</ele>
        <time>2013-04-14T11:13:46Z</time>
      </trkpt>
      <trkpt lat="59.8553477" lon="17.8546856">
        <ele>9.75061</ele>
        <time>2013-04-14T11:13:47Z</time>
      </trkpt>
      <trkpt lat="59.8553402" lon="17.854813">
        <ele>9.75061</ele>
        <time>2013-04-14T11:13:48Z</time>
      </trkpt>
      <trkpt lat="59.8553332" lon="17.854943">
        <ele>9.2699</ele>
        <time>2013-04-14T11:13:49Z</time>
      </trkpt>
      <trkpt lat="59.8553248" lon="17.8550752">
        <ele>9.2699</ele>
        <time>2013-04-14T11:13:50Z</time>
      </trkpt>
      <trkpt lat="59.8553161" lon="17.8552109">
        <ele>9.2699</ele>
        <time>2013-04-14T11:13:51Z</time>
      </trkpt>
      <trkpt lat="59.8553078" lon="17.8553492">
        <ele>8.78918</ele>
        <time>2013-04-14T11:13:52Z</time>
      </trkpt>
      <trkpt lat="59.855299" lon="17.8554896">
        <ele>8.78918</ele>
        <time>2013-04-14T11:13:53Z</time>
      </trkpt>
      <trkpt lat="59.8552892" lon="17.8556332">
        <ele>8.78918</ele>
        <time>2013-04-14T11:13:54Z</time>
      </trkpt>
      <trkpt lat="59.8552793" lon="17.8557794">
        <ele>8.30859</ele>
        <time>2013-04-14T11:13:55Z</time>
      </trkpt>
      <trkpt lat="59.8552695" lon="17.8559237">
        <ele>8.30859</ele>
        <time>2013-04-14T11:13:56Z</time>
      </trkpt>
      <trkpt lat="59.8552591" lon="17.8560666">
        <ele>8.30859</ele>
        <time>2013-04-14T11:13:57Z</time>
      </trkpt>
      <trkpt lat="59.855248" lon="17.8562097">
        <ele>8.30859</ele>
        <time>2013-04-14T11:13:58Z</time>
      </trkpt>
      <trkpt lat="59.8552364" lon="17.8563535">
        <ele>8.30859</ele>
        <time>2013-04-14T11:13:59Z</time>
      </trkpt>
      <trkpt lat="59.8552254" lon="17.8564969">
        <ele>8.30859</ele>
        <time>2013-04-14T11:14:00Z</time>
      </trkpt>
      <trkpt lat="59.8552141" lon="17.8566422">
        <ele>8.30859</ele>
        <time>2013-04-14T11:14:01Z</time>
      </trkpt>
      <trkpt lat="59.8552032" lon="17.8567892">
        <ele>8.30859</ele>
        <time>2013-04-14T11:14:02Z</time>
      </trkpt>
      <trkpt lat="59.8551918" lon="17.8569339">
        <ele>8.30859</ele>
        <time>2013-04-14T11:14:03Z</time>
      </trkpt>
      <trkpt lat="59.8551788" lon="17.857076">
        <ele>8.78918</ele>
        <time>2013-04-14T11:14:04Z</time>
      </trkpt>
      <trkpt lat="59.8551663" lon="17.8572155">
        <ele>8.78918</ele>
        <time>2013-04-14T11:14:05Z</time>
      </trkpt>
      <trkpt lat="59.8551533" lon="17.8573513">
        <ele>8.78918</ele>
        <time>2013-04-14T11:14:06Z</time>
      </trkpt>
      <trkpt lat="59.8551389" lon="17.857485">
        <ele>9.2699</ele>
        <time>2013-04-14T11:14:07Z</time>
      </trkpt>
      <trkpt lat="59.855123" lon="17.8576186">
        <ele>9.2699</ele>
        <time>2013-04-14T11:14:08Z</time>
      </trkpt>
      <trkpt lat="59.8551083" lon="17.8577523">
        <ele>9.2699</ele>
        <time>2013-04-14T11:14:09Z</time>
      </trkpt>
      <trkpt lat="59.855094" lon="17.857887">
        <ele>9.2699</ele>
        <time>2013-04-14T11:14:10Z</time>
      </trkpt>
      <trkpt lat="59.8550805" lon="17.858024">
        <ele>9.75061</ele>
        <time>2013-04-14T11:14:11Z</time>
      </trkpt>
      <trkpt lat="59.8550681" lon="17.8581609">
        <ele>9.75061</ele>
        <time>2013-04-14T11:14:12Z</time>
      </trkpt>
      <trkpt lat="59.8550562" lon="17.8582956">
        <ele>9.75061</ele>
        <time>2013-04-14T11:14:13Z</time>
      </trkpt>
      <trkpt lat="59.8550441" lon="17.8584277">
        <ele>10.2312</ele>
        <time>2013-04-14T11:14:14Z</time>
      </trkpt>
      <trkpt lat="59.8550322" lon="17.8585582">
        <ele>10.2312</ele>
        <time>2013-04-14T11:14:15Z</time>
      </trkpt>
      <trkpt lat="59.8550213" lon="17.8586893">
        <ele>10.7118</ele>
        <time>2013-04-14T11:14:16Z</time>
      </trkpt>
      <trkpt lat="59.85501" lon="17.8588209">
        <ele>10.7118</ele>
        <time>2013-04-14T11:14:17Z</time>
      </trkpt>
      <trkpt lat="59.8549986" lon="17.8589519">
        <ele>10.7118</ele>
        <time>2013-04-14T11:14:18Z</time>
      </trkpt>
      <trkpt lat="59.8549882" lon="17.8590821">
        <ele>11.1925</ele>
        <time>2013-04-14T11:14:19Z</time>
      </trkpt>
      <trkpt lat="59.8549779" lon="17.85921">
        <ele>11.1925</ele>
        <time>2013-04-14T11:14:20Z</time>
      </trkpt>
      <trkpt lat="59.8549643" lon="17.8593348">
        <ele>11.1925</ele>
        <time>2013-04-14T11:14:21Z</time>
      </trkpt>
      <trkpt lat="59.8549368" lon="17.8594442">
        <ele>11.1925</ele>
        <time>2013-04-14T11:14:22Z</time>
      </trkpt>
      <trkpt lat="59.8548937" lon="17.8595257">
        <ele>11.1925</ele>
        <time>2013-04-14T11:14:23Z</time>
      </trkpt>
      <trkpt lat="59.8548421" lon="17.8595729">
        <ele>11.6732</ele>
        <time>2013-04-14T11:14:24Z</time>
      </trkpt>
      <trkpt lat="59.8547877" lon="17.8595927">
        <ele>11.6732</ele>
        <time>2013-04-14T11:14:25Z</time>
      </trkpt>
      <trkpt lat="59.854735" lon="17.8595952">
        <ele>12.1538</ele>
        <time>2013-04-14T11:14:26Z</time>
      </trkpt>
      <trkpt lat="59.8546866" lon="17.8595843">
        <ele>12.6344</ele>
        <time>2013-04-14T11:14:27Z</time>
      </trkpt>
      <trkpt lat="59.8546396" lon="17.8595688">
        <ele>13.1151</ele>
        <time>2013-04-14T11:14:28Z</time>
      </trkpt>
      <trkpt lat="59.854596" lon="17.8595497">
        <ele>13.1151</ele>
        <time>2013-04-14T11:14:29Z</time>
      </trkpt>
      <trkpt lat="59.8545542" lon="17.8595305">
        <ele>13.5958</ele>
        <time>2013-04-14T11:14:30Z</time>
      </trkpt>
      <trkpt lat="59.8545147" lon="17.8595107">
        <ele>14.0764</ele>
        <time>2013-04-14T11:14:31Z</time>
      </trkpt>
      <trkpt lat="59.8544778" lon="17.8594881">
        <ele>14.0764</ele>
        <time>2013-04-14T11:14:32Z</time>
      </trkpt>
      <trkpt lat="59.8544427" lon="17.8594657">
        <ele>14.557</ele>
        <time>2013-04-14T11:14:33Z</time>
      </trkpt>
      <trkpt lat="59.854409" lon="17.8594428">
        <ele>14.557</ele>
        <time>2013-04-14T11:14:34Z</time>
      </trkpt>
      <trkpt lat="59.8543753" lon="17.8594244">
        <ele>14.557</ele>
        <time>2013-04-14T11:14:35Z</time>
      </trkpt>
      <trkpt lat="59.8543421" lon="17.8594078">
        <ele>15.0377</ele>
        <time>2013-04-14T11:14:36Z</time>
      </trkpt>
      <trkpt lat="59.8543095" lon="17.8593825">
        <ele>15.0377</ele>
        <time>2013-04-14T11:14:37Z</time>
      </trkpt>
      <trkpt lat="59.8542763" lon="17.8593475">
        <ele>14.557</ele>
        <time>2013-04-14T11:14:38Z</time>
      </trkpt>
      <trkpt lat="59.8542387" lon="17.8593045">
        <ele>14.557</ele>
        <time>2013-04-14T11:14:39Z</time>
      </trkpt>
      <trkpt lat="59.8541977" lon="17.8592579">
        <ele>14.557</ele>
        <time>2013-04-14T11:14:40Z</time>
      </trkpt>
      <trkpt lat="59.854154" lon="17.8592092">
        <ele>14.557</ele>
        <time>2013-04-14T11:14:41Z</time>
      </trkpt>
      <trkpt lat="59.8541085" lon="17.8591532">
        <ele>14.0764</ele>
        <time>2013-04-14T11:14:42Z</time>
      </trkpt>
      <trkpt lat="59.8540597" lon="17.8590917">
        <ele>14.0764</ele>
        <time>2013-04-14T11:14:43Z</time>
      </trkpt>
      <trkpt lat="59.8540092" lon="17.8590268">
        <ele>13.5958</ele>
        <time>2013-04-14T11:14:44Z</time>
      </trkpt>
      <trkpt lat="59.853959" lon="17.8589586">
        <ele>13.1151</ele>
        <time>2013-04-14T11:14:45Z</time>
      </trkpt>
      <trkpt lat="59.8539074" lon="17.8588885">
        <ele>12.6344</ele>
        <time>2013-04-14T11:14:46Z</time>
      </trkpt>
      <trkpt lat="59.8538527" lon="17.8588199">
        <ele>12.6344</ele>
        <time>2013-04-14T11:14:47Z</time>
      </trkpt>
      <trkpt lat="59.8537956" lon="17.8587551">
        <ele>12.6344</ele>
        <time>2013-04-14T11:14:48Z</time>
      </trkpt>
      <trkpt lat="59.8537376" lon="17.8586893">
        <ele>12.6344</ele>
        <time>2013-04-14T11:14:49Z</time>
      </trkpt>
      <trkpt lat="59.8536796" lon="17.8586205">
        <ele>12.6344</ele>
        <time>2013-04-14T11:14:50Z</time>
      </trkpt>
      <trkpt lat="59.8536208" lon="17.8585518">
        <ele>12.6344</ele>
        <time>2013-04-14T11:14:51Z</time>
      </trkpt>
      <trkpt lat="59.8535616" lon="17.8584852">
        <ele>12.6344</ele>
        <time>2013-04-14T11:14:52Z</time>
      </trkpt>
      <trkpt lat="59.8535031" lon="17.8584204">
        <ele>12.6344</ele>
        <time>2013-04-14T11:14:53Z</time>
      </trkpt>
      <trkpt lat="59.8534465" lon="17.8583555">
        <ele>12.6344</ele>
        <time>2013-04-14T11:14:54Z</time>
      </trkpt>
      <trkpt lat="59.8533913" lon="17.8582899">
        <ele>12.6344</ele>
        <time>2013-04-14T11:14:55Z</time>
      </trkpt>
      <trkpt lat="59.8533366" lon="17.858225">
        <ele>12.6344</ele>
        <time>2013-04-14T11:14:56Z</time>
      </trkpt>
      <trkpt lat="59.8532818" lon="17.858161">
        <ele>12.6344</ele>
        <time>2013-04-14T11:14:57Z</time>
      </trkpt>
      <trkpt lat="59.8532293" lon="17.8580992">
        <ele>13.1151</ele>
        <time>2013-04-14T11:14:58Z</time>
      </trkpt>
      <trkpt lat="59.8531778" lon="17.8580402">
        <ele>13.1151</ele>
        <time>2013-04-14T11:14:59Z</time>
      </trkpt>
      <trkpt lat="59.853127" lon="17.8579821">
        <ele>13.1151</ele>
        <time>2013-04-14T11:15:00Z</time>
      </trkpt>
      <trkpt lat="59.8530769" lon="17.857925">
        <ele>13.1151</ele>
        <time>2013-04-14T11:15:01Z</time>
      </trkpt>
      <trkpt lat="59.853026" lon="17.8578714">
        <ele>12.6344</ele>
        <time>2013-04-14T11:15:02Z</time>
      </trkpt>
      <trkpt lat="59.8529727" lon="17.8578222">
        <ele>12.6344</ele>
        <time>2013-04-14T11:15:03Z</time>
      </trkpt>
      <trkpt lat="59.852917" lon="17.8577769">
        <ele>12.6344</ele>
        <time>2013-04-14T11:15:04Z</time>
      </trkpt>
      <trkpt lat="59.8528593" lon="17.8577363">
        <ele>12.1538</ele>
        <time>2013-04-14T11:15:05Z</time>
      </trkpt>
      <trkpt lat="59.8528006" lon="17.8576982">
        <ele>12.1538</ele>
        <time>2013-04-14T11:15:06Z</time>
      </trkpt>
      <trkpt lat="59.8527406" lon="17.8576588">
        <ele>11.6732</ele>
        <time>2013-04-14T11:15:07Z</time>
      </trkpt>
      <trkpt lat="59.8526785" lon="17.8576213">
        <ele>11.6732</ele>
        <time>2013-04-14T11:15:08Z</time>
      </trkpt>
      <trkpt lat="59.8526146" lon="17.8575901">
        <ele>11.1925</ele>
        <time>2013-04-14T11:15:09Z</time>
      </trkpt>
      <trkpt lat="59.8525495" lon="17.8575652">
        <ele>11.1925</ele>
        <time>2013-04-14T11:15:10Z</time>
      </trkpt>
      <trkpt lat="59.8524848" lon="17.8575476">
        <ele>11.1925</ele>
        <time>2013-04-14T11:15:11Z</time>
      </trkpt>
      <trkpt lat="59.8524205" lon="17.8575352">
        <ele>11.1925</ele>
        <time>2013-04-14T11:15:12Z</time>
      </trkpt>
      <trkpt lat="59.8523567" lon="17.8575272">
        <ele>11.1925</ele>
        <time>2013-04-14T11:15:13Z</time>
      </trkpt>
      <trkpt lat="59.8522923" lon="17.8575264">
        <ele>11.1925</ele>
        <time>2013-04-14T11:15:14Z</time>
      </trkpt>
      <trkpt lat="59.8522268" lon="17.8575374">
        <ele>11.1925</ele>
        <time>2013-04-14T11:15:15Z</time>
      </trkpt>
      <trkpt lat="59.8521618" lon="17.8575536">
        <ele>11.1925</ele>
        <time>2013-04-14T11:15:16Z</time>
      </trkpt>
      <trkpt lat="59.8520977" lon="17.8575719">
        <ele>11.1925</ele>
        <time>2013-04-14T11:15:17Z</time>
      </trkpt>
      <trkpt lat="59.8520339" lon="17.8575927">
        <ele>11.1925</ele>
        <time>2013-04-14T11:15:18Z</time>
      </trkpt>
      <trkpt lat="59.8519685" lon="17.8576243">
        <ele>11.1925</ele>
        <time>2013-04-14T11:15:19Z</time>
      </trkpt>
      <trkpt lat="59.8519086" lon="17.857651">
        <ele>11.1925</ele>
        <time>2013-04-14T11:15:20Z</time>
      </trkpt>
      <trkpt lat="59.8518485" lon="17.8576775">
        <ele>10.7118</ele>
        <time>2013-04-14T11:15:21Z</time>
      </trkpt>
      <trkpt lat="59.8517908" lon="17.8577015">
        <ele>10.7118</ele>
        <time>2013-04-14T11:15:22Z</time>
      </trkpt>
      <trkpt lat="59.8517333" lon="17.8577242">
        <ele>10.7118</ele>
        <time>2013-04-14T11:15:23Z</time>
      </trkpt>
      <trkpt lat="59.8516766" lon="17.8577541">
        <ele>10.7118</ele>
        <time>2013-04-14T11:15:24Z</time>
      </trkpt>
      <trkpt lat="59.8516195" lon="17.8577833">
        <ele>10.7118</ele>
        <time>2013-04-14T11:15:25Z</time>
      </trkpt>
      <trkpt lat="59.8515624" lon="17.8578071">
        <ele>10.7118</ele>
        <time>2013-04-14T11:15:26Z</time>
      </trkpt>
      <trkpt lat="59.8515056" lon="17.8578292">
        <ele>10.7118</ele>
        <time>2013-04-14T11:15:27Z</time>
      </trkpt>
      <trkpt lat="59.8514491" lon="17.8578512">
        <ele>10.7118</ele>
        <time>2013-04-14T11:15:28Z</time>
      </trkpt>
      <trkpt lat="59.8513928" lon="17.8578725">
        <ele>11.1925</ele>
        <time>2013-04-14T11:15:29Z</time>
      </trkpt>
      <trkpt lat="59.8513368" lon="17.8578929">
        <ele>11.1925</ele>
        <time>2013-04-14T11:15:30Z</time>
      </trkpt>
      <trkpt lat="59.8512809" lon="17.8579137">
        <ele>11.1925</ele>
        <time>2013-04-14T11:15:31Z</time>
      </trkpt>
      <trkpt lat="59.8512254" lon="17.857937">
        <ele>11.6732</ele>
        <time>2013-04-14T11:15:32Z</time>
      </trkpt>
      <trkpt lat="59.8511703" lon="17.857961">
        <ele>11.6732</ele>
        <time>2013-04-14T11:15:33Z</time>
      </trkpt>
      <trkpt lat="59.8511156" lon="17.8579849">
        <ele>12.1538</ele>
        <time>2013-04-14T11:15:34Z</time>
      </trkpt>
      <trkpt lat="59.8510617" lon="17.8580086">
        <ele>12.1538</ele>
        <time>2013-04-14T11:15:35Z</time>
      </trkpt>
      <trkpt lat="59.8510078" lon="17.8580315">
        <ele>12.1538</ele>
        <time>2013-04-14T11:15:36Z</time>
      </trkpt>
      <trkpt lat="59.8509539" lon="17.8580549">
        <ele>12.6344</ele>
        <time>2013-04-14T11:15:37Z</time>
      </trkpt>
      <trkpt lat="59.8508997" lon="17.8580784">
        <ele>12.6344</ele>
        <time>2013-04-14T11:15:38Z</time>
      </trkpt>
      <trkpt lat="59.8508447" lon="17.8580999">
        <ele>12.6344</ele>
        <time>2013-04-14T11:15:39Z</time>
      </trkpt>
      <trkpt lat="59.8507891" lon="17.8581224">
        <ele>12.6344</ele>
        <time>2013-04-14T11:15:40Z</time>
      </trkpt>
      <trkpt lat="59.8507337" lon="17.8581484">
        <ele>12.6344</ele>
        <time>2013-04-14T11:15:41Z</time>
      </trkpt>
      <trkpt lat="59.8506779" lon="17.8581744">
        <ele>13.1151</ele>
        <time>2013-04-14T11:15:42Z</time>
      </trkpt>
      <trkpt lat="59.8506219" lon="17.8582025">
        <ele>13.1151</ele>
        <time>2013-04-14T11:15:43Z</time>
      </trkpt>
      <trkpt lat="59.8505655" lon="17.8582364">
        <ele>13.1151</ele>
        <time>2013-04-14T11:15:44Z</time>
      </trkpt>
      <trkpt lat="59.8505093" lon="17.8582742">
        <ele>13.1151</ele>
        <time>2013-04-14T11:15:45Z</time>
      </trkpt>
      <trkpt lat="59.8504526" lon="17.8583146">
        <ele>13.1151</ele>
        <time>2013-04-14T11:15:46Z</time>
      </trkpt>
      <trkpt lat="59.850394" lon="17.8583552">
        <ele>13.1151</ele>
        <time>2013-04-14T11:15:47Z</time>
      </trkpt>
      <trkpt lat="59.850333" lon="17.8583975">
        <ele>13.1151</ele>
        <time>2013-04-14T11:15:48Z</time>
      </trkpt>
      <trkpt lat="59.8502707" lon="17.8584428">
        <ele>13.1151</ele>
        <time>2013-04-14T11:15:49Z</time>
      </trkpt>
      <trkpt lat="59.8502075" lon="17.8584909">
        <ele>12.6344</ele>
        <time>2013-04-14T11:15:50Z</time>
      </trkpt>
      <trkpt lat="59.8501448" lon="17.8585395">
        <ele>12.6344</ele>
        <time>2013-04-14T11:15:51Z</time>
      </trkpt>
      <trkpt lat="59.8500837" lon="17.8585873">
        <ele>12.6344</ele>
        <time>2013-04-14T11:15:52Z</time>
      </trkpt>
      <trkpt lat="59.8500245" lon="17.8586352">
        <ele>12.6344</ele>
        <time>2013-04-14T11:15:53Z</time>
      </trkpt>
      <trkpt lat="59.8499661" lon="17.8586824">
        <ele>12.1538</ele>
        <time>2013-04-14T11:15:54Z</time>
      </trkpt>
      <trkpt lat="59.8499081" lon="17.8587282">
        <ele>12.1538</ele>
        <time>2013-04-14T11:15:55Z</time>
      </trkpt>
      <trkpt lat="59.8498501" lon="17.8587725">
        <ele>12.1538</ele>
        <time>2013-04-14T11:15:56Z</time>
      </trkpt>
      <trkpt lat="59.8497925" lon="17.8588167">
        <ele>12.1538</ele>
        <time>2013-04-14T11:15:57Z</time>
      </trkpt>
      <trkpt lat="59.8497356" lon="17.8588604">
        <ele>12.1538</ele>
        <time>2013-04-14T11:15:58Z</time>
      </trkpt>
      <trkpt lat="59.8496789" lon="17.8589036">
        <ele>12.1538</ele>
        <time>2013-04-14T11:15:59Z</time>
      </trkpt>
      <trkpt lat="59.8496216" lon="17.8589445">
        <ele>12.1538</ele>
        <time>2013-04-14T11:16:00Z</time>
      </trkpt>
      <trkpt lat="59.8495644" lon="17.8589841">
        <ele>12.1538</ele>
        <time>2013-04-14T11:16:01Z</time>
      </trkpt>
      <trkpt lat="59.8495076" lon="17.8590251">
        <ele>12.1538</ele>
        <time>2013-04-14T11:16:02Z</time>
      </trkpt>
      <trkpt lat="59.8494505" lon="17.8590641">
        <ele>12.6344</ele>
        <time>2013-04-14T11:16:03Z</time>
      </trkpt>
      <trkpt lat="59.8493921" lon="17.859098">
        <ele>12.6344</ele>
        <time>2013-04-14T11:16:04Z</time>
      </trkpt>
      <trkpt lat="59.8493344" lon="17.8591273">
        <ele>12.1538</ele>
        <time>2013-04-14T11:16:05Z</time>
      </trkpt>
      <trkpt lat="59.849276" lon="17.8591529">
        <ele>11.6732</ele>
        <time>2013-04-14T11:16:06Z</time>
      </trkpt>
      <trkpt lat="59.8492165" lon="17.8591779">
        <ele>11.6732</ele>
        <time>2013-04-14T11:16:07Z</time>
      </trkpt>
      <trkpt lat="59.8491559" lon="17.8592054">
        <ele>11.1925</ele>
        <time>2013-04-14T11:16:08Z</time>
      </trkpt>
      <trkpt lat="59.8490953" lon="17.8592374">
        <ele>11.1925</ele>
        <time>2013-04-14T11:16:09Z</time>
      </trkpt>
      <trkpt lat="59.8490347" lon="17.8592722">
        <ele>11.1925</ele>
        <time>2013-04-14T11:16:10Z</time>
      </trkpt>
      <trkpt lat="59.8489736" lon="17.8593056">
        <ele>10.7118</ele>
        <time>2013-04-14T11:16:11Z</time>
      </trkpt>
      <trkpt lat="59.8489118" lon="17.8593366">
        <ele>10.7118</ele>
        <time>2013-04-14T11:16:12Z</time>
      </trkpt>
      <trkpt lat="59.8488502" lon="17.8593685">
        <ele>10.7118</ele>
        <time>2013-04-14T11:16:13Z</time>
      </trkpt>
      <trkpt lat="59.8487892" lon="17.8594012">
        <ele>10.7118</ele>
        <time>2013-04-14T11:16:14Z</time>
      </trkpt>
      <trkpt lat="59.8487286" lon="17.8594312">
        <ele>10.7118</ele>
        <time>2013-04-14T11:16:15Z</time>
      </trkpt>
      <trkpt lat="59.8486686" lon="17.8594584">
        <ele>10.7118</ele>
        <time>2013-04-14T11:16:16Z</time>
      </trkpt>
      <trkpt lat="59.8486084" lon="17.8594856">
        <ele>10.7118</ele>
        <time>2013-04-14T11:16:17Z</time>
      </trkpt>
      <trkpt lat="59.8485476" lon="17.8595165">
        <ele>10.7118</ele>
        <time>2013-04-14T11:16:18Z</time>
      </trkpt>
      <trkpt lat="59.848486" lon="17.859548">
        <ele>10.7118</ele>
        <time>2013-04-14T11:16:19Z</time>
      </trkpt>
      <trkpt lat="59.8484235" lon="17.859577">
        <ele>10.7118</ele>
        <time>2013-04-14T11:16:20Z</time>
      </trkpt>
      <trkpt lat="59.8483603" lon="17.8596047">
        <ele>10.7118</ele>
        <time>2013-04-14T11:16:21Z</time>
      </trkpt>
      <trkpt lat="59.8482969" lon="17.8596336">
        <ele>10.7118</ele>
        <time>2013-04-14T11:16:22Z</time>
      </trkpt>
      <trkpt lat="59.8482334" lon="17.8596637">
        <ele>10.7118</ele>
        <time>2013-04-14T11:16:23Z</time>
      </trkpt>
      <trkpt lat="59.8481695" lon="17.8596953">
        <ele>10.7118</ele>
        <time>2013-04-14T11:16:24Z</time>
      </trkpt>
      <trkpt lat="59.8481053" lon="17.8597256">
        <ele>10.7118</ele>
        <time>2013-04-14T11:16:25Z</time>
      </trkpt>
      <trkpt lat="59.848042" lon="17.8597567">
        <ele>10.7118</ele>
        <time>2013-04-14T11:16:26Z</time>
      </trkpt>
      <trkpt lat="59.8479805" lon="17.8597936">
        <ele>10.7118</ele>
        <time>2013-04-14T11:16:27Z</time>
      </trkpt>
      <trkpt lat="59.8479189" lon="17.8598295">
        <ele>10.7118</ele>
        <time>2013-04-14T11:16:28Z</time>
      </trkpt>
      <trkpt lat="59.8478568" lon="17.8598586">
        <ele>10.7118</ele>
        <time>2013-04-14T11:16:29Z</time>
      </trkpt>
      <trkpt lat="59.8477951" lon="17.8598849">
        <ele>10.7118</ele>
        <time>2013-04-14T11:16:30Z</time>
      </trkpt>
      <trkpt lat="59.8477344" lon="17.8599127">
        <ele>10.7118</ele>
        <time>2013-04-14T11:16:31Z</time>
      </trkpt>
      <trkpt lat="59.8476739" lon="17.8599404">
        <ele>10.7118</ele>
        <time>2013-04-14T11:16:32Z</time>
      </trkpt>
      <trkpt lat="59.8476132" lon="17.8599665">
        <ele>10.7118</ele>
        <time>2013-04-14T11:16:33Z</time>
      </trkpt>
      <trkpt lat="59.8475522" lon="17.859993">
        <ele>10.7118</ele>
        <time>2013-04-14T11:16:34Z</time>
      </trkpt>
      <trkpt lat="59.8474915" lon="17.8600196">
        <ele>10.7118</ele>
        <time>2013-04-14T11:16:35Z</time>
      </trkpt>
      <trkpt lat="59.8474305" lon="17.8600448">
        <ele>10.7118</ele>
        <time>2013-04-14T11:16:36Z</time>
      </trkpt>
      <trkpt lat="59.8473698" lon="17.8600719">
        <ele>10.7118</ele>
        <time>2013-04-14T11:16:37Z</time>
      </trkpt>
      <trkpt lat="59.8473097" lon="17.8601014">
        <ele>10.7118</ele>
        <time>2013-04-14T11:16:38Z</time>
      </trkpt>
      <trkpt lat="59.8472498" lon="17.8601297">
        <ele>10.7118</ele>
        <time>2013-04-14T11:16:39Z</time>
      </trkpt>
      <trkpt lat="59.8471905" lon="17.8601562">
        <ele>11.1925</ele>
        <time>2013-04-14T11:16:40Z</time>
      </trkpt>
      <trkpt lat="59.8471324" lon="17.8601838">
        <ele>11.1925</ele>
        <time>2013-04-14T11:16:41Z</time>
      </trkpt>
      <trkpt lat="59.8470739" lon="17.8602108">
        <ele>11.6732</ele>
        <time>2013-04-14T11:16:42Z</time>
      </trkpt>
      <trkpt lat="59.8470155" lon="17.860237">
        <ele>11.6732</ele>
        <time>2013-04-14T11:16:43Z</time>
      </trkpt>
      <trkpt lat="59.846957" lon="17.8602626">
        <ele>12.1538</ele>
        <time>2013-04-14T11:16:44Z</time>
      </trkpt>
      <trkpt lat="59.8468984" lon="17.8602879">
        <ele>12.1538</ele>
        <time>2013-04-14T11:16:45Z</time>
      </trkpt>
      <trkpt lat="59.8468398" lon="17.8603134">
        <ele>12.6344</ele>
        <time>2013-04-14T11:16:46Z</time>
      </trkpt>
      <trkpt lat="59.8467809" lon="17.8603392">
        <ele>12.6344</ele>
        <time>2013-04-14T11:16:47Z</time>
      </trkpt>
      <trkpt lat="59.8467228" lon="17.8603646">
        <ele>13.1151</ele>
        <time>2013-04-14T11:16:48Z</time>
      </trkpt>
      <trkpt lat="59.8466649" lon="17.8603903">
        <ele>13.5958</ele>
        <time>2013-04-14T11:16:49Z</time>
      </trkpt>
      <trkpt lat="59.8466071" lon="17.8604142">
        <ele>13.5958</ele>
        <time>2013-04-14T11:16:50Z</time>
      </trkpt>
      <trkpt lat="59.8465489" lon="17.8604391">
        <ele>14.0764</ele>
        <time>2013-04-14T11:16:51Z</time>
      </trkpt>
      <trkpt lat="59.8464907" lon="17.860467">
        <ele>14.0764</ele>
        <time>2013-04-14T11:16:52Z</time>
      </trkpt>
      <trkpt lat="59.8464318" lon="17.8604962">
        <ele>14.557</ele>
        <time>2013-04-14T11:16:53Z</time>
      </trkpt>
      <trkpt lat="59.8463722" lon="17.8605247">
        <ele>15.0377</ele>
        <time>2013-04-14T11:16:54Z</time>
      </trkpt>
      <trkpt lat="59.8463121" lon="17.8605519">
        <ele>15.0377</ele>
        <time>2013-04-14T11:16:55Z</time>
      </trkpt>
      <trkpt lat="59.8462525" lon="17.8605786">
        <ele>15.5184</ele>
        <time>2013-04-14T11:16:56Z</time>
      </trkpt>
      <trkpt lat="59.8461939" lon="17.8606059">
        <ele>15.999</ele>
        <time>2013-04-14T11:16:57Z</time>
      </trkpt>
      <trkpt lat="59.8461363" lon="17.8606317">
        <ele>15.999</ele>
        <time>2013-04-14T11:16:58Z</time>
      </trkpt>
      <trkpt lat="59.846079" lon="17.8606553">
        <ele>16.4797</ele>
        <time>2013-04-14T11:16:59Z</time>
      </trkpt>
      <trkpt lat="59.8460219" lon="17.8606793">
        <ele>16.4797</ele>
        <time>2013-04-14T11:17:00Z</time>
      </trkpt>
      <trkpt lat="59.8459649" lon="17.8607053">
        <ele>16.9604</ele>
        <time>2013-04-14T11:17:01Z</time>
      </trkpt>
      <trkpt lat="59.8459078" lon="17.8607314">
        <ele>16.9604</ele>
        <time>2013-04-14T11:17:02Z</time>
      </trkpt>
      <trkpt lat="59.8458514" lon="17.8607581">
        <ele>17.4412</ele>
        <time>2013-04-14T11:17:03Z</time>
      </trkpt>
      <trkpt lat="59.8457957" lon="17.860784">
        <ele>17.4412</ele>
        <time>2013-04-14T11:17:04Z</time>
      </trkpt>
      <trkpt lat="59.8457412" lon="17.860808">
        <ele>17.4412</ele>
        <time>2013-04-14T11:17:05Z</time>
      </trkpt>
      <trkpt lat="59.8456873" lon="17.8608316">
        <ele>17.9218</ele>
        <time>2013-04-14T11:17:06Z</time>
      </trkpt>
      <trkpt lat="59.8456339" lon="17.8608554">
        <ele>17.9218</ele>
        <time>2013-04-14T11:17:07Z</time>
      </trkpt>
      <trkpt lat="59.8455806" lon="17.8608804">
        <ele>17.9218</ele>
        <time>2013-04-14T11:17:08Z</time>
      </trkpt>
      <trkpt lat="59.8455273" lon="17.8609065">
        <ele>18.4023</ele>
        <time>2013-04-14T11:17:09Z</time>
      </trkpt>
      <trkpt lat="59.8454744" lon="17.8609339">
        <ele>18.4023</ele>
        <time>2013-04-14T11:17:10Z</time>
      </trkpt>
      <trkpt lat="59.8454211" lon="17.8609588">
        <ele>18.4023</ele>
        <time>2013-04-14T11:17:11Z</time>
      </trkpt>
      <trkpt lat="59.8453673" lon="17.8609832">
        <ele>18.4023</ele>
        <time>2013-04-14T11:17:12Z</time>
      </trkpt>
      <trkpt lat="59.8453133" lon="17.861009">
        <ele>18.4023</ele>
        <time>2013-04-14T11:17:13Z</time>
      </trkpt>
      <trkpt lat="59.8452583" lon="17.8610344">
        <ele>18.4023</ele>
        <time>2013-04-14T11:17:14Z</time>
      </trkpt>
      <trkpt lat="59.8452025" lon="17.8610613">
        <ele>18.4023</ele>
        <time>2013-04-14T11:17:15Z</time>
      </trkpt>
      <trkpt lat="59.8451459" lon="17.8610893">
        <ele>17.9218</ele>
        <time>2013-04-14T11:17:16Z</time>
      </trkpt>
      <trkpt lat="59.8450894" lon="17.8611152">
        <ele>17.9218</ele>
        <time>2013-04-14T11:17:17Z</time>
      </trkpt>
      <trkpt lat="59.845033" lon="17.8611398">
        <ele>17.9218</ele>
        <time>2013-04-14T11:17:18Z</time>
      </trkpt>
      <trkpt lat="59.8449771" lon="17.8611648">
        <ele>17.9218</ele>
        <time>2013-04-14T11:17:19Z</time>
      </trkpt>
      <trkpt lat="59.8449212" lon="17.8611887">
        <ele>17.9218</ele>
        <time>2013-04-14T11:17:20Z</time>
      </trkpt>
      <trkpt lat="59.8448647" lon="17.8612131">
        <ele>17.4412</ele>
        <time>2013-04-14T11:17:21Z</time>
      </trkpt>
      <trkpt lat="59.8448072" lon="17.8612399">
        <ele>17.4412</ele>
        <time>2013-04-14T11:17:22Z</time>
      </trkpt>
      <trkpt lat="59.8447497" lon="17.8612675">
        <ele>17.4412</ele>
        <time>2013-04-14T11:17:23Z</time>
      </trkpt>
      <trkpt lat="59.8446913" lon="17.8612924">
        <ele>17.4412</ele>
        <time>2013-04-14T11:17:24Z</time>
      </trkpt>
      <trkpt lat="59.8446327" lon="17.8613162">
        <ele>16.9604</ele>
        <time>2013-04-14T11:17:25Z</time>
      </trkpt>
      <trkpt lat="59.8445742" lon="17.861342">
        <ele>16.9604</ele>
        <time>2013-04-14T11:17:26Z</time>
      </trkpt>
      <trkpt lat="59.8445164" lon="17.861369">
        <ele>16.9604</ele>
        <time>2013-04-14T11:17:27Z</time>
      </trkpt>
      <trkpt lat="59.844459" lon="17.8613967">
        <ele>16.9604</ele>
        <time>2013-04-14T11:17:28Z</time>
      </trkpt>
      <trkpt lat="59.8444016" lon="17.8614226">
        <ele>16.4797</ele>
        <time>2013-04-14T11:17:29Z</time>
      </trkpt>
      <trkpt lat="59.8443451" lon="17.8614478">
        <ele>16.9604</ele>
        <time>2013-04-14T11:17:30Z</time>
      </trkpt>
      <trkpt lat="59.8442897" lon="17.8614732">
        <ele>16.9604</ele>
        <time>2013-04-14T11:17:31Z</time>
      </trkpt>
      <trkpt lat="59.8442353" lon="17.8614984">
        <ele>16.9604</ele>
        <time>2013-04-14T11:17:32Z</time>
      </trkpt>
      <trkpt lat="59.8441816" lon="17.8615226">
        <ele>16.9604</ele>
        <time>2013-04-14T11:17:33Z</time>
      </trkpt>
      <trkpt lat="59.8441289" lon="17.8615455">
        <ele>16.9604</ele>
        <time>2013-04-14T11:17:34Z</time>
      </trkpt>
      <trkpt lat="59.8440772" lon="17.8615678">
        <ele>16.9604</ele>
        <time>2013-04-14T11:17:35Z</time>
      </trkpt>
      <trkpt lat="59.8440271" lon="17.8615898">
        <ele>17.4412</ele>
        <time>2013-04-14T11:17:36Z</time>
      </trkpt>
      <trkpt lat="59.8439787" lon="17.861611">
        <ele>17.4412</ele>
        <time>2013-04-14T11:17:37Z</time>
      </trkpt>
      <trkpt lat="59.8439318" lon="17.8616309">
        <ele>17.9218</ele>
        <time>2013-04-14T11:17:38Z</time>
      </trkpt>
      <trkpt lat="59.843886" lon="17.8616514">
        <ele>17.9218</ele>
        <time>2013-04-14T11:17:39Z</time>
      </trkpt>
      <trkpt lat="59.8438407" lon="17.8616735">
        <ele>17.9218</ele>
        <time>2013-04-14T11:17:40Z</time>
      </trkpt>
      <trkpt lat="59.8437961" lon="17.8616952">
        <ele>17.9218</ele>
        <time>2013-04-14T11:17:41Z</time>
      </trkpt>
      <trkpt lat="59.843751" lon="17.8617154">
        <ele>17.9218</ele>
        <time>2013-04-14T11:17:42Z</time>
      </trkpt>
      <trkpt lat="59.8437053" lon="17.8617348">
        <ele>18.4023</ele>
        <time>2013-04-14T11:17:43Z</time>
      </trkpt>
      <trkpt lat="59.8436589" lon="17.8617545">
        <ele>18.4023</ele>
        <time>2013-04-14T11:17:44Z</time>
      </trkpt>
      <trkpt lat="59.8436125" lon="17.8617747">
        <ele>18.4023</ele>
        <time>2013-04-14T11:17:45Z</time>
      </trkpt>
      <trkpt lat="59.8435661" lon="17.8617959">
        <ele>18.4023</ele>
        <time>2013-04-14T11:17:46Z</time>
      </trkpt>
      <trkpt lat="59.8435201" lon="17.8618158">
        <ele>18.8831</ele>
        <time>2013-04-14T11:17:47Z</time>
      </trkpt>
      <trkpt lat="59.8434748" lon="17.8618331">
        <ele>18.8831</ele>
        <time>2013-04-14T11:17:48Z</time>
      </trkpt>
      <trkpt lat="59.84343" lon="17.8618505">
        <ele>18.8831</ele>
        <time>2013-04-14T11:17:49Z</time>
      </trkpt>
      <trkpt lat="59.8433863" lon="17.8618686">
        <ele>18.8831</ele>
        <time>2013-04-14T11:17:50Z</time>
      </trkpt>
      <trkpt lat="59.8433431" lon="17.8618857">
        <ele>19.3638</ele>
        <time>2013-04-14T11:17:51Z</time>
      </trkpt>
      <trkpt lat="59.8433007" lon="17.8619019">
        <ele>19.3638</ele>
        <time>2013-04-14T11:17:52Z</time>
      </trkpt>
      <trkpt lat="59.8432585" lon="17.8619173">
        <ele>19.8444</ele>
        <time>2013-04-14T11:17:53Z</time>
      </trkpt>
      <trkpt lat="59.8432169" lon="17.861931">
        <ele>19.8444</ele>
        <time>2013-04-14T11:17:54Z</time>
      </trkpt>
      <trkpt lat="59.8431768" lon="17.8619446">
        <ele>19.8444</ele>
        <time>2013-04-14T11:17:55Z</time>
      </trkpt>
      <trkpt lat="59.8431377" lon="17.8619598">
        <ele>19.8444</ele>
        <time>2013-04-14T11:17:56Z</time>
      </trkpt>
      <trkpt lat="59.8430984" lon="17.8619743">
        <ele>19.8444</ele>
        <time>2013-04-14T11:17:57Z</time>
      </trkpt>
      <trkpt lat="59.8430583" lon="17.8619863">
        <ele>19.8444</ele>
        <time>2013-04-14T11:17:58Z</time>
      </trkpt>
      <trkpt lat="59.8430165" lon="17.8619974">
        <ele>19.8444</ele>
        <time>2013-04-14T11:17:59Z</time>
      </trkpt>
      <trkpt lat="59.842973" lon="17.8620086">
        <ele>19.8444</ele>
        <time>2013-04-14T11:18:00Z</time>
      </trkpt>
      <trkpt lat="59.842927" lon="17.8620246">
        <ele>20.325</ele>
        <time>2013-04-14T11:18:01Z</time>
      </trkpt>
      <trkpt lat="59.8428802" lon="17.8620414">
        <ele>20.325</ele>
        <time>2013-04-14T11:18:02Z</time>
      </trkpt>
      <trkpt lat="59.8428329" lon="17.8620547">
        <ele>20.8057</ele>
        <time>2013-04-14T11:18:03Z</time>
      </trkpt>
      <trkpt lat="59.8427849" lon="17.8620627">
        <ele>20.8057</ele>
        <time>2013-04-14T11:18:04Z</time>
      </trkpt>
      <trkpt lat="59.8427371" lon="17.86207">
        <ele>20.8057</ele>
        <time>2013-04-14T11:18:05Z</time>
      </trkpt>
      <trkpt lat="59.8426885" lon="17.8620798">
        <ele>20.8057</ele>
        <time>2013-04-14T11:18:06Z</time>
      </trkpt>
      <trkpt lat="59.8426392" lon="17.8620898">
        <ele>20.8057</ele>
        <time>2013-04-14T11:18:07Z</time>
      </trkpt>
      <trkpt lat="59.8425891" lon="17.8620933">
        <ele>20.8057</ele>
        <time>2013-04-14T11:18:08Z</time>
      </trkpt>
      <trkpt lat="59.8425388" lon="17.8620884">
        <ele>20.8057</ele>
        <time>2013-04-14T11:18:09Z</time>
      </trkpt>
      <trkpt lat="59.8424885" lon="17.8620792">
        <ele>20.8057</ele>
        <time>2013-04-14T11:18:10Z</time>
      </trkpt>
      <trkpt lat="59.8424392" lon="17.8620662">
        <ele>20.8057</ele>
        <time>2013-04-14T11:18:11Z</time>
      </trkpt>
      <trkpt lat="59.8423912" lon="17.8620474">
        <ele>20.8057</ele>
        <time>2013-04-14T11:18:12Z</time>
      </trkpt>
      <trkpt lat="59.8423442" lon="17.8620231">
        <ele>20.8057</ele>
        <time>2013-04-14T11:18:13Z</time>
      </trkpt>
      <trkpt lat="59.842298" lon="17.8619947">
        <ele>20.8057</ele>
        <time>2013-04-14T11:18:14Z</time>
      </trkpt>
      <trkpt lat="59.8422518" lon="17.86196">
        <ele>21.2864</ele>
        <time>2013-04-14T11:18:15Z</time>
      </trkpt>
      <trkpt lat="59.8422062" lon="17.8619212">
        <ele>20.8057</ele>
        <time>2013-04-14T11:18:16Z</time>
      </trkpt>
      <trkpt lat="59.84216" lon="17.8618802">
        <ele>20.8057</ele>
        <time>2013-04-14T11:18:17Z</time>
      </trkpt>
      <trkpt lat="59.8421124" lon="17.8618376">
        <ele>20.8057</ele>
        <time>2013-04-14T11:18:18Z</time>
      </trkpt>
      <trkpt lat="59.8420642" lon="17.8617921">
        <ele>20.8057</ele>
        <time>2013-04-14T11:18:19Z</time>
      </trkpt>
      <trkpt lat="59.842015" lon="17.8617434">
        <ele>20.325</ele>
        <time>2013-04-14T11:18:20Z</time>
      </trkpt>
      <trkpt lat="59.8419642" lon="17.8616873">
        <ele>20.325</ele>
        <time>2013-04-14T11:18:21Z</time>
      </trkpt>
      <trkpt lat="59.8419119" lon="17.8616248">
        <ele>19.8444</ele>
        <time>2013-04-14T11:18:22Z</time>
      </trkpt>
      <trkpt lat="59.8418587" lon="17.8615613">
        <ele>19.8444</ele>
        <time>2013-04-14T11:18:23Z</time>
      </trkpt>
      <trkpt lat="59.8418049" lon="17.8614988">
        <ele>19.8444</ele>
        <time>2013-04-14T11:18:24Z</time>
      </trkpt>
      <trkpt lat="59.8417505" lon="17.8614363">
        <ele>19.3638</ele>
        <time>2013-04-14T11:18:25Z</time>
      </trkpt>
      <trkpt lat="59.8416966" lon="17.8613743">
        <ele>19.3638</ele>
        <time>2013-04-14T11:18:26Z</time>
      </trkpt>
      <trkpt lat="59.8416442" lon="17.8613134">
        <ele>19.3638</ele>
        <time>2013-04-14T11:18:27Z</time>
      </trkpt>
      <trkpt lat="59.841592" lon="17.8612541">
        <ele>19.3638</ele>
        <time>2013-04-14T11:18:28Z</time>
      </trkpt>
      <trkpt lat="59.8415386" lon="17.8611956">
        <ele>19.3638</ele>
        <time>2013-04-14T11:18:29Z</time>
      </trkpt>
      <trkpt lat="59.8414841" lon="17.8611396">
        <ele>19.3638</ele>
        <time>2013-04-14T11:18:30Z</time>
      </trkpt>
      <trkpt lat="59.8414292" lon="17.8610866">
        <ele>19.3638</ele>
        <time>2013-04-14T11:18:31Z</time>
      </trkpt>
      <trkpt lat="59.8413744" lon="17.8610333">
        <ele>19.3638</ele>
        <time>2013-04-14T11:18:32Z</time>
      </trkpt>
      <trkpt lat="59.8413198" lon="17.8609805">
        <ele>19.3638</ele>
        <time>2013-04-14T11:18:33Z</time>
      </trkpt>
      <trkpt lat="59.8412646" lon="17.8609338">
        <ele>19.3638</ele>
        <time>2013-04-14T11:18:34Z</time>
      </trkpt>
      <trkpt lat="59.8412091" lon="17.8608919">
        <ele>19.3638</ele>
        <time>2013-04-14T11:18:35Z</time>
      </trkpt>
      <trkpt lat="59.8411545" lon="17.8608513">
        <ele>19.3638</ele>
        <time>2013-04-14T11:18:36Z</time>
      </trkpt>
      <trkpt lat="59.8411001" lon="17.8608125">
        <ele>19.3638</ele>
        <time>2013-04-14T11:18:37Z</time>
      </trkpt>
      <trkpt lat="59.8410454" lon="17.8607774">
        <ele>19.3638</ele>
        <time>2013-04-14T11:18:38Z</time>
      </trkpt>
      <trkpt lat="59.84099" lon="17.8607453">
        <ele>19.3638</ele>
        <time>2013-04-14T11:18:39Z</time>
      </trkpt>
      <trkpt lat="59.8409336" lon="17.8607157">
        <ele>19.3638</ele>
        <time>2013-04-14T11:18:40Z</time>
      </trkpt>
      <trkpt lat="59.8408767" lon="17.8606874">
        <ele>19.3638</ele>
        <time>2013-04-14T11:18:41Z</time>
      </trkpt>
      <trkpt lat="59.8408194" lon="17.8606586">
        <ele>19.3638</ele>
        <time>2013-04-14T11:18:42Z</time>
      </trkpt>
      <trkpt lat="59.8407624" lon="17.8606288">
        <ele>19.3638</ele>
        <time>2013-04-14T11:18:43Z</time>
      </trkpt>
      <trkpt lat="59.8407056" lon="17.8605977">
        <ele>19.3638</ele>
        <time>2013-04-14T11:18:44Z</time>
      </trkpt>
      <trkpt lat="59.8406506" lon="17.8605664">
        <ele>19.3638</ele>
        <time>2013-04-14T11:18:45Z</time>
      </trkpt>
      <trkpt lat="59.840598" lon="17.8605332">
        <ele>18.8831</ele>
        <time>2013-04-14T11:18:46Z</time>
      </trkpt>
      <trkpt lat="59.8405475" lon="17.8604944">
        <ele>18.8831</ele>
        <time>2013-04-14T11:18:47Z</time>
      </trkpt>
      <trkpt lat="59.8404963" lon="17.8604531">
        <ele>18.8831</ele>
        <time>2013-04-14T11:18:48Z</time>
      </trkpt>
      <trkpt lat="59.8404409" lon="17.8604163">
        <ele>18.8831</ele>
        <time>2013-04-14T11:18:49Z</time>
      </trkpt>
      <trkpt lat="59.8403829" lon="17.8603816">
        <ele>18.8831</ele>
        <time>2013-04-14T11:18:50Z</time>
      </trkpt>
      <trkpt lat="59.8403239" lon="17.8603464">
        <ele>18.8831</ele>
        <time>2013-04-14T11:18:51Z</time>
      </trkpt>
      <trkpt lat="59.8402646" lon="17.8603089">
        <ele>18.8831</ele>
        <time>2013-04-14T11:18:52Z</time>
      </trkpt>
      <trkpt lat="59.8402046" lon="17.8602708">
        <ele>18.8831</ele>
        <time>2013-04-14T11:18:53Z</time>
      </trkpt>
      <trkpt lat="59.8401445" lon="17.8602324">
        <ele>18.8831</ele>
        <time>2013-04-14T11:18:54Z</time>
      </trkpt>
      <trkpt lat="59.8400846" lon="17.8601932">
        <ele>18.8831</ele>
        <time>2013-04-14T11:18:55Z</time>
      </trkpt>
      <trkpt lat="59.8400249" lon="17.8601541">
        <ele>18.8831</ele>
        <time>2013-04-14T11:18:56Z</time>
      </trkpt>
      <trkpt lat="59.8399648" lon="17.8601145">
        <ele>18.4023</ele>
        <time>2013-04-14T11:18:57Z</time>
      </trkpt>
      <trkpt lat="59.8399043" lon="17.860072">
        <ele>18.4023</ele>
        <time>2013-04-14T11:18:58Z</time>
      </trkpt>
      <trkpt lat="59.8398434" lon="17.8600258">
        <ele>18.4023</ele>
        <time>2013-04-14T11:18:59Z</time>
      </trkpt>
      <trkpt lat="59.839782" lon="17.859976">
        <ele>18.4023</ele>
        <time>2013-04-14T11:19:00Z</time>
      </trkpt>
      <trkpt lat="59.8397212" lon="17.859922">
        <ele>18.4023</ele>
        <time>2013-04-14T11:19:01Z</time>
      </trkpt>
      <trkpt lat="59.8396612" lon="17.8598642">
        <ele>18.4023</ele>
        <time>2013-04-14T11:19:02Z</time>
      </trkpt>
      <trkpt lat="59.8396023" lon="17.8598019">
        <ele>18.4023</ele>
        <time>2013-04-14T11:19:03Z</time>
      </trkpt>
      <trkpt lat="59.8395448" lon="17.8597365">
        <ele>18.4023</ele>
        <time>2013-04-14T11:19:04Z</time>
      </trkpt>
      <trkpt lat="59.8394883" lon="17.8596699">
        <ele>18.4023</ele>
        <time>2013-04-14T11:19:05Z</time>
      </trkpt>
      <trkpt lat="59.8394338" lon="17.8596006">
        <ele>18.4023</ele>
        <time>2013-04-14T11:19:06Z</time>
      </trkpt>
      <trkpt lat="59.8393812" lon="17.8595275">
        <ele>18.4023</ele>
        <time>2013-04-14T11:19:07Z</time>
      </trkpt>
      <trkpt lat="59.8393298" lon="17.8594553">
        <ele>18.4023</ele>
        <time>2013-04-14T11:19:08Z</time>
      </trkpt>
      <trkpt lat="59.8392775" lon="17.859385">
        <ele>18.4023</ele>
        <time>2013-04-14T11:19:09Z</time>
      </trkpt>
      <trkpt lat="59.8392247" lon="17.8593126">
        <ele>18.4023</ele>
        <time>2013-04-14T11:19:10Z</time>
      </trkpt>
      <trkpt lat="59.8391723" lon="17.8592342">
        <ele>18.8831</ele>
        <time>2013-04-14T11:19:11Z</time>
      </trkpt>
      <trkpt lat="59.8391215" lon="17.8591509">
        <ele>18.8831</ele>
        <time>2013-04-14T11:19:12Z</time>
      </trkpt>
      <trkpt lat="59.8390729" lon="17.8590702">
        <ele>18.8831</ele>
        <time>2013-04-14T11:19:13Z</time>
      </trkpt>
      <trkpt lat="59.8390271" lon="17.8589934">
        <ele>18.8831</ele>
        <time>2013-04-14T11:19:14Z</time>
      </trkpt>
      <trkpt lat="59.8389847" lon="17.8589165">
        <ele>18.4023</ele>
        <time>2013-04-14T11:19:15Z</time>
      </trkpt>
      <trkpt lat="59.8389458" lon="17.8588378">
        <ele>18.4023</ele>
        <time>2013-04-14T11:19:16Z</time>
      </trkpt>
      <trkpt lat="59.8389079" lon="17.8587623">
        <ele>18.4023</ele>
        <time>2013-04-14T11:19:17Z</time>
      </trkpt>
      <trkpt lat="59.8388699" lon="17.8586904">
        <ele>18.4023</ele>
        <time>2013-04-14T11:19:18Z</time>
      </trkpt>
      <trkpt lat="59.8388319" lon="17.8586156">
        <ele>18.4023</ele>
        <time>2013-04-14T11:19:19Z</time>
      </trkpt>
      <trkpt lat="59.8387921" lon="17.858536">
        <ele>18.4023</ele>
        <time>2013-04-14T11:19:20Z</time>
      </trkpt>
      <trkpt lat="59.8387492" lon="17.8584552">
        <ele>17.9218</ele>
        <time>2013-04-14T11:19:21Z</time>
      </trkpt>
      <trkpt lat="59.8387041" lon="17.8583738">
        <ele>17.9218</ele>
        <time>2013-04-14T11:19:22Z</time>
      </trkpt>
      <trkpt lat="59.8386593" lon="17.8582893">
        <ele>17.9218</ele>
        <time>2013-04-14T11:19:23Z</time>
      </trkpt>
      <trkpt lat="59.838615" lon="17.8582022">
        <ele>17.9218</ele>
        <time>2013-04-14T11:19:24Z</time>
      </trkpt>
      <trkpt lat="59.8385707" lon="17.8581138">
        <ele>17.9218</ele>
        <time>2013-04-14T11:19:25Z</time>
      </trkpt>
      <trkpt lat="59.8385264" lon="17.858024">
        <ele>17.4412</ele>
        <time>2013-04-14T11:19:26Z</time>
      </trkpt>
      <trkpt lat="59.8384832" lon="17.8579307">
        <ele>17.4412</ele>
        <time>2013-04-14T11:19:27Z</time>
      </trkpt>
      <trkpt lat="59.8384403" lon="17.8578357">
        <ele>17.4412</ele>
        <time>2013-04-14T11:19:28Z</time>
      </trkpt>
      <trkpt lat="59.8383974" lon="17.8577408">
        <ele>17.9218</ele>
        <time>2013-04-14T11:19:29Z</time>
      </trkpt>
      <trkpt lat="59.838357" lon="17.8576455">
        <ele>17.9218</ele>
        <time>2013-04-14T11:19:30Z</time>
      </trkpt>
      <trkpt lat="59.8383164" lon="17.8575511">
        <ele>17.9218</ele>
        <time>2013-04-14T11:19:31Z</time>
      </trkpt>
      <trkpt lat="59.8382758" lon="17.8574569">
        <ele>17.9218</ele>
        <time>2013-04-14T11:19:32Z</time>
      </trkpt>
      <trkpt lat="59.8382366" lon="17.8573618">
        <ele>17.9218</ele>
        <time>2013-04-14T11:19:33Z</time>
      </trkpt>
      <trkpt lat="59.8381974" lon="17.8572653">
        <ele>17.9218</ele>
        <time>2013-04-14T11:19:34Z</time>
      </trkpt>
      <trkpt lat="59.8381565" lon="17.8571674">
        <ele>18.4023</ele>
        <time>2013-04-14T11:19:35Z</time>
      </trkpt>
      <trkpt lat="59.8381144" lon="17.857069">
        <ele>18.4023</ele>
        <time>2013-04-14T11:19:36Z</time>
      </trkpt>
      <trkpt lat="59.8380724" lon="17.8569686">
        <ele>18.4023</ele>
        <time>2013-04-14T11:19:37Z</time>
      </trkpt>
      <trkpt lat="59.8380306" lon="17.8568694">
        <ele>18.4023</ele>
        <time>2013-04-14T11:19:38Z</time>
      </trkpt>
      <trkpt lat="59.8379883" lon="17.8567728">
        <ele>18.8831</ele>
        <time>2013-04-14T11:19:39Z</time>
      </trkpt>
      <trkpt lat="59.837945" lon="17.8566834">
        <ele>18.8831</ele>
        <time>2013-04-14T11:19:40Z</time>
      </trkpt>
      <trkpt lat="59.8379009" lon="17.8565991">
        <ele>19.3638</ele>
        <time>2013-04-14T11:19:41Z</time>
      </trkpt>
      <trkpt lat="59.8378577" lon="17.8565184">
        <ele>19.3638</ele>
        <time>2013-04-14T11:19:42Z</time>
      </trkpt>
      <trkpt lat="59.8378141" lon="17.856444">
        <ele>19.8444</ele>
        <time>2013-04-14T11:19:43Z</time>
      </trkpt>
      <trkpt lat="59.83777" lon="17.8563785">
        <ele>19.8444</ele>
        <time>2013-04-14T11:19:44Z</time>
      </trkpt>
      <trkpt lat="59.837725" lon="17.85632">
        <ele>19.8444</ele>
        <time>2013-04-14T11:19:45Z</time>
      </trkpt>
      <trkpt lat="59.8376792" lon="17.8562655">
        <ele>20.325</ele>
        <time>2013-04-14T11:19:46Z</time>
      </trkpt>
      <trkpt lat="59.8376323" lon="17.8562168">
        <ele>20.325</ele>
        <time>2013-04-14T11:19:47Z</time>
      </trkpt>
      <trkpt lat="59.8375844" lon="17.8561732">
        <ele>20.325</ele>
        <time>2013-04-14T11:19:48Z</time>
      </trkpt>
      <trkpt lat="59.8375354" lon="17.8561284">
        <ele>20.8057</ele>
        <time>2013-04-14T11:19:49Z</time>
      </trkpt>
      <trkpt lat="59.8374855" lon="17.8560832">
        <ele>20.8057</ele>
        <time>2013-04-14T11:19:50Z</time>
      </trkpt>
      <trkpt lat="59.837435" lon="17.8560366">
        <ele>20.325</ele>
        <time>2013-04-14T11:19:51Z</time>
      </trkpt>
      <trkpt lat="59.8373841" lon="17.8559875">
        <ele>20.325</ele>
        <time>2013-04-14T11:19:52Z</time>
      </trkpt>
      <trkpt lat="59.8373323" lon="17.8559376">
        <ele>20.325</ele>
        <time>2013-04-14T11:19:53Z</time>
      </trkpt>
      <trkpt lat="59.8372809" lon="17.8558854">
        <ele>20.325</ele>
        <time>2013-04-14T11:19:54Z</time>
      </trkpt>
      <trkpt lat="59.8372298" lon="17.8558283">
        <ele>19.8444</ele>
        <time>2013-04-14T11:19:55Z</time>
      </trkpt>
      <trkpt lat="59.8371796" lon="17.8557646">
        <ele>19.8444</ele>
        <time>2013-04-14T11:19:56Z</time>
      </trkpt>
      <trkpt lat="59.8371314" lon="17.8556931">
        <ele>19.8444</ele>
        <time>2013-04-14T11:19:57Z</time>
      </trkpt>
      <trkpt lat="59.8370862" lon="17.8556147">
        <ele>19.3638</ele>
        <time>2013-04-14T11:19:58Z</time>
      </trkpt>
      <trkpt lat="59.8370433" lon="17.8555327">
        <ele>19.3638</ele>
        <time>2013-04-14T11:19:59Z</time>
      </trkpt>
      <trkpt lat="59.8370016" lon="17.8554482">
        <ele>18.8831</ele>
        <time>2013-04-14T11:20:00Z</time>
      </trkpt>
      <trkpt lat="59.8369603" lon="17.8553621">
        <ele>19.3638</ele>
        <time>2013-04-14T11:20:01Z</time>
      </trkpt>
      <trkpt lat="59.8369191" lon="17.8552766">
        <ele>18.8831</ele>
        <time>2013-04-14T11:20:02Z</time>
      </trkpt>
      <trkpt lat="59.8368779" lon="17.8551939">
        <ele>18.8831</ele>
        <time>2013-04-14T11:20:03Z</time>
      </trkpt>
      <trkpt lat="59.8368367" lon="17.8551136">
        <ele>18.8831</ele>
        <time>2013-04-14T11:20:04Z</time>
      </trkpt>
      <trkpt lat="59.8367958" lon="17.8550346">
        <ele>18.8831</ele>
        <time>2013-04-14T11:20:05Z</time>
      </trkpt>
      <trkpt lat="59.8367535" lon="17.854961">
        <ele>18.8831</ele>
        <time>2013-04-14T11:20:06Z</time>
      </trkpt>
      <trkpt lat="59.8367087" lon="17.8548962">
        <ele>18.8831</ele>
        <time>2013-04-14T11:20:07Z</time>
      </trkpt>
      <trkpt lat="59.8366636" lon="17.8548348">
        <ele>18.4023</ele>
        <time>2013-04-14T11:20:08Z</time>
      </trkpt>
      <trkpt lat="59.8366179" lon="17.8547742">
        <ele>18.4023</ele>
        <time>2013-04-14T11:20:09Z</time>
      </trkpt>
      <trkpt lat="59.8365713" lon="17.8547147">
        <ele>18.4023</ele>
        <time>2013-04-14T11:20:10Z</time>
      </trkpt>
      <trkpt lat="59.8365227" lon="17.8546559">
        <ele>18.4023</ele>
        <time>2013-04-14T11:20:11Z</time>
      </trkpt>
      <trkpt lat="59.8364724" lon="17.8545986">
        <ele>18.8831</ele>
        <time>2013-04-14T11:20:12Z</time>
      </trkpt>
      <trkpt lat="59.8364217" lon="17.8545398">
        <ele>18.8831</ele>
        <time>2013-04-14T11:20:13Z</time>
      </trkpt>
      <trkpt lat="59.8363713" lon="17.8544796">
        <ele>19.3638</ele>
        <time>2013-04-14T11:20:14Z</time>
      </trkpt>
      <trkpt lat="59.836319" lon="17.8544204">
        <ele>19.3638</ele>
        <time>2013-04-14T11:20:15Z</time>
      </trkpt>
      <trkpt lat="59.8362662" lon="17.8543606">
        <ele>19.3638</ele>
        <time>2013-04-14T11:20:16Z</time>
      </trkpt>
      <trkpt lat="59.8362139" lon="17.854299">
        <ele>19.3638</ele>
        <time>2013-04-14T11:20:17Z</time>
      </trkpt>
      <trkpt lat="59.8361625" lon="17.8542344">
        <ele>19.3638</ele>
        <time>2013-04-14T11:20:18Z</time>
      </trkpt>
      <trkpt lat="59.8361112" lon="17.8541692">
        <ele>19.3638</ele>
        <time>2013-04-14T11:20:19Z</time>
      </trkpt>
      <trkpt lat="59.8360592" lon="17.8541042">
        <ele>19.3638</ele>
        <time>2013-04-14T11:20:20Z</time>
      </trkpt>
      <trkpt lat="59.8360063" lon="17.8540372">
        <ele>18.8831</ele>
        <time>2013-04-14T11:20:21Z</time>
      </trkpt>
      <trkpt lat="59.835956" lon="17.8539661">
        <ele>18.8831</ele>
        <time>2013-04-14T11:20:22Z</time>
      </trkpt>
      <trkpt lat="59.8359069" lon="17.853891">
        <ele>18.8831</ele>
        <time>2013-04-14T11:20:23Z</time>
      </trkpt>
      <trkpt lat="59.8358568" lon="17.8538169">
        <ele>18.8831</ele>
        <time>2013-04-14T11:20:24Z</time>
      </trkpt>
      <trkpt lat="59.8358022" lon="17.8537435">
        <ele>18.4023</ele>
        <time>2013-04-14T11:20:25Z</time>
      </trkpt>
      <trkpt lat="59.8357483" lon="17.8536661">
        <ele>17.9218</ele>
        <time>2013-04-14T11:20:26Z</time>
      </trkpt>
      <trkpt lat="59.8356939" lon="17.8535885">
        <ele>17.9218</ele>
        <time>2013-04-14T11:20:27Z</time>
      </trkpt>
      <trkpt lat="59.8356373" lon="17.8535121">
        <ele>18.4023</ele>
        <time>2013-04-14T11:20:28Z</time>
      </trkpt>
      <trkpt lat="59.8355837" lon="17.8534393">
        <ele>18.4023</ele>
        <time>2013-04-14T11:20:29Z</time>
      </trkpt>
      <trkpt lat="59.8355323" lon="17.8533651">
        <ele>18.4023</ele>
        <time>2013-04-14T11:20:30Z</time>
      </trkpt>
      <trkpt lat="59.8354825" lon="17.8532905">
        <ele>17.9218</ele>
        <time>2013-04-14T11:20:31Z</time>
      </trkpt>
      <trkpt lat="59.8354342" lon="17.8532166">
        <ele>17.4412</ele>
        <time>2013-04-14T11:20:32Z</time>
      </trkpt>
      <trkpt lat="59.835387" lon="17.8531419">
        <ele>17.4412</ele>
        <time>2013-04-14T11:20:33Z</time>
      </trkpt>
      <trkpt lat="59.835341" lon="17.8530656">
        <ele>17.4412</ele>
        <time>2013-04-14T11:20:34Z</time>
      </trkpt>
      <trkpt lat="59.8352954" lon="17.8529846">
        <ele>17.4412</ele>
        <time>2013-04-14T11:20:35Z</time>
      </trkpt>
      <trkpt lat="59.8352518" lon="17.8528985">
        <ele>17.9218</ele>
        <time>2013-04-14T11:20:36Z</time>
      </trkpt>
      <trkpt lat="59.8352105" lon="17.8528102">
        <ele>17.9218</ele>
        <time>2013-04-14T11:20:37Z</time>
      </trkpt>
      <trkpt lat="59.8351713" lon="17.8527208">
        <ele>17.9218</ele>
        <time>2013-04-14T11:20:38Z</time>
      </trkpt>
      <trkpt lat="59.835134" lon="17.8526301">
        <ele>17.9218</ele>
        <time>2013-04-14T11:20:39Z</time>
      </trkpt>
      <trkpt lat="59.8350983" lon="17.8525419">
        <ele>17.9218</ele>
        <time>2013-04-14T11:20:40Z</time>
      </trkpt>
      <trkpt lat="59.835062" lon="17.8524545">
        <ele>18.4023</ele>
        <time>2013-04-14T11:20:41Z</time>
      </trkpt>
      <trkpt lat="59.8350287" lon="17.8523695">
        <ele>18.8831</ele>
        <time>2013-04-14T11:20:42Z</time>
      </trkpt>
      <trkpt lat="59.834993" lon="17.8522868">
        <ele>19.3638</ele>
        <time>2013-04-14T11:20:43Z</time>
      </trkpt>
      <trkpt lat="59.8349595" lon="17.8522069">
        <ele>19.8444</ele>
        <time>2013-04-14T11:20:44Z</time>
      </trkpt>
      <trkpt lat="59.8349246" lon="17.852128">
        <ele>19.8444</ele>
        <time>2013-04-14T11:20:45Z</time>
      </trkpt>
      <trkpt lat="59.8348863" lon="17.8520438">
        <ele>19.8444</ele>
        <time>2013-04-14T11:20:46Z</time>
      </trkpt>
      <trkpt lat="59.8348443" lon="17.8519572">
        <ele>19.8444</ele>
        <time>2013-04-14T11:20:47Z</time>
      </trkpt>
      <trkpt lat="59.8347977" lon="17.8518675">
        <ele>19.3638</ele>
        <time>2013-04-14T11:20:48Z</time>
      </trkpt>
      <trkpt lat="59.8347458" lon="17.8517719">
        <ele>19.3638</ele>
        <time>2013-04-14T11:20:49Z</time>
      </trkpt>
      <trkpt lat="59.8346888" lon="17.8516759">
        <ele>18.8831</ele>
        <time>2013-04-14T11:20:50Z</time>
      </trkpt>
      <trkpt lat="59.8346272" lon="17.8515839">
        <ele>17.9218</ele>
        <time>2013-04-14T11:20:51Z</time>
      </trkpt>
      <trkpt lat="59.8345614" lon="17.8515013">
        <ele>17.4412</ele>
        <time>2013-04-14T11:20:52Z</time>
      </trkpt>
      <trkpt lat="59.834489" lon="17.8514282">
        <ele>16.9604</ele>
        <time>2013-04-14T11:20:53Z</time>
      </trkpt>
      <trkpt lat="59.8344124" lon="17.8513636">
        <ele>16.4797</ele>
        <time>2013-04-14T11:20:54Z</time>
      </trkpt>
      <trkpt lat="59.8343337" lon="17.8512989">
        <ele>16.4797</ele>
        <time>2013-04-14T11:20:55Z</time>
      </trkpt>
      <trkpt lat="59.8342537" lon="17.8512342">
        <ele>15.999</ele>
        <time>2013-04-14T11:20:56Z</time>
      </trkpt>
      <trkpt lat="59.8341744" lon="17.8511661">
        <ele>15.5184</ele>
        <time>2013-04-14T11:20:57Z</time>
      </trkpt>
      <trkpt lat="59.8340952" lon="17.8510892">
        <ele>15.0377</ele>
        <time>2013-04-14T11:20:58Z</time>
      </trkpt>
      <trkpt lat="59.834016" lon="17.8510065">
        <ele>14.557</ele>
        <time>2013-04-14T11:20:59Z</time>
      </trkpt>
      <trkpt lat="59.8339385" lon="17.8509202">
        <ele>14.557</ele>
        <time>2013-04-14T11:21:00Z</time>
      </trkpt>
      <trkpt lat="59.8338632" lon="17.8508269">
        <ele>14.0764</ele>
        <time>2013-04-14T11:21:01Z</time>
      </trkpt>
      <trkpt lat="59.833791" lon="17.8507254">
        <ele>14.0764</ele>
        <time>2013-04-14T11:21:02Z</time>
      </trkpt>
      <trkpt lat="59.8337214" lon="17.8506172">
        <ele>13.5958</ele>
        <time>2013-04-14T11:21:03Z</time>
      </trkpt>
      <trkpt lat="59.833656" lon="17.8505016">
        <ele>13.5958</ele>
        <time>2013-04-14T11:21:04Z</time>
      </trkpt>
      <trkpt lat="59.8335954" lon="17.8503788">
        <ele>13.1151</ele>
        <time>2013-04-14T11:21:05Z</time>
      </trkpt>
      <trkpt lat="59.8335398" lon="17.8502472">
        <ele>13.1151</ele>
        <time>2013-04-14T11:21:06Z</time>
      </trkpt>
      <trkpt lat="59.8334878" lon="17.8501084">
        <ele>13.1151</ele>
        <time>2013-04-14T11:21:07Z</time>
      </trkpt>
      <trkpt lat="59.8334362" lon="17.8499698">
        <ele>13.1151</ele>
        <time>2013-04-14T11:21:08Z</time>
      </trkpt>
      <trkpt lat="59.8333808" lon="17.8498418">
        <ele>13.1151</ele>
        <time>2013-04-14T11:21:09Z</time>
      </trkpt>
      <trkpt lat="59.8333209" lon="17.8497288">
        <ele>13.1151</ele>
        <time>2013-04-14T11:21:10Z</time>
      </trkpt>
      <trkpt lat="59.8332593" lon="17.8496253">
        <ele>13.1151</ele>
        <time>2013-04-14T11:21:11Z</time>
      </trkpt>
      <trkpt lat="59.8332002" lon="17.849526">
        <ele>13.5958</ele>
        <time>2013-04-14T11:21:12Z</time>
      </trkpt>
      <trkpt lat="59.8331445" lon="17.849431">
        <ele>14.557</ele>
        <time>2013-04-14T11:21:13Z</time>
      </trkpt>
      <trkpt lat="59.8330927" lon="17.8493393">
        <ele>15.0377</ele>
        <time>2013-04-14T11:21:14Z</time>
      </trkpt>
      <trkpt lat="59.8330457" lon="17.8492512">
        <ele>15.5184</ele>
        <time>2013-04-14T11:21:15Z</time>
      </trkpt>
      <trkpt lat="59.8330021" lon="17.8491689">
        <ele>15.5184</ele>
        <time>2013-04-14T11:21:16Z</time>
      </trkpt>
      <trkpt lat="59.8329602" lon="17.8490937">
        <ele>15.999</ele>
        <time>2013-04-14T11:21:17Z</time>
      </trkpt>
      <trkpt lat="59.8329193" lon="17.8490217">
        <ele>16.4797</ele>
        <time>2013-04-14T11:21:18Z</time>
      </trkpt>
      <trkpt lat="59.8328796" lon="17.8489526">
        <ele>16.4797</ele>
        <time>2013-04-14T11:21:19Z</time>
      </trkpt>
      <trkpt lat="59.8328423" lon="17.8488849">
        <ele>16.9604</ele>
        <time>2013-04-14T11:21:20Z</time>
      </trkpt>
      <trkpt lat="59.8328079" lon="17.8488158">
        <ele>17.4412</ele>
        <time>2013-04-14T11:21:21Z</time>
      </trkpt>
      <trkpt lat="59.8327744" lon="17.8487472">
        <ele>17.4412</ele>
        <time>2013-04-14T11:21:22Z</time>
      </trkpt>
      <trkpt lat="59.8327406" lon="17.8486788">
        <ele>17.9218</ele>
        <time>2013-04-14T11:21:23Z</time>
      </trkpt>
      <trkpt lat="59.832707" lon="17.848606">
        <ele>17.9218</ele>
        <time>2013-04-14T11:21:24Z</time>
      </trkpt>
      <trkpt lat="59.8326732" lon="17.848529">
        <ele>17.9218</ele>
        <time>2013-04-14T11:21:25Z</time>
      </trkpt>
      <trkpt lat="59.8326386" lon="17.8484496">
        <ele>17.9218</ele>
        <time>2013-04-14T11:21:26Z</time>
      </trkpt>
      <trkpt lat="59.8326045" lon="17.8483669">
        <ele>17.9218</ele>
        <time>2013-04-14T11:21:27Z</time>
      </trkpt>
      <trkpt lat="59.8325728" lon="17.84828">
        <ele>17.9218</ele>
        <time>2013-04-14T11:21:28Z</time>
      </trkpt>
      <trkpt lat="59.8325428" lon="17.8481922">
        <ele>18.4023</ele>
        <time>2013-04-14T11:21:29Z</time>
      </trkpt>
      <trkpt lat="59.8325128" lon="17.8481047">
        <ele>18.4023</ele>
        <time>2013-04-14T11:21:30Z</time>
      </trkpt>
      <trkpt lat="59.8324825" lon="17.8480184">
        <ele>18.4023</ele>
        <time>2013-04-14T11:21:31Z</time>
      </trkpt>
      <trkpt lat="59.8324537" lon="17.8479308">
        <ele>18.8831</ele>
        <time>2013-04-14T11:21:32Z</time>
      </trkpt>
      <trkpt lat="59.8324273" lon="17.8478395">
        <ele>18.4023</ele>
        <time>2013-04-14T11:21:33Z</time>
      </trkpt>
      <trkpt lat="59.8324059" lon="17.847743">
        <ele>18.4023</ele>
        <time>2013-04-14T11:21:34Z</time>
      </trkpt>
      <trkpt lat="59.8323833" lon="17.8476416">
        <ele>18.8831</ele>
        <time>2013-04-14T11:21:35Z</time>
      </trkpt>
      <trkpt lat="59.8323577" lon="17.8475376">
        <ele>18.8831</ele>
        <time>2013-04-14T11:21:36Z</time>
      </trkpt>
      <trkpt lat="59.8323306" lon="17.8474324">
        <ele>18.8831</ele>
        <time>2013-04-14T11:21:37Z</time>
      </trkpt>
      <trkpt lat="59.8323014" lon="17.8473247">
        <ele>19.3638</ele>
        <time>2013-04-14T11:21:38Z</time>
      </trkpt>
      <trkpt lat="59.8322715" lon="17.8472222">
        <ele>19.3638</ele>
        <time>2013-04-14T11:21:39Z</time>
      </trkpt>
      <trkpt lat="59.832238" lon="17.8471232">
        <ele>19.8444</ele>
        <time>2013-04-14T11:21:40Z</time>
      </trkpt>
      <trkpt lat="59.8322025" lon="17.8470325">
        <ele>19.8444</ele>
        <time>2013-04-14T11:21:41Z</time>
      </trkpt>
      <trkpt lat="59.8321634" lon="17.8469491">
        <ele>19.8444</ele>
        <time>2013-04-14T11:21:42Z</time>
      </trkpt>
      <trkpt lat="59.8321232" lon="17.8468741">
        <ele>20.325</ele>
        <time>2013-04-14T11:21:43Z</time>
      </trkpt>
      <trkpt lat="59.8320829" lon="17.8468077">
        <ele>20.8057</ele>
        <time>2013-04-14T11:21:44Z</time>
      </trkpt>
      <trkpt lat="59.8320372" lon="17.8467538">
        <ele>21.2864</ele>
        <time>2013-04-14T11:21:45Z</time>
      </trkpt>
      <trkpt lat="59.8319875" lon="17.8467146">
        <ele>21.767</ele>
        <time>2013-04-14T11:21:46Z</time>
      </trkpt>
      <trkpt lat="59.8319366" lon="17.8466819">
        <ele>22.2476</ele>
        <time>2013-04-14T11:21:47Z</time>
      </trkpt>
      <trkpt lat="59.8318855" lon="17.8466523">
        <ele>22.2476</ele>
        <time>2013-04-14T11:21:48Z</time>
      </trkpt>
      <trkpt lat="59.8318326" lon="17.8466211">
        <ele>22.2476</ele>
        <time>2013-04-14T11:21:49Z</time>
      </trkpt>
      <trkpt lat="59.8317775" lon="17.8465906">
        <ele>22.2476</ele>
        <time>2013-04-14T11:21:50Z</time>
      </trkpt>
      <trkpt lat="59.8317187" lon="17.846563">
        <ele>22.2476</ele>
        <time>2013-04-14T11:21:51Z</time>
      </trkpt>
      <trkpt lat="59.8316597" lon="17.8465302">
        <ele>22.7283</ele>
        <time>2013-04-14T11:21:52Z</time>
      </trkpt>
      <trkpt lat="59.8316007" lon="17.8464917">
        <ele>22.7283</ele>
        <time>2013-04-14T11:21:53Z</time>
      </trkpt>
      <trkpt lat="59.8315415" lon="17.8464518">
        <ele>22.7283</ele>
        <time>2013-04-14T11:21:54Z</time>
      </trkpt>
      <trkpt lat="59.8314824" lon="17.8464125">
        <ele>23.209</ele>
        <time>2013-04-14T11:21:55Z</time>
      </trkpt>
      <trkpt lat="59.8314255" lon="17.8463685">
        <ele>23.209</ele>
        <time>2013-04-14T11:21:56Z</time>
      </trkpt>
      <trkpt lat="59.8313702" lon="17.8463177">
        <ele>23.6896</ele>
        <time>2013-04-14T11:21:57Z</time>
      </trkpt>
      <trkpt lat="59.8313151" lon="17.8462632">
        <ele>23.6896</ele>
        <time>2013-04-14T11:21:58Z</time>
      </trkpt>
      <trkpt lat="59.8312611" lon="17.8462093">
        <ele>23.209</ele>
        <time>2013-04-14T11:21:59Z</time>
      </trkpt>
      <trkpt lat="59.8312048" lon="17.8461579">
        <ele>23.209</ele>
        <time>2013-04-14T11:22:00Z</time>
      </trkpt>
      <trkpt lat="59.8311447" lon="17.8461104">
        <ele>23.209</ele>
        <time>2013-04-14T11:22:01Z</time>
      </trkpt>
      <trkpt lat="59.831084" lon="17.8460666">
        <ele>23.6896</ele>
        <time>2013-04-14T11:22:02Z</time>
      </trkpt>
      <trkpt lat="59.8310241" lon="17.8460264">
        <ele>23.6896</ele>
        <time>2013-04-14T11:22:03Z</time>
      </trkpt>
      <trkpt lat="59.8309653" lon="17.8459893">
        <ele>23.6896</ele>
        <time>2013-04-14T11:22:04Z</time>
      </trkpt>
      <trkpt lat="59.830908" lon="17.845945">
        <ele>23.6896</ele>
        <time>2013-04-14T11:22:05Z</time>
      </trkpt>
      <trkpt lat="59.83085" lon="17.8459007">
        <ele>23.6896</ele>
        <time>2013-04-14T11:22:06Z</time>
      </trkpt>
      <trkpt lat="59.8307894" lon="17.8458629">
        <ele>23.6896</ele>
        <time>2013-04-14T11:22:07Z</time>
      </trkpt>
      <trkpt lat="59.8307282" lon="17.8458248">
        <ele>23.6896</ele>
        <time>2013-04-14T11:22:08Z</time>
      </trkpt>
      <trkpt lat="59.8306687" lon="17.8457845">
        <ele>23.209</ele>
        <time>2013-04-14T11:22:09Z</time>
      </trkpt>
      <trkpt lat="59.8306131" lon="17.8457399">
        <ele>23.209</ele>
        <time>2013-04-14T11:22:10Z</time>
      </trkpt>
      <trkpt lat="59.8305561" lon="17.8456896">
        <ele>23.209</ele>
        <time>2013-04-14T11:22:11Z</time>
      </trkpt>
      <trkpt lat="59.8304915" lon="17.8456297">
        <ele>22.7283</ele>
        <time>2013-04-14T11:22:12Z</time>
      </trkpt>
      <trkpt lat="59.8304351" lon="17.8455717">
        <ele>22.2476</ele>
        <time>2013-04-14T11:22:13Z</time>
      </trkpt>
      <trkpt lat="59.8303847" lon="17.8455091">
        <ele>21.767</ele>
        <time>2013-04-14T11:22:14Z</time>
      </trkpt>
      <trkpt lat="59.8303387" lon="17.8454363">
        <ele>21.2864</ele>
        <time>2013-04-14T11:22:15Z</time>
      </trkpt>
      <trkpt lat="59.8302946" lon="17.8453578">
        <ele>20.8057</ele>
        <time>2013-04-14T11:22:16Z</time>
      </trkpt>
      <trkpt lat="59.8302536" lon="17.8452744">
        <ele>20.325</ele>
        <time>2013-04-14T11:22:17Z</time>
      </trkpt>
      <trkpt lat="59.830209" lon="17.8451835">
        <ele>19.8444</ele>
        <time>2013-04-14T11:22:18Z</time>
      </trkpt>
      <trkpt lat="59.8301662" lon="17.8450791">
        <ele>19.8444</ele>
        <time>2013-04-14T11:22:19Z</time>
      </trkpt>
      <trkpt lat="59.8301247" lon="17.8449702">
        <ele>18.8831</ele>
        <time>2013-04-14T11:22:20Z</time>
      </trkpt>
      <trkpt lat="59.8300837" lon="17.8448569">
        <ele>18.4023</ele>
        <time>2013-04-14T11:22:21Z</time>
      </trkpt>
      <trkpt lat="59.8300438" lon="17.8447394">
        <ele>17.9218</ele>
        <time>2013-04-14T11:22:22Z</time>
      </trkpt>
      <trkpt lat="59.8300039" lon="17.8446199">
        <ele>17.4412</ele>
        <time>2013-04-14T11:22:23Z</time>
      </trkpt>
      <trkpt lat="59.8299621" lon="17.8445006">
        <ele>17.4412</ele>
        <time>2013-04-14T11:22:24Z</time>
      </trkpt>
      <trkpt lat="59.8299207" lon="17.8443807">
        <ele>16.9604</ele>
        <time>2013-04-14T11:22:25Z</time>
      </trkpt>
      <trkpt lat="59.8298761" lon="17.8442643">
        <ele>16.9604</ele>
        <time>2013-04-14T11:22:26Z</time>
      </trkpt>
      <trkpt lat="59.8298295" lon="17.8441564">
        <ele>16.4797</ele>
        <time>2013-04-14T11:22:27Z</time>
      </trkpt>
      <trkpt lat="59.8297808" lon="17.8440586">
        <ele>16.4797</ele>
        <time>2013-04-14T11:22:28Z</time>
      </trkpt>
      <trkpt lat="59.8297321" lon="17.8439683">
        <ele>16.4797</ele>
        <time>2013-04-14T11:22:29Z</time>
      </trkpt>
      <trkpt lat="59.8296823" lon="17.843886">
        <ele>16.4797</ele>
        <time>2013-04-14T11:22:30Z</time>
      </trkpt>
      <trkpt lat="59.8296343" lon="17.8438096">
        <ele>16.9604</ele>
        <time>2013-04-14T11:22:31Z</time>
      </trkpt>
      <trkpt lat="59.8295901" lon="17.8437359">
        <ele>16.9604</ele>
        <time>2013-04-14T11:22:32Z</time>
      </trkpt>
      <trkpt lat="59.8295482" lon="17.8436612">
        <ele>16.9604</ele>
        <time>2013-04-14T11:22:33Z</time>
      </trkpt>
      <trkpt lat="59.8295091" lon="17.8435824">
        <ele>16.4797</ele>
        <time>2013-04-14T11:22:34Z</time>
      </trkpt>
      <trkpt lat="59.8294715" lon="17.8434981">
        <ele>16.4797</ele>
        <time>2013-04-14T11:22:35Z</time>
      </trkpt>
      <trkpt lat="59.8294343" lon="17.8434097">
        <ele>16.4797</ele>
        <time>2013-04-14T11:22:36Z</time>
      </trkpt>
      <trkpt lat="59.8293965" lon="17.8433185">
        <ele>16.4797</ele>
        <time>2013-04-14T11:22:37Z</time>
      </trkpt>
      <trkpt lat="59.8293563" lon="17.8432272">
        <ele>16.4797</ele>
        <time>2013-04-14T11:22:38Z</time>
      </trkpt>
      <trkpt lat="59.8293116" lon="17.8431382">
        <ele>15.999</ele>
        <time>2013-04-14T11:22:39Z</time>
      </trkpt>
      <trkpt lat="59.8292639" lon="17.843053">
        <ele>15.999</ele>
        <time>2013-04-14T11:22:40Z</time>
      </trkpt>
      <trkpt lat="59.8292135" lon="17.8429742">
        <ele>15.999</ele>
        <time>2013-04-14T11:22:41Z</time>
      </trkpt>
      <trkpt lat="59.8291598" lon="17.8429066">
        <ele>15.999</ele>
        <time>2013-04-14T11:22:42Z</time>
      </trkpt>
      <trkpt lat="59.8291046" lon="17.8428491">
        <ele>16.4797</ele>
        <time>2013-04-14T11:22:43Z</time>
      </trkpt>
      <trkpt lat="59.8290493" lon="17.8428009">
        <ele>16.4797</ele>
        <time>2013-04-14T11:22:44Z</time>
      </trkpt>
      <trkpt lat="59.828997" lon="17.8427569">
        <ele>16.9604</ele>
        <time>2013-04-14T11:22:45Z</time>
      </trkpt>
      <trkpt lat="59.8289481" lon="17.8427186">
        <ele>16.9604</ele>
        <time>2013-04-14T11:22:46Z</time>
      </trkpt>
      <trkpt lat="59.8289028" lon="17.8426859">
        <ele>17.4412</ele>
        <time>2013-04-14T11:22:47Z</time>
      </trkpt>
      <trkpt lat="59.8288614" lon="17.8426595">
        <ele>17.4412</ele>
        <time>2013-04-14T11:22:48Z</time>
      </trkpt>
      <trkpt lat="59.8288235" lon="17.8426384">
        <ele>17.9218</ele>
        <time>2013-04-14T11:22:49Z</time>
      </trkpt>
      <trkpt lat="59.8287879" lon="17.8426231">
        <ele>17.9218</ele>
        <time>2013-04-14T11:22:50Z</time>
      </trkpt>
      <trkpt lat="59.8287536" lon="17.8426129">
        <ele>18.4023</ele>
        <time>2013-04-14T11:22:51Z</time>
      </trkpt>
      <trkpt lat="59.8287209" lon="17.8426064">
        <ele>18.8831</ele>
        <time>2013-04-14T11:22:52Z</time>
      </trkpt>
      <trkpt lat="59.8286914" lon="17.842602">
        <ele>18.8831</ele>
        <time>2013-04-14T11:22:53Z</time>
      </trkpt>
      <trkpt lat="59.828664" lon="17.8425972">
        <ele>19.3638</ele>
        <time>2013-04-14T11:22:54Z</time>
      </trkpt>
      <trkpt lat="59.8286381" lon="17.8425916">
        <ele>19.8444</ele>
        <time>2013-04-14T11:22:55Z</time>
      </trkpt>
      <trkpt lat="59.8286111" lon="17.8425845">
        <ele>20.325</ele>
        <time>2013-04-14T11:22:56Z</time>
      </trkpt>
      <trkpt lat="59.8285827" lon="17.8425772">
        <ele>20.325</ele>
        <time>2013-04-14T11:22:57Z</time>
      </trkpt>
      <trkpt lat="59.8285501" lon="17.8425751">
        <ele>20.325</ele>
        <time>2013-04-14T11:22:58Z</time>
      </trkpt>
      <trkpt lat="59.8285136" lon="17.8425766">
        <ele>20.325</ele>
        <time>2013-04-14T11:22:59Z</time>
      </trkpt>
      <trkpt lat="59.8284773" lon="17.8425762">
        <ele>20.8057</ele>
        <time>2013-04-14T11:23:00Z</time>
      </trkpt>
      <trkpt lat="59.8284397" lon="17.8425717">
        <ele>20.8057</ele>
        <time>2013-04-14T11:23:01Z</time>
      </trkpt>
      <trkpt lat="59.8284009" lon="17.8425635">
        <ele>21.2864</ele>
        <time>2013-04-14T11:23:02Z</time>
      </trkpt>
      <trkpt lat="59.8283625" lon="17.8425467">
        <ele>20.8057</ele>
        <time>2013-04-14T11:23:03Z</time>
      </trkpt>
      <trkpt lat="59.8283239" lon="17.8425225">
        <ele>21.2864</ele>
        <time>2013-04-14T11:23:04Z</time>
      </trkpt>
      <trkpt lat="59.8282887" lon="17.8424937">
        <ele>21.767</ele>
        <time>2013-04-14T11:23:05Z</time>
      </trkpt>
      <trkpt lat="59.8282604" lon="17.8424569">
        <ele>21.767</ele>
        <time>2013-04-14T11:23:06Z</time>
      </trkpt>
      <trkpt lat="59.8282348" lon="17.8424102">
        <ele>22.2476</ele>
        <time>2013-04-14T11:23:07Z</time>
      </trkpt>
      <trkpt lat="59.8282107" lon="17.8423562">
        <ele>22.7283</ele>
        <time>2013-04-14T11:23:08Z</time>
      </trkpt>
      <trkpt lat="59.8281883" lon="17.8423039">
        <ele>23.209</ele>
        <time>2013-04-14T11:23:09Z</time>
      </trkpt>
      <trkpt lat="59.8281699" lon="17.8422506">
        <ele>23.209</ele>
        <time>2013-04-14T11:23:10Z</time>
      </trkpt>
      <trkpt lat="59.8281515" lon="17.8422047">
        <ele>23.209</ele>
        <time>2013-04-14T11:23:11Z</time>
      </trkpt>
      <trkpt lat="59.8281329" lon="17.8421626">
        <ele>23.6896</ele>
        <time>2013-04-14T11:23:12Z</time>
      </trkpt>
      <trkpt lat="59.8281133" lon="17.8421185">
        <ele>23.6896</ele>
        <time>2013-04-14T11:23:13Z</time>
      </trkpt>
      <trkpt lat="59.8280919" lon="17.842076">
        <ele>23.6896</ele>
        <time>2013-04-14T11:23:14Z</time>
      </trkpt>
      <trkpt lat="59.8280678" lon="17.8420352">
        <ele>23.6896</ele>
        <time>2013-04-14T11:23:15Z</time>
      </trkpt>
      <trkpt lat="59.8280401" lon="17.8419993">
        <ele>23.6896</ele>
        <time>2013-04-14T11:23:16Z</time>
      </trkpt>
      <trkpt lat="59.8280114" lon="17.8419727">
        <ele>23.6896</ele>
        <time>2013-04-14T11:23:17Z</time>
      </trkpt>
      <trkpt lat="59.8279834" lon="17.8419437">
        <ele>24.1703</ele>
        <time>2013-04-14T11:23:18Z</time>
      </trkpt>
      <trkpt lat="59.8279554" lon="17.8419176">
        <ele>24.1703</ele>
        <time>2013-04-14T11:23:19Z</time>
      </trkpt>
      <trkpt lat="59.8279271" lon="17.841897">
        <ele>25.1317</ele>
        <time>2013-04-14T11:23:20Z</time>
      </trkpt>
      <trkpt lat="59.8278973" lon="17.8418761">
        <ele>25.1317</ele>
        <time>2013-04-14T11:23:21Z</time>
      </trkpt>
      <trkpt lat="59.8278671" lon="17.8418518">
        <ele>25.6123</ele>
        <time>2013-04-14T11:23:22Z</time>
      </trkpt>
      <trkpt lat="59.8278332" lon="17.8418301">
        <ele>26.0929</ele>
        <time>2013-04-14T11:23:23Z</time>
      </trkpt>
      <trkpt lat="59.8277983" lon="17.8418073">
        <ele>26.5736</ele>
        <time>2013-04-14T11:23:24Z</time>
      </trkpt>
      <trkpt lat="59.8277627" lon="17.8417877">
        <ele>27.0543</ele>
        <time>2013-04-14T11:23:25Z</time>
      </trkpt>
      <trkpt lat="59.8277256" lon="17.8417675">
        <ele>27.5349</ele>
        <time>2013-04-14T11:23:26Z</time>
      </trkpt>
      <trkpt lat="59.827686" lon="17.8417471">
        <ele>28.0155</ele>
        <time>2013-04-14T11:23:27Z</time>
      </trkpt>
      <trkpt lat="59.827645" lon="17.8417246">
        <ele>28.4962</ele>
        <time>2013-04-14T11:23:28Z</time>
      </trkpt>
      <trkpt lat="59.8276029" lon="17.8417006">
        <ele>28.4962</ele>
        <time>2013-04-14T11:23:29Z</time>
      </trkpt>
      <trkpt lat="59.8275615" lon="17.8416736">
        <ele>28.9769</ele>
        <time>2013-04-14T11:23:30Z</time>
      </trkpt>
      <trkpt lat="59.8275192" lon="17.8416464">
        <ele>29.4575</ele>
        <time>2013-04-14T11:23:31Z</time>
      </trkpt>
      <trkpt lat="59.8274766" lon="17.8416178">
        <ele>29.4575</ele>
        <time>2013-04-14T11:23:32Z</time>
      </trkpt>
      <trkpt lat="59.827433" lon="17.8415876">
        <ele>29.4575</ele>
        <time>2013-04-14T11:23:33Z</time>
      </trkpt>
      <trkpt lat="59.8273906" lon="17.8415535">
        <ele>29.9381</ele>
        <time>2013-04-14T11:23:34Z</time>
      </trkpt>
      <trkpt lat="59.827349" lon="17.8415174">
        <ele>29.9381</ele>
        <time>2013-04-14T11:23:35Z</time>
      </trkpt>
      <trkpt lat="59.8273084" lon="17.841479">
        <ele>29.9381</ele>
        <time>2013-04-14T11:23:36Z</time>
      </trkpt>
      <trkpt lat="59.8272674" lon="17.8414448">
        <ele>30.4188</ele>
        <time>2013-04-14T11:23:37Z</time>
      </trkpt>
      <trkpt lat="59.8272278" lon="17.8414121">
        <ele>30.4188</ele>
        <time>2013-04-14T11:23:38Z</time>
      </trkpt>
      <trkpt lat="59.8271891" lon="17.8413785">
        <ele>30.8995</ele>
        <time>2013-04-14T11:23:39Z</time>
      </trkpt>
      <trkpt lat="59.8271509" lon="17.8413464">
        <ele>31.3801</ele>
        <time>2013-04-14T11:23:40Z</time>
      </trkpt>
      <trkpt lat="59.8271134" lon="17.8413168">
        <ele>31.3801</ele>
        <time>2013-04-14T11:23:41Z</time>
      </trkpt>
      <trkpt lat="59.8270764" lon="17.8412874">
        <ele>31.8607</ele>
        <time>2013-04-14T11:23:42Z</time>
      </trkpt>
      <trkpt lat="59.8270405" lon="17.8412583">
        <ele>32.3416</ele>
        <time>2013-04-14T11:23:43Z</time>
      </trkpt>
      <trkpt lat="59.8270062" lon="17.8412287">
        <ele>32.3416</ele>
        <time>2013-04-14T11:23:44Z</time>
      </trkpt>
      <trkpt lat="59.8269721" lon="17.8412023">
        <ele>32.8223</ele>
        <time>2013-04-14T11:23:45Z</time>
      </trkpt>
      <trkpt lat="59.8269394" lon="17.8411795">
        <ele>32.8223</ele>
        <time>2013-04-14T11:23:46Z</time>
      </trkpt>
      <trkpt lat="59.8269079" lon="17.8411556">
        <ele>33.3029</ele>
        <time>2013-04-14T11:23:47Z</time>
      </trkpt>
      <trkpt lat="59.8268767" lon="17.8411324">
        <ele>33.7834</ele>
        <time>2013-04-14T11:23:48Z</time>
      </trkpt>
      <trkpt lat="59.8268471" lon="17.8411141">
        <ele>33.7834</ele>
        <time>2013-04-14T11:23:49Z</time>
      </trkpt>
      <trkpt lat="59.8268157" lon="17.8411024">
        <ele>33.7834</ele>
        <time>2013-04-14T11:23:50Z</time>
      </trkpt>
      <trkpt lat="59.8267844" lon="17.8410914">
        <ele>34.7449</ele>
        <time>2013-04-14T11:23:51Z</time>
      </trkpt>
      <trkpt lat="59.826754" lon="17.8410786">
        <ele>34.7449</ele>
        <time>2013-04-14T11:23:52Z</time>
      </trkpt>
      <trkpt lat="59.826724" lon="17.8410667">
        <ele>34.7449</ele>
        <time>2013-04-14T11:23:53Z</time>
      </trkpt>
      <trkpt lat="59.8266944" lon="17.8410617">
        <ele>35.2255</ele>
        <time>2013-04-14T11:23:54Z</time>
      </trkpt>
      <trkpt lat="59.8266617" lon="17.841068">
        <ele>35.7061</ele>
        <time>2013-04-14T11:23:55Z</time>
      </trkpt>
      <trkpt lat="59.826627" lon="17.8410812">
        <ele>36.1868</ele>
        <time>2013-04-14T11:23:56Z</time>
      </trkpt>
      <trkpt lat="59.826593" lon="17.8410951">
        <ele>36.6675</ele>
        <time>2013-04-14T11:23:57Z</time>
      </trkpt>
      <trkpt lat="59.8265589" lon="17.8411128">
        <ele>37.6287</ele>
        <time>2013-04-14T11:23:58Z</time>
      </trkpt>
      <trkpt lat="59.8265219" lon="17.8411402">
        <ele>38.1094</ele>
        <time>2013-04-14T11:23:59Z</time>
      </trkpt>
      <trkpt lat="59.8264887" lon="17.8411666">
        <ele>38.5901</ele>
        <time>2013-04-14T11:24:00Z</time>
      </trkpt>
      <trkpt lat="59.8264577" lon="17.8411978">
        <ele>39.0707</ele>
        <time>2013-04-14T11:24:01Z</time>
      </trkpt>
      <trkpt lat="59.8264267" lon="17.841236">
        <ele>39.5513</ele>
        <time>2013-04-14T11:24:02Z</time>
      </trkpt>
      <trkpt lat="59.8263951" lon="17.8412759">
        <ele>40.0321</ele>
        <time>2013-04-14T11:24:03Z</time>
      </trkpt>
      <trkpt lat="59.8263639" lon="17.8413127">
        <ele>40.5128</ele>
        <time>2013-04-14T11:24:04Z</time>
      </trkpt>
      <trkpt lat="59.8263334" lon="17.8413488">
        <ele>40.9934</ele>
        <time>2013-04-14T11:24:05Z</time>
      </trkpt>
      <trkpt lat="59.8263012" lon="17.8413872">
        <ele>40.9934</ele>
        <time>2013-04-14T11:24:06Z</time>
      </trkpt>
      <trkpt lat="59.8262708" lon="17.8414207">
        <ele>40.9934</ele>
        <time>2013-04-14T11:24:07Z</time>
      </trkpt>
      <trkpt lat="59.82624" lon="17.8414503">
        <ele>41.474</ele>
        <time>2013-04-14T11:24:08Z</time>
      </trkpt>
      <trkpt lat="59.8262077" lon="17.8414814">
        <ele>41.474</ele>
        <time>2013-04-14T11:24:09Z</time>
      </trkpt>
      <trkpt lat="59.8261739" lon="17.8415162">
        <ele>41.474</ele>
        <time>2013-04-14T11:24:10Z</time>
      </trkpt>
      <trkpt lat="59.8261407" lon="17.8415483">
        <ele>41.474</ele>
        <time>2013-04-14T11:24:11Z</time>
      </trkpt>
      <trkpt lat="59.8261061" lon="17.8415774">
        <ele>41.474</ele>
        <time>2013-04-14T11:24:12Z</time>
      </trkpt>
      <trkpt lat="59.8260704" lon="17.8416078">
        <ele>41.474</ele>
        <time>2013-04-14T11:24:13Z</time>
      </trkpt>
      <trkpt lat="59.8260356" lon="17.8416412">
        <ele>41.474</ele>
        <time>2013-04-14T11:24:14Z</time>
      </trkpt>
      <trkpt lat="59.826" lon="17.8416756">
        <ele>41.474</ele>
        <time>2013-04-14T11:24:15Z</time>
      </trkpt>
      <trkpt lat="59.8259625" lon="17.8417105">
        <ele>41.474</ele>
        <time>2013-04-14T11:24:16Z</time>
      </trkpt>
      <trkpt lat="59.8259242" lon="17.8417478">
        <ele>41.474</ele>
        <time>2013-04-14T11:24:17Z</time>
      </trkpt>
      <trkpt lat="59.8258854" lon="17.841787">
        <ele>41.474</ele>
        <time>2013-04-14T11:24:18Z</time>
      </trkpt>
      <trkpt lat="59.825845" lon="17.8418266">
        <ele>41.474</ele>
        <time>2013-04-14T11:24:19Z</time>
      </trkpt>
      <trkpt lat="59.8258039" lon="17.8418675">
        <ele>41.474</ele>
        <time>2013-04-14T11:24:20Z</time>
      </trkpt>
      <trkpt lat="59.8257619" lon="17.841908">
        <ele>41.474</ele>
        <time>2013-04-14T11:24:21Z</time>
      </trkpt>
      <trkpt lat="59.8257191" lon="17.8419478">
        <ele>41.474</ele>
        <time>2013-04-14T11:24:22Z</time>
      </trkpt>
      <trkpt lat="59.8256751" lon="17.8419916">
        <ele>41.474</ele>
        <time>2013-04-14T11:24:23Z</time>
      </trkpt>
      <trkpt lat="59.8256311" lon="17.8420353">
        <ele>41.474</ele>
        <time>2013-04-14T11:24:24Z</time>
      </trkpt>
      <trkpt lat="59.8255866" lon="17.8420772">
        <ele>41.9547</ele>
        <time>2013-04-14T11:24:25Z</time>
      </trkpt>
      <trkpt lat="59.8255417" lon="17.8421165">
        <ele>41.474</ele>
        <time>2013-04-14T11:24:26Z</time>
      </trkpt>
      <trkpt lat="59.8254954" lon="17.8421544">
        <ele>41.474</ele>
        <time>2013-04-14T11:24:27Z</time>
      </trkpt>
      <trkpt lat="59.8254482" lon="17.8421933">
        <ele>41.474</ele>
        <time>2013-04-14T11:24:28Z</time>
      </trkpt>
      <trkpt lat="59.8254001" lon="17.8422295">
        <ele>41.474</ele>
        <time>2013-04-14T11:24:29Z</time>
      </trkpt>
      <trkpt lat="59.8253518" lon="17.8422611">
        <ele>41.474</ele>
        <time>2013-04-14T11:24:30Z</time>
      </trkpt>
      <trkpt lat="59.8253055" lon="17.8422901">
        <ele>41.474</ele>
        <time>2013-04-14T11:24:31Z</time>
      </trkpt>
      <trkpt lat="59.8252596" lon="17.842318">
        <ele>41.474</ele>
        <time>2013-04-14T11:24:32Z</time>
      </trkpt>
      <trkpt lat="59.8252134" lon="17.842342">
        <ele>40.9934</ele>
        <time>2013-04-14T11:24:33Z</time>
      </trkpt>
      <trkpt lat="59.8251653" lon="17.8423601">
        <ele>40.9934</ele>
        <time>2013-04-14T11:24:34Z</time>
      </trkpt>
      <trkpt lat="59.825117" lon="17.8423756">
        <ele>41.474</ele>
        <time>2013-04-14T11:24:35Z</time>
      </trkpt>
      <trkpt lat="59.8250694" lon="17.8423892">
        <ele>41.474</ele>
        <time>2013-04-14T11:24:36Z</time>
      </trkpt>
      <trkpt lat="59.8250239" lon="17.8423989">
        <ele>41.474</ele>
        <time>2013-04-14T11:24:37Z</time>
      </trkpt>
      <trkpt lat="59.8249799" lon="17.8424021">
        <ele>41.474</ele>
        <time>2013-04-14T11:24:38Z</time>
      </trkpt>
      <trkpt lat="59.8249379" lon="17.8424021">
        <ele>41.9547</ele>
        <time>2013-04-14T11:24:39Z</time>
      </trkpt>
      <trkpt lat="59.8248994" lon="17.8423998">
        <ele>41.9547</ele>
        <time>2013-04-14T11:24:40Z</time>
      </trkpt>
      <trkpt lat="59.8248638" lon="17.8423948">
        <ele>42.4354</ele>
        <time>2013-04-14T11:24:41Z</time>
      </trkpt>
      <trkpt lat="59.8248307" lon="17.842389">
        <ele>42.916</ele>
        <time>2013-04-14T11:24:42Z</time>
      </trkpt>
      <trkpt lat="59.8247984" lon="17.8423842">
        <ele>42.916</ele>
        <time>2013-04-14T11:24:43Z</time>
      </trkpt>
      <trkpt lat="59.8247659" lon="17.8423786">
        <ele>42.916</ele>
        <time>2013-04-14T11:24:44Z</time>
      </trkpt>
      <trkpt lat="59.8247302" lon="17.8423786">
        <ele>43.3966</ele>
        <time>2013-04-14T11:24:45Z</time>
      </trkpt>
      <trkpt lat="59.8246915" lon="17.8423827">
        <ele>43.3966</ele>
        <time>2013-04-14T11:24:46Z</time>
      </trkpt>
      <trkpt lat="59.8246489" lon="17.8423868">
        <ele>43.3966</ele>
        <time>2013-04-14T11:24:47Z</time>
      </trkpt>
      <trkpt lat="59.8246023" lon="17.84239">
        <ele>43.3966</ele>
        <time>2013-04-14T11:24:48Z</time>
      </trkpt>
      <trkpt lat="59.824551" lon="17.8423948">
        <ele>42.916</ele>
        <time>2013-04-14T11:24:49Z</time>
      </trkpt>
      <trkpt lat="59.8244966" lon="17.8424009">
        <ele>42.4354</ele>
        <time>2013-04-14T11:24:50Z</time>
      </trkpt>
      <trkpt lat="59.8244387" lon="17.842402">
        <ele>41.9547</ele>
        <time>2013-04-14T11:24:51Z</time>
      </trkpt>
      <trkpt lat="59.8243815" lon="17.8423979">
        <ele>40.9934</ele>
        <time>2013-04-14T11:24:52Z</time>
      </trkpt>
      <trkpt lat="59.8243239" lon="17.8423921">
        <ele>40.5128</ele>
        <time>2013-04-14T11:24:53Z</time>
      </trkpt>
      <trkpt lat="59.8242666" lon="17.8423843">
        <ele>40.0321</ele>
        <time>2013-04-14T11:24:54Z</time>
      </trkpt>
      <trkpt lat="59.8242101" lon="17.8423746">
        <ele>39.5513</ele>
        <time>2013-04-14T11:24:55Z</time>
      </trkpt>
      <trkpt lat="59.8241545" lon="17.8423635">
        <ele>39.5513</ele>
        <time>2013-04-14T11:24:56Z</time>
      </trkpt>
      <trkpt lat="59.8240994" lon="17.8423539">
        <ele>39.0707</ele>
        <time>2013-04-14T11:24:57Z</time>
      </trkpt>
      <trkpt lat="59.8240454" lon="17.8423451">
        <ele>39.0707</ele>
        <time>2013-04-14T11:24:58Z</time>
      </trkpt>
      <trkpt lat="59.8239915" lon="17.8423388">
        <ele>38.5901</ele>
        <time>2013-04-14T11:24:59Z</time>
      </trkpt>
      <trkpt lat="59.8239366" lon="17.84234">
        <ele>38.5901</ele>
        <time>2013-04-14T11:25:00Z</time>
      </trkpt>
      <trkpt lat="59.8238826" lon="17.8423455">
        <ele>38.5901</ele>
        <time>2013-04-14T11:25:01Z</time>
      </trkpt>
      <trkpt lat="59.8238285" lon="17.8423538">
        <ele>38.5901</ele>
        <time>2013-04-14T11:25:02Z</time>
      </trkpt>
      <trkpt lat="59.8237755" lon="17.8423697">
        <ele>38.5901</ele>
        <time>2013-04-14T11:25:03Z</time>
      </trkpt>
      <trkpt lat="59.823724" lon="17.8423946">
        <ele>38.5901</ele>
        <time>2013-04-14T11:25:04Z</time>
      </trkpt>
      <trkpt lat="59.8236734" lon="17.8424233">
        <ele>38.5901</ele>
        <time>2013-04-14T11:25:05Z</time>
      </trkpt>
      <trkpt lat="59.8236248" lon="17.8424565">
        <ele>39.0707</ele>
        <time>2013-04-14T11:25:06Z</time>
      </trkpt>
      <trkpt lat="59.8235787" lon="17.8424974">
        <ele>39.0707</ele>
        <time>2013-04-14T11:25:07Z</time>
      </trkpt>
      <trkpt lat="59.8235342" lon="17.842546">
        <ele>39.5513</ele>
        <time>2013-04-14T11:25:08Z</time>
      </trkpt>
      <trkpt lat="59.8234925" lon="17.8425998">
        <ele>39.5513</ele>
        <time>2013-04-14T11:25:09Z</time>
      </trkpt>
      <trkpt lat="59.8234534" lon="17.8426559">
        <ele>39.5513</ele>
        <time>2013-04-14T11:25:10Z</time>
      </trkpt>
      <trkpt lat="59.823417" lon="17.8427138">
        <ele>40.0321</ele>
        <time>2013-04-14T11:25:11Z</time>
      </trkpt>
      <trkpt lat="59.8233818" lon="17.8427714">
        <ele>40.0321</ele>
        <time>2013-04-14T11:25:12Z</time>
      </trkpt>
      <trkpt lat="59.8233469" lon="17.8428258">
        <ele>40.5128</ele>
        <time>2013-04-14T11:25:13Z</time>
      </trkpt>
      <trkpt lat="59.8233129" lon="17.842879">
        <ele>40.5128</ele>
        <time>2013-04-14T11:25:14Z</time>
      </trkpt>
      <trkpt lat="59.8232798" lon="17.8429312">
        <ele>40.5128</ele>
        <time>2013-04-14T11:25:15Z</time>
      </trkpt>
      <trkpt lat="59.8232469" lon="17.8429796">
        <ele>40.9934</ele>
        <time>2013-04-14T11:25:16Z</time>
      </trkpt>
      <trkpt lat="59.8232125" lon="17.8430198">
        <ele>40.9934</ele>
        <time>2013-04-14T11:25:17Z</time>
      </trkpt>
      <trkpt lat="59.8231766" lon="17.8430504">
        <ele>41.474</ele>
        <time>2013-04-14T11:25:18Z</time>
      </trkpt>
      <trkpt lat="59.8231404" lon="17.8430748">
        <ele>41.474</ele>
        <time>2013-04-14T11:25:19Z</time>
      </trkpt>
      <trkpt lat="59.823105" lon="17.8430944">
        <ele>41.474</ele>
        <time>2013-04-14T11:25:20Z</time>
      </trkpt>
      <trkpt lat="59.8230695" lon="17.8431071">
        <ele>41.9547</ele>
        <time>2013-04-14T11:25:21Z</time>
      </trkpt>
      <trkpt lat="59.8230341" lon="17.8431153">
        <ele>42.4354</ele>
        <time>2013-04-14T11:25:22Z</time>
      </trkpt>
      <trkpt lat="59.8229995" lon="17.8431222">
        <ele>42.916</ele>
        <time>2013-04-14T11:25:23Z</time>
      </trkpt>
      <trkpt lat="59.8229648" lon="17.8431283">
        <ele>42.916</ele>
        <time>2013-04-14T11:25:24Z</time>
      </trkpt>
      <trkpt lat="59.8229311" lon="17.8431356">
        <ele>43.3966</ele>
        <time>2013-04-14T11:25:25Z</time>
      </trkpt>
      <trkpt lat="59.8228984" lon="17.8431439">
        <ele>43.8773</ele>
        <time>2013-04-14T11:25:26Z</time>
      </trkpt>
      <trkpt lat="59.8228659" lon="17.8431506">
        <ele>43.8773</ele>
        <time>2013-04-14T11:25:27Z</time>
      </trkpt>
      <trkpt lat="59.8228327" lon="17.8431555">
        <ele>44.358</ele>
        <time>2013-04-14T11:25:28Z</time>
      </trkpt>
      <trkpt lat="59.8227984" lon="17.8431582">
        <ele>44.358</ele>
        <time>2013-04-14T11:25:29Z</time>
      </trkpt>
      <trkpt lat="59.8227639" lon="17.8431598">
        <ele>44.358</ele>
        <time>2013-04-14T11:25:30Z</time>
      </trkpt>
      <trkpt lat="59.8227286" lon="17.8431594">
        <ele>44.358</ele>
        <time>2013-04-14T11:25:31Z</time>
      </trkpt>
      <trkpt lat="59.8226917" lon="17.8431563">
        <ele>44.358</ele>
        <time>2013-04-14T11:25:32Z</time>
      </trkpt>
      <trkpt lat="59.822654" lon="17.8431559">
        <ele>44.358</ele>
        <time>2013-04-14T11:25:33Z</time>
      </trkpt>
      <trkpt lat="59.8226162" lon="17.8431547">
        <ele>44.8386</ele>
        <time>2013-04-14T11:25:34Z</time>
      </trkpt>
      <trkpt lat="59.8225782" lon="17.8431454">
        <ele>44.8386</ele>
        <time>2013-04-14T11:25:35Z</time>
      </trkpt>
      <trkpt lat="59.8225395" lon="17.8431312">
        <ele>44.8386</ele>
        <time>2013-04-14T11:25:36Z</time>
      </trkpt>
      <trkpt lat="59.8225002" lon="17.8431179">
        <ele>45.3192</ele>
        <time>2013-04-14T11:25:37Z</time>
      </trkpt>
      <trkpt lat="59.8224616" lon="17.8431053">
        <ele>45.3192</ele>
        <time>2013-04-14T11:25:38Z</time>
      </trkpt>
      <trkpt lat="59.822424" lon="17.843091">
        <ele>45.3192</ele>
        <time>2013-04-14T11:25:39Z</time>
      </trkpt>
      <trkpt lat="59.8223876" lon="17.8430722">
        <ele>45.7999</ele>
        <time>2013-04-14T11:25:40Z</time>
      </trkpt>
      <trkpt lat="59.8223519" lon="17.8430527">
        <ele>45.7999</ele>
        <time>2013-04-14T11:25:41Z</time>
      </trkpt>
      <trkpt lat="59.8223158" lon="17.8430388">
        <ele>46.2806</ele>
        <time>2013-04-14T11:25:42Z</time>
      </trkpt>
      <trkpt lat="59.8222791" lon="17.8430297">
        <ele>46.2806</ele>
        <time>2013-04-14T11:25:43Z</time>
      </trkpt>
      <trkpt lat="59.8222417" lon="17.8430246">
        <ele>46.2806</ele>
        <time>2013-04-14T11:25:44Z</time>
      </trkpt>
      <trkpt lat="59.8222028" lon="17.8430204">
        <ele>46.7612</ele>
        <time>2013-04-14T11:25:45Z</time>
      </trkpt>
      <trkpt lat="59.8221619" lon="17.8430152">
        <ele>46.7612</ele>
        <time>2013-04-14T11:25:46Z</time>
      </trkpt>
      <trkpt lat="59.8221194" lon="17.8430081">
        <ele>46.2806</ele>
        <time>2013-04-14T11:25:47Z</time>
      </trkpt>
      <trkpt lat="59.822076" lon="17.8429998">
        <ele>46.2806</ele>
        <time>2013-04-14T11:25:48Z</time>
      </trkpt>
      <trkpt lat="59.8220325" lon="17.8429939">
        <ele>46.2806</ele>
        <time>2013-04-14T11:25:49Z</time>
      </trkpt>
      <trkpt lat="59.8219889" lon="17.8429905">
        <ele>46.7612</ele>
        <time>2013-04-14T11:25:50Z</time>
      </trkpt>
      <trkpt lat="59.8219455" lon="17.8429858">
        <ele>46.7612</ele>
        <time>2013-04-14T11:25:51Z</time>
      </trkpt>
      <trkpt lat="59.8219027" lon="17.8429775">
        <ele>46.7612</ele>
        <time>2013-04-14T11:25:52Z</time>
      </trkpt>
      <trkpt lat="59.8218594" lon="17.842967">
        <ele>46.7612</ele>
        <time>2013-04-14T11:25:53Z</time>
      </trkpt>
      <trkpt lat="59.8218158" lon="17.8429541">
        <ele>46.7612</ele>
        <time>2013-04-14T11:25:54Z</time>
      </trkpt>
      <trkpt lat="59.8217713" lon="17.8429377">
        <ele>46.7612</ele>
        <time>2013-04-14T11:25:55Z</time>
      </trkpt>
      <trkpt lat="59.8217255" lon="17.8429198">
        <ele>46.7612</ele>
        <time>2013-04-14T11:25:56Z</time>
      </trkpt>
      <trkpt lat="59.8216781" lon="17.8429036">
        <ele>46.7612</ele>
        <time>2013-04-14T11:25:57Z</time>
      </trkpt>
      <trkpt lat="59.8216289" lon="17.8428915">
        <ele>46.7612</ele>
        <time>2013-04-14T11:25:58Z</time>
      </trkpt>
      <trkpt lat="59.8215776" lon="17.8428837">
        <ele>46.2806</ele>
        <time>2013-04-14T11:25:59Z</time>
      </trkpt>
      <trkpt lat="59.8215237" lon="17.8428817">
        <ele>46.2806</ele>
        <time>2013-04-14T11:26:00Z</time>
      </trkpt>
      <trkpt lat="59.8214667" lon="17.8428827">
        <ele>46.2806</ele>
        <time>2013-04-14T11:26:01Z</time>
      </trkpt>
      <trkpt lat="59.8214072" lon="17.8428822">
        <ele>45.7999</ele>
        <time>2013-04-14T11:26:02Z</time>
      </trkpt>
      <trkpt lat="59.821345" lon="17.8428772">
        <ele>45.7999</ele>
        <time>2013-04-14T11:26:03Z</time>
      </trkpt>
      <trkpt lat="59.8212808" lon="17.8428696">
        <ele>45.7999</ele>
        <time>2013-04-14T11:26:04Z</time>
      </trkpt>
      <trkpt lat="59.821215" lon="17.842859">
        <ele>45.7999</ele>
        <time>2013-04-14T11:26:05Z</time>
      </trkpt>
      <trkpt lat="59.8211483" lon="17.8428453">
        <ele>45.3192</ele>
        <time>2013-04-14T11:26:06Z</time>
      </trkpt>
      <trkpt lat="59.8210819" lon="17.8428289">
        <ele>45.3192</ele>
        <time>2013-04-14T11:26:07Z</time>
      </trkpt>
      <trkpt lat="59.8210159" lon="17.8428098">
        <ele>44.8386</ele>
        <time>2013-04-14T11:26:08Z</time>
      </trkpt>
      <trkpt lat="59.8209494" lon="17.8427879">
        <ele>44.8386</ele>
        <time>2013-04-14T11:26:09Z</time>
      </trkpt>
      <trkpt lat="59.8208819" lon="17.84276">
        <ele>44.358</ele>
        <time>2013-04-14T11:26:10Z</time>
      </trkpt>
      <trkpt lat="59.820814" lon="17.8427223">
        <ele>44.358</ele>
        <time>2013-04-14T11:26:11Z</time>
      </trkpt>
      <trkpt lat="59.8207458" lon="17.842676">
        <ele>43.8773</ele>
        <time>2013-04-14T11:26:12Z</time>
      </trkpt>
      <trkpt lat="59.8206767" lon="17.8426275">
        <ele>43.3966</ele>
        <time>2013-04-14T11:26:13Z</time>
      </trkpt>
      <trkpt lat="59.8206072" lon="17.8425793">
        <ele>43.3966</ele>
        <time>2013-04-14T11:26:14Z</time>
      </trkpt>
      <trkpt lat="59.8205374" lon="17.8425344">
        <ele>43.8773</ele>
        <time>2013-04-14T11:26:15Z</time>
      </trkpt>
      <trkpt lat="59.8204681" lon="17.8424979">
        <ele>43.8773</ele>
        <time>2013-04-14T11:26:16Z</time>
      </trkpt>
      <trkpt lat="59.8204002" lon="17.8424704">
        <ele>44.358</ele>
        <time>2013-04-14T11:26:17Z</time>
      </trkpt>
      <trkpt lat="59.8203348" lon="17.8424528">
        <ele>44.358</ele>
        <time>2013-04-14T11:26:18Z</time>
      </trkpt>
      <trkpt lat="59.8202708" lon="17.8424424">
        <ele>44.8386</ele>
        <time>2013-04-14T11:26:19Z</time>
      </trkpt>
      <trkpt lat="59.8202106" lon="17.8424396">
        <ele>44.8386</ele>
        <time>2013-04-14T11:26:20Z</time>
      </trkpt>
      <trkpt lat="59.8201525" lon="17.8424365">
        <ele>44.8386</ele>
        <time>2013-04-14T11:26:21Z</time>
      </trkpt>
      <trkpt lat="59.8200956" lon="17.8424304">
        <ele>44.8386</ele>
        <time>2013-04-14T11:26:22Z</time>
      </trkpt>
      <trkpt lat="59.8200397" lon="17.84242">
        <ele>44.358</ele>
        <time>2013-04-14T11:26:23Z</time>
      </trkpt>
      <trkpt lat="59.8199842" lon="17.8424046">
        <ele>44.358</ele>
        <time>2013-04-14T11:26:24Z</time>
      </trkpt>
      <trkpt lat="59.8199271" lon="17.8423799">
        <ele>44.358</ele>
        <time>2013-04-14T11:26:25Z</time>
      </trkpt>
      <trkpt lat="59.8198692" lon="17.8423461">
        <ele>43.8773</ele>
        <time>2013-04-14T11:26:26Z</time>
      </trkpt>
      <trkpt lat="59.8198108" lon="17.8423017">
        <ele>43.8773</ele>
        <time>2013-04-14T11:26:27Z</time>
      </trkpt>
      <trkpt lat="59.8197516" lon="17.8422469">
        <ele>43.3966</ele>
        <time>2013-04-14T11:26:28Z</time>
      </trkpt>
      <trkpt lat="59.8196918" lon="17.842187">
        <ele>43.3966</ele>
        <time>2013-04-14T11:26:29Z</time>
      </trkpt>
      <trkpt lat="59.8196304" lon="17.8421238">
        <ele>42.916</ele>
        <time>2013-04-14T11:26:30Z</time>
      </trkpt>
      <trkpt lat="59.8195681" lon="17.8420586">
        <ele>42.916</ele>
        <time>2013-04-14T11:26:31Z</time>
      </trkpt>
      <trkpt lat="59.8195044" lon="17.8419933">
        <ele>42.916</ele>
        <time>2013-04-14T11:26:32Z</time>
      </trkpt>
      <trkpt lat="59.8194392" lon="17.8419326">
        <ele>42.916</ele>
        <time>2013-04-14T11:26:33Z</time>
      </trkpt>
      <trkpt lat="59.8193732" lon="17.8418794">
        <ele>42.916</ele>
        <time>2013-04-14T11:26:34Z</time>
      </trkpt>
      <trkpt lat="59.8193065" lon="17.8418337">
        <ele>42.916</ele>
        <time>2013-04-14T11:26:35Z</time>
      </trkpt>
      <trkpt lat="59.8192382" lon="17.8417943">
        <ele>42.916</ele>
        <time>2013-04-14T11:26:36Z</time>
      </trkpt>
      <trkpt lat="59.8191682" lon="17.8417601">
        <ele>42.4354</ele>
        <time>2013-04-14T11:26:37Z</time>
      </trkpt>
      <trkpt lat="59.8190957" lon="17.8417302">
        <ele>42.4354</ele>
        <time>2013-04-14T11:26:38Z</time>
      </trkpt>
      <trkpt lat="59.8190208" lon="17.8417051">
        <ele>42.4354</ele>
        <time>2013-04-14T11:26:39Z</time>
      </trkpt>
      <trkpt lat="59.8189446" lon="17.8416844">
        <ele>41.9547</ele>
        <time>2013-04-14T11:26:40Z</time>
      </trkpt>
      <trkpt lat="59.8188678" lon="17.8416696">
        <ele>41.9547</ele>
        <time>2013-04-14T11:26:41Z</time>
      </trkpt>
      <trkpt lat="59.8187897" lon="17.8416616">
        <ele>41.474</ele>
        <time>2013-04-14T11:26:42Z</time>
      </trkpt>
      <trkpt lat="59.818711" lon="17.8416614">
        <ele>41.474</ele>
        <time>2013-04-14T11:26:43Z</time>
      </trkpt>
      <trkpt lat="59.8186327" lon="17.8416686">
        <ele>40.9934</ele>
        <time>2013-04-14T11:26:44Z</time>
      </trkpt>
      <trkpt lat="59.8185532" lon="17.8416811">
        <ele>40.9934</ele>
        <time>2013-04-14T11:26:45Z</time>
      </trkpt>
      <trkpt lat="59.8184747" lon="17.8417004">
        <ele>41.474</ele>
        <time>2013-04-14T11:26:46Z</time>
      </trkpt>
      <trkpt lat="59.8183971" lon="17.8417238">
        <ele>41.474</ele>
        <time>2013-04-14T11:26:47Z</time>
      </trkpt>
      <trkpt lat="59.8183204" lon="17.8417498">
        <ele>41.474</ele>
        <time>2013-04-14T11:26:48Z</time>
      </trkpt>
      <trkpt lat="59.8182447" lon="17.8417763">
        <ele>41.9547</ele>
        <time>2013-04-14T11:26:49Z</time>
      </trkpt>
      <trkpt lat="59.8181712" lon="17.8418017">
        <ele>41.9547</ele>
        <time>2013-04-14T11:26:50Z</time>
      </trkpt>
      <trkpt lat="59.8180992" lon="17.8418228">
        <ele>41.474</ele>
        <time>2013-04-14T11:26:51Z</time>
      </trkpt>
      <trkpt lat="59.8180261" lon="17.8418327">
        <ele>40.9934</ele>
        <time>2013-04-14T11:26:52Z</time>
      </trkpt>
      <trkpt lat="59.8179487" lon="17.8418323">
        <ele>40.5128</ele>
        <time>2013-04-14T11:26:53Z</time>
      </trkpt>
      <trkpt lat="59.817868" lon="17.8418172">
        <ele>39.5513</ele>
        <time>2013-04-14T11:26:54Z</time>
      </trkpt>
      <trkpt lat="59.8177847" lon="17.8417794">
        <ele>39.0707</ele>
        <time>2013-04-14T11:26:55Z</time>
      </trkpt>
      <trkpt lat="59.8177024" lon="17.8417095">
        <ele>38.5901</ele>
        <time>2013-04-14T11:26:56Z</time>
      </trkpt>
      <trkpt lat="59.8176283" lon="17.8416029">
        <ele>38.1094</ele>
        <time>2013-04-14T11:26:57Z</time>
      </trkpt>
      <trkpt lat="59.8175662" lon="17.8414669">
        <ele>37.1481</ele>
        <time>2013-04-14T11:26:58Z</time>
      </trkpt>
      <trkpt lat="59.8175087" lon="17.8413209">
        <ele>36.6675</ele>
        <time>2013-04-14T11:26:59Z</time>
      </trkpt>
      <trkpt lat="59.8174433" lon="17.8411879">
        <ele>35.7061</ele>
        <time>2013-04-14T11:27:00Z</time>
      </trkpt>
      <trkpt lat="59.8173634" lon="17.8410819">
        <ele>35.2255</ele>
        <time>2013-04-14T11:27:01Z</time>
      </trkpt>
      <trkpt lat="59.8172732" lon="17.8410139">
        <ele>34.7449</ele>
        <time>2013-04-14T11:27:02Z</time>
      </trkpt>
      <trkpt lat="59.8171769" lon="17.8409924">
        <ele>34.7449</ele>
        <time>2013-04-14T11:27:03Z</time>
      </trkpt>
      <trkpt lat="59.8170819" lon="17.8410165">
        <ele>34.2642</ele>
        <time>2013-04-14T11:27:04Z</time>
      </trkpt>
      <trkpt lat="59.8169914" lon="17.8410678">
        <ele>33.7834</ele>
        <time>2013-04-14T11:27:05Z</time>
      </trkpt>
      <trkpt lat="59.8169031" lon="17.8411275">
        <ele>33.3029</ele>
        <time>2013-04-14T11:27:06Z</time>
      </trkpt>
      <trkpt lat="59.8168155" lon="17.8411755">
        <ele>32.8223</ele>
        <time>2013-04-14T11:27:07Z</time>
      </trkpt>
      <trkpt lat="59.8167223" lon="17.8412064">
        <ele>32.3416</ele>
        <time>2013-04-14T11:27:08Z</time>
      </trkpt>
      <trkpt lat="59.8166239" lon="17.8412245">
        <ele>31.8607</ele>
        <time>2013-04-14T11:27:09Z</time>
      </trkpt>
      <trkpt lat="59.8165243" lon="17.8412389">
        <ele>31.3801</ele>
        <time>2013-04-14T11:27:10Z</time>
      </trkpt>
      <trkpt lat="59.8164239" lon="17.841256">
        <ele>30.4188</ele>
        <time>2013-04-14T11:27:11Z</time>
      </trkpt>
      <trkpt lat="59.816323" lon="17.8412719">
        <ele>29.9381</ele>
        <time>2013-04-14T11:27:12Z</time>
      </trkpt>
      <trkpt lat="59.8162208" lon="17.84128">
        <ele>28.9769</ele>
        <time>2013-04-14T11:27:13Z</time>
      </trkpt>
      <trkpt lat="59.8161173" lon="17.8412806">
        <ele>28.0155</ele>
        <time>2013-04-14T11:27:14Z</time>
      </trkpt>
      <trkpt lat="59.8160125" lon="17.8412667">
        <ele>27.5349</ele>
        <time>2013-04-14T11:27:15Z</time>
      </trkpt>
      <trkpt lat="59.8159088" lon="17.8412311">
        <ele>27.0543</ele>
        <time>2013-04-14T11:27:16Z</time>
      </trkpt>
      <trkpt lat="59.815808" lon="17.8411809">
        <ele>26.0929</ele>
        <time>2013-04-14T11:27:17Z</time>
      </trkpt>
      <trkpt lat="59.8157085" lon="17.8411283">
        <ele>25.1317</ele>
        <time>2013-04-14T11:27:18Z</time>
      </trkpt>
      <trkpt lat="59.8156096" lon="17.8410888">
        <ele>24.651</ele>
        <time>2013-04-14T11:27:19Z</time>
      </trkpt>
      <trkpt lat="59.8155097" lon="17.8410613">
        <ele>25.1317</ele>
        <time>2013-04-14T11:27:20Z</time>
      </trkpt>
      <trkpt lat="59.8154115" lon="17.8410496">
        <ele>25.6123</ele>
        <time>2013-04-14T11:27:21Z</time>
      </trkpt>
      <trkpt lat="59.8153216" lon="17.8410501">
        <ele>25.6123</ele>
        <time>2013-04-14T11:27:22Z</time>
      </trkpt>
      <trkpt lat="59.8152382" lon="17.8410572">
        <ele>26.0929</ele>
        <time>2013-04-14T11:27:23Z</time>
      </trkpt>
      <trkpt lat="59.8151599" lon="17.8410659">
        <ele>27.0543</ele>
        <time>2013-04-14T11:27:24Z</time>
      </trkpt>
      <trkpt lat="59.8150893" lon="17.8410765">
        <ele>27.0543</ele>
        <time>2013-04-14T11:27:25Z</time>
      </trkpt>
      <trkpt lat="59.8150225" lon="17.8410878">
        <ele>27.5349</ele>
        <time>2013-04-14T11:27:26Z</time>
      </trkpt>
      <trkpt lat="59.8149589" lon="17.8411055">
        <ele>27.5349</ele>
        <time>2013-04-14T11:27:27Z</time>
      </trkpt>
      <trkpt lat="59.8148982" lon="17.8411282">
        <ele>28.0155</ele>
        <time>2013-04-14T11:27:28Z</time>
      </trkpt>
      <trkpt lat="59.8148393" lon="17.8411534">
        <ele>28.0155</ele>
        <time>2013-04-14T11:27:29Z</time>
      </trkpt>
      <trkpt lat="59.8147795" lon="17.841179">
        <ele>28.0155</ele>
        <time>2013-04-14T11:27:30Z</time>
      </trkpt>
      <trkpt lat="59.8147197" lon="17.8412064">
        <ele>28.0155</ele>
        <time>2013-04-14T11:27:31Z</time>
      </trkpt>
      <trkpt lat="59.8146589" lon="17.8412344">
        <ele>28.0155</ele>
        <time>2013-04-14T11:27:32Z</time>
      </trkpt>
      <trkpt lat="59.8145943" lon="17.8412613">
        <ele>28.4962</ele>
        <time>2013-04-14T11:27:33Z</time>
      </trkpt>
      <trkpt lat="59.8145265" lon="17.8412892">
        <ele>28.9769</ele>
        <time>2013-04-14T11:27:34Z</time>
      </trkpt>
      <trkpt lat="59.8144575" lon="17.8413126">
        <ele>29.4575</ele>
        <time>2013-04-14T11:27:35Z</time>
      </trkpt>
      <trkpt lat="59.8143917" lon="17.8413257">
        <ele>28.9769</ele>
        <time>2013-04-14T11:27:36Z</time>
      </trkpt>
      <trkpt lat="59.8143259" lon="17.8413342">
        <ele>28.9769</ele>
        <time>2013-04-14T11:27:37Z</time>
      </trkpt>
      <trkpt lat="59.8142638" lon="17.8413363">
        <ele>28.4962</ele>
        <time>2013-04-14T11:27:38Z</time>
      </trkpt>
      <trkpt lat="59.814203" lon="17.8413285">
        <ele>28.4962</ele>
        <time>2013-04-14T11:27:39Z</time>
      </trkpt>
      <trkpt lat="59.8141441" lon="17.8413122">
        <ele>28.4962</ele>
        <time>2013-04-14T11:27:40Z</time>
      </trkpt>
      <trkpt lat="59.8140856" lon="17.8412966">
        <ele>28.4962</ele>
        <time>2013-04-14T11:27:41Z</time>
      </trkpt>
      <trkpt lat="59.8140296" lon="17.841278">
        <ele>28.4962</ele>
        <time>2013-04-14T11:27:42Z</time>
      </trkpt>
      <trkpt lat="59.8139737" lon="17.841251">
        <ele>28.9769</ele>
        <time>2013-04-14T11:27:43Z</time>
      </trkpt>
      <trkpt lat="59.8139193" lon="17.8412179">
        <ele>29.9381</ele>
        <time>2013-04-14T11:27:44Z</time>
      </trkpt>
      <trkpt lat="59.8138694" lon="17.8411868">
        <ele>30.4188</ele>
        <time>2013-04-14T11:27:45Z</time>
      </trkpt>
      <trkpt lat="59.8138249" lon="17.8411558">
        <ele>30.4188</ele>
        <time>2013-04-14T11:27:46Z</time>
      </trkpt>
      <trkpt lat="59.8137846" lon="17.8411241">
        <ele>30.4188</ele>
        <time>2013-04-14T11:27:47Z</time>
      </trkpt>
      <trkpt lat="59.813751" lon="17.8410946">
        <ele>30.4188</ele>
        <time>2013-04-14T11:27:48Z</time>
      </trkpt>
      <trkpt lat="59.8137277" lon="17.8410763">
        <ele>30.8995</ele>
        <time>2013-04-14T11:27:49Z</time>
      </trkpt>
      <trkpt lat="59.8137168" lon="17.8410732">
        <ele>30.4188</ele>
        <time>2013-04-14T11:27:50Z</time>
      </trkpt>
      <trkpt lat="59.8137142" lon="17.8410724">
        <ele>30.4188</ele>
        <time>2013-04-14T11:27:51Z</time>
      </trkpt>
      <trkpt lat="59.8136505" lon="17.8411334">
        <ele>33.3029</ele>
        <time>2013-04-14T11:28:44Z</time>
      </trkpt>
      <trkpt lat="59.8136399" lon="17.8411273">
        <ele>33.3029</ele>
        <time>2013-04-14T11:28:45Z</time>
      </trkpt>
      <trkpt lat="59.813627" lon="17.841122">
        <ele>33.7834</ele>
        <time>2013-04-14T11:28:46Z</time>
      </trkpt>
      <trkpt lat="59.8136062" lon="17.8411214">
        <ele>33.7834</ele>
        <time>2013-04-14T11:28:47Z</time>
      </trkpt>
      <trkpt lat="59.8135798" lon="17.8411161">
        <ele>33.7834</ele>
        <time>2013-04-14T11:28:48Z</time>
      </trkpt>
      <trkpt lat="59.8135495" lon="17.8411089">
        <ele>34.2642</ele>
        <time>2013-04-14T11:28:49Z</time>
      </trkpt>
      <trkpt lat="59.8135158" lon="17.8410997">
        <ele>34.7449</ele>
        <time>2013-04-14T11:28:50Z</time>
      </trkpt>
      <trkpt lat="59.8134794" lon="17.8410837">
        <ele>34.7449</ele>
        <time>2013-04-14T11:28:51Z</time>
      </trkpt>
      <trkpt lat="59.8134412" lon="17.8410643">
        <ele>35.2255</ele>
        <time>2013-04-14T11:28:52Z</time>
      </trkpt>
      <trkpt lat="59.8134013" lon="17.8410449">
        <ele>35.2255</ele>
        <time>2013-04-14T11:28:53Z</time>
      </trkpt>
      <trkpt lat="59.8133573" lon="17.8410284">
        <ele>35.2255</ele>
        <time>2013-04-14T11:28:54Z</time>
      </trkpt>
      <trkpt lat="59.8133112" lon="17.8410095">
        <ele>35.2255</ele>
        <time>2013-04-14T11:28:55Z</time>
      </trkpt>
      <trkpt lat="59.8132633" lon="17.8409874">
        <ele>35.2255</ele>
        <time>2013-04-14T11:28:56Z</time>
      </trkpt>
      <trkpt lat="59.8132139" lon="17.8409664">
        <ele>35.2255</ele>
        <time>2013-04-14T11:28:57Z</time>
      </trkpt>
      <trkpt lat="59.8131644" lon="17.8409448">
        <ele>35.2255</ele>
        <time>2013-04-14T11:28:58Z</time>
      </trkpt>
      <trkpt lat="59.8131175" lon="17.8409269">
        <ele>35.7061</ele>
        <time>2013-04-14T11:28:59Z</time>
      </trkpt>
      <trkpt lat="59.8130712" lon="17.8409095">
        <ele>35.7061</ele>
        <time>2013-04-14T11:29:00Z</time>
      </trkpt>
      <trkpt lat="59.8130266" lon="17.8408889">
        <ele>36.1868</ele>
        <time>2013-04-14T11:29:01Z</time>
      </trkpt>
      <trkpt lat="59.8129836" lon="17.8408702">
        <ele>36.1868</ele>
        <time>2013-04-14T11:29:02Z</time>
      </trkpt>
      <trkpt lat="59.8129422" lon="17.8408501">
        <ele>36.6675</ele>
        <time>2013-04-14T11:29:03Z</time>
      </trkpt>
      <trkpt lat="59.8129045" lon="17.8408276">
        <ele>36.6675</ele>
        <time>2013-04-14T11:29:04Z</time>
      </trkpt>
      <trkpt lat="59.8128673" lon="17.8408029">
        <ele>36.6675</ele>
        <time>2013-04-14T11:29:05Z</time>
      </trkpt>
      <trkpt lat="59.8128313" lon="17.8407822">
        <ele>37.1481</ele>
        <time>2013-04-14T11:29:06Z</time>
      </trkpt>
      <trkpt lat="59.8127935" lon="17.8407621">
        <ele>37.6287</ele>
        <time>2013-04-14T11:29:07Z</time>
      </trkpt>
      <trkpt lat="59.8127585" lon="17.840736">
        <ele>37.6287</ele>
        <time>2013-04-14T11:29:08Z</time>
      </trkpt>
      <trkpt lat="59.8127242" lon="17.8407012">
        <ele>38.1094</ele>
        <time>2013-04-14T11:29:09Z</time>
      </trkpt>
      <trkpt lat="59.8126899" lon="17.8406662">
        <ele>39.0707</ele>
        <time>2013-04-14T11:29:10Z</time>
      </trkpt>
      <trkpt lat="59.8126536" lon="17.8406277">
        <ele>39.0707</ele>
        <time>2013-04-14T11:29:11Z</time>
      </trkpt>
      <trkpt lat="59.8126216" lon="17.8405932">
        <ele>39.5513</ele>
        <time>2013-04-14T11:29:12Z</time>
      </trkpt>
      <trkpt lat="59.8125892" lon="17.8405595">
        <ele>39.5513</ele>
        <time>2013-04-14T11:29:13Z</time>
      </trkpt>
      <trkpt lat="59.8125562" lon="17.8405263">
        <ele>40.0321</ele>
        <time>2013-04-14T11:29:14Z</time>
      </trkpt>
      <trkpt lat="59.8125264" lon="17.8404952">
        <ele>40.5128</ele>
        <time>2013-04-14T11:29:15Z</time>
      </trkpt>
      <trkpt lat="59.812498" lon="17.8404667">
        <ele>40.5128</ele>
        <time>2013-04-14T11:29:16Z</time>
      </trkpt>
      <trkpt lat="59.8124692" lon="17.8404382">
        <ele>40.9934</ele>
        <time>2013-04-14T11:29:17Z</time>
      </trkpt>
      <trkpt lat="59.8124374" lon="17.8404093">
        <ele>40.9934</ele>
        <time>2013-04-14T11:29:18Z</time>
      </trkpt>
      <trkpt lat="59.8124037" lon="17.8403797">
        <ele>40.9934</ele>
        <time>2013-04-14T11:29:19Z</time>
      </trkpt>
      <trkpt lat="59.8123684" lon="17.8403482">
        <ele>41.474</ele>
        <time>2013-04-14T11:29:20Z</time>
      </trkpt>
      <trkpt lat="59.8123293" lon="17.8403168">
        <ele>41.474</ele>
        <time>2013-04-14T11:29:21Z</time>
      </trkpt>
      <trkpt lat="59.812286" lon="17.8402865">
        <ele>41.474</ele>
        <time>2013-04-14T11:29:22Z</time>
      </trkpt>
      <trkpt lat="59.812239" lon="17.8402611">
        <ele>41.474</ele>
        <time>2013-04-14T11:29:23Z</time>
      </trkpt>
      <trkpt lat="59.8121903" lon="17.8402341">
        <ele>41.474</ele>
        <time>2013-04-14T11:29:24Z</time>
      </trkpt>
      <trkpt lat="59.8121389" lon="17.8402082">
        <ele>41.9547</ele>
        <time>2013-04-14T11:29:25Z</time>
      </trkpt>
      <trkpt lat="59.8120856" lon="17.8401839">
        <ele>41.9547</ele>
        <time>2013-04-14T11:29:26Z</time>
      </trkpt>
      <trkpt lat="59.8120291" lon="17.8401622">
        <ele>41.9547</ele>
        <time>2013-04-14T11:29:27Z</time>
      </trkpt>
      <trkpt lat="59.8119688" lon="17.8401435">
        <ele>41.9547</ele>
        <time>2013-04-14T11:29:28Z</time>
      </trkpt>
      <trkpt lat="59.8119059" lon="17.8401298">
        <ele>41.9547</ele>
        <time>2013-04-14T11:29:29Z</time>
      </trkpt>
      <trkpt lat="59.8118421" lon="17.8401203">
        <ele>41.9547</ele>
        <time>2013-04-14T11:29:30Z</time>
      </trkpt>
      <trkpt lat="59.8117764" lon="17.8401202">
        <ele>41.9547</ele>
        <time>2013-04-14T11:29:31Z</time>
      </trkpt>
      <trkpt lat="59.8117116" lon="17.8401241">
        <ele>41.9547</ele>
        <time>2013-04-14T11:29:32Z</time>
      </trkpt>
      <trkpt lat="59.8116473" lon="17.840128">
        <ele>41.9547</ele>
        <time>2013-04-14T11:29:33Z</time>
      </trkpt>
      <trkpt lat="59.8115817" lon="17.8401329">
        <ele>41.474</ele>
        <time>2013-04-14T11:29:34Z</time>
      </trkpt>
      <trkpt lat="59.8115152" lon="17.8401392">
        <ele>41.474</ele>
        <time>2013-04-14T11:29:35Z</time>
      </trkpt>
      <trkpt lat="59.8114483" lon="17.8401466">
        <ele>41.474</ele>
        <time>2013-04-14T11:29:36Z</time>
      </trkpt>
      <trkpt lat="59.8113821" lon="17.8401522">
        <ele>41.474</ele>
        <time>2013-04-14T11:29:37Z</time>
      </trkpt>
      <trkpt lat="59.8113153" lon="17.8401548">
        <ele>41.474</ele>
        <time>2013-04-14T11:29:38Z</time>
      </trkpt>
      <trkpt lat="59.8112474" lon="17.8401571">
        <ele>41.474</ele>
        <time>2013-04-14T11:29:39Z</time>
      </trkpt>
      <trkpt lat="59.8111792" lon="17.8401554">
        <ele>40.9934</ele>
        <time>2013-04-14T11:29:40Z</time>
      </trkpt>
      <trkpt lat="59.8111117" lon="17.840154">
        <ele>40.5128</ele>
        <time>2013-04-14T11:29:41Z</time>
      </trkpt>
      <trkpt lat="59.8110438" lon="17.8401533">
        <ele>40.0321</ele>
        <time>2013-04-14T11:29:42Z</time>
      </trkpt>
      <trkpt lat="59.8109755" lon="17.840157">
        <ele>39.5513</ele>
        <time>2013-04-14T11:29:43Z</time>
      </trkpt>
      <trkpt lat="59.8109074" lon="17.8401688">
        <ele>39.0707</ele>
        <time>2013-04-14T11:29:44Z</time>
      </trkpt>
      <trkpt lat="59.8108373" lon="17.8401865">
        <ele>38.5901</ele>
        <time>2013-04-14T11:29:45Z</time>
      </trkpt>
      <trkpt lat="59.8107667" lon="17.8402174">
        <ele>38.5901</ele>
        <time>2013-04-14T11:29:46Z</time>
      </trkpt>
      <trkpt lat="59.8106966" lon="17.8402645">
        <ele>38.1094</ele>
        <time>2013-04-14T11:29:47Z</time>
      </trkpt>
      <trkpt lat="59.810628" lon="17.8403264">
        <ele>38.1094</ele>
        <time>2013-04-14T11:29:48Z</time>
      </trkpt>
      <trkpt lat="59.8105635" lon="17.8403968">
        <ele>37.6287</ele>
        <time>2013-04-14T11:29:49Z</time>
      </trkpt>
      <trkpt lat="59.8105062" lon="17.8404729">
        <ele>37.1481</ele>
        <time>2013-04-14T11:29:50Z</time>
      </trkpt>
      <trkpt lat="59.8104513" lon="17.8405503">
        <ele>36.1868</ele>
        <time>2013-04-14T11:29:51Z</time>
      </trkpt>
      <trkpt lat="59.8103938" lon="17.8406221">
        <ele>35.2255</ele>
        <time>2013-04-14T11:29:52Z</time>
      </trkpt>
      <trkpt lat="59.8103373" lon="17.8406872">
        <ele>35.2255</ele>
        <time>2013-04-14T11:29:53Z</time>
      </trkpt>
      <trkpt lat="59.8102796" lon="17.8407429">
        <ele>35.2255</ele>
        <time>2013-04-14T11:29:54Z</time>
      </trkpt>
      <trkpt lat="59.8102188" lon="17.8407906">
        <ele>35.2255</ele>
        <time>2013-04-14T11:29:55Z</time>
      </trkpt>
      <trkpt lat="59.810153" lon="17.8408314">
        <ele>34.7449</ele>
        <time>2013-04-14T11:29:56Z</time>
      </trkpt>
      <trkpt lat="59.810085" lon="17.8408572">
        <ele>34.7449</ele>
        <time>2013-04-14T11:29:57Z</time>
      </trkpt>
      <trkpt lat="59.8100195" lon="17.8408806">
        <ele>35.2255</ele>
        <time>2013-04-14T11:29:58Z</time>
      </trkpt>
      <trkpt lat="59.8099581" lon="17.8409106">
        <ele>34.7449</ele>
        <time>2013-04-14T11:29:59Z</time>
      </trkpt>
      <trkpt lat="59.8098981" lon="17.8409453">
        <ele>34.7449</ele>
        <time>2013-04-14T11:30:00Z</time>
      </trkpt>
      <trkpt lat="59.8098364" lon="17.8409837">
        <ele>34.7449</ele>
        <time>2013-04-14T11:30:01Z</time>
      </trkpt>
      <trkpt lat="59.8097681" lon="17.8410284">
        <ele>33.3029</ele>
        <time>2013-04-14T11:30:02Z</time>
      </trkpt>
      <trkpt lat="59.809699" lon="17.8410745">
        <ele>31.8607</ele>
        <time>2013-04-14T11:30:03Z</time>
      </trkpt>
      <trkpt lat="59.809628" lon="17.8411157">
        <ele>31.3801</ele>
        <time>2013-04-14T11:30:04Z</time>
      </trkpt>
      <trkpt lat="59.8095537" lon="17.8411534">
        <ele>31.3801</ele>
        <time>2013-04-14T11:30:05Z</time>
      </trkpt>
      <trkpt lat="59.8094783" lon="17.8411826">
        <ele>31.3801</ele>
        <time>2013-04-14T11:30:06Z</time>
      </trkpt>
      <trkpt lat="59.8094023" lon="17.8412079">
        <ele>31.8607</ele>
        <time>2013-04-14T11:30:07Z</time>
      </trkpt>
      <trkpt lat="59.809329" lon="17.8412412">
        <ele>31.3801</ele>
        <time>2013-04-14T11:30:08Z</time>
      </trkpt>
      <trkpt lat="59.8092578" lon="17.8412894">
        <ele>31.3801</ele>
        <time>2013-04-14T11:30:09Z</time>
      </trkpt>
      <trkpt lat="59.8091868" lon="17.8413495">
        <ele>30.8995</ele>
        <time>2013-04-14T11:30:10Z</time>
      </trkpt>
      <trkpt lat="59.8091205" lon="17.8414199">
        <ele>30.4188</ele>
        <time>2013-04-14T11:30:11Z</time>
      </trkpt>
      <trkpt lat="59.8090567" lon="17.8414985">
        <ele>30.4188</ele>
        <time>2013-04-14T11:30:12Z</time>
      </trkpt>
      <trkpt lat="59.8089946" lon="17.8415825">
        <ele>29.9381</ele>
        <time>2013-04-14T11:30:13Z</time>
      </trkpt>
      <trkpt lat="59.8089326" lon="17.8416659">
        <ele>29.9381</ele>
        <time>2013-04-14T11:30:14Z</time>
      </trkpt>
      <trkpt lat="59.8088681" lon="17.8417379">
        <ele>29.4575</ele>
        <time>2013-04-14T11:30:15Z</time>
      </trkpt>
      <trkpt lat="59.8088031" lon="17.8417991">
        <ele>29.4575</ele>
        <time>2013-04-14T11:30:16Z</time>
      </trkpt>
      <trkpt lat="59.8087391" lon="17.8418571">
        <ele>28.9769</ele>
        <time>2013-04-14T11:30:17Z</time>
      </trkpt>
      <trkpt lat="59.808678" lon="17.8419163">
        <ele>28.4962</ele>
        <time>2013-04-14T11:30:18Z</time>
      </trkpt>
      <trkpt lat="59.8086201" lon="17.8419762">
        <ele>28.4962</ele>
        <time>2013-04-14T11:30:19Z</time>
      </trkpt>
      <trkpt lat="59.8085639" lon="17.8420348">
        <ele>28.4962</ele>
        <time>2013-04-14T11:30:20Z</time>
      </trkpt>
      <trkpt lat="59.8085087" lon="17.8420918">
        <ele>28.4962</ele>
        <time>2013-04-14T11:30:21Z</time>
      </trkpt>
      <trkpt lat="59.8084541" lon="17.8421477">
        <ele>28.4962</ele>
        <time>2013-04-14T11:30:22Z</time>
      </trkpt>
      <trkpt lat="59.8084" lon="17.8422036">
        <ele>28.4962</ele>
        <time>2013-04-14T11:30:23Z</time>
      </trkpt>
      <trkpt lat="59.8083469" lon="17.8422612">
        <ele>28.4962</ele>
        <time>2013-04-14T11:30:24Z</time>
      </trkpt>
      <trkpt lat="59.8082951" lon="17.8423249">
        <ele>28.4962</ele>
        <time>2013-04-14T11:30:25Z</time>
      </trkpt>
      <trkpt lat="59.8082446" lon="17.8423946">
        <ele>28.4962</ele>
        <time>2013-04-14T11:30:26Z</time>
      </trkpt>
      <trkpt lat="59.8081943" lon="17.8424684">
        <ele>28.4962</ele>
        <time>2013-04-14T11:30:27Z</time>
      </trkpt>
      <trkpt lat="59.8081435" lon="17.842545">
        <ele>28.4962</ele>
        <time>2013-04-14T11:30:28Z</time>
      </trkpt>
      <trkpt lat="59.8080918" lon="17.84262">
        <ele>28.4962</ele>
        <time>2013-04-14T11:30:29Z</time>
      </trkpt>
      <trkpt lat="59.8080394" lon="17.8426957">
        <ele>28.0155</ele>
        <time>2013-04-14T11:30:30Z</time>
      </trkpt>
      <trkpt lat="59.8079862" lon="17.842776">
        <ele>28.4962</ele>
        <time>2013-04-14T11:30:31Z</time>
      </trkpt>
      <trkpt lat="59.8079317" lon="17.8428562">
        <ele>28.4962</ele>
        <time>2013-04-14T11:30:32Z</time>
      </trkpt>
      <trkpt lat="59.8078742" lon="17.8429355">
        <ele>28.9769</ele>
        <time>2013-04-14T11:30:33Z</time>
      </trkpt>
      <trkpt lat="59.8078157" lon="17.8430164">
        <ele>28.9769</ele>
        <time>2013-04-14T11:30:34Z</time>
      </trkpt>
      <trkpt lat="59.8077572" lon="17.8431019">
        <ele>28.4962</ele>
        <time>2013-04-14T11:30:35Z</time>
      </trkpt>
      <trkpt lat="59.8076961" lon="17.8431883">
        <ele>28.4962</ele>
        <time>2013-04-14T11:30:36Z</time>
      </trkpt>
      <trkpt lat="59.8076306" lon="17.8432738">
        <ele>28.4962</ele>
        <time>2013-04-14T11:30:37Z</time>
      </trkpt>
      <trkpt lat="59.8075644" lon="17.8433609">
        <ele>28.4962</ele>
        <time>2013-04-14T11:30:38Z</time>
      </trkpt>
      <trkpt lat="59.8074995" lon="17.8434499">
        <ele>28.0155</ele>
        <time>2013-04-14T11:30:39Z</time>
      </trkpt>
      <trkpt lat="59.8074334" lon="17.8435327">
        <ele>28.0155</ele>
        <time>2013-04-14T11:30:40Z</time>
      </trkpt>
      <trkpt lat="59.807368" lon="17.8436147">
        <ele>27.5349</ele>
        <time>2013-04-14T11:30:41Z</time>
      </trkpt>
      <trkpt lat="59.8073032" lon="17.8436963">
        <ele>27.5349</ele>
        <time>2013-04-14T11:30:42Z</time>
      </trkpt>
      <trkpt lat="59.8072395" lon="17.8437763">
        <ele>27.5349</ele>
        <time>2013-04-14T11:30:43Z</time>
      </trkpt>
      <trkpt lat="59.8071765" lon="17.8438575">
        <ele>27.0543</ele>
        <time>2013-04-14T11:30:44Z</time>
      </trkpt>
      <trkpt lat="59.8071125" lon="17.8439389">
        <ele>27.0543</ele>
        <time>2013-04-14T11:30:45Z</time>
      </trkpt>
      <trkpt lat="59.8070468" lon="17.8440213">
        <ele>26.5736</ele>
        <time>2013-04-14T11:30:46Z</time>
      </trkpt>
      <trkpt lat="59.8069821" lon="17.8441076">
        <ele>26.0929</ele>
        <time>2013-04-14T11:30:47Z</time>
      </trkpt>
      <trkpt lat="59.8069165" lon="17.8441974">
        <ele>26.0929</ele>
        <time>2013-04-14T11:30:48Z</time>
      </trkpt>
      <trkpt lat="59.8068498" lon="17.8442884">
        <ele>25.6123</ele>
        <time>2013-04-14T11:30:49Z</time>
      </trkpt>
      <trkpt lat="59.8067797" lon="17.8443737">
        <ele>25.1317</ele>
        <time>2013-04-14T11:30:50Z</time>
      </trkpt>
      <trkpt lat="59.8067058" lon="17.8444528">
        <ele>25.1317</ele>
        <time>2013-04-14T11:30:51Z</time>
      </trkpt>
      <trkpt lat="59.8066287" lon="17.8445279">
        <ele>24.651</ele>
        <time>2013-04-14T11:30:52Z</time>
      </trkpt>
      <trkpt lat="59.8065495" lon="17.8446005">
        <ele>24.1703</ele>
        <time>2013-04-14T11:30:53Z</time>
      </trkpt>
      <trkpt lat="59.8064699" lon="17.8446725">
        <ele>24.1703</ele>
        <time>2013-04-14T11:30:54Z</time>
      </trkpt>
      <trkpt lat="59.8063911" lon="17.8447454">
        <ele>23.6896</ele>
        <time>2013-04-14T11:30:55Z</time>
      </trkpt>
      <trkpt lat="59.8063134" lon="17.84482">
        <ele>23.6896</ele>
        <time>2013-04-14T11:30:56Z</time>
      </trkpt>
      <trkpt lat="59.8062365" lon="17.8448937">
        <ele>23.209</ele>
        <time>2013-04-14T11:30:57Z</time>
      </trkpt>
      <trkpt lat="59.8061612" lon="17.8449693">
        <ele>23.209</ele>
        <time>2013-04-14T11:30:58Z</time>
      </trkpt>
      <trkpt lat="59.806088" lon="17.8450463">
        <ele>23.6896</ele>
        <time>2013-04-14T11:30:59Z</time>
      </trkpt>
      <trkpt lat="59.8060164" lon="17.8451211">
        <ele>23.6896</ele>
        <time>2013-04-14T11:31:00Z</time>
      </trkpt>
      <trkpt lat="59.8059456" lon="17.8451924">
        <ele>24.1703</ele>
        <time>2013-04-14T11:31:01Z</time>
      </trkpt>
      <trkpt lat="59.8058784" lon="17.8452618">
        <ele>24.651</ele>
        <time>2013-04-14T11:31:02Z</time>
      </trkpt>
      <trkpt lat="59.8058156" lon="17.845333">
        <ele>24.651</ele>
        <time>2013-04-14T11:31:03Z</time>
      </trkpt>
      <trkpt lat="59.8057555" lon="17.8454073">
        <ele>24.651</ele>
        <time>2013-04-14T11:31:04Z</time>
      </trkpt>
      <trkpt lat="59.805698" lon="17.8454852">
        <ele>24.651</ele>
        <time>2013-04-14T11:31:05Z</time>
      </trkpt>
      <trkpt lat="59.8056415" lon="17.8455676">
        <ele>24.651</ele>
        <time>2013-04-14T11:31:06Z</time>
      </trkpt>
      <trkpt lat="59.8055846" lon="17.8456509">
        <ele>24.1703</ele>
        <time>2013-04-14T11:31:07Z</time>
      </trkpt>
      <trkpt lat="59.8055233" lon="17.8457238">
        <ele>23.6896</ele>
        <time>2013-04-14T11:31:08Z</time>
      </trkpt>
      <trkpt lat="59.8054566" lon="17.8457784">
        <ele>23.209</ele>
        <time>2013-04-14T11:31:09Z</time>
      </trkpt>
      <trkpt lat="59.8053863" lon="17.8458109">
        <ele>22.7283</ele>
        <time>2013-04-14T11:31:10Z</time>
      </trkpt>
      <trkpt lat="59.8053142" lon="17.8458161">
        <ele>22.2476</ele>
        <time>2013-04-14T11:31:11Z</time>
      </trkpt>
      <trkpt lat="59.8052433" lon="17.8457829">
        <ele>21.767</ele>
        <time>2013-04-14T11:31:12Z</time>
      </trkpt>
      <trkpt lat="59.8051794" lon="17.8457107">
        <ele>21.767</ele>
        <time>2013-04-14T11:31:13Z</time>
      </trkpt>
      <trkpt lat="59.8051235" lon="17.8456138">
        <ele>21.2864</ele>
        <time>2013-04-14T11:31:14Z</time>
      </trkpt>
      <trkpt lat="59.8050743" lon="17.8455044">
        <ele>20.8057</ele>
        <time>2013-04-14T11:31:15Z</time>
      </trkpt>
      <trkpt lat="59.8050285" lon="17.8453894">
        <ele>20.325</ele>
        <time>2013-04-14T11:31:16Z</time>
      </trkpt>
      <trkpt lat="59.8049822" lon="17.8452739">
        <ele>19.8444</ele>
        <time>2013-04-14T11:31:17Z</time>
      </trkpt>
      <trkpt lat="59.804935" lon="17.845161">
        <ele>19.8444</ele>
        <time>2013-04-14T11:31:18Z</time>
      </trkpt>
      <trkpt lat="59.8048873" lon="17.84505">
        <ele>19.3638</ele>
        <time>2013-04-14T11:31:19Z</time>
      </trkpt>
      <trkpt lat="59.804839" lon="17.8449396">
        <ele>18.8831</ele>
        <time>2013-04-14T11:31:20Z</time>
      </trkpt>
      <trkpt lat="59.80479" lon="17.84483">
        <ele>18.8831</ele>
        <time>2013-04-14T11:31:21Z</time>
      </trkpt>
      <trkpt lat="59.8047402" lon="17.8447226">
        <ele>18.4023</ele>
        <time>2013-04-14T11:31:22Z</time>
      </trkpt>
      <trkpt lat="59.8046889" lon="17.844619">
        <ele>18.4023</ele>
        <time>2013-04-14T11:31:23Z</time>
      </trkpt>
      <trkpt lat="59.8046357" lon="17.8445198">
        <ele>17.9218</ele>
        <time>2013-04-14T11:31:24Z</time>
      </trkpt>
      <trkpt lat="59.8045815" lon="17.8444236">
        <ele>17.9218</ele>
        <time>2013-04-14T11:31:25Z</time>
      </trkpt>
      <trkpt lat="59.8045257" lon="17.8443301">
        <ele>17.4412</ele>
        <time>2013-04-14T11:31:26Z</time>
      </trkpt>
      <trkpt lat="59.8044698" lon="17.8442405">
        <ele>17.4412</ele>
        <time>2013-04-14T11:31:27Z</time>
      </trkpt>
      <trkpt lat="59.804414" lon="17.8441541">
        <ele>17.4412</ele>
        <time>2013-04-14T11:31:28Z</time>
      </trkpt>
      <trkpt lat="59.8043583" lon="17.8440709">
        <ele>16.9604</ele>
        <time>2013-04-14T11:31:29Z</time>
      </trkpt>
      <trkpt lat="59.8043023" lon="17.8439913">
        <ele>16.9604</ele>
        <time>2013-04-14T11:31:30Z</time>
      </trkpt>
      <trkpt lat="59.8042448" lon="17.8439168">
        <ele>16.9604</ele>
        <time>2013-04-14T11:31:31Z</time>
      </trkpt>
      <trkpt lat="59.8041857" lon="17.8438438">
        <ele>16.9604</ele>
        <time>2013-04-14T11:31:32Z</time>
      </trkpt>
      <trkpt lat="59.8041259" lon="17.8437716">
        <ele>17.4412</ele>
        <time>2013-04-14T11:31:33Z</time>
      </trkpt>
      <trkpt lat="59.8040655" lon="17.8437005">
        <ele>17.4412</ele>
        <time>2013-04-14T11:31:34Z</time>
      </trkpt>
      <trkpt lat="59.8040045" lon="17.8436298">
        <ele>17.4412</ele>
        <time>2013-04-14T11:31:35Z</time>
      </trkpt>
      <trkpt lat="59.803943" lon="17.8435592">
        <ele>17.4412</ele>
        <time>2013-04-14T11:31:36Z</time>
      </trkpt>
      <trkpt lat="59.8038819" lon="17.8434899">
        <ele>17.4412</ele>
        <time>2013-04-14T11:31:37Z</time>
      </trkpt>
      <trkpt lat="59.8038218" lon="17.8434225">
        <ele>17.4412</ele>
        <time>2013-04-14T11:31:38Z</time>
      </trkpt>
      <trkpt lat="59.8037633" lon="17.8433562">
        <ele>17.4412</ele>
        <time>2013-04-14T11:31:39Z</time>
      </trkpt>
      <trkpt lat="59.8037067" lon="17.8432908">
        <ele>17.4412</ele>
        <time>2013-04-14T11:31:40Z</time>
      </trkpt>
      <trkpt lat="59.8036503" lon="17.8432276">
        <ele>17.4412</ele>
        <time>2013-04-14T11:31:41Z</time>
      </trkpt>
      <trkpt lat="59.8035938" lon="17.8431636">
        <ele>17.4412</ele>
        <time>2013-04-14T11:31:42Z</time>
      </trkpt>
      <trkpt lat="59.8035379" lon="17.8430963">
        <ele>17.4412</ele>
        <time>2013-04-14T11:31:43Z</time>
      </trkpt>
      <trkpt lat="59.8034825" lon="17.8430255">
        <ele>17.4412</ele>
        <time>2013-04-14T11:31:44Z</time>
      </trkpt>
      <trkpt lat="59.8034276" lon="17.8429512">
        <ele>17.4412</ele>
        <time>2013-04-14T11:31:45Z</time>
      </trkpt>
      <trkpt lat="59.8033736" lon="17.8428727">
        <ele>17.4412</ele>
        <time>2013-04-14T11:31:46Z</time>
      </trkpt>
      <trkpt lat="59.8033212" lon="17.8427895">
        <ele>17.4412</ele>
        <time>2013-04-14T11:31:47Z</time>
      </trkpt>
      <trkpt lat="59.8032706" lon="17.8427024">
        <ele>17.4412</ele>
        <time>2013-04-14T11:31:48Z</time>
      </trkpt>
      <trkpt lat="59.8032214" lon="17.8426132">
        <ele>17.4412</ele>
        <time>2013-04-14T11:31:49Z</time>
      </trkpt>
      <trkpt lat="59.8031721" lon="17.8425233">
        <ele>17.4412</ele>
        <time>2013-04-14T11:31:50Z</time>
      </trkpt>
      <trkpt lat="59.8031241" lon="17.8424316">
        <ele>17.4412</ele>
        <time>2013-04-14T11:31:51Z</time>
      </trkpt>
      <trkpt lat="59.8030778" lon="17.8423383">
        <ele>17.4412</ele>
        <time>2013-04-14T11:31:52Z</time>
      </trkpt>
      <trkpt lat="59.8030318" lon="17.8422446">
        <ele>17.4412</ele>
        <time>2013-04-14T11:31:53Z</time>
      </trkpt>
      <trkpt lat="59.8029862" lon="17.8421498">
        <ele>17.4412</ele>
        <time>2013-04-14T11:31:54Z</time>
      </trkpt>
      <trkpt lat="59.8029404" lon="17.8420534">
        <ele>16.9604</ele>
        <time>2013-04-14T11:31:55Z</time>
      </trkpt>
      <trkpt lat="59.8028955" lon="17.8419567">
        <ele>17.4412</ele>
        <time>2013-04-14T11:31:56Z</time>
      </trkpt>
      <trkpt lat="59.8028495" lon="17.8418618">
        <ele>17.4412</ele>
        <time>2013-04-14T11:31:57Z</time>
      </trkpt>
      <trkpt lat="59.8028032" lon="17.841767">
        <ele>17.4412</ele>
        <time>2013-04-14T11:31:58Z</time>
      </trkpt>
      <trkpt lat="59.802757" lon="17.8416715">
        <ele>17.9218</ele>
        <time>2013-04-14T11:31:59Z</time>
      </trkpt>
      <trkpt lat="59.80271" lon="17.8415759">
        <ele>17.9218</ele>
        <time>2013-04-14T11:32:00Z</time>
      </trkpt>
      <trkpt lat="59.8026635" lon="17.8414787">
        <ele>17.9218</ele>
        <time>2013-04-14T11:32:01Z</time>
      </trkpt>
      <trkpt lat="59.8026163" lon="17.8413814">
        <ele>17.9218</ele>
        <time>2013-04-14T11:32:02Z</time>
      </trkpt>
      <trkpt lat="59.8025677" lon="17.8412851">
        <ele>17.9218</ele>
        <time>2013-04-14T11:32:03Z</time>
      </trkpt>
      <trkpt lat="59.8025195" lon="17.8411885">
        <ele>17.9218</ele>
        <time>2013-04-14T11:32:04Z</time>
      </trkpt>
      <trkpt lat="59.8024723" lon="17.8410904">
        <ele>17.9218</ele>
        <time>2013-04-14T11:32:05Z</time>
      </trkpt>
      <trkpt lat="59.8024255" lon="17.8409913">
        <ele>17.9218</ele>
        <time>2013-04-14T11:32:06Z</time>
      </trkpt>
      <trkpt lat="59.8023791" lon="17.840893">
        <ele>18.4023</ele>
        <time>2013-04-14T11:32:07Z</time>
      </trkpt>
      <trkpt lat="59.8023347" lon="17.8407941">
        <ele>18.4023</ele>
        <time>2013-04-14T11:32:08Z</time>
      </trkpt>
      <trkpt lat="59.8022924" lon="17.8406948">
        <ele>18.4023</ele>
        <time>2013-04-14T11:32:09Z</time>
      </trkpt>
      <trkpt lat="59.8022521" lon="17.8405948">
        <ele>18.4023</ele>
        <time>2013-04-14T11:32:10Z</time>
      </trkpt>
      <trkpt lat="59.8022143" lon="17.840492">
        <ele>18.4023</ele>
        <time>2013-04-14T11:32:11Z</time>
      </trkpt>
      <trkpt lat="59.8021796" lon="17.840384">
        <ele>18.4023</ele>
        <time>2013-04-14T11:32:12Z</time>
      </trkpt>
      <trkpt lat="59.8021476" lon="17.8402723">
        <ele>17.9218</ele>
        <time>2013-04-14T11:32:13Z</time>
      </trkpt>
      <trkpt lat="59.802118" lon="17.8401574">
        <ele>17.9218</ele>
        <time>2013-04-14T11:32:14Z</time>
      </trkpt>
      <trkpt lat="59.8020907" lon="17.8400398">
        <ele>17.9218</ele>
        <time>2013-04-14T11:32:15Z</time>
      </trkpt>
      <trkpt lat="59.8020637" lon="17.8399208">
        <ele>17.9218</ele>
        <time>2013-04-14T11:32:16Z</time>
      </trkpt>
      <trkpt lat="59.8020378" lon="17.8398006">
        <ele>17.9218</ele>
        <time>2013-04-14T11:32:17Z</time>
      </trkpt>
      <trkpt lat="59.8020134" lon="17.8396809">
        <ele>17.9218</ele>
        <time>2013-04-14T11:32:18Z</time>
      </trkpt>
      <trkpt lat="59.8019926" lon="17.8395611">
        <ele>17.9218</ele>
        <time>2013-04-14T11:32:19Z</time>
      </trkpt>
      <trkpt lat="59.8019691" lon="17.8394407">
        <ele>17.4412</ele>
        <time>2013-04-14T11:32:20Z</time>
      </trkpt>
      <trkpt lat="59.8019409" lon="17.8393264">
        <ele>17.4412</ele>
        <time>2013-04-14T11:32:21Z</time>
      </trkpt>
      <trkpt lat="59.8019119" lon="17.839214">
        <ele>16.9604</ele>
        <time>2013-04-14T11:32:22Z</time>
      </trkpt>
      <trkpt lat="59.8018817" lon="17.8391009">
        <ele>16.9604</ele>
        <time>2013-04-14T11:32:23Z</time>
      </trkpt>
      <trkpt lat="59.8018511" lon="17.838991">
        <ele>16.9604</ele>
        <time>2013-04-14T11:32:24Z</time>
      </trkpt>
      <trkpt lat="59.8018181" lon="17.8388861">
        <ele>16.4797</ele>
        <time>2013-04-14T11:32:25Z</time>
      </trkpt>
      <trkpt lat="59.8017825" lon="17.8387878">
        <ele>16.4797</ele>
        <time>2013-04-14T11:32:26Z</time>
      </trkpt>
      <trkpt lat="59.8017472" lon="17.8386931">
        <ele>16.4797</ele>
        <time>2013-04-14T11:32:27Z</time>
      </trkpt>
      <trkpt lat="59.8017135" lon="17.8385993">
        <ele>16.4797</ele>
        <time>2013-04-14T11:32:28Z</time>
      </trkpt>
      <trkpt lat="59.8016813" lon="17.8385076">
        <ele>16.4797</ele>
        <time>2013-04-14T11:32:29Z</time>
      </trkpt>
      <trkpt lat="59.8016492" lon="17.8384232">
        <ele>16.4797</ele>
        <time>2013-04-14T11:32:30Z</time>
      </trkpt>
      <trkpt lat="59.8016133" lon="17.8383403">
        <ele>16.4797</ele>
        <time>2013-04-14T11:32:31Z</time>
      </trkpt>
      <trkpt lat="59.8015767" lon="17.8382501">
        <ele>16.4797</ele>
        <time>2013-04-14T11:32:32Z</time>
      </trkpt>
      <trkpt lat="59.801542" lon="17.8381544">
        <ele>16.4797</ele>
        <time>2013-04-14T11:32:33Z</time>
      </trkpt>
      <trkpt lat="59.8015061" lon="17.838058">
        <ele>16.4797</ele>
        <time>2013-04-14T11:32:34Z</time>
      </trkpt>
      <trkpt lat="59.8014688" lon="17.8379626">
        <ele>16.9604</ele>
        <time>2013-04-14T11:32:35Z</time>
      </trkpt>
      <trkpt lat="59.8014322" lon="17.8378684">
        <ele>16.9604</ele>
        <time>2013-04-14T11:32:36Z</time>
      </trkpt>
      <trkpt lat="59.8013965" lon="17.8377761">
        <ele>16.9604</ele>
        <time>2013-04-14T11:32:37Z</time>
      </trkpt>
      <trkpt lat="59.8013623" lon="17.8376865">
        <ele>16.9604</ele>
        <time>2013-04-14T11:32:38Z</time>
      </trkpt>
      <trkpt lat="59.8013291" lon="17.8375969">
        <ele>16.9604</ele>
        <time>2013-04-14T11:32:39Z</time>
      </trkpt>
      <trkpt lat="59.801297" lon="17.8375068">
        <ele>16.9604</ele>
        <time>2013-04-14T11:32:40Z</time>
      </trkpt>
      <trkpt lat="59.8012655" lon="17.8374189">
        <ele>16.9604</ele>
        <time>2013-04-14T11:32:41Z</time>
      </trkpt>
      <trkpt lat="59.8012346" lon="17.8373331">
        <ele>17.4412</ele>
        <time>2013-04-14T11:32:42Z</time>
      </trkpt>
      <trkpt lat="59.8012037" lon="17.8372489">
        <ele>17.4412</ele>
        <time>2013-04-14T11:32:43Z</time>
      </trkpt>
      <trkpt lat="59.8011732" lon="17.8371655">
        <ele>17.4412</ele>
        <time>2013-04-14T11:32:44Z</time>
      </trkpt>
      <trkpt lat="59.8011436" lon="17.8370848">
        <ele>17.4412</ele>
        <time>2013-04-14T11:32:45Z</time>
      </trkpt>
      <trkpt lat="59.8011157" lon="17.8370071">
        <ele>17.4412</ele>
        <time>2013-04-14T11:32:46Z</time>
      </trkpt>
      <trkpt lat="59.8010887" lon="17.8369294">
        <ele>17.9218</ele>
        <time>2013-04-14T11:32:47Z</time>
      </trkpt>
      <trkpt lat="59.8010638" lon="17.836852">
        <ele>17.9218</ele>
        <time>2013-04-14T11:32:48Z</time>
      </trkpt>
      <trkpt lat="59.8010401" lon="17.8367744">
        <ele>17.9218</ele>
        <time>2013-04-14T11:32:49Z</time>
      </trkpt>
      <trkpt lat="59.8010172" lon="17.8367013">
        <ele>17.9218</ele>
        <time>2013-04-14T11:32:50Z</time>
      </trkpt>
      <trkpt lat="59.8009938" lon="17.8366304">
        <ele>18.4023</ele>
        <time>2013-04-14T11:32:51Z</time>
      </trkpt>
      <trkpt lat="59.8009691" lon="17.8365608">
        <ele>18.4023</ele>
        <time>2013-04-14T11:32:52Z</time>
      </trkpt>
      <trkpt lat="59.8009447" lon="17.8364895">
        <ele>18.4023</ele>
        <time>2013-04-14T11:32:53Z</time>
      </trkpt>
      <trkpt lat="59.8009214" lon="17.8364138">
        <ele>18.4023</ele>
        <time>2013-04-14T11:32:54Z</time>
      </trkpt>
      <trkpt lat="59.8008987" lon="17.8363394">
        <ele>18.4023</ele>
        <time>2013-04-14T11:32:55Z</time>
      </trkpt>
      <trkpt lat="59.8008754" lon="17.8362663">
        <ele>18.8831</ele>
        <time>2013-04-14T11:32:56Z</time>
      </trkpt>
      <trkpt lat="59.8008539" lon="17.836194">
        <ele>18.8831</ele>
        <time>2013-04-14T11:32:57Z</time>
      </trkpt>
      <trkpt lat="59.8008339" lon="17.8361242">
        <ele>18.8831</ele>
        <time>2013-04-14T11:32:58Z</time>
      </trkpt>
      <trkpt lat="59.8008142" lon="17.8360578">
        <ele>18.8831</ele>
        <time>2013-04-14T11:32:59Z</time>
      </trkpt>
      <trkpt lat="59.8007959" lon="17.8359933">
        <ele>19.3638</ele>
        <time>2013-04-14T11:33:00Z</time>
      </trkpt>
      <trkpt lat="59.8007775" lon="17.8359309">
        <ele>19.3638</ele>
        <time>2013-04-14T11:33:01Z</time>
      </trkpt>
      <trkpt lat="59.8007599" lon="17.83587">
        <ele>19.3638</ele>
        <time>2013-04-14T11:33:02Z</time>
      </trkpt>
      <trkpt lat="59.8007427" lon="17.8358099">
        <ele>19.3638</ele>
        <time>2013-04-14T11:33:03Z</time>
      </trkpt>
      <trkpt lat="59.8007237" lon="17.8357523">
        <ele>19.8444</ele>
        <time>2013-04-14T11:33:04Z</time>
      </trkpt>
      <trkpt lat="59.800704" lon="17.8356948">
        <ele>19.8444</ele>
        <time>2013-04-14T11:33:05Z</time>
      </trkpt>
      <trkpt lat="59.8006853" lon="17.8356369">
        <ele>19.8444</ele>
        <time>2013-04-14T11:33:06Z</time>
      </trkpt>
      <trkpt lat="59.8006681" lon="17.8355793">
        <ele>20.325</ele>
        <time>2013-04-14T11:33:07Z</time>
      </trkpt>
      <trkpt lat="59.8006504" lon="17.8355221">
        <ele>20.325</ele>
        <time>2013-04-14T11:33:08Z</time>
      </trkpt>
      <trkpt lat="59.8006319" lon="17.8354664">
        <ele>20.325</ele>
        <time>2013-04-14T11:33:09Z</time>
      </trkpt>
      <trkpt lat="59.8006131" lon="17.8354118">
        <ele>20.325</ele>
        <time>2013-04-14T11:33:10Z</time>
      </trkpt>
      <trkpt lat="59.8005951" lon="17.8353584">
        <ele>20.8057</ele>
        <time>2013-04-14T11:33:11Z</time>
      </trkpt>
      <trkpt lat="59.8005775" lon="17.8353072">
        <ele>20.8057</ele>
        <time>2013-04-14T11:33:12Z</time>
      </trkpt>
      <trkpt lat="59.8005586" lon="17.8352597">
        <ele>20.8057</ele>
        <time>2013-04-14T11:33:13Z</time>
      </trkpt>
      <trkpt lat="59.8005386" lon="17.8352156">
        <ele>21.2864</ele>
        <time>2013-04-14T11:33:14Z</time>
      </trkpt>
      <trkpt lat="59.8005182" lon="17.8351727">
        <ele>21.2864</ele>
        <time>2013-04-14T11:33:15Z</time>
      </trkpt>
      <trkpt lat="59.8004959" lon="17.8351333">
        <ele>21.2864</ele>
        <time>2013-04-14T11:33:16Z</time>
      </trkpt>
      <trkpt lat="59.8004713" lon="17.8350971">
        <ele>21.2864</ele>
        <time>2013-04-14T11:33:17Z</time>
      </trkpt>
      <trkpt lat="59.8004463" lon="17.8350599">
        <ele>21.2864</ele>
        <time>2013-04-14T11:33:18Z</time>
      </trkpt>
      <trkpt lat="59.800419" lon="17.8350203">
        <ele>21.767</ele>
        <time>2013-04-14T11:33:19Z</time>
      </trkpt>
      <trkpt lat="59.8003895" lon="17.8349863">
        <ele>21.767</ele>
        <time>2013-04-14T11:33:20Z</time>
      </trkpt>
      <trkpt lat="59.8003578" lon="17.8349575">
        <ele>21.767</ele>
        <time>2013-04-14T11:33:21Z</time>
      </trkpt>
      <trkpt lat="59.800324" lon="17.834933">
        <ele>21.767</ele>
        <time>2013-04-14T11:33:22Z</time>
      </trkpt>
      <trkpt lat="59.8002884" lon="17.8349161">
        <ele>21.767</ele>
        <time>2013-04-14T11:33:23Z</time>
      </trkpt>
      <trkpt lat="59.8002516" lon="17.8349078">
        <ele>21.767</ele>
        <time>2013-04-14T11:33:24Z</time>
      </trkpt>
      <trkpt lat="59.8002128" lon="17.834907">
        <ele>21.767</ele>
        <time>2013-04-14T11:33:25Z</time>
      </trkpt>
      <trkpt lat="59.800174" lon="17.8349109">
        <ele>21.767</ele>
        <time>2013-04-14T11:33:26Z</time>
      </trkpt>
      <trkpt lat="59.8001355" lon="17.8349221">
        <ele>21.767</ele>
        <time>2013-04-14T11:33:27Z</time>
      </trkpt>
      <trkpt lat="59.8000976" lon="17.8349413">
        <ele>21.767</ele>
        <time>2013-04-14T11:33:28Z</time>
      </trkpt>
      <trkpt lat="59.800061" lon="17.834965">
        <ele>21.767</ele>
        <time>2013-04-14T11:33:29Z</time>
      </trkpt>
      <trkpt lat="59.8000245" lon="17.8349923">
        <ele>22.2476</ele>
        <time>2013-04-14T11:33:30Z</time>
      </trkpt>
      <trkpt lat="59.7999883" lon="17.8350233">
        <ele>22.2476</ele>
        <time>2013-04-14T11:33:31Z</time>
      </trkpt>
      <trkpt lat="59.7999525" lon="17.8350567">
        <ele>22.2476</ele>
        <time>2013-04-14T11:33:32Z</time>
      </trkpt>
      <trkpt lat="59.7999173" lon="17.8350924">
        <ele>22.2476</ele>
        <time>2013-04-14T11:33:33Z</time>
      </trkpt>
      <trkpt lat="59.7998821" lon="17.8351283">
        <ele>22.2476</ele>
        <time>2013-04-14T11:33:34Z</time>
      </trkpt>
      <trkpt lat="59.7998455" lon="17.8351642">
        <ele>22.2476</ele>
        <time>2013-04-14T11:33:35Z</time>
      </trkpt>
      <trkpt lat="59.7998073" lon="17.8352001">
        <ele>22.2476</ele>
        <time>2013-04-14T11:33:36Z</time>
      </trkpt>
      <trkpt lat="59.7997671" lon="17.8352364">
        <ele>22.2476</ele>
        <time>2013-04-14T11:33:37Z</time>
      </trkpt>
      <trkpt lat="59.7997253" lon="17.8352736">
        <ele>22.2476</ele>
        <time>2013-04-14T11:33:38Z</time>
      </trkpt>
      <trkpt lat="59.7996822" lon="17.835311">
        <ele>21.767</ele>
        <time>2013-04-14T11:33:39Z</time>
      </trkpt>
      <trkpt lat="59.7996367" lon="17.8353457">
        <ele>22.2476</ele>
        <time>2013-04-14T11:33:40Z</time>
      </trkpt>
      <trkpt lat="59.7995896" lon="17.8353809">
        <ele>22.2476</ele>
        <time>2013-04-14T11:33:41Z</time>
      </trkpt>
      <trkpt lat="59.7995416" lon="17.8354216">
        <ele>22.2476</ele>
        <time>2013-04-14T11:33:42Z</time>
      </trkpt>
      <trkpt lat="59.7994927" lon="17.8354648">
        <ele>21.767</ele>
        <time>2013-04-14T11:33:43Z</time>
      </trkpt>
      <trkpt lat="59.7994441" lon="17.8355103">
        <ele>21.767</ele>
        <time>2013-04-14T11:33:44Z</time>
      </trkpt>
      <trkpt lat="59.799395" lon="17.83556">
        <ele>21.767</ele>
        <time>2013-04-14T11:33:45Z</time>
      </trkpt>
      <trkpt lat="59.7993451" lon="17.8356123">
        <ele>21.767</ele>
        <time>2013-04-14T11:33:46Z</time>
      </trkpt>
      <trkpt lat="59.7992952" lon="17.8356664">
        <ele>21.2864</ele>
        <time>2013-04-14T11:33:47Z</time>
      </trkpt>
      <trkpt lat="59.7992468" lon="17.835725">
        <ele>21.2864</ele>
        <time>2013-04-14T11:33:48Z</time>
      </trkpt>
      <trkpt lat="59.7991995" lon="17.8357853">
        <ele>21.2864</ele>
        <time>2013-04-14T11:33:49Z</time>
      </trkpt>
      <trkpt lat="59.7991525" lon="17.8358441">
        <ele>21.2864</ele>
        <time>2013-04-14T11:33:50Z</time>
      </trkpt>
      <trkpt lat="59.7991037" lon="17.8358963">
        <ele>21.2864</ele>
        <time>2013-04-14T11:33:51Z</time>
      </trkpt>
      <trkpt lat="59.799055" lon="17.8359456">
        <ele>21.2864</ele>
        <time>2013-04-14T11:33:52Z</time>
      </trkpt>
      <trkpt lat="59.7990078" lon="17.8359966">
        <ele>21.2864</ele>
        <time>2013-04-14T11:33:53Z</time>
      </trkpt>
      <trkpt lat="59.7989614" lon="17.8360466">
        <ele>21.2864</ele>
        <time>2013-04-14T11:33:54Z</time>
      </trkpt>
      <trkpt lat="59.7989161" lon="17.8360932">
        <ele>21.2864</ele>
        <time>2013-04-14T11:33:55Z</time>
      </trkpt>
      <trkpt lat="59.7988733" lon="17.8361362">
        <ele>21.2864</ele>
        <time>2013-04-14T11:33:56Z</time>
      </trkpt>
      <trkpt lat="59.7988334" lon="17.8361709">
        <ele>21.2864</ele>
        <time>2013-04-14T11:33:57Z</time>
      </trkpt>
      <trkpt lat="59.7987976" lon="17.8361945">
        <ele>21.2864</ele>
        <time>2013-04-14T11:33:58Z</time>
      </trkpt>
      <trkpt lat="59.7987665" lon="17.8362092">
        <ele>21.2864</ele>
        <time>2013-04-14T11:33:59Z</time>
      </trkpt>
      <trkpt lat="59.7987402" lon="17.8362108">
        <ele>21.2864</ele>
        <time>2013-04-14T11:34:00Z</time>
      </trkpt>
      <trkpt lat="59.7987178" lon="17.8361938">
        <ele>21.2864</ele>
        <time>2013-04-14T11:34:01Z</time>
      </trkpt>
      <trkpt lat="59.7986998" lon="17.8361692">
        <ele>21.2864</ele>
        <time>2013-04-14T11:34:02Z</time>
      </trkpt>
      <trkpt lat="59.7986862" lon="17.8361357">
        <ele>21.2864</ele>
        <time>2013-04-14T11:34:03Z</time>
      </trkpt>
      <trkpt lat="59.7986805" lon="17.8360875">
        <ele>21.2864</ele>
        <time>2013-04-14T11:34:04Z</time>
      </trkpt>
      <trkpt lat="59.7986817" lon="17.836028">
        <ele>21.2864</ele>
        <time>2013-04-14T11:34:05Z</time>
      </trkpt>
      <trkpt lat="59.7986866" lon="17.8359617">
        <ele>21.2864</ele>
        <time>2013-04-14T11:34:06Z</time>
      </trkpt>
      <trkpt lat="59.7986948" lon="17.8358886">
        <ele>21.2864</ele>
        <time>2013-04-14T11:34:07Z</time>
      </trkpt>
      <trkpt lat="59.7987041" lon="17.8358058">
        <ele>21.2864</ele>
        <time>2013-04-14T11:34:08Z</time>
      </trkpt>
      <trkpt lat="59.7987111" lon="17.8357126">
        <ele>20.8057</ele>
        <time>2013-04-14T11:34:09Z</time>
      </trkpt>
      <trkpt lat="59.7987163" lon="17.8356128">
        <ele>20.8057</ele>
        <time>2013-04-14T11:34:10Z</time>
      </trkpt>
      <trkpt lat="59.7987193" lon="17.8355084">
        <ele>20.8057</ele>
        <time>2013-04-14T11:34:11Z</time>
      </trkpt>
      <trkpt lat="59.7987183" lon="17.835399">
        <ele>20.325</ele>
        <time>2013-04-14T11:34:12Z</time>
      </trkpt>
      <trkpt lat="59.798713" lon="17.8352868">
        <ele>20.325</ele>
        <time>2013-04-14T11:34:13Z</time>
      </trkpt>
      <trkpt lat="59.7987037" lon="17.8351743">
        <ele>20.325</ele>
        <time>2013-04-14T11:34:14Z</time>
      </trkpt>
      <trkpt lat="59.7986893" lon="17.8350623">
        <ele>20.325</ele>
        <time>2013-04-14T11:34:15Z</time>
      </trkpt>
      <trkpt lat="59.798672" lon="17.8349505">
        <ele>20.325</ele>
        <time>2013-04-14T11:34:16Z</time>
      </trkpt>
      <trkpt lat="59.7986542" lon="17.8348391">
        <ele>20.325</ele>
        <time>2013-04-14T11:34:17Z</time>
      </trkpt>
      <trkpt lat="59.798635" lon="17.8347285">
        <ele>20.8057</ele>
        <time>2013-04-14T11:34:18Z</time>
      </trkpt>
      <trkpt lat="59.7986154" lon="17.8346185">
        <ele>20.8057</ele>
        <time>2013-04-14T11:34:19Z</time>
      </trkpt>
      <trkpt lat="59.7985971" lon="17.834509">
        <ele>20.8057</ele>
        <time>2013-04-14T11:34:20Z</time>
      </trkpt>
      <trkpt lat="59.7985795" lon="17.8344003">
        <ele>21.2864</ele>
        <time>2013-04-14T11:34:21Z</time>
      </trkpt>
      <trkpt lat="59.7985634" lon="17.8342924">
        <ele>21.2864</ele>
        <time>2013-04-14T11:34:22Z</time>
      </trkpt>
      <trkpt lat="59.7985506" lon="17.8341849">
        <ele>21.767</ele>
        <time>2013-04-14T11:34:23Z</time>
      </trkpt>
      <trkpt lat="59.7985399" lon="17.8340781">
        <ele>21.767</ele>
        <time>2013-04-14T11:34:24Z</time>
      </trkpt>
      <trkpt lat="59.7985309" lon="17.833972">
        <ele>21.767</ele>
        <time>2013-04-14T11:34:25Z</time>
      </trkpt>
      <trkpt lat="59.798525" lon="17.8338663">
        <ele>21.767</ele>
        <time>2013-04-14T11:34:26Z</time>
      </trkpt>
      <trkpt lat="59.7985208" lon="17.8337616">
        <ele>22.2476</ele>
        <time>2013-04-14T11:34:27Z</time>
      </trkpt>
      <trkpt lat="59.7985189" lon="17.8336566">
        <ele>22.2476</ele>
        <time>2013-04-14T11:34:28Z</time>
      </trkpt>
      <trkpt lat="59.7985183" lon="17.8335496">
        <ele>22.2476</ele>
        <time>2013-04-14T11:34:29Z</time>
      </trkpt>
      <trkpt lat="59.7985169" lon="17.8334424">
        <ele>22.2476</ele>
        <time>2013-04-14T11:34:30Z</time>
      </trkpt>
      <trkpt lat="59.7985172" lon="17.8333358">
        <ele>22.2476</ele>
        <time>2013-04-14T11:34:31Z</time>
      </trkpt>
      <trkpt lat="59.7985193" lon="17.8332296">
        <ele>22.2476</ele>
        <time>2013-04-14T11:34:32Z</time>
      </trkpt>
      <trkpt lat="59.798521" lon="17.8331245">
        <ele>22.2476</ele>
        <time>2013-04-14T11:34:33Z</time>
      </trkpt>
      <trkpt lat="59.7985216" lon="17.8330202">
        <ele>22.2476</ele>
        <time>2013-04-14T11:34:34Z</time>
      </trkpt>
      <trkpt lat="59.7985223" lon="17.8329145">
        <ele>22.2476</ele>
        <time>2013-04-14T11:34:35Z</time>
      </trkpt>
      <trkpt lat="59.7985209" lon="17.8328063">
        <ele>21.767</ele>
        <time>2013-04-14T11:34:36Z</time>
      </trkpt>
      <trkpt lat="59.7985151" lon="17.8326938">
        <ele>21.767</ele>
        <time>2013-04-14T11:34:37Z</time>
      </trkpt>
      <trkpt lat="59.7985085" lon="17.8325785">
        <ele>21.2864</ele>
        <time>2013-04-14T11:34:38Z</time>
      </trkpt>
      <trkpt lat="59.7985019" lon="17.8324613">
        <ele>21.2864</ele>
        <time>2013-04-14T11:34:39Z</time>
      </trkpt>
      <trkpt lat="59.7984929" lon="17.8323452">
        <ele>21.2864</ele>
        <time>2013-04-14T11:34:40Z</time>
      </trkpt>
      <trkpt lat="59.7984832" lon="17.8322318">
        <ele>21.2864</ele>
        <time>2013-04-14T11:34:41Z</time>
      </trkpt>
      <trkpt lat="59.7984753" lon="17.8321212">
        <ele>20.8057</ele>
        <time>2013-04-14T11:34:42Z</time>
      </trkpt>
      <trkpt lat="59.7984706" lon="17.8320059">
        <ele>21.2864</ele>
        <time>2013-04-14T11:34:43Z</time>
      </trkpt>
      <trkpt lat="59.7984662" lon="17.8318864">
        <ele>20.8057</ele>
        <time>2013-04-14T11:34:44Z</time>
      </trkpt>
      <trkpt lat="59.7984629" lon="17.8317626">
        <ele>20.8057</ele>
        <time>2013-04-14T11:34:45Z</time>
      </trkpt>
      <trkpt lat="59.7984648" lon="17.8316314">
        <ele>21.2864</ele>
        <time>2013-04-14T11:34:46Z</time>
      </trkpt>
      <trkpt lat="59.7984711" lon="17.8314995">
        <ele>20.8057</ele>
        <time>2013-04-14T11:34:47Z</time>
      </trkpt>
      <trkpt lat="59.798482" lon="17.8313617">
        <ele>20.8057</ele>
        <time>2013-04-14T11:34:48Z</time>
      </trkpt>
      <trkpt lat="59.798492" lon="17.8312219">
        <ele>20.8057</ele>
        <time>2013-04-14T11:34:49Z</time>
      </trkpt>
      <trkpt lat="59.7984949" lon="17.831083">
        <ele>20.325</ele>
        <time>2013-04-14T11:34:50Z</time>
      </trkpt>
      <trkpt lat="59.7984894" lon="17.8309447">
        <ele>20.325</ele>
        <time>2013-04-14T11:34:51Z</time>
      </trkpt>
      <trkpt lat="59.7984767" lon="17.8308074">
        <ele>19.8444</ele>
        <time>2013-04-14T11:34:52Z</time>
      </trkpt>
      <trkpt lat="59.7984561" lon="17.8306741">
        <ele>19.8444</ele>
        <time>2013-04-14T11:34:53Z</time>
      </trkpt>
      <trkpt lat="59.7984328" lon="17.8305427">
        <ele>19.8444</ele>
        <time>2013-04-14T11:34:54Z</time>
      </trkpt>
      <trkpt lat="59.7984084" lon="17.830412">
        <ele>19.3638</ele>
        <time>2013-04-14T11:34:55Z</time>
      </trkpt>
      <trkpt lat="59.7983824" lon="17.8302799">
        <ele>19.3638</ele>
        <time>2013-04-14T11:34:56Z</time>
      </trkpt>
      <trkpt lat="59.798354" lon="17.830146">
        <ele>18.8831</ele>
        <time>2013-04-14T11:34:57Z</time>
      </trkpt>
      <trkpt lat="59.7983246" lon="17.83001">
        <ele>18.8831</ele>
        <time>2013-04-14T11:34:58Z</time>
      </trkpt>
      <trkpt lat="59.7982955" lon="17.8298724">
        <ele>18.4023</ele>
        <time>2013-04-14T11:34:59Z</time>
      </trkpt>
      <trkpt lat="59.798268" lon="17.8297377">
        <ele>18.4023</ele>
        <time>2013-04-14T11:35:00Z</time>
      </trkpt>
      <trkpt lat="59.7982408" lon="17.8296036">
        <ele>18.4023</ele>
        <time>2013-04-14T11:35:01Z</time>
      </trkpt>
      <trkpt lat="59.7982148" lon="17.829473">
        <ele>18.4023</ele>
        <time>2013-04-14T11:35:02Z</time>
      </trkpt>
      <trkpt lat="59.7981903" lon="17.829346">
        <ele>17.9218</ele>
        <time>2013-04-14T11:35:03Z</time>
      </trkpt>
      <trkpt lat="59.7981685" lon="17.8292209">
        <ele>17.9218</ele>
        <time>2013-04-14T11:35:04Z</time>
      </trkpt>
      <trkpt lat="59.7981474" lon="17.829098">
        <ele>17.9218</ele>
        <time>2013-04-14T11:35:05Z</time>
      </trkpt>
      <trkpt lat="59.7981252" lon="17.8289777">
        <ele>17.9218</ele>
        <time>2013-04-14T11:35:06Z</time>
      </trkpt>
      <trkpt lat="59.7981038" lon="17.8288588">
        <ele>17.9218</ele>
        <time>2013-04-14T11:35:07Z</time>
      </trkpt>
      <trkpt lat="59.7980822" lon="17.8287409">
        <ele>17.9218</ele>
        <time>2013-04-14T11:35:08Z</time>
      </trkpt>
      <trkpt lat="59.7980598" lon="17.8286225">
        <ele>17.9218</ele>
        <time>2013-04-14T11:35:09Z</time>
      </trkpt>
      <trkpt lat="59.7980371" lon="17.8285007">
        <ele>17.9218</ele>
        <time>2013-04-14T11:35:10Z</time>
      </trkpt>
      <trkpt lat="59.7980145" lon="17.8283743">
        <ele>17.9218</ele>
        <time>2013-04-14T11:35:11Z</time>
      </trkpt>
      <trkpt lat="59.7979924" lon="17.8282449">
        <ele>17.9218</ele>
        <time>2013-04-14T11:35:12Z</time>
      </trkpt>
      <trkpt lat="59.7979707" lon="17.8281147">
        <ele>17.9218</ele>
        <time>2013-04-14T11:35:13Z</time>
      </trkpt>
      <trkpt lat="59.7979507" lon="17.8279836">
        <ele>17.9218</ele>
        <time>2013-04-14T11:35:14Z</time>
      </trkpt>
      <trkpt lat="59.7979329" lon="17.8278517">
        <ele>17.9218</ele>
        <time>2013-04-14T11:35:15Z</time>
      </trkpt>
      <trkpt lat="59.7979155" lon="17.82772">
        <ele>17.9218</ele>
        <time>2013-04-14T11:35:16Z</time>
      </trkpt>
      <trkpt lat="59.7978997" lon="17.8275878">
        <ele>17.9218</ele>
        <time>2013-04-14T11:35:17Z</time>
      </trkpt>
      <trkpt lat="59.7978849" lon="17.8274552">
        <ele>17.4412</ele>
        <time>2013-04-14T11:35:18Z</time>
      </trkpt>
      <trkpt lat="59.7978709" lon="17.8273232">
        <ele>17.4412</ele>
        <time>2013-04-14T11:35:19Z</time>
      </trkpt>
      <trkpt lat="59.7978579" lon="17.8271926">
        <ele>17.9218</ele>
        <time>2013-04-14T11:35:20Z</time>
      </trkpt>
      <trkpt lat="59.7978456" lon="17.8270636">
        <ele>17.9218</ele>
        <time>2013-04-14T11:35:21Z</time>
      </trkpt>
      <trkpt lat="59.7978352" lon="17.8269354">
        <ele>17.9218</ele>
        <time>2013-04-14T11:35:22Z</time>
      </trkpt>
      <trkpt lat="59.7978277" lon="17.8268089">
        <ele>17.9218</ele>
        <time>2013-04-14T11:35:23Z</time>
      </trkpt>
      <trkpt lat="59.7978226" lon="17.8266839">
        <ele>17.9218</ele>
        <time>2013-04-14T11:35:24Z</time>
      </trkpt>
      <trkpt lat="59.797819" lon="17.8265597">
        <ele>17.9218</ele>
        <time>2013-04-14T11:35:25Z</time>
      </trkpt>
      <trkpt lat="59.7978145" lon="17.8264365">
        <ele>17.4412</ele>
        <time>2013-04-14T11:35:26Z</time>
      </trkpt>
      <trkpt lat="59.7978085" lon="17.8263138">
        <ele>17.4412</ele>
        <time>2013-04-14T11:35:27Z</time>
      </trkpt>
      <trkpt lat="59.7978025" lon="17.8261925">
        <ele>17.4412</ele>
        <time>2013-04-14T11:35:28Z</time>
      </trkpt>
      <trkpt lat="59.7977956" lon="17.826074">
        <ele>16.9604</ele>
        <time>2013-04-14T11:35:29Z</time>
      </trkpt>
      <trkpt lat="59.7977864" lon="17.8259579">
        <ele>16.9604</ele>
        <time>2013-04-14T11:35:30Z</time>
      </trkpt>
      <trkpt lat="59.7977762" lon="17.8258418">
        <ele>16.9604</ele>
        <time>2013-04-14T11:35:31Z</time>
      </trkpt>
      <trkpt lat="59.7977646" lon="17.8257274">
        <ele>16.9604</ele>
        <time>2013-04-14T11:35:32Z</time>
      </trkpt>
      <trkpt lat="59.7977512" lon="17.8256154">
        <ele>16.9604</ele>
        <time>2013-04-14T11:35:33Z</time>
      </trkpt>
      <trkpt lat="59.7977383" lon="17.825504">
        <ele>16.9604</ele>
        <time>2013-04-14T11:35:34Z</time>
      </trkpt>
      <trkpt lat="59.7977258" lon="17.8253927">
        <ele>16.9604</ele>
        <time>2013-04-14T11:35:35Z</time>
      </trkpt>
      <trkpt lat="59.7977122" lon="17.8252828">
        <ele>16.9604</ele>
        <time>2013-04-14T11:35:36Z</time>
      </trkpt>
      <trkpt lat="59.7976978" lon="17.8251729">
        <ele>16.9604</ele>
        <time>2013-04-14T11:35:37Z</time>
      </trkpt>
      <trkpt lat="59.7976831" lon="17.8250633">
        <ele>16.9604</ele>
        <time>2013-04-14T11:35:38Z</time>
      </trkpt>
      <trkpt lat="59.7976674" lon="17.8249539">
        <ele>16.4797</ele>
        <time>2013-04-14T11:35:39Z</time>
      </trkpt>
      <trkpt lat="59.7976522" lon="17.8248439">
        <ele>16.4797</ele>
        <time>2013-04-14T11:35:40Z</time>
      </trkpt>
      <trkpt lat="59.7976363" lon="17.8247344">
        <ele>16.4797</ele>
        <time>2013-04-14T11:35:41Z</time>
      </trkpt>
      <trkpt lat="59.7976197" lon="17.8246255">
        <ele>16.4797</ele>
        <time>2013-04-14T11:35:42Z</time>
      </trkpt>
      <trkpt lat="59.7976039" lon="17.824516">
        <ele>16.4797</ele>
        <time>2013-04-14T11:35:43Z</time>
      </trkpt>
      <trkpt lat="59.7975878" lon="17.8244059">
        <ele>16.4797</ele>
        <time>2013-04-14T11:35:44Z</time>
      </trkpt>
      <trkpt lat="59.797572" lon="17.8242966">
        <ele>16.4797</ele>
        <time>2013-04-14T11:35:45Z</time>
      </trkpt>
      <trkpt lat="59.7975573" lon="17.8241879">
        <ele>16.4797</ele>
        <time>2013-04-14T11:35:46Z</time>
      </trkpt>
      <trkpt lat="59.797543" lon="17.8240795">
        <ele>16.4797</ele>
        <time>2013-04-14T11:35:47Z</time>
      </trkpt>
      <trkpt lat="59.797529" lon="17.8239721">
        <ele>16.4797</ele>
        <time>2013-04-14T11:35:48Z</time>
      </trkpt>
      <trkpt lat="59.797516" lon="17.8238661">
        <ele>16.4797</ele>
        <time>2013-04-14T11:35:49Z</time>
      </trkpt>
      <trkpt lat="59.7975046" lon="17.8237618">
        <ele>16.4797</ele>
        <time>2013-04-14T11:35:50Z</time>
      </trkpt>
      <trkpt lat="59.7974949" lon="17.8236574">
        <ele>16.4797</ele>
        <time>2013-04-14T11:35:51Z</time>
      </trkpt>
      <trkpt lat="59.797487" lon="17.8235517">
        <ele>15.999</ele>
        <time>2013-04-14T11:35:52Z</time>
      </trkpt>
      <trkpt lat="59.7974798" lon="17.823443">
        <ele>15.999</ele>
        <time>2013-04-14T11:35:53Z</time>
      </trkpt>
      <trkpt lat="59.7974725" lon="17.8233311">
        <ele>15.999</ele>
        <time>2013-04-14T11:35:54Z</time>
      </trkpt>
      <trkpt lat="59.7974658" lon="17.8232158">
        <ele>15.5184</ele>
        <time>2013-04-14T11:35:55Z</time>
      </trkpt>
      <trkpt lat="59.7974607" lon="17.8231004">
        <ele>15.5184</ele>
        <time>2013-04-14T11:35:56Z</time>
      </trkpt>
      <trkpt lat="59.7974559" lon="17.8229809">
        <ele>15.5184</ele>
        <time>2013-04-14T11:35:57Z</time>
      </trkpt>
      <trkpt lat="59.7974508" lon="17.8228611">
        <ele>15.5184</ele>
        <time>2013-04-14T11:35:58Z</time>
      </trkpt>
      <trkpt lat="59.797446" lon="17.8227409">
        <ele>15.0377</ele>
        <time>2013-04-14T11:35:59Z</time>
      </trkpt>
      <trkpt lat="59.7974415" lon="17.8226212">
        <ele>15.0377</ele>
        <time>2013-04-14T11:36:00Z</time>
      </trkpt>
      <trkpt lat="59.7974374" lon="17.8225022">
        <ele>15.0377</ele>
        <time>2013-04-14T11:36:01Z</time>
      </trkpt>
      <trkpt lat="59.7974342" lon="17.8223836">
        <ele>14.557</ele>
        <time>2013-04-14T11:36:02Z</time>
      </trkpt>
      <trkpt lat="59.7974316" lon="17.8222658">
        <ele>14.557</ele>
        <time>2013-04-14T11:36:03Z</time>
      </trkpt>
      <trkpt lat="59.7974295" lon="17.822149">
        <ele>14.557</ele>
        <time>2013-04-14T11:36:04Z</time>
      </trkpt>
      <trkpt lat="59.7974281" lon="17.8220327">
        <ele>14.557</ele>
        <time>2013-04-14T11:36:05Z</time>
      </trkpt>
      <trkpt lat="59.7974276" lon="17.8219163">
        <ele>14.0764</ele>
        <time>2013-04-14T11:36:06Z</time>
      </trkpt>
      <trkpt lat="59.7974284" lon="17.8218004">
        <ele>14.0764</ele>
        <time>2013-04-14T11:36:07Z</time>
      </trkpt>
      <trkpt lat="59.79743" lon="17.8216847">
        <ele>13.5958</ele>
        <time>2013-04-14T11:36:08Z</time>
      </trkpt>
      <trkpt lat="59.797432" lon="17.8215692">
        <ele>13.5958</ele>
        <time>2013-04-14T11:36:09Z</time>
      </trkpt>
      <trkpt lat="59.7974345" lon="17.8214558">
        <ele>14.0764</ele>
        <time>2013-04-14T11:36:10Z</time>
      </trkpt>
      <trkpt lat="59.7974364" lon="17.8213412">
        <ele>14.0764</ele>
        <time>2013-04-14T11:36:11Z</time>
      </trkpt>
      <trkpt lat="59.7974392" lon="17.8212261">
        <ele>14.0764</ele>
        <time>2013-04-14T11:36:12Z</time>
      </trkpt>
      <trkpt lat="59.7974421" lon="17.8211116">
        <ele>14.0764</ele>
        <time>2013-04-14T11:36:13Z</time>
      </trkpt>
      <trkpt lat="59.7974465" lon="17.8209998">
        <ele>14.0764</ele>
        <time>2013-04-14T11:36:14Z</time>
      </trkpt>
      <trkpt lat="59.7974513" lon="17.8208885">
        <ele>14.0764</ele>
        <time>2013-04-14T11:36:15Z</time>
      </trkpt>
      <trkpt lat="59.7974564" lon="17.8207762">
        <ele>14.0764</ele>
        <time>2013-04-14T11:36:16Z</time>
      </trkpt>
      <trkpt lat="59.797462" lon="17.8206616">
        <ele>14.0764</ele>
        <time>2013-04-14T11:36:17Z</time>
      </trkpt>
      <trkpt lat="59.7974667" lon="17.8205455">
        <ele>14.557</ele>
        <time>2013-04-14T11:36:18Z</time>
      </trkpt>
      <trkpt lat="59.7974718" lon="17.8204292">
        <ele>14.557</ele>
        <time>2013-04-14T11:36:19Z</time>
      </trkpt>
      <trkpt lat="59.7974772" lon="17.8203162">
        <ele>14.557</ele>
        <time>2013-04-14T11:36:20Z</time>
      </trkpt>
      <trkpt lat="59.7974833" lon="17.8202054">
        <ele>15.0377</ele>
        <time>2013-04-14T11:36:21Z</time>
      </trkpt>
      <trkpt lat="59.7974885" lon="17.8200965">
        <ele>15.5184</ele>
        <time>2013-04-14T11:36:22Z</time>
      </trkpt>
      <trkpt lat="59.7974932" lon="17.8199896">
        <ele>15.5184</ele>
        <time>2013-04-14T11:36:23Z</time>
      </trkpt>
      <trkpt lat="59.7974987" lon="17.8198846">
        <ele>15.999</ele>
        <time>2013-04-14T11:36:24Z</time>
      </trkpt>
      <trkpt lat="59.7975041" lon="17.8197814">
        <ele>15.999</ele>
        <time>2013-04-14T11:36:25Z</time>
      </trkpt>
      <trkpt lat="59.7975099" lon="17.8196801">
        <ele>15.999</ele>
        <time>2013-04-14T11:36:26Z</time>
      </trkpt>
      <trkpt lat="59.7975155" lon="17.8195796">
        <ele>15.999</ele>
        <time>2013-04-14T11:36:27Z</time>
      </trkpt>
      <trkpt lat="59.797521" lon="17.8194781">
        <ele>15.999</ele>
        <time>2013-04-14T11:36:28Z</time>
      </trkpt>
      <trkpt lat="59.7975257" lon="17.8193781">
        <ele>16.4797</ele>
        <time>2013-04-14T11:36:29Z</time>
      </trkpt>
      <trkpt lat="59.7975306" lon="17.8192794">
        <ele>16.4797</ele>
        <time>2013-04-14T11:36:30Z</time>
      </trkpt>
      <trkpt lat="59.7975361" lon="17.8191812">
        <ele>16.4797</ele>
        <time>2013-04-14T11:36:31Z</time>
      </trkpt>
      <trkpt lat="59.7975418" lon="17.8190843">
        <ele>16.9604</ele>
        <time>2013-04-14T11:36:32Z</time>
      </trkpt>
      <trkpt lat="59.7975469" lon="17.8189899">
        <ele>16.9604</ele>
        <time>2013-04-14T11:36:33Z</time>
      </trkpt>
      <trkpt lat="59.7975518" lon="17.8188979">
        <ele>16.9604</ele>
        <time>2013-04-14T11:36:34Z</time>
      </trkpt>
      <trkpt lat="59.7975567" lon="17.8188081">
        <ele>17.4412</ele>
        <time>2013-04-14T11:36:35Z</time>
      </trkpt>
      <trkpt lat="59.7975612" lon="17.8187217">
        <ele>17.4412</ele>
        <time>2013-04-14T11:36:36Z</time>
      </trkpt>
      <trkpt lat="59.7975658" lon="17.8186389">
        <ele>17.4412</ele>
        <time>2013-04-14T11:36:37Z</time>
      </trkpt>
      <trkpt lat="59.7975714" lon="17.8185584">
        <ele>17.9218</ele>
        <time>2013-04-14T11:36:38Z</time>
      </trkpt>
      <trkpt lat="59.7975778" lon="17.8184813">
        <ele>17.9218</ele>
        <time>2013-04-14T11:36:39Z</time>
      </trkpt>
      <trkpt lat="59.7975842" lon="17.8184057">
        <ele>17.9218</ele>
        <time>2013-04-14T11:36:40Z</time>
      </trkpt>
      <trkpt lat="59.7975925" lon="17.8183318">
        <ele>17.9218</ele>
        <time>2013-04-14T11:36:41Z</time>
      </trkpt>
      <trkpt lat="59.7976024" lon="17.8182601">
        <ele>17.9218</ele>
        <time>2013-04-14T11:36:42Z</time>
      </trkpt>
      <trkpt lat="59.7976112" lon="17.8181873">
        <ele>17.9218</ele>
        <time>2013-04-14T11:36:43Z</time>
      </trkpt>
      <trkpt lat="59.7976218" lon="17.8181142">
        <ele>17.9218</ele>
        <time>2013-04-14T11:36:44Z</time>
      </trkpt>
      <trkpt lat="59.7976357" lon="17.8180431">
        <ele>17.9218</ele>
        <time>2013-04-14T11:36:45Z</time>
      </trkpt>
      <trkpt lat="59.7976511" lon="17.8179738">
        <ele>17.9218</ele>
        <time>2013-04-14T11:36:46Z</time>
      </trkpt>
      <trkpt lat="59.7976667" lon="17.8179041">
        <ele>17.9218</ele>
        <time>2013-04-14T11:36:47Z</time>
      </trkpt>
      <trkpt lat="59.7976822" lon="17.8178342">
        <ele>17.9218</ele>
        <time>2013-04-14T11:36:48Z</time>
      </trkpt>
      <trkpt lat="59.7976972" lon="17.8177643">
        <ele>17.9218</ele>
        <time>2013-04-14T11:36:49Z</time>
      </trkpt>
      <trkpt lat="59.7977132" lon="17.8176953">
        <ele>17.9218</ele>
        <time>2013-04-14T11:36:50Z</time>
      </trkpt>
      <trkpt lat="59.7977306" lon="17.8176292">
        <ele>17.9218</ele>
        <time>2013-04-14T11:36:51Z</time>
      </trkpt>
      <trkpt lat="59.7977486" lon="17.8175648">
        <ele>18.4023</ele>
        <time>2013-04-14T11:36:52Z</time>
      </trkpt>
      <trkpt lat="59.7977657" lon="17.8175013">
        <ele>18.4023</ele>
        <time>2013-04-14T11:36:53Z</time>
      </trkpt>
      <trkpt lat="59.7977824" lon="17.8174416">
        <ele>18.4023</ele>
        <time>2013-04-14T11:36:54Z</time>
      </trkpt>
      <trkpt lat="59.7977992" lon="17.8173832">
        <ele>18.4023</ele>
        <time>2013-04-14T11:36:55Z</time>
      </trkpt>
      <trkpt lat="59.7978159" lon="17.8173256">
        <ele>18.8831</ele>
        <time>2013-04-14T11:36:56Z</time>
      </trkpt>
      <trkpt lat="59.7978324" lon="17.8172691">
        <ele>18.8831</ele>
        <time>2013-04-14T11:36:57Z</time>
      </trkpt>
      <trkpt lat="59.7978512" lon="17.8172155">
        <ele>19.8444</ele>
        <time>2013-04-14T11:36:58Z</time>
      </trkpt>
      <trkpt lat="59.7978701" lon="17.8171636">
        <ele>20.325</ele>
        <time>2013-04-14T11:36:59Z</time>
      </trkpt>
      <trkpt lat="59.797888" lon="17.8171101">
        <ele>20.325</ele>
        <time>2013-04-14T11:37:00Z</time>
      </trkpt>
      <trkpt lat="59.7979062" lon="17.8170538">
        <ele>20.8057</ele>
        <time>2013-04-14T11:37:01Z</time>
      </trkpt>
      <trkpt lat="59.7979256" lon="17.8169993">
        <ele>20.8057</ele>
        <time>2013-04-14T11:37:02Z</time>
      </trkpt>
      <trkpt lat="59.7979474" lon="17.8169461">
        <ele>21.2864</ele>
        <time>2013-04-14T11:37:03Z</time>
      </trkpt>
      <trkpt lat="59.7979703" lon="17.8168907">
        <ele>21.767</ele>
        <time>2013-04-14T11:37:04Z</time>
      </trkpt>
      <trkpt lat="59.7979957" lon="17.8168346">
        <ele>21.767</ele>
        <time>2013-04-14T11:37:05Z</time>
      </trkpt>
      <trkpt lat="59.7980232" lon="17.8167761">
        <ele>22.2476</ele>
        <time>2013-04-14T11:37:06Z</time>
      </trkpt>
      <trkpt lat="59.7980514" lon="17.8167135">
        <ele>22.2476</ele>
        <time>2013-04-14T11:37:07Z</time>
      </trkpt>
      <trkpt lat="59.7980813" lon="17.8166491">
        <ele>22.7283</ele>
        <time>2013-04-14T11:37:08Z</time>
      </trkpt>
      <trkpt lat="59.7981143" lon="17.8165844">
        <ele>23.209</ele>
        <time>2013-04-14T11:37:09Z</time>
      </trkpt>
      <trkpt lat="59.7981491" lon="17.8165177">
        <ele>23.6896</ele>
        <time>2013-04-14T11:37:10Z</time>
      </trkpt>
      <trkpt lat="59.7981848" lon="17.8164502">
        <ele>23.6896</ele>
        <time>2013-04-14T11:37:11Z</time>
      </trkpt>
      <trkpt lat="59.798222" lon="17.8163889">
        <ele>24.1703</ele>
        <time>2013-04-14T11:37:12Z</time>
      </trkpt>
      <trkpt lat="59.7982599" lon="17.8163291">
        <ele>24.1703</ele>
        <time>2013-04-14T11:37:13Z</time>
      </trkpt>
      <trkpt lat="59.7982983" lon="17.8162679">
        <ele>24.651</ele>
        <time>2013-04-14T11:37:14Z</time>
      </trkpt>
      <trkpt lat="59.7983387" lon="17.8162083">
        <ele>25.1317</ele>
        <time>2013-04-14T11:37:15Z</time>
      </trkpt>
      <trkpt lat="59.7983822" lon="17.8161522">
        <ele>25.6123</ele>
        <time>2013-04-14T11:37:16Z</time>
      </trkpt>
      <trkpt lat="59.7984293" lon="17.8160954">
        <ele>25.6123</ele>
        <time>2013-04-14T11:37:17Z</time>
      </trkpt>
      <trkpt lat="59.7984775" lon="17.8160334">
        <ele>26.0929</ele>
        <time>2013-04-14T11:37:18Z</time>
      </trkpt>
      <trkpt lat="59.7985278" lon="17.8159774">
        <ele>26.5736</ele>
        <time>2013-04-14T11:37:19Z</time>
      </trkpt>
      <trkpt lat="59.7985836" lon="17.8159308">
        <ele>26.5736</ele>
        <time>2013-04-14T11:37:20Z</time>
      </trkpt>
      <trkpt lat="59.7986417" lon="17.8158899">
        <ele>26.5736</ele>
        <time>2013-04-14T11:37:21Z</time>
      </trkpt>
      <trkpt lat="59.7987019" lon="17.815854">
        <ele>26.0929</ele>
        <time>2013-04-14T11:37:22Z</time>
      </trkpt>
      <trkpt lat="59.7987639" lon="17.8158303">
        <ele>26.0929</ele>
        <time>2013-04-14T11:37:23Z</time>
      </trkpt>
      <trkpt lat="59.7988249" lon="17.8158163">
        <ele>25.1317</ele>
        <time>2013-04-14T11:37:24Z</time>
      </trkpt>
      <trkpt lat="59.7988863" lon="17.8158116">
        <ele>25.1317</ele>
        <time>2013-04-14T11:37:25Z</time>
      </trkpt>
      <trkpt lat="59.7989483" lon="17.815809">
        <ele>25.1317</ele>
        <time>2013-04-14T11:37:26Z</time>
      </trkpt>
      <trkpt lat="59.7990106" lon="17.8158003">
        <ele>24.651</ele>
        <time>2013-04-14T11:37:27Z</time>
      </trkpt>
      <trkpt lat="59.7990735" lon="17.8157847">
        <ele>24.1703</ele>
        <time>2013-04-14T11:37:28Z</time>
      </trkpt>
      <trkpt lat="59.7991404" lon="17.8157654">
        <ele>24.1703</ele>
        <time>2013-04-14T11:37:29Z</time>
      </trkpt>
      <trkpt lat="59.7992247" lon="17.815737">
        <ele>24.1703</ele>
        <time>2013-04-14T11:37:30Z</time>
      </trkpt>
      <trkpt lat="59.7992958" lon="17.8156945">
        <ele>24.651</ele>
        <time>2013-04-14T11:37:31Z</time>
      </trkpt>
      <trkpt lat="59.7993601" lon="17.815637">
        <ele>24.651</ele>
        <time>2013-04-14T11:37:32Z</time>
      </trkpt>
      <trkpt lat="59.7994197" lon="17.8155733">
        <ele>24.651</ele>
        <time>2013-04-14T11:37:33Z</time>
      </trkpt>
      <trkpt lat="59.7994745" lon="17.8154964">
        <ele>24.1703</ele>
        <time>2013-04-14T11:37:34Z</time>
      </trkpt>
      <trkpt lat="59.7995264" lon="17.8154127">
        <ele>24.1703</ele>
        <time>2013-04-14T11:37:35Z</time>
      </trkpt>
      <trkpt lat="59.7995766" lon="17.8153215">
        <ele>24.1703</ele>
        <time>2013-04-14T11:37:36Z</time>
      </trkpt>
      <trkpt lat="59.7996252" lon="17.8152241">
        <ele>24.1703</ele>
        <time>2013-04-14T11:37:37Z</time>
      </trkpt>
      <trkpt lat="59.7996658" lon="17.81509">
        <ele>24.1703</ele>
        <time>2013-04-14T11:37:38Z</time>
      </trkpt>
      <trkpt lat="59.7997106" lon="17.8149759">
        <ele>24.1703</ele>
        <time>2013-04-14T11:37:39Z</time>
      </trkpt>
      <trkpt lat="59.7997568" lon="17.8148579">
        <ele>23.6896</ele>
        <time>2013-04-14T11:37:40Z</time>
      </trkpt>
      <trkpt lat="59.7998044" lon="17.8147412">
        <ele>23.209</ele>
        <time>2013-04-14T11:37:41Z</time>
      </trkpt>
      <trkpt lat="59.7998529" lon="17.8146227">
        <ele>23.209</ele>
        <time>2013-04-14T11:37:42Z</time>
      </trkpt>
      <trkpt lat="59.7999024" lon="17.8145011">
        <ele>22.7283</ele>
        <time>2013-04-14T11:37:43Z</time>
      </trkpt>
      <trkpt lat="59.799952" lon="17.8143761">
        <ele>22.7283</ele>
        <time>2013-04-14T11:37:44Z</time>
      </trkpt>
      <trkpt lat="59.8000012" lon="17.8142473">
        <ele>22.2476</ele>
        <time>2013-04-14T11:37:45Z</time>
      </trkpt>
      <trkpt lat="59.8000518" lon="17.8141155">
        <ele>21.767</ele>
        <time>2013-04-14T11:37:46Z</time>
      </trkpt>
      <trkpt lat="59.8001038" lon="17.8139818">
        <ele>21.767</ele>
        <time>2013-04-14T11:37:47Z</time>
      </trkpt>
      <trkpt lat="59.8001548" lon="17.8138455">
        <ele>21.2864</ele>
        <time>2013-04-14T11:37:48Z</time>
      </trkpt>
      <trkpt lat="59.8002056" lon="17.8137069">
        <ele>20.8057</ele>
        <time>2013-04-14T11:37:49Z</time>
      </trkpt>
      <trkpt lat="59.8002559" lon="17.8135689">
        <ele>20.8057</ele>
        <time>2013-04-14T11:37:50Z</time>
      </trkpt>
      <trkpt lat="59.8003045" lon="17.813433">
        <ele>20.325</ele>
        <time>2013-04-14T11:37:51Z</time>
      </trkpt>
      <trkpt lat="59.8003537" lon="17.8132982">
        <ele>20.325</ele>
        <time>2013-04-14T11:37:52Z</time>
      </trkpt>
      <trkpt lat="59.8003986" lon="17.8131665">
        <ele>19.8444</ele>
        <time>2013-04-14T11:37:53Z</time>
      </trkpt>
      <trkpt lat="59.8004443" lon="17.8130351">
        <ele>19.8444</ele>
        <time>2013-04-14T11:37:54Z</time>
      </trkpt>
      <trkpt lat="59.8004883" lon="17.8129018">
        <ele>19.3638</ele>
        <time>2013-04-14T11:37:55Z</time>
      </trkpt>
      <trkpt lat="59.8005277" lon="17.8127661">
        <ele>19.3638</ele>
        <time>2013-04-14T11:37:56Z</time>
      </trkpt>
      <trkpt lat="59.8005608" lon="17.8126268">
        <ele>19.3638</ele>
        <time>2013-04-14T11:37:57Z</time>
      </trkpt>
      <trkpt lat="59.8005816" lon="17.8124849">
        <ele>18.4023</ele>
        <time>2013-04-14T11:37:58Z</time>
      </trkpt>
      <trkpt lat="59.8005964" lon="17.8123419">
        <ele>17.9218</ele>
        <time>2013-04-14T11:37:59Z</time>
      </trkpt>
      <trkpt lat="59.8006033" lon="17.8121991">
        <ele>17.4412</ele>
        <time>2013-04-14T11:38:00Z</time>
      </trkpt>
      <trkpt lat="59.8006028" lon="17.8120586">
        <ele>16.4797</ele>
        <time>2013-04-14T11:38:01Z</time>
      </trkpt>
      <trkpt lat="59.8006039" lon="17.8119183">
        <ele>15.999</ele>
        <time>2013-04-14T11:38:02Z</time>
      </trkpt>
      <trkpt lat="59.8006075" lon="17.8117779">
        <ele>15.5184</ele>
        <time>2013-04-14T11:38:03Z</time>
      </trkpt>
      <trkpt lat="59.8006164" lon="17.8116372">
        <ele>15.999</ele>
        <time>2013-04-14T11:38:04Z</time>
      </trkpt>
      <trkpt lat="59.8006289" lon="17.8114992">
        <ele>15.999</ele>
        <time>2013-04-14T11:38:05Z</time>
      </trkpt>
      <trkpt lat="59.800646" lon="17.8113644">
        <ele>15.5184</ele>
        <time>2013-04-14T11:38:06Z</time>
      </trkpt>
      <trkpt lat="59.8006681" lon="17.8112349">
        <ele>15.5184</ele>
        <time>2013-04-14T11:38:07Z</time>
      </trkpt>
      <trkpt lat="59.8006966" lon="17.8111106">
        <ele>15.5184</ele>
        <time>2013-04-14T11:38:08Z</time>
      </trkpt>
      <trkpt lat="59.8007323" lon="17.8109928">
        <ele>15.5184</ele>
        <time>2013-04-14T11:38:09Z</time>
      </trkpt>
      <trkpt lat="59.8007758" lon="17.810884">
        <ele>15.5184</ele>
        <time>2013-04-14T11:38:10Z</time>
      </trkpt>
      <trkpt lat="59.8008281" lon="17.810792">
        <ele>15.999</ele>
        <time>2013-04-14T11:38:11Z</time>
      </trkpt>
      <trkpt lat="59.8008877" lon="17.810717">
        <ele>15.999</ele>
        <time>2013-04-14T11:38:12Z</time>
      </trkpt>
      <trkpt lat="59.8009498" lon="17.8106485">
        <ele>16.4797</ele>
        <time>2013-04-14T11:38:13Z</time>
      </trkpt>
      <trkpt lat="59.8010095" lon="17.810573">
        <ele>16.4797</ele>
        <time>2013-04-14T11:38:14Z</time>
      </trkpt>
      <trkpt lat="59.8010631" lon="17.8104827">
        <ele>16.9604</ele>
        <time>2013-04-14T11:38:15Z</time>
      </trkpt>
      <trkpt lat="59.8011057" lon="17.8103749">
        <ele>16.9604</ele>
        <time>2013-04-14T11:38:16Z</time>
      </trkpt>
      <trkpt lat="59.8011354" lon="17.8102505">
        <ele>17.9218</ele>
        <time>2013-04-14T11:38:17Z</time>
      </trkpt>
      <trkpt lat="59.8011557" lon="17.8101202">
        <ele>17.9218</ele>
        <time>2013-04-14T11:38:18Z</time>
      </trkpt>
      <trkpt lat="59.801169" lon="17.809988">
        <ele>18.4023</ele>
        <time>2013-04-14T11:38:19Z</time>
      </trkpt>
      <trkpt lat="59.8011757" lon="17.8098597">
        <ele>18.4023</ele>
        <time>2013-04-14T11:38:20Z</time>
      </trkpt>
      <trkpt lat="59.8011804" lon="17.8097358">
        <ele>18.4023</ele>
        <time>2013-04-14T11:38:21Z</time>
      </trkpt>
      <trkpt lat="59.8011852" lon="17.8096173">
        <ele>17.9218</ele>
        <time>2013-04-14T11:38:22Z</time>
      </trkpt>
      <trkpt lat="59.8011927" lon="17.8095046">
        <ele>17.9218</ele>
        <time>2013-04-14T11:38:23Z</time>
      </trkpt>
      <trkpt lat="59.8012047" lon="17.8093971">
        <ele>17.9218</ele>
        <time>2013-04-14T11:38:24Z</time>
      </trkpt>
      <trkpt lat="59.8012196" lon="17.8092914">
        <ele>17.9218</ele>
        <time>2013-04-14T11:38:25Z</time>
      </trkpt>
      <trkpt lat="59.8012375" lon="17.8091887">
        <ele>17.9218</ele>
        <time>2013-04-14T11:38:26Z</time>
      </trkpt>
      <trkpt lat="59.8012591" lon="17.8090892">
        <ele>17.9218</ele>
        <time>2013-04-14T11:38:27Z</time>
      </trkpt>
      <trkpt lat="59.8012876" lon="17.8089904">
        <ele>17.9218</ele>
        <time>2013-04-14T11:38:28Z</time>
      </trkpt>
      <trkpt lat="59.8013198" lon="17.8088905">
        <ele>18.4023</ele>
        <time>2013-04-14T11:38:29Z</time>
      </trkpt>
      <trkpt lat="59.8013528" lon="17.8087874">
        <ele>18.4023</ele>
        <time>2013-04-14T11:38:30Z</time>
      </trkpt>
      <trkpt lat="59.8013879" lon="17.8086843">
        <ele>18.4023</ele>
        <time>2013-04-14T11:38:31Z</time>
      </trkpt>
      <trkpt lat="59.8014247" lon="17.8085807">
        <ele>18.8831</ele>
        <time>2013-04-14T11:38:32Z</time>
      </trkpt>
      <trkpt lat="59.8014751" lon="17.8084882">
        <ele>19.3638</ele>
        <time>2013-04-14T11:38:33Z</time>
      </trkpt>
      <trkpt lat="59.8015135" lon="17.8083874">
        <ele>19.3638</ele>
        <time>2013-04-14T11:38:34Z</time>
      </trkpt>
      <trkpt lat="59.8015478" lon="17.8082901">
        <ele>19.3638</ele>
        <time>2013-04-14T11:38:35Z</time>
      </trkpt>
      <trkpt lat="59.8015817" lon="17.8081936">
        <ele>18.8831</ele>
        <time>2013-04-14T11:38:36Z</time>
      </trkpt>
      <trkpt lat="59.8016139" lon="17.8080927">
        <ele>18.8831</ele>
        <time>2013-04-14T11:38:37Z</time>
      </trkpt>
      <trkpt lat="59.801643" lon="17.8079879">
        <ele>18.8831</ele>
        <time>2013-04-14T11:38:38Z</time>
      </trkpt>
      <trkpt lat="59.8016669" lon="17.8078763">
        <ele>18.8831</ele>
        <time>2013-04-14T11:38:39Z</time>
      </trkpt>
      <trkpt lat="59.801685" lon="17.8077575">
        <ele>18.4023</ele>
        <time>2013-04-14T11:38:40Z</time>
      </trkpt>
      <trkpt lat="59.801693" lon="17.8076315">
        <ele>17.9218</ele>
        <time>2013-04-14T11:38:41Z</time>
      </trkpt>
      <trkpt lat="59.8016977" lon="17.8075026">
        <ele>17.4412</ele>
        <time>2013-04-14T11:38:42Z</time>
      </trkpt>
      <trkpt lat="59.8016972" lon="17.8073675">
        <ele>16.4797</ele>
        <time>2013-04-14T11:38:43Z</time>
      </trkpt>
      <trkpt lat="59.801689" lon="17.80723">
        <ele>15.999</ele>
        <time>2013-04-14T11:38:44Z</time>
      </trkpt>
      <trkpt lat="59.8016741" lon="17.8070908">
        <ele>15.0377</ele>
        <time>2013-04-14T11:38:45Z</time>
      </trkpt>
      <trkpt lat="59.8016528" lon="17.8069443">
        <ele>14.557</ele>
        <time>2013-04-14T11:38:46Z</time>
      </trkpt>
      <trkpt lat="59.8016244" lon="17.8067926">
        <ele>13.5958</ele>
        <time>2013-04-14T11:38:47Z</time>
      </trkpt>
      <trkpt lat="59.8015913" lon="17.8066417">
        <ele>13.1151</ele>
        <time>2013-04-14T11:38:48Z</time>
      </trkpt>
      <trkpt lat="59.8015565" lon="17.8064858">
        <ele>12.1538</ele>
        <time>2013-04-14T11:38:49Z</time>
      </trkpt>
      <trkpt lat="59.8015202" lon="17.8063281">
        <ele>11.6732</ele>
        <time>2013-04-14T11:38:50Z</time>
      </trkpt>
      <trkpt lat="59.8014823" lon="17.8061667">
        <ele>11.1925</ele>
        <time>2013-04-14T11:38:51Z</time>
      </trkpt>
      <trkpt lat="59.8014434" lon="17.806003">
        <ele>10.7118</ele>
        <time>2013-04-14T11:38:52Z</time>
      </trkpt>
      <trkpt lat="59.8014054" lon="17.8058374">
        <ele>10.2312</ele>
        <time>2013-04-14T11:38:53Z</time>
      </trkpt>
      <trkpt lat="59.8013688" lon="17.8056763">
        <ele>10.2312</ele>
        <time>2013-04-14T11:38:54Z</time>
      </trkpt>
      <trkpt lat="59.8013328" lon="17.8055182">
        <ele>9.75061</ele>
        <time>2013-04-14T11:38:55Z</time>
      </trkpt>
      <trkpt lat="59.8012975" lon="17.805362">
        <ele>9.2699</ele>
        <time>2013-04-14T11:38:56Z</time>
      </trkpt>
      <trkpt lat="59.8012622" lon="17.8052069">
        <ele>9.2699</ele>
        <time>2013-04-14T11:38:57Z</time>
      </trkpt>
      <trkpt lat="59.8012271" lon="17.805053">
        <ele>8.78918</ele>
        <time>2013-04-14T11:38:58Z</time>
      </trkpt>
      <trkpt lat="59.801194" lon="17.8049024">
        <ele>8.78918</ele>
        <time>2013-04-14T11:38:59Z</time>
      </trkpt>
      <trkpt lat="59.8011612" lon="17.8047562">
        <ele>8.78918</ele>
        <time>2013-04-14T11:39:00Z</time>
      </trkpt>
      <trkpt lat="59.8011291" lon="17.8046126">
        <ele>8.30859</ele>
        <time>2013-04-14T11:39:01Z</time>
      </trkpt>
      <trkpt lat="59.8010986" lon="17.8044706">
        <ele>8.30859</ele>
        <time>2013-04-14T11:39:02Z</time>
      </trkpt>
      <trkpt lat="59.8010681" lon="17.8043308">
        <ele>8.30859</ele>
        <time>2013-04-14T11:39:03Z</time>
      </trkpt>
      <trkpt lat="59.8010368" lon="17.8041909">
        <ele>7.82788</ele>
        <time>2013-04-14T11:39:04Z</time>
      </trkpt>
      <trkpt lat="59.8010047" lon="17.8040506">
        <ele>7.82788</ele>
        <time>2013-04-14T11:39:05Z</time>
      </trkpt>
      <trkpt lat="59.8009727" lon="17.8039098">
        <ele>7.34717</ele>
        <time>2013-04-14T11:39:06Z</time>
      </trkpt>
      <trkpt lat="59.8009414" lon="17.8037679">
        <ele>7.34717</ele>
        <time>2013-04-14T11:39:07Z</time>
      </trkpt>
      <trkpt lat="59.80091" lon="17.8036253">
        <ele>7.34717</ele>
        <time>2013-04-14T11:39:08Z</time>
      </trkpt>
      <trkpt lat="59.8008784" lon="17.8034824">
        <ele>6.86646</ele>
        <time>2013-04-14T11:39:09Z</time>
      </trkpt>
      <trkpt lat="59.8008473" lon="17.8033384">
        <ele>6.86646</ele>
        <time>2013-04-14T11:39:10Z</time>
      </trkpt>
      <trkpt lat="59.8008164" lon="17.8031937">
        <ele>6.86646</ele>
        <time>2013-04-14T11:39:11Z</time>
      </trkpt>
      <trkpt lat="59.8007848" lon="17.8030491">
        <ele>6.86646</ele>
        <time>2013-04-14T11:39:12Z</time>
      </trkpt>
      <trkpt lat="59.8007536" lon="17.8029048">
        <ele>6.86646</ele>
        <time>2013-04-14T11:39:13Z</time>
      </trkpt>
      <trkpt lat="59.8007226" lon="17.8027613">
        <ele>6.86646</ele>
        <time>2013-04-14T11:39:14Z</time>
      </trkpt>
      <trkpt lat="59.8006929" lon="17.8026189">
        <ele>6.38586</ele>
        <time>2013-04-14T11:39:15Z</time>
      </trkpt>
      <trkpt lat="59.8006644" lon="17.8024778">
        <ele>6.38586</ele>
        <time>2013-04-14T11:39:16Z</time>
      </trkpt>
      <trkpt lat="59.800637" lon="17.8023367">
        <ele>6.38586</ele>
        <time>2013-04-14T11:39:17Z</time>
      </trkpt>
      <trkpt lat="59.8006094" lon="17.8021967">
        <ele>6.38586</ele>
        <time>2013-04-14T11:39:18Z</time>
      </trkpt>
      <trkpt lat="59.8005798" lon="17.8020592">
        <ele>6.38586</ele>
        <time>2013-04-14T11:39:19Z</time>
      </trkpt>
      <trkpt lat="59.8005504" lon="17.801922">
        <ele>6.38586</ele>
        <time>2013-04-14T11:39:20Z</time>
      </trkpt>
      <trkpt lat="59.800522" lon="17.8017845">
        <ele>6.38586</ele>
        <time>2013-04-14T11:39:21Z</time>
      </trkpt>
      <trkpt lat="59.8004946" lon="17.8016471">
        <ele>6.86646</ele>
        <time>2013-04-14T11:39:22Z</time>
      </trkpt>
      <trkpt lat="59.8004682" lon="17.8015098">
        <ele>6.86646</ele>
        <time>2013-04-14T11:39:23Z</time>
      </trkpt>
      <trkpt lat="59.800441" lon="17.8013739">
        <ele>6.86646</ele>
        <time>2013-04-14T11:39:24Z</time>
      </trkpt>
      <trkpt lat="59.8004134" lon="17.8012389">
        <ele>6.86646</ele>
        <time>2013-04-14T11:39:25Z</time>
      </trkpt>
      <trkpt lat="59.8003873" lon="17.801104">
        <ele>6.86646</ele>
        <time>2013-04-14T11:39:26Z</time>
      </trkpt>
      <trkpt lat="59.8003613" lon="17.8009695">
        <ele>6.86646</ele>
        <time>2013-04-14T11:39:27Z</time>
      </trkpt>
      <trkpt lat="59.8003357" lon="17.800835">
        <ele>6.86646</ele>
        <time>2013-04-14T11:39:28Z</time>
      </trkpt>
      <trkpt lat="59.8003122" lon="17.8006996">
        <ele>6.86646</ele>
        <time>2013-04-14T11:39:29Z</time>
      </trkpt>
      <trkpt lat="59.8002894" lon="17.8005634">
        <ele>6.86646</ele>
        <time>2013-04-14T11:39:30Z</time>
      </trkpt>
      <trkpt lat="59.8002681" lon="17.8004261">
        <ele>6.38586</ele>
        <time>2013-04-14T11:39:31Z</time>
      </trkpt>
      <trkpt lat="59.8002494" lon="17.8002864">
        <ele>6.38586</ele>
        <time>2013-04-14T11:39:32Z</time>
      </trkpt>
      <trkpt lat="59.800234" lon="17.8001459">
        <ele>6.38586</ele>
        <time>2013-04-14T11:39:33Z</time>
      </trkpt>
      <trkpt lat="59.8002224" lon="17.8000055">
        <ele>6.38586</ele>
        <time>2013-04-14T11:39:34Z</time>
      </trkpt>
      <trkpt lat="59.8002121" lon="17.7998668">
        <ele>6.38586</ele>
        <time>2013-04-14T11:39:35Z</time>
      </trkpt>
      <trkpt lat="59.800203" lon="17.7997292">
        <ele>6.38586</ele>
        <time>2013-04-14T11:39:36Z</time>
      </trkpt>
      <trkpt lat="59.8001962" lon="17.7995921">
        <ele>6.38586</ele>
        <time>2013-04-14T11:39:37Z</time>
      </trkpt>
      <trkpt lat="59.8001905" lon="17.7994547">
        <ele>6.38586</ele>
        <time>2013-04-14T11:39:38Z</time>
      </trkpt>
      <trkpt lat="59.8001848" lon="17.7993184">
        <ele>6.38586</ele>
        <time>2013-04-14T11:39:39Z</time>
      </trkpt>
      <trkpt lat="59.800179" lon="17.7991845">
        <ele>6.38586</ele>
        <time>2013-04-14T11:39:40Z</time>
      </trkpt>
      <trkpt lat="59.8001728" lon="17.7990529">
        <ele>6.38586</ele>
        <time>2013-04-14T11:39:41Z</time>
      </trkpt>
      <trkpt lat="59.8001662" lon="17.7989227">
        <ele>6.38586</ele>
        <time>2013-04-14T11:39:42Z</time>
      </trkpt>
      <trkpt lat="59.8001597" lon="17.7987932">
        <ele>6.38586</ele>
        <time>2013-04-14T11:39:43Z</time>
      </trkpt>
      <trkpt lat="59.800154" lon="17.798664">
        <ele>5.90527</ele>
        <time>2013-04-14T11:39:44Z</time>
      </trkpt>
      <trkpt lat="59.800149" lon="17.7985342">
        <ele>5.90527</ele>
        <time>2013-04-14T11:39:45Z</time>
      </trkpt>
      <trkpt lat="59.8001439" lon="17.7984041">
        <ele>5.90527</ele>
        <time>2013-04-14T11:39:46Z</time>
      </trkpt>
      <trkpt lat="59.8001372" lon="17.7982764">
        <ele>5.90527</ele>
        <time>2013-04-14T11:39:47Z</time>
      </trkpt>
      <trkpt lat="59.8001297" lon="17.7981506">
        <ele>5.90527</ele>
        <time>2013-04-14T11:39:48Z</time>
      </trkpt>
      <trkpt lat="59.8001227" lon="17.7980251">
        <ele>5.90527</ele>
        <time>2013-04-14T11:39:49Z</time>
      </trkpt>
      <trkpt lat="59.8001145" lon="17.7978977">
        <ele>5.90527</ele>
        <time>2013-04-14T11:39:50Z</time>
      </trkpt>
      <trkpt lat="59.8001024" lon="17.7977697">
        <ele>5.42456</ele>
        <time>2013-04-14T11:39:51Z</time>
      </trkpt>
      <trkpt lat="59.8000849" lon="17.7976445">
        <ele>5.42456</ele>
        <time>2013-04-14T11:39:52Z</time>
      </trkpt>
      <trkpt lat="59.8000622" lon="17.7975227">
        <ele>5.42456</ele>
        <time>2013-04-14T11:39:53Z</time>
      </trkpt>
      <trkpt lat="59.8000362" lon="17.797407">
        <ele>5.42456</ele>
        <time>2013-04-14T11:39:54Z</time>
      </trkpt>
      <trkpt lat="59.8000081" lon="17.7972899">
        <ele>4.94385</ele>
        <time>2013-04-14T11:39:55Z</time>
      </trkpt>
      <trkpt lat="59.79998" lon="17.7971823">
        <ele>4.94385</ele>
        <time>2013-04-14T11:39:56Z</time>
      </trkpt>
      <trkpt lat="59.7999513" lon="17.7970776">
        <ele>4.94385</ele>
        <time>2013-04-14T11:39:57Z</time>
      </trkpt>
      <trkpt lat="59.7999206" lon="17.7969762">
        <ele>4.46326</ele>
        <time>2013-04-14T11:39:58Z</time>
      </trkpt>
      <trkpt lat="59.799888" lon="17.7968761">
        <ele>4.46326</ele>
        <time>2013-04-14T11:39:59Z</time>
      </trkpt>
      <trkpt lat="59.7998524" lon="17.7967766">
        <ele>4.46326</ele>
        <time>2013-04-14T11:40:00Z</time>
      </trkpt>
      <trkpt lat="59.7998166" lon="17.7966735">
        <ele>4.46326</ele>
        <time>2013-04-14T11:40:01Z</time>
      </trkpt>
      <trkpt lat="59.7997797" lon="17.7965714">
        <ele>4.46326</ele>
        <time>2013-04-14T11:40:02Z</time>
      </trkpt>
      <trkpt lat="59.7997392" lon="17.7964778">
        <ele>4.46326</ele>
        <time>2013-04-14T11:40:03Z</time>
      </trkpt>
      <trkpt lat="59.7996966" lon="17.7963915">
        <ele>4.46326</ele>
        <time>2013-04-14T11:40:04Z</time>
      </trkpt>
      <trkpt lat="59.7996523" lon="17.7963115">
        <ele>4.46326</ele>
        <time>2013-04-14T11:40:05Z</time>
      </trkpt>
      <trkpt lat="59.7996067" lon="17.7962342">
        <ele>4.46326</ele>
        <time>2013-04-14T11:40:06Z</time>
      </trkpt>
      <trkpt lat="59.7995594" lon="17.7961588">
        <ele>4.46326</ele>
        <time>2013-04-14T11:40:07Z</time>
      </trkpt>
      <trkpt lat="59.7995109" lon="17.7960869">
        <ele>4.46326</ele>
        <time>2013-04-14T11:40:08Z</time>
      </trkpt>
      <trkpt lat="59.7994632" lon="17.7960153">
        <ele>4.46326</ele>
        <time>2013-04-14T11:40:09Z</time>
      </trkpt>
      <trkpt lat="59.7994166" lon="17.7959415">
        <ele>4.46326</ele>
        <time>2013-04-14T11:40:10Z</time>
      </trkpt>
      <trkpt lat="59.7993698" lon="17.7958685">
        <ele>4.46326</ele>
        <time>2013-04-14T11:40:11Z</time>
      </trkpt>
      <trkpt lat="59.7993222" lon="17.7957982">
        <ele>4.46326</ele>
        <time>2013-04-14T11:40:12Z</time>
      </trkpt>
      <trkpt lat="59.7992743" lon="17.7957314">
        <ele>4.46326</ele>
        <time>2013-04-14T11:40:13Z</time>
      </trkpt>
      <trkpt lat="59.799227" lon="17.7956645">
        <ele>3.98267</ele>
        <time>2013-04-14T11:40:14Z</time>
      </trkpt>
      <trkpt lat="59.7991795" lon="17.7955935">
        <ele>3.98267</ele>
        <time>2013-04-14T11:40:15Z</time>
      </trkpt>
      <trkpt lat="59.7991308" lon="17.7955211">
        <ele>3.98267</ele>
        <time>2013-04-14T11:40:16Z</time>
      </trkpt>
      <trkpt lat="59.7990807" lon="17.7954484">
        <ele>3.50195</ele>
        <time>2013-04-14T11:40:17Z</time>
      </trkpt>
      <trkpt lat="59.7990287" lon="17.7953779">
        <ele>3.50195</ele>
        <time>2013-04-14T11:40:18Z</time>
      </trkpt>
      <trkpt lat="59.7989752" lon="17.7953095">
        <ele>3.50195</ele>
        <time>2013-04-14T11:40:19Z</time>
      </trkpt>
      <trkpt lat="59.7989234" lon="17.7952409">
        <ele>3.02124</ele>
        <time>2013-04-14T11:40:20Z</time>
      </trkpt>
      <trkpt lat="59.7988773" lon="17.7951704">
        <ele>3.02124</ele>
        <time>2013-04-14T11:40:21Z</time>
      </trkpt>
      <trkpt lat="59.7988338" lon="17.7950989">
        <ele>3.02124</ele>
        <time>2013-04-14T11:40:22Z</time>
      </trkpt>
      <trkpt lat="59.7987886" lon="17.795029">
        <ele>3.02124</ele>
        <time>2013-04-14T11:40:23Z</time>
      </trkpt>
      <trkpt lat="59.7987411" lon="17.7949602">
        <ele>3.02124</ele>
        <time>2013-04-14T11:40:24Z</time>
      </trkpt>
      <trkpt lat="59.7986946" lon="17.7948915">
        <ele>2.54065</ele>
        <time>2013-04-14T11:40:25Z</time>
      </trkpt>
      <trkpt lat="59.7986505" lon="17.7948223">
        <ele>2.54065</ele>
        <time>2013-04-14T11:40:26Z</time>
      </trkpt>
      <trkpt lat="59.7986063" lon="17.794755">
        <ele>2.54065</ele>
        <time>2013-04-14T11:40:27Z</time>
      </trkpt>
      <trkpt lat="59.7985618" lon="17.794684">
        <ele>3.02124</ele>
        <time>2013-04-14T11:40:28Z</time>
      </trkpt>
      <trkpt lat="59.7985167" lon="17.7946099">
        <ele>3.50195</ele>
        <time>2013-04-14T11:40:29Z</time>
      </trkpt>
      <trkpt lat="59.7984718" lon="17.7945457">
        <ele>3.50195</ele>
        <time>2013-04-14T11:40:30Z</time>
      </trkpt>
      <trkpt lat="59.7984262" lon="17.7944825">
        <ele>3.50195</ele>
        <time>2013-04-14T11:40:31Z</time>
      </trkpt>
      <trkpt lat="59.798381" lon="17.7944156">
        <ele>3.50195</ele>
        <time>2013-04-14T11:40:32Z</time>
      </trkpt>
      <trkpt lat="59.7983359" lon="17.7943464">
        <ele>3.50195</ele>
        <time>2013-04-14T11:40:33Z</time>
      </trkpt>
      <trkpt lat="59.7982899" lon="17.7942789">
        <ele>3.98267</ele>
        <time>2013-04-14T11:40:34Z</time>
      </trkpt>
      <trkpt lat="59.7982438" lon="17.7942124">
        <ele>3.98267</ele>
        <time>2013-04-14T11:40:35Z</time>
      </trkpt>
      <trkpt lat="59.7981977" lon="17.7941451">
        <ele>3.98267</ele>
        <time>2013-04-14T11:40:36Z</time>
      </trkpt>
      <trkpt lat="59.7981526" lon="17.7940756">
        <ele>3.98267</ele>
        <time>2013-04-14T11:40:37Z</time>
      </trkpt>
      <trkpt lat="59.7981071" lon="17.7940054">
        <ele>3.98267</ele>
        <time>2013-04-14T11:40:38Z</time>
      </trkpt>
      <trkpt lat="59.7980604" lon="17.793938">
        <ele>3.98267</ele>
        <time>2013-04-14T11:40:39Z</time>
      </trkpt>
      <trkpt lat="59.7980129" lon="17.7938723">
        <ele>3.98267</ele>
        <time>2013-04-14T11:40:40Z</time>
      </trkpt>
      <trkpt lat="59.7979658" lon="17.7938045">
        <ele>3.98267</ele>
        <time>2013-04-14T11:40:41Z</time>
      </trkpt>
      <trkpt lat="59.797919" lon="17.7937336">
        <ele>3.98267</ele>
        <time>2013-04-14T11:40:42Z</time>
      </trkpt>
      <trkpt lat="59.797872" lon="17.793663">
        <ele>3.98267</ele>
        <time>2013-04-14T11:40:43Z</time>
      </trkpt>
      <trkpt lat="59.7978251" lon="17.7935932">
        <ele>3.98267</ele>
        <time>2013-04-14T11:40:44Z</time>
      </trkpt>
      <trkpt lat="59.7977775" lon="17.7935255">
        <ele>3.98267</ele>
        <time>2013-04-14T11:40:45Z</time>
      </trkpt>
      <trkpt lat="59.7977289" lon="17.7934504">
        <ele>4.46326</ele>
        <time>2013-04-14T11:40:46Z</time>
      </trkpt>
      <trkpt lat="59.7976803" lon="17.7933745">
        <ele>5.42456</ele>
        <time>2013-04-14T11:40:47Z</time>
      </trkpt>
      <trkpt lat="59.7976315" lon="17.7932999">
        <ele>5.90527</ele>
        <time>2013-04-14T11:40:48Z</time>
      </trkpt>
      <trkpt lat="59.7975829" lon="17.7932263">
        <ele>6.38586</ele>
        <time>2013-04-14T11:40:49Z</time>
      </trkpt>
      <trkpt lat="59.7975357" lon="17.7931533">
        <ele>6.38586</ele>
        <time>2013-04-14T11:40:50Z</time>
      </trkpt>
      <trkpt lat="59.7974885" lon="17.7930819">
        <ele>6.86646</ele>
        <time>2013-04-14T11:40:51Z</time>
      </trkpt>
      <trkpt lat="59.7974409" lon="17.7930117">
        <ele>7.34717</ele>
        <time>2013-04-14T11:40:52Z</time>
      </trkpt>
      <trkpt lat="59.7973937" lon="17.7929396">
        <ele>7.34717</ele>
        <time>2013-04-14T11:40:53Z</time>
      </trkpt>
      <trkpt lat="59.7973459" lon="17.7928668">
        <ele>7.82788</ele>
        <time>2013-04-14T11:40:54Z</time>
      </trkpt>
      <trkpt lat="59.7972967" lon="17.7927944">
        <ele>7.82788</ele>
        <time>2013-04-14T11:40:55Z</time>
      </trkpt>
      <trkpt lat="59.7972476" lon="17.7927223">
        <ele>8.30859</ele>
        <time>2013-04-14T11:40:56Z</time>
      </trkpt>
      <trkpt lat="59.797199" lon="17.7926494">
        <ele>8.30859</ele>
        <time>2013-04-14T11:40:57Z</time>
      </trkpt>
      <trkpt lat="59.7971501" lon="17.7925776">
        <ele>8.30859</ele>
        <time>2013-04-14T11:40:58Z</time>
      </trkpt>
      <trkpt lat="59.7971012" lon="17.7925059">
        <ele>8.78918</ele>
        <time>2013-04-14T11:40:59Z</time>
      </trkpt>
      <trkpt lat="59.7970529" lon="17.7924327">
        <ele>8.78918</ele>
        <time>2013-04-14T11:41:00Z</time>
      </trkpt>
      <trkpt lat="59.7970047" lon="17.7923603">
        <ele>8.78918</ele>
        <time>2013-04-14T11:41:01Z</time>
      </trkpt>
      <trkpt lat="59.7969566" lon="17.7922892">
        <ele>8.78918</ele>
        <time>2013-04-14T11:41:02Z</time>
      </trkpt>
      <trkpt lat="59.7969089" lon="17.7922178">
        <ele>9.2699</ele>
        <time>2013-04-14T11:41:03Z</time>
      </trkpt>
      <trkpt lat="59.7968608" lon="17.7921473">
        <ele>9.2699</ele>
        <time>2013-04-14T11:41:04Z</time>
      </trkpt>
      <trkpt lat="59.7968126" lon="17.7920762">
        <ele>9.2699</ele>
        <time>2013-04-14T11:41:05Z</time>
      </trkpt>
      <trkpt lat="59.7967645" lon="17.7920047">
        <ele>9.2699</ele>
        <time>2013-04-14T11:41:06Z</time>
      </trkpt>
      <trkpt lat="59.7967167" lon="17.791934">
        <ele>9.75061</ele>
        <time>2013-04-14T11:41:07Z</time>
      </trkpt>
      <trkpt lat="59.7966687" lon="17.7918645">
        <ele>9.75061</ele>
        <time>2013-04-14T11:41:08Z</time>
      </trkpt>
      <trkpt lat="59.7966209" lon="17.7917952">
        <ele>9.75061</ele>
        <time>2013-04-14T11:41:09Z</time>
      </trkpt>
      <trkpt lat="59.7965738" lon="17.7917226">
        <ele>9.75061</ele>
        <time>2013-04-14T11:41:10Z</time>
      </trkpt>
      <trkpt lat="59.7965271" lon="17.7916493">
        <ele>9.75061</ele>
        <time>2013-04-14T11:41:11Z</time>
      </trkpt>
      <trkpt lat="59.7964785" lon="17.791579">
        <ele>9.75061</ele>
        <time>2013-04-14T11:41:12Z</time>
      </trkpt>
      <trkpt lat="59.7964293" lon="17.7915087">
        <ele>9.75061</ele>
        <time>2013-04-14T11:41:13Z</time>
      </trkpt>
      <trkpt lat="59.7963805" lon="17.7914376">
        <ele>9.75061</ele>
        <time>2013-04-14T11:41:14Z</time>
      </trkpt>
      <trkpt lat="59.7963319" lon="17.7913671">
        <ele>9.75061</ele>
        <time>2013-04-14T11:41:15Z</time>
      </trkpt>
      <trkpt lat="59.7962826" lon="17.7912974">
        <ele>9.75061</ele>
        <time>2013-04-14T11:41:16Z</time>
      </trkpt>
      <trkpt lat="59.7962338" lon="17.7912279">
        <ele>10.2312</ele>
        <time>2013-04-14T11:41:17Z</time>
      </trkpt>
      <trkpt lat="59.7961866" lon="17.7911611">
        <ele>10.2312</ele>
        <time>2013-04-14T11:41:18Z</time>
      </trkpt>
      <trkpt lat="59.7961417" lon="17.7910947">
        <ele>10.2312</ele>
        <time>2013-04-14T11:41:19Z</time>
      </trkpt>
      <trkpt lat="59.7960982" lon="17.7910292">
        <ele>10.7118</ele>
        <time>2013-04-14T11:41:20Z</time>
      </trkpt>
      <trkpt lat="59.7960541" lon="17.790966">
        <ele>10.7118</ele>
        <time>2013-04-14T11:41:21Z</time>
      </trkpt>
      <trkpt lat="59.7960101" lon="17.7909026">
        <ele>10.7118</ele>
        <time>2013-04-14T11:41:22Z</time>
      </trkpt>
      <trkpt lat="59.7959659" lon="17.7908379">
        <ele>10.7118</ele>
        <time>2013-04-14T11:41:23Z</time>
      </trkpt>
      <trkpt lat="59.7959216" lon="17.790772">
        <ele>10.7118</ele>
        <time>2013-04-14T11:41:24Z</time>
      </trkpt>
      <trkpt lat="59.7958772" lon="17.7907055">
        <ele>11.1925</ele>
        <time>2013-04-14T11:41:25Z</time>
      </trkpt>
      <trkpt lat="59.7958321" lon="17.7906404">
        <ele>11.1925</ele>
        <time>2013-04-14T11:41:26Z</time>
      </trkpt>
      <trkpt lat="59.7957862" lon="17.7905758">
        <ele>11.1925</ele>
        <time>2013-04-14T11:41:27Z</time>
      </trkpt>
      <trkpt lat="59.7957402" lon="17.7905099">
        <ele>11.1925</ele>
        <time>2013-04-14T11:41:28Z</time>
      </trkpt>
      <trkpt lat="59.7956947" lon="17.7904416">
        <ele>11.1925</ele>
        <time>2013-04-14T11:41:29Z</time>
      </trkpt>
      <trkpt lat="59.7956491" lon="17.7903731">
        <ele>11.1925</ele>
        <time>2013-04-14T11:41:30Z</time>
      </trkpt>
      <trkpt lat="59.7956034" lon="17.7903056">
        <ele>11.6732</ele>
        <time>2013-04-14T11:41:31Z</time>
      </trkpt>
      <trkpt lat="59.7955581" lon="17.7902395">
        <ele>11.6732</ele>
        <time>2013-04-14T11:41:32Z</time>
      </trkpt>
      <trkpt lat="59.7955137" lon="17.7901738">
        <ele>11.6732</ele>
        <time>2013-04-14T11:41:33Z</time>
      </trkpt>
      <trkpt lat="59.7954697" lon="17.790107">
        <ele>11.6732</ele>
        <time>2013-04-14T11:41:34Z</time>
      </trkpt>
      <trkpt lat="59.7954259" lon="17.7900416">
        <ele>11.6732</ele>
        <time>2013-04-14T11:41:35Z</time>
      </trkpt>
      <trkpt lat="59.7953813" lon="17.7899767">
        <ele>11.6732</ele>
        <time>2013-04-14T11:41:36Z</time>
      </trkpt>
      <trkpt lat="59.7953363" lon="17.7899131">
        <ele>11.6732</ele>
        <time>2013-04-14T11:41:37Z</time>
      </trkpt>
      <trkpt lat="59.7952922" lon="17.7898499">
        <ele>11.6732</ele>
        <time>2013-04-14T11:41:38Z</time>
      </trkpt>
      <trkpt lat="59.7952477" lon="17.7897826">
        <ele>12.1538</ele>
        <time>2013-04-14T11:41:39Z</time>
      </trkpt>
      <trkpt lat="59.7952034" lon="17.7897152">
        <ele>12.1538</ele>
        <time>2013-04-14T11:41:40Z</time>
      </trkpt>
      <trkpt lat="59.7951589" lon="17.7896487">
        <ele>12.6344</ele>
        <time>2013-04-14T11:41:41Z</time>
      </trkpt>
      <trkpt lat="59.795114" lon="17.7895832">
        <ele>12.6344</ele>
        <time>2013-04-14T11:41:42Z</time>
      </trkpt>
      <trkpt lat="59.7950693" lon="17.7895205">
        <ele>13.1151</ele>
        <time>2013-04-14T11:41:43Z</time>
      </trkpt>
      <trkpt lat="59.7950263" lon="17.7894592">
        <ele>13.1151</ele>
        <time>2013-04-14T11:41:44Z</time>
      </trkpt>
      <trkpt lat="59.7949851" lon="17.7893972">
        <ele>13.1151</ele>
        <time>2013-04-14T11:41:45Z</time>
      </trkpt>
      <trkpt lat="59.7949444" lon="17.7893361">
        <ele>13.1151</ele>
        <time>2013-04-14T11:41:46Z</time>
      </trkpt>
      <trkpt lat="59.7949033" lon="17.7892792">
        <ele>13.1151</ele>
        <time>2013-04-14T11:41:47Z</time>
      </trkpt>
      <trkpt lat="59.7948626" lon="17.7892238">
        <ele>13.5958</ele>
        <time>2013-04-14T11:41:48Z</time>
      </trkpt>
      <trkpt lat="59.7948234" lon="17.7891677">
        <ele>13.5958</ele>
        <time>2013-04-14T11:41:49Z</time>
      </trkpt>
      <trkpt lat="59.7947862" lon="17.7891129">
        <ele>13.5958</ele>
        <time>2013-04-14T11:41:50Z</time>
      </trkpt>
      <trkpt lat="59.7947517" lon="17.78906">
        <ele>14.0764</ele>
        <time>2013-04-14T11:41:51Z</time>
      </trkpt>
      <trkpt lat="59.7947189" lon="17.7890105">
        <ele>14.0764</ele>
        <time>2013-04-14T11:41:52Z</time>
      </trkpt>
      <trkpt lat="59.7946877" lon="17.7889667">
        <ele>14.0764</ele>
        <time>2013-04-14T11:41:53Z</time>
      </trkpt>
      <trkpt lat="59.7946586" lon="17.7889274">
        <ele>14.557</ele>
        <time>2013-04-14T11:41:54Z</time>
      </trkpt>
      <trkpt lat="59.7946332" lon="17.7888869">
        <ele>14.557</ele>
        <time>2013-04-14T11:41:55Z</time>
      </trkpt>
      <trkpt lat="59.7946113" lon="17.7888425">
        <ele>14.557</ele>
        <time>2013-04-14T11:41:56Z</time>
      </trkpt>
      <trkpt lat="59.7945939" lon="17.7887916">
        <ele>14.557</ele>
        <time>2013-04-14T11:41:57Z</time>
      </trkpt>
      <trkpt lat="59.7945834" lon="17.788731">
        <ele>14.557</ele>
        <time>2013-04-14T11:41:58Z</time>
      </trkpt>
      <trkpt lat="59.7945813" lon="17.7886651">
        <ele>14.557</ele>
        <time>2013-04-14T11:41:59Z</time>
      </trkpt>
      <trkpt lat="59.7945872" lon="17.7885985">
        <ele>14.557</ele>
        <time>2013-04-14T11:42:00Z</time>
      </trkpt>
      <trkpt lat="59.794601" lon="17.7885319">
        <ele>14.557</ele>
        <time>2013-04-14T11:42:01Z</time>
      </trkpt>
      <trkpt lat="59.7946234" lon="17.7884693">
        <ele>14.0764</ele>
        <time>2013-04-14T11:42:02Z</time>
      </trkpt>
      <trkpt lat="59.7946497" lon="17.7884036">
        <ele>13.5958</ele>
        <time>2013-04-14T11:42:03Z</time>
      </trkpt>
      <trkpt lat="59.7946766" lon="17.7883291">
        <ele>14.0764</ele>
        <time>2013-04-14T11:42:04Z</time>
      </trkpt>
      <trkpt lat="59.7947057" lon="17.7882529">
        <ele>14.0764</ele>
        <time>2013-04-14T11:42:05Z</time>
      </trkpt>
      <trkpt lat="59.7947369" lon="17.7881736">
        <ele>14.557</ele>
        <time>2013-04-14T11:42:06Z</time>
      </trkpt>
      <trkpt lat="59.7947714" lon="17.7880944">
        <ele>14.0764</ele>
        <time>2013-04-14T11:42:07Z</time>
      </trkpt>
      <trkpt lat="59.7948062" lon="17.7880121">
        <ele>14.0764</ele>
        <time>2013-04-14T11:42:08Z</time>
      </trkpt>
      <trkpt lat="59.7948415" lon="17.7879308">
        <ele>14.0764</ele>
        <time>2013-04-14T11:42:09Z</time>
      </trkpt>
      <trkpt lat="59.7948772" lon="17.7878509">
        <ele>14.0764</ele>
        <time>2013-04-14T11:42:10Z</time>
      </trkpt>
      <trkpt lat="59.7949142" lon="17.7877717">
        <ele>14.0764</ele>
        <time>2013-04-14T11:42:11Z</time>
      </trkpt>
      <trkpt lat="59.7949539" lon="17.7876915">
        <ele>14.0764</ele>
        <time>2013-04-14T11:42:12Z</time>
      </trkpt>
      <trkpt lat="59.7949943" lon="17.7876105">
        <ele>14.557</ele>
        <time>2013-04-14T11:42:13Z</time>
      </trkpt>
      <trkpt lat="59.7950367" lon="17.7875312">
        <ele>14.557</ele>
        <time>2013-04-14T11:42:14Z</time>
      </trkpt>
      <trkpt lat="59.7950801" lon="17.7874522">
        <ele>15.0377</ele>
        <time>2013-04-14T11:42:15Z</time>
      </trkpt>
      <trkpt lat="59.7951242" lon="17.7873728">
        <ele>15.0377</ele>
        <time>2013-04-14T11:42:16Z</time>
      </trkpt>
      <trkpt lat="59.7951685" lon="17.7872936">
        <ele>15.0377</ele>
        <time>2013-04-14T11:42:17Z</time>
      </trkpt>
      <trkpt lat="59.7952124" lon="17.7872134">
        <ele>15.5184</ele>
        <time>2013-04-14T11:42:18Z</time>
      </trkpt>
      <trkpt lat="59.7952549" lon="17.7871319">
        <ele>15.5184</ele>
        <time>2013-04-14T11:42:19Z</time>
      </trkpt>
      <trkpt lat="59.7952972" lon="17.7870504">
        <ele>15.999</ele>
        <time>2013-04-14T11:42:20Z</time>
      </trkpt>
      <trkpt lat="59.7953393" lon="17.7869702">
        <ele>15.999</ele>
        <time>2013-04-14T11:42:21Z</time>
      </trkpt>
      <trkpt lat="59.7953818" lon="17.7868929">
        <ele>16.4797</ele>
        <time>2013-04-14T11:42:22Z</time>
      </trkpt>
      <trkpt lat="59.7954248" lon="17.7868175">
        <ele>16.4797</ele>
        <time>2013-04-14T11:42:23Z</time>
      </trkpt>
      <trkpt lat="59.7954687" lon="17.7867412">
        <ele>16.4797</ele>
        <time>2013-04-14T11:42:24Z</time>
      </trkpt>
      <trkpt lat="59.795513" lon="17.7866624">
        <ele>16.9604</ele>
        <time>2013-04-14T11:42:25Z</time>
      </trkpt>
      <trkpt lat="59.7955579" lon="17.7865822">
        <ele>16.9604</ele>
        <time>2013-04-14T11:42:26Z</time>
      </trkpt>
      <trkpt lat="59.7956042" lon="17.7865">
        <ele>16.9604</ele>
        <time>2013-04-14T11:42:27Z</time>
      </trkpt>
      <trkpt lat="59.7956508" lon="17.7864149">
        <ele>16.9604</ele>
        <time>2013-04-14T11:42:28Z</time>
      </trkpt>
      <trkpt lat="59.7956973" lon="17.7863284">
        <ele>16.9604</ele>
        <time>2013-04-14T11:42:29Z</time>
      </trkpt>
      <trkpt lat="59.7957443" lon="17.7862428">
        <ele>17.4412</ele>
        <time>2013-04-14T11:42:30Z</time>
      </trkpt>
      <trkpt lat="59.7957909" lon="17.7861581">
        <ele>17.4412</ele>
        <time>2013-04-14T11:42:31Z</time>
      </trkpt>
      <trkpt lat="59.7958356" lon="17.7860741">
        <ele>16.9604</ele>
        <time>2013-04-14T11:42:32Z</time>
      </trkpt>
      <trkpt lat="59.7958807" lon="17.7859876">
        <ele>16.4797</ele>
        <time>2013-04-14T11:42:33Z</time>
      </trkpt>
      <trkpt lat="59.7959237" lon="17.7858952">
        <ele>16.4797</ele>
        <time>2013-04-14T11:42:34Z</time>
      </trkpt>
      <trkpt lat="59.7959649" lon="17.7857987">
        <ele>15.999</ele>
        <time>2013-04-14T11:42:35Z</time>
      </trkpt>
      <trkpt lat="59.7960041" lon="17.7856991">
        <ele>15.999</ele>
        <time>2013-04-14T11:42:36Z</time>
      </trkpt>
      <trkpt lat="59.7960411" lon="17.785595">
        <ele>15.999</ele>
        <time>2013-04-14T11:42:37Z</time>
      </trkpt>
      <trkpt lat="59.7960752" lon="17.785491">
        <ele>15.5184</ele>
        <time>2013-04-14T11:42:38Z</time>
      </trkpt>
      <trkpt lat="59.7961064" lon="17.7853829">
        <ele>15.0377</ele>
        <time>2013-04-14T11:42:39Z</time>
      </trkpt>
      <trkpt lat="59.7961353" lon="17.7852712">
        <ele>14.557</ele>
        <time>2013-04-14T11:42:40Z</time>
      </trkpt>
      <trkpt lat="59.7961639" lon="17.7851561">
        <ele>14.0764</ele>
        <time>2013-04-14T11:42:41Z</time>
      </trkpt>
      <trkpt lat="59.7961929" lon="17.7850386">
        <ele>13.5958</ele>
        <time>2013-04-14T11:42:42Z</time>
      </trkpt>
      <trkpt lat="59.796222" lon="17.7849194">
        <ele>13.5958</ele>
        <time>2013-04-14T11:42:43Z</time>
      </trkpt>
      <trkpt lat="59.7962508" lon="17.7847988">
        <ele>13.1151</ele>
        <time>2013-04-14T11:42:44Z</time>
      </trkpt>
      <trkpt lat="59.796278" lon="17.7846766">
        <ele>12.6344</ele>
        <time>2013-04-14T11:42:45Z</time>
      </trkpt>
      <trkpt lat="59.796306" lon="17.7845541">
        <ele>12.6344</ele>
        <time>2013-04-14T11:42:46Z</time>
      </trkpt>
      <trkpt lat="59.7963335" lon="17.7844326">
        <ele>12.1538</ele>
        <time>2013-04-14T11:42:47Z</time>
      </trkpt>
      <trkpt lat="59.7963646" lon="17.7843112">
        <ele>12.1538</ele>
        <time>2013-04-14T11:42:48Z</time>
      </trkpt>
      <trkpt lat="59.7963959" lon="17.7841902">
        <ele>11.6732</ele>
        <time>2013-04-14T11:42:49Z</time>
      </trkpt>
      <trkpt lat="59.7964285" lon="17.7840695">
        <ele>11.1925</ele>
        <time>2013-04-14T11:42:50Z</time>
      </trkpt>
      <trkpt lat="59.7964644" lon="17.7839489">
        <ele>11.1925</ele>
        <time>2013-04-14T11:42:51Z</time>
      </trkpt>
      <trkpt lat="59.7965033" lon="17.7838322">
        <ele>11.1925</ele>
        <time>2013-04-14T11:42:52Z</time>
      </trkpt>
      <trkpt lat="59.7965437" lon="17.7837202">
        <ele>11.6732</ele>
        <time>2013-04-14T11:42:53Z</time>
      </trkpt>
      <trkpt lat="59.7965839" lon="17.7836091">
        <ele>12.1538</ele>
        <time>2013-04-14T11:42:54Z</time>
      </trkpt>
      <trkpt lat="59.7966204" lon="17.7835047">
        <ele>12.1538</ele>
        <time>2013-04-14T11:42:55Z</time>
      </trkpt>
      <trkpt lat="59.7966598" lon="17.783408">
        <ele>12.1538</ele>
        <time>2013-04-14T11:42:56Z</time>
      </trkpt>
      <trkpt lat="59.7967001" lon="17.7833121">
        <ele>11.6732</ele>
        <time>2013-04-14T11:42:57Z</time>
      </trkpt>
      <trkpt lat="59.7967394" lon="17.783214">
        <ele>11.6732</ele>
        <time>2013-04-14T11:42:58Z</time>
      </trkpt>
      <trkpt lat="59.796779" lon="17.7831149">
        <ele>11.6732</ele>
        <time>2013-04-14T11:42:59Z</time>
      </trkpt>
      <trkpt lat="59.7968196" lon="17.7830136">
        <ele>11.1925</ele>
        <time>2013-04-14T11:43:00Z</time>
      </trkpt>
      <trkpt lat="59.7968618" lon="17.7829106">
        <ele>11.1925</ele>
        <time>2013-04-14T11:43:01Z</time>
      </trkpt>
      <trkpt lat="59.796903" lon="17.7828061">
        <ele>11.1925</ele>
        <time>2013-04-14T11:43:02Z</time>
      </trkpt>
      <trkpt lat="59.7969422" lon="17.7826993">
        <ele>10.7118</ele>
        <time>2013-04-14T11:43:03Z</time>
      </trkpt>
      <trkpt lat="59.7969814" lon="17.7825921">
        <ele>10.2312</ele>
        <time>2013-04-14T11:43:04Z</time>
      </trkpt>
      <trkpt lat="59.7970227" lon="17.7824873">
        <ele>10.2312</ele>
        <time>2013-04-14T11:43:05Z</time>
      </trkpt>
      <trkpt lat="59.7970633" lon="17.7823821">
        <ele>10.2312</ele>
        <time>2013-04-14T11:43:06Z</time>
      </trkpt>
      <trkpt lat="59.7971021" lon="17.782276">
        <ele>10.2312</ele>
        <time>2013-04-14T11:43:07Z</time>
      </trkpt>
      <trkpt lat="59.7971406" lon="17.7821694">
        <ele>10.2312</ele>
        <time>2013-04-14T11:43:08Z</time>
      </trkpt>
      <trkpt lat="59.7971819" lon="17.7820645">
        <ele>10.7118</ele>
        <time>2013-04-14T11:43:09Z</time>
      </trkpt>
      <trkpt lat="59.7972228" lon="17.7819591">
        <ele>11.6732</ele>
        <time>2013-04-14T11:43:10Z</time>
      </trkpt>
      <trkpt lat="59.7972622" lon="17.7818528">
        <ele>11.6732</ele>
        <time>2013-04-14T11:43:11Z</time>
      </trkpt>
      <trkpt lat="59.797301" lon="17.7817489">
        <ele>12.1538</ele>
        <time>2013-04-14T11:43:12Z</time>
      </trkpt>
      <trkpt lat="59.7973383" lon="17.7816441">
        <ele>12.1538</ele>
        <time>2013-04-14T11:43:13Z</time>
      </trkpt>
      <trkpt lat="59.797374" lon="17.7815414">
        <ele>12.1538</ele>
        <time>2013-04-14T11:43:14Z</time>
      </trkpt>
      <trkpt lat="59.7974125" lon="17.7814416">
        <ele>12.6344</ele>
        <time>2013-04-14T11:43:15Z</time>
      </trkpt>
      <trkpt lat="59.7974518" lon="17.781343">
        <ele>13.1151</ele>
        <time>2013-04-14T11:43:16Z</time>
      </trkpt>
      <trkpt lat="59.7974899" lon="17.7812441">
        <ele>13.5958</ele>
        <time>2013-04-14T11:43:17Z</time>
      </trkpt>
      <trkpt lat="59.7975248" lon="17.7811402">
        <ele>13.5958</ele>
        <time>2013-04-14T11:43:18Z</time>
      </trkpt>
      <trkpt lat="59.7975611" lon="17.7810397">
        <ele>13.1151</ele>
        <time>2013-04-14T11:43:19Z</time>
      </trkpt>
      <trkpt lat="59.7975974" lon="17.7809391">
        <ele>13.5958</ele>
        <time>2013-04-14T11:43:20Z</time>
      </trkpt>
      <trkpt lat="59.7976321" lon="17.7808381">
        <ele>13.1151</ele>
        <time>2013-04-14T11:43:21Z</time>
      </trkpt>
      <trkpt lat="59.7976678" lon="17.7807348">
        <ele>12.6344</ele>
        <time>2013-04-14T11:43:22Z</time>
      </trkpt>
      <trkpt lat="59.797703" lon="17.7806294">
        <ele>12.6344</ele>
        <time>2013-04-14T11:43:23Z</time>
      </trkpt>
      <trkpt lat="59.7977381" lon="17.7805233">
        <ele>12.6344</ele>
        <time>2013-04-14T11:43:24Z</time>
      </trkpt>
      <trkpt lat="59.7977725" lon="17.7804164">
        <ele>12.6344</ele>
        <time>2013-04-14T11:43:25Z</time>
      </trkpt>
      <trkpt lat="59.7978067" lon="17.7803093">
        <ele>12.6344</ele>
        <time>2013-04-14T11:43:26Z</time>
      </trkpt>
      <trkpt lat="59.7978414" lon="17.7802025">
        <ele>12.1538</ele>
        <time>2013-04-14T11:43:27Z</time>
      </trkpt>
      <trkpt lat="59.7978761" lon="17.7800968">
        <ele>12.1538</ele>
        <time>2013-04-14T11:43:28Z</time>
      </trkpt>
      <trkpt lat="59.7979118" lon="17.7799931">
        <ele>11.6732</ele>
        <time>2013-04-14T11:43:29Z</time>
      </trkpt>
      <trkpt lat="59.7979479" lon="17.7798921">
        <ele>11.6732</ele>
        <time>2013-04-14T11:43:30Z</time>
      </trkpt>
      <trkpt lat="59.7979859" lon="17.7797928">
        <ele>11.6732</ele>
        <time>2013-04-14T11:43:31Z</time>
      </trkpt>
      <trkpt lat="59.7980269" lon="17.7796947">
        <ele>12.1538</ele>
        <time>2013-04-14T11:43:32Z</time>
      </trkpt>
      <trkpt lat="59.798068" lon="17.7796002">
        <ele>12.6344</ele>
        <time>2013-04-14T11:43:33Z</time>
      </trkpt>
      <trkpt lat="59.79811" lon="17.7795066">
        <ele>13.1151</ele>
        <time>2013-04-14T11:43:34Z</time>
      </trkpt>
      <trkpt lat="59.7981517" lon="17.779416">
        <ele>13.1151</ele>
        <time>2013-04-14T11:43:35Z</time>
      </trkpt>
      <trkpt lat="59.7981957" lon="17.7793281">
        <ele>13.5958</ele>
        <time>2013-04-14T11:43:36Z</time>
      </trkpt>
      <trkpt lat="59.7982416" lon="17.7792402">
        <ele>13.5958</ele>
        <time>2013-04-14T11:43:37Z</time>
      </trkpt>
      <trkpt lat="59.7982879" lon="17.7791519">
        <ele>13.5958</ele>
        <time>2013-04-14T11:43:38Z</time>
      </trkpt>
      <trkpt lat="59.7983365" lon="17.7790655">
        <ele>14.0764</ele>
        <time>2013-04-14T11:43:39Z</time>
      </trkpt>
      <trkpt lat="59.7983877" lon="17.778981">
        <ele>14.557</ele>
        <time>2013-04-14T11:43:40Z</time>
      </trkpt>
      <trkpt lat="59.7984396" lon="17.7788956">
        <ele>14.557</ele>
        <time>2013-04-14T11:43:41Z</time>
      </trkpt>
      <trkpt lat="59.7984925" lon="17.7788084">
        <ele>14.557</ele>
        <time>2013-04-14T11:43:42Z</time>
      </trkpt>
      <trkpt lat="59.7985474" lon="17.7787215">
        <ele>15.0377</ele>
        <time>2013-04-14T11:43:43Z</time>
      </trkpt>
      <trkpt lat="59.7986048" lon="17.7786365">
        <ele>15.0377</ele>
        <time>2013-04-14T11:43:44Z</time>
      </trkpt>
      <trkpt lat="59.7986637" lon="17.7785526">
        <ele>15.5184</ele>
        <time>2013-04-14T11:43:45Z</time>
      </trkpt>
      <trkpt lat="59.7987238" lon="17.7784692">
        <ele>15.999</ele>
        <time>2013-04-14T11:43:46Z</time>
      </trkpt>
      <trkpt lat="59.7987847" lon="17.7783862">
        <ele>16.4797</ele>
        <time>2013-04-14T11:43:47Z</time>
      </trkpt>
      <trkpt lat="59.7988448" lon="17.7783039">
        <ele>16.4797</ele>
        <time>2013-04-14T11:43:48Z</time>
      </trkpt>
      <trkpt lat="59.7989046" lon="17.7782219">
        <ele>16.4797</ele>
        <time>2013-04-14T11:43:49Z</time>
      </trkpt>
      <trkpt lat="59.7989633" lon="17.7781397">
        <ele>16.4797</ele>
        <time>2013-04-14T11:43:50Z</time>
      </trkpt>
      <trkpt lat="59.7990214" lon="17.7780594">
        <ele>16.9604</ele>
        <time>2013-04-14T11:43:51Z</time>
      </trkpt>
      <trkpt lat="59.7990767" lon="17.7779782">
        <ele>16.9604</ele>
        <time>2013-04-14T11:43:52Z</time>
      </trkpt>
      <trkpt lat="59.7991296" lon="17.777894">
        <ele>16.4797</ele>
        <time>2013-04-14T11:43:53Z</time>
      </trkpt>
      <trkpt lat="59.7991824" lon="17.7778093">
        <ele>16.4797</ele>
        <time>2013-04-14T11:43:54Z</time>
      </trkpt>
      <trkpt lat="59.7992343" lon="17.7777253">
        <ele>15.999</ele>
        <time>2013-04-14T11:43:55Z</time>
      </trkpt>
      <trkpt lat="59.7992877" lon="17.7776395">
        <ele>15.5184</ele>
        <time>2013-04-14T11:43:56Z</time>
      </trkpt>
      <trkpt lat="59.7993421" lon="17.7775478">
        <ele>15.0377</ele>
        <time>2013-04-14T11:43:57Z</time>
      </trkpt>
      <trkpt lat="59.7993985" lon="17.7774533">
        <ele>15.0377</ele>
        <time>2013-04-14T11:43:58Z</time>
      </trkpt>
      <trkpt lat="59.799457" lon="17.7773559">
        <ele>14.557</ele>
        <time>2013-04-14T11:43:59Z</time>
      </trkpt>
      <trkpt lat="59.7995159" lon="17.7772538">
        <ele>14.557</ele>
        <time>2013-04-14T11:44:00Z</time>
      </trkpt>
      <trkpt lat="59.7995766" lon="17.7771495">
        <ele>14.0764</ele>
        <time>2013-04-14T11:44:01Z</time>
      </trkpt>
      <trkpt lat="59.7996365" lon="17.7770412">
        <ele>14.0764</ele>
        <time>2013-04-14T11:44:02Z</time>
      </trkpt>
      <trkpt lat="59.7996951" lon="17.776929">
        <ele>13.5958</ele>
        <time>2013-04-14T11:44:03Z</time>
      </trkpt>
      <trkpt lat="59.7997526" lon="17.7768181">
        <ele>13.1151</ele>
        <time>2013-04-14T11:44:04Z</time>
      </trkpt>
      <trkpt lat="59.7998099" lon="17.7767106">
        <ele>12.6344</ele>
        <time>2013-04-14T11:44:05Z</time>
      </trkpt>
      <trkpt lat="59.7998667" lon="17.776607">
        <ele>12.6344</ele>
        <time>2013-04-14T11:44:06Z</time>
      </trkpt>
      <trkpt lat="59.7999235" lon="17.7765089">
        <ele>12.1538</ele>
        <time>2013-04-14T11:44:07Z</time>
      </trkpt>
      <trkpt lat="59.7999807" lon="17.7764122">
        <ele>12.6344</ele>
        <time>2013-04-14T11:44:08Z</time>
      </trkpt>
      <trkpt lat="59.8000377" lon="17.7763195">
        <ele>12.6344</ele>
        <time>2013-04-14T11:44:09Z</time>
      </trkpt>
      <trkpt lat="59.8000946" lon="17.7762283">
        <ele>12.6344</ele>
        <time>2013-04-14T11:44:10Z</time>
      </trkpt>
      <trkpt lat="59.8001507" lon="17.7761361">
        <ele>12.6344</ele>
        <time>2013-04-14T11:44:11Z</time>
      </trkpt>
      <trkpt lat="59.8002046" lon="17.7760424">
        <ele>12.1538</ele>
        <time>2013-04-14T11:44:12Z</time>
      </trkpt>
      <trkpt lat="59.8002568" lon="17.7759491">
        <ele>12.1538</ele>
        <time>2013-04-14T11:44:13Z</time>
      </trkpt>
      <trkpt lat="59.8003107" lon="17.7758585">
        <ele>11.6732</ele>
        <time>2013-04-14T11:44:14Z</time>
      </trkpt>
      <trkpt lat="59.8003647" lon="17.7757653">
        <ele>11.6732</ele>
        <time>2013-04-14T11:44:15Z</time>
      </trkpt>
      <trkpt lat="59.8004177" lon="17.7756692">
        <ele>11.1925</ele>
        <time>2013-04-14T11:44:16Z</time>
      </trkpt>
      <trkpt lat="59.8004706" lon="17.7755719">
        <ele>11.1925</ele>
        <time>2013-04-14T11:44:17Z</time>
      </trkpt>
      <trkpt lat="59.8005246" lon="17.775474">
        <ele>11.1925</ele>
        <time>2013-04-14T11:44:18Z</time>
      </trkpt>
      <trkpt lat="59.8005765" lon="17.7753757">
        <ele>11.1925</ele>
        <time>2013-04-14T11:44:19Z</time>
      </trkpt>
      <trkpt lat="59.8006281" lon="17.7752774">
        <ele>11.1925</ele>
        <time>2013-04-14T11:44:20Z</time>
      </trkpt>
      <trkpt lat="59.8006793" lon="17.7751799">
        <ele>11.1925</ele>
        <time>2013-04-14T11:44:21Z</time>
      </trkpt>
      <trkpt lat="59.8007303" lon="17.7750804">
        <ele>11.1925</ele>
        <time>2013-04-14T11:44:22Z</time>
      </trkpt>
      <trkpt lat="59.8007808" lon="17.7749779">
        <ele>10.7118</ele>
        <time>2013-04-14T11:44:23Z</time>
      </trkpt>
      <trkpt lat="59.8008323" lon="17.7748748">
        <ele>10.7118</ele>
        <time>2013-04-14T11:44:24Z</time>
      </trkpt>
      <trkpt lat="59.8008845" lon="17.7747705">
        <ele>10.7118</ele>
        <time>2013-04-14T11:44:25Z</time>
      </trkpt>
      <trkpt lat="59.8009368" lon="17.7746639">
        <ele>10.7118</ele>
        <time>2013-04-14T11:44:26Z</time>
      </trkpt>
      <trkpt lat="59.8009891" lon="17.774556">
        <ele>10.2312</ele>
        <time>2013-04-14T11:44:27Z</time>
      </trkpt>
      <trkpt lat="59.8010414" lon="17.7744463">
        <ele>10.2312</ele>
        <time>2013-04-14T11:44:28Z</time>
      </trkpt>
      <trkpt lat="59.8010934" lon="17.7743351">
        <ele>10.2312</ele>
        <time>2013-04-14T11:44:29Z</time>
      </trkpt>
      <trkpt lat="59.8011467" lon="17.7742251">
        <ele>10.2312</ele>
        <time>2013-04-14T11:44:30Z</time>
      </trkpt>
      <trkpt lat="59.8012004" lon="17.7741159">
        <ele>10.2312</ele>
        <time>2013-04-14T11:44:31Z</time>
      </trkpt>
      <trkpt lat="59.8012543" lon="17.7740066">
        <ele>9.75061</ele>
        <time>2013-04-14T11:44:32Z</time>
      </trkpt>
      <trkpt lat="59.8013078" lon="17.7738971">
        <ele>9.75061</ele>
        <time>2013-04-14T11:44:33Z</time>
      </trkpt>
      <trkpt lat="59.8013603" lon="17.7737868">
        <ele>9.75061</ele>
        <time>2013-04-14T11:44:34Z</time>
      </trkpt>
      <trkpt lat="59.8014114" lon="17.7736806">
        <ele>9.75061</ele>
        <time>2013-04-14T11:44:35Z</time>
      </trkpt>
      <trkpt lat="59.8014613" lon="17.7735796">
        <ele>10.2312</ele>
        <time>2013-04-14T11:44:36Z</time>
      </trkpt>
      <trkpt lat="59.8015099" lon="17.7734814">
        <ele>9.75061</ele>
        <time>2013-04-14T11:44:37Z</time>
      </trkpt>
      <trkpt lat="59.8015586" lon="17.773384">
        <ele>9.75061</ele>
        <time>2013-04-14T11:44:38Z</time>
      </trkpt>
      <trkpt lat="59.8016073" lon="17.7732858">
        <ele>9.75061</ele>
        <time>2013-04-14T11:44:39Z</time>
      </trkpt>
      <trkpt lat="59.8016554" lon="17.773186">
        <ele>9.75061</ele>
        <time>2013-04-14T11:44:40Z</time>
      </trkpt>
      <trkpt lat="59.8017039" lon="17.7730851">
        <ele>9.75061</ele>
        <time>2013-04-14T11:44:41Z</time>
      </trkpt>
      <trkpt lat="59.8017535" lon="17.7729849">
        <ele>9.75061</ele>
        <time>2013-04-14T11:44:42Z</time>
      </trkpt>
      <trkpt lat="59.8018039" lon="17.7728845">
        <ele>9.75061</ele>
        <time>2013-04-14T11:44:43Z</time>
      </trkpt>
      <trkpt lat="59.8018531" lon="17.7727841">
        <ele>9.2699</ele>
        <time>2013-04-14T11:44:44Z</time>
      </trkpt>
      <trkpt lat="59.8019014" lon="17.772684">
        <ele>9.2699</ele>
        <time>2013-04-14T11:44:45Z</time>
      </trkpt>
      <trkpt lat="59.8019492" lon="17.772583">
        <ele>9.75061</ele>
        <time>2013-04-14T11:44:46Z</time>
      </trkpt>
      <trkpt lat="59.8019972" lon="17.7724835">
        <ele>9.75061</ele>
        <time>2013-04-14T11:44:47Z</time>
      </trkpt>
      <trkpt lat="59.802045" lon="17.7723847">
        <ele>9.75061</ele>
        <time>2013-04-14T11:44:48Z</time>
      </trkpt>
      <trkpt lat="59.802093" lon="17.7722858">
        <ele>9.75061</ele>
        <time>2013-04-14T11:44:49Z</time>
      </trkpt>
      <trkpt lat="59.8021411" lon="17.7721852">
        <ele>9.75061</ele>
        <time>2013-04-14T11:44:50Z</time>
      </trkpt>
      <trkpt lat="59.8021894" lon="17.7720835">
        <ele>9.75061</ele>
        <time>2013-04-14T11:44:51Z</time>
      </trkpt>
      <trkpt lat="59.8022382" lon="17.7719816">
        <ele>9.75061</ele>
        <time>2013-04-14T11:44:52Z</time>
      </trkpt>
      <trkpt lat="59.8022878" lon="17.7718801">
        <ele>10.2312</ele>
        <time>2013-04-14T11:44:53Z</time>
      </trkpt>
      <trkpt lat="59.8023377" lon="17.7717792">
        <ele>10.2312</ele>
        <time>2013-04-14T11:44:54Z</time>
      </trkpt>
      <trkpt lat="59.8023873" lon="17.7716779">
        <ele>10.2312</ele>
        <time>2013-04-14T11:44:55Z</time>
      </trkpt>
      <trkpt lat="59.8024361" lon="17.7715752">
        <ele>10.2312</ele>
        <time>2013-04-14T11:44:56Z</time>
      </trkpt>
      <trkpt lat="59.8024847" lon="17.7714733">
        <ele>10.2312</ele>
        <time>2013-04-14T11:44:57Z</time>
      </trkpt>
      <trkpt lat="59.802533" lon="17.7713721">
        <ele>10.7118</ele>
        <time>2013-04-14T11:44:58Z</time>
      </trkpt>
      <trkpt lat="59.8025804" lon="17.7712731">
        <ele>10.7118</ele>
        <time>2013-04-14T11:44:59Z</time>
      </trkpt>
      <trkpt lat="59.8026263" lon="17.771176">
        <ele>10.7118</ele>
        <time>2013-04-14T11:45:00Z</time>
      </trkpt>
      <trkpt lat="59.8026713" lon="17.7710813">
        <ele>10.7118</ele>
        <time>2013-04-14T11:45:01Z</time>
      </trkpt>
      <trkpt lat="59.8027151" lon="17.7709891">
        <ele>10.7118</ele>
        <time>2013-04-14T11:45:02Z</time>
      </trkpt>
      <trkpt lat="59.8027584" lon="17.7708979">
        <ele>11.1925</ele>
        <time>2013-04-14T11:45:03Z</time>
      </trkpt>
      <trkpt lat="59.8028027" lon="17.7708075">
        <ele>11.1925</ele>
        <time>2013-04-14T11:45:04Z</time>
      </trkpt>
      <trkpt lat="59.8028472" lon="17.7707172">
        <ele>11.1925</ele>
        <time>2013-04-14T11:45:05Z</time>
      </trkpt>
      <trkpt lat="59.8028903" lon="17.7706254">
        <ele>11.1925</ele>
        <time>2013-04-14T11:45:06Z</time>
      </trkpt>
      <trkpt lat="59.8029319" lon="17.7705353">
        <ele>11.1925</ele>
        <time>2013-04-14T11:45:07Z</time>
      </trkpt>
      <trkpt lat="59.8029738" lon="17.7704484">
        <ele>11.6732</ele>
        <time>2013-04-14T11:45:08Z</time>
      </trkpt>
      <trkpt lat="59.8030157" lon="17.7703619">
        <ele>11.6732</ele>
        <time>2013-04-14T11:45:09Z</time>
      </trkpt>
      <trkpt lat="59.8030581" lon="17.770275">
        <ele>11.6732</ele>
        <time>2013-04-14T11:45:10Z</time>
      </trkpt>
      <trkpt lat="59.8031002" lon="17.7701878">
        <ele>11.6732</ele>
        <time>2013-04-14T11:45:11Z</time>
      </trkpt>
      <trkpt lat="59.8031414" lon="17.7700999">
        <ele>11.6732</ele>
        <time>2013-04-14T11:45:12Z</time>
      </trkpt>
      <trkpt lat="59.803182" lon="17.7700138">
        <ele>11.6732</ele>
        <time>2013-04-14T11:45:13Z</time>
      </trkpt>
      <trkpt lat="59.803222" lon="17.7699299">
        <ele>11.6732</ele>
        <time>2013-04-14T11:45:14Z</time>
      </trkpt>
      <trkpt lat="59.8032608" lon="17.7698483">
        <ele>11.6732</ele>
        <time>2013-04-14T11:45:15Z</time>
      </trkpt>
      <trkpt lat="59.8032984" lon="17.7697686">
        <ele>11.6732</ele>
        <time>2013-04-14T11:45:16Z</time>
      </trkpt>
      <trkpt lat="59.8033354" lon="17.7696911">
        <ele>11.6732</ele>
        <time>2013-04-14T11:45:17Z</time>
      </trkpt>
      <trkpt lat="59.8033742" lon="17.7696195">
        <ele>11.6732</ele>
        <time>2013-04-14T11:45:18Z</time>
      </trkpt>
      <trkpt lat="59.8034193" lon="17.7695694">
        <ele>11.1925</ele>
        <time>2013-04-14T11:45:19Z</time>
      </trkpt>
      <trkpt lat="59.8034719" lon="17.7695631">
        <ele>11.1925</ele>
        <time>2013-04-14T11:45:20Z</time>
      </trkpt>
      <trkpt lat="59.8035229" lon="17.7696039">
        <ele>10.7118</ele>
        <time>2013-04-14T11:45:21Z</time>
      </trkpt>
      <trkpt lat="59.8035682" lon="17.7696697">
        <ele>10.7118</ele>
        <time>2013-04-14T11:45:22Z</time>
      </trkpt>
      <trkpt lat="59.8036108" lon="17.7697454">
        <ele>10.7118</ele>
        <time>2013-04-14T11:45:23Z</time>
      </trkpt>
      <trkpt lat="59.803653" lon="17.7698307">
        <ele>10.2312</ele>
        <time>2013-04-14T11:45:24Z</time>
      </trkpt>
      <trkpt lat="59.8036964" lon="17.769922">
        <ele>10.2312</ele>
        <time>2013-04-14T11:45:25Z</time>
      </trkpt>
      <trkpt lat="59.8037414" lon="17.7700156">
        <ele>10.2312</ele>
        <time>2013-04-14T11:45:26Z</time>
      </trkpt>
      <trkpt lat="59.8037875" lon="17.7701102">
        <ele>10.2312</ele>
        <time>2013-04-14T11:45:27Z</time>
      </trkpt>
      <trkpt lat="59.803835" lon="17.7702014">
        <ele>10.2312</ele>
        <time>2013-04-14T11:45:28Z</time>
      </trkpt>
      <trkpt lat="59.8038855" lon="17.7702888">
        <ele>10.2312</ele>
        <time>2013-04-14T11:45:29Z</time>
      </trkpt>
      <trkpt lat="59.8039373" lon="17.770377">
        <ele>9.75061</ele>
        <time>2013-04-14T11:45:30Z</time>
      </trkpt>
      <trkpt lat="59.8039901" lon="17.770468">
        <ele>9.75061</ele>
        <time>2013-04-14T11:45:31Z</time>
      </trkpt>
      <trkpt lat="59.8040436" lon="17.7705593">
        <ele>9.75061</ele>
        <time>2013-04-14T11:45:32Z</time>
      </trkpt>
      <trkpt lat="59.8040985" lon="17.7706514">
        <ele>9.75061</ele>
        <time>2013-04-14T11:45:33Z</time>
      </trkpt>
      <trkpt lat="59.8041547" lon="17.7707451">
        <ele>9.75061</ele>
        <time>2013-04-14T11:45:34Z</time>
      </trkpt>
      <trkpt lat="59.8042109" lon="17.7708406">
        <ele>9.75061</ele>
        <time>2013-04-14T11:45:35Z</time>
      </trkpt>
      <trkpt lat="59.8042665" lon="17.7709363">
        <ele>9.75061</ele>
        <time>2013-04-14T11:45:36Z</time>
      </trkpt>
      <trkpt lat="59.8043218" lon="17.7710313">
        <ele>9.75061</ele>
        <time>2013-04-14T11:45:37Z</time>
      </trkpt>
      <trkpt lat="59.8043784" lon="17.7711264">
        <ele>9.75061</ele>
        <time>2013-04-14T11:45:38Z</time>
      </trkpt>
      <trkpt lat="59.8044356" lon="17.7712207">
        <ele>9.2699</ele>
        <time>2013-04-14T11:45:39Z</time>
      </trkpt>
      <trkpt lat="59.8044932" lon="17.771314">
        <ele>9.2699</ele>
        <time>2013-04-14T11:45:40Z</time>
      </trkpt>
      <trkpt lat="59.8045511" lon="17.7714065">
        <ele>9.2699</ele>
        <time>2013-04-14T11:45:41Z</time>
      </trkpt>
      <trkpt lat="59.8046087" lon="17.7714988">
        <ele>9.2699</ele>
        <time>2013-04-14T11:45:42Z</time>
      </trkpt>
      <trkpt lat="59.8046672" lon="17.7715897">
        <ele>9.2699</ele>
        <time>2013-04-14T11:45:43Z</time>
      </trkpt>
      <trkpt lat="59.8047278" lon="17.7716759">
        <ele>9.2699</ele>
        <time>2013-04-14T11:45:44Z</time>
      </trkpt>
      <trkpt lat="59.8047904" lon="17.7717595">
        <ele>9.2699</ele>
        <time>2013-04-14T11:45:45Z</time>
      </trkpt>
      <trkpt lat="59.8048531" lon="17.7718463">
        <ele>9.2699</ele>
        <time>2013-04-14T11:45:46Z</time>
      </trkpt>
      <trkpt lat="59.8049161" lon="17.7719341">
        <ele>8.78918</ele>
        <time>2013-04-14T11:45:47Z</time>
      </trkpt>
      <trkpt lat="59.8049805" lon="17.7720191">
        <ele>8.78918</ele>
        <time>2013-04-14T11:45:48Z</time>
      </trkpt>
      <trkpt lat="59.8050478" lon="17.7721019">
        <ele>8.78918</ele>
        <time>2013-04-14T11:45:49Z</time>
      </trkpt>
      <trkpt lat="59.8051178" lon="17.7721747">
        <ele>8.78918</ele>
        <time>2013-04-14T11:45:50Z</time>
      </trkpt>
      <trkpt lat="59.8051886" lon="17.7722403">
        <ele>8.30859</ele>
        <time>2013-04-14T11:45:51Z</time>
      </trkpt>
      <trkpt lat="59.8052572" lon="17.7723076">
        <ele>8.30859</ele>
        <time>2013-04-14T11:45:52Z</time>
      </trkpt>
      <trkpt lat="59.8053248" lon="17.7723759">
        <ele>8.30859</ele>
        <time>2013-04-14T11:45:53Z</time>
      </trkpt>
      <trkpt lat="59.8053929" lon="17.7724402">
        <ele>8.30859</ele>
        <time>2013-04-14T11:45:54Z</time>
      </trkpt>
      <trkpt lat="59.8054616" lon="17.7725012">
        <ele>8.30859</ele>
        <time>2013-04-14T11:45:55Z</time>
      </trkpt>
      <trkpt lat="59.8055307" lon="17.7725583">
        <ele>8.30859</ele>
        <time>2013-04-14T11:45:56Z</time>
      </trkpt>
      <trkpt lat="59.8056011" lon="17.7726107">
        <ele>8.30859</ele>
        <time>2013-04-14T11:45:57Z</time>
      </trkpt>
      <trkpt lat="59.8056735" lon="17.7726587">
        <ele>8.30859</ele>
        <time>2013-04-14T11:45:58Z</time>
      </trkpt>
      <trkpt lat="59.8057461" lon="17.7727048">
        <ele>8.30859</ele>
        <time>2013-04-14T11:45:59Z</time>
      </trkpt>
      <trkpt lat="59.805819" lon="17.7727497">
        <ele>8.30859</ele>
        <time>2013-04-14T11:46:00Z</time>
      </trkpt>
      <trkpt lat="59.8058915" lon="17.7727918">
        <ele>8.30859</ele>
        <time>2013-04-14T11:46:01Z</time>
      </trkpt>
      <trkpt lat="59.8059628" lon="17.7728302">
        <ele>8.30859</ele>
        <time>2013-04-14T11:46:02Z</time>
      </trkpt>
      <trkpt lat="59.8060325" lon="17.772868">
        <ele>8.78918</ele>
        <time>2013-04-14T11:46:03Z</time>
      </trkpt>
      <trkpt lat="59.8061005" lon="17.7729039">
        <ele>8.78918</ele>
        <time>2013-04-14T11:46:04Z</time>
      </trkpt>
      <trkpt lat="59.8061671" lon="17.7729395">
        <ele>8.78918</ele>
        <time>2013-04-14T11:46:05Z</time>
      </trkpt>
      <trkpt lat="59.8062322" lon="17.7729794">
        <ele>8.78918</ele>
        <time>2013-04-14T11:46:06Z</time>
      </trkpt>
      <trkpt lat="59.8062951" lon="17.7730208">
        <ele>8.30859</ele>
        <time>2013-04-14T11:46:07Z</time>
      </trkpt>
      <trkpt lat="59.8063608" lon="17.7730597">
        <ele>8.30859</ele>
        <time>2013-04-14T11:46:08Z</time>
      </trkpt>
      <trkpt lat="59.8064268" lon="17.7730962">
        <ele>8.78918</ele>
        <time>2013-04-14T11:46:09Z</time>
      </trkpt>
      <trkpt lat="59.8064927" lon="17.7731331">
        <ele>8.78918</ele>
        <time>2013-04-14T11:46:10Z</time>
      </trkpt>
      <trkpt lat="59.8065589" lon="17.7731695">
        <ele>8.78918</ele>
        <time>2013-04-14T11:46:11Z</time>
      </trkpt>
      <trkpt lat="59.8066255" lon="17.773205">
        <ele>8.78918</ele>
        <time>2013-04-14T11:46:12Z</time>
      </trkpt>
      <trkpt lat="59.8066926" lon="17.7732394">
        <ele>8.78918</ele>
        <time>2013-04-14T11:46:13Z</time>
      </trkpt>
      <trkpt lat="59.8067614" lon="17.7732719">
        <ele>8.78918</ele>
        <time>2013-04-14T11:46:14Z</time>
      </trkpt>
      <trkpt lat="59.8068293" lon="17.7733037">
        <ele>8.78918</ele>
        <time>2013-04-14T11:46:15Z</time>
      </trkpt>
      <trkpt lat="59.8068972" lon="17.7733353">
        <ele>8.78918</ele>
        <time>2013-04-14T11:46:16Z</time>
      </trkpt>
      <trkpt lat="59.8069645" lon="17.7733692">
        <ele>8.30859</ele>
        <time>2013-04-14T11:46:17Z</time>
      </trkpt>
      <trkpt lat="59.807033" lon="17.7734036">
        <ele>8.30859</ele>
        <time>2013-04-14T11:46:18Z</time>
      </trkpt>
      <trkpt lat="59.8071014" lon="17.7734374">
        <ele>8.30859</ele>
        <time>2013-04-14T11:46:19Z</time>
      </trkpt>
      <trkpt lat="59.8071696" lon="17.7734715">
        <ele>8.30859</ele>
        <time>2013-04-14T11:46:20Z</time>
      </trkpt>
      <trkpt lat="59.8072373" lon="17.7735071">
        <ele>8.30859</ele>
        <time>2013-04-14T11:46:21Z</time>
      </trkpt>
      <trkpt lat="59.8073052" lon="17.7735419">
        <ele>8.30859</ele>
        <time>2013-04-14T11:46:22Z</time>
      </trkpt>
      <trkpt lat="59.807373" lon="17.7735766">
        <ele>8.30859</ele>
        <time>2013-04-14T11:46:23Z</time>
      </trkpt>
      <trkpt lat="59.8074407" lon="17.7736143">
        <ele>8.30859</ele>
        <time>2013-04-14T11:46:24Z</time>
      </trkpt>
      <trkpt lat="59.8075087" lon="17.7736543">
        <ele>8.30859</ele>
        <time>2013-04-14T11:46:25Z</time>
      </trkpt>
      <trkpt lat="59.80758" lon="17.7736945">
        <ele>8.30859</ele>
        <time>2013-04-14T11:46:26Z</time>
      </trkpt>
      <trkpt lat="59.8076514" lon="17.7737337">
        <ele>8.30859</ele>
        <time>2013-04-14T11:46:27Z</time>
      </trkpt>
      <trkpt lat="59.8077217" lon="17.7737728">
        <ele>8.30859</ele>
        <time>2013-04-14T11:46:28Z</time>
      </trkpt>
      <trkpt lat="59.8077912" lon="17.7738078">
        <ele>8.78918</ele>
        <time>2013-04-14T11:46:29Z</time>
      </trkpt>
      <trkpt lat="59.8078617" lon="17.7738434">
        <ele>8.78918</ele>
        <time>2013-04-14T11:46:30Z</time>
      </trkpt>
      <trkpt lat="59.8079309" lon="17.7738766">
        <ele>9.2699</ele>
        <time>2013-04-14T11:46:31Z</time>
      </trkpt>
      <trkpt lat="59.807999" lon="17.7739076">
        <ele>9.2699</ele>
        <time>2013-04-14T11:46:32Z</time>
      </trkpt>
      <trkpt lat="59.8080666" lon="17.7739356">
        <ele>9.75061</ele>
        <time>2013-04-14T11:46:33Z</time>
      </trkpt>
      <trkpt lat="59.8081331" lon="17.7739647">
        <ele>9.75061</ele>
        <time>2013-04-14T11:46:34Z</time>
      </trkpt>
      <trkpt lat="59.8081988" lon="17.7739935">
        <ele>10.2312</ele>
        <time>2013-04-14T11:46:35Z</time>
      </trkpt>
      <trkpt lat="59.8082616" lon="17.7740217">
        <ele>10.2312</ele>
        <time>2013-04-14T11:46:36Z</time>
      </trkpt>
      <trkpt lat="59.8083213" lon="17.7740516">
        <ele>10.2312</ele>
        <time>2013-04-14T11:46:37Z</time>
      </trkpt>
      <trkpt lat="59.8083792" lon="17.7740812">
        <ele>10.7118</ele>
        <time>2013-04-14T11:46:38Z</time>
      </trkpt>
      <trkpt lat="59.8084346" lon="17.7741111">
        <ele>10.7118</ele>
        <time>2013-04-14T11:46:39Z</time>
      </trkpt>
      <trkpt lat="59.8084874" lon="17.7741423">
        <ele>11.1925</ele>
        <time>2013-04-14T11:46:40Z</time>
      </trkpt>
      <trkpt lat="59.8085371" lon="17.7741744">
        <ele>11.1925</ele>
        <time>2013-04-14T11:46:41Z</time>
      </trkpt>
      <trkpt lat="59.8085841" lon="17.7742076">
        <ele>11.1925</ele>
        <time>2013-04-14T11:46:42Z</time>
      </trkpt>
      <trkpt lat="59.8086294" lon="17.7742388">
        <ele>11.6732</ele>
        <time>2013-04-14T11:46:43Z</time>
      </trkpt>
      <trkpt lat="59.8086745" lon="17.7742687">
        <ele>11.6732</ele>
        <time>2013-04-14T11:46:44Z</time>
      </trkpt>
      <trkpt lat="59.8087207" lon="17.7742972">
        <ele>11.6732</ele>
        <time>2013-04-14T11:46:45Z</time>
      </trkpt>
      <trkpt lat="59.8087688" lon="17.7743253">
        <ele>11.6732</ele>
        <time>2013-04-14T11:46:46Z</time>
      </trkpt>
      <trkpt lat="59.808819" lon="17.7743566">
        <ele>12.1538</ele>
        <time>2013-04-14T11:46:47Z</time>
      </trkpt>
      <trkpt lat="59.8088714" lon="17.7743887">
        <ele>12.1538</ele>
        <time>2013-04-14T11:46:48Z</time>
      </trkpt>
      <trkpt lat="59.8089257" lon="17.7744183">
        <ele>12.6344</ele>
        <time>2013-04-14T11:46:49Z</time>
      </trkpt>
      <trkpt lat="59.8089806" lon="17.7744437">
        <ele>12.6344</ele>
        <time>2013-04-14T11:46:50Z</time>
      </trkpt>
      <trkpt lat="59.8090354" lon="17.774468">
        <ele>12.6344</ele>
        <time>2013-04-14T11:46:51Z</time>
      </trkpt>
      <trkpt lat="59.8090909" lon="17.7744961">
        <ele>12.6344</ele>
        <time>2013-04-14T11:46:52Z</time>
      </trkpt>
      <trkpt lat="59.8091483" lon="17.7745306">
        <ele>13.1151</ele>
        <time>2013-04-14T11:46:53Z</time>
      </trkpt>
      <trkpt lat="59.809207" lon="17.7745676">
        <ele>13.1151</ele>
        <time>2013-04-14T11:46:54Z</time>
      </trkpt>
      <trkpt lat="59.8092672" lon="17.7746074">
        <ele>13.5958</ele>
        <time>2013-04-14T11:46:55Z</time>
      </trkpt>
      <trkpt lat="59.8093283" lon="17.7746484">
        <ele>13.5958</ele>
        <time>2013-04-14T11:46:56Z</time>
      </trkpt>
      <trkpt lat="59.8093896" lon="17.7746905">
        <ele>13.5958</ele>
        <time>2013-04-14T11:46:57Z</time>
      </trkpt>
      <trkpt lat="59.8094509" lon="17.774735">
        <ele>14.0764</ele>
        <time>2013-04-14T11:46:58Z</time>
      </trkpt>
      <trkpt lat="59.8095127" lon="17.77478">
        <ele>14.0764</ele>
        <time>2013-04-14T11:46:59Z</time>
      </trkpt>
      <trkpt lat="59.8095746" lon="17.7748249">
        <ele>14.557</ele>
        <time>2013-04-14T11:47:00Z</time>
      </trkpt>
      <trkpt lat="59.8096367" lon="17.7748705">
        <ele>14.557</ele>
        <time>2013-04-14T11:47:01Z</time>
      </trkpt>
      <trkpt lat="59.8096997" lon="17.7749152">
        <ele>14.557</ele>
        <time>2013-04-14T11:47:02Z</time>
      </trkpt>
      <trkpt lat="59.8097642" lon="17.7749597">
        <ele>14.557</ele>
        <time>2013-04-14T11:47:03Z</time>
      </trkpt>
      <trkpt lat="59.8098291" lon="17.7750053">
        <ele>15.0377</ele>
        <time>2013-04-14T11:47:04Z</time>
      </trkpt>
      <trkpt lat="59.8098943" lon="17.7750514">
        <ele>15.0377</ele>
        <time>2013-04-14T11:47:05Z</time>
      </trkpt>
      <trkpt lat="59.8099591" lon="17.7750991">
        <ele>15.5184</ele>
        <time>2013-04-14T11:47:06Z</time>
      </trkpt>
      <trkpt lat="59.8100232" lon="17.7751451">
        <ele>15.5184</ele>
        <time>2013-04-14T11:47:07Z</time>
      </trkpt>
      <trkpt lat="59.8100869" lon="17.7751923">
        <ele>15.5184</ele>
        <time>2013-04-14T11:47:08Z</time>
      </trkpt>
      <trkpt lat="59.8101486" lon="17.7752441">
        <ele>15.999</ele>
        <time>2013-04-14T11:47:09Z</time>
      </trkpt>
      <trkpt lat="59.8102072" lon="17.7753021">
        <ele>16.4797</ele>
        <time>2013-04-14T11:47:10Z</time>
      </trkpt>
      <trkpt lat="59.8102612" lon="17.7753649">
        <ele>16.9604</ele>
        <time>2013-04-14T11:47:11Z</time>
      </trkpt>
      <trkpt lat="59.8103143" lon="17.7754281">
        <ele>17.9218</ele>
        <time>2013-04-14T11:47:12Z</time>
      </trkpt>
      <trkpt lat="59.8103652" lon="17.7754952">
        <ele>18.4023</ele>
        <time>2013-04-14T11:47:13Z</time>
      </trkpt>
      <trkpt lat="59.8104115" lon="17.7755589">
        <ele>17.9218</ele>
        <time>2013-04-14T11:47:14Z</time>
      </trkpt>
      <trkpt lat="59.8104568" lon="17.7756239">
        <ele>17.9218</ele>
        <time>2013-04-14T11:47:15Z</time>
      </trkpt>
      <trkpt lat="59.8105015" lon="17.7756896">
        <ele>17.9218</ele>
        <time>2013-04-14T11:47:16Z</time>
      </trkpt>
      <trkpt lat="59.8105458" lon="17.775756">
        <ele>17.9218</ele>
        <time>2013-04-14T11:47:17Z</time>
      </trkpt>
      <trkpt lat="59.8105901" lon="17.7758231">
        <ele>17.4412</ele>
        <time>2013-04-14T11:47:18Z</time>
      </trkpt>
      <trkpt lat="59.8106346" lon="17.7758881">
        <ele>17.4412</ele>
        <time>2013-04-14T11:47:19Z</time>
      </trkpt>
      <trkpt lat="59.8106806" lon="17.7759512">
        <ele>17.4412</ele>
        <time>2013-04-14T11:47:20Z</time>
      </trkpt>
      <trkpt lat="59.8107274" lon="17.7760139">
        <ele>17.4412</ele>
        <time>2013-04-14T11:47:21Z</time>
      </trkpt>
      <trkpt lat="59.8107746" lon="17.7760761">
        <ele>17.4412</ele>
        <time>2013-04-14T11:47:22Z</time>
      </trkpt>
      <trkpt lat="59.8108219" lon="17.7761378">
        <ele>17.4412</ele>
        <time>2013-04-14T11:47:23Z</time>
      </trkpt>
      <trkpt lat="59.8108703" lon="17.7761967">
        <ele>17.4412</ele>
        <time>2013-04-14T11:47:24Z</time>
      </trkpt>
      <trkpt lat="59.8109195" lon="17.7762523">
        <ele>17.4412</ele>
        <time>2013-04-14T11:47:25Z</time>
      </trkpt>
      <trkpt lat="59.8109708" lon="17.7762993">
        <ele>17.4412</ele>
        <time>2013-04-14T11:47:26Z</time>
      </trkpt>
      <trkpt lat="59.8110241" lon="17.7763361">
        <ele>17.4412</ele>
        <time>2013-04-14T11:47:27Z</time>
      </trkpt>
      <trkpt lat="59.8110796" lon="17.7763589">
        <ele>17.4412</ele>
        <time>2013-04-14T11:47:28Z</time>
      </trkpt>
      <trkpt lat="59.8111376" lon="17.7763661">
        <ele>17.4412</ele>
        <time>2013-04-14T11:47:29Z</time>
      </trkpt>
      <trkpt lat="59.8111959" lon="17.7763592">
        <ele>17.9218</ele>
        <time>2013-04-14T11:47:30Z</time>
      </trkpt>
      <trkpt lat="59.8112529" lon="17.7763382">
        <ele>17.4412</ele>
        <time>2013-04-14T11:47:31Z</time>
      </trkpt>
      <trkpt lat="59.8113087" lon="17.7763017">
        <ele>17.9218</ele>
        <time>2013-04-14T11:47:32Z</time>
      </trkpt>
      <trkpt lat="59.8113643" lon="17.7762584">
        <ele>17.9218</ele>
        <time>2013-04-14T11:47:33Z</time>
      </trkpt>
      <trkpt lat="59.8114174" lon="17.776218">
        <ele>17.4412</ele>
        <time>2013-04-14T11:47:34Z</time>
      </trkpt>
      <trkpt lat="59.811471" lon="17.7761822">
        <ele>17.4412</ele>
        <time>2013-04-14T11:47:35Z</time>
      </trkpt>
      <trkpt lat="59.8115225" lon="17.7761458">
        <ele>17.4412</ele>
        <time>2013-04-14T11:47:36Z</time>
      </trkpt>
      <trkpt lat="59.8115738" lon="17.7761064">
        <ele>16.9604</ele>
        <time>2013-04-14T11:47:37Z</time>
      </trkpt>
      <trkpt lat="59.8116257" lon="17.776065">
        <ele>16.9604</ele>
        <time>2013-04-14T11:47:38Z</time>
      </trkpt>
      <trkpt lat="59.8116759" lon="17.7760161">
        <ele>16.9604</ele>
        <time>2013-04-14T11:47:39Z</time>
      </trkpt>
      <trkpt lat="59.8117296" lon="17.7759665">
        <ele>16.4797</ele>
        <time>2013-04-14T11:47:40Z</time>
      </trkpt>
      <trkpt lat="59.811785" lon="17.7759147">
        <ele>16.4797</ele>
        <time>2013-04-14T11:47:41Z</time>
      </trkpt>
      <trkpt lat="59.8118344" lon="17.7758622">
        <ele>15.999</ele>
        <time>2013-04-14T11:47:42Z</time>
      </trkpt>
      <trkpt lat="59.8118929" lon="17.7758046">
        <ele>15.999</ele>
        <time>2013-04-14T11:47:43Z</time>
      </trkpt>
      <trkpt lat="59.8119507" lon="17.775743">
        <ele>16.9604</ele>
        <time>2013-04-14T11:47:44Z</time>
      </trkpt>
      <trkpt lat="59.8120053" lon="17.7756687">
        <ele>17.4412</ele>
        <time>2013-04-14T11:47:45Z</time>
      </trkpt>
      <trkpt lat="59.8120518" lon="17.775583">
        <ele>17.4412</ele>
        <time>2013-04-14T11:47:46Z</time>
      </trkpt>
      <trkpt lat="59.8120883" lon="17.7754848">
        <ele>17.4412</ele>
        <time>2013-04-14T11:47:47Z</time>
      </trkpt>
      <trkpt lat="59.812113" lon="17.7753793">
        <ele>16.4797</ele>
        <time>2013-04-14T11:47:48Z</time>
      </trkpt>
      <trkpt lat="59.8121403" lon="17.7752665">
        <ele>16.4797</ele>
        <time>2013-04-14T11:47:49Z</time>
      </trkpt>
      <trkpt lat="59.8121747" lon="17.7751612">
        <ele>16.4797</ele>
        <time>2013-04-14T11:47:50Z</time>
      </trkpt>
      <trkpt lat="59.8122209" lon="17.7750743">
        <ele>16.4797</ele>
        <time>2013-04-14T11:47:51Z</time>
      </trkpt>
      <trkpt lat="59.8122773" lon="17.7750031">
        <ele>15.5184</ele>
        <time>2013-04-14T11:47:52Z</time>
      </trkpt>
      <trkpt lat="59.812338" lon="17.7749399">
        <ele>15.0377</ele>
        <time>2013-04-14T11:47:53Z</time>
      </trkpt>
      <trkpt lat="59.8124011" lon="17.774882">
        <ele>14.0764</ele>
        <time>2013-04-14T11:47:54Z</time>
      </trkpt>
      <trkpt lat="59.8124668" lon="17.7748262">
        <ele>14.0764</ele>
        <time>2013-04-14T11:47:55Z</time>
      </trkpt>
      <trkpt lat="59.81253" lon="17.774771">
        <ele>12.6344</ele>
        <time>2013-04-14T11:47:56Z</time>
      </trkpt>
      <trkpt lat="59.8125958" lon="17.7747136">
        <ele>12.1538</ele>
        <time>2013-04-14T11:47:57Z</time>
      </trkpt>
      <trkpt lat="59.812663" lon="17.7746552">
        <ele>11.1925</ele>
        <time>2013-04-14T11:47:58Z</time>
      </trkpt>
      <trkpt lat="59.8127318" lon="17.7745962">
        <ele>10.2312</ele>
        <time>2013-04-14T11:47:59Z</time>
      </trkpt>
      <trkpt lat="59.8128028" lon="17.7745381">
        <ele>9.75061</ele>
        <time>2013-04-14T11:48:00Z</time>
      </trkpt>
      <trkpt lat="59.8128748" lon="17.7744789">
        <ele>9.2699</ele>
        <time>2013-04-14T11:48:01Z</time>
      </trkpt>
      <trkpt lat="59.8129476" lon="17.7744158">
        <ele>8.78918</ele>
        <time>2013-04-14T11:48:02Z</time>
      </trkpt>
      <trkpt lat="59.8130202" lon="17.7743392">
        <ele>8.30859</ele>
        <time>2013-04-14T11:48:03Z</time>
      </trkpt>
      <trkpt lat="59.8130936" lon="17.7742638">
        <ele>8.30859</ele>
        <time>2013-04-14T11:48:04Z</time>
      </trkpt>
      <trkpt lat="59.813169" lon="17.7741901">
        <ele>7.82788</ele>
        <time>2013-04-14T11:48:05Z</time>
      </trkpt>
      <trkpt lat="59.8132449" lon="17.77412">
        <ele>7.82788</ele>
        <time>2013-04-14T11:48:06Z</time>
      </trkpt>
      <trkpt lat="59.8133215" lon="17.7740541">
        <ele>7.82788</ele>
        <time>2013-04-14T11:48:07Z</time>
      </trkpt>
      <trkpt lat="59.8133978" lon="17.7739885">
        <ele>7.82788</ele>
        <time>2013-04-14T11:48:08Z</time>
      </trkpt>
      <trkpt lat="59.8134734" lon="17.7739237">
        <ele>7.82788</ele>
        <time>2013-04-14T11:48:09Z</time>
      </trkpt>
      <trkpt lat="59.8135482" lon="17.7738636">
        <ele>7.82788</ele>
        <time>2013-04-14T11:48:10Z</time>
      </trkpt>
      <trkpt lat="59.8136226" lon="17.7738149">
        <ele>7.82788</ele>
        <time>2013-04-14T11:48:11Z</time>
      </trkpt>
      <trkpt lat="59.8136976" lon="17.7737843">
        <ele>7.82788</ele>
        <time>2013-04-14T11:48:12Z</time>
      </trkpt>
      <trkpt lat="59.8137715" lon="17.7737774">
        <ele>7.82788</ele>
        <time>2013-04-14T11:48:13Z</time>
      </trkpt>
      <trkpt lat="59.8138427" lon="17.7737978">
        <ele>8.30859</ele>
        <time>2013-04-14T11:48:14Z</time>
      </trkpt>
      <trkpt lat="59.8139111" lon="17.7738349">
        <ele>8.30859</ele>
        <time>2013-04-14T11:48:15Z</time>
      </trkpt>
      <trkpt lat="59.8139771" lon="17.7738765">
        <ele>8.30859</ele>
        <time>2013-04-14T11:48:16Z</time>
      </trkpt>
      <trkpt lat="59.814041" lon="17.7739215">
        <ele>8.30859</ele>
        <time>2013-04-14T11:48:17Z</time>
      </trkpt>
      <trkpt lat="59.8141036" lon="17.7739717">
        <ele>8.30859</ele>
        <time>2013-04-14T11:48:18Z</time>
      </trkpt>
      <trkpt lat="59.8141645" lon="17.7740222">
        <ele>8.30859</ele>
        <time>2013-04-14T11:48:19Z</time>
      </trkpt>
      <trkpt lat="59.8142233" lon="17.7740677">
        <ele>8.78918</ele>
        <time>2013-04-14T11:48:20Z</time>
      </trkpt>
      <trkpt lat="59.81428" lon="17.7741091">
        <ele>8.78918</ele>
        <time>2013-04-14T11:48:21Z</time>
      </trkpt>
      <trkpt lat="59.8143351" lon="17.7741468">
        <ele>9.2699</ele>
        <time>2013-04-14T11:48:22Z</time>
      </trkpt>
      <trkpt lat="59.8143891" lon="17.7741849">
        <ele>9.2699</ele>
        <time>2013-04-14T11:48:23Z</time>
      </trkpt>
      <trkpt lat="59.8144416" lon="17.7742234">
        <ele>9.75061</ele>
        <time>2013-04-14T11:48:24Z</time>
      </trkpt>
      <trkpt lat="59.8144934" lon="17.7742603">
        <ele>9.75061</ele>
        <time>2013-04-14T11:48:25Z</time>
      </trkpt>
      <trkpt lat="59.8145454" lon="17.7742967">
        <ele>10.2312</ele>
        <time>2013-04-14T11:48:26Z</time>
      </trkpt>
      <trkpt lat="59.8145964" lon="17.7743332">
        <ele>10.2312</ele>
        <time>2013-04-14T11:48:27Z</time>
      </trkpt>
      <trkpt lat="59.8146477" lon="17.7743681">
        <ele>10.7118</ele>
        <time>2013-04-14T11:48:28Z</time>
      </trkpt>
      <trkpt lat="59.8146987" lon="17.7744022">
        <ele>11.1925</ele>
        <time>2013-04-14T11:48:29Z</time>
      </trkpt>
      <trkpt lat="59.8147479" lon="17.7744354">
        <ele>11.1925</ele>
        <time>2013-04-14T11:48:30Z</time>
      </trkpt>
      <trkpt lat="59.8147961" lon="17.7744693">
        <ele>11.6732</ele>
        <time>2013-04-14T11:48:31Z</time>
      </trkpt>
      <trkpt lat="59.8148448" lon="17.7745039">
        <ele>11.6732</ele>
        <time>2013-04-14T11:48:32Z</time>
      </trkpt>
      <trkpt lat="59.8148947" lon="17.774537">
        <ele>12.1538</ele>
        <time>2013-04-14T11:48:33Z</time>
      </trkpt>
      <trkpt lat="59.8149463" lon="17.7745701">
        <ele>12.1538</ele>
        <time>2013-04-14T11:48:34Z</time>
      </trkpt>
      <trkpt lat="59.8149985" lon="17.7746048">
        <ele>12.6344</ele>
        <time>2013-04-14T11:48:35Z</time>
      </trkpt>
      <trkpt lat="59.8150486" lon="17.7746416">
        <ele>12.6344</ele>
        <time>2013-04-14T11:48:36Z</time>
      </trkpt>
      <trkpt lat="59.8150962" lon="17.774677">
        <ele>13.1151</ele>
        <time>2013-04-14T11:48:37Z</time>
      </trkpt>
      <trkpt lat="59.815144" lon="17.7747098">
        <ele>13.1151</ele>
        <time>2013-04-14T11:48:38Z</time>
      </trkpt>
      <trkpt lat="59.8151925" lon="17.7747423">
        <ele>13.5958</ele>
        <time>2013-04-14T11:48:39Z</time>
      </trkpt>
      <trkpt lat="59.8152419" lon="17.7747748">
        <ele>13.5958</ele>
        <time>2013-04-14T11:48:40Z</time>
      </trkpt>
      <trkpt lat="59.8152925" lon="17.7748064">
        <ele>14.0764</ele>
        <time>2013-04-14T11:48:41Z</time>
      </trkpt>
      <trkpt lat="59.8153439" lon="17.7748396">
        <ele>14.0764</ele>
        <time>2013-04-14T11:48:42Z</time>
      </trkpt>
      <trkpt lat="59.8153966" lon="17.7748752">
        <ele>14.557</ele>
        <time>2013-04-14T11:48:43Z</time>
      </trkpt>
      <trkpt lat="59.815449" lon="17.7749131">
        <ele>15.0377</ele>
        <time>2013-04-14T11:48:44Z</time>
      </trkpt>
      <trkpt lat="59.8154992" lon="17.7749495">
        <ele>15.0377</ele>
        <time>2013-04-14T11:48:45Z</time>
      </trkpt>
      <trkpt lat="59.8155468" lon="17.7749856">
        <ele>15.5184</ele>
        <time>2013-04-14T11:48:46Z</time>
      </trkpt>
      <trkpt lat="59.8155921" lon="17.7750201">
        <ele>15.999</ele>
        <time>2013-04-14T11:48:47Z</time>
      </trkpt>
      <trkpt lat="59.8156349" lon="17.775055">
        <ele>15.5184</ele>
        <time>2013-04-14T11:48:48Z</time>
      </trkpt>
      <trkpt lat="59.8156802" lon="17.7750893">
        <ele>15.999</ele>
        <time>2013-04-14T11:48:49Z</time>
      </trkpt>
      <trkpt lat="59.8157262" lon="17.7751209">
        <ele>15.999</ele>
        <time>2013-04-14T11:48:50Z</time>
      </trkpt>
      <trkpt lat="59.8157757" lon="17.7751543">
        <ele>15.999</ele>
        <time>2013-04-14T11:48:51Z</time>
      </trkpt>
      <trkpt lat="59.8158266" lon="17.7751883">
        <ele>16.4797</ele>
        <time>2013-04-14T11:48:52Z</time>
      </trkpt>
      <trkpt lat="59.8158791" lon="17.7752196">
        <ele>16.4797</ele>
        <time>2013-04-14T11:48:53Z</time>
      </trkpt>
      <trkpt lat="59.8159313" lon="17.775252">
        <ele>16.9604</ele>
        <time>2013-04-14T11:48:54Z</time>
      </trkpt>
      <trkpt lat="59.8159826" lon="17.775285">
        <ele>16.9604</ele>
        <time>2013-04-14T11:48:55Z</time>
      </trkpt>
      <trkpt lat="59.8160348" lon="17.7753192">
        <ele>17.4412</ele>
        <time>2013-04-14T11:48:56Z</time>
      </trkpt>
      <trkpt lat="59.816086" lon="17.7753514">
        <ele>17.4412</ele>
        <time>2013-04-14T11:48:57Z</time>
      </trkpt>
      <trkpt lat="59.8161369" lon="17.7753823">
        <ele>17.9218</ele>
        <time>2013-04-14T11:48:58Z</time>
      </trkpt>
      <trkpt lat="59.816189" lon="17.7754144">
        <ele>17.9218</ele>
        <time>2013-04-14T11:48:59Z</time>
      </trkpt>
      <trkpt lat="59.816241" lon="17.7754488">
        <ele>18.4023</ele>
        <time>2013-04-14T11:49:00Z</time>
      </trkpt>
      <trkpt lat="59.8162839" lon="17.7754843">
        <ele>17.9218</ele>
        <time>2013-04-14T11:49:01Z</time>
      </trkpt>
      <trkpt lat="59.8163255" lon="17.7755192">
        <ele>17.9218</ele>
        <time>2013-04-14T11:49:02Z</time>
      </trkpt>
      <trkpt lat="59.8163664" lon="17.7755521">
        <ele>17.9218</ele>
        <time>2013-04-14T11:49:03Z</time>
      </trkpt>
      <trkpt lat="59.8164069" lon="17.7755881">
        <ele>17.9218</ele>
        <time>2013-04-14T11:49:04Z</time>
      </trkpt>
      <trkpt lat="59.816445" lon="17.7756262">
        <ele>18.4023</ele>
        <time>2013-04-14T11:49:05Z</time>
      </trkpt>
      <trkpt lat="59.8164797" lon="17.7756642">
        <ele>18.4023</ele>
        <time>2013-04-14T11:49:06Z</time>
      </trkpt>
      <trkpt lat="59.8165141" lon="17.7756957">
        <ele>18.8831</ele>
        <time>2013-04-14T11:49:07Z</time>
      </trkpt>
      <trkpt lat="59.8165477" lon="17.7757248">
        <ele>18.8831</ele>
        <time>2013-04-14T11:49:08Z</time>
      </trkpt>
      <trkpt lat="59.8165802" lon="17.7757552">
        <ele>19.3638</ele>
        <time>2013-04-14T11:49:09Z</time>
      </trkpt>
      <trkpt lat="59.8166084" lon="17.775788">
        <ele>19.8444</ele>
        <time>2013-04-14T11:49:10Z</time>
      </trkpt>
      <trkpt lat="59.8166359" lon="17.7758218">
        <ele>19.8444</ele>
        <time>2013-04-14T11:49:11Z</time>
      </trkpt>
      <trkpt lat="59.8166604" lon="17.7758529">
        <ele>20.325</ele>
        <time>2013-04-14T11:49:12Z</time>
      </trkpt>
      <trkpt lat="59.8166845" lon="17.7758847">
        <ele>20.325</ele>
        <time>2013-04-14T11:49:13Z</time>
      </trkpt>
      <trkpt lat="59.8167088" lon="17.7759215">
        <ele>20.325</ele>
        <time>2013-04-14T11:49:14Z</time>
      </trkpt>
      <trkpt lat="59.8167312" lon="17.7759626">
        <ele>20.325</ele>
        <time>2013-04-14T11:49:15Z</time>
      </trkpt>
      <trkpt lat="59.8167532" lon="17.7760069">
        <ele>20.325</ele>
        <time>2013-04-14T11:49:16Z</time>
      </trkpt>
      <trkpt lat="59.8167747" lon="17.776057">
        <ele>20.325</ele>
        <time>2013-04-14T11:49:17Z</time>
      </trkpt>
      <trkpt lat="59.8167961" lon="17.7761119">
        <ele>20.325</ele>
        <time>2013-04-14T11:49:18Z</time>
      </trkpt>
      <trkpt lat="59.8168186" lon="17.7761693">
        <ele>20.325</ele>
        <time>2013-04-14T11:49:19Z</time>
      </trkpt>
      <trkpt lat="59.8168394" lon="17.7762302">
        <ele>19.8444</ele>
        <time>2013-04-14T11:49:20Z</time>
      </trkpt>
      <trkpt lat="59.8168638" lon="17.7762931">
        <ele>19.8444</ele>
        <time>2013-04-14T11:49:21Z</time>
      </trkpt>
      <trkpt lat="59.8168852" lon="17.7763615">
        <ele>19.3638</ele>
        <time>2013-04-14T11:49:22Z</time>
      </trkpt>
      <trkpt lat="59.8169058" lon="17.7764382">
        <ele>18.4023</ele>
        <time>2013-04-14T11:49:23Z</time>
      </trkpt>
      <trkpt lat="59.8169272" lon="17.7765227">
        <ele>17.9218</ele>
        <time>2013-04-14T11:49:24Z</time>
      </trkpt>
      <trkpt lat="59.8169506" lon="17.7766147">
        <ele>17.4412</ele>
        <time>2013-04-14T11:49:25Z</time>
      </trkpt>
      <trkpt lat="59.8169741" lon="17.7767161">
        <ele>16.4797</ele>
        <time>2013-04-14T11:49:26Z</time>
      </trkpt>
      <trkpt lat="59.8169963" lon="17.7768257">
        <ele>15.999</ele>
        <time>2013-04-14T11:49:27Z</time>
      </trkpt>
      <trkpt lat="59.8170154" lon="17.776939">
        <ele>15.999</ele>
        <time>2013-04-14T11:49:28Z</time>
      </trkpt>
      <trkpt lat="59.817033" lon="17.7770571">
        <ele>15.999</ele>
        <time>2013-04-14T11:49:29Z</time>
      </trkpt>
      <trkpt lat="59.8170486" lon="17.7771784">
        <ele>15.5184</ele>
        <time>2013-04-14T11:49:30Z</time>
      </trkpt>
      <trkpt lat="59.8170625" lon="17.7773009">
        <ele>15.5184</ele>
        <time>2013-04-14T11:49:31Z</time>
      </trkpt>
      <trkpt lat="59.8170776" lon="17.7774242">
        <ele>15.5184</ele>
        <time>2013-04-14T11:49:32Z</time>
      </trkpt>
      <trkpt lat="59.8170981" lon="17.7775462">
        <ele>15.0377</ele>
        <time>2013-04-14T11:49:33Z</time>
      </trkpt>
      <trkpt lat="59.8171261" lon="17.7776618">
        <ele>14.557</ele>
        <time>2013-04-14T11:49:34Z</time>
      </trkpt>
      <trkpt lat="59.817164" lon="17.7777719">
        <ele>14.557</ele>
        <time>2013-04-14T11:49:35Z</time>
      </trkpt>
      <trkpt lat="59.8172137" lon="17.7778633">
        <ele>14.557</ele>
        <time>2013-04-14T11:49:36Z</time>
      </trkpt>
      <trkpt lat="59.8172754" lon="17.7779263">
        <ele>15.0377</ele>
        <time>2013-04-14T11:49:37Z</time>
      </trkpt>
      <trkpt lat="59.8173398" lon="17.7779677">
        <ele>14.557</ele>
        <time>2013-04-14T11:49:38Z</time>
      </trkpt>
      <trkpt lat="59.817409" lon="17.7779884">
        <ele>14.557</ele>
        <time>2013-04-14T11:49:39Z</time>
      </trkpt>
      <trkpt lat="59.8174795" lon="17.7779961">
        <ele>14.0764</ele>
        <time>2013-04-14T11:49:40Z</time>
      </trkpt>
      <trkpt lat="59.8175485" lon="17.7779997">
        <ele>14.0764</ele>
        <time>2013-04-14T11:49:41Z</time>
      </trkpt>
      <trkpt lat="59.8176167" lon="17.778001">
        <ele>14.0764</ele>
        <time>2013-04-14T11:49:42Z</time>
      </trkpt>
      <trkpt lat="59.8176822" lon="17.7779977">
        <ele>14.0764</ele>
        <time>2013-04-14T11:49:43Z</time>
      </trkpt>
      <trkpt lat="59.8177469" lon="17.7779946">
        <ele>14.0764</ele>
        <time>2013-04-14T11:49:44Z</time>
      </trkpt>
      <trkpt lat="59.8178094" lon="17.7779954">
        <ele>14.0764</ele>
        <time>2013-04-14T11:49:45Z</time>
      </trkpt>
      <trkpt lat="59.8178733" lon="17.777988">
        <ele>14.557</ele>
        <time>2013-04-14T11:49:46Z</time>
      </trkpt>
      <trkpt lat="59.817934" lon="17.7779828">
        <ele>15.0377</ele>
        <time>2013-04-14T11:49:47Z</time>
      </trkpt>
      <trkpt lat="59.8179926" lon="17.7779813">
        <ele>15.0377</ele>
        <time>2013-04-14T11:49:48Z</time>
      </trkpt>
      <trkpt lat="59.8180475" lon="17.7779741">
        <ele>15.0377</ele>
        <time>2013-04-14T11:49:49Z</time>
      </trkpt>
      <trkpt lat="59.8180982" lon="17.7779652">
        <ele>15.5184</ele>
        <time>2013-04-14T11:49:50Z</time>
      </trkpt>
      <trkpt lat="59.8181471" lon="17.7779642">
        <ele>15.999</ele>
        <time>2013-04-14T11:49:51Z</time>
      </trkpt>
      <trkpt lat="59.8181928" lon="17.7779595">
        <ele>15.999</ele>
        <time>2013-04-14T11:49:52Z</time>
      </trkpt>
      <trkpt lat="59.8182406" lon="17.7779578">
        <ele>16.9604</ele>
        <time>2013-04-14T11:49:53Z</time>
      </trkpt>
      <trkpt lat="59.8182873" lon="17.7779528">
        <ele>16.9604</ele>
        <time>2013-04-14T11:49:54Z</time>
      </trkpt>
      <trkpt lat="59.8183342" lon="17.7779537">
        <ele>17.9218</ele>
        <time>2013-04-14T11:49:55Z</time>
      </trkpt>
      <trkpt lat="59.818383" lon="17.7779604">
        <ele>18.4023</ele>
        <time>2013-04-14T11:49:56Z</time>
      </trkpt>
      <trkpt lat="59.8184292" lon="17.7779672">
        <ele>17.9218</ele>
        <time>2013-04-14T11:49:57Z</time>
      </trkpt>
      <trkpt lat="59.8184764" lon="17.7779813">
        <ele>17.9218</ele>
        <time>2013-04-14T11:49:58Z</time>
      </trkpt>
      <trkpt lat="59.8185223" lon="17.7780106">
        <ele>18.4023</ele>
        <time>2013-04-14T11:49:59Z</time>
      </trkpt>
      <trkpt lat="59.8185679" lon="17.7780554">
        <ele>18.8831</ele>
        <time>2013-04-14T11:50:00Z</time>
      </trkpt>
      <trkpt lat="59.8186098" lon="17.7781078">
        <ele>19.3638</ele>
        <time>2013-04-14T11:50:01Z</time>
      </trkpt>
      <trkpt lat="59.8186491" lon="17.7781655">
        <ele>19.3638</ele>
        <time>2013-04-14T11:50:02Z</time>
      </trkpt>
      <trkpt lat="59.8186827" lon="17.7782311">
        <ele>19.3638</ele>
        <time>2013-04-14T11:50:03Z</time>
      </trkpt>
      <trkpt lat="59.8187169" lon="17.7783019">
        <ele>19.8444</ele>
        <time>2013-04-14T11:50:04Z</time>
      </trkpt>
      <trkpt lat="59.8187524" lon="17.7783738">
        <ele>19.8444</ele>
        <time>2013-04-14T11:50:05Z</time>
      </trkpt>
      <trkpt lat="59.8187885" lon="17.7784444">
        <ele>20.325</ele>
        <time>2013-04-14T11:50:06Z</time>
      </trkpt>
      <trkpt lat="59.8188232" lon="17.7785133">
        <ele>20.325</ele>
        <time>2013-04-14T11:50:07Z</time>
      </trkpt>
      <trkpt lat="59.8188569" lon="17.7785771">
        <ele>20.8057</ele>
        <time>2013-04-14T11:50:08Z</time>
      </trkpt>
      <trkpt lat="59.8188882" lon="17.7786334">
        <ele>21.2864</ele>
        <time>2013-04-14T11:50:09Z</time>
      </trkpt>
      <trkpt lat="59.8189148" lon="17.7786888">
        <ele>21.2864</ele>
        <time>2013-04-14T11:50:10Z</time>
      </trkpt>
      <trkpt lat="59.8189469" lon="17.7787415">
        <ele>21.2864</ele>
        <time>2013-04-14T11:50:11Z</time>
      </trkpt>
      <trkpt lat="59.8189772" lon="17.778794">
        <ele>21.767</ele>
        <time>2013-04-14T11:50:12Z</time>
      </trkpt>
      <trkpt lat="59.8190057" lon="17.7788467">
        <ele>21.2864</ele>
        <time>2013-04-14T11:50:13Z</time>
      </trkpt>
      <trkpt lat="59.8190331" lon="17.7789045">
        <ele>21.767</ele>
        <time>2013-04-14T11:50:14Z</time>
      </trkpt>
      <trkpt lat="59.8190583" lon="17.7789639">
        <ele>22.2476</ele>
        <time>2013-04-14T11:50:15Z</time>
      </trkpt>
      <trkpt lat="59.8190925" lon="17.7790261">
        <ele>23.6896</ele>
        <time>2013-04-14T11:50:16Z</time>
      </trkpt>
      <trkpt lat="59.8191231" lon="17.7791012">
        <ele>24.651</ele>
        <time>2013-04-14T11:50:17Z</time>
      </trkpt>
      <trkpt lat="59.8191537" lon="17.7791815">
        <ele>26.0929</ele>
        <time>2013-04-14T11:50:18Z</time>
      </trkpt>
      <trkpt lat="59.8191791" lon="17.7792623">
        <ele>27.5349</ele>
        <time>2013-04-14T11:50:19Z</time>
      </trkpt>
      <trkpt lat="59.8191911" lon="17.7793416">
        <ele>27.5349</ele>
        <time>2013-04-14T11:50:20Z</time>
      </trkpt>
      <trkpt lat="59.8191968" lon="17.7794242">
        <ele>27.5349</ele>
        <time>2013-04-14T11:50:21Z</time>
      </trkpt>
      <trkpt lat="59.8191998" lon="17.7795207">
        <ele>27.5349</ele>
        <time>2013-04-14T11:50:22Z</time>
      </trkpt>
      <trkpt lat="59.8192055" lon="17.7796312">
        <ele>27.0543</ele>
        <time>2013-04-14T11:50:23Z</time>
      </trkpt>
      <trkpt lat="59.8192258" lon="17.7797473">
        <ele>27.0543</ele>
        <time>2013-04-14T11:50:24Z</time>
      </trkpt>
      <trkpt lat="59.8192459" lon="17.7798653">
        <ele>27.0543</ele>
        <time>2013-04-14T11:50:25Z</time>
      </trkpt>
      <trkpt lat="59.8192676" lon="17.7799813">
        <ele>26.5736</ele>
        <time>2013-04-14T11:50:26Z</time>
      </trkpt>
      <trkpt lat="59.8192844" lon="17.7801533">
        <ele>26.0929</ele>
        <time>2013-04-14T11:50:27Z</time>
      </trkpt>
      <trkpt lat="59.8193086" lon="17.7802702">
        <ele>25.6123</ele>
        <time>2013-04-14T11:50:28Z</time>
      </trkpt>
      <trkpt lat="59.8193393" lon="17.780403">
        <ele>25.1317</ele>
        <time>2013-04-14T11:50:29Z</time>
      </trkpt>
      <trkpt lat="59.8193548" lon="17.7805025">
        <ele>24.1703</ele>
        <time>2013-04-14T11:50:30Z</time>
      </trkpt>
      <trkpt lat="59.8193759" lon="17.7806191">
        <ele>23.6896</ele>
        <time>2013-04-14T11:50:31Z</time>
      </trkpt>
      <trkpt lat="59.8193935" lon="17.7807476">
        <ele>23.209</ele>
        <time>2013-04-14T11:50:32Z</time>
      </trkpt>
      <trkpt lat="59.8194148" lon="17.7808646">
        <ele>21.2864</ele>
        <time>2013-04-14T11:50:33Z</time>
      </trkpt>
      <trkpt lat="59.8194351" lon="17.780978">
        <ele>20.325</ele>
        <time>2013-04-14T11:50:34Z</time>
      </trkpt>
      <trkpt lat="59.8194499" lon="17.7810876">
        <ele>19.8444</ele>
        <time>2013-04-14T11:50:35Z</time>
      </trkpt>
      <trkpt lat="59.8194578" lon="17.7812043">
        <ele>18.8831</ele>
        <time>2013-04-14T11:50:36Z</time>
      </trkpt>
      <trkpt lat="59.8194596" lon="17.7813235">
        <ele>17.4412</ele>
        <time>2013-04-14T11:50:37Z</time>
      </trkpt>
      <trkpt lat="59.8194567" lon="17.7814416">
        <ele>15.0377</ele>
        <time>2013-04-14T11:50:38Z</time>
      </trkpt>
      <trkpt lat="59.8194561" lon="17.7815598">
        <ele>12.6344</ele>
        <time>2013-04-14T11:50:39Z</time>
      </trkpt>
      <trkpt lat="59.8194546" lon="17.7816814">
        <ele>10.2312</ele>
        <time>2013-04-14T11:50:40Z</time>
      </trkpt>
      <trkpt lat="59.8194558" lon="17.781805">
        <ele>9.75061</ele>
        <time>2013-04-14T11:50:41Z</time>
      </trkpt>
      <trkpt lat="59.8194574" lon="17.7819354">
        <ele>9.2699</ele>
        <time>2013-04-14T11:50:42Z</time>
      </trkpt>
      <trkpt lat="59.8194635" lon="17.7820594">
        <ele>9.2699</ele>
        <time>2013-04-14T11:50:43Z</time>
      </trkpt>
      <trkpt lat="59.8194781" lon="17.7821738">
        <ele>9.2699</ele>
        <time>2013-04-14T11:50:44Z</time>
      </trkpt>
      <trkpt lat="59.8195" lon="17.7822857">
        <ele>9.2699</ele>
        <time>2013-04-14T11:50:45Z</time>
      </trkpt>
      <trkpt lat="59.8195364" lon="17.7823779">
        <ele>9.2699</ele>
        <time>2013-04-14T11:50:46Z</time>
      </trkpt>
      <trkpt lat="59.8195826" lon="17.7824522">
        <ele>9.2699</ele>
        <time>2013-04-14T11:50:47Z</time>
      </trkpt>
      <trkpt lat="59.8196407" lon="17.7825538">
        <ele>9.2699</ele>
        <time>2013-04-14T11:50:48Z</time>
      </trkpt>
      <trkpt lat="59.8197142" lon="17.7825874">
        <ele>10.7118</ele>
        <time>2013-04-14T11:50:49Z</time>
      </trkpt>
      <trkpt lat="59.8197847" lon="17.7826067">
        <ele>11.6732</ele>
        <time>2013-04-14T11:50:50Z</time>
      </trkpt>
      <trkpt lat="59.8198443" lon="17.7826159">
        <ele>12.1538</ele>
        <time>2013-04-14T11:50:51Z</time>
      </trkpt>
      <trkpt lat="59.8199025" lon="17.7826624">
        <ele>11.1925</ele>
        <time>2013-04-14T11:50:52Z</time>
      </trkpt>
      <trkpt lat="59.8199602" lon="17.7827371">
        <ele>11.1925</ele>
        <time>2013-04-14T11:50:53Z</time>
      </trkpt>
      <trkpt lat="59.8200172" lon="17.7828297">
        <ele>10.7118</ele>
        <time>2013-04-14T11:50:54Z</time>
      </trkpt>
      <trkpt lat="59.8200917" lon="17.7829286">
        <ele>10.7118</ele>
        <time>2013-04-14T11:50:55Z</time>
      </trkpt>
      <trkpt lat="59.8201676" lon="17.7830122">
        <ele>10.2312</ele>
        <time>2013-04-14T11:50:56Z</time>
      </trkpt>
      <trkpt lat="59.8202567" lon="17.7830666">
        <ele>10.2312</ele>
        <time>2013-04-14T11:50:57Z</time>
      </trkpt>
      <trkpt lat="59.8203462" lon="17.7831013">
        <ele>9.75061</ele>
        <time>2013-04-14T11:50:58Z</time>
      </trkpt>
      <trkpt lat="59.8204302" lon="17.7831192">
        <ele>9.2699</ele>
        <time>2013-04-14T11:50:59Z</time>
      </trkpt>
      <trkpt lat="59.8205197" lon="17.7831194">
        <ele>8.78918</ele>
        <time>2013-04-14T11:51:00Z</time>
      </trkpt>
      <trkpt lat="59.8206101" lon="17.7831137">
        <ele>8.30859</ele>
        <time>2013-04-14T11:51:01Z</time>
      </trkpt>
      <trkpt lat="59.8207089" lon="17.7831158">
        <ele>8.30859</ele>
        <time>2013-04-14T11:51:02Z</time>
      </trkpt>
      <trkpt lat="59.8208084" lon="17.7831206">
        <ele>7.82788</ele>
        <time>2013-04-14T11:51:03Z</time>
      </trkpt>
      <trkpt lat="59.8209088" lon="17.7831246">
        <ele>8.30859</ele>
        <time>2013-04-14T11:51:04Z</time>
      </trkpt>
      <trkpt lat="59.8210127" lon="17.7831276">
        <ele>8.30859</ele>
        <time>2013-04-14T11:51:05Z</time>
      </trkpt>
      <trkpt lat="59.8211184" lon="17.7831218">
        <ele>9.2699</ele>
        <time>2013-04-14T11:51:06Z</time>
      </trkpt>
      <trkpt lat="59.8212228" lon="17.7831045">
        <ele>9.75061</ele>
        <time>2013-04-14T11:51:07Z</time>
      </trkpt>
      <trkpt lat="59.8213243" lon="17.7830719">
        <ele>10.2312</ele>
        <time>2013-04-14T11:51:08Z</time>
      </trkpt>
      <trkpt lat="59.8214233" lon="17.7830257">
        <ele>10.7118</ele>
        <time>2013-04-14T11:51:09Z</time>
      </trkpt>
      <trkpt lat="59.8215176" lon="17.7829734">
        <ele>11.1925</ele>
        <time>2013-04-14T11:51:10Z</time>
      </trkpt>
      <trkpt lat="59.8216072" lon="17.7829217">
        <ele>11.1925</ele>
        <time>2013-04-14T11:51:11Z</time>
      </trkpt>
      <trkpt lat="59.8216977" lon="17.7828738">
        <ele>11.1925</ele>
        <time>2013-04-14T11:51:12Z</time>
      </trkpt>
      <trkpt lat="59.8217851" lon="17.7828257">
        <ele>10.7118</ele>
        <time>2013-04-14T11:51:13Z</time>
      </trkpt>
      <trkpt lat="59.8218737" lon="17.7827768">
        <ele>9.75061</ele>
        <time>2013-04-14T11:51:14Z</time>
      </trkpt>
      <trkpt lat="59.8219638" lon="17.7827299">
        <ele>9.75061</ele>
        <time>2013-04-14T11:51:15Z</time>
      </trkpt>
      <trkpt lat="59.8220546" lon="17.7826858">
        <ele>9.75061</ele>
        <time>2013-04-14T11:51:16Z</time>
      </trkpt>
      <trkpt lat="59.8221453" lon="17.7826411">
        <ele>9.75061</ele>
        <time>2013-04-14T11:51:17Z</time>
      </trkpt>
      <trkpt lat="59.8222349" lon="17.7825934">
        <ele>9.2699</ele>
        <time>2013-04-14T11:51:18Z</time>
      </trkpt>
      <trkpt lat="59.822324" lon="17.7825435">
        <ele>9.2699</ele>
        <time>2013-04-14T11:51:19Z</time>
      </trkpt>
      <trkpt lat="59.8224105" lon="17.7824904">
        <ele>9.2699</ele>
        <time>2013-04-14T11:51:20Z</time>
      </trkpt>
      <trkpt lat="59.8224944" lon="17.7824319">
        <ele>9.2699</ele>
        <time>2013-04-14T11:51:21Z</time>
      </trkpt>
      <trkpt lat="59.8225759" lon="17.7823673">
        <ele>9.2699</ele>
        <time>2013-04-14T11:51:22Z</time>
      </trkpt>
      <trkpt lat="59.8226548" lon="17.7822964">
        <ele>8.78918</ele>
        <time>2013-04-14T11:51:23Z</time>
      </trkpt>
      <trkpt lat="59.8227303" lon="17.7822231">
        <ele>8.30859</ele>
        <time>2013-04-14T11:51:24Z</time>
      </trkpt>
      <trkpt lat="59.8228037" lon="17.7821465">
        <ele>8.30859</ele>
        <time>2013-04-14T11:51:25Z</time>
      </trkpt>
      <trkpt lat="59.8228743" lon="17.7820631">
        <ele>8.30859</ele>
        <time>2013-04-14T11:51:26Z</time>
      </trkpt>
      <trkpt lat="59.8229424" lon="17.7819798">
        <ele>8.30859</ele>
        <time>2013-04-14T11:51:27Z</time>
      </trkpt>
      <trkpt lat="59.8230083" lon="17.7818963">
        <ele>8.30859</ele>
        <time>2013-04-14T11:51:28Z</time>
      </trkpt>
      <trkpt lat="59.8230721" lon="17.7818119">
        <ele>8.78918</ele>
        <time>2013-04-14T11:51:29Z</time>
      </trkpt>
      <trkpt lat="59.8231353" lon="17.7817285">
        <ele>8.30859</ele>
        <time>2013-04-14T11:51:30Z</time>
      </trkpt>
      <trkpt lat="59.8231984" lon="17.7816429">
        <ele>8.30859</ele>
        <time>2013-04-14T11:51:31Z</time>
      </trkpt>
      <trkpt lat="59.8232616" lon="17.7815556">
        <ele>8.30859</ele>
        <time>2013-04-14T11:51:32Z</time>
      </trkpt>
      <trkpt lat="59.8233248" lon="17.7814659">
        <ele>8.30859</ele>
        <time>2013-04-14T11:51:33Z</time>
      </trkpt>
      <trkpt lat="59.823388" lon="17.781373">
        <ele>7.82788</ele>
        <time>2013-04-14T11:51:34Z</time>
      </trkpt>
      <trkpt lat="59.8234505" lon="17.7812788">
        <ele>7.82788</ele>
        <time>2013-04-14T11:51:35Z</time>
      </trkpt>
      <trkpt lat="59.8235124" lon="17.7811856">
        <ele>7.82788</ele>
        <time>2013-04-14T11:51:36Z</time>
      </trkpt>
      <trkpt lat="59.8235745" lon="17.7810946">
        <ele>7.82788</ele>
        <time>2013-04-14T11:51:37Z</time>
      </trkpt>
      <trkpt lat="59.8236366" lon="17.7810018">
        <ele>8.30859</ele>
        <time>2013-04-14T11:51:38Z</time>
      </trkpt>
      <trkpt lat="59.8236989" lon="17.7809102">
        <ele>8.30859</ele>
        <time>2013-04-14T11:51:39Z</time>
      </trkpt>
      <trkpt lat="59.823762" lon="17.7808221">
        <ele>7.82788</ele>
        <time>2013-04-14T11:51:40Z</time>
      </trkpt>
      <trkpt lat="59.8238252" lon="17.7807336">
        <ele>8.30859</ele>
        <time>2013-04-14T11:51:41Z</time>
      </trkpt>
      <trkpt lat="59.8238887" lon="17.7806452">
        <ele>8.30859</ele>
        <time>2013-04-14T11:51:42Z</time>
      </trkpt>
      <trkpt lat="59.8239505" lon="17.7805504">
        <ele>8.78918</ele>
        <time>2013-04-14T11:51:43Z</time>
      </trkpt>
      <trkpt lat="59.8240129" lon="17.7804588">
        <ele>8.30859</ele>
        <time>2013-04-14T11:51:44Z</time>
      </trkpt>
      <trkpt lat="59.8240749" lon="17.7803667">
        <ele>7.82788</ele>
        <time>2013-04-14T11:51:45Z</time>
      </trkpt>
      <trkpt lat="59.8241354" lon="17.7802704">
        <ele>7.82788</ele>
        <time>2013-04-14T11:51:46Z</time>
      </trkpt>
      <trkpt lat="59.8241941" lon="17.7801698">
        <ele>7.82788</ele>
        <time>2013-04-14T11:51:47Z</time>
      </trkpt>
      <trkpt lat="59.8242513" lon="17.7800671">
        <ele>7.34717</ele>
        <time>2013-04-14T11:51:48Z</time>
      </trkpt>
      <trkpt lat="59.8243057" lon="17.7799622">
        <ele>7.34717</ele>
        <time>2013-04-14T11:51:49Z</time>
      </trkpt>
      <trkpt lat="59.8243573" lon="17.7798554">
        <ele>6.86646</ele>
        <time>2013-04-14T11:51:50Z</time>
      </trkpt>
      <trkpt lat="59.8244073" lon="17.7797471">
        <ele>6.86646</ele>
        <time>2013-04-14T11:51:51Z</time>
      </trkpt>
      <trkpt lat="59.8244554" lon="17.7796373">
        <ele>6.86646</ele>
        <time>2013-04-14T11:51:52Z</time>
      </trkpt>
      <trkpt lat="59.8245018" lon="17.7795287">
        <ele>6.38586</ele>
        <time>2013-04-14T11:51:53Z</time>
      </trkpt>
      <trkpt lat="59.8245467" lon="17.7794228">
        <ele>5.90527</ele>
        <time>2013-04-14T11:51:54Z</time>
      </trkpt>
      <trkpt lat="59.8245914" lon="17.7793219">
        <ele>5.90527</ele>
        <time>2013-04-14T11:51:55Z</time>
      </trkpt>
      <trkpt lat="59.8246381" lon="17.7792274">
        <ele>5.90527</ele>
        <time>2013-04-14T11:51:56Z</time>
      </trkpt>
      <trkpt lat="59.8246885" lon="17.7791395">
        <ele>5.42456</ele>
        <time>2013-04-14T11:51:57Z</time>
      </trkpt>
      <trkpt lat="59.8247415" lon="17.7790575">
        <ele>5.42456</ele>
        <time>2013-04-14T11:51:58Z</time>
      </trkpt>
      <trkpt lat="59.8247966" lon="17.7789821">
        <ele>5.42456</ele>
        <time>2013-04-14T11:51:59Z</time>
      </trkpt>
      <trkpt lat="59.824854" lon="17.7789111">
        <ele>5.42456</ele>
        <time>2013-04-14T11:52:00Z</time>
      </trkpt>
      <trkpt lat="59.8249151" lon="17.7788514">
        <ele>5.42456</ele>
        <time>2013-04-14T11:52:01Z</time>
      </trkpt>
      <trkpt lat="59.8249783" lon="17.7787998">
        <ele>5.42456</ele>
        <time>2013-04-14T11:52:02Z</time>
      </trkpt>
      <trkpt lat="59.8250436" lon="17.7787552">
        <ele>5.42456</ele>
        <time>2013-04-14T11:52:03Z</time>
      </trkpt>
      <trkpt lat="59.8251103" lon="17.7787149">
        <ele>5.42456</ele>
        <time>2013-04-14T11:52:04Z</time>
      </trkpt>
      <trkpt lat="59.8251778" lon="17.7786748">
        <ele>4.94385</ele>
        <time>2013-04-14T11:52:05Z</time>
      </trkpt>
      <trkpt lat="59.8252466" lon="17.7786379">
        <ele>4.94385</ele>
        <time>2013-04-14T11:52:06Z</time>
      </trkpt>
      <trkpt lat="59.8253162" lon="17.7786027">
        <ele>4.94385</ele>
        <time>2013-04-14T11:52:07Z</time>
      </trkpt>
      <trkpt lat="59.8253865" lon="17.7785629">
        <ele>4.94385</ele>
        <time>2013-04-14T11:52:08Z</time>
      </trkpt>
      <trkpt lat="59.825457" lon="17.7785212">
        <ele>4.94385</ele>
        <time>2013-04-14T11:52:09Z</time>
      </trkpt>
      <trkpt lat="59.8255285" lon="17.7784816">
        <ele>4.46326</ele>
        <time>2013-04-14T11:52:10Z</time>
      </trkpt>
      <trkpt lat="59.8256005" lon="17.7784433">
        <ele>4.46326</ele>
        <time>2013-04-14T11:52:11Z</time>
      </trkpt>
      <trkpt lat="59.8256734" lon="17.778404">
        <ele>4.46326</ele>
        <time>2013-04-14T11:52:12Z</time>
      </trkpt>
      <trkpt lat="59.8257464" lon="17.7783611">
        <ele>4.46326</ele>
        <time>2013-04-14T11:52:13Z</time>
      </trkpt>
      <trkpt lat="59.8258189" lon="17.7783131">
        <ele>4.46326</ele>
        <time>2013-04-14T11:52:14Z</time>
      </trkpt>
      <trkpt lat="59.8258906" lon="17.7782671">
        <ele>4.46326</ele>
        <time>2013-04-14T11:52:15Z</time>
      </trkpt>
      <trkpt lat="59.8259627" lon="17.7782247">
        <ele>4.46326</ele>
        <time>2013-04-14T11:52:16Z</time>
      </trkpt>
      <trkpt lat="59.8260352" lon="17.7781854">
        <ele>4.46326</ele>
        <time>2013-04-14T11:52:17Z</time>
      </trkpt>
      <trkpt lat="59.8261074" lon="17.7781486">
        <ele>3.98267</ele>
        <time>2013-04-14T11:52:18Z</time>
      </trkpt>
      <trkpt lat="59.8261794" lon="17.7781133">
        <ele>3.98267</ele>
        <time>2013-04-14T11:52:19Z</time>
      </trkpt>
      <trkpt lat="59.826251" lon="17.7780756">
        <ele>3.98267</ele>
        <time>2013-04-14T11:52:20Z</time>
      </trkpt>
      <trkpt lat="59.8263226" lon="17.7780351">
        <ele>3.98267</ele>
        <time>2013-04-14T11:52:21Z</time>
      </trkpt>
      <trkpt lat="59.8263934" lon="17.7779978">
        <ele>3.50195</ele>
        <time>2013-04-14T11:52:22Z</time>
      </trkpt>
      <trkpt lat="59.8264633" lon="17.7779621">
        <ele>3.50195</ele>
        <time>2013-04-14T11:52:23Z</time>
      </trkpt>
      <trkpt lat="59.8265324" lon="17.777928">
        <ele>3.50195</ele>
        <time>2013-04-14T11:52:24Z</time>
      </trkpt>
      <trkpt lat="59.8266016" lon="17.7778948">
        <ele>3.50195</ele>
        <time>2013-04-14T11:52:25Z</time>
      </trkpt>
      <trkpt lat="59.8266696" lon="17.7778606">
        <ele>3.98267</ele>
        <time>2013-04-14T11:52:26Z</time>
      </trkpt>
      <trkpt lat="59.8267363" lon="17.7778243">
        <ele>3.98267</ele>
        <time>2013-04-14T11:52:27Z</time>
      </trkpt>
      <trkpt lat="59.8268001" lon="17.7777887">
        <ele>4.46326</ele>
        <time>2013-04-14T11:52:28Z</time>
      </trkpt>
      <trkpt lat="59.826859" lon="17.7777543">
        <ele>4.94385</ele>
        <time>2013-04-14T11:52:29Z</time>
      </trkpt>
      <trkpt lat="59.8269136" lon="17.7777214">
        <ele>4.94385</ele>
        <time>2013-04-14T11:52:30Z</time>
      </trkpt>
      <trkpt lat="59.8269633" lon="17.7776957">
        <ele>5.42456</ele>
        <time>2013-04-14T11:52:31Z</time>
      </trkpt>
      <trkpt lat="59.8270062" lon="17.7776703">
        <ele>5.42456</ele>
        <time>2013-04-14T11:52:32Z</time>
      </trkpt>
      <trkpt lat="59.8270234" lon="17.7776155">
        <ele>5.42456</ele>
        <time>2013-04-14T11:52:33Z</time>
      </trkpt>
      <trkpt lat="59.8270488" lon="17.7775585">
        <ele>4.94385</ele>
        <time>2013-04-14T11:52:34Z</time>
      </trkpt>
      <trkpt lat="59.827069" lon="17.7774881">
        <ele>5.42456</ele>
        <time>2013-04-14T11:52:35Z</time>
      </trkpt>
      <trkpt lat="59.8270704" lon="17.7774027">
        <ele>5.90527</ele>
        <time>2013-04-14T11:52:36Z</time>
      </trkpt>
      <trkpt lat="59.8270605" lon="17.7773132">
        <ele>6.86646</ele>
        <time>2013-04-14T11:52:37Z</time>
      </trkpt>
      <trkpt lat="59.8270439" lon="17.7772094">
        <ele>6.86646</ele>
        <time>2013-04-14T11:52:38Z</time>
      </trkpt>
      <trkpt lat="59.8270291" lon="17.7771052">
        <ele>6.86646</ele>
        <time>2013-04-14T11:52:39Z</time>
      </trkpt>
      <trkpt lat="59.8270192" lon="17.7769976">
        <ele>5.90527</ele>
        <time>2013-04-14T11:52:40Z</time>
      </trkpt>
      <trkpt lat="59.8270151" lon="17.7768852">
        <ele>4.94385</ele>
        <time>2013-04-14T11:52:41Z</time>
      </trkpt>
      <trkpt lat="59.8270146" lon="17.7767658">
        <ele>4.46326</ele>
        <time>2013-04-14T11:52:42Z</time>
      </trkpt>
      <trkpt lat="59.8270167" lon="17.7766408">
        <ele>3.50195</ele>
        <time>2013-04-14T11:52:43Z</time>
      </trkpt>
      <trkpt lat="59.8270214" lon="17.7765136">
        <ele>3.50195</ele>
        <time>2013-04-14T11:52:44Z</time>
      </trkpt>
      <trkpt lat="59.8270271" lon="17.7763842">
        <ele>3.50195</ele>
        <time>2013-04-14T11:52:45Z</time>
      </trkpt>
      <trkpt lat="59.8270337" lon="17.7762494">
        <ele>3.50195</ele>
        <time>2013-04-14T11:52:46Z</time>
      </trkpt>
      <trkpt lat="59.8270395" lon="17.776115">
        <ele>3.02124</ele>
        <time>2013-04-14T11:52:47Z</time>
      </trkpt>
      <trkpt lat="59.8270451" lon="17.7759806">
        <ele>3.02124</ele>
        <time>2013-04-14T11:52:48Z</time>
      </trkpt>
      <trkpt lat="59.8270523" lon="17.7758489">
        <ele>2.54065</ele>
        <time>2013-04-14T11:52:49Z</time>
      </trkpt>
      <trkpt lat="59.8270593" lon="17.7757222">
        <ele>2.54065</ele>
        <time>2013-04-14T11:52:50Z</time>
      </trkpt>
      <trkpt lat="59.8270633" lon="17.7755995">
        <ele>2.54065</ele>
        <time>2013-04-14T11:52:51Z</time>
      </trkpt>
      <trkpt lat="59.8270664" lon="17.7754804">
        <ele>2.06006</ele>
        <time>2013-04-14T11:52:52Z</time>
      </trkpt>
      <trkpt lat="59.8270691" lon="17.7753639">
        <ele>1.09863</ele>
        <time>2013-04-14T11:52:53Z</time>
      </trkpt>
      <trkpt lat="59.8270704" lon="17.7752506">
        <ele>0.618042</ele>
        <time>2013-04-14T11:52:54Z</time>
      </trkpt>
      <trkpt lat="59.8270707" lon="17.775139">
        <ele>0.618042</ele>
        <time>2013-04-14T11:52:55Z</time>
      </trkpt>
      <trkpt lat="59.8270685" lon="17.7750285">
        <ele>0.137451</ele>
        <time>2013-04-14T11:52:56Z</time>
      </trkpt>
      <trkpt lat="59.8270663" lon="17.7749184">
        <ele>0.137451</ele>
        <time>2013-04-14T11:52:57Z</time>
      </trkpt>
      <trkpt lat="59.8270638" lon="17.7748105">
        <ele>0.137451</ele>
        <time>2013-04-14T11:52:58Z</time>
      </trkpt>
      <trkpt lat="59.8270601" lon="17.7747036">
        <ele>0.137451</ele>
        <time>2013-04-14T11:52:59Z</time>
      </trkpt>
      <trkpt lat="59.827055" lon="17.7745929">
        <ele>0</ele>
        <time>2013-04-14T11:53:00Z</time>
      </trkpt>
      <trkpt lat="59.8270476" lon="17.7744816">
        <ele>0.137451</ele>
        <time>2013-04-14T11:53:01Z</time>
      </trkpt>
      <trkpt lat="59.8270408" lon="17.7743677">
        <ele>0.137451</ele>
        <time>2013-04-14T11:53:02Z</time>
      </trkpt>
      <trkpt lat="59.8270358" lon="17.774252">
        <ele>0</ele>
        <time>2013-04-14T11:53:03Z</time>
      </trkpt>
      <trkpt lat="59.8270305" lon="17.7741352">
        <ele>0</ele>
        <time>2013-04-14T11:53:04Z</time>
      </trkpt>
      <trkpt lat="59.8270238" lon="17.7740202">
        <ele>0</ele>
        <time>2013-04-14T11:53:05Z</time>
      </trkpt>
      <trkpt lat="59.8270177" lon="17.7739035">
        <ele>0.618042</ele>
        <time>2013-04-14T11:53:06Z</time>
      </trkpt>
      <trkpt lat="59.827012" lon="17.773787">
        <ele>0.618042</ele>
        <time>2013-04-14T11:53:07Z</time>
      </trkpt>
      <trkpt lat="59.8270057" lon="17.7736734">
        <ele>1.57935</ele>
        <time>2013-04-14T11:53:08Z</time>
      </trkpt>
      <trkpt lat="59.8270009" lon="17.7735594">
        <ele>2.06006</ele>
        <time>2013-04-14T11:53:09Z</time>
      </trkpt>
      <trkpt lat="59.8269948" lon="17.7734481">
        <ele>2.54065</ele>
        <time>2013-04-14T11:53:10Z</time>
      </trkpt>
      <trkpt lat="59.8269887" lon="17.773342">
        <ele>2.54065</ele>
        <time>2013-04-14T11:53:11Z</time>
      </trkpt>
      <trkpt lat="59.8269825" lon="17.7732336">
        <ele>2.54065</ele>
        <time>2013-04-14T11:53:12Z</time>
      </trkpt>
      <trkpt lat="59.8269758" lon="17.7731237">
        <ele>3.02124</ele>
        <time>2013-04-14T11:53:13Z</time>
      </trkpt>
      <trkpt lat="59.8269712" lon="17.7730132">
        <ele>3.02124</ele>
        <time>2013-04-14T11:53:14Z</time>
      </trkpt>
      <trkpt lat="59.8269691" lon="17.772902">
        <ele>3.02124</ele>
        <time>2013-04-14T11:53:15Z</time>
      </trkpt>
      <trkpt lat="59.8269654" lon="17.7727831">
        <ele>3.50195</ele>
        <time>2013-04-14T11:53:16Z</time>
      </trkpt>
      <trkpt lat="59.8269596" lon="17.7726639">
        <ele>3.98267</ele>
        <time>2013-04-14T11:53:17Z</time>
      </trkpt>
      <trkpt lat="59.8269519" lon="17.7725452">
        <ele>4.46326</ele>
        <time>2013-04-14T11:53:18Z</time>
      </trkpt>
      <trkpt lat="59.8269434" lon="17.7724285">
        <ele>4.94385</ele>
        <time>2013-04-14T11:53:19Z</time>
      </trkpt>
      <trkpt lat="59.8269374" lon="17.7723166">
        <ele>4.94385</ele>
        <time>2013-04-14T11:53:20Z</time>
      </trkpt>
      <trkpt lat="59.8269332" lon="17.7722003">
        <ele>5.42456</ele>
        <time>2013-04-14T11:53:21Z</time>
      </trkpt>
      <trkpt lat="59.8269291" lon="17.7720868">
        <ele>5.42456</ele>
        <time>2013-04-14T11:53:22Z</time>
      </trkpt>
      <trkpt lat="59.8269234" lon="17.771972">
        <ele>5.42456</ele>
        <time>2013-04-14T11:53:23Z</time>
      </trkpt>
      <trkpt lat="59.8269167" lon="17.7718553">
        <ele>5.42456</ele>
        <time>2013-04-14T11:53:24Z</time>
      </trkpt>
      <trkpt lat="59.8269099" lon="17.7717375">
        <ele>5.42456</ele>
        <time>2013-04-14T11:53:25Z</time>
      </trkpt>
      <trkpt lat="59.8269027" lon="17.7716186">
        <ele>5.42456</ele>
        <time>2013-04-14T11:53:26Z</time>
      </trkpt>
      <trkpt lat="59.8268956" lon="17.7715001">
        <ele>5.42456</ele>
        <time>2013-04-14T11:53:27Z</time>
      </trkpt>
      <trkpt lat="59.8268894" lon="17.7713817">
        <ele>5.42456</ele>
        <time>2013-04-14T11:53:28Z</time>
      </trkpt>
      <trkpt lat="59.8268836" lon="17.7712636">
        <ele>5.42456</ele>
        <time>2013-04-14T11:53:29Z</time>
      </trkpt>
      <trkpt lat="59.8268769" lon="17.7711464">
        <ele>5.42456</ele>
        <time>2013-04-14T11:53:30Z</time>
      </trkpt>
      <trkpt lat="59.8268707" lon="17.77103">
        <ele>5.42456</ele>
        <time>2013-04-14T11:53:31Z</time>
      </trkpt>
      <trkpt lat="59.826865" lon="17.7709146">
        <ele>5.42456</ele>
        <time>2013-04-14T11:53:32Z</time>
      </trkpt>
      <trkpt lat="59.8268592" lon="17.7708001">
        <ele>5.90527</ele>
        <time>2013-04-14T11:53:33Z</time>
      </trkpt>
      <trkpt lat="59.826853" lon="17.7706877">
        <ele>5.90527</ele>
        <time>2013-04-14T11:53:34Z</time>
      </trkpt>
      <trkpt lat="59.8268471" lon="17.7705763">
        <ele>5.90527</ele>
        <time>2013-04-14T11:53:35Z</time>
      </trkpt>
      <trkpt lat="59.8268422" lon="17.7704651">
        <ele>5.90527</ele>
        <time>2013-04-14T11:53:36Z</time>
      </trkpt>
      <trkpt lat="59.8268375" lon="17.7703542">
        <ele>5.90527</ele>
        <time>2013-04-14T11:53:37Z</time>
      </trkpt>
      <trkpt lat="59.8268318" lon="17.7702427">
        <ele>5.90527</ele>
        <time>2013-04-14T11:53:38Z</time>
      </trkpt>
      <trkpt lat="59.8268261" lon="17.7701311">
        <ele>6.38586</ele>
        <time>2013-04-14T11:53:39Z</time>
      </trkpt>
      <trkpt lat="59.8268209" lon="17.7700191">
        <ele>6.38586</ele>
        <time>2013-04-14T11:53:40Z</time>
      </trkpt>
      <trkpt lat="59.8268167" lon="17.7699076">
        <ele>6.38586</ele>
        <time>2013-04-14T11:53:41Z</time>
      </trkpt>
      <trkpt lat="59.8268153" lon="17.7697936">
        <ele>6.86646</ele>
        <time>2013-04-14T11:53:42Z</time>
      </trkpt>
      <trkpt lat="59.8268167" lon="17.7696808">
        <ele>6.86646</ele>
        <time>2013-04-14T11:53:43Z</time>
      </trkpt>
      <trkpt lat="59.82682" lon="17.7695688">
        <ele>7.34717</ele>
        <time>2013-04-14T11:53:44Z</time>
      </trkpt>
      <trkpt lat="59.826825" lon="17.7694579">
        <ele>7.34717</ele>
        <time>2013-04-14T11:53:45Z</time>
      </trkpt>
      <trkpt lat="59.8268307" lon="17.7693479">
        <ele>7.82788</ele>
        <time>2013-04-14T11:53:46Z</time>
      </trkpt>
      <trkpt lat="59.8268376" lon="17.7692388">
        <ele>7.82788</ele>
        <time>2013-04-14T11:53:47Z</time>
      </trkpt>
      <trkpt lat="59.8268472" lon="17.7691309">
        <ele>7.82788</ele>
        <time>2013-04-14T11:53:48Z</time>
      </trkpt>
      <trkpt lat="59.8268578" lon="17.7690237">
        <ele>8.30859</ele>
        <time>2013-04-14T11:53:49Z</time>
      </trkpt>
      <trkpt lat="59.8268687" lon="17.768917">
        <ele>8.30859</ele>
        <time>2013-04-14T11:53:50Z</time>
      </trkpt>
      <trkpt lat="59.8268816" lon="17.7688115">
        <ele>8.30859</ele>
        <time>2013-04-14T11:53:51Z</time>
      </trkpt>
      <trkpt lat="59.8268961" lon="17.7687066">
        <ele>8.78918</ele>
        <time>2013-04-14T11:53:52Z</time>
      </trkpt>
      <trkpt lat="59.8269125" lon="17.7686042">
        <ele>8.78918</ele>
        <time>2013-04-14T11:53:53Z</time>
      </trkpt>
      <trkpt lat="59.8269316" lon="17.7685044">
        <ele>8.78918</ele>
        <time>2013-04-14T11:53:54Z</time>
      </trkpt>
      <trkpt lat="59.8269519" lon="17.7684062">
        <ele>8.78918</ele>
        <time>2013-04-14T11:53:55Z</time>
      </trkpt>
      <trkpt lat="59.8269733" lon="17.768309">
        <ele>8.78918</ele>
        <time>2013-04-14T11:53:56Z</time>
      </trkpt>
      <trkpt lat="59.8269966" lon="17.768214">
        <ele>8.78918</ele>
        <time>2013-04-14T11:53:57Z</time>
      </trkpt>
      <trkpt lat="59.8270206" lon="17.7681204">
        <ele>8.78918</ele>
        <time>2013-04-14T11:53:58Z</time>
      </trkpt>
      <trkpt lat="59.8270452" lon="17.7680292">
        <ele>9.2699</ele>
        <time>2013-04-14T11:53:59Z</time>
      </trkpt>
      <trkpt lat="59.8270696" lon="17.7679385">
        <ele>9.2699</ele>
        <time>2013-04-14T11:54:00Z</time>
      </trkpt>
      <trkpt lat="59.8270943" lon="17.767848">
        <ele>9.2699</ele>
        <time>2013-04-14T11:54:01Z</time>
      </trkpt>
      <trkpt lat="59.8271203" lon="17.7677603">
        <ele>9.2699</ele>
        <time>2013-04-14T11:54:02Z</time>
      </trkpt>
      <trkpt lat="59.8271471" lon="17.7676728">
        <ele>9.2699</ele>
        <time>2013-04-14T11:54:03Z</time>
      </trkpt>
      <trkpt lat="59.8271732" lon="17.7675837">
        <ele>9.75061</ele>
        <time>2013-04-14T11:54:04Z</time>
      </trkpt>
      <trkpt lat="59.827199" lon="17.7674952">
        <ele>9.75061</ele>
        <time>2013-04-14T11:54:05Z</time>
      </trkpt>
      <trkpt lat="59.827225" lon="17.767408">
        <ele>9.75061</ele>
        <time>2013-04-14T11:54:06Z</time>
      </trkpt>
      <trkpt lat="59.8272508" lon="17.7673217">
        <ele>9.75061</ele>
        <time>2013-04-14T11:54:07Z</time>
      </trkpt>
      <trkpt lat="59.8272763" lon="17.7672352">
        <ele>9.75061</ele>
        <time>2013-04-14T11:54:08Z</time>
      </trkpt>
      <trkpt lat="59.8273021" lon="17.7671481">
        <ele>9.75061</ele>
        <time>2013-04-14T11:54:09Z</time>
      </trkpt>
      <trkpt lat="59.8273285" lon="17.7670607">
        <ele>9.75061</ele>
        <time>2013-04-14T11:54:10Z</time>
      </trkpt>
      <trkpt lat="59.8273545" lon="17.7669721">
        <ele>9.75061</ele>
        <time>2013-04-14T11:54:11Z</time>
      </trkpt>
      <trkpt lat="59.8273814" lon="17.7668825">
        <ele>9.75061</ele>
        <time>2013-04-14T11:54:12Z</time>
      </trkpt>
      <trkpt lat="59.8274092" lon="17.7667924">
        <ele>9.75061</ele>
        <time>2013-04-14T11:54:13Z</time>
      </trkpt>
      <trkpt lat="59.8274366" lon="17.7667016">
        <ele>9.75061</ele>
        <time>2013-04-14T11:54:14Z</time>
      </trkpt>
      <trkpt lat="59.8274646" lon="17.7666099">
        <ele>9.75061</ele>
        <time>2013-04-14T11:54:15Z</time>
      </trkpt>
      <trkpt lat="59.8274929" lon="17.7665185">
        <ele>10.2312</ele>
        <time>2013-04-14T11:54:16Z</time>
      </trkpt>
      <trkpt lat="59.8275207" lon="17.766426">
        <ele>10.2312</ele>
        <time>2013-04-14T11:54:17Z</time>
      </trkpt>
      <trkpt lat="59.8275477" lon="17.7663338">
        <ele>10.2312</ele>
        <time>2013-04-14T11:54:18Z</time>
      </trkpt>
      <trkpt lat="59.8275745" lon="17.7662427">
        <ele>10.2312</ele>
        <time>2013-04-14T11:54:19Z</time>
      </trkpt>
      <trkpt lat="59.8276004" lon="17.7661515">
        <ele>10.2312</ele>
        <time>2013-04-14T11:54:20Z</time>
      </trkpt>
      <trkpt lat="59.8276264" lon="17.7660622">
        <ele>10.2312</ele>
        <time>2013-04-14T11:54:21Z</time>
      </trkpt>
      <trkpt lat="59.8276523" lon="17.7659747">
        <ele>10.2312</ele>
        <time>2013-04-14T11:54:22Z</time>
      </trkpt>
      <trkpt lat="59.8276787" lon="17.7658878">
        <ele>10.7118</ele>
        <time>2013-04-14T11:54:23Z</time>
      </trkpt>
      <trkpt lat="59.8277055" lon="17.7658018">
        <ele>10.7118</ele>
        <time>2013-04-14T11:54:24Z</time>
      </trkpt>
      <trkpt lat="59.8277305" lon="17.7657162">
        <ele>10.7118</ele>
        <time>2013-04-14T11:54:25Z</time>
      </trkpt>
      <trkpt lat="59.8277543" lon="17.7656335">
        <ele>11.1925</ele>
        <time>2013-04-14T11:54:26Z</time>
      </trkpt>
      <trkpt lat="59.8277766" lon="17.7655571">
        <ele>11.1925</ele>
        <time>2013-04-14T11:54:27Z</time>
      </trkpt>
      <trkpt lat="59.8277999" lon="17.7654822">
        <ele>11.1925</ele>
        <time>2013-04-14T11:54:28Z</time>
      </trkpt>
      <trkpt lat="59.8278231" lon="17.7654045">
        <ele>11.1925</ele>
        <time>2013-04-14T11:54:29Z</time>
      </trkpt>
      <trkpt lat="59.8278455" lon="17.7653241">
        <ele>11.1925</ele>
        <time>2013-04-14T11:54:30Z</time>
      </trkpt>
      <trkpt lat="59.8278693" lon="17.7652456">
        <ele>11.1925</ele>
        <time>2013-04-14T11:54:31Z</time>
      </trkpt>
      <trkpt lat="59.8278935" lon="17.7651683">
        <ele>11.6732</ele>
        <time>2013-04-14T11:54:32Z</time>
      </trkpt>
      <trkpt lat="59.8279159" lon="17.7650892">
        <ele>11.6732</ele>
        <time>2013-04-14T11:54:33Z</time>
      </trkpt>
      <trkpt lat="59.8279372" lon="17.7650114">
        <ele>11.6732</ele>
        <time>2013-04-14T11:54:34Z</time>
      </trkpt>
      <trkpt lat="59.8279579" lon="17.7649357">
        <ele>12.1538</ele>
        <time>2013-04-14T11:54:35Z</time>
      </trkpt>
      <trkpt lat="59.8279775" lon="17.7648606">
        <ele>12.1538</ele>
        <time>2013-04-14T11:54:36Z</time>
      </trkpt>
      <trkpt lat="59.8279952" lon="17.7647877">
        <ele>12.6344</ele>
        <time>2013-04-14T11:54:37Z</time>
      </trkpt>
      <trkpt lat="59.8280124" lon="17.7647175">
        <ele>12.6344</ele>
        <time>2013-04-14T11:54:38Z</time>
      </trkpt>
      <trkpt lat="59.8280302" lon="17.7646468">
        <ele>12.6344</ele>
        <time>2013-04-14T11:54:39Z</time>
      </trkpt>
      <trkpt lat="59.828046" lon="17.7645753">
        <ele>13.1151</ele>
        <time>2013-04-14T11:54:40Z</time>
      </trkpt>
      <trkpt lat="59.8280605" lon="17.7645023">
        <ele>13.1151</ele>
        <time>2013-04-14T11:54:41Z</time>
      </trkpt>
      <trkpt lat="59.8280745" lon="17.7644287">
        <ele>13.5958</ele>
        <time>2013-04-14T11:54:42Z</time>
      </trkpt>
      <trkpt lat="59.8280879" lon="17.7643557">
        <ele>13.5958</ele>
        <time>2013-04-14T11:54:43Z</time>
      </trkpt>
      <trkpt lat="59.8281019" lon="17.7642813">
        <ele>14.0764</ele>
        <time>2013-04-14T11:54:44Z</time>
      </trkpt>
      <trkpt lat="59.8281179" lon="17.764207">
        <ele>14.557</ele>
        <time>2013-04-14T11:54:45Z</time>
      </trkpt>
      <trkpt lat="59.8281342" lon="17.7641328">
        <ele>14.557</ele>
        <time>2013-04-14T11:54:46Z</time>
      </trkpt>
      <trkpt lat="59.8281491" lon="17.7640566">
        <ele>15.0377</ele>
        <time>2013-04-14T11:54:47Z</time>
      </trkpt>
      <trkpt lat="59.8281632" lon="17.7639744">
        <ele>15.5184</ele>
        <time>2013-04-14T11:54:48Z</time>
      </trkpt>
      <trkpt lat="59.828179" lon="17.7638934">
        <ele>15.999</ele>
        <time>2013-04-14T11:54:49Z</time>
      </trkpt>
      <trkpt lat="59.8281939" lon="17.7638097">
        <ele>15.999</ele>
        <time>2013-04-14T11:54:50Z</time>
      </trkpt>
      <trkpt lat="59.8282081" lon="17.7637245">
        <ele>16.4797</ele>
        <time>2013-04-14T11:54:51Z</time>
      </trkpt>
      <trkpt lat="59.8282211" lon="17.7636441">
        <ele>16.4797</ele>
        <time>2013-04-14T11:54:52Z</time>
      </trkpt>
      <trkpt lat="59.8282319" lon="17.7635682">
        <ele>16.4797</ele>
        <time>2013-04-14T11:54:53Z</time>
      </trkpt>
      <trkpt lat="59.8282432" lon="17.7634939">
        <ele>16.9604</ele>
        <time>2013-04-14T11:54:54Z</time>
      </trkpt>
      <trkpt lat="59.8282553" lon="17.7634194">
        <ele>16.9604</ele>
        <time>2013-04-14T11:54:55Z</time>
      </trkpt>
      <trkpt lat="59.8282683" lon="17.7633422">
        <ele>17.4412</ele>
        <time>2013-04-14T11:54:56Z</time>
      </trkpt>
      <trkpt lat="59.8282822" lon="17.7632609">
        <ele>17.4412</ele>
        <time>2013-04-14T11:54:57Z</time>
      </trkpt>
      <trkpt lat="59.8282967" lon="17.7631761">
        <ele>17.9218</ele>
        <time>2013-04-14T11:54:58Z</time>
      </trkpt>
      <trkpt lat="59.8283117" lon="17.763089">
        <ele>17.9218</ele>
        <time>2013-04-14T11:54:59Z</time>
      </trkpt>
      <trkpt lat="59.8283288" lon="17.7630015">
        <ele>18.4023</ele>
        <time>2013-04-14T11:55:00Z</time>
      </trkpt>
      <trkpt lat="59.8283462" lon="17.7629149">
        <ele>18.8831</ele>
        <time>2013-04-14T11:55:01Z</time>
      </trkpt>
      <trkpt lat="59.828363" lon="17.7628279">
        <ele>19.3638</ele>
        <time>2013-04-14T11:55:02Z</time>
      </trkpt>
      <trkpt lat="59.8283796" lon="17.7627404">
        <ele>19.3638</ele>
        <time>2013-04-14T11:55:03Z</time>
      </trkpt>
      <trkpt lat="59.8283977" lon="17.762653">
        <ele>19.8444</ele>
        <time>2013-04-14T11:55:04Z</time>
      </trkpt>
      <trkpt lat="59.8284164" lon="17.7625657">
        <ele>20.325</ele>
        <time>2013-04-14T11:55:05Z</time>
      </trkpt>
      <trkpt lat="59.828436" lon="17.7624789">
        <ele>20.325</ele>
        <time>2013-04-14T11:55:06Z</time>
      </trkpt>
      <trkpt lat="59.8284564" lon="17.7623954">
        <ele>20.8057</ele>
        <time>2013-04-14T11:55:07Z</time>
      </trkpt>
      <trkpt lat="59.8284774" lon="17.7623119">
        <ele>20.8057</ele>
        <time>2013-04-14T11:55:08Z</time>
      </trkpt>
      <trkpt lat="59.8284987" lon="17.7622282">
        <ele>20.8057</ele>
        <time>2013-04-14T11:55:09Z</time>
      </trkpt>
      <trkpt lat="59.8285211" lon="17.7621462">
        <ele>20.8057</ele>
        <time>2013-04-14T11:55:10Z</time>
      </trkpt>
      <trkpt lat="59.8285453" lon="17.7620661">
        <ele>20.8057</ele>
        <time>2013-04-14T11:55:11Z</time>
      </trkpt>
      <trkpt lat="59.8285707" lon="17.7619863">
        <ele>20.8057</ele>
        <time>2013-04-14T11:55:12Z</time>
      </trkpt>
      <trkpt lat="59.8285966" lon="17.7619052">
        <ele>21.2864</ele>
        <time>2013-04-14T11:55:13Z</time>
      </trkpt>
      <trkpt lat="59.8286232" lon="17.7618239">
        <ele>21.2864</ele>
        <time>2013-04-14T11:55:14Z</time>
      </trkpt>
      <trkpt lat="59.8286509" lon="17.7617412">
        <ele>20.8057</ele>
        <time>2013-04-14T11:55:15Z</time>
      </trkpt>
      <trkpt lat="59.8286799" lon="17.7616586">
        <ele>20.8057</ele>
        <time>2013-04-14T11:55:16Z</time>
      </trkpt>
      <trkpt lat="59.8287096" lon="17.7615769">
        <ele>20.8057</ele>
        <time>2013-04-14T11:55:17Z</time>
      </trkpt>
      <trkpt lat="59.8287381" lon="17.7614914">
        <ele>20.325</ele>
        <time>2013-04-14T11:55:18Z</time>
      </trkpt>
      <trkpt lat="59.828766" lon="17.7614032">
        <ele>20.325</ele>
        <time>2013-04-14T11:55:19Z</time>
      </trkpt>
      <trkpt lat="59.8287953" lon="17.7613148">
        <ele>19.8444</ele>
        <time>2013-04-14T11:55:20Z</time>
      </trkpt>
      <trkpt lat="59.8288233" lon="17.7612203">
        <ele>19.8444</ele>
        <time>2013-04-14T11:55:21Z</time>
      </trkpt>
      <trkpt lat="59.8288502" lon="17.7611216">
        <ele>19.8444</ele>
        <time>2013-04-14T11:55:22Z</time>
      </trkpt>
      <trkpt lat="59.8288764" lon="17.7610206">
        <ele>19.3638</ele>
        <time>2013-04-14T11:55:23Z</time>
      </trkpt>
      <trkpt lat="59.8289002" lon="17.7609153">
        <ele>19.3638</ele>
        <time>2013-04-14T11:55:24Z</time>
      </trkpt>
      <trkpt lat="59.8289218" lon="17.7608062">
        <ele>19.3638</ele>
        <time>2013-04-14T11:55:25Z</time>
      </trkpt>
      <trkpt lat="59.8289411" lon="17.7606951">
        <ele>18.8831</ele>
        <time>2013-04-14T11:55:26Z</time>
      </trkpt>
      <trkpt lat="59.8289572" lon="17.7605813">
        <ele>18.8831</ele>
        <time>2013-04-14T11:55:27Z</time>
      </trkpt>
      <trkpt lat="59.828971" lon="17.7604654">
        <ele>18.8831</ele>
        <time>2013-04-14T11:55:28Z</time>
      </trkpt>
      <trkpt lat="59.8289825" lon="17.7603478">
        <ele>18.8831</ele>
        <time>2013-04-14T11:55:29Z</time>
      </trkpt>
      <trkpt lat="59.8289928" lon="17.7602301">
        <ele>18.8831</ele>
        <time>2013-04-14T11:55:30Z</time>
      </trkpt>
      <trkpt lat="59.8290034" lon="17.7601131">
        <ele>18.8831</ele>
        <time>2013-04-14T11:55:31Z</time>
      </trkpt>
      <trkpt lat="59.8290132" lon="17.759997">
        <ele>18.8831</ele>
        <time>2013-04-14T11:55:32Z</time>
      </trkpt>
      <trkpt lat="59.8290204" lon="17.759882">
        <ele>18.8831</ele>
        <time>2013-04-14T11:55:33Z</time>
      </trkpt>
      <trkpt lat="59.829025" lon="17.7597689">
        <ele>18.8831</ele>
        <time>2013-04-14T11:55:34Z</time>
      </trkpt>
      <trkpt lat="59.8290281" lon="17.7596583">
        <ele>18.8831</ele>
        <time>2013-04-14T11:55:35Z</time>
      </trkpt>
      <trkpt lat="59.8290322" lon="17.7595505">
        <ele>19.3638</ele>
        <time>2013-04-14T11:55:36Z</time>
      </trkpt>
      <trkpt lat="59.8290354" lon="17.7594443">
        <ele>19.8444</ele>
        <time>2013-04-14T11:55:37Z</time>
      </trkpt>
      <trkpt lat="59.8290384" lon="17.7593382">
        <ele>19.8444</ele>
        <time>2013-04-14T11:55:38Z</time>
      </trkpt>
      <trkpt lat="59.8290402" lon="17.7592314">
        <ele>20.325</ele>
        <time>2013-04-14T11:55:39Z</time>
      </trkpt>
      <trkpt lat="59.829043" lon="17.759123">
        <ele>20.8057</ele>
        <time>2013-04-14T11:55:40Z</time>
      </trkpt>
      <trkpt lat="59.8290461" lon="17.7590138">
        <ele>21.2864</ele>
        <time>2013-04-14T11:55:41Z</time>
      </trkpt>
      <trkpt lat="59.8290503" lon="17.758902">
        <ele>21.767</ele>
        <time>2013-04-14T11:55:42Z</time>
      </trkpt>
      <trkpt lat="59.8290562" lon="17.7587883">
        <ele>22.2476</ele>
        <time>2013-04-14T11:55:43Z</time>
      </trkpt>
      <trkpt lat="59.8290613" lon="17.7586721">
        <ele>22.2476</ele>
        <time>2013-04-14T11:55:44Z</time>
      </trkpt>
      <trkpt lat="59.8290676" lon="17.7585523">
        <ele>23.209</ele>
        <time>2013-04-14T11:55:45Z</time>
      </trkpt>
      <trkpt lat="59.8290723" lon="17.7584285">
        <ele>23.209</ele>
        <time>2013-04-14T11:55:46Z</time>
      </trkpt>
      <trkpt lat="59.8290753" lon="17.7583008">
        <ele>23.209</ele>
        <time>2013-04-14T11:55:47Z</time>
      </trkpt>
      <trkpt lat="59.8290778" lon="17.7581715">
        <ele>23.209</ele>
        <time>2013-04-14T11:55:48Z</time>
      </trkpt>
      <trkpt lat="59.8290815" lon="17.7580427">
        <ele>23.209</ele>
        <time>2013-04-14T11:55:49Z</time>
      </trkpt>
      <trkpt lat="59.8290877" lon="17.7579146">
        <ele>23.209</ele>
        <time>2013-04-14T11:55:50Z</time>
      </trkpt>
      <trkpt lat="59.8290939" lon="17.7577866">
        <ele>23.209</ele>
        <time>2013-04-14T11:55:51Z</time>
      </trkpt>
      <trkpt lat="59.8290981" lon="17.757658">
        <ele>23.6896</ele>
        <time>2013-04-14T11:55:52Z</time>
      </trkpt>
      <trkpt lat="59.8291031" lon="17.7575302">
        <ele>23.6896</ele>
        <time>2013-04-14T11:55:53Z</time>
      </trkpt>
      <trkpt lat="59.8291094" lon="17.7574029">
        <ele>23.6896</ele>
        <time>2013-04-14T11:55:54Z</time>
      </trkpt>
      <trkpt lat="59.8291158" lon="17.757277">
        <ele>23.6896</ele>
        <time>2013-04-14T11:55:55Z</time>
      </trkpt>
      <trkpt lat="59.8291248" lon="17.7571506">
        <ele>24.1703</ele>
        <time>2013-04-14T11:55:56Z</time>
      </trkpt>
      <trkpt lat="59.8291379" lon="17.7570257">
        <ele>24.1703</ele>
        <time>2013-04-14T11:55:57Z</time>
      </trkpt>
      <trkpt lat="59.829152" lon="17.7568977">
        <ele>24.1703</ele>
        <time>2013-04-14T11:55:58Z</time>
      </trkpt>
      <trkpt lat="59.8291644" lon="17.7567676">
        <ele>24.1703</ele>
        <time>2013-04-14T11:55:59Z</time>
      </trkpt>
      <trkpt lat="59.8291779" lon="17.7566349">
        <ele>24.1703</ele>
        <time>2013-04-14T11:56:00Z</time>
      </trkpt>
      <trkpt lat="59.8291913" lon="17.756503">
        <ele>24.1703</ele>
        <time>2013-04-14T11:56:01Z</time>
      </trkpt>
      <trkpt lat="59.8292052" lon="17.7563742">
        <ele>23.6896</ele>
        <time>2013-04-14T11:56:02Z</time>
      </trkpt>
      <trkpt lat="59.8292215" lon="17.7562502">
        <ele>23.6896</ele>
        <time>2013-04-14T11:56:03Z</time>
      </trkpt>
      <trkpt lat="59.8292388" lon="17.7561294">
        <ele>23.6896</ele>
        <time>2013-04-14T11:56:04Z</time>
      </trkpt>
      <trkpt lat="59.8292561" lon="17.7560098">
        <ele>23.6896</ele>
        <time>2013-04-14T11:56:05Z</time>
      </trkpt>
      <trkpt lat="59.8292729" lon="17.7558912">
        <ele>23.209</ele>
        <time>2013-04-14T11:56:06Z</time>
      </trkpt>
      <trkpt lat="59.8292882" lon="17.7557732">
        <ele>23.209</ele>
        <time>2013-04-14T11:56:07Z</time>
      </trkpt>
      <trkpt lat="59.8293037" lon="17.7556576">
        <ele>23.209</ele>
        <time>2013-04-14T11:56:08Z</time>
      </trkpt>
      <trkpt lat="59.8293202" lon="17.7555442">
        <ele>23.209</ele>
        <time>2013-04-14T11:56:09Z</time>
      </trkpt>
      <trkpt lat="59.8293357" lon="17.7554306">
        <ele>23.209</ele>
        <time>2013-04-14T11:56:10Z</time>
      </trkpt>
      <trkpt lat="59.8293502" lon="17.7553168">
        <ele>22.7283</ele>
        <time>2013-04-14T11:56:11Z</time>
      </trkpt>
      <trkpt lat="59.8293664" lon="17.755205">
        <ele>22.7283</ele>
        <time>2013-04-14T11:56:12Z</time>
      </trkpt>
      <trkpt lat="59.8293824" lon="17.7550951">
        <ele>22.7283</ele>
        <time>2013-04-14T11:56:13Z</time>
      </trkpt>
      <trkpt lat="59.8293974" lon="17.7549869">
        <ele>22.7283</ele>
        <time>2013-04-14T11:56:14Z</time>
      </trkpt>
      <trkpt lat="59.8294135" lon="17.754882">
        <ele>22.7283</ele>
        <time>2013-04-14T11:56:15Z</time>
      </trkpt>
      <trkpt lat="59.8294318" lon="17.7547797">
        <ele>22.7283</ele>
        <time>2013-04-14T11:56:16Z</time>
      </trkpt>
      <trkpt lat="59.8294512" lon="17.7546781">
        <ele>22.7283</ele>
        <time>2013-04-14T11:56:17Z</time>
      </trkpt>
      <trkpt lat="59.8294708" lon="17.7545776">
        <ele>22.7283</ele>
        <time>2013-04-14T11:56:18Z</time>
      </trkpt>
      <trkpt lat="59.8294917" lon="17.7544787">
        <ele>22.7283</ele>
        <time>2013-04-14T11:56:19Z</time>
      </trkpt>
      <trkpt lat="59.8295145" lon="17.7543819">
        <ele>23.209</ele>
        <time>2013-04-14T11:56:20Z</time>
      </trkpt>
      <trkpt lat="59.8295389" lon="17.7542873">
        <ele>23.209</ele>
        <time>2013-04-14T11:56:21Z</time>
      </trkpt>
      <trkpt lat="59.8295652" lon="17.7541932">
        <ele>22.7283</ele>
        <time>2013-04-14T11:56:22Z</time>
      </trkpt>
      <trkpt lat="59.8295943" lon="17.7541003">
        <ele>23.209</ele>
        <time>2013-04-14T11:56:23Z</time>
      </trkpt>
      <trkpt lat="59.8296233" lon="17.7540093">
        <ele>22.7283</ele>
        <time>2013-04-14T11:56:24Z</time>
      </trkpt>
      <trkpt lat="59.8296534" lon="17.7539182">
        <ele>23.209</ele>
        <time>2013-04-14T11:56:25Z</time>
      </trkpt>
      <trkpt lat="59.8296848" lon="17.7538265">
        <ele>23.209</ele>
        <time>2013-04-14T11:56:26Z</time>
      </trkpt>
      <trkpt lat="59.8297162" lon="17.7537382">
        <ele>23.209</ele>
        <time>2013-04-14T11:56:27Z</time>
      </trkpt>
      <trkpt lat="59.8297483" lon="17.7536538">
        <ele>22.7283</ele>
        <time>2013-04-14T11:56:28Z</time>
      </trkpt>
      <trkpt lat="59.8297782" lon="17.7535712">
        <ele>22.7283</ele>
        <time>2013-04-14T11:56:29Z</time>
      </trkpt>
      <trkpt lat="59.8298109" lon="17.7534953">
        <ele>22.2476</ele>
        <time>2013-04-14T11:56:30Z</time>
      </trkpt>
      <trkpt lat="59.8298438" lon="17.7534224">
        <ele>22.2476</ele>
        <time>2013-04-14T11:56:31Z</time>
      </trkpt>
      <trkpt lat="59.8298762" lon="17.7533498">
        <ele>22.2476</ele>
        <time>2013-04-14T11:56:32Z</time>
      </trkpt>
      <trkpt lat="59.8299098" lon="17.7532811">
        <ele>22.2476</ele>
        <time>2013-04-14T11:56:33Z</time>
      </trkpt>
      <trkpt lat="59.829945" lon="17.7532138">
        <ele>22.2476</ele>
        <time>2013-04-14T11:56:34Z</time>
      </trkpt>
      <trkpt lat="59.8299788" lon="17.7531453">
        <ele>22.2476</ele>
        <time>2013-04-14T11:56:35Z</time>
      </trkpt>
      <trkpt lat="59.8300123" lon="17.7530769">
        <ele>22.2476</ele>
        <time>2013-04-14T11:56:36Z</time>
      </trkpt>
      <trkpt lat="59.8300455" lon="17.753012">
        <ele>22.2476</ele>
        <time>2013-04-14T11:56:37Z</time>
      </trkpt>
      <trkpt lat="59.8300781" lon="17.7529465">
        <ele>22.2476</ele>
        <time>2013-04-14T11:56:38Z</time>
      </trkpt>
      <trkpt lat="59.8301101" lon="17.7528775">
        <ele>22.2476</ele>
        <time>2013-04-14T11:56:39Z</time>
      </trkpt>
      <trkpt lat="59.8301422" lon="17.7528075">
        <ele>22.7283</ele>
        <time>2013-04-14T11:56:40Z</time>
      </trkpt>
      <trkpt lat="59.8301729" lon="17.7527355">
        <ele>22.7283</ele>
        <time>2013-04-14T11:56:41Z</time>
      </trkpt>
      <trkpt lat="59.8302017" lon="17.7526597">
        <ele>23.209</ele>
        <time>2013-04-14T11:56:42Z</time>
      </trkpt>
      <trkpt lat="59.8302283" lon="17.7525808">
        <ele>23.209</ele>
        <time>2013-04-14T11:56:43Z</time>
      </trkpt>
      <trkpt lat="59.8302528" lon="17.7525007">
        <ele>23.6896</ele>
        <time>2013-04-14T11:56:44Z</time>
      </trkpt>
      <trkpt lat="59.8302733" lon="17.7524184">
        <ele>23.6896</ele>
        <time>2013-04-14T11:56:45Z</time>
      </trkpt>
      <trkpt lat="59.830289" lon="17.7523305">
        <ele>23.6896</ele>
        <time>2013-04-14T11:56:46Z</time>
      </trkpt>
      <trkpt lat="59.8303028" lon="17.7522424">
        <ele>23.6896</ele>
        <time>2013-04-14T11:56:47Z</time>
      </trkpt>
      <trkpt lat="59.8303191" lon="17.7521518">
        <ele>24.1703</ele>
        <time>2013-04-14T11:56:48Z</time>
      </trkpt>
      <trkpt lat="59.830338" lon="17.7520581">
        <ele>24.651</ele>
        <time>2013-04-14T11:56:49Z</time>
      </trkpt>
      <trkpt lat="59.8303598" lon="17.7519601">
        <ele>24.651</ele>
        <time>2013-04-14T11:56:50Z</time>
      </trkpt>
      <trkpt lat="59.8303822" lon="17.7518584">
        <ele>25.1317</ele>
        <time>2013-04-14T11:56:51Z</time>
      </trkpt>
      <trkpt lat="59.8304046" lon="17.7517551">
        <ele>25.1317</ele>
        <time>2013-04-14T11:56:52Z</time>
      </trkpt>
      <trkpt lat="59.8304293" lon="17.7516532">
        <ele>25.6123</ele>
        <time>2013-04-14T11:56:53Z</time>
      </trkpt>
      <trkpt lat="59.8304556" lon="17.7515503">
        <ele>26.0929</ele>
        <time>2013-04-14T11:56:54Z</time>
      </trkpt>
      <trkpt lat="59.8304811" lon="17.7514508">
        <ele>26.0929</ele>
        <time>2013-04-14T11:56:55Z</time>
      </trkpt>
      <trkpt lat="59.8305068" lon="17.7513597">
        <ele>26.5736</ele>
        <time>2013-04-14T11:56:56Z</time>
      </trkpt>
      <trkpt lat="59.8305312" lon="17.7512678">
        <ele>26.5736</ele>
        <time>2013-04-14T11:56:57Z</time>
      </trkpt>
      <trkpt lat="59.8305547" lon="17.7511741">
        <ele>27.0543</ele>
        <time>2013-04-14T11:56:58Z</time>
      </trkpt>
      <trkpt lat="59.8305789" lon="17.7510821">
        <ele>28.0155</ele>
        <time>2013-04-14T11:56:59Z</time>
      </trkpt>
      <trkpt lat="59.8306018" lon="17.7509879">
        <ele>28.0155</ele>
        <time>2013-04-14T11:57:00Z</time>
      </trkpt>
      <trkpt lat="59.8306253" lon="17.7508971">
        <ele>28.4962</ele>
        <time>2013-04-14T11:57:01Z</time>
      </trkpt>
      <trkpt lat="59.8306516" lon="17.7508022">
        <ele>28.4962</ele>
        <time>2013-04-14T11:57:02Z</time>
      </trkpt>
      <trkpt lat="59.8306778" lon="17.7507008">
        <ele>28.4962</ele>
        <time>2013-04-14T11:57:03Z</time>
      </trkpt>
      <trkpt lat="59.830706" lon="17.7505899">
        <ele>28.4962</ele>
        <time>2013-04-14T11:57:04Z</time>
      </trkpt>
      <trkpt lat="59.830736" lon="17.7504755">
        <ele>28.4962</ele>
        <time>2013-04-14T11:57:05Z</time>
      </trkpt>
      <trkpt lat="59.8307653" lon="17.7503608">
        <ele>28.0155</ele>
        <time>2013-04-14T11:57:06Z</time>
      </trkpt>
      <trkpt lat="59.8307933" lon="17.7502448">
        <ele>27.5349</ele>
        <time>2013-04-14T11:57:07Z</time>
      </trkpt>
      <trkpt lat="59.8308233" lon="17.7501258">
        <ele>27.5349</ele>
        <time>2013-04-14T11:57:08Z</time>
      </trkpt>
      <trkpt lat="59.8308541" lon="17.7500032">
        <ele>27.0543</ele>
        <time>2013-04-14T11:57:09Z</time>
      </trkpt>
      <trkpt lat="59.8308842" lon="17.7498771">
        <ele>26.0929</ele>
        <time>2013-04-14T11:57:10Z</time>
      </trkpt>
      <trkpt lat="59.8309074" lon="17.7497407">
        <ele>25.6123</ele>
        <time>2013-04-14T11:57:11Z</time>
      </trkpt>
      <trkpt lat="59.8309392" lon="17.7496148">
        <ele>25.1317</ele>
        <time>2013-04-14T11:57:12Z</time>
      </trkpt>
      <trkpt lat="59.8309716" lon="17.7494911">
        <ele>25.1317</ele>
        <time>2013-04-14T11:57:13Z</time>
      </trkpt>
      <trkpt lat="59.8310027" lon="17.7493658">
        <ele>24.651</ele>
        <time>2013-04-14T11:57:14Z</time>
      </trkpt>
      <trkpt lat="59.8310332" lon="17.7492488">
        <ele>24.651</ele>
        <time>2013-04-14T11:57:15Z</time>
      </trkpt>
      <trkpt lat="59.8310639" lon="17.7491405">
        <ele>24.651</ele>
        <time>2013-04-14T11:57:16Z</time>
      </trkpt>
      <trkpt lat="59.8310924" lon="17.7490298">
        <ele>24.651</ele>
        <time>2013-04-14T11:57:17Z</time>
      </trkpt>
      <trkpt lat="59.831121" lon="17.7489239">
        <ele>24.651</ele>
        <time>2013-04-14T11:57:18Z</time>
      </trkpt>
      <trkpt lat="59.8311489" lon="17.7488185">
        <ele>25.1317</ele>
        <time>2013-04-14T11:57:19Z</time>
      </trkpt>
      <trkpt lat="59.8311773" lon="17.7487202">
        <ele>25.1317</ele>
        <time>2013-04-14T11:57:20Z</time>
      </trkpt>
      <trkpt lat="59.8312036" lon="17.748623">
        <ele>25.1317</ele>
        <time>2013-04-14T11:57:21Z</time>
      </trkpt>
      <trkpt lat="59.8312281" lon="17.7485227">
        <ele>25.1317</ele>
        <time>2013-04-14T11:57:22Z</time>
      </trkpt>
      <trkpt lat="59.8312518" lon="17.7484179">
        <ele>25.1317</ele>
        <time>2013-04-14T11:57:23Z</time>
      </trkpt>
      <trkpt lat="59.8312732" lon="17.7483124">
        <ele>24.651</ele>
        <time>2013-04-14T11:57:24Z</time>
      </trkpt>
      <trkpt lat="59.8312953" lon="17.7482095">
        <ele>25.1317</ele>
        <time>2013-04-14T11:57:25Z</time>
      </trkpt>
      <trkpt lat="59.8313149" lon="17.7481035">
        <ele>24.651</ele>
        <time>2013-04-14T11:57:26Z</time>
      </trkpt>
      <trkpt lat="59.8313279" lon="17.7479921">
        <ele>24.1703</ele>
        <time>2013-04-14T11:57:27Z</time>
      </trkpt>
      <trkpt lat="59.8313399" lon="17.7478749">
        <ele>23.6896</ele>
        <time>2013-04-14T11:57:28Z</time>
      </trkpt>
      <trkpt lat="59.8313519" lon="17.7477529">
        <ele>23.209</ele>
        <time>2013-04-14T11:57:29Z</time>
      </trkpt>
      <trkpt lat="59.8313633" lon="17.7476267">
        <ele>22.2476</ele>
        <time>2013-04-14T11:57:30Z</time>
      </trkpt>
      <trkpt lat="59.8313755" lon="17.7474978">
        <ele>21.767</ele>
        <time>2013-04-14T11:57:31Z</time>
      </trkpt>
      <trkpt lat="59.8313893" lon="17.7473658">
        <ele>21.2864</ele>
        <time>2013-04-14T11:57:32Z</time>
      </trkpt>
      <trkpt lat="59.8314027" lon="17.7472304">
        <ele>20.8057</ele>
        <time>2013-04-14T11:57:33Z</time>
      </trkpt>
      <trkpt lat="59.8314151" lon="17.7470917">
        <ele>20.8057</ele>
        <time>2013-04-14T11:57:34Z</time>
      </trkpt>
      <trkpt lat="59.831428" lon="17.746951">
        <ele>20.325</ele>
        <time>2013-04-14T11:57:35Z</time>
      </trkpt>
      <trkpt lat="59.8314405" lon="17.7468095">
        <ele>20.325</ele>
        <time>2013-04-14T11:57:36Z</time>
      </trkpt>
      <trkpt lat="59.8314528" lon="17.746668">
        <ele>19.8444</ele>
        <time>2013-04-14T11:57:37Z</time>
      </trkpt>
      <trkpt lat="59.8314648" lon="17.7465287">
        <ele>19.8444</ele>
        <time>2013-04-14T11:57:38Z</time>
      </trkpt>
      <trkpt lat="59.8314781" lon="17.7463933">
        <ele>19.8444</ele>
        <time>2013-04-14T11:57:39Z</time>
      </trkpt>
      <trkpt lat="59.8314921" lon="17.746263">
        <ele>20.325</ele>
        <time>2013-04-14T11:57:40Z</time>
      </trkpt>
      <trkpt lat="59.8315078" lon="17.7461408">
        <ele>20.8057</ele>
        <time>2013-04-14T11:57:41Z</time>
      </trkpt>
      <trkpt lat="59.831528" lon="17.7460279">
        <ele>21.2864</ele>
        <time>2013-04-14T11:57:42Z</time>
      </trkpt>
      <trkpt lat="59.8315509" lon="17.7459233">
        <ele>21.2864</ele>
        <time>2013-04-14T11:57:43Z</time>
      </trkpt>
      <trkpt lat="59.8315797" lon="17.7458277">
        <ele>21.767</ele>
        <time>2013-04-14T11:57:44Z</time>
      </trkpt>
      <trkpt lat="59.8316125" lon="17.7457409">
        <ele>22.2476</ele>
        <time>2013-04-14T11:57:45Z</time>
      </trkpt>
      <trkpt lat="59.8316485" lon="17.7456619">
        <ele>22.2476</ele>
        <time>2013-04-14T11:57:46Z</time>
      </trkpt>
      <trkpt lat="59.8316876" lon="17.7455931">
        <ele>22.7283</ele>
        <time>2013-04-14T11:57:47Z</time>
      </trkpt>
      <trkpt lat="59.8317288" lon="17.74553">
        <ele>23.209</ele>
        <time>2013-04-14T11:57:48Z</time>
      </trkpt>
      <trkpt lat="59.831771" lon="17.7454732">
        <ele>23.209</ele>
        <time>2013-04-14T11:57:49Z</time>
      </trkpt>
      <trkpt lat="59.8318146" lon="17.7454186">
        <ele>23.6896</ele>
        <time>2013-04-14T11:57:50Z</time>
      </trkpt>
      <trkpt lat="59.8318586" lon="17.7453651">
        <ele>23.6896</ele>
        <time>2013-04-14T11:57:51Z</time>
      </trkpt>
      <trkpt lat="59.8319037" lon="17.7453119">
        <ele>24.1703</ele>
        <time>2013-04-14T11:57:52Z</time>
      </trkpt>
      <trkpt lat="59.8319501" lon="17.7452651">
        <ele>24.1703</ele>
        <time>2013-04-14T11:57:53Z</time>
      </trkpt>
      <trkpt lat="59.8319967" lon="17.7452226">
        <ele>24.651</ele>
        <time>2013-04-14T11:57:54Z</time>
      </trkpt>
      <trkpt lat="59.8320415" lon="17.7451866">
        <ele>24.651</ele>
        <time>2013-04-14T11:57:55Z</time>
      </trkpt>
      <trkpt lat="59.8320827" lon="17.7451575">
        <ele>24.651</ele>
        <time>2013-04-14T11:57:56Z</time>
      </trkpt>
      <trkpt lat="59.8321226" lon="17.7451326">
        <ele>24.651</ele>
        <time>2013-04-14T11:57:57Z</time>
      </trkpt>
      <trkpt lat="59.8321617" lon="17.7451066">
        <ele>24.651</ele>
        <time>2013-04-14T11:57:58Z</time>
      </trkpt>
      <trkpt lat="59.8321994" lon="17.7450772">
        <ele>24.651</ele>
        <time>2013-04-14T11:57:59Z</time>
      </trkpt>
      <trkpt lat="59.832234" lon="17.7450474">
        <ele>25.1317</ele>
        <time>2013-04-14T11:58:00Z</time>
      </trkpt>
      <trkpt lat="59.8322684" lon="17.7450113">
        <ele>25.1317</ele>
        <time>2013-04-14T11:58:01Z</time>
      </trkpt>
      <trkpt lat="59.8323026" lon="17.7449654">
        <ele>25.1317</ele>
        <time>2013-04-14T11:58:02Z</time>
      </trkpt>
      <trkpt lat="59.8323342" lon="17.7449062">
        <ele>25.6123</ele>
        <time>2013-04-14T11:58:03Z</time>
      </trkpt>
      <trkpt lat="59.8323563" lon="17.7448259">
        <ele>25.6123</ele>
        <time>2013-04-14T11:58:04Z</time>
      </trkpt>
      <trkpt lat="59.8323703" lon="17.7447321">
        <ele>25.6123</ele>
        <time>2013-04-14T11:58:05Z</time>
      </trkpt>
      <trkpt lat="59.8323765" lon="17.7446344">
        <ele>25.1317</ele>
        <time>2013-04-14T11:58:06Z</time>
      </trkpt>
      <trkpt lat="59.8323851" lon="17.7445266">
        <ele>25.1317</ele>
        <time>2013-04-14T11:58:07Z</time>
      </trkpt>
      <trkpt lat="59.8323952" lon="17.7444138">
        <ele>25.1317</ele>
        <time>2013-04-14T11:58:08Z</time>
      </trkpt>
      <trkpt lat="59.8324054" lon="17.7442954">
        <ele>24.651</ele>
        <time>2013-04-14T11:58:09Z</time>
      </trkpt>
      <trkpt lat="59.8324145" lon="17.7441744">
        <ele>24.651</ele>
        <time>2013-04-14T11:58:10Z</time>
      </trkpt>
      <trkpt lat="59.8324255" lon="17.7440504">
        <ele>24.1703</ele>
        <time>2013-04-14T11:58:11Z</time>
      </trkpt>
      <trkpt lat="59.8324463" lon="17.7439293">
        <ele>24.1703</ele>
        <time>2013-04-14T11:58:12Z</time>
      </trkpt>
      <trkpt lat="59.8324776" lon="17.7438264">
        <ele>24.1703</ele>
        <time>2013-04-14T11:58:13Z</time>
      </trkpt>
      <trkpt lat="59.832519" lon="17.7437422">
        <ele>24.1703</ele>
        <time>2013-04-14T11:58:14Z</time>
      </trkpt>
      <trkpt lat="59.8325659" lon="17.7436817">
        <ele>24.651</ele>
        <time>2013-04-14T11:58:15Z</time>
      </trkpt>
      <trkpt lat="59.8326172" lon="17.7436507">
        <ele>24.651</ele>
        <time>2013-04-14T11:58:16Z</time>
      </trkpt>
      <trkpt lat="59.8326672" lon="17.7436353">
        <ele>24.651</ele>
        <time>2013-04-14T11:58:17Z</time>
      </trkpt>
      <trkpt lat="59.8327157" lon="17.7436363">
        <ele>24.1703</ele>
        <time>2013-04-14T11:58:18Z</time>
      </trkpt>
      <trkpt lat="59.8327604" lon="17.7436585">
        <ele>24.1703</ele>
        <time>2013-04-14T11:58:19Z</time>
      </trkpt>
      <trkpt lat="59.8328018" lon="17.7436937">
        <ele>24.1703</ele>
        <time>2013-04-14T11:58:20Z</time>
      </trkpt>
      <trkpt lat="59.8328438" lon="17.7437288">
        <ele>24.1703</ele>
        <time>2013-04-14T11:58:21Z</time>
      </trkpt>
      <trkpt lat="59.8328863" lon="17.7437637">
        <ele>23.6896</ele>
        <time>2013-04-14T11:58:22Z</time>
      </trkpt>
      <trkpt lat="59.8329293" lon="17.7438004">
        <ele>24.1703</ele>
        <time>2013-04-14T11:58:23Z</time>
      </trkpt>
      <trkpt lat="59.8329734" lon="17.7438407">
        <ele>23.6896</ele>
        <time>2013-04-14T11:58:24Z</time>
      </trkpt>
      <trkpt lat="59.8330185" lon="17.7438833">
        <ele>23.6896</ele>
        <time>2013-04-14T11:58:25Z</time>
      </trkpt>
      <trkpt lat="59.8330659" lon="17.7439257">
        <ele>23.6896</ele>
        <time>2013-04-14T11:58:26Z</time>
      </trkpt>
      <trkpt lat="59.8331138" lon="17.7439666">
        <ele>23.209</ele>
        <time>2013-04-14T11:58:27Z</time>
      </trkpt>
      <trkpt lat="59.8331639" lon="17.7440061">
        <ele>22.7283</ele>
        <time>2013-04-14T11:58:28Z</time>
      </trkpt>
      <trkpt lat="59.8332187" lon="17.7440454">
        <ele>22.7283</ele>
        <time>2013-04-14T11:58:29Z</time>
      </trkpt>
      <trkpt lat="59.8332748" lon="17.7440841">
        <ele>22.2476</ele>
        <time>2013-04-14T11:58:30Z</time>
      </trkpt>
      <trkpt lat="59.8333328" lon="17.7441175">
        <ele>21.767</ele>
        <time>2013-04-14T11:58:31Z</time>
      </trkpt>
      <trkpt lat="59.8333919" lon="17.7441444">
        <ele>21.2864</ele>
        <time>2013-04-14T11:58:32Z</time>
      </trkpt>
      <trkpt lat="59.8334495" lon="17.7441697">
        <ele>20.8057</ele>
        <time>2013-04-14T11:58:33Z</time>
      </trkpt>
      <trkpt lat="59.8335068" lon="17.7441956">
        <ele>20.325</ele>
        <time>2013-04-14T11:58:34Z</time>
      </trkpt>
      <trkpt lat="59.8335629" lon="17.7442222">
        <ele>19.8444</ele>
        <time>2013-04-14T11:58:35Z</time>
      </trkpt>
      <trkpt lat="59.8336182" lon="17.7442498">
        <ele>19.3638</ele>
        <time>2013-04-14T11:58:36Z</time>
      </trkpt>
      <trkpt lat="59.8336743" lon="17.7442754">
        <ele>18.8831</ele>
        <time>2013-04-14T11:58:37Z</time>
      </trkpt>
      <trkpt lat="59.8337327" lon="17.744298">
        <ele>18.4023</ele>
        <time>2013-04-14T11:58:38Z</time>
      </trkpt>
      <trkpt lat="59.8337921" lon="17.7443208">
        <ele>17.9218</ele>
        <time>2013-04-14T11:58:39Z</time>
      </trkpt>
      <trkpt lat="59.8338509" lon="17.7443448">
        <ele>17.4412</ele>
        <time>2013-04-14T11:58:40Z</time>
      </trkpt>
      <trkpt lat="59.8339093" lon="17.7443707">
        <ele>16.9604</ele>
        <time>2013-04-14T11:58:41Z</time>
      </trkpt>
      <trkpt lat="59.8339679" lon="17.7443959">
        <ele>16.4797</ele>
        <time>2013-04-14T11:58:42Z</time>
      </trkpt>
      <trkpt lat="59.8340241" lon="17.7444229">
        <ele>15.5184</ele>
        <time>2013-04-14T11:58:43Z</time>
      </trkpt>
      <trkpt lat="59.8340824" lon="17.7444505">
        <ele>15.0377</ele>
        <time>2013-04-14T11:58:44Z</time>
      </trkpt>
      <trkpt lat="59.8341394" lon="17.7444816">
        <ele>14.557</ele>
        <time>2013-04-14T11:58:45Z</time>
      </trkpt>
      <trkpt lat="59.8341963" lon="17.7445168">
        <ele>14.0764</ele>
        <time>2013-04-14T11:58:46Z</time>
      </trkpt>
      <trkpt lat="59.8342542" lon="17.7445536">
        <ele>14.0764</ele>
        <time>2013-04-14T11:58:47Z</time>
      </trkpt>
      <trkpt lat="59.834313" lon="17.7445855">
        <ele>14.0764</ele>
        <time>2013-04-14T11:58:48Z</time>
      </trkpt>
      <trkpt lat="59.8343731" lon="17.7446131">
        <ele>13.5958</ele>
        <time>2013-04-14T11:58:49Z</time>
      </trkpt>
      <trkpt lat="59.8344342" lon="17.7446378">
        <ele>13.5958</ele>
        <time>2013-04-14T11:58:50Z</time>
      </trkpt>
      <trkpt lat="59.8344978" lon="17.7446582">
        <ele>13.5958</ele>
        <time>2013-04-14T11:58:51Z</time>
      </trkpt>
      <trkpt lat="59.834562" lon="17.7446773">
        <ele>12.6344</ele>
        <time>2013-04-14T11:58:52Z</time>
      </trkpt>
      <trkpt lat="59.8346273" lon="17.7446914">
        <ele>11.6732</ele>
        <time>2013-04-14T11:58:53Z</time>
      </trkpt>
      <trkpt lat="59.8346946" lon="17.7447012">
        <ele>10.7118</ele>
        <time>2013-04-14T11:58:54Z</time>
      </trkpt>
      <trkpt lat="59.8347656" lon="17.7447037">
        <ele>10.2312</ele>
        <time>2013-04-14T11:58:55Z</time>
      </trkpt>
      <trkpt lat="59.834837" lon="17.7447002">
        <ele>10.2312</ele>
        <time>2013-04-14T11:58:56Z</time>
      </trkpt>
      <trkpt lat="59.834908" lon="17.7446946">
        <ele>10.2312</ele>
        <time>2013-04-14T11:58:57Z</time>
      </trkpt>
      <trkpt lat="59.834979" lon="17.7446841">
        <ele>10.7118</ele>
        <time>2013-04-14T11:58:58Z</time>
      </trkpt>
      <trkpt lat="59.8350498" lon="17.7446691">
        <ele>10.7118</ele>
        <time>2013-04-14T11:58:59Z</time>
      </trkpt>
      <trkpt lat="59.8351204" lon="17.7446503">
        <ele>11.1925</ele>
        <time>2013-04-14T11:59:00Z</time>
      </trkpt>
      <trkpt lat="59.8351898" lon="17.7446265">
        <ele>11.1925</ele>
        <time>2013-04-14T11:59:01Z</time>
      </trkpt>
      <trkpt lat="59.8352567" lon="17.7445971">
        <ele>11.6732</ele>
        <time>2013-04-14T11:59:02Z</time>
      </trkpt>
      <trkpt lat="59.8353214" lon="17.7445617">
        <ele>11.6732</ele>
        <time>2013-04-14T11:59:03Z</time>
      </trkpt>
      <trkpt lat="59.8353856" lon="17.7445218">
        <ele>11.6732</ele>
        <time>2013-04-14T11:59:04Z</time>
      </trkpt>
      <trkpt lat="59.8354502" lon="17.7444826">
        <ele>12.1538</ele>
        <time>2013-04-14T11:59:05Z</time>
      </trkpt>
      <trkpt lat="59.8355148" lon="17.7444413">
        <ele>12.1538</ele>
        <time>2013-04-14T11:59:06Z</time>
      </trkpt>
      <trkpt lat="59.835579" lon="17.7443946">
        <ele>12.6344</ele>
        <time>2013-04-14T11:59:07Z</time>
      </trkpt>
      <trkpt lat="59.8356436" lon="17.7443453">
        <ele>12.6344</ele>
        <time>2013-04-14T11:59:08Z</time>
      </trkpt>
      <trkpt lat="59.8357082" lon="17.7442951">
        <ele>12.6344</ele>
        <time>2013-04-14T11:59:09Z</time>
      </trkpt>
      <trkpt lat="59.835772" lon="17.7442423">
        <ele>13.1151</ele>
        <time>2013-04-14T11:59:10Z</time>
      </trkpt>
      <trkpt lat="59.8358348" lon="17.74419">
        <ele>13.1151</ele>
        <time>2013-04-14T11:59:11Z</time>
      </trkpt>
      <trkpt lat="59.8358975" lon="17.7441423">
        <ele>13.1151</ele>
        <time>2013-04-14T11:59:12Z</time>
      </trkpt>
      <trkpt lat="59.8359607" lon="17.7440954">
        <ele>13.5958</ele>
        <time>2013-04-14T11:59:13Z</time>
      </trkpt>
      <trkpt lat="59.8360233" lon="17.744047">
        <ele>13.5958</ele>
        <time>2013-04-14T11:59:14Z</time>
      </trkpt>
      <trkpt lat="59.8360865" lon="17.7439962">
        <ele>13.5958</ele>
        <time>2013-04-14T11:59:15Z</time>
      </trkpt>
      <trkpt lat="59.8361487" lon="17.7439428">
        <ele>14.0764</ele>
        <time>2013-04-14T11:59:16Z</time>
      </trkpt>
      <trkpt lat="59.8362094" lon="17.7438901">
        <ele>14.0764</ele>
        <time>2013-04-14T11:59:17Z</time>
      </trkpt>
      <trkpt lat="59.83627" lon="17.7438387">
        <ele>14.0764</ele>
        <time>2013-04-14T11:59:18Z</time>
      </trkpt>
      <trkpt lat="59.8363309" lon="17.7437888">
        <ele>14.0764</ele>
        <time>2013-04-14T11:59:19Z</time>
      </trkpt>
      <trkpt lat="59.836393" lon="17.7437404">
        <ele>14.557</ele>
        <time>2013-04-14T11:59:20Z</time>
      </trkpt>
      <trkpt lat="59.8364549" lon="17.7436922">
        <ele>14.557</ele>
        <time>2013-04-14T11:59:21Z</time>
      </trkpt>
      <trkpt lat="59.836516" lon="17.743645">
        <ele>14.557</ele>
        <time>2013-04-14T11:59:22Z</time>
      </trkpt>
      <trkpt lat="59.8365771" lon="17.7435968">
        <ele>14.557</ele>
        <time>2013-04-14T11:59:23Z</time>
      </trkpt>
      <trkpt lat="59.8366388" lon="17.7435475">
        <ele>15.0377</ele>
        <time>2013-04-14T11:59:24Z</time>
      </trkpt>
      <trkpt lat="59.8367019" lon="17.743499">
        <ele>15.0377</ele>
        <time>2013-04-14T11:59:25Z</time>
      </trkpt>
      <trkpt lat="59.8367661" lon="17.7434502">
        <ele>15.0377</ele>
        <time>2013-04-14T11:59:26Z</time>
      </trkpt>
      <trkpt lat="59.8368304" lon="17.7433996">
        <ele>15.0377</ele>
        <time>2013-04-14T11:59:27Z</time>
      </trkpt>
      <trkpt lat="59.8368953" lon="17.7433486">
        <ele>15.0377</ele>
        <time>2013-04-14T11:59:28Z</time>
      </trkpt>
      <trkpt lat="59.8369618" lon="17.7432995">
        <ele>15.0377</ele>
        <time>2013-04-14T11:59:29Z</time>
      </trkpt>
      <trkpt lat="59.8370287" lon="17.7432521">
        <ele>15.5184</ele>
        <time>2013-04-14T11:59:30Z</time>
      </trkpt>
      <trkpt lat="59.8370957" lon="17.743206">
        <ele>15.5184</ele>
        <time>2013-04-14T11:59:31Z</time>
      </trkpt>
      <trkpt lat="59.837163" lon="17.7431622">
        <ele>15.5184</ele>
        <time>2013-04-14T11:59:32Z</time>
      </trkpt>
      <trkpt lat="59.8372308" lon="17.7431219">
        <ele>15.5184</ele>
        <time>2013-04-14T11:59:33Z</time>
      </trkpt>
      <trkpt lat="59.8372995" lon="17.7430841">
        <ele>15.5184</ele>
        <time>2013-04-14T11:59:34Z</time>
      </trkpt>
      <trkpt lat="59.8373686" lon="17.7430473">
        <ele>15.999</ele>
        <time>2013-04-14T11:59:35Z</time>
      </trkpt>
      <trkpt lat="59.837438" lon="17.7430116">
        <ele>15.999</ele>
        <time>2013-04-14T11:59:36Z</time>
      </trkpt>
      <trkpt lat="59.8375083" lon="17.7429776">
        <ele>15.999</ele>
        <time>2013-04-14T11:59:37Z</time>
      </trkpt>
      <trkpt lat="59.8375783" lon="17.742945">
        <ele>15.999</ele>
        <time>2013-04-14T11:59:38Z</time>
      </trkpt>
      <trkpt lat="59.8376478" lon="17.7429099">
        <ele>15.999</ele>
        <time>2013-04-14T11:59:39Z</time>
      </trkpt>
      <trkpt lat="59.8377177" lon="17.7428736">
        <ele>15.999</ele>
        <time>2013-04-14T11:59:40Z</time>
      </trkpt>
      <trkpt lat="59.8377887" lon="17.7428404">
        <ele>16.4797</ele>
        <time>2013-04-14T11:59:41Z</time>
      </trkpt>
      <trkpt lat="59.8378605" lon="17.7428088">
        <ele>16.4797</ele>
        <time>2013-04-14T11:59:42Z</time>
      </trkpt>
      <trkpt lat="59.8379332" lon="17.7427752">
        <ele>16.4797</ele>
        <time>2013-04-14T11:59:43Z</time>
      </trkpt>
      <trkpt lat="59.8380066" lon="17.7427395">
        <ele>16.4797</ele>
        <time>2013-04-14T11:59:44Z</time>
      </trkpt>
      <trkpt lat="59.8380803" lon="17.7427032">
        <ele>16.4797</ele>
        <time>2013-04-14T11:59:45Z</time>
      </trkpt>
      <trkpt lat="59.8381529" lon="17.7426669">
        <ele>16.4797</ele>
        <time>2013-04-14T11:59:46Z</time>
      </trkpt>
      <trkpt lat="59.8382257" lon="17.7426293">
        <ele>16.9604</ele>
        <time>2013-04-14T11:59:47Z</time>
      </trkpt>
      <trkpt lat="59.8382979" lon="17.742595">
        <ele>16.9604</ele>
        <time>2013-04-14T11:59:48Z</time>
      </trkpt>
      <trkpt lat="59.8383689" lon="17.7425627">
        <ele>16.9604</ele>
        <time>2013-04-14T11:59:49Z</time>
      </trkpt>
      <trkpt lat="59.8384392" lon="17.7425311">
        <ele>16.9604</ele>
        <time>2013-04-14T11:59:50Z</time>
      </trkpt>
      <trkpt lat="59.8385103" lon="17.7424997">
        <ele>16.9604</ele>
        <time>2013-04-14T11:59:51Z</time>
      </trkpt>
      <trkpt lat="59.8385823" lon="17.742466">
        <ele>16.9604</ele>
        <time>2013-04-14T11:59:52Z</time>
      </trkpt>
      <trkpt lat="59.8386549" lon="17.7424286">
        <ele>16.9604</ele>
        <time>2013-04-14T11:59:53Z</time>
      </trkpt>
      <trkpt lat="59.8387274" lon="17.7423902">
        <ele>16.9604</ele>
        <time>2013-04-14T11:59:54Z</time>
      </trkpt>
      <trkpt lat="59.8388002" lon="17.7423567">
        <ele>16.9604</ele>
        <time>2013-04-14T11:59:55Z</time>
      </trkpt>
      <trkpt lat="59.8388735" lon="17.7423271">
        <ele>16.9604</ele>
        <time>2013-04-14T11:59:56Z</time>
      </trkpt>
      <trkpt lat="59.8389469" lon="17.7422971">
        <ele>16.9604</ele>
        <time>2013-04-14T11:59:57Z</time>
      </trkpt>
      <trkpt lat="59.839019" lon="17.742269">
        <ele>16.9604</ele>
        <time>2013-04-14T11:59:58Z</time>
      </trkpt>
      <trkpt lat="59.8390905" lon="17.7422433">
        <ele>16.9604</ele>
        <time>2013-04-14T11:59:59Z</time>
      </trkpt>
      <trkpt lat="59.8391628" lon="17.7422184">
        <ele>16.9604</ele>
        <time>2013-04-14T12:00:00Z</time>
      </trkpt>
      <trkpt lat="59.8392354" lon="17.7421966">
        <ele>16.9604</ele>
        <time>2013-04-14T12:00:01Z</time>
      </trkpt>
      <trkpt lat="59.8393085" lon="17.7421776">
        <ele>16.9604</ele>
        <time>2013-04-14T12:00:02Z</time>
      </trkpt>
      <trkpt lat="59.8393821" lon="17.7421586">
        <ele>16.9604</ele>
        <time>2013-04-14T12:00:03Z</time>
      </trkpt>
      <trkpt lat="59.8394565" lon="17.7421402">
        <ele>16.9604</ele>
        <time>2013-04-14T12:00:04Z</time>
      </trkpt>
      <trkpt lat="59.8395309" lon="17.7421246">
        <ele>17.4412</ele>
        <time>2013-04-14T12:00:05Z</time>
      </trkpt>
      <trkpt lat="59.8396055" lon="17.742112">
        <ele>17.4412</ele>
        <time>2013-04-14T12:00:06Z</time>
      </trkpt>
      <trkpt lat="59.8396801" lon="17.7421003">
        <ele>17.4412</ele>
        <time>2013-04-14T12:00:07Z</time>
      </trkpt>
      <trkpt lat="59.8397552" lon="17.7420856">
        <ele>17.4412</ele>
        <time>2013-04-14T12:00:08Z</time>
      </trkpt>
      <trkpt lat="59.8398296" lon="17.7420682">
        <ele>17.4412</ele>
        <time>2013-04-14T12:00:09Z</time>
      </trkpt>
      <trkpt lat="59.8399025" lon="17.7420529">
        <ele>17.4412</ele>
        <time>2013-04-14T12:00:10Z</time>
      </trkpt>
      <trkpt lat="59.8399748" lon="17.7420419">
        <ele>17.4412</ele>
        <time>2013-04-14T12:00:11Z</time>
      </trkpt>
      <trkpt lat="59.8400477" lon="17.7420345">
        <ele>17.4412</ele>
        <time>2013-04-14T12:00:12Z</time>
      </trkpt>
      <trkpt lat="59.8401213" lon="17.7420278">
        <ele>17.4412</ele>
        <time>2013-04-14T12:00:13Z</time>
      </trkpt>
      <trkpt lat="59.8401957" lon="17.7420172">
        <ele>17.4412</ele>
        <time>2013-04-14T12:00:14Z</time>
      </trkpt>
      <trkpt lat="59.84027" lon="17.7420043">
        <ele>17.9218</ele>
        <time>2013-04-14T12:00:15Z</time>
      </trkpt>
      <trkpt lat="59.8403445" lon="17.7419929">
        <ele>17.9218</ele>
        <time>2013-04-14T12:00:16Z</time>
      </trkpt>
      <trkpt lat="59.8404195" lon="17.7419811">
        <ele>17.9218</ele>
        <time>2013-04-14T12:00:17Z</time>
      </trkpt>
      <trkpt lat="59.8404947" lon="17.741968">
        <ele>17.9218</ele>
        <time>2013-04-14T12:00:18Z</time>
      </trkpt>
      <trkpt lat="59.8405698" lon="17.7419538">
        <ele>17.9218</ele>
        <time>2013-04-14T12:00:19Z</time>
      </trkpt>
      <trkpt lat="59.8406445" lon="17.7419398">
        <ele>18.4023</ele>
        <time>2013-04-14T12:00:20Z</time>
      </trkpt>
      <trkpt lat="59.8407195" lon="17.7419273">
        <ele>18.4023</ele>
        <time>2013-04-14T12:00:21Z</time>
      </trkpt>
      <trkpt lat="59.8407947" lon="17.7419143">
        <ele>18.4023</ele>
        <time>2013-04-14T12:00:22Z</time>
      </trkpt>
      <trkpt lat="59.8408698" lon="17.7419003">
        <ele>18.4023</ele>
        <time>2013-04-14T12:00:23Z</time>
      </trkpt>
      <trkpt lat="59.8409451" lon="17.7418857">
        <ele>18.4023</ele>
        <time>2013-04-14T12:00:24Z</time>
      </trkpt>
      <trkpt lat="59.8410205" lon="17.7418703">
        <ele>18.8831</ele>
        <time>2013-04-14T12:00:25Z</time>
      </trkpt>
      <trkpt lat="59.8410967" lon="17.7418554">
        <ele>18.8831</ele>
        <time>2013-04-14T12:00:26Z</time>
      </trkpt>
      <trkpt lat="59.841174" lon="17.7418403">
        <ele>18.8831</ele>
        <time>2013-04-14T12:00:27Z</time>
      </trkpt>
      <trkpt lat="59.8412521" lon="17.7418238">
        <ele>18.8831</ele>
        <time>2013-04-14T12:00:28Z</time>
      </trkpt>
      <trkpt lat="59.8413309" lon="17.7418079">
        <ele>18.8831</ele>
        <time>2013-04-14T12:00:29Z</time>
      </trkpt>
      <trkpt lat="59.8414097" lon="17.7417905">
        <ele>18.8831</ele>
        <time>2013-04-14T12:00:30Z</time>
      </trkpt>
      <trkpt lat="59.8414882" lon="17.7417704">
        <ele>18.8831</ele>
        <time>2013-04-14T12:00:31Z</time>
      </trkpt>
      <trkpt lat="59.8415653" lon="17.7417509">
        <ele>18.8831</ele>
        <time>2013-04-14T12:00:32Z</time>
      </trkpt>
      <trkpt lat="59.8416413" lon="17.7417325">
        <ele>19.3638</ele>
        <time>2013-04-14T12:00:33Z</time>
      </trkpt>
      <trkpt lat="59.8417168" lon="17.741717">
        <ele>19.3638</ele>
        <time>2013-04-14T12:00:34Z</time>
      </trkpt>
      <trkpt lat="59.8417919" lon="17.7417048">
        <ele>19.3638</ele>
        <time>2013-04-14T12:00:35Z</time>
      </trkpt>
      <trkpt lat="59.8418664" lon="17.7416906">
        <ele>19.3638</ele>
        <time>2013-04-14T12:00:36Z</time>
      </trkpt>
      <trkpt lat="59.8419404" lon="17.7416709">
        <ele>19.3638</ele>
        <time>2013-04-14T12:00:37Z</time>
      </trkpt>
      <trkpt lat="59.8420136" lon="17.7416475">
        <ele>19.8444</ele>
        <time>2013-04-14T12:00:38Z</time>
      </trkpt>
      <trkpt lat="59.8420861" lon="17.7416232">
        <ele>19.8444</ele>
        <time>2013-04-14T12:00:39Z</time>
      </trkpt>
      <trkpt lat="59.8421579" lon="17.7415994">
        <ele>19.8444</ele>
        <time>2013-04-14T12:00:40Z</time>
      </trkpt>
      <trkpt lat="59.8422281" lon="17.7415766">
        <ele>19.8444</ele>
        <time>2013-04-14T12:00:41Z</time>
      </trkpt>
      <trkpt lat="59.8422981" lon="17.7415529">
        <ele>20.325</ele>
        <time>2013-04-14T12:00:42Z</time>
      </trkpt>
      <trkpt lat="59.8423675" lon="17.7415287">
        <ele>20.325</ele>
        <time>2013-04-14T12:00:43Z</time>
      </trkpt>
      <trkpt lat="59.8424371" lon="17.741504">
        <ele>20.325</ele>
        <time>2013-04-14T12:00:44Z</time>
      </trkpt>
      <trkpt lat="59.8425057" lon="17.7414761">
        <ele>20.8057</ele>
        <time>2013-04-14T12:00:45Z</time>
      </trkpt>
      <trkpt lat="59.8425737" lon="17.7414448">
        <ele>20.8057</ele>
        <time>2013-04-14T12:00:46Z</time>
      </trkpt>
      <trkpt lat="59.8426409" lon="17.7414142">
        <ele>20.8057</ele>
        <time>2013-04-14T12:00:47Z</time>
      </trkpt>
      <trkpt lat="59.8427081" lon="17.7413844">
        <ele>20.8057</ele>
        <time>2013-04-14T12:00:48Z</time>
      </trkpt>
      <trkpt lat="59.8427746" lon="17.7413529">
        <ele>20.8057</ele>
        <time>2013-04-14T12:00:49Z</time>
      </trkpt>
      <trkpt lat="59.8428417" lon="17.7413171">
        <ele>20.8057</ele>
        <time>2013-04-14T12:00:50Z</time>
      </trkpt>
      <trkpt lat="59.8429077" lon="17.7412793">
        <ele>20.8057</ele>
        <time>2013-04-14T12:00:51Z</time>
      </trkpt>
      <trkpt lat="59.8429753" lon="17.741242">
        <ele>20.8057</ele>
        <time>2013-04-14T12:00:52Z</time>
      </trkpt>
      <trkpt lat="59.8430437" lon="17.7412036">
        <ele>20.8057</ele>
        <time>2013-04-14T12:00:53Z</time>
      </trkpt>
      <trkpt lat="59.8431127" lon="17.7411633">
        <ele>20.8057</ele>
        <time>2013-04-14T12:00:54Z</time>
      </trkpt>
      <trkpt lat="59.84318" lon="17.7411192">
        <ele>20.8057</ele>
        <time>2013-04-14T12:00:55Z</time>
      </trkpt>
      <trkpt lat="59.8432449" lon="17.7410726">
        <ele>20.325</ele>
        <time>2013-04-14T12:00:56Z</time>
      </trkpt>
      <trkpt lat="59.8433091" lon="17.7410273">
        <ele>20.325</ele>
        <time>2013-04-14T12:00:57Z</time>
      </trkpt>
      <trkpt lat="59.843374" lon="17.7409856">
        <ele>20.325</ele>
        <time>2013-04-14T12:00:58Z</time>
      </trkpt>
      <trkpt lat="59.8434381" lon="17.7409461">
        <ele>19.8444</ele>
        <time>2013-04-14T12:00:59Z</time>
      </trkpt>
      <trkpt lat="59.8434998" lon="17.7409082">
        <ele>19.8444</ele>
        <time>2013-04-14T12:01:00Z</time>
      </trkpt>
      <trkpt lat="59.8435602" lon="17.7408726">
        <ele>19.3638</ele>
        <time>2013-04-14T12:01:01Z</time>
      </trkpt>
      <trkpt lat="59.8436192" lon="17.7408373">
        <ele>18.8831</ele>
        <time>2013-04-14T12:01:02Z</time>
      </trkpt>
      <trkpt lat="59.8436776" lon="17.740802">
        <ele>18.4023</ele>
        <time>2013-04-14T12:01:03Z</time>
      </trkpt>
      <trkpt lat="59.8437354" lon="17.7407676">
        <ele>18.4023</ele>
        <time>2013-04-14T12:01:04Z</time>
      </trkpt>
      <trkpt lat="59.8437935" lon="17.7407338">
        <ele>17.9218</ele>
        <time>2013-04-14T12:01:05Z</time>
      </trkpt>
      <trkpt lat="59.8438528" lon="17.7407022">
        <ele>17.9218</ele>
        <time>2013-04-14T12:01:06Z</time>
      </trkpt>
      <trkpt lat="59.8439112" lon="17.7406755">
        <ele>17.9218</ele>
        <time>2013-04-14T12:01:07Z</time>
      </trkpt>
      <trkpt lat="59.8439633" lon="17.7406602">
        <ele>17.9218</ele>
        <time>2013-04-14T12:01:08Z</time>
      </trkpt>
      <trkpt lat="59.8440064" lon="17.740654">
        <ele>17.9218</ele>
        <time>2013-04-14T12:01:09Z</time>
      </trkpt>
      <trkpt lat="59.8440455" lon="17.7406488">
        <ele>17.9218</ele>
        <time>2013-04-14T12:01:10Z</time>
      </trkpt>
      <trkpt lat="59.8440839" lon="17.7406455">
        <ele>17.9218</ele>
        <time>2013-04-14T12:01:11Z</time>
      </trkpt>
      <trkpt lat="59.844123" lon="17.7406451">
        <ele>17.9218</ele>
        <time>2013-04-14T12:01:12Z</time>
      </trkpt>
      <trkpt lat="59.8441629" lon="17.7406448">
        <ele>17.9218</ele>
        <time>2013-04-14T12:01:13Z</time>
      </trkpt>
      <trkpt lat="59.8442038" lon="17.740643">
        <ele>17.9218</ele>
        <time>2013-04-14T12:01:14Z</time>
      </trkpt>
      <trkpt lat="59.8442465" lon="17.7406409">
        <ele>17.9218</ele>
        <time>2013-04-14T12:01:15Z</time>
      </trkpt>
      <trkpt lat="59.8442908" lon="17.7406391">
        <ele>18.4023</ele>
        <time>2013-04-14T12:01:16Z</time>
      </trkpt>
      <trkpt lat="59.8443378" lon="17.7406323">
        <ele>18.4023</ele>
        <time>2013-04-14T12:01:17Z</time>
      </trkpt>
      <trkpt lat="59.8443897" lon="17.7406203">
        <ele>17.9218</ele>
        <time>2013-04-14T12:01:18Z</time>
      </trkpt>
      <trkpt lat="59.8444451" lon="17.7406005">
        <ele>17.9218</ele>
        <time>2013-04-14T12:01:19Z</time>
      </trkpt>
      <trkpt lat="59.844502" lon="17.7405695">
        <ele>17.9218</ele>
        <time>2013-04-14T12:01:20Z</time>
      </trkpt>
      <trkpt lat="59.8445596" lon="17.740531">
        <ele>17.9218</ele>
        <time>2013-04-14T12:01:21Z</time>
      </trkpt>
      <trkpt lat="59.844617" lon="17.7404855">
        <ele>17.9218</ele>
        <time>2013-04-14T12:01:22Z</time>
      </trkpt>
      <trkpt lat="59.8446726" lon="17.7404313">
        <ele>17.4412</ele>
        <time>2013-04-14T12:01:23Z</time>
      </trkpt>
      <trkpt lat="59.8447264" lon="17.7403691">
        <ele>17.4412</ele>
        <time>2013-04-14T12:01:24Z</time>
      </trkpt>
      <trkpt lat="59.8447787" lon="17.7403019">
        <ele>17.4412</ele>
        <time>2013-04-14T12:01:25Z</time>
      </trkpt>
      <trkpt lat="59.8448317" lon="17.7402355">
        <ele>17.4412</ele>
        <time>2013-04-14T12:01:26Z</time>
      </trkpt>
      <trkpt lat="59.844887" lon="17.7401749">
        <ele>17.4412</ele>
        <time>2013-04-14T12:01:27Z</time>
      </trkpt>
      <trkpt lat="59.8449441" lon="17.7401203">
        <ele>17.4412</ele>
        <time>2013-04-14T12:01:28Z</time>
      </trkpt>
      <trkpt lat="59.8450024" lon="17.7400702">
        <ele>17.4412</ele>
        <time>2013-04-14T12:01:29Z</time>
      </trkpt>
      <trkpt lat="59.8450627" lon="17.7400282">
        <ele>17.4412</ele>
        <time>2013-04-14T12:01:30Z</time>
      </trkpt>
      <trkpt lat="59.8451248" lon="17.7399935">
        <ele>17.4412</ele>
        <time>2013-04-14T12:01:31Z</time>
      </trkpt>
      <trkpt lat="59.845187" lon="17.7399587">
        <ele>17.4412</ele>
        <time>2013-04-14T12:01:32Z</time>
      </trkpt>
      <trkpt lat="59.8452504" lon="17.7399241">
        <ele>17.4412</ele>
        <time>2013-04-14T12:01:33Z</time>
      </trkpt>
      <trkpt lat="59.8453149" lon="17.7398892">
        <ele>17.9218</ele>
        <time>2013-04-14T12:01:34Z</time>
      </trkpt>
      <trkpt lat="59.8453791" lon="17.7398562">
        <ele>17.9218</ele>
        <time>2013-04-14T12:01:35Z</time>
      </trkpt>
      <trkpt lat="59.8454428" lon="17.7398263">
        <ele>17.9218</ele>
        <time>2013-04-14T12:01:36Z</time>
      </trkpt>
      <trkpt lat="59.8455059" lon="17.7397971">
        <ele>17.9218</ele>
        <time>2013-04-14T12:01:37Z</time>
      </trkpt>
      <trkpt lat="59.8455692" lon="17.7397695">
        <ele>17.9218</ele>
        <time>2013-04-14T12:01:38Z</time>
      </trkpt>
      <trkpt lat="59.8456336" lon="17.7397422">
        <ele>17.9218</ele>
        <time>2013-04-14T12:01:39Z</time>
      </trkpt>
      <trkpt lat="59.8456982" lon="17.7397117">
        <ele>17.9218</ele>
        <time>2013-04-14T12:01:40Z</time>
      </trkpt>
      <trkpt lat="59.8457633" lon="17.7396807">
        <ele>17.9218</ele>
        <time>2013-04-14T12:01:41Z</time>
      </trkpt>
      <trkpt lat="59.8458299" lon="17.7396522">
        <ele>17.9218</ele>
        <time>2013-04-14T12:01:42Z</time>
      </trkpt>
      <trkpt lat="59.8458976" lon="17.7396235">
        <ele>17.9218</ele>
        <time>2013-04-14T12:01:43Z</time>
      </trkpt>
      <trkpt lat="59.845966" lon="17.739594">
        <ele>17.9218</ele>
        <time>2013-04-14T12:01:44Z</time>
      </trkpt>
      <trkpt lat="59.8460354" lon="17.739565">
        <ele>18.4023</ele>
        <time>2013-04-14T12:01:45Z</time>
      </trkpt>
      <trkpt lat="59.8461054" lon="17.7395371">
        <ele>18.4023</ele>
        <time>2013-04-14T12:01:46Z</time>
      </trkpt>
      <trkpt lat="59.8461763" lon="17.7395102">
        <ele>18.4023</ele>
        <time>2013-04-14T12:01:47Z</time>
      </trkpt>
      <trkpt lat="59.8462477" lon="17.7394836">
        <ele>18.4023</ele>
        <time>2013-04-14T12:01:48Z</time>
      </trkpt>
      <trkpt lat="59.8463199" lon="17.7394584">
        <ele>18.4023</ele>
        <time>2013-04-14T12:01:49Z</time>
      </trkpt>
      <trkpt lat="59.8463918" lon="17.739433">
        <ele>18.4023</ele>
        <time>2013-04-14T12:01:50Z</time>
      </trkpt>
      <trkpt lat="59.8464627" lon="17.7394065">
        <ele>18.4023</ele>
        <time>2013-04-14T12:01:51Z</time>
      </trkpt>
      <trkpt lat="59.8465332" lon="17.7393812">
        <ele>18.8831</ele>
        <time>2013-04-14T12:01:52Z</time>
      </trkpt>
      <trkpt lat="59.846604" lon="17.7393577">
        <ele>18.8831</ele>
        <time>2013-04-14T12:01:53Z</time>
      </trkpt>
      <trkpt lat="59.8466747" lon="17.7393323">
        <ele>18.8831</ele>
        <time>2013-04-14T12:01:54Z</time>
      </trkpt>
      <trkpt lat="59.8467455" lon="17.7393049">
        <ele>18.8831</ele>
        <time>2013-04-14T12:01:55Z</time>
      </trkpt>
      <trkpt lat="59.846816" lon="17.7392771">
        <ele>18.8831</ele>
        <time>2013-04-14T12:01:56Z</time>
      </trkpt>
      <trkpt lat="59.8468854" lon="17.7392502">
        <ele>18.8831</ele>
        <time>2013-04-14T12:01:57Z</time>
      </trkpt>
      <trkpt lat="59.8469534" lon="17.7392267">
        <ele>19.3638</ele>
        <time>2013-04-14T12:01:58Z</time>
      </trkpt>
      <trkpt lat="59.8470208" lon="17.739204">
        <ele>19.3638</ele>
        <time>2013-04-14T12:01:59Z</time>
      </trkpt>
      <trkpt lat="59.847088" lon="17.7391791">
        <ele>19.3638</ele>
        <time>2013-04-14T12:02:00Z</time>
      </trkpt>
      <trkpt lat="59.8471555" lon="17.7391533">
        <ele>19.3638</ele>
        <time>2013-04-14T12:02:01Z</time>
      </trkpt>
      <trkpt lat="59.8472233" lon="17.7391283">
        <ele>19.3638</ele>
        <time>2013-04-14T12:02:02Z</time>
      </trkpt>
      <trkpt lat="59.8472914" lon="17.7391034">
        <ele>19.3638</ele>
        <time>2013-04-14T12:02:03Z</time>
      </trkpt>
      <trkpt lat="59.8473595" lon="17.7390793">
        <ele>19.3638</ele>
        <time>2013-04-14T12:02:04Z</time>
      </trkpt>
      <trkpt lat="59.8474271" lon="17.7390549">
        <ele>19.3638</ele>
        <time>2013-04-14T12:02:05Z</time>
      </trkpt>
      <trkpt lat="59.8474924" lon="17.7390263">
        <ele>19.8444</ele>
        <time>2013-04-14T12:02:06Z</time>
      </trkpt>
      <trkpt lat="59.8475557" lon="17.7389983">
        <ele>19.8444</ele>
        <time>2013-04-14T12:02:07Z</time>
      </trkpt>
      <trkpt lat="59.8476178" lon="17.7389736">
        <ele>19.3638</ele>
        <time>2013-04-14T12:02:08Z</time>
      </trkpt>
      <trkpt lat="59.8476785" lon="17.7389528">
        <ele>19.3638</ele>
        <time>2013-04-14T12:02:09Z</time>
      </trkpt>
      <trkpt lat="59.8477386" lon="17.7389507">
        <ele>19.3638</ele>
        <time>2013-04-14T12:02:10Z</time>
      </trkpt>
      <trkpt lat="59.8477942" lon="17.7389846">
        <ele>19.8444</ele>
        <time>2013-04-14T12:02:11Z</time>
      </trkpt>
      <trkpt lat="59.8478384" lon="17.7390583">
        <ele>19.8444</ele>
        <time>2013-04-14T12:02:12Z</time>
      </trkpt>
      <trkpt lat="59.847865" lon="17.7391614">
        <ele>19.8444</ele>
        <time>2013-04-14T12:02:13Z</time>
      </trkpt>
      <trkpt lat="59.8478728" lon="17.7392803">
        <ele>19.8444</ele>
        <time>2013-04-14T12:02:14Z</time>
      </trkpt>
      <trkpt lat="59.8478698" lon="17.7394061">
        <ele>20.325</ele>
        <time>2013-04-14T12:02:15Z</time>
      </trkpt>
      <trkpt lat="59.8478633" lon="17.7395352">
        <ele>20.325</ele>
        <time>2013-04-14T12:02:16Z</time>
      </trkpt>
      <trkpt lat="59.8478577" lon="17.7396692">
        <ele>20.325</ele>
        <time>2013-04-14T12:02:17Z</time>
      </trkpt>
      <trkpt lat="59.8478547" lon="17.739808">
        <ele>20.325</ele>
        <time>2013-04-14T12:02:18Z</time>
      </trkpt>
      <trkpt lat="59.8478527" lon="17.73995">
        <ele>20.325</ele>
        <time>2013-04-14T12:02:19Z</time>
      </trkpt>
      <trkpt lat="59.8478508" lon="17.7400944">
        <ele>20.325</ele>
        <time>2013-04-14T12:02:20Z</time>
      </trkpt>
      <trkpt lat="59.8478486" lon="17.7402392">
        <ele>20.325</ele>
        <time>2013-04-14T12:02:21Z</time>
      </trkpt>
      <trkpt lat="59.8478464" lon="17.7403841">
        <ele>20.325</ele>
        <time>2013-04-14T12:02:22Z</time>
      </trkpt>
      <trkpt lat="59.8478447" lon="17.7405277">
        <ele>20.325</ele>
        <time>2013-04-14T12:02:23Z</time>
      </trkpt>
      <trkpt lat="59.8478433" lon="17.7406691">
        <ele>20.325</ele>
        <time>2013-04-14T12:02:24Z</time>
      </trkpt>
      <trkpt lat="59.8478406" lon="17.7408088">
        <ele>20.325</ele>
        <time>2013-04-14T12:02:25Z</time>
      </trkpt>
      <trkpt lat="59.8478376" lon="17.7409489">
        <ele>20.325</ele>
        <time>2013-04-14T12:02:26Z</time>
      </trkpt>
      <trkpt lat="59.8478355" lon="17.7410907">
        <ele>20.325</ele>
        <time>2013-04-14T12:02:27Z</time>
      </trkpt>
      <trkpt lat="59.8478341" lon="17.7412332">
        <ele>20.325</ele>
        <time>2013-04-14T12:02:28Z</time>
      </trkpt>
      <trkpt lat="59.847832" lon="17.7413764">
        <ele>20.325</ele>
        <time>2013-04-14T12:02:29Z</time>
      </trkpt>
      <trkpt lat="59.8478288" lon="17.7415197">
        <ele>20.325</ele>
        <time>2013-04-14T12:02:30Z</time>
      </trkpt>
      <trkpt lat="59.8478252" lon="17.7416632">
        <ele>20.325</ele>
        <time>2013-04-14T12:02:31Z</time>
      </trkpt>
      <trkpt lat="59.8478215" lon="17.7418066">
        <ele>20.325</ele>
        <time>2013-04-14T12:02:32Z</time>
      </trkpt>
      <trkpt lat="59.8478198" lon="17.7419501">
        <ele>20.8057</ele>
        <time>2013-04-14T12:02:33Z</time>
      </trkpt>
      <trkpt lat="59.8478183" lon="17.742092">
        <ele>20.8057</ele>
        <time>2013-04-14T12:02:34Z</time>
      </trkpt>
      <trkpt lat="59.8478158" lon="17.7422324">
        <ele>20.8057</ele>
        <time>2013-04-14T12:02:35Z</time>
      </trkpt>
      <trkpt lat="59.8478132" lon="17.7423717">
        <ele>20.8057</ele>
        <time>2013-04-14T12:02:36Z</time>
      </trkpt>
      <trkpt lat="59.8478111" lon="17.7425105">
        <ele>20.8057</ele>
        <time>2013-04-14T12:02:37Z</time>
      </trkpt>
      <trkpt lat="59.847809" lon="17.7426483">
        <ele>20.8057</ele>
        <time>2013-04-14T12:02:38Z</time>
      </trkpt>
      <trkpt lat="59.8478069" lon="17.7427833">
        <ele>20.8057</ele>
        <time>2013-04-14T12:02:39Z</time>
      </trkpt>
      <trkpt lat="59.847805" lon="17.7429147">
        <ele>20.8057</ele>
        <time>2013-04-14T12:02:40Z</time>
      </trkpt>
      <trkpt lat="59.8478028" lon="17.7430449">
        <ele>20.8057</ele>
        <time>2013-04-14T12:02:41Z</time>
      </trkpt>
      <trkpt lat="59.8478004" lon="17.7431751">
        <ele>20.8057</ele>
        <time>2013-04-14T12:02:42Z</time>
      </trkpt>
      <trkpt lat="59.8477982" lon="17.7433073">
        <ele>20.8057</ele>
        <time>2013-04-14T12:02:43Z</time>
      </trkpt>
      <trkpt lat="59.8477952" lon="17.7434415">
        <ele>20.8057</ele>
        <time>2013-04-14T12:02:44Z</time>
      </trkpt>
      <trkpt lat="59.8477928" lon="17.7435765">
        <ele>20.8057</ele>
        <time>2013-04-14T12:02:45Z</time>
      </trkpt>
      <trkpt lat="59.847791" lon="17.7437123">
        <ele>20.8057</ele>
        <time>2013-04-14T12:02:46Z</time>
      </trkpt>
      <trkpt lat="59.8477884" lon="17.7438491">
        <ele>20.8057</ele>
        <time>2013-04-14T12:02:47Z</time>
      </trkpt>
      <trkpt lat="59.8477858" lon="17.7439869">
        <ele>20.8057</ele>
        <time>2013-04-14T12:02:48Z</time>
      </trkpt>
      <trkpt lat="59.8477826" lon="17.7441258">
        <ele>20.8057</ele>
        <time>2013-04-14T12:02:49Z</time>
      </trkpt>
      <trkpt lat="59.8477789" lon="17.7442656">
        <ele>20.325</ele>
        <time>2013-04-14T12:02:50Z</time>
      </trkpt>
      <trkpt lat="59.8477759" lon="17.7444061">
        <ele>20.325</ele>
        <time>2013-04-14T12:02:51Z</time>
      </trkpt>
      <trkpt lat="59.8477711" lon="17.7445468">
        <ele>19.8444</ele>
        <time>2013-04-14T12:02:52Z</time>
      </trkpt>
      <trkpt lat="59.8477652" lon="17.7446875">
        <ele>19.8444</ele>
        <time>2013-04-14T12:02:53Z</time>
      </trkpt>
      <trkpt lat="59.8477614" lon="17.7448276">
        <ele>19.3638</ele>
        <time>2013-04-14T12:02:54Z</time>
      </trkpt>
      <trkpt lat="59.8477588" lon="17.7449664">
        <ele>19.3638</ele>
        <time>2013-04-14T12:02:55Z</time>
      </trkpt>
      <trkpt lat="59.8477561" lon="17.7451035">
        <ele>18.8831</ele>
        <time>2013-04-14T12:02:56Z</time>
      </trkpt>
      <trkpt lat="59.8477527" lon="17.7452379">
        <ele>18.8831</ele>
        <time>2013-04-14T12:02:57Z</time>
      </trkpt>
      <trkpt lat="59.847749" lon="17.7453705">
        <ele>18.4023</ele>
        <time>2013-04-14T12:02:58Z</time>
      </trkpt>
      <trkpt lat="59.8477449" lon="17.745501">
        <ele>18.4023</ele>
        <time>2013-04-14T12:02:59Z</time>
      </trkpt>
      <trkpt lat="59.8477422" lon="17.7456301">
        <ele>18.4023</ele>
        <time>2013-04-14T12:03:00Z</time>
      </trkpt>
      <trkpt lat="59.8477401" lon="17.7457594">
        <ele>18.4023</ele>
        <time>2013-04-14T12:03:01Z</time>
      </trkpt>
      <trkpt lat="59.8477372" lon="17.7458885">
        <ele>18.4023</ele>
        <time>2013-04-14T12:03:02Z</time>
      </trkpt>
      <trkpt lat="59.8477355" lon="17.746018">
        <ele>18.4023</ele>
        <time>2013-04-14T12:03:03Z</time>
      </trkpt>
      <trkpt lat="59.8477339" lon="17.7461473">
        <ele>18.4023</ele>
        <time>2013-04-14T12:03:04Z</time>
      </trkpt>
      <trkpt lat="59.8477317" lon="17.7462749">
        <ele>18.4023</ele>
        <time>2013-04-14T12:03:05Z</time>
      </trkpt>
      <trkpt lat="59.84773" lon="17.7464012">
        <ele>18.4023</ele>
        <time>2013-04-14T12:03:06Z</time>
      </trkpt>
      <trkpt lat="59.8477279" lon="17.7465255">
        <ele>18.4023</ele>
        <time>2013-04-14T12:03:07Z</time>
      </trkpt>
      <trkpt lat="59.8477262" lon="17.7466467">
        <ele>18.4023</ele>
        <time>2013-04-14T12:03:08Z</time>
      </trkpt>
      <trkpt lat="59.8477231" lon="17.7467646">
        <ele>18.4023</ele>
        <time>2013-04-14T12:03:09Z</time>
      </trkpt>
      <trkpt lat="59.8477174" lon="17.7468805">
        <ele>18.4023</ele>
        <time>2013-04-14T12:03:10Z</time>
      </trkpt>
      <trkpt lat="59.8477116" lon="17.7469961">
        <ele>18.4023</ele>
        <time>2013-04-14T12:03:11Z</time>
      </trkpt>
      <trkpt lat="59.8477068" lon="17.7471116">
        <ele>18.4023</ele>
        <time>2013-04-14T12:03:12Z</time>
      </trkpt>
      <trkpt lat="59.847703" lon="17.7472268">
        <ele>18.8831</ele>
        <time>2013-04-14T12:03:13Z</time>
      </trkpt>
      <trkpt lat="59.8477008" lon="17.747343">
        <ele>18.8831</ele>
        <time>2013-04-14T12:03:14Z</time>
      </trkpt>
      <trkpt lat="59.8477001" lon="17.7474602">
        <ele>18.8831</ele>
        <time>2013-04-14T12:03:15Z</time>
      </trkpt>
      <trkpt lat="59.8476998" lon="17.7475776">
        <ele>18.8831</ele>
        <time>2013-04-14T12:03:16Z</time>
      </trkpt>
      <trkpt lat="59.8476998" lon="17.7476958">
        <ele>18.8831</ele>
        <time>2013-04-14T12:03:17Z</time>
      </trkpt>
      <trkpt lat="59.8476999" lon="17.7478158">
        <ele>18.8831</ele>
        <time>2013-04-14T12:03:18Z</time>
      </trkpt>
      <trkpt lat="59.8476999" lon="17.7479386">
        <ele>19.3638</ele>
        <time>2013-04-14T12:03:19Z</time>
      </trkpt>
      <trkpt lat="59.8477004" lon="17.7480647">
        <ele>19.3638</ele>
        <time>2013-04-14T12:03:20Z</time>
      </trkpt>
      <trkpt lat="59.8477012" lon="17.7481919">
        <ele>19.3638</ele>
        <time>2013-04-14T12:03:21Z</time>
      </trkpt>
      <trkpt lat="59.8477019" lon="17.748319">
        <ele>19.3638</ele>
        <time>2013-04-14T12:03:22Z</time>
      </trkpt>
      <trkpt lat="59.8477043" lon="17.7484467">
        <ele>19.3638</ele>
        <time>2013-04-14T12:03:23Z</time>
      </trkpt>
      <trkpt lat="59.8477072" lon="17.7485755">
        <ele>19.3638</ele>
        <time>2013-04-14T12:03:24Z</time>
      </trkpt>
      <trkpt lat="59.8477095" lon="17.7487057">
        <ele>19.3638</ele>
        <time>2013-04-14T12:03:25Z</time>
      </trkpt>
      <trkpt lat="59.8477127" lon="17.748835">
        <ele>19.3638</ele>
        <time>2013-04-14T12:03:26Z</time>
      </trkpt>
      <trkpt lat="59.8477169" lon="17.7489622">
        <ele>19.3638</ele>
        <time>2013-04-14T12:03:27Z</time>
      </trkpt>
      <trkpt lat="59.8477226" lon="17.7490862">
        <ele>19.3638</ele>
        <time>2013-04-14T12:03:28Z</time>
      </trkpt>
      <trkpt lat="59.8477288" lon="17.7492065">
        <ele>19.3638</ele>
        <time>2013-04-14T12:03:29Z</time>
      </trkpt>
      <trkpt lat="59.8477335" lon="17.7493229">
        <ele>19.3638</ele>
        <time>2013-04-14T12:03:30Z</time>
      </trkpt>
      <trkpt lat="59.8477366" lon="17.7494349">
        <ele>18.8831</ele>
        <time>2013-04-14T12:03:31Z</time>
      </trkpt>
      <trkpt lat="59.8477412" lon="17.749543">
        <ele>18.8831</ele>
        <time>2013-04-14T12:03:32Z</time>
      </trkpt>
      <trkpt lat="59.8477472" lon="17.7496468">
        <ele>18.8831</ele>
        <time>2013-04-14T12:03:33Z</time>
      </trkpt>
      <trkpt lat="59.8477526" lon="17.7497471">
        <ele>19.3638</ele>
        <time>2013-04-14T12:03:34Z</time>
      </trkpt>
      <trkpt lat="59.8477568" lon="17.7498445">
        <ele>19.3638</ele>
        <time>2013-04-14T12:03:35Z</time>
      </trkpt>
      <trkpt lat="59.8477603" lon="17.74994">
        <ele>19.3638</ele>
        <time>2013-04-14T12:03:36Z</time>
      </trkpt>
      <trkpt lat="59.8477661" lon="17.7500339">
        <ele>19.8444</ele>
        <time>2013-04-14T12:03:37Z</time>
      </trkpt>
      <trkpt lat="59.8477744" lon="17.75013">
        <ele>19.8444</ele>
        <time>2013-04-14T12:03:38Z</time>
      </trkpt>
      <trkpt lat="59.8477837" lon="17.7502302">
        <ele>19.8444</ele>
        <time>2013-04-14T12:03:39Z</time>
      </trkpt>
      <trkpt lat="59.8477923" lon="17.7503364">
        <ele>20.325</ele>
        <time>2013-04-14T12:03:40Z</time>
      </trkpt>
      <trkpt lat="59.8477991" lon="17.7504471">
        <ele>20.325</ele>
        <time>2013-04-14T12:03:41Z</time>
      </trkpt>
      <trkpt lat="59.8478048" lon="17.7505625">
        <ele>20.325</ele>
        <time>2013-04-14T12:03:42Z</time>
      </trkpt>
      <trkpt lat="59.8478132" lon="17.7506809">
        <ele>20.8057</ele>
        <time>2013-04-14T12:03:43Z</time>
      </trkpt>
      <trkpt lat="59.8478241" lon="17.7508024">
        <ele>20.8057</ele>
        <time>2013-04-14T12:03:44Z</time>
      </trkpt>
      <trkpt lat="59.847836" lon="17.7509268">
        <ele>20.8057</ele>
        <time>2013-04-14T12:03:45Z</time>
      </trkpt>
      <trkpt lat="59.8478485" lon="17.7510546">
        <ele>20.8057</ele>
        <time>2013-04-14T12:03:46Z</time>
      </trkpt>
      <trkpt lat="59.8478608" lon="17.7511851">
        <ele>20.8057</ele>
        <time>2013-04-14T12:03:47Z</time>
      </trkpt>
      <trkpt lat="59.8478744" lon="17.7513182">
        <ele>20.8057</ele>
        <time>2013-04-14T12:03:48Z</time>
      </trkpt>
      <trkpt lat="59.8478904" lon="17.751453">
        <ele>20.8057</ele>
        <time>2013-04-14T12:03:49Z</time>
      </trkpt>
      <trkpt lat="59.847908" lon="17.7515905">
        <ele>20.8057</ele>
        <time>2013-04-14T12:03:50Z</time>
      </trkpt>
      <trkpt lat="59.8479266" lon="17.7517305">
        <ele>20.8057</ele>
        <time>2013-04-14T12:03:51Z</time>
      </trkpt>
      <trkpt lat="59.8479457" lon="17.7518736">
        <ele>20.8057</ele>
        <time>2013-04-14T12:03:52Z</time>
      </trkpt>
      <trkpt lat="59.8479659" lon="17.7520192">
        <ele>20.8057</ele>
        <time>2013-04-14T12:03:53Z</time>
      </trkpt>
      <trkpt lat="59.8479873" lon="17.7521682">
        <ele>20.8057</ele>
        <time>2013-04-14T12:03:54Z</time>
      </trkpt>
      <trkpt lat="59.8480105" lon="17.7523217">
        <ele>20.325</ele>
        <time>2013-04-14T12:03:55Z</time>
      </trkpt>
      <trkpt lat="59.8480345" lon="17.7524808">
        <ele>20.325</ele>
        <time>2013-04-14T12:03:56Z</time>
      </trkpt>
      <trkpt lat="59.8480577" lon="17.7526465">
        <ele>19.8444</ele>
        <time>2013-04-14T12:03:57Z</time>
      </trkpt>
      <trkpt lat="59.8480805" lon="17.7528183">
        <ele>19.8444</ele>
        <time>2013-04-14T12:03:58Z</time>
      </trkpt>
      <trkpt lat="59.8481037" lon="17.7529956">
        <ele>19.3638</ele>
        <time>2013-04-14T12:03:59Z</time>
      </trkpt>
      <trkpt lat="59.8481266" lon="17.7531779">
        <ele>19.3638</ele>
        <time>2013-04-14T12:04:00Z</time>
      </trkpt>
      <trkpt lat="59.84815" lon="17.7533624">
        <ele>18.8831</ele>
        <time>2013-04-14T12:04:01Z</time>
      </trkpt>
      <trkpt lat="59.8481738" lon="17.7535474">
        <ele>18.8831</ele>
        <time>2013-04-14T12:04:02Z</time>
      </trkpt>
      <trkpt lat="59.8481971" lon="17.7537318">
        <ele>18.4023</ele>
        <time>2013-04-14T12:04:03Z</time>
      </trkpt>
      <trkpt lat="59.8482195" lon="17.7539151">
        <ele>18.4023</ele>
        <time>2013-04-14T12:04:04Z</time>
      </trkpt>
      <trkpt lat="59.8482416" lon="17.7540964">
        <ele>18.4023</ele>
        <time>2013-04-14T12:04:05Z</time>
      </trkpt>
      <trkpt lat="59.8482629" lon="17.7542752">
        <ele>18.4023</ele>
        <time>2013-04-14T12:04:06Z</time>
      </trkpt>
      <trkpt lat="59.8482845" lon="17.7544505">
        <ele>18.4023</ele>
        <time>2013-04-14T12:04:07Z</time>
      </trkpt>
      <trkpt lat="59.8483054" lon="17.7546233">
        <ele>17.9218</ele>
        <time>2013-04-14T12:04:08Z</time>
      </trkpt>
      <trkpt lat="59.8483253" lon="17.7547961">
        <ele>17.9218</ele>
        <time>2013-04-14T12:04:09Z</time>
      </trkpt>
      <trkpt lat="59.848344" lon="17.7549691">
        <ele>17.9218</ele>
        <time>2013-04-14T12:04:10Z</time>
      </trkpt>
      <trkpt lat="59.8483618" lon="17.7551426">
        <ele>17.9218</ele>
        <time>2013-04-14T12:04:11Z</time>
      </trkpt>
      <trkpt lat="59.8483789" lon="17.7553167">
        <ele>17.9218</ele>
        <time>2013-04-14T12:04:12Z</time>
      </trkpt>
      <trkpt lat="59.8483958" lon="17.7554902">
        <ele>17.9218</ele>
        <time>2013-04-14T12:04:13Z</time>
      </trkpt>
      <trkpt lat="59.8484115" lon="17.7556626">
        <ele>17.9218</ele>
        <time>2013-04-14T12:04:14Z</time>
      </trkpt>
      <trkpt lat="59.8484248" lon="17.7558344">
        <ele>17.9218</ele>
        <time>2013-04-14T12:04:15Z</time>
      </trkpt>
      <trkpt lat="59.8484364" lon="17.7560057">
        <ele>17.9218</ele>
        <time>2013-04-14T12:04:16Z</time>
      </trkpt>
      <trkpt lat="59.8484469" lon="17.7561767">
        <ele>17.9218</ele>
        <time>2013-04-14T12:04:17Z</time>
      </trkpt>
      <trkpt lat="59.8484562" lon="17.7563471">
        <ele>17.9218</ele>
        <time>2013-04-14T12:04:18Z</time>
      </trkpt>
      <trkpt lat="59.8484637" lon="17.7565165">
        <ele>17.9218</ele>
        <time>2013-04-14T12:04:19Z</time>
      </trkpt>
      <trkpt lat="59.8484705" lon="17.7566848">
        <ele>17.9218</ele>
        <time>2013-04-14T12:04:20Z</time>
      </trkpt>
      <trkpt lat="59.8484769" lon="17.7568511">
        <ele>17.9218</ele>
        <time>2013-04-14T12:04:21Z</time>
      </trkpt>
      <trkpt lat="59.8484811" lon="17.7570149">
        <ele>17.9218</ele>
        <time>2013-04-14T12:04:22Z</time>
      </trkpt>
      <trkpt lat="59.8484826" lon="17.7571764">
        <ele>17.9218</ele>
        <time>2013-04-14T12:04:23Z</time>
      </trkpt>
      <trkpt lat="59.8484821" lon="17.7573364">
        <ele>17.9218</ele>
        <time>2013-04-14T12:04:24Z</time>
      </trkpt>
      <trkpt lat="59.8484794" lon="17.7574939">
        <ele>17.9218</ele>
        <time>2013-04-14T12:04:25Z</time>
      </trkpt>
      <trkpt lat="59.8484767" lon="17.7576494">
        <ele>17.9218</ele>
        <time>2013-04-14T12:04:26Z</time>
      </trkpt>
      <trkpt lat="59.8484747" lon="17.7578043">
        <ele>17.9218</ele>
        <time>2013-04-14T12:04:27Z</time>
      </trkpt>
      <trkpt lat="59.8484722" lon="17.7579586">
        <ele>17.9218</ele>
        <time>2013-04-14T12:04:28Z</time>
      </trkpt>
      <trkpt lat="59.8484694" lon="17.7581126">
        <ele>17.4412</ele>
        <time>2013-04-14T12:04:29Z</time>
      </trkpt>
      <trkpt lat="59.8484666" lon="17.7582669">
        <ele>17.4412</ele>
        <time>2013-04-14T12:04:30Z</time>
      </trkpt>
      <trkpt lat="59.8484638" lon="17.7584222">
        <ele>17.4412</ele>
        <time>2013-04-14T12:04:31Z</time>
      </trkpt>
      <trkpt lat="59.8484597" lon="17.7585782">
        <ele>16.9604</ele>
        <time>2013-04-14T12:04:32Z</time>
      </trkpt>
      <trkpt lat="59.848455" lon="17.7587361">
        <ele>16.9604</ele>
        <time>2013-04-14T12:04:33Z</time>
      </trkpt>
      <trkpt lat="59.8484499" lon="17.7588952">
        <ele>16.4797</ele>
        <time>2013-04-14T12:04:34Z</time>
      </trkpt>
      <trkpt lat="59.8484457" lon="17.7590554">
        <ele>16.4797</ele>
        <time>2013-04-14T12:04:35Z</time>
      </trkpt>
      <trkpt lat="59.8484409" lon="17.7592165">
        <ele>15.999</ele>
        <time>2013-04-14T12:04:36Z</time>
      </trkpt>
      <trkpt lat="59.8484349" lon="17.7593781">
        <ele>15.999</ele>
        <time>2013-04-14T12:04:37Z</time>
      </trkpt>
      <trkpt lat="59.8484293" lon="17.7595401">
        <ele>15.999</ele>
        <time>2013-04-14T12:04:38Z</time>
      </trkpt>
      <trkpt lat="59.8484256" lon="17.7597024">
        <ele>15.999</ele>
        <time>2013-04-14T12:04:39Z</time>
      </trkpt>
      <trkpt lat="59.8484229" lon="17.7598665">
        <ele>15.999</ele>
        <time>2013-04-14T12:04:40Z</time>
      </trkpt>
      <trkpt lat="59.8484207" lon="17.7600331">
        <ele>15.999</ele>
        <time>2013-04-14T12:04:41Z</time>
      </trkpt>
      <trkpt lat="59.8484179" lon="17.7602011">
        <ele>15.999</ele>
        <time>2013-04-14T12:04:42Z</time>
      </trkpt>
      <trkpt lat="59.8484139" lon="17.7603689">
        <ele>15.5184</ele>
        <time>2013-04-14T12:04:43Z</time>
      </trkpt>
      <trkpt lat="59.8484089" lon="17.7605352">
        <ele>15.5184</ele>
        <time>2013-04-14T12:04:44Z</time>
      </trkpt>
      <trkpt lat="59.8484041" lon="17.7606989">
        <ele>15.5184</ele>
        <time>2013-04-14T12:04:45Z</time>
      </trkpt>
      <trkpt lat="59.8483996" lon="17.7608585">
        <ele>15.5184</ele>
        <time>2013-04-14T12:04:46Z</time>
      </trkpt>
      <trkpt lat="59.8483944" lon="17.7610133">
        <ele>15.5184</ele>
        <time>2013-04-14T12:04:47Z</time>
      </trkpt>
      <trkpt lat="59.8483891" lon="17.7611639">
        <ele>15.5184</ele>
        <time>2013-04-14T12:04:48Z</time>
      </trkpt>
      <trkpt lat="59.848384" lon="17.7613133">
        <ele>15.5184</ele>
        <time>2013-04-14T12:04:49Z</time>
      </trkpt>
      <trkpt lat="59.848379" lon="17.7614621">
        <ele>15.0377</ele>
        <time>2013-04-14T12:04:50Z</time>
      </trkpt>
      <trkpt lat="59.8483727" lon="17.7616112">
        <ele>15.0377</ele>
        <time>2013-04-14T12:04:51Z</time>
      </trkpt>
      <trkpt lat="59.848366" lon="17.7617598">
        <ele>15.0377</ele>
        <time>2013-04-14T12:04:52Z</time>
      </trkpt>
      <trkpt lat="59.8483618" lon="17.7619086">
        <ele>15.0377</ele>
        <time>2013-04-14T12:04:53Z</time>
      </trkpt>
      <trkpt lat="59.848359" lon="17.7620576">
        <ele>15.0377</ele>
        <time>2013-04-14T12:04:54Z</time>
      </trkpt>
      <trkpt lat="59.8483556" lon="17.7622059">
        <ele>15.0377</ele>
        <time>2013-04-14T12:04:55Z</time>
      </trkpt>
      <trkpt lat="59.8483516" lon="17.7623533">
        <ele>15.0377</ele>
        <time>2013-04-14T12:04:56Z</time>
      </trkpt>
      <trkpt lat="59.8483471" lon="17.762499">
        <ele>15.0377</ele>
        <time>2013-04-14T12:04:57Z</time>
      </trkpt>
      <trkpt lat="59.8483412" lon="17.7626436">
        <ele>15.0377</ele>
        <time>2013-04-14T12:04:58Z</time>
      </trkpt>
      <trkpt lat="59.848331" lon="17.7627869">
        <ele>14.557</ele>
        <time>2013-04-14T12:04:59Z</time>
      </trkpt>
      <trkpt lat="59.84831" lon="17.7629248">
        <ele>14.557</ele>
        <time>2013-04-14T12:05:00Z</time>
      </trkpt>
      <trkpt lat="59.8482749" lon="17.7630511">
        <ele>14.0764</ele>
        <time>2013-04-14T12:05:01Z</time>
      </trkpt>
      <trkpt lat="59.8482287" lon="17.7631634">
        <ele>14.0764</ele>
        <time>2013-04-14T12:05:02Z</time>
      </trkpt>
      <trkpt lat="59.8481787" lon="17.7632667">
        <ele>14.0764</ele>
        <time>2013-04-14T12:05:03Z</time>
      </trkpt>
      <trkpt lat="59.8481277" lon="17.7633678">
        <ele>14.0764</ele>
        <time>2013-04-14T12:05:04Z</time>
      </trkpt>
      <trkpt lat="59.8480768" lon="17.7634702">
        <ele>13.5958</ele>
        <time>2013-04-14T12:05:05Z</time>
      </trkpt>
      <trkpt lat="59.8480256" lon="17.7635745">
        <ele>13.5958</ele>
        <time>2013-04-14T12:05:06Z</time>
      </trkpt>
      <trkpt lat="59.8479743" lon="17.76368">
        <ele>13.5958</ele>
        <time>2013-04-14T12:05:07Z</time>
      </trkpt>
      <trkpt lat="59.847923" lon="17.7637867">
        <ele>13.1151</ele>
        <time>2013-04-14T12:05:08Z</time>
      </trkpt>
      <trkpt lat="59.8478723" lon="17.7638945">
        <ele>13.1151</ele>
        <time>2013-04-14T12:05:09Z</time>
      </trkpt>
      <trkpt lat="59.8478224" lon="17.7640012">
        <ele>13.1151</ele>
        <time>2013-04-14T12:05:10Z</time>
      </trkpt>
      <trkpt lat="59.8477723" lon="17.7641064">
        <ele>13.1151</ele>
        <time>2013-04-14T12:05:11Z</time>
      </trkpt>
      <trkpt lat="59.8477216" lon="17.7642096">
        <ele>13.1151</ele>
        <time>2013-04-14T12:05:12Z</time>
      </trkpt>
      <trkpt lat="59.8476708" lon="17.7643098">
        <ele>13.1151</ele>
        <time>2013-04-14T12:05:13Z</time>
      </trkpt>
      <trkpt lat="59.8476212" lon="17.7644108">
        <ele>12.6344</ele>
        <time>2013-04-14T12:05:14Z</time>
      </trkpt>
      <trkpt lat="59.8475732" lon="17.7645154">
        <ele>12.6344</ele>
        <time>2013-04-14T12:05:15Z</time>
      </trkpt>
      <trkpt lat="59.8475257" lon="17.7646204">
        <ele>12.6344</ele>
        <time>2013-04-14T12:05:16Z</time>
      </trkpt>
      <trkpt lat="59.8474787" lon="17.7647257">
        <ele>12.6344</ele>
        <time>2013-04-14T12:05:17Z</time>
      </trkpt>
      <trkpt lat="59.8474315" lon="17.7648302">
        <ele>12.6344</ele>
        <time>2013-04-14T12:05:18Z</time>
      </trkpt>
      <trkpt lat="59.8473828" lon="17.7649325">
        <ele>12.6344</ele>
        <time>2013-04-14T12:05:19Z</time>
      </trkpt>
      <trkpt lat="59.8473331" lon="17.7650331">
        <ele>12.6344</ele>
        <time>2013-04-14T12:05:20Z</time>
      </trkpt>
      <trkpt lat="59.8472853" lon="17.7651361">
        <ele>12.1538</ele>
        <time>2013-04-14T12:05:21Z</time>
      </trkpt>
      <trkpt lat="59.8472418" lon="17.7652475">
        <ele>12.1538</ele>
        <time>2013-04-14T12:05:22Z</time>
      </trkpt>
      <trkpt lat="59.8472111" lon="17.7653722">
        <ele>12.1538</ele>
        <time>2013-04-14T12:05:23Z</time>
      </trkpt>
      <trkpt lat="59.8472002" lon="17.7655097">
        <ele>12.1538</ele>
        <time>2013-04-14T12:05:24Z</time>
      </trkpt>
      <trkpt lat="59.8472088" lon="17.7656516">
        <ele>12.1538</ele>
        <time>2013-04-14T12:05:25Z</time>
      </trkpt>
      <trkpt lat="59.8472294" lon="17.7657909">
        <ele>12.1538</ele>
        <time>2013-04-14T12:05:26Z</time>
      </trkpt>
      <trkpt lat="59.8472528" lon="17.7659291">
        <ele>12.6344</ele>
        <time>2013-04-14T12:05:27Z</time>
      </trkpt>
      <trkpt lat="59.8472767" lon="17.7660681">
        <ele>12.6344</ele>
        <time>2013-04-14T12:05:28Z</time>
      </trkpt>
      <trkpt lat="59.847301" lon="17.7662064">
        <ele>12.6344</ele>
        <time>2013-04-14T12:05:29Z</time>
      </trkpt>
      <trkpt lat="59.8473236" lon="17.766342">
        <ele>13.1151</ele>
        <time>2013-04-14T12:05:30Z</time>
      </trkpt>
      <trkpt lat="59.8473435" lon="17.7664742">
        <ele>13.1151</ele>
        <time>2013-04-14T12:05:31Z</time>
      </trkpt>
      <trkpt lat="59.8473624" lon="17.7666048">
        <ele>13.1151</ele>
        <time>2013-04-14T12:05:32Z</time>
      </trkpt>
      <trkpt lat="59.8473816" lon="17.7667364">
        <ele>13.1151</ele>
        <time>2013-04-14T12:05:33Z</time>
      </trkpt>
      <trkpt lat="59.8474025" lon="17.7668713">
        <ele>13.1151</ele>
        <time>2013-04-14T12:05:34Z</time>
      </trkpt>
      <trkpt lat="59.8474254" lon="17.7670091">
        <ele>13.1151</ele>
        <time>2013-04-14T12:05:35Z</time>
      </trkpt>
      <trkpt lat="59.8474507" lon="17.7671488">
        <ele>13.1151</ele>
        <time>2013-04-14T12:05:36Z</time>
      </trkpt>
      <trkpt lat="59.847477" lon="17.7672925">
        <ele>13.1151</ele>
        <time>2013-04-14T12:05:37Z</time>
      </trkpt>
      <trkpt lat="59.8475018" lon="17.7674398">
        <ele>13.1151</ele>
        <time>2013-04-14T12:05:38Z</time>
      </trkpt>
      <trkpt lat="59.8475259" lon="17.7675899">
        <ele>13.1151</ele>
        <time>2013-04-14T12:05:39Z</time>
      </trkpt>
      <trkpt lat="59.8475511" lon="17.7677413">
        <ele>13.1151</ele>
        <time>2013-04-14T12:05:40Z</time>
      </trkpt>
      <trkpt lat="59.8475768" lon="17.7678936">
        <ele>13.1151</ele>
        <time>2013-04-14T12:05:41Z</time>
      </trkpt>
      <trkpt lat="59.8476013" lon="17.7680488">
        <ele>13.1151</ele>
        <time>2013-04-14T12:05:42Z</time>
      </trkpt>
      <trkpt lat="59.8476258" lon="17.7682043">
        <ele>13.1151</ele>
        <time>2013-04-14T12:05:43Z</time>
      </trkpt>
      <trkpt lat="59.8476497" lon="17.7683604">
        <ele>13.1151</ele>
        <time>2013-04-14T12:05:44Z</time>
      </trkpt>
      <trkpt lat="59.8476732" lon="17.7685172">
        <ele>13.1151</ele>
        <time>2013-04-14T12:05:45Z</time>
      </trkpt>
      <trkpt lat="59.8476965" lon="17.7686742">
        <ele>13.1151</ele>
        <time>2013-04-14T12:05:46Z</time>
      </trkpt>
      <trkpt lat="59.8477205" lon="17.7688312">
        <ele>13.1151</ele>
        <time>2013-04-14T12:05:47Z</time>
      </trkpt>
      <trkpt lat="59.8477443" lon="17.76899">
        <ele>13.1151</ele>
        <time>2013-04-14T12:05:48Z</time>
      </trkpt>
      <trkpt lat="59.8477661" lon="17.7691506">
        <ele>13.1151</ele>
        <time>2013-04-14T12:05:49Z</time>
      </trkpt>
      <trkpt lat="59.8477878" lon="17.7693108">
        <ele>13.1151</ele>
        <time>2013-04-14T12:05:50Z</time>
      </trkpt>
      <trkpt lat="59.8478127" lon="17.7694693">
        <ele>13.1151</ele>
        <time>2013-04-14T12:05:51Z</time>
      </trkpt>
      <trkpt lat="59.8478421" lon="17.7696225">
        <ele>13.5958</ele>
        <time>2013-04-14T12:05:52Z</time>
      </trkpt>
      <trkpt lat="59.8478769" lon="17.7697698">
        <ele>13.1151</ele>
        <time>2013-04-14T12:05:53Z</time>
      </trkpt>
      <trkpt lat="59.8479163" lon="17.7699167">
        <ele>13.1151</ele>
        <time>2013-04-14T12:05:54Z</time>
      </trkpt>
      <trkpt lat="59.8479589" lon="17.7700599">
        <ele>13.1151</ele>
        <time>2013-04-14T12:05:55Z</time>
      </trkpt>
      <trkpt lat="59.8480008" lon="17.7702032">
        <ele>13.1151</ele>
        <time>2013-04-14T12:05:56Z</time>
      </trkpt>
      <trkpt lat="59.8480371" lon="17.7703525">
        <ele>13.1151</ele>
        <time>2013-04-14T12:05:57Z</time>
      </trkpt>
      <trkpt lat="59.8480623" lon="17.7705112">
        <ele>13.1151</ele>
        <time>2013-04-14T12:05:58Z</time>
      </trkpt>
      <trkpt lat="59.8480783" lon="17.7706756">
        <ele>13.1151</ele>
        <time>2013-04-14T12:05:59Z</time>
      </trkpt>
      <trkpt lat="59.8480904" lon="17.770841">
        <ele>13.1151</ele>
        <time>2013-04-14T12:06:00Z</time>
      </trkpt>
      <trkpt lat="59.8481048" lon="17.7710061">
        <ele>13.5958</ele>
        <time>2013-04-14T12:06:01Z</time>
      </trkpt>
      <trkpt lat="59.8481247" lon="17.7711694">
        <ele>13.5958</ele>
        <time>2013-04-14T12:06:02Z</time>
      </trkpt>
      <trkpt lat="59.8481497" lon="17.77133">
        <ele>14.0764</ele>
        <time>2013-04-14T12:06:03Z</time>
      </trkpt>
      <trkpt lat="59.848176" lon="17.771489">
        <ele>14.0764</ele>
        <time>2013-04-14T12:06:04Z</time>
      </trkpt>
      <trkpt lat="59.8482034" lon="17.7716455">
        <ele>14.557</ele>
        <time>2013-04-14T12:06:05Z</time>
      </trkpt>
      <trkpt lat="59.8482318" lon="17.7718003">
        <ele>14.557</ele>
        <time>2013-04-14T12:06:06Z</time>
      </trkpt>
      <trkpt lat="59.8482599" lon="17.7719542">
        <ele>15.0377</ele>
        <time>2013-04-14T12:06:07Z</time>
      </trkpt>
      <trkpt lat="59.8482882" lon="17.7721069">
        <ele>15.0377</ele>
        <time>2013-04-14T12:06:08Z</time>
      </trkpt>
      <trkpt lat="59.8483163" lon="17.7722566">
        <ele>15.5184</ele>
        <time>2013-04-14T12:06:09Z</time>
      </trkpt>
      <trkpt lat="59.8483437" lon="17.7724034">
        <ele>15.999</ele>
        <time>2013-04-14T12:06:10Z</time>
      </trkpt>
      <trkpt lat="59.8483696" lon="17.7725482">
        <ele>15.999</ele>
        <time>2013-04-14T12:06:11Z</time>
      </trkpt>
      <trkpt lat="59.8483934" lon="17.7726898">
        <ele>16.4797</ele>
        <time>2013-04-14T12:06:12Z</time>
      </trkpt>
      <trkpt lat="59.8484148" lon="17.7728266">
        <ele>16.9604</ele>
        <time>2013-04-14T12:06:13Z</time>
      </trkpt>
      <trkpt lat="59.8484344" lon="17.7729566">
        <ele>17.4412</ele>
        <time>2013-04-14T12:06:14Z</time>
      </trkpt>
      <trkpt lat="59.8484503" lon="17.7730805">
        <ele>17.9218</ele>
        <time>2013-04-14T12:06:15Z</time>
      </trkpt>
      <trkpt lat="59.8484627" lon="17.7731973">
        <ele>18.4023</ele>
        <time>2013-04-14T12:06:16Z</time>
      </trkpt>
      <trkpt lat="59.8484733" lon="17.7733086">
        <ele>18.8831</ele>
        <time>2013-04-14T12:06:17Z</time>
      </trkpt>
      <trkpt lat="59.8484826" lon="17.773419">
        <ele>19.3638</ele>
        <time>2013-04-14T12:06:18Z</time>
      </trkpt>
      <trkpt lat="59.848493" lon="17.7735264">
        <ele>19.3638</ele>
        <time>2013-04-14T12:06:19Z</time>
      </trkpt>
      <trkpt lat="59.8485061" lon="17.7736299">
        <ele>19.8444</ele>
        <time>2013-04-14T12:06:20Z</time>
      </trkpt>
      <trkpt lat="59.8485201" lon="17.7737303">
        <ele>20.325</ele>
        <time>2013-04-14T12:06:21Z</time>
      </trkpt>
      <trkpt lat="59.8485325" lon="17.7738277">
        <ele>20.325</ele>
        <time>2013-04-14T12:06:22Z</time>
      </trkpt>
      <trkpt lat="59.8485441" lon="17.7739217">
        <ele>20.325</ele>
        <time>2013-04-14T12:06:23Z</time>
      </trkpt>
      <trkpt lat="59.8485549" lon="17.7740137">
        <ele>20.8057</ele>
        <time>2013-04-14T12:06:24Z</time>
      </trkpt>
      <trkpt lat="59.8485654" lon="17.7741043">
        <ele>20.8057</ele>
        <time>2013-04-14T12:06:25Z</time>
      </trkpt>
      <trkpt lat="59.8485763" lon="17.7741932">
        <ele>21.2864</ele>
        <time>2013-04-14T12:06:26Z</time>
      </trkpt>
      <trkpt lat="59.8485861" lon="17.7742817">
        <ele>21.2864</ele>
        <time>2013-04-14T12:06:27Z</time>
      </trkpt>
      <trkpt lat="59.8485942" lon="17.7743695">
        <ele>21.2864</ele>
        <time>2013-04-14T12:06:28Z</time>
      </trkpt>
      <trkpt lat="59.8486022" lon="17.7744552">
        <ele>21.767</ele>
        <time>2013-04-14T12:06:29Z</time>
      </trkpt>
      <trkpt lat="59.8486103" lon="17.7745407">
        <ele>21.767</ele>
        <time>2013-04-14T12:06:30Z</time>
      </trkpt>
      <trkpt lat="59.8486176" lon="17.7746285">
        <ele>21.767</ele>
        <time>2013-04-14T12:06:31Z</time>
      </trkpt>
      <trkpt lat="59.8486255" lon="17.7747158">
        <ele>21.767</ele>
        <time>2013-04-14T12:06:32Z</time>
      </trkpt>
      <trkpt lat="59.8486339" lon="17.7748031">
        <ele>21.2864</ele>
        <time>2013-04-14T12:06:33Z</time>
      </trkpt>
      <trkpt lat="59.8486429" lon="17.7748901">
        <ele>21.2864</ele>
        <time>2013-04-14T12:06:34Z</time>
      </trkpt>
      <trkpt lat="59.8486514" lon="17.7749747">
        <ele>21.2864</ele>
        <time>2013-04-14T12:06:35Z</time>
      </trkpt>
      <trkpt lat="59.8486597" lon="17.7750592">
        <ele>21.767</ele>
        <time>2013-04-14T12:06:36Z</time>
      </trkpt>
      <trkpt lat="59.848669" lon="17.7751441">
        <ele>21.767</ele>
        <time>2013-04-14T12:06:37Z</time>
      </trkpt>
      <trkpt lat="59.8486774" lon="17.7752301">
        <ele>21.767</ele>
        <time>2013-04-14T12:06:38Z</time>
      </trkpt>
      <trkpt lat="59.8486857" lon="17.7753182">
        <ele>21.767</ele>
        <time>2013-04-14T12:06:39Z</time>
      </trkpt>
      <trkpt lat="59.8486944" lon="17.7754079">
        <ele>22.2476</ele>
        <time>2013-04-14T12:06:40Z</time>
      </trkpt>
      <trkpt lat="59.8487026" lon="17.7755011">
        <ele>22.2476</ele>
        <time>2013-04-14T12:06:41Z</time>
      </trkpt>
      <trkpt lat="59.8487099" lon="17.775599">
        <ele>22.2476</ele>
        <time>2013-04-14T12:06:42Z</time>
      </trkpt>
      <trkpt lat="59.8487191" lon="17.7756975">
        <ele>22.2476</ele>
        <time>2013-04-14T12:06:43Z</time>
      </trkpt>
      <trkpt lat="59.8487291" lon="17.7757974">
        <ele>22.2476</ele>
        <time>2013-04-14T12:06:44Z</time>
      </trkpt>
      <trkpt lat="59.848738" lon="17.7758989">
        <ele>22.2476</ele>
        <time>2013-04-14T12:06:45Z</time>
      </trkpt>
      <trkpt lat="59.8487471" lon="17.7759976">
        <ele>22.2476</ele>
        <time>2013-04-14T12:06:46Z</time>
      </trkpt>
      <trkpt lat="59.8487553" lon="17.7760955">
        <ele>22.2476</ele>
        <time>2013-04-14T12:06:47Z</time>
      </trkpt>
      <trkpt lat="59.8487642" lon="17.7761917">
        <ele>22.2476</ele>
        <time>2013-04-14T12:06:48Z</time>
      </trkpt>
      <trkpt lat="59.84877" lon="17.7762906">
        <ele>22.7283</ele>
        <time>2013-04-14T12:06:49Z</time>
      </trkpt>
      <trkpt lat="59.8487757" lon="17.7763914">
        <ele>22.7283</ele>
        <time>2013-04-14T12:06:50Z</time>
      </trkpt>
      <trkpt lat="59.8487818" lon="17.7764906">
        <ele>22.7283</ele>
        <time>2013-04-14T12:06:51Z</time>
      </trkpt>
      <trkpt lat="59.8487888" lon="17.7765889">
        <ele>22.7283</ele>
        <time>2013-04-14T12:06:52Z</time>
      </trkpt>
      <trkpt lat="59.848797" lon="17.7766881">
        <ele>22.7283</ele>
        <time>2013-04-14T12:06:53Z</time>
      </trkpt>
      <trkpt lat="59.8488052" lon="17.7767883">
        <ele>22.2476</ele>
        <time>2013-04-14T12:06:54Z</time>
      </trkpt>
      <trkpt lat="59.848811" lon="17.7768918">
        <ele>22.7283</ele>
        <time>2013-04-14T12:06:55Z</time>
      </trkpt>
      <trkpt lat="59.8488185" lon="17.7769958">
        <ele>22.2476</ele>
        <time>2013-04-14T12:06:56Z</time>
      </trkpt>
      <trkpt lat="59.8488271" lon="17.7771013">
        <ele>22.2476</ele>
        <time>2013-04-14T12:06:57Z</time>
      </trkpt>
      <trkpt lat="59.8488353" lon="17.77721">
        <ele>22.2476</ele>
        <time>2013-04-14T12:06:58Z</time>
      </trkpt>
      <trkpt lat="59.8488436" lon="17.7773198">
        <ele>22.2476</ele>
        <time>2013-04-14T12:06:59Z</time>
      </trkpt>
      <trkpt lat="59.848854" lon="17.7774286">
        <ele>22.2476</ele>
        <time>2013-04-14T12:07:00Z</time>
      </trkpt>
      <trkpt lat="59.8488656" lon="17.7775389">
        <ele>22.2476</ele>
        <time>2013-04-14T12:07:01Z</time>
      </trkpt>
      <trkpt lat="59.8488752" lon="17.7776522">
        <ele>22.2476</ele>
        <time>2013-04-14T12:07:02Z</time>
      </trkpt>
      <trkpt lat="59.8488829" lon="17.7777668">
        <ele>22.2476</ele>
        <time>2013-04-14T12:07:03Z</time>
      </trkpt>
      <trkpt lat="59.84889" lon="17.7778817">
        <ele>21.767</ele>
        <time>2013-04-14T12:07:04Z</time>
      </trkpt>
      <trkpt lat="59.8488948" lon="17.7779989">
        <ele>21.767</ele>
        <time>2013-04-14T12:07:05Z</time>
      </trkpt>
      <trkpt lat="59.8488958" lon="17.7781165">
        <ele>21.767</ele>
        <time>2013-04-14T12:07:06Z</time>
      </trkpt>
      <trkpt lat="59.8488958" lon="17.778233">
        <ele>22.2476</ele>
        <time>2013-04-14T12:07:07Z</time>
      </trkpt>
      <trkpt lat="59.848898" lon="17.7783465">
        <ele>22.2476</ele>
        <time>2013-04-14T12:07:08Z</time>
      </trkpt>
      <trkpt lat="59.8489035" lon="17.778459">
        <ele>22.2476</ele>
        <time>2013-04-14T12:07:09Z</time>
      </trkpt>
      <trkpt lat="59.8489095" lon="17.7785747">
        <ele>22.2476</ele>
        <time>2013-04-14T12:07:10Z</time>
      </trkpt>
      <trkpt lat="59.848915" lon="17.7786905">
        <ele>22.2476</ele>
        <time>2013-04-14T12:07:11Z</time>
      </trkpt>
      <trkpt lat="59.8489239" lon="17.778803">
        <ele>22.2476</ele>
        <time>2013-04-14T12:07:12Z</time>
      </trkpt>
      <trkpt lat="59.8489266" lon="17.7789264">
        <ele>22.7283</ele>
        <time>2013-04-14T12:07:13Z</time>
      </trkpt>
      <trkpt lat="59.8489302" lon="17.779052">
        <ele>22.7283</ele>
        <time>2013-04-14T12:07:14Z</time>
      </trkpt>
      <trkpt lat="59.8489332" lon="17.7791809">
        <ele>22.2476</ele>
        <time>2013-04-14T12:07:15Z</time>
      </trkpt>
      <trkpt lat="59.8489442" lon="17.7793099">
        <ele>22.2476</ele>
        <time>2013-04-14T12:07:16Z</time>
      </trkpt>
      <trkpt lat="59.8489589" lon="17.7794353">
        <ele>22.7283</ele>
        <time>2013-04-14T12:07:17Z</time>
      </trkpt>
      <trkpt lat="59.8489709" lon="17.7795641">
        <ele>22.7283</ele>
        <time>2013-04-14T12:07:18Z</time>
      </trkpt>
      <trkpt lat="59.8489868" lon="17.779685">
        <ele>23.209</ele>
        <time>2013-04-14T12:07:19Z</time>
      </trkpt>
      <trkpt lat="59.8490088" lon="17.7797994">
        <ele>23.209</ele>
        <time>2013-04-14T12:07:20Z</time>
      </trkpt>
      <trkpt lat="59.8490343" lon="17.7799109">
        <ele>23.209</ele>
        <time>2013-04-14T12:07:21Z</time>
      </trkpt>
      <trkpt lat="59.8490596" lon="17.7800253">
        <ele>22.7283</ele>
        <time>2013-04-14T12:07:22Z</time>
      </trkpt>
      <trkpt lat="59.8490816" lon="17.7801517">
        <ele>22.7283</ele>
        <time>2013-04-14T12:07:23Z</time>
      </trkpt>
      <trkpt lat="59.8491018" lon="17.7802822">
        <ele>22.7283</ele>
        <time>2013-04-14T12:07:24Z</time>
      </trkpt>
      <trkpt lat="59.8491181" lon="17.7804154">
        <ele>22.7283</ele>
        <time>2013-04-14T12:07:25Z</time>
      </trkpt>
      <trkpt lat="59.8491338" lon="17.7805512">
        <ele>22.7283</ele>
        <time>2013-04-14T12:07:26Z</time>
      </trkpt>
      <trkpt lat="59.8491507" lon="17.7806889">
        <ele>22.7283</ele>
        <time>2013-04-14T12:07:27Z</time>
      </trkpt>
      <trkpt lat="59.8491689" lon="17.7808272">
        <ele>22.7283</ele>
        <time>2013-04-14T12:07:28Z</time>
      </trkpt>
      <trkpt lat="59.8491896" lon="17.7809639">
        <ele>22.7283</ele>
        <time>2013-04-14T12:07:29Z</time>
      </trkpt>
      <trkpt lat="59.8492123" lon="17.7811">
        <ele>22.7283</ele>
        <time>2013-04-14T12:07:30Z</time>
      </trkpt>
      <trkpt lat="59.8492362" lon="17.7812359">
        <ele>22.7283</ele>
        <time>2013-04-14T12:07:31Z</time>
      </trkpt>
      <trkpt lat="59.8492599" lon="17.7813723">
        <ele>22.7283</ele>
        <time>2013-04-14T12:07:32Z</time>
      </trkpt>
      <trkpt lat="59.8492839" lon="17.7815094">
        <ele>22.7283</ele>
        <time>2013-04-14T12:07:33Z</time>
      </trkpt>
      <trkpt lat="59.8493108" lon="17.7816457">
        <ele>22.7283</ele>
        <time>2013-04-14T12:07:34Z</time>
      </trkpt>
      <trkpt lat="59.8493384" lon="17.7817828">
        <ele>23.209</ele>
        <time>2013-04-14T12:07:35Z</time>
      </trkpt>
      <trkpt lat="59.8493632" lon="17.7819213">
        <ele>23.209</ele>
        <time>2013-04-14T12:07:36Z</time>
      </trkpt>
      <trkpt lat="59.8493895" lon="17.7820591">
        <ele>23.209</ele>
        <time>2013-04-14T12:07:37Z</time>
      </trkpt>
      <trkpt lat="59.8494183" lon="17.7821938">
        <ele>23.6896</ele>
        <time>2013-04-14T12:07:38Z</time>
      </trkpt>
      <trkpt lat="59.8494466" lon="17.7823253">
        <ele>23.6896</ele>
        <time>2013-04-14T12:07:39Z</time>
      </trkpt>
      <trkpt lat="59.8494744" lon="17.7824554">
        <ele>24.1703</ele>
        <time>2013-04-14T12:07:40Z</time>
      </trkpt>
      <trkpt lat="59.8494988" lon="17.7825858">
        <ele>24.651</ele>
        <time>2013-04-14T12:07:41Z</time>
      </trkpt>
      <trkpt lat="59.8495222" lon="17.7827155">
        <ele>24.651</ele>
        <time>2013-04-14T12:07:42Z</time>
      </trkpt>
      <trkpt lat="59.8495461" lon="17.7828437">
        <ele>25.1317</ele>
        <time>2013-04-14T12:07:43Z</time>
      </trkpt>
      <trkpt lat="59.8495725" lon="17.7829682">
        <ele>25.1317</ele>
        <time>2013-04-14T12:07:44Z</time>
      </trkpt>
      <trkpt lat="59.8495997" lon="17.7830912">
        <ele>25.1317</ele>
        <time>2013-04-14T12:07:45Z</time>
      </trkpt>
      <trkpt lat="59.8496247" lon="17.7832153">
        <ele>25.6123</ele>
        <time>2013-04-14T12:07:46Z</time>
      </trkpt>
      <trkpt lat="59.8496486" lon="17.7833385">
        <ele>25.6123</ele>
        <time>2013-04-14T12:07:47Z</time>
      </trkpt>
      <trkpt lat="59.8496728" lon="17.7834598">
        <ele>25.6123</ele>
        <time>2013-04-14T12:07:48Z</time>
      </trkpt>
      <trkpt lat="59.8496997" lon="17.7835788">
        <ele>25.6123</ele>
        <time>2013-04-14T12:07:49Z</time>
      </trkpt>
      <trkpt lat="59.8497264" lon="17.7836991">
        <ele>25.6123</ele>
        <time>2013-04-14T12:07:50Z</time>
      </trkpt>
      <trkpt lat="59.8497514" lon="17.7838204">
        <ele>25.6123</ele>
        <time>2013-04-14T12:07:51Z</time>
      </trkpt>
      <trkpt lat="59.8497718" lon="17.7839441">
        <ele>26.0929</ele>
        <time>2013-04-14T12:07:52Z</time>
      </trkpt>
      <trkpt lat="59.8497894" lon="17.7840673">
        <ele>26.0929</ele>
        <time>2013-04-14T12:07:53Z</time>
      </trkpt>
      <trkpt lat="59.8498089" lon="17.7841825">
        <ele>26.0929</ele>
        <time>2013-04-14T12:07:54Z</time>
      </trkpt>
      <trkpt lat="59.8498312" lon="17.7842931">
        <ele>26.0929</ele>
        <time>2013-04-14T12:07:55Z</time>
      </trkpt>
      <trkpt lat="59.849855" lon="17.7844031">
        <ele>26.0929</ele>
        <time>2013-04-14T12:07:56Z</time>
      </trkpt>
      <trkpt lat="59.8498804" lon="17.7845139">
        <ele>26.5736</ele>
        <time>2013-04-14T12:07:57Z</time>
      </trkpt>
      <trkpt lat="59.8499086" lon="17.784624">
        <ele>26.5736</ele>
        <time>2013-04-14T12:07:58Z</time>
      </trkpt>
      <trkpt lat="59.8499401" lon="17.784733">
        <ele>26.5736</ele>
        <time>2013-04-14T12:07:59Z</time>
      </trkpt>
      <trkpt lat="59.8499727" lon="17.7848435">
        <ele>27.0543</ele>
        <time>2013-04-14T12:08:00Z</time>
      </trkpt>
      <trkpt lat="59.8500047" lon="17.7849553">
        <ele>27.0543</ele>
        <time>2013-04-14T12:08:01Z</time>
      </trkpt>
      <trkpt lat="59.8500366" lon="17.7850646">
        <ele>27.5349</ele>
        <time>2013-04-14T12:08:02Z</time>
      </trkpt>
      <trkpt lat="59.8500679" lon="17.7851677">
        <ele>27.0543</ele>
        <time>2013-04-14T12:08:03Z</time>
      </trkpt>
      <trkpt lat="59.8501001" lon="17.7852718">
        <ele>27.0543</ele>
        <time>2013-04-14T12:08:04Z</time>
      </trkpt>
      <trkpt lat="59.8501324" lon="17.7853752">
        <ele>27.5349</ele>
        <time>2013-04-14T12:08:05Z</time>
      </trkpt>
      <trkpt lat="59.8501674" lon="17.7854702">
        <ele>27.5349</ele>
        <time>2013-04-14T12:08:06Z</time>
      </trkpt>
      <trkpt lat="59.8502031" lon="17.7855596">
        <ele>27.5349</ele>
        <time>2013-04-14T12:08:07Z</time>
      </trkpt>
      <trkpt lat="59.8502385" lon="17.7856433">
        <ele>27.5349</ele>
        <time>2013-04-14T12:08:08Z</time>
      </trkpt>
      <trkpt lat="59.8502718" lon="17.7857239">
        <ele>27.5349</ele>
        <time>2013-04-14T12:08:09Z</time>
      </trkpt>
      <trkpt lat="59.8503038" lon="17.7858038">
        <ele>27.5349</ele>
        <time>2013-04-14T12:08:10Z</time>
      </trkpt>
      <trkpt lat="59.8503338" lon="17.7858869">
        <ele>27.5349</ele>
        <time>2013-04-14T12:08:11Z</time>
      </trkpt>
      <trkpt lat="59.8503644" lon="17.7859659">
        <ele>27.5349</ele>
        <time>2013-04-14T12:08:12Z</time>
      </trkpt>
      <trkpt lat="59.850394" lon="17.7860502">
        <ele>27.5349</ele>
        <time>2013-04-14T12:08:13Z</time>
      </trkpt>
      <trkpt lat="59.8504238" lon="17.7861349">
        <ele>27.5349</ele>
        <time>2013-04-14T12:08:14Z</time>
      </trkpt>
      <trkpt lat="59.8504541" lon="17.7862171">
        <ele>27.5349</ele>
        <time>2013-04-14T12:08:15Z</time>
      </trkpt>
      <trkpt lat="59.8504857" lon="17.7862974">
        <ele>27.5349</ele>
        <time>2013-04-14T12:08:16Z</time>
      </trkpt>
      <trkpt lat="59.8505188" lon="17.7863806">
        <ele>27.5349</ele>
        <time>2013-04-14T12:08:17Z</time>
      </trkpt>
      <trkpt lat="59.8505518" lon="17.7864695">
        <ele>27.5349</ele>
        <time>2013-04-14T12:08:18Z</time>
      </trkpt>
      <trkpt lat="59.850585" lon="17.7865612">
        <ele>28.0155</ele>
        <time>2013-04-14T12:08:19Z</time>
      </trkpt>
      <trkpt lat="59.8506187" lon="17.7866524">
        <ele>28.0155</ele>
        <time>2013-04-14T12:08:20Z</time>
      </trkpt>
      <trkpt lat="59.850653" lon="17.7867439">
        <ele>28.4962</ele>
        <time>2013-04-14T12:08:21Z</time>
      </trkpt>
      <trkpt lat="59.8506871" lon="17.7868333">
        <ele>28.4962</ele>
        <time>2013-04-14T12:08:22Z</time>
      </trkpt>
      <trkpt lat="59.8507203" lon="17.786923">
        <ele>28.4962</ele>
        <time>2013-04-14T12:08:23Z</time>
      </trkpt>
      <trkpt lat="59.8507551" lon="17.7870112">
        <ele>28.9769</ele>
        <time>2013-04-14T12:08:24Z</time>
      </trkpt>
      <trkpt lat="59.8507908" lon="17.7870973">
        <ele>28.9769</ele>
        <time>2013-04-14T12:08:25Z</time>
      </trkpt>
      <trkpt lat="59.8508277" lon="17.7871814">
        <ele>29.4575</ele>
        <time>2013-04-14T12:08:26Z</time>
      </trkpt>
      <trkpt lat="59.8508658" lon="17.7872696">
        <ele>29.9381</ele>
        <time>2013-04-14T12:08:27Z</time>
      </trkpt>
      <trkpt lat="59.8509014" lon="17.7873593">
        <ele>29.9381</ele>
        <time>2013-04-14T12:08:28Z</time>
      </trkpt>
      <trkpt lat="59.8509394" lon="17.7874513">
        <ele>30.4188</ele>
        <time>2013-04-14T12:08:29Z</time>
      </trkpt>
      <trkpt lat="59.8509791" lon="17.7875448">
        <ele>30.8995</ele>
        <time>2013-04-14T12:08:30Z</time>
      </trkpt>
      <trkpt lat="59.851019" lon="17.7876396">
        <ele>31.3801</ele>
        <time>2013-04-14T12:08:31Z</time>
      </trkpt>
      <trkpt lat="59.8510591" lon="17.7877352">
        <ele>31.8607</ele>
        <time>2013-04-14T12:08:32Z</time>
      </trkpt>
      <trkpt lat="59.8510993" lon="17.7878298">
        <ele>31.8607</ele>
        <time>2013-04-14T12:08:33Z</time>
      </trkpt>
      <trkpt lat="59.8511414" lon="17.7879234">
        <ele>32.3416</ele>
        <time>2013-04-14T12:08:34Z</time>
      </trkpt>
      <trkpt lat="59.8511825" lon="17.7880141">
        <ele>32.8223</ele>
        <time>2013-04-14T12:08:35Z</time>
      </trkpt>
      <trkpt lat="59.8512228" lon="17.7881037">
        <ele>33.3029</ele>
        <time>2013-04-14T12:08:36Z</time>
      </trkpt>
      <trkpt lat="59.8512606" lon="17.7881931">
        <ele>33.7834</ele>
        <time>2013-04-14T12:08:37Z</time>
      </trkpt>
      <trkpt lat="59.8512983" lon="17.7882815">
        <ele>33.7834</ele>
        <time>2013-04-14T12:08:38Z</time>
      </trkpt>
      <trkpt lat="59.8513347" lon="17.7883732">
        <ele>34.2642</ele>
        <time>2013-04-14T12:08:39Z</time>
      </trkpt>
      <trkpt lat="59.8513707" lon="17.7884643">
        <ele>34.7449</ele>
        <time>2013-04-14T12:08:40Z</time>
      </trkpt>
      <trkpt lat="59.8514072" lon="17.7885557">
        <ele>35.2255</ele>
        <time>2013-04-14T12:08:41Z</time>
      </trkpt>
      <trkpt lat="59.8514439" lon="17.7886479">
        <ele>35.2255</ele>
        <time>2013-04-14T12:08:42Z</time>
      </trkpt>
      <trkpt lat="59.8514791" lon="17.7887439">
        <ele>35.2255</ele>
        <time>2013-04-14T12:08:43Z</time>
      </trkpt>
      <trkpt lat="59.8515154" lon="17.7888418">
        <ele>35.7061</ele>
        <time>2013-04-14T12:08:44Z</time>
      </trkpt>
      <trkpt lat="59.8515563" lon="17.7889396">
        <ele>35.7061</ele>
        <time>2013-04-14T12:08:45Z</time>
      </trkpt>
      <trkpt lat="59.8515983" lon="17.7890362">
        <ele>36.1868</ele>
        <time>2013-04-14T12:08:46Z</time>
      </trkpt>
      <trkpt lat="59.8516399" lon="17.7891349">
        <ele>36.1868</ele>
        <time>2013-04-14T12:08:47Z</time>
      </trkpt>
      <trkpt lat="59.8516815" lon="17.7892351">
        <ele>36.1868</ele>
        <time>2013-04-14T12:08:48Z</time>
      </trkpt>
      <trkpt lat="59.851724" lon="17.7893374">
        <ele>36.1868</ele>
        <time>2013-04-14T12:08:49Z</time>
      </trkpt>
      <trkpt lat="59.8517672" lon="17.7894398">
        <ele>36.1868</ele>
        <time>2013-04-14T12:08:50Z</time>
      </trkpt>
      <trkpt lat="59.8518102" lon="17.7895465">
        <ele>36.1868</ele>
        <time>2013-04-14T12:08:51Z</time>
      </trkpt>
      <trkpt lat="59.8518542" lon="17.7896551">
        <ele>36.1868</ele>
        <time>2013-04-14T12:08:52Z</time>
      </trkpt>
      <trkpt lat="59.8518987" lon="17.7897669">
        <ele>36.1868</ele>
        <time>2013-04-14T12:08:53Z</time>
      </trkpt>
      <trkpt lat="59.8519444" lon="17.7898816">
        <ele>36.1868</ele>
        <time>2013-04-14T12:08:54Z</time>
      </trkpt>
      <trkpt lat="59.8519899" lon="17.7899992">
        <ele>36.1868</ele>
        <time>2013-04-14T12:08:55Z</time>
      </trkpt>
      <trkpt lat="59.852035" lon="17.7901178">
        <ele>36.1868</ele>
        <time>2013-04-14T12:08:56Z</time>
      </trkpt>
      <trkpt lat="59.8520811" lon="17.7902374">
        <ele>36.6675</ele>
        <time>2013-04-14T12:08:57Z</time>
      </trkpt>
      <trkpt lat="59.8521293" lon="17.790355">
        <ele>36.6675</ele>
        <time>2013-04-14T12:08:58Z</time>
      </trkpt>
      <trkpt lat="59.8521793" lon="17.7904715">
        <ele>36.6675</ele>
        <time>2013-04-14T12:08:59Z</time>
      </trkpt>
      <trkpt lat="59.8522302" lon="17.7905884">
        <ele>36.6675</ele>
        <time>2013-04-14T12:09:00Z</time>
      </trkpt>
      <trkpt lat="59.8522821" lon="17.7907051">
        <ele>36.6675</ele>
        <time>2013-04-14T12:09:01Z</time>
      </trkpt>
      <trkpt lat="59.8523345" lon="17.7908233">
        <ele>36.6675</ele>
        <time>2013-04-14T12:09:02Z</time>
      </trkpt>
      <trkpt lat="59.8523837" lon="17.7909453">
        <ele>36.6675</ele>
        <time>2013-04-14T12:09:03Z</time>
      </trkpt>
      <trkpt lat="59.8524297" lon="17.7910704">
        <ele>36.1868</ele>
        <time>2013-04-14T12:09:04Z</time>
      </trkpt>
      <trkpt lat="59.8524748" lon="17.7911926">
        <ele>35.7061</ele>
        <time>2013-04-14T12:09:05Z</time>
      </trkpt>
      <trkpt lat="59.8525245" lon="17.7913136">
        <ele>35.2255</ele>
        <time>2013-04-14T12:09:06Z</time>
      </trkpt>
      <trkpt lat="59.8525717" lon="17.7914304">
        <ele>34.2642</ele>
        <time>2013-04-14T12:09:07Z</time>
      </trkpt>
      <trkpt lat="59.8526167" lon="17.7915463">
        <ele>33.3029</ele>
        <time>2013-04-14T12:09:08Z</time>
      </trkpt>
      <trkpt lat="59.8526601" lon="17.7916669">
        <ele>32.8223</ele>
        <time>2013-04-14T12:09:09Z</time>
      </trkpt>
      <trkpt lat="59.8527025" lon="17.7917917">
        <ele>32.3416</ele>
        <time>2013-04-14T12:09:10Z</time>
      </trkpt>
      <trkpt lat="59.8527467" lon="17.7919161">
        <ele>31.8607</ele>
        <time>2013-04-14T12:09:11Z</time>
      </trkpt>
      <trkpt lat="59.8527929" lon="17.7920385">
        <ele>31.8607</ele>
        <time>2013-04-14T12:09:12Z</time>
      </trkpt>
      <trkpt lat="59.8528388" lon="17.79216">
        <ele>31.3801</ele>
        <time>2013-04-14T12:09:13Z</time>
      </trkpt>
      <trkpt lat="59.8528823" lon="17.7922835">
        <ele>31.3801</ele>
        <time>2013-04-14T12:09:14Z</time>
      </trkpt>
      <trkpt lat="59.8529263" lon="17.7924064">
        <ele>31.3801</ele>
        <time>2013-04-14T12:09:15Z</time>
      </trkpt>
      <trkpt lat="59.8529703" lon="17.792528">
        <ele>31.3801</ele>
        <time>2013-04-14T12:09:16Z</time>
      </trkpt>
      <trkpt lat="59.8530114" lon="17.792647">
        <ele>31.8607</ele>
        <time>2013-04-14T12:09:17Z</time>
      </trkpt>
      <trkpt lat="59.8530529" lon="17.7927668">
        <ele>32.3416</ele>
        <time>2013-04-14T12:09:18Z</time>
      </trkpt>
      <trkpt lat="59.853097" lon="17.7928865">
        <ele>32.3416</ele>
        <time>2013-04-14T12:09:19Z</time>
      </trkpt>
      <trkpt lat="59.8531398" lon="17.7930072">
        <ele>32.3416</ele>
        <time>2013-04-14T12:09:20Z</time>
      </trkpt>
      <trkpt lat="59.8531808" lon="17.7931284">
        <ele>32.3416</ele>
        <time>2013-04-14T12:09:21Z</time>
      </trkpt>
      <trkpt lat="59.8532228" lon="17.7932469">
        <ele>32.3416</ele>
        <time>2013-04-14T12:09:22Z</time>
      </trkpt>
      <trkpt lat="59.8532648" lon="17.7933657">
        <ele>32.3416</ele>
        <time>2013-04-14T12:09:23Z</time>
      </trkpt>
      <trkpt lat="59.8533046" lon="17.7934891">
        <ele>32.8223</ele>
        <time>2013-04-14T12:09:24Z</time>
      </trkpt>
      <trkpt lat="59.8533452" lon="17.7936115">
        <ele>32.8223</ele>
        <time>2013-04-14T12:09:25Z</time>
      </trkpt>
      <trkpt lat="59.8533858" lon="17.7937307">
        <ele>32.8223</ele>
        <time>2013-04-14T12:09:26Z</time>
      </trkpt>
      <trkpt lat="59.8534264" lon="17.7938459">
        <ele>32.8223</ele>
        <time>2013-04-14T12:09:27Z</time>
      </trkpt>
      <trkpt lat="59.8534658" lon="17.7939615">
        <ele>32.8223</ele>
        <time>2013-04-14T12:09:28Z</time>
      </trkpt>
      <trkpt lat="59.8535023" lon="17.7940794">
        <ele>32.8223</ele>
        <time>2013-04-14T12:09:29Z</time>
      </trkpt>
      <trkpt lat="59.8535405" lon="17.7941935">
        <ele>32.8223</ele>
        <time>2013-04-14T12:09:30Z</time>
      </trkpt>
      <trkpt lat="59.8535798" lon="17.7943052">
        <ele>32.8223</ele>
        <time>2013-04-14T12:09:31Z</time>
      </trkpt>
      <trkpt lat="59.8536189" lon="17.7944161">
        <ele>33.3029</ele>
        <time>2013-04-14T12:09:32Z</time>
      </trkpt>
      <trkpt lat="59.8536568" lon="17.7945275">
        <ele>33.3029</ele>
        <time>2013-04-14T12:09:33Z</time>
      </trkpt>
      <trkpt lat="59.8536952" lon="17.7946349">
        <ele>33.3029</ele>
        <time>2013-04-14T12:09:34Z</time>
      </trkpt>
      <trkpt lat="59.853733" lon="17.7947414">
        <ele>32.8223</ele>
        <time>2013-04-14T12:09:35Z</time>
      </trkpt>
      <trkpt lat="59.8537692" lon="17.7948516">
        <ele>32.8223</ele>
        <time>2013-04-14T12:09:36Z</time>
      </trkpt>
      <trkpt lat="59.8538043" lon="17.7949664">
        <ele>32.8223</ele>
        <time>2013-04-14T12:09:37Z</time>
      </trkpt>
      <trkpt lat="59.8538398" lon="17.7950823">
        <ele>32.8223</ele>
        <time>2013-04-14T12:09:38Z</time>
      </trkpt>
      <trkpt lat="59.8538753" lon="17.7951987">
        <ele>32.8223</ele>
        <time>2013-04-14T12:09:39Z</time>
      </trkpt>
      <trkpt lat="59.8539098" lon="17.7953156">
        <ele>32.8223</ele>
        <time>2013-04-14T12:09:40Z</time>
      </trkpt>
      <trkpt lat="59.8539432" lon="17.7954328">
        <ele>32.8223</ele>
        <time>2013-04-14T12:09:41Z</time>
      </trkpt>
      <trkpt lat="59.8539748" lon="17.7955474">
        <ele>32.3416</ele>
        <time>2013-04-14T12:09:42Z</time>
      </trkpt>
      <trkpt lat="59.8540081" lon="17.7956595">
        <ele>32.3416</ele>
        <time>2013-04-14T12:09:43Z</time>
      </trkpt>
      <trkpt lat="59.8540377" lon="17.7957707">
        <ele>31.8607</ele>
        <time>2013-04-14T12:09:44Z</time>
      </trkpt>
      <trkpt lat="59.854073" lon="17.795884">
        <ele>31.8607</ele>
        <time>2013-04-14T12:09:45Z</time>
      </trkpt>
      <trkpt lat="59.8541091" lon="17.7960038">
        <ele>31.8607</ele>
        <time>2013-04-14T12:09:46Z</time>
      </trkpt>
      <trkpt lat="59.8541432" lon="17.7961265">
        <ele>31.8607</ele>
        <time>2013-04-14T12:09:47Z</time>
      </trkpt>
      <trkpt lat="59.8541769" lon="17.7962498">
        <ele>31.8607</ele>
        <time>2013-04-14T12:09:48Z</time>
      </trkpt>
      <trkpt lat="59.8542121" lon="17.7963694">
        <ele>31.8607</ele>
        <time>2013-04-14T12:09:49Z</time>
      </trkpt>
      <trkpt lat="59.8542454" lon="17.7964885">
        <ele>31.8607</ele>
        <time>2013-04-14T12:09:50Z</time>
      </trkpt>
      <trkpt lat="59.8542775" lon="17.7966109">
        <ele>32.3416</ele>
        <time>2013-04-14T12:09:51Z</time>
      </trkpt>
      <trkpt lat="59.8543139" lon="17.7967311">
        <ele>31.8607</ele>
        <time>2013-04-14T12:09:52Z</time>
      </trkpt>
      <trkpt lat="59.8543547" lon="17.7968513">
        <ele>31.8607</ele>
        <time>2013-04-14T12:09:53Z</time>
      </trkpt>
      <trkpt lat="59.8543982" lon="17.7969741">
        <ele>31.8607</ele>
        <time>2013-04-14T12:09:54Z</time>
      </trkpt>
      <trkpt lat="59.8544385" lon="17.7971013">
        <ele>31.8607</ele>
        <time>2013-04-14T12:09:55Z</time>
      </trkpt>
      <trkpt lat="59.8544727" lon="17.797233">
        <ele>31.8607</ele>
        <time>2013-04-14T12:09:56Z</time>
      </trkpt>
      <trkpt lat="59.8545049" lon="17.7973645">
        <ele>31.8607</ele>
        <time>2013-04-14T12:09:57Z</time>
      </trkpt>
      <trkpt lat="59.8545374" lon="17.7974968">
        <ele>31.8607</ele>
        <time>2013-04-14T12:09:58Z</time>
      </trkpt>
      <trkpt lat="59.8545716" lon="17.7976293">
        <ele>31.8607</ele>
        <time>2013-04-14T12:09:59Z</time>
      </trkpt>
      <trkpt lat="59.8546075" lon="17.7977614">
        <ele>31.8607</ele>
        <time>2013-04-14T12:10:00Z</time>
      </trkpt>
      <trkpt lat="59.8546431" lon="17.7978962">
        <ele>31.8607</ele>
        <time>2013-04-14T12:10:01Z</time>
      </trkpt>
      <trkpt lat="59.8546789" lon="17.7980325">
        <ele>31.8607</ele>
        <time>2013-04-14T12:10:02Z</time>
      </trkpt>
      <trkpt lat="59.8547153" lon="17.7981692">
        <ele>31.8607</ele>
        <time>2013-04-14T12:10:03Z</time>
      </trkpt>
      <trkpt lat="59.854752" lon="17.7983052">
        <ele>31.8607</ele>
        <time>2013-04-14T12:10:04Z</time>
      </trkpt>
      <trkpt lat="59.8547878" lon="17.7984436">
        <ele>31.8607</ele>
        <time>2013-04-14T12:10:05Z</time>
      </trkpt>
      <trkpt lat="59.854823" lon="17.7985844">
        <ele>31.8607</ele>
        <time>2013-04-14T12:10:06Z</time>
      </trkpt>
      <trkpt lat="59.8548587" lon="17.7987233">
        <ele>31.8607</ele>
        <time>2013-04-14T12:10:07Z</time>
      </trkpt>
      <trkpt lat="59.8548939" lon="17.7988592">
        <ele>31.8607</ele>
        <time>2013-04-14T12:10:08Z</time>
      </trkpt>
      <trkpt lat="59.8549291" lon="17.7989923">
        <ele>31.8607</ele>
        <time>2013-04-14T12:10:09Z</time>
      </trkpt>
      <trkpt lat="59.8549639" lon="17.7991216">
        <ele>31.8607</ele>
        <time>2013-04-14T12:10:10Z</time>
      </trkpt>
      <trkpt lat="59.8549997" lon="17.7992454">
        <ele>31.8607</ele>
        <time>2013-04-14T12:10:11Z</time>
      </trkpt>
      <trkpt lat="59.8550356" lon="17.7993673">
        <ele>31.8607</ele>
        <time>2013-04-14T12:10:12Z</time>
      </trkpt>
      <trkpt lat="59.8550721" lon="17.7994861">
        <ele>31.8607</ele>
        <time>2013-04-14T12:10:13Z</time>
      </trkpt>
      <trkpt lat="59.8551085" lon="17.7996005">
        <ele>31.8607</ele>
        <time>2013-04-14T12:10:14Z</time>
      </trkpt>
      <trkpt lat="59.8551418" lon="17.799716">
        <ele>31.8607</ele>
        <time>2013-04-14T12:10:15Z</time>
      </trkpt>
      <trkpt lat="59.8551755" lon="17.7998287">
        <ele>31.8607</ele>
        <time>2013-04-14T12:10:16Z</time>
      </trkpt>
      <trkpt lat="59.8552089" lon="17.7999402">
        <ele>31.8607</ele>
        <time>2013-04-14T12:10:17Z</time>
      </trkpt>
      <trkpt lat="59.8552431" lon="17.8000494">
        <ele>31.8607</ele>
        <time>2013-04-14T12:10:18Z</time>
      </trkpt>
      <trkpt lat="59.855275" lon="17.8001614">
        <ele>32.3416</ele>
        <time>2013-04-14T12:10:19Z</time>
      </trkpt>
      <trkpt lat="59.8553067" lon="17.8002749">
        <ele>32.3416</ele>
        <time>2013-04-14T12:10:20Z</time>
      </trkpt>
      <trkpt lat="59.8553385" lon="17.8003851">
        <ele>32.3416</ele>
        <time>2013-04-14T12:10:21Z</time>
      </trkpt>
      <trkpt lat="59.8553687" lon="17.8004943">
        <ele>32.3416</ele>
        <time>2013-04-14T12:10:22Z</time>
      </trkpt>
      <trkpt lat="59.8553974" lon="17.8006043">
        <ele>32.3416</ele>
        <time>2013-04-14T12:10:23Z</time>
      </trkpt>
      <trkpt lat="59.855427" lon="17.8007152">
        <ele>31.8607</ele>
        <time>2013-04-14T12:10:24Z</time>
      </trkpt>
      <trkpt lat="59.8554592" lon="17.8008277">
        <ele>31.8607</ele>
        <time>2013-04-14T12:10:25Z</time>
      </trkpt>
      <trkpt lat="59.8554923" lon="17.8009421">
        <ele>31.3801</ele>
        <time>2013-04-14T12:10:26Z</time>
      </trkpt>
      <trkpt lat="59.8555254" lon="17.8010595">
        <ele>31.3801</ele>
        <time>2013-04-14T12:10:27Z</time>
      </trkpt>
      <trkpt lat="59.8555583" lon="17.8011804">
        <ele>30.8995</ele>
        <time>2013-04-14T12:10:28Z</time>
      </trkpt>
      <trkpt lat="59.8555905" lon="17.8013052">
        <ele>30.8995</ele>
        <time>2013-04-14T12:10:29Z</time>
      </trkpt>
      <trkpt lat="59.8556263" lon="17.8014285">
        <ele>30.4188</ele>
        <time>2013-04-14T12:10:30Z</time>
      </trkpt>
      <trkpt lat="59.8556621" lon="17.8015563">
        <ele>29.9381</ele>
        <time>2013-04-14T12:10:31Z</time>
      </trkpt>
      <trkpt lat="59.8556958" lon="17.8016911">
        <ele>29.4575</ele>
        <time>2013-04-14T12:10:32Z</time>
      </trkpt>
      <trkpt lat="59.8557264" lon="17.8018336">
        <ele>28.9769</ele>
        <time>2013-04-14T12:10:33Z</time>
      </trkpt>
      <trkpt lat="59.8557543" lon="17.8019848">
        <ele>28.4962</ele>
        <time>2013-04-14T12:10:34Z</time>
      </trkpt>
      <trkpt lat="59.8557849" lon="17.8021412">
        <ele>28.0155</ele>
        <time>2013-04-14T12:10:35Z</time>
      </trkpt>
      <trkpt lat="59.8558227" lon="17.802293">
        <ele>28.0155</ele>
        <time>2013-04-14T12:10:36Z</time>
      </trkpt>
      <trkpt lat="59.8558657" lon="17.8024398">
        <ele>27.5349</ele>
        <time>2013-04-14T12:10:37Z</time>
      </trkpt>
      <trkpt lat="59.8559088" lon="17.8025872">
        <ele>27.0543</ele>
        <time>2013-04-14T12:10:38Z</time>
      </trkpt>
      <trkpt lat="59.855951" lon="17.802736">
        <ele>27.0543</ele>
        <time>2013-04-14T12:10:39Z</time>
      </trkpt>
      <trkpt lat="59.8559961" lon="17.8028794">
        <ele>26.5736</ele>
        <time>2013-04-14T12:10:40Z</time>
      </trkpt>
      <trkpt lat="59.8560439" lon="17.8029971">
        <ele>26.5736</ele>
        <time>2013-04-14T12:10:41Z</time>
      </trkpt>
      <trkpt lat="59.8560926" lon="17.8031341">
        <ele>26.0929</ele>
        <time>2013-04-14T12:10:42Z</time>
      </trkpt>
      <trkpt lat="59.8561514" lon="17.8032579">
        <ele>25.6123</ele>
        <time>2013-04-14T12:10:43Z</time>
      </trkpt>
      <trkpt lat="59.8562015" lon="17.8033953">
        <ele>25.6123</ele>
        <time>2013-04-14T12:10:44Z</time>
      </trkpt>
      <trkpt lat="59.856247" lon="17.8035394">
        <ele>25.1317</ele>
        <time>2013-04-14T12:10:45Z</time>
      </trkpt>
      <trkpt lat="59.8562921" lon="17.8036882">
        <ele>24.651</ele>
        <time>2013-04-14T12:10:46Z</time>
      </trkpt>
      <trkpt lat="59.8563381" lon="17.8038413">
        <ele>23.6896</ele>
        <time>2013-04-14T12:10:47Z</time>
      </trkpt>
      <trkpt lat="59.8563851" lon="17.8039948">
        <ele>23.209</ele>
        <time>2013-04-14T12:10:48Z</time>
      </trkpt>
      <trkpt lat="59.8564329" lon="17.8041502">
        <ele>22.7283</ele>
        <time>2013-04-14T12:10:49Z</time>
      </trkpt>
      <trkpt lat="59.856481" lon="17.8043086">
        <ele>22.2476</ele>
        <time>2013-04-14T12:10:50Z</time>
      </trkpt>
      <trkpt lat="59.8565296" lon="17.8044669">
        <ele>21.2864</ele>
        <time>2013-04-14T12:10:51Z</time>
      </trkpt>
      <trkpt lat="59.8565776" lon="17.8046199">
        <ele>20.8057</ele>
        <time>2013-04-14T12:10:52Z</time>
      </trkpt>
      <trkpt lat="59.8566226" lon="17.8047606">
        <ele>20.325</ele>
        <time>2013-04-14T12:10:53Z</time>
      </trkpt>
      <trkpt lat="59.8566681" lon="17.804887">
        <ele>19.3638</ele>
        <time>2013-04-14T12:10:54Z</time>
      </trkpt>
      <trkpt lat="59.8567204" lon="17.8049939">
        <ele>18.8831</ele>
        <time>2013-04-14T12:10:55Z</time>
      </trkpt>
      <trkpt lat="59.856776" lon="17.8050795">
        <ele>18.4023</ele>
        <time>2013-04-14T12:10:56Z</time>
      </trkpt>
      <trkpt lat="59.8568254" lon="17.8051559">
        <ele>17.9218</ele>
        <time>2013-04-14T12:10:57Z</time>
      </trkpt>
      <trkpt lat="59.8568608" lon="17.8052396">
        <ele>17.4412</ele>
        <time>2013-04-14T12:10:58Z</time>
      </trkpt>
      <trkpt lat="59.8568803" lon="17.8053334">
        <ele>16.9604</ele>
        <time>2013-04-14T12:10:59Z</time>
      </trkpt>
      <trkpt lat="59.8568768" lon="17.8054242">
        <ele>15.999</ele>
        <time>2013-04-14T12:11:00Z</time>
      </trkpt>
      <trkpt lat="59.8568552" lon="17.805509">
        <ele>15.999</ele>
        <time>2013-04-14T12:11:01Z</time>
      </trkpt>
      <trkpt lat="59.8568257" lon="17.8055824">
        <ele>15.999</ele>
        <time>2013-04-14T12:11:02Z</time>
      </trkpt>
      <trkpt lat="59.8567974" lon="17.8056461">
        <ele>15.5184</ele>
        <time>2013-04-14T12:11:03Z</time>
      </trkpt>
      <trkpt lat="59.856794" lon="17.8057519">
        <ele>15.5184</ele>
        <time>2013-04-14T12:11:04Z</time>
      </trkpt>
      <trkpt lat="59.856728" lon="17.8058465">
        <ele>16.9604</ele>
        <time>2013-04-14T12:11:05Z</time>
      </trkpt>
      <trkpt lat="59.8566377" lon="17.8059181">
        <ele>16.9604</ele>
        <time>2013-04-14T12:11:06Z</time>
      </trkpt>
      <trkpt lat="59.8566007" lon="17.8060015">
        <ele>17.4412</ele>
        <time>2013-04-14T12:11:07Z</time>
      </trkpt>
      <trkpt lat="59.8566003" lon="17.8060724">
        <ele>17.9218</ele>
        <time>2013-04-14T12:11:08Z</time>
      </trkpt>
      <trkpt lat="59.8566107" lon="17.806166">
        <ele>17.9218</ele>
        <time>2013-04-14T12:11:09Z</time>
      </trkpt>
      <trkpt lat="59.8566293" lon="17.8062564">
        <ele>17.9218</ele>
        <time>2013-04-14T12:11:10Z</time>
      </trkpt>
      <trkpt lat="59.8566485" lon="17.8063412">
        <ele>17.9218</ele>
        <time>2013-04-14T12:11:11Z</time>
      </trkpt>
      <trkpt lat="59.8566634" lon="17.8064231">
        <ele>17.9218</ele>
        <time>2013-04-14T12:11:12Z</time>
      </trkpt>
      <trkpt lat="59.8566793" lon="17.8065098">
        <ele>18.4023</ele>
        <time>2013-04-14T12:11:13Z</time>
      </trkpt>
      <trkpt lat="59.8566951" lon="17.8065978">
        <ele>18.4023</ele>
        <time>2013-04-14T12:11:14Z</time>
      </trkpt>
      <trkpt lat="59.8567083" lon="17.8066866">
        <ele>18.4023</ele>
        <time>2013-04-14T12:11:15Z</time>
      </trkpt>
      <trkpt lat="59.8567166" lon="17.8067786">
        <ele>18.8831</ele>
        <time>2013-04-14T12:11:16Z</time>
      </trkpt>
      <trkpt lat="59.8567135" lon="17.8068733">
        <ele>18.8831</ele>
        <time>2013-04-14T12:11:17Z</time>
      </trkpt>
      <trkpt lat="59.8567018" lon="17.8069689">
        <ele>19.3638</ele>
        <time>2013-04-14T12:11:18Z</time>
      </trkpt>
      <trkpt lat="59.8566857" lon="17.8070654">
        <ele>19.3638</ele>
        <time>2013-04-14T12:11:19Z</time>
      </trkpt>
      <trkpt lat="59.8566648" lon="17.8071635">
        <ele>19.3638</ele>
        <time>2013-04-14T12:11:20Z</time>
      </trkpt>
      <trkpt lat="59.8566425" lon="17.8072658">
        <ele>19.8444</ele>
        <time>2013-04-14T12:11:21Z</time>
      </trkpt>
      <trkpt lat="59.8566193" lon="17.8073696">
        <ele>19.8444</ele>
        <time>2013-04-14T12:11:22Z</time>
      </trkpt>
      <trkpt lat="59.8565972" lon="17.8074706">
        <ele>20.325</ele>
        <time>2013-04-14T12:11:23Z</time>
      </trkpt>
      <trkpt lat="59.8565749" lon="17.807569">
        <ele>19.8444</ele>
        <time>2013-04-14T12:11:24Z</time>
      </trkpt>
      <trkpt lat="59.8565531" lon="17.8076626">
        <ele>20.325</ele>
        <time>2013-04-14T12:11:25Z</time>
      </trkpt>
      <trkpt lat="59.8565313" lon="17.8077532">
        <ele>20.8057</ele>
        <time>2013-04-14T12:11:26Z</time>
      </trkpt>
      <trkpt lat="59.8565106" lon="17.8078408">
        <ele>20.8057</ele>
        <time>2013-04-14T12:11:27Z</time>
      </trkpt>
      <trkpt lat="59.8564908" lon="17.8079281">
        <ele>20.8057</ele>
        <time>2013-04-14T12:11:28Z</time>
      </trkpt>
      <trkpt lat="59.8564713" lon="17.8080165">
        <ele>21.2864</ele>
        <time>2013-04-14T12:11:29Z</time>
      </trkpt>
      <trkpt lat="59.8564521" lon="17.8081031">
        <ele>21.767</ele>
        <time>2013-04-14T12:11:30Z</time>
      </trkpt>
      <trkpt lat="59.8564334" lon="17.8081881">
        <ele>21.767</ele>
        <time>2013-04-14T12:11:31Z</time>
      </trkpt>
      <trkpt lat="59.8564177" lon="17.8082719">
        <ele>22.2476</ele>
        <time>2013-04-14T12:11:32Z</time>
      </trkpt>
      <trkpt lat="59.8564077" lon="17.8083558">
        <ele>22.2476</ele>
        <time>2013-04-14T12:11:33Z</time>
      </trkpt>
      <trkpt lat="59.8564012" lon="17.8084407">
        <ele>22.2476</ele>
        <time>2013-04-14T12:11:34Z</time>
      </trkpt>
      <trkpt lat="59.8563961" lon="17.8085283">
        <ele>22.2476</ele>
        <time>2013-04-14T12:11:35Z</time>
      </trkpt>
      <trkpt lat="59.856392" lon="17.8086201">
        <ele>22.2476</ele>
        <time>2013-04-14T12:11:36Z</time>
      </trkpt>
      <trkpt lat="59.8563894" lon="17.8087138">
        <ele>22.2476</ele>
        <time>2013-04-14T12:11:37Z</time>
      </trkpt>
      <trkpt lat="59.8563909" lon="17.8088075">
        <ele>22.2476</ele>
        <time>2013-04-14T12:11:38Z</time>
      </trkpt>
      <trkpt lat="59.8564009" lon="17.8088982">
        <ele>22.7283</ele>
        <time>2013-04-14T12:11:39Z</time>
      </trkpt>
      <trkpt lat="59.856423" lon="17.8089842">
        <ele>22.7283</ele>
        <time>2013-04-14T12:11:40Z</time>
      </trkpt>
      <trkpt lat="59.8564547" lon="17.8090653">
        <ele>22.7283</ele>
        <time>2013-04-14T12:11:41Z</time>
      </trkpt>
      <trkpt lat="59.8564894" lon="17.8091422">
        <ele>23.209</ele>
        <time>2013-04-14T12:11:42Z</time>
      </trkpt>
      <trkpt lat="59.856527" lon="17.8092167">
        <ele>23.209</ele>
        <time>2013-04-14T12:11:43Z</time>
      </trkpt>
      <trkpt lat="59.8565676" lon="17.8092925">
        <ele>23.209</ele>
        <time>2013-04-14T12:11:44Z</time>
      </trkpt>
      <trkpt lat="59.8566095" lon="17.8093707">
        <ele>23.209</ele>
        <time>2013-04-14T12:11:45Z</time>
      </trkpt>
      <trkpt lat="59.8566516" lon="17.8094515">
        <ele>23.209</ele>
        <time>2013-04-14T12:11:46Z</time>
      </trkpt>
      <trkpt lat="59.8566946" lon="17.8095343">
        <ele>23.209</ele>
        <time>2013-04-14T12:11:47Z</time>
      </trkpt>
      <trkpt lat="59.8567356" lon="17.8096214">
        <ele>23.209</ele>
        <time>2013-04-14T12:11:48Z</time>
      </trkpt>
      <trkpt lat="59.8567734" lon="17.8097125">
        <ele>23.209</ele>
        <time>2013-04-14T12:11:49Z</time>
      </trkpt>
      <trkpt lat="59.8568084" lon="17.8098047">
        <ele>23.209</ele>
        <time>2013-04-14T12:11:50Z</time>
      </trkpt>
      <trkpt lat="59.8568426" lon="17.8099019">
        <ele>23.209</ele>
        <time>2013-04-14T12:11:51Z</time>
      </trkpt>
      <trkpt lat="59.8568749" lon="17.8100031">
        <ele>22.7283</ele>
        <time>2013-04-14T12:11:52Z</time>
      </trkpt>
      <trkpt lat="59.8569054" lon="17.8101081">
        <ele>22.7283</ele>
        <time>2013-04-14T12:11:53Z</time>
      </trkpt>
      <trkpt lat="59.8569301" lon="17.8102196">
        <ele>22.7283</ele>
        <time>2013-04-14T12:11:54Z</time>
      </trkpt>
      <trkpt lat="59.8569471" lon="17.8103372">
        <ele>22.7283</ele>
        <time>2013-04-14T12:11:55Z</time>
      </trkpt>
      <trkpt lat="59.8569592" lon="17.8104564">
        <ele>22.7283</ele>
        <time>2013-04-14T12:11:56Z</time>
      </trkpt>
      <trkpt lat="59.856967" lon="17.810574">
        <ele>23.209</ele>
        <time>2013-04-14T12:11:57Z</time>
      </trkpt>
      <trkpt lat="59.8569696" lon="17.8106895">
        <ele>23.209</ele>
        <time>2013-04-14T12:11:58Z</time>
      </trkpt>
      <trkpt lat="59.8569668" lon="17.8108025">
        <ele>23.209</ele>
        <time>2013-04-14T12:11:59Z</time>
      </trkpt>
      <trkpt lat="59.8569613" lon="17.8109126">
        <ele>23.6896</ele>
        <time>2013-04-14T12:12:00Z</time>
      </trkpt>
      <trkpt lat="59.8569564" lon="17.811021">
        <ele>23.6896</ele>
        <time>2013-04-14T12:12:01Z</time>
      </trkpt>
      <trkpt lat="59.8569562" lon="17.8111338">
        <ele>23.209</ele>
        <time>2013-04-14T12:12:02Z</time>
      </trkpt>
      <trkpt lat="59.8569587" lon="17.8112546">
        <ele>23.209</ele>
        <time>2013-04-14T12:12:03Z</time>
      </trkpt>
      <trkpt lat="59.8569639" lon="17.8113835">
        <ele>23.209</ele>
        <time>2013-04-14T12:12:04Z</time>
      </trkpt>
      <trkpt lat="59.8569702" lon="17.8115174">
        <ele>22.7283</ele>
        <time>2013-04-14T12:12:05Z</time>
      </trkpt>
      <trkpt lat="59.8569837" lon="17.8116497">
        <ele>22.7283</ele>
        <time>2013-04-14T12:12:06Z</time>
      </trkpt>
      <trkpt lat="59.8570017" lon="17.8117788">
        <ele>22.7283</ele>
        <time>2013-04-14T12:12:07Z</time>
      </trkpt>
      <trkpt lat="59.8570239" lon="17.8119027">
        <ele>22.7283</ele>
        <time>2013-04-14T12:12:08Z</time>
      </trkpt>
      <trkpt lat="59.8570484" lon="17.8120218">
        <ele>22.7283</ele>
        <time>2013-04-14T12:12:09Z</time>
      </trkpt>
      <trkpt lat="59.8570728" lon="17.8121368">
        <ele>22.7283</ele>
        <time>2013-04-14T12:12:10Z</time>
      </trkpt>
      <trkpt lat="59.857097" lon="17.8122493">
        <ele>22.7283</ele>
        <time>2013-04-14T12:12:11Z</time>
      </trkpt>
      <trkpt lat="59.8571219" lon="17.8123604">
        <ele>23.209</ele>
        <time>2013-04-14T12:12:12Z</time>
      </trkpt>
      <trkpt lat="59.8571472" lon="17.8124689">
        <ele>23.209</ele>
        <time>2013-04-14T12:12:13Z</time>
      </trkpt>
      <trkpt lat="59.8571736" lon="17.8125744">
        <ele>23.209</ele>
        <time>2013-04-14T12:12:14Z</time>
      </trkpt>
      <trkpt lat="59.8572054" lon="17.8126719">
        <ele>23.209</ele>
        <time>2013-04-14T12:12:15Z</time>
      </trkpt>
      <trkpt lat="59.85724" lon="17.8127627">
        <ele>23.6896</ele>
        <time>2013-04-14T12:12:16Z</time>
      </trkpt>
      <trkpt lat="59.857274" lon="17.8128506">
        <ele>23.6896</ele>
        <time>2013-04-14T12:12:17Z</time>
      </trkpt>
      <trkpt lat="59.8573074" lon="17.8129371">
        <ele>23.6896</ele>
        <time>2013-04-14T12:12:18Z</time>
      </trkpt>
      <trkpt lat="59.8573429" lon="17.8130258">
        <ele>23.209</ele>
        <time>2013-04-14T12:12:19Z</time>
      </trkpt>
      <trkpt lat="59.8573819" lon="17.8131177">
        <ele>23.209</ele>
        <time>2013-04-14T12:12:20Z</time>
      </trkpt>
      <trkpt lat="59.857423" lon="17.8132146">
        <ele>23.209</ele>
        <time>2013-04-14T12:12:21Z</time>
      </trkpt>
      <trkpt lat="59.8574647" lon="17.813318">
        <ele>22.7283</ele>
        <time>2013-04-14T12:12:22Z</time>
      </trkpt>
      <trkpt lat="59.8575042" lon="17.8134282">
        <ele>22.2476</ele>
        <time>2013-04-14T12:12:23Z</time>
      </trkpt>
      <trkpt lat="59.8575378" lon="17.8135431">
        <ele>22.2476</ele>
        <time>2013-04-14T12:12:24Z</time>
      </trkpt>
      <trkpt lat="59.857561" lon="17.8136603">
        <ele>22.7283</ele>
        <time>2013-04-14T12:12:25Z</time>
      </trkpt>
      <trkpt lat="59.8575704" lon="17.8137778">
        <ele>22.2476</ele>
        <time>2013-04-14T12:12:26Z</time>
      </trkpt>
      <trkpt lat="59.8575688" lon="17.8138916">
        <ele>22.2476</ele>
        <time>2013-04-14T12:12:27Z</time>
      </trkpt>
      <trkpt lat="59.8575594" lon="17.8140021">
        <ele>22.2476</ele>
        <time>2013-04-14T12:12:28Z</time>
      </trkpt>
      <trkpt lat="59.8575485" lon="17.8141099">
        <ele>22.2476</ele>
        <time>2013-04-14T12:12:29Z</time>
      </trkpt>
      <trkpt lat="59.8575389" lon="17.8142161">
        <ele>22.2476</ele>
        <time>2013-04-14T12:12:30Z</time>
      </trkpt>
      <trkpt lat="59.8575343" lon="17.814319">
        <ele>22.2476</ele>
        <time>2013-04-14T12:12:31Z</time>
      </trkpt>
      <trkpt lat="59.8575372" lon="17.8144141">
        <ele>22.2476</ele>
        <time>2013-04-14T12:12:32Z</time>
      </trkpt>
      <trkpt lat="59.8575461" lon="17.8144957">
        <ele>22.2476</ele>
        <time>2013-04-14T12:12:33Z</time>
      </trkpt>
      <trkpt lat="59.8575646" lon="17.814558">
        <ele>22.2476</ele>
        <time>2013-04-14T12:12:34Z</time>
      </trkpt>
      <trkpt lat="59.8575865" lon="17.8145946">
        <ele>22.7283</ele>
        <time>2013-04-14T12:12:35Z</time>
      </trkpt>
      <trkpt lat="59.8576037" lon="17.8146139">
        <ele>22.7283</ele>
        <time>2013-04-14T12:12:36Z</time>
      </trkpt>
      <trkpt lat="59.8576146" lon="17.8146256">
        <ele>22.2476</ele>
        <time>2013-04-14T12:12:37Z</time>
      </trkpt>
      <trkpt lat="59.8576186" lon="17.8146305">
        <ele>22.2476</ele>
        <time>2013-04-14T12:12:38Z</time>
      </trkpt>
      <trkpt lat="59.8576192" lon="17.81463">
        <ele>22.2476</ele>
        <time>2013-04-14T12:12:39Z</time>
      </trkpt>
      <trkpt lat="59.8576192" lon="17.814629">
        <ele>22.2476</ele>
        <time>2013-04-14T12:12:40Z</time>
      </trkpt>
      <trkpt lat="59.8576187" lon="17.8146282">
        <ele>22.2476</ele>
        <time>2013-04-14T12:12:41Z</time>
      </trkpt>
      <trkpt lat="59.8576185" lon="17.8146288">
        <ele>22.2476</ele>
        <time>2013-04-14T12:12:42Z</time>
      </trkpt>
      <trkpt lat="59.8576223" lon="17.8146372">
        <ele>22.2476</ele>
        <time>2013-04-14T12:12:43Z</time>
      </trkpt>
      <trkpt lat="59.8576312" lon="17.8146532">
        <ele>22.2476</ele>
        <time>2013-04-14T12:12:44Z</time>
      </trkpt>
      <trkpt lat="59.857645" lon="17.8146671">
        <ele>22.2476</ele>
        <time>2013-04-14T12:12:45Z</time>
      </trkpt>
      <trkpt lat="59.8576627" lon="17.8146839">
        <ele>22.2476</ele>
        <time>2013-04-14T12:12:46Z</time>
      </trkpt>
      <trkpt lat="59.8576839" lon="17.8147046">
        <ele>22.2476</ele>
        <time>2013-04-14T12:12:47Z</time>
      </trkpt>
      <trkpt lat="59.8577092" lon="17.8147339">
        <ele>21.767</ele>
        <time>2013-04-14T12:12:48Z</time>
      </trkpt>
      <trkpt lat="59.8577394" lon="17.8147745">
        <ele>22.2476</ele>
        <time>2013-04-14T12:12:49Z</time>
      </trkpt>
      <trkpt lat="59.8577755" lon="17.8148194">
        <ele>22.2476</ele>
        <time>2013-04-14T12:12:50Z</time>
      </trkpt>
      <trkpt lat="59.8578176" lon="17.8148584">
        <ele>23.209</ele>
        <time>2013-04-14T12:12:51Z</time>
      </trkpt>
      <trkpt lat="59.8578661" lon="17.8148931">
        <ele>23.6896</ele>
        <time>2013-04-14T12:12:52Z</time>
      </trkpt>
      <trkpt lat="59.8579169" lon="17.8149253">
        <ele>24.1703</ele>
        <time>2013-04-14T12:12:53Z</time>
      </trkpt>
      <trkpt lat="59.8579668" lon="17.814953">
        <ele>24.1703</ele>
        <time>2013-04-14T12:12:54Z</time>
      </trkpt>
      <trkpt lat="59.8580128" lon="17.8149773">
        <ele>24.651</ele>
        <time>2013-04-14T12:12:55Z</time>
      </trkpt>
      <trkpt lat="59.8580546" lon="17.8149947">
        <ele>24.651</ele>
        <time>2013-04-14T12:12:56Z</time>
      </trkpt>
      <trkpt lat="59.8580951" lon="17.8150101">
        <ele>24.651</ele>
        <time>2013-04-14T12:12:57Z</time>
      </trkpt>
      <trkpt lat="59.8581356" lon="17.8150317">
        <ele>25.1317</ele>
        <time>2013-04-14T12:12:58Z</time>
      </trkpt>
      <trkpt lat="59.8581759" lon="17.8150578">
        <ele>25.1317</ele>
        <time>2013-04-14T12:12:59Z</time>
      </trkpt>
      <trkpt lat="59.8582162" lon="17.8150838">
        <ele>25.1317</ele>
        <time>2013-04-14T12:13:00Z</time>
      </trkpt>
      <trkpt lat="59.8582559" lon="17.815111">
        <ele>25.1317</ele>
        <time>2013-04-14T12:13:01Z</time>
      </trkpt>
      <trkpt lat="59.8582961" lon="17.8151406">
        <ele>25.6123</ele>
        <time>2013-04-14T12:13:02Z</time>
      </trkpt>
      <trkpt lat="59.8583361" lon="17.8151734">
        <ele>25.1317</ele>
        <time>2013-04-14T12:13:03Z</time>
      </trkpt>
      <trkpt lat="59.8583785" lon="17.8152082">
        <ele>25.1317</ele>
        <time>2013-04-14T12:13:04Z</time>
      </trkpt>
      <trkpt lat="59.8584256" lon="17.815245">
        <ele>24.651</ele>
        <time>2013-04-14T12:13:05Z</time>
      </trkpt>
      <trkpt lat="59.8584758" lon="17.8152884">
        <ele>24.651</ele>
        <time>2013-04-14T12:13:06Z</time>
      </trkpt>
      <trkpt lat="59.8585283" lon="17.8153376">
        <ele>24.1703</ele>
        <time>2013-04-14T12:13:07Z</time>
      </trkpt>
      <trkpt lat="59.8585825" lon="17.8153897">
        <ele>23.6896</ele>
        <time>2013-04-14T12:13:08Z</time>
      </trkpt>
      <trkpt lat="59.8586405" lon="17.815438">
        <ele>23.209</ele>
        <time>2013-04-14T12:13:09Z</time>
      </trkpt>
      <trkpt lat="59.8587012" lon="17.8154857">
        <ele>23.209</ele>
        <time>2013-04-14T12:13:10Z</time>
      </trkpt>
      <trkpt lat="59.8587622" lon="17.8155354">
        <ele>23.209</ele>
        <time>2013-04-14T12:13:11Z</time>
      </trkpt>
      <trkpt lat="59.8588231" lon="17.8155896">
        <ele>22.7283</ele>
        <time>2013-04-14T12:13:12Z</time>
      </trkpt>
      <trkpt lat="59.8588852" lon="17.8156456">
        <ele>22.2476</ele>
        <time>2013-04-14T12:13:13Z</time>
      </trkpt>
      <trkpt lat="59.8589484" lon="17.8156991">
        <ele>22.2476</ele>
        <time>2013-04-14T12:13:14Z</time>
      </trkpt>
      <trkpt lat="59.8590126" lon="17.8157525">
        <ele>21.767</ele>
        <time>2013-04-14T12:13:15Z</time>
      </trkpt>
      <trkpt lat="59.8590768" lon="17.8158069">
        <ele>21.767</ele>
        <time>2013-04-14T12:13:16Z</time>
      </trkpt>
      <trkpt lat="59.8591443" lon="17.8158659">
        <ele>21.2864</ele>
        <time>2013-04-14T12:13:17Z</time>
      </trkpt>
      <trkpt lat="59.8592115" lon="17.815931">
        <ele>20.8057</ele>
        <time>2013-04-14T12:13:18Z</time>
      </trkpt>
      <trkpt lat="59.8592782" lon="17.8159851">
        <ele>20.8057</ele>
        <time>2013-04-14T12:13:19Z</time>
      </trkpt>
      <trkpt lat="59.8593446" lon="17.8160391">
        <ele>20.8057</ele>
        <time>2013-04-14T12:13:20Z</time>
      </trkpt>
      <trkpt lat="59.8594106" lon="17.8160918">
        <ele>20.8057</ele>
        <time>2013-04-14T12:13:21Z</time>
      </trkpt>
      <trkpt lat="59.8594747" lon="17.8161431">
        <ele>20.8057</ele>
        <time>2013-04-14T12:13:22Z</time>
      </trkpt>
      <trkpt lat="59.8595358" lon="17.8161944">
        <ele>20.8057</ele>
        <time>2013-04-14T12:13:23Z</time>
      </trkpt>
      <trkpt lat="59.8595945" lon="17.8162488">
        <ele>20.325</ele>
        <time>2013-04-14T12:13:24Z</time>
      </trkpt>
      <trkpt lat="59.8596525" lon="17.8163063">
        <ele>20.325</ele>
        <time>2013-04-14T12:13:25Z</time>
      </trkpt>
      <trkpt lat="59.8597107" lon="17.8163637">
        <ele>20.325</ele>
        <time>2013-04-14T12:13:26Z</time>
      </trkpt>
      <trkpt lat="59.8597664" lon="17.8164166">
        <ele>20.325</ele>
        <time>2013-04-14T12:13:27Z</time>
      </trkpt>
      <trkpt lat="59.8598247" lon="17.8164675">
        <ele>20.8057</ele>
        <time>2013-04-14T12:13:28Z</time>
      </trkpt>
      <trkpt lat="59.8598835" lon="17.8165189">
        <ele>20.8057</ele>
        <time>2013-04-14T12:13:29Z</time>
      </trkpt>
      <trkpt lat="59.8599415" lon="17.8165746">
        <ele>21.2864</ele>
        <time>2013-04-14T12:13:30Z</time>
      </trkpt>
      <trkpt lat="59.8599979" lon="17.8166367">
        <ele>21.2864</ele>
        <time>2013-04-14T12:13:31Z</time>
      </trkpt>
      <trkpt lat="59.8600532" lon="17.8167023">
        <ele>21.2864</ele>
        <time>2013-04-14T12:13:32Z</time>
      </trkpt>
      <trkpt lat="59.8601077" lon="17.81677">
        <ele>21.767</ele>
        <time>2013-04-14T12:13:33Z</time>
      </trkpt>
      <trkpt lat="59.8601612" lon="17.816842">
        <ele>21.767</ele>
        <time>2013-04-14T12:13:34Z</time>
      </trkpt>
      <trkpt lat="59.8602155" lon="17.8169152">
        <ele>21.767</ele>
        <time>2013-04-14T12:13:35Z</time>
      </trkpt>
      <trkpt lat="59.8602698" lon="17.8169899">
        <ele>21.767</ele>
        <time>2013-04-14T12:13:36Z</time>
      </trkpt>
      <trkpt lat="59.8603241" lon="17.8170675">
        <ele>21.767</ele>
        <time>2013-04-14T12:13:37Z</time>
      </trkpt>
      <trkpt lat="59.8603794" lon="17.8171439">
        <ele>21.767</ele>
        <time>2013-04-14T12:13:38Z</time>
      </trkpt>
      <trkpt lat="59.8604345" lon="17.8172199">
        <ele>22.2476</ele>
        <time>2013-04-14T12:13:39Z</time>
      </trkpt>
      <trkpt lat="59.8604884" lon="17.8172967">
        <ele>22.2476</ele>
        <time>2013-04-14T12:13:40Z</time>
      </trkpt>
      <trkpt lat="59.8605424" lon="17.8173713">
        <ele>22.2476</ele>
        <time>2013-04-14T12:13:41Z</time>
      </trkpt>
      <trkpt lat="59.8605984" lon="17.8174403">
        <ele>22.7283</ele>
        <time>2013-04-14T12:13:42Z</time>
      </trkpt>
      <trkpt lat="59.860653" lon="17.8175056">
        <ele>22.7283</ele>
        <time>2013-04-14T12:13:43Z</time>
      </trkpt>
      <trkpt lat="59.860704" lon="17.8175715">
        <ele>23.209</ele>
        <time>2013-04-14T12:13:44Z</time>
      </trkpt>
      <trkpt lat="59.8607532" lon="17.8176381">
        <ele>23.209</ele>
        <time>2013-04-14T12:13:45Z</time>
      </trkpt>
      <trkpt lat="59.8608013" lon="17.8177047">
        <ele>23.6896</ele>
        <time>2013-04-14T12:13:46Z</time>
      </trkpt>
      <trkpt lat="59.8608489" lon="17.8177665">
        <ele>24.1703</ele>
        <time>2013-04-14T12:13:47Z</time>
      </trkpt>
      <trkpt lat="59.8608946" lon="17.8178259">
        <ele>23.6896</ele>
        <time>2013-04-14T12:13:48Z</time>
      </trkpt>
      <trkpt lat="59.8609401" lon="17.8178862">
        <ele>23.6896</ele>
        <time>2013-04-14T12:13:49Z</time>
      </trkpt>
      <trkpt lat="59.8609865" lon="17.8179466">
        <ele>23.6896</ele>
        <time>2013-04-14T12:13:50Z</time>
      </trkpt>
      <trkpt lat="59.8610363" lon="17.8180042">
        <ele>23.6896</ele>
        <time>2013-04-14T12:13:51Z</time>
      </trkpt>
      <trkpt lat="59.8610873" lon="17.8180587">
        <ele>23.209</ele>
        <time>2013-04-14T12:13:52Z</time>
      </trkpt>
      <trkpt lat="59.8611397" lon="17.8181115">
        <ele>23.209</ele>
        <time>2013-04-14T12:13:53Z</time>
      </trkpt>
      <trkpt lat="59.8611929" lon="17.8181652">
        <ele>22.7283</ele>
        <time>2013-04-14T12:13:54Z</time>
      </trkpt>
      <trkpt lat="59.8612474" lon="17.8182175">
        <ele>23.209</ele>
        <time>2013-04-14T12:13:55Z</time>
      </trkpt>
      <trkpt lat="59.8613018" lon="17.8182668">
        <ele>22.7283</ele>
        <time>2013-04-14T12:13:56Z</time>
      </trkpt>
      <trkpt lat="59.8613576" lon="17.818313">
        <ele>23.209</ele>
        <time>2013-04-14T12:13:57Z</time>
      </trkpt>
      <trkpt lat="59.8614115" lon="17.8183548">
        <ele>23.6896</ele>
        <time>2013-04-14T12:13:58Z</time>
      </trkpt>
      <trkpt lat="59.8614633" lon="17.818396">
        <ele>23.6896</ele>
        <time>2013-04-14T12:13:59Z</time>
      </trkpt>
      <trkpt lat="59.8615113" lon="17.8184378">
        <ele>23.6896</ele>
        <time>2013-04-14T12:14:00Z</time>
      </trkpt>
      <trkpt lat="59.861556" lon="17.81847">
        <ele>23.209</ele>
        <time>2013-04-14T12:14:01Z</time>
      </trkpt>
      <trkpt lat="59.8616004" lon="17.8184967">
        <ele>22.2476</ele>
        <time>2013-04-14T12:14:02Z</time>
      </trkpt>
      <trkpt lat="59.861646" lon="17.8185242">
        <ele>21.767</ele>
        <time>2013-04-14T12:14:03Z</time>
      </trkpt>
      <trkpt lat="59.8616912" lon="17.8185573">
        <ele>20.8057</ele>
        <time>2013-04-14T12:14:04Z</time>
      </trkpt>
      <trkpt lat="59.8617444" lon="17.818591">
        <ele>20.325</ele>
        <time>2013-04-14T12:14:05Z</time>
      </trkpt>
      <trkpt lat="59.8617989" lon="17.8186299">
        <ele>19.3638</ele>
        <time>2013-04-14T12:14:06Z</time>
      </trkpt>
      <trkpt lat="59.8618554" lon="17.818669">
        <ele>18.8831</ele>
        <time>2013-04-14T12:14:07Z</time>
      </trkpt>
      <trkpt lat="59.8619145" lon="17.8187066">
        <ele>18.4023</ele>
        <time>2013-04-14T12:14:08Z</time>
      </trkpt>
      <trkpt lat="59.861973" lon="17.8187506">
        <ele>17.4412</ele>
        <time>2013-04-14T12:14:09Z</time>
      </trkpt>
      <trkpt lat="59.8620358" lon="17.8188025">
        <ele>17.4412</ele>
        <time>2013-04-14T12:14:10Z</time>
      </trkpt>
      <trkpt lat="59.8620966" lon="17.8188591">
        <ele>16.4797</ele>
        <time>2013-04-14T12:14:11Z</time>
      </trkpt>
      <trkpt lat="59.8621583" lon="17.8189232">
        <ele>16.9604</ele>
        <time>2013-04-14T12:14:12Z</time>
      </trkpt>
      <trkpt lat="59.8622168" lon="17.8189985">
        <ele>16.9604</ele>
        <time>2013-04-14T12:14:13Z</time>
      </trkpt>
      <trkpt lat="59.8622725" lon="17.8190833">
        <ele>16.9604</ele>
        <time>2013-04-14T12:14:14Z</time>
      </trkpt>
      <trkpt lat="59.8623218" lon="17.8191767">
        <ele>17.4412</ele>
        <time>2013-04-14T12:14:15Z</time>
      </trkpt>
      <trkpt lat="59.8623595" lon="17.8192859">
        <ele>17.9218</ele>
        <time>2013-04-14T12:14:16Z</time>
      </trkpt>
      <trkpt lat="59.8623902" lon="17.8194091">
        <ele>17.9218</ele>
        <time>2013-04-14T12:14:17Z</time>
      </trkpt>
      <trkpt lat="59.8624201" lon="17.819537">
        <ele>18.4023</ele>
        <time>2013-04-14T12:14:18Z</time>
      </trkpt>
      <trkpt lat="59.8624466" lon="17.8196664">
        <ele>18.4023</ele>
        <time>2013-04-14T12:14:19Z</time>
      </trkpt>
      <trkpt lat="59.8624725" lon="17.8197957">
        <ele>18.8831</ele>
        <time>2013-04-14T12:14:20Z</time>
      </trkpt>
      <trkpt lat="59.8624987" lon="17.819925">
        <ele>18.8831</ele>
        <time>2013-04-14T12:14:21Z</time>
      </trkpt>
      <trkpt lat="59.8625257" lon="17.8200531">
        <ele>19.3638</ele>
        <time>2013-04-14T12:14:22Z</time>
      </trkpt>
      <trkpt lat="59.8625595" lon="17.8201834">
        <ele>20.8057</ele>
        <time>2013-04-14T12:14:23Z</time>
      </trkpt>
      <trkpt lat="59.8625947" lon="17.8203177">
        <ele>21.767</ele>
        <time>2013-04-14T12:14:24Z</time>
      </trkpt>
      <trkpt lat="59.8626329" lon="17.8204577">
        <ele>22.7283</ele>
        <time>2013-04-14T12:14:25Z</time>
      </trkpt>
      <trkpt lat="59.8626758" lon="17.8206053">
        <ele>23.209</ele>
        <time>2013-04-14T12:14:26Z</time>
      </trkpt>
      <trkpt lat="59.8627179" lon="17.8207626">
        <ele>22.7283</ele>
        <time>2013-04-14T12:14:27Z</time>
      </trkpt>
      <trkpt lat="59.8627615" lon="17.8209299">
        <ele>21.767</ele>
        <time>2013-04-14T12:14:28Z</time>
      </trkpt>
      <trkpt lat="59.8628112" lon="17.8211054">
        <ele>21.767</ele>
        <time>2013-04-14T12:14:29Z</time>
      </trkpt>
      <trkpt lat="59.8628661" lon="17.8212873">
        <ele>21.767</ele>
        <time>2013-04-14T12:14:30Z</time>
      </trkpt>
      <trkpt lat="59.8629242" lon="17.8214718">
        <ele>21.2864</ele>
        <time>2013-04-14T12:14:31Z</time>
      </trkpt>
      <trkpt lat="59.8629836" lon="17.8216557">
        <ele>21.2864</ele>
        <time>2013-04-14T12:14:32Z</time>
      </trkpt>
      <trkpt lat="59.8630402" lon="17.8218387">
        <ele>20.8057</ele>
        <time>2013-04-14T12:14:33Z</time>
      </trkpt>
      <trkpt lat="59.8630969" lon="17.8220221">
        <ele>20.325</ele>
        <time>2013-04-14T12:14:34Z</time>
      </trkpt>
      <trkpt lat="59.8631583" lon="17.8222036">
        <ele>20.325</ele>
        <time>2013-04-14T12:14:35Z</time>
      </trkpt>
      <trkpt lat="59.8632218" lon="17.8223831">
        <ele>19.8444</ele>
        <time>2013-04-14T12:14:36Z</time>
      </trkpt>
      <trkpt lat="59.8632878" lon="17.8225643">
        <ele>19.8444</ele>
        <time>2013-04-14T12:14:37Z</time>
      </trkpt>
      <trkpt lat="59.8633559" lon="17.8227456">
        <ele>19.8444</ele>
        <time>2013-04-14T12:14:38Z</time>
      </trkpt>
      <trkpt lat="59.8634262" lon="17.8229258">
        <ele>19.8444</ele>
        <time>2013-04-14T12:14:39Z</time>
      </trkpt>
      <trkpt lat="59.8634995" lon="17.8231042">
        <ele>19.3638</ele>
        <time>2013-04-14T12:14:40Z</time>
      </trkpt>
      <trkpt lat="59.8635752" lon="17.8232826">
        <ele>19.3638</ele>
        <time>2013-04-14T12:14:41Z</time>
      </trkpt>
      <trkpt lat="59.8636524" lon="17.8234615">
        <ele>19.3638</ele>
        <time>2013-04-14T12:14:42Z</time>
      </trkpt>
      <trkpt lat="59.86373" lon="17.823638">
        <ele>19.3638</ele>
        <time>2013-04-14T12:14:43Z</time>
      </trkpt>
      <trkpt lat="59.8638083" lon="17.8238127">
        <ele>18.8831</ele>
        <time>2013-04-14T12:14:44Z</time>
      </trkpt>
      <trkpt lat="59.8638854" lon="17.8239863">
        <ele>18.8831</ele>
        <time>2013-04-14T12:14:45Z</time>
      </trkpt>
      <trkpt lat="59.8639616" lon="17.8241578">
        <ele>19.3638</ele>
        <time>2013-04-14T12:14:46Z</time>
      </trkpt>
      <trkpt lat="59.8640373" lon="17.824323">
        <ele>19.3638</ele>
        <time>2013-04-14T12:14:47Z</time>
      </trkpt>
      <trkpt lat="59.8641107" lon="17.8244818">
        <ele>19.3638</ele>
        <time>2013-04-14T12:14:48Z</time>
      </trkpt>
      <trkpt lat="59.8641808" lon="17.8246367">
        <ele>19.3638</ele>
        <time>2013-04-14T12:14:49Z</time>
      </trkpt>
      <trkpt lat="59.8642483" lon="17.8247862">
        <ele>19.3638</ele>
        <time>2013-04-14T12:14:50Z</time>
      </trkpt>
      <trkpt lat="59.8643139" lon="17.8249306">
        <ele>19.8444</ele>
        <time>2013-04-14T12:14:51Z</time>
      </trkpt>
      <trkpt lat="59.8643776" lon="17.8250711">
        <ele>19.8444</ele>
        <time>2013-04-14T12:14:52Z</time>
      </trkpt>
      <trkpt lat="59.8644403" lon="17.825207">
        <ele>20.325</ele>
        <time>2013-04-14T12:14:53Z</time>
      </trkpt>
      <trkpt lat="59.8645008" lon="17.8253386">
        <ele>20.325</ele>
        <time>2013-04-14T12:14:54Z</time>
      </trkpt>
      <trkpt lat="59.8645587" lon="17.8254655">
        <ele>20.325</ele>
        <time>2013-04-14T12:14:55Z</time>
      </trkpt>
      <trkpt lat="59.8646139" lon="17.8255849">
        <ele>20.8057</ele>
        <time>2013-04-14T12:14:56Z</time>
      </trkpt>
      <trkpt lat="59.8646663" lon="17.8256966">
        <ele>20.8057</ele>
        <time>2013-04-14T12:14:57Z</time>
      </trkpt>
      <trkpt lat="59.8647155" lon="17.8257993">
        <ele>21.2864</ele>
        <time>2013-04-14T12:14:58Z</time>
      </trkpt>
      <trkpt lat="59.8647616" lon="17.8258934">
        <ele>21.767</ele>
        <time>2013-04-14T12:14:59Z</time>
      </trkpt>
      <trkpt lat="59.8648039" lon="17.8259796">
        <ele>21.767</ele>
        <time>2013-04-14T12:15:00Z</time>
      </trkpt>
      <trkpt lat="59.8648432" lon="17.8260595">
        <ele>21.767</ele>
        <time>2013-04-14T12:15:01Z</time>
      </trkpt>
      <trkpt lat="59.864883" lon="17.8261351">
        <ele>21.767</ele>
        <time>2013-04-14T12:15:02Z</time>
      </trkpt>
      <trkpt lat="59.8649237" lon="17.8262075">
        <ele>21.767</ele>
        <time>2013-04-14T12:15:03Z</time>
      </trkpt>
      <trkpt lat="59.8649669" lon="17.8262769">
        <ele>22.2476</ele>
        <time>2013-04-14T12:15:04Z</time>
      </trkpt>
      <trkpt lat="59.8650096" lon="17.826343">
        <ele>21.767</ele>
        <time>2013-04-14T12:15:05Z</time>
      </trkpt>
      <trkpt lat="59.8650538" lon="17.8264028">
        <ele>21.767</ele>
        <time>2013-04-14T12:15:06Z</time>
      </trkpt>
      <trkpt lat="59.8650995" lon="17.8264545">
        <ele>21.2864</ele>
        <time>2013-04-14T12:15:07Z</time>
      </trkpt>
      <trkpt lat="59.8651485" lon="17.8264951">
        <ele>21.767</ele>
        <time>2013-04-14T12:15:08Z</time>
      </trkpt>
      <trkpt lat="59.8652" lon="17.8265245">
        <ele>21.767</ele>
        <time>2013-04-14T12:15:09Z</time>
      </trkpt>
      <trkpt lat="59.865253" lon="17.8265446">
        <ele>21.767</ele>
        <time>2013-04-14T12:15:10Z</time>
      </trkpt>
      <trkpt lat="59.865308" lon="17.8265592">
        <ele>21.767</ele>
        <time>2013-04-14T12:15:11Z</time>
      </trkpt>
      <trkpt lat="59.8653644" lon="17.8265751">
        <ele>21.767</ele>
        <time>2013-04-14T12:15:12Z</time>
      </trkpt>
      <trkpt lat="59.8654218" lon="17.8265927">
        <ele>21.2864</ele>
        <time>2013-04-14T12:15:13Z</time>
      </trkpt>
      <trkpt lat="59.8654799" lon="17.8266084">
        <ele>21.2864</ele>
        <time>2013-04-14T12:15:14Z</time>
      </trkpt>
      <trkpt lat="59.8655384" lon="17.8266235">
        <ele>21.2864</ele>
        <time>2013-04-14T12:15:15Z</time>
      </trkpt>
      <trkpt lat="59.8655977" lon="17.8266399">
        <ele>20.8057</ele>
        <time>2013-04-14T12:15:16Z</time>
      </trkpt>
      <trkpt lat="59.865659" lon="17.8266576">
        <ele>20.8057</ele>
        <time>2013-04-14T12:15:17Z</time>
      </trkpt>
      <trkpt lat="59.8657219" lon="17.8266737">
        <ele>20.8057</ele>
        <time>2013-04-14T12:15:18Z</time>
      </trkpt>
      <trkpt lat="59.8657866" lon="17.8266851">
        <ele>20.325</ele>
        <time>2013-04-14T12:15:19Z</time>
      </trkpt>
      <trkpt lat="59.8658508" lon="17.8266939">
        <ele>20.325</ele>
        <time>2013-04-14T12:15:20Z</time>
      </trkpt>
      <trkpt lat="59.8659144" lon="17.8267028">
        <ele>20.325</ele>
        <time>2013-04-14T12:15:21Z</time>
      </trkpt>
      <trkpt lat="59.8659776" lon="17.8267136">
        <ele>20.325</ele>
        <time>2013-04-14T12:15:22Z</time>
      </trkpt>
      <trkpt lat="59.8660394" lon="17.8267202">
        <ele>19.8444</ele>
        <time>2013-04-14T12:15:23Z</time>
      </trkpt>
      <trkpt lat="59.8661016" lon="17.8267245">
        <ele>19.8444</ele>
        <time>2013-04-14T12:15:24Z</time>
      </trkpt>
      <trkpt lat="59.8661653" lon="17.8267275">
        <ele>19.3638</ele>
        <time>2013-04-14T12:15:25Z</time>
      </trkpt>
      <trkpt lat="59.8662306" lon="17.8267291">
        <ele>19.3638</ele>
        <time>2013-04-14T12:15:26Z</time>
      </trkpt>
      <trkpt lat="59.866299" lon="17.8267306">
        <ele>19.3638</ele>
        <time>2013-04-14T12:15:27Z</time>
      </trkpt>
      <trkpt lat="59.8663651" lon="17.8267248">
        <ele>18.8831</ele>
        <time>2013-04-14T12:15:28Z</time>
      </trkpt>
      <trkpt lat="59.8664284" lon="17.8267094">
        <ele>18.8831</ele>
        <time>2013-04-14T12:15:29Z</time>
      </trkpt>
      <trkpt lat="59.8664918" lon="17.8266882">
        <ele>18.8831</ele>
        <time>2013-04-14T12:15:30Z</time>
      </trkpt>
      <trkpt lat="59.8665577" lon="17.8266613">
        <ele>18.8831</ele>
        <time>2013-04-14T12:15:31Z</time>
      </trkpt>
      <trkpt lat="59.8666257" lon="17.8266326">
        <ele>19.3638</ele>
        <time>2013-04-14T12:15:32Z</time>
      </trkpt>
      <trkpt lat="59.8666936" lon="17.8266041">
        <ele>19.8444</ele>
        <time>2013-04-14T12:15:33Z</time>
      </trkpt>
      <trkpt lat="59.866761" lon="17.8265748">
        <ele>19.8444</ele>
        <time>2013-04-14T12:15:34Z</time>
      </trkpt>
      <trkpt lat="59.8668268" lon="17.8265431">
        <ele>20.325</ele>
        <time>2013-04-14T12:15:35Z</time>
      </trkpt>
      <trkpt lat="59.8668895" lon="17.826509">
        <ele>20.8057</ele>
        <time>2013-04-14T12:15:36Z</time>
      </trkpt>
      <trkpt lat="59.8669496" lon="17.8264723">
        <ele>21.2864</ele>
        <time>2013-04-14T12:15:37Z</time>
      </trkpt>
      <trkpt lat="59.8670084" lon="17.8264345">
        <ele>21.2864</ele>
        <time>2013-04-14T12:15:38Z</time>
      </trkpt>
      <trkpt lat="59.8670659" lon="17.8263981">
        <ele>21.767</ele>
        <time>2013-04-14T12:15:39Z</time>
      </trkpt>
      <trkpt lat="59.8671224" lon="17.8263594">
        <ele>21.767</ele>
        <time>2013-04-14T12:15:40Z</time>
      </trkpt>
      <trkpt lat="59.8671768" lon="17.8263178">
        <ele>21.767</ele>
        <time>2013-04-14T12:15:41Z</time>
      </trkpt>
      <trkpt lat="59.8672296" lon="17.8262794">
        <ele>22.2476</ele>
        <time>2013-04-14T12:15:42Z</time>
      </trkpt>
      <trkpt lat="59.8672821" lon="17.8262433">
        <ele>22.2476</ele>
        <time>2013-04-14T12:15:43Z</time>
      </trkpt>
      <trkpt lat="59.8673329" lon="17.8262066">
        <ele>22.7283</ele>
        <time>2013-04-14T12:15:44Z</time>
      </trkpt>
      <trkpt lat="59.8673826" lon="17.8261682">
        <ele>23.209</ele>
        <time>2013-04-14T12:15:45Z</time>
      </trkpt>
      <trkpt lat="59.8674313" lon="17.8261369">
        <ele>23.6896</ele>
        <time>2013-04-14T12:15:46Z</time>
      </trkpt>
      <trkpt lat="59.8674795" lon="17.8261096">
        <ele>24.1703</ele>
        <time>2013-04-14T12:15:47Z</time>
      </trkpt>
      <trkpt lat="59.8675261" lon="17.8260819">
        <ele>24.1703</ele>
        <time>2013-04-14T12:15:48Z</time>
      </trkpt>
      <trkpt lat="59.8675707" lon="17.8260496">
        <ele>24.651</ele>
        <time>2013-04-14T12:15:49Z</time>
      </trkpt>
      <trkpt lat="59.8676157" lon="17.8260159">
        <ele>24.651</ele>
        <time>2013-04-14T12:15:50Z</time>
      </trkpt>
      <trkpt lat="59.8676599" lon="17.8259864">
        <ele>24.651</ele>
        <time>2013-04-14T12:15:51Z</time>
      </trkpt>
      <trkpt lat="59.8677031" lon="17.8259522">
        <ele>25.1317</ele>
        <time>2013-04-14T12:15:52Z</time>
      </trkpt>
      <trkpt lat="59.8677456" lon="17.8259163">
        <ele>25.1317</ele>
        <time>2013-04-14T12:15:53Z</time>
      </trkpt>
      <trkpt lat="59.8677882" lon="17.8258811">
        <ele>24.651</ele>
        <time>2013-04-14T12:15:54Z</time>
      </trkpt>
      <trkpt lat="59.8678311" lon="17.8258458">
        <ele>25.1317</ele>
        <time>2013-04-14T12:15:55Z</time>
      </trkpt>
      <trkpt lat="59.867875" lon="17.8258108">
        <ele>25.1317</ele>
        <time>2013-04-14T12:15:56Z</time>
      </trkpt>
      <trkpt lat="59.8679188" lon="17.8257796">
        <ele>25.1317</ele>
        <time>2013-04-14T12:15:57Z</time>
      </trkpt>
      <trkpt lat="59.8679618" lon="17.8257466">
        <ele>25.1317</ele>
        <time>2013-04-14T12:15:58Z</time>
      </trkpt>
      <trkpt lat="59.8680053" lon="17.8257154">
        <ele>25.6123</ele>
        <time>2013-04-14T12:15:59Z</time>
      </trkpt>
      <trkpt lat="59.8680488" lon="17.8256885">
        <ele>25.6123</ele>
        <time>2013-04-14T12:16:00Z</time>
      </trkpt>
      <trkpt lat="59.8680924" lon="17.8256623">
        <ele>25.6123</ele>
        <time>2013-04-14T12:16:01Z</time>
      </trkpt>
      <trkpt lat="59.8681363" lon="17.8256367">
        <ele>25.6123</ele>
        <time>2013-04-14T12:16:02Z</time>
      </trkpt>
      <trkpt lat="59.8681829" lon="17.8256184">
        <ele>26.0929</ele>
        <time>2013-04-14T12:16:03Z</time>
      </trkpt>
      <trkpt lat="59.8682304" lon="17.8256067">
        <ele>26.5736</ele>
        <time>2013-04-14T12:16:04Z</time>
      </trkpt>
      <trkpt lat="59.8682798" lon="17.8256061">
        <ele>27.0543</ele>
        <time>2013-04-14T12:16:05Z</time>
      </trkpt>
      <trkpt lat="59.8683302" lon="17.8256143">
        <ele>27.5349</ele>
        <time>2013-04-14T12:16:06Z</time>
      </trkpt>
      <trkpt lat="59.8683797" lon="17.8256297">
        <ele>27.5349</ele>
        <time>2013-04-14T12:16:07Z</time>
      </trkpt>
      <trkpt lat="59.8684303" lon="17.8256504">
        <ele>27.5349</ele>
        <time>2013-04-14T12:16:08Z</time>
      </trkpt>
      <trkpt lat="59.8684799" lon="17.8256826">
        <ele>27.0543</ele>
        <time>2013-04-14T12:16:09Z</time>
      </trkpt>
      <trkpt lat="59.868529" lon="17.8257267">
        <ele>27.0543</ele>
        <time>2013-04-14T12:16:10Z</time>
      </trkpt>
      <trkpt lat="59.868578" lon="17.8257763">
        <ele>27.0543</ele>
        <time>2013-04-14T12:16:11Z</time>
      </trkpt>
      <trkpt lat="59.8686253" lon="17.8258359">
        <ele>26.5736</ele>
        <time>2013-04-14T12:16:12Z</time>
      </trkpt>
      <trkpt lat="59.8686712" lon="17.825903">
        <ele>26.5736</ele>
        <time>2013-04-14T12:16:13Z</time>
      </trkpt>
      <trkpt lat="59.8687156" lon="17.8259765">
        <ele>26.5736</ele>
        <time>2013-04-14T12:16:14Z</time>
      </trkpt>
      <trkpt lat="59.868761" lon="17.8260556">
        <ele>26.0929</ele>
        <time>2013-04-14T12:16:15Z</time>
      </trkpt>
      <trkpt lat="59.8688085" lon="17.8261407">
        <ele>26.0929</ele>
        <time>2013-04-14T12:16:16Z</time>
      </trkpt>
      <trkpt lat="59.8688557" lon="17.8262308">
        <ele>25.6123</ele>
        <time>2013-04-14T12:16:17Z</time>
      </trkpt>
      <trkpt lat="59.8689045" lon="17.8263245">
        <ele>25.6123</ele>
        <time>2013-04-14T12:16:18Z</time>
      </trkpt>
      <trkpt lat="59.8689562" lon="17.8264188">
        <ele>25.1317</ele>
        <time>2013-04-14T12:16:19Z</time>
      </trkpt>
      <trkpt lat="59.8690081" lon="17.826513">
        <ele>25.1317</ele>
        <time>2013-04-14T12:16:20Z</time>
      </trkpt>
      <trkpt lat="59.8690589" lon="17.8266069">
        <ele>25.1317</ele>
        <time>2013-04-14T12:16:21Z</time>
      </trkpt>
      <trkpt lat="59.8691087" lon="17.8266984">
        <ele>25.1317</ele>
        <time>2013-04-14T12:16:22Z</time>
      </trkpt>
      <trkpt lat="59.8691577" lon="17.8267865">
        <ele>25.1317</ele>
        <time>2013-04-14T12:16:23Z</time>
      </trkpt>
      <trkpt lat="59.869207" lon="17.8268734">
        <ele>25.6123</ele>
        <time>2013-04-14T12:16:24Z</time>
      </trkpt>
      <trkpt lat="59.8692573" lon="17.8269576">
        <ele>25.6123</ele>
        <time>2013-04-14T12:16:25Z</time>
      </trkpt>
      <trkpt lat="59.8693086" lon="17.8270389">
        <ele>25.6123</ele>
        <time>2013-04-14T12:16:26Z</time>
      </trkpt>
      <trkpt lat="59.8693604" lon="17.8271218">
        <ele>26.0929</ele>
        <time>2013-04-14T12:16:27Z</time>
      </trkpt>
      <trkpt lat="59.8694102" lon="17.8272089">
        <ele>26.0929</ele>
        <time>2013-04-14T12:16:28Z</time>
      </trkpt>
      <trkpt lat="59.8694592" lon="17.8272973">
        <ele>26.0929</ele>
        <time>2013-04-14T12:16:29Z</time>
      </trkpt>
      <trkpt lat="59.8695071" lon="17.8273848">
        <ele>26.5736</ele>
        <time>2013-04-14T12:16:30Z</time>
      </trkpt>
      <trkpt lat="59.8695549" lon="17.8274688">
        <ele>26.5736</ele>
        <time>2013-04-14T12:16:31Z</time>
      </trkpt>
      <trkpt lat="59.8696023" lon="17.8275528">
        <ele>26.5736</ele>
        <time>2013-04-14T12:16:32Z</time>
      </trkpt>
      <trkpt lat="59.8696503" lon="17.8276362">
        <ele>26.0929</ele>
        <time>2013-04-14T12:16:33Z</time>
      </trkpt>
      <trkpt lat="59.8697001" lon="17.8277185">
        <ele>26.0929</ele>
        <time>2013-04-14T12:16:34Z</time>
      </trkpt>
      <trkpt lat="59.8697536" lon="17.8277994">
        <ele>25.6123</ele>
        <time>2013-04-14T12:16:35Z</time>
      </trkpt>
      <trkpt lat="59.8698099" lon="17.8278799">
        <ele>25.6123</ele>
        <time>2013-04-14T12:16:36Z</time>
      </trkpt>
      <trkpt lat="59.8698675" lon="17.8279595">
        <ele>25.6123</ele>
        <time>2013-04-14T12:16:37Z</time>
      </trkpt>
      <trkpt lat="59.8699276" lon="17.8280366">
        <ele>25.1317</ele>
        <time>2013-04-14T12:16:38Z</time>
      </trkpt>
      <trkpt lat="59.8699904" lon="17.8281091">
        <ele>25.1317</ele>
        <time>2013-04-14T12:16:39Z</time>
      </trkpt>
      <trkpt lat="59.8700557" lon="17.8281774">
        <ele>24.651</ele>
        <time>2013-04-14T12:16:40Z</time>
      </trkpt>
      <trkpt lat="59.8701227" lon="17.8282425">
        <ele>24.651</ele>
        <time>2013-04-14T12:16:41Z</time>
      </trkpt>
      <trkpt lat="59.8701912" lon="17.8283065">
        <ele>24.1703</ele>
        <time>2013-04-14T12:16:42Z</time>
      </trkpt>
      <trkpt lat="59.8702605" lon="17.828372">
        <ele>24.1703</ele>
        <time>2013-04-14T12:16:43Z</time>
      </trkpt>
      <trkpt lat="59.8703305" lon="17.8284391">
        <ele>23.6896</ele>
        <time>2013-04-14T12:16:44Z</time>
      </trkpt>
      <trkpt lat="59.8704014" lon="17.8285049">
        <ele>23.6896</ele>
        <time>2013-04-14T12:16:45Z</time>
      </trkpt>
      <trkpt lat="59.8704734" lon="17.82857">
        <ele>23.6896</ele>
        <time>2013-04-14T12:16:46Z</time>
      </trkpt>
      <trkpt lat="59.8705466" lon="17.8286354">
        <ele>23.209</ele>
        <time>2013-04-14T12:16:47Z</time>
      </trkpt>
      <trkpt lat="59.8706212" lon="17.8287002">
        <ele>23.209</ele>
        <time>2013-04-14T12:16:48Z</time>
      </trkpt>
      <trkpt lat="59.8706958" lon="17.8287688">
        <ele>23.209</ele>
        <time>2013-04-14T12:16:49Z</time>
      </trkpt>
      <trkpt lat="59.8707678" lon="17.8288462">
        <ele>23.209</ele>
        <time>2013-04-14T12:16:50Z</time>
      </trkpt>
      <trkpt lat="59.8708383" lon="17.828927">
        <ele>23.209</ele>
        <time>2013-04-14T12:16:51Z</time>
      </trkpt>
      <trkpt lat="59.8709093" lon="17.8290035">
        <ele>23.209</ele>
        <time>2013-04-14T12:16:52Z</time>
      </trkpt>
      <trkpt lat="59.8709812" lon="17.8290752">
        <ele>23.209</ele>
        <time>2013-04-14T12:16:53Z</time>
      </trkpt>
      <trkpt lat="59.8710533" lon="17.8291432">
        <ele>23.209</ele>
        <time>2013-04-14T12:16:54Z</time>
      </trkpt>
      <trkpt lat="59.8711252" lon="17.829209">
        <ele>23.209</ele>
        <time>2013-04-14T12:16:55Z</time>
      </trkpt>
      <trkpt lat="59.8711963" lon="17.8292736">
        <ele>23.209</ele>
        <time>2013-04-14T12:16:56Z</time>
      </trkpt>
      <trkpt lat="59.8712672" lon="17.8293363">
        <ele>23.209</ele>
        <time>2013-04-14T12:16:57Z</time>
      </trkpt>
      <trkpt lat="59.8713379" lon="17.829399">
        <ele>23.6896</ele>
        <time>2013-04-14T12:16:58Z</time>
      </trkpt>
      <trkpt lat="59.8714091" lon="17.8294615">
        <ele>23.6896</ele>
        <time>2013-04-14T12:16:59Z</time>
      </trkpt>
      <trkpt lat="59.8714814" lon="17.8295248">
        <ele>23.6896</ele>
        <time>2013-04-14T12:17:00Z</time>
      </trkpt>
      <trkpt lat="59.8715553" lon="17.8295875">
        <ele>23.6896</ele>
        <time>2013-04-14T12:17:01Z</time>
      </trkpt>
      <trkpt lat="59.8716298" lon="17.8296486">
        <ele>24.1703</ele>
        <time>2013-04-14T12:17:02Z</time>
      </trkpt>
      <trkpt lat="59.8717031" lon="17.8297088">
        <ele>24.1703</ele>
        <time>2013-04-14T12:17:03Z</time>
      </trkpt>
      <trkpt lat="59.8717742" lon="17.8297679">
        <ele>24.1703</ele>
        <time>2013-04-14T12:17:04Z</time>
      </trkpt>
      <trkpt lat="59.8718401" lon="17.8298278">
        <ele>24.651</ele>
        <time>2013-04-14T12:17:05Z</time>
      </trkpt>
      <trkpt lat="59.8719012" lon="17.8298854">
        <ele>24.651</ele>
        <time>2013-04-14T12:17:06Z</time>
      </trkpt>
      <trkpt lat="59.8719578" lon="17.8299382">
        <ele>25.1317</ele>
        <time>2013-04-14T12:17:07Z</time>
      </trkpt>
      <trkpt lat="59.872009" lon="17.8299896">
        <ele>25.1317</ele>
        <time>2013-04-14T12:17:08Z</time>
      </trkpt>
      <trkpt lat="59.8720556" lon="17.8300413">
        <ele>25.6123</ele>
        <time>2013-04-14T12:17:09Z</time>
      </trkpt>
      <trkpt lat="59.8720996" lon="17.8300926">
        <ele>25.6123</ele>
        <time>2013-04-14T12:17:10Z</time>
      </trkpt>
      <trkpt lat="59.8721426" lon="17.8301413">
        <ele>25.6123</ele>
        <time>2013-04-14T12:17:11Z</time>
      </trkpt>
      <trkpt lat="59.8721868" lon="17.8301887">
        <ele>25.6123</ele>
        <time>2013-04-14T12:17:12Z</time>
      </trkpt>
      <trkpt lat="59.8722317" lon="17.8302356">
        <ele>25.6123</ele>
        <time>2013-04-14T12:17:13Z</time>
      </trkpt>
      <trkpt lat="59.8722773" lon="17.8302806">
        <ele>25.6123</ele>
        <time>2013-04-14T12:17:14Z</time>
      </trkpt>
      <trkpt lat="59.8723237" lon="17.8303231">
        <ele>26.0929</ele>
        <time>2013-04-14T12:17:15Z</time>
      </trkpt>
      <trkpt lat="59.8723695" lon="17.8303626">
        <ele>26.0929</ele>
        <time>2013-04-14T12:17:16Z</time>
      </trkpt>
      <trkpt lat="59.8724152" lon="17.8304012">
        <ele>26.0929</ele>
        <time>2013-04-14T12:17:17Z</time>
      </trkpt>
      <trkpt lat="59.8724611" lon="17.8304369">
        <ele>26.5736</ele>
        <time>2013-04-14T12:17:18Z</time>
      </trkpt>
      <trkpt lat="59.8725063" lon="17.830467">
        <ele>26.5736</ele>
        <time>2013-04-14T12:17:19Z</time>
      </trkpt>
      <trkpt lat="59.8725513" lon="17.830494">
        <ele>27.0543</ele>
        <time>2013-04-14T12:17:20Z</time>
      </trkpt>
      <trkpt lat="59.8725967" lon="17.8305176">
        <ele>27.5349</ele>
        <time>2013-04-14T12:17:21Z</time>
      </trkpt>
      <trkpt lat="59.872641" lon="17.8305387">
        <ele>27.5349</ele>
        <time>2013-04-14T12:17:22Z</time>
      </trkpt>
      <trkpt lat="59.872685" lon="17.8305578">
        <ele>27.5349</ele>
        <time>2013-04-14T12:17:23Z</time>
      </trkpt>
      <trkpt lat="59.872731" lon="17.8305754">
        <ele>27.5349</ele>
        <time>2013-04-14T12:17:24Z</time>
      </trkpt>
      <trkpt lat="59.8727768" lon="17.8305962">
        <ele>27.5349</ele>
        <time>2013-04-14T12:17:25Z</time>
      </trkpt>
      <trkpt lat="59.8728228" lon="17.8306192">
        <ele>28.0155</ele>
        <time>2013-04-14T12:17:26Z</time>
      </trkpt>
      <trkpt lat="59.8728709" lon="17.8306433">
        <ele>28.0155</ele>
        <time>2013-04-14T12:17:27Z</time>
      </trkpt>
      <trkpt lat="59.8729176" lon="17.8306741">
        <ele>28.4962</ele>
        <time>2013-04-14T12:17:28Z</time>
      </trkpt>
      <trkpt lat="59.8729616" lon="17.8307069">
        <ele>28.4962</ele>
        <time>2013-04-14T12:17:29Z</time>
      </trkpt>
      <trkpt lat="59.8730033" lon="17.8307345">
        <ele>28.0155</ele>
        <time>2013-04-14T12:17:30Z</time>
      </trkpt>
      <trkpt lat="59.8730437" lon="17.8307613">
        <ele>28.0155</ele>
        <time>2013-04-14T12:17:31Z</time>
      </trkpt>
      <trkpt lat="59.8730834" lon="17.8307893">
        <ele>28.0155</ele>
        <time>2013-04-14T12:17:32Z</time>
      </trkpt>
      <trkpt lat="59.8731232" lon="17.8308166">
        <ele>28.0155</ele>
        <time>2013-04-14T12:17:33Z</time>
      </trkpt>
      <trkpt lat="59.8731629" lon="17.8308441">
        <ele>28.0155</ele>
        <time>2013-04-14T12:17:34Z</time>
      </trkpt>
      <trkpt lat="59.873203" lon="17.830872">
        <ele>28.0155</ele>
        <time>2013-04-14T12:17:35Z</time>
      </trkpt>
      <trkpt lat="59.8732432" lon="17.8309016">
        <ele>28.0155</ele>
        <time>2013-04-14T12:17:36Z</time>
      </trkpt>
      <trkpt lat="59.8732833" lon="17.8309338">
        <ele>28.0155</ele>
        <time>2013-04-14T12:17:37Z</time>
      </trkpt>
      <trkpt lat="59.8733236" lon="17.8309685">
        <ele>28.0155</ele>
        <time>2013-04-14T12:17:38Z</time>
      </trkpt>
      <trkpt lat="59.8733641" lon="17.8310041">
        <ele>28.0155</ele>
        <time>2013-04-14T12:17:39Z</time>
      </trkpt>
      <trkpt lat="59.8734046" lon="17.831038">
        <ele>28.0155</ele>
        <time>2013-04-14T12:17:40Z</time>
      </trkpt>
      <trkpt lat="59.8734455" lon="17.8310695">
        <ele>28.0155</ele>
        <time>2013-04-14T12:17:41Z</time>
      </trkpt>
      <trkpt lat="59.8734858" lon="17.8311046">
        <ele>28.0155</ele>
        <time>2013-04-14T12:17:42Z</time>
      </trkpt>
      <trkpt lat="59.8735267" lon="17.8311441">
        <ele>28.4962</ele>
        <time>2013-04-14T12:17:43Z</time>
      </trkpt>
      <trkpt lat="59.8735661" lon="17.8311854">
        <ele>28.9769</ele>
        <time>2013-04-14T12:17:44Z</time>
      </trkpt>
      <trkpt lat="59.8736045" lon="17.8312291">
        <ele>28.9769</ele>
        <time>2013-04-14T12:17:45Z</time>
      </trkpt>
      <trkpt lat="59.8736421" lon="17.8312747">
        <ele>28.9769</ele>
        <time>2013-04-14T12:17:46Z</time>
      </trkpt>
      <trkpt lat="59.8736796" lon="17.8313197">
        <ele>28.9769</ele>
        <time>2013-04-14T12:17:47Z</time>
      </trkpt>
      <trkpt lat="59.873717" lon="17.8313643">
        <ele>29.4575</ele>
        <time>2013-04-14T12:17:48Z</time>
      </trkpt>
      <trkpt lat="59.8737526" lon="17.8314114">
        <ele>29.4575</ele>
        <time>2013-04-14T12:17:49Z</time>
      </trkpt>
      <trkpt lat="59.8737872" lon="17.8314591">
        <ele>29.9381</ele>
        <time>2013-04-14T12:17:50Z</time>
      </trkpt>
      <trkpt lat="59.8738225" lon="17.8315061">
        <ele>29.9381</ele>
        <time>2013-04-14T12:17:51Z</time>
      </trkpt>
      <trkpt lat="59.8738598" lon="17.8315522">
        <ele>29.9381</ele>
        <time>2013-04-14T12:17:52Z</time>
      </trkpt>
      <trkpt lat="59.8738979" lon="17.8315983">
        <ele>29.9381</ele>
        <time>2013-04-14T12:17:53Z</time>
      </trkpt>
      <trkpt lat="59.873936" lon="17.8316452">
        <ele>29.9381</ele>
        <time>2013-04-14T12:17:54Z</time>
      </trkpt>
      <trkpt lat="59.8739752" lon="17.8316892">
        <ele>30.4188</ele>
        <time>2013-04-14T12:17:55Z</time>
      </trkpt>
      <trkpt lat="59.8740137" lon="17.8317353">
        <ele>30.4188</ele>
        <time>2013-04-14T12:17:56Z</time>
      </trkpt>
      <trkpt lat="59.8740515" lon="17.8317853">
        <ele>30.4188</ele>
        <time>2013-04-14T12:17:57Z</time>
      </trkpt>
      <trkpt lat="59.8740901" lon="17.8318355">
        <ele>30.4188</ele>
        <time>2013-04-14T12:17:58Z</time>
      </trkpt>
      <trkpt lat="59.8741301" lon="17.8318845">
        <ele>30.4188</ele>
        <time>2013-04-14T12:17:59Z</time>
      </trkpt>
      <trkpt lat="59.8741707" lon="17.8319352">
        <ele>30.4188</ele>
        <time>2013-04-14T12:18:00Z</time>
      </trkpt>
      <trkpt lat="59.8742131" lon="17.831986">
        <ele>29.9381</ele>
        <time>2013-04-14T12:18:01Z</time>
      </trkpt>
      <trkpt lat="59.8742571" lon="17.832038">
        <ele>29.9381</ele>
        <time>2013-04-14T12:18:02Z</time>
      </trkpt>
      <trkpt lat="59.8743031" lon="17.83209">
        <ele>29.9381</ele>
        <time>2013-04-14T12:18:03Z</time>
      </trkpt>
      <trkpt lat="59.8743529" lon="17.8321373">
        <ele>29.4575</ele>
        <time>2013-04-14T12:18:04Z</time>
      </trkpt>
      <trkpt lat="59.8744066" lon="17.8321765">
        <ele>29.4575</ele>
        <time>2013-04-14T12:18:05Z</time>
      </trkpt>
      <trkpt lat="59.8744617" lon="17.8322122">
        <ele>29.4575</ele>
        <time>2013-04-14T12:18:06Z</time>
      </trkpt>
      <trkpt lat="59.8745211" lon="17.8322454">
        <ele>28.9769</ele>
        <time>2013-04-14T12:18:07Z</time>
      </trkpt>
      <trkpt lat="59.8745826" lon="17.8322786">
        <ele>28.9769</ele>
        <time>2013-04-14T12:18:08Z</time>
      </trkpt>
      <trkpt lat="59.8746487" lon="17.832304">
        <ele>28.4962</ele>
        <time>2013-04-14T12:18:09Z</time>
      </trkpt>
      <trkpt lat="59.8747145" lon="17.8323221">
        <ele>28.4962</ele>
        <time>2013-04-14T12:18:10Z</time>
      </trkpt>
      <trkpt lat="59.8747812" lon="17.8323386">
        <ele>28.4962</ele>
        <time>2013-04-14T12:18:11Z</time>
      </trkpt>
      <trkpt lat="59.8748459" lon="17.8323558">
        <ele>28.0155</ele>
        <time>2013-04-14T12:18:12Z</time>
      </trkpt>
      <trkpt lat="59.8749104" lon="17.8323748">
        <ele>28.0155</ele>
        <time>2013-04-14T12:18:13Z</time>
      </trkpt>
      <trkpt lat="59.8749744" lon="17.8323919">
        <ele>28.0155</ele>
        <time>2013-04-14T12:18:14Z</time>
      </trkpt>
      <trkpt lat="59.8750357" lon="17.8324082">
        <ele>28.0155</ele>
        <time>2013-04-14T12:18:15Z</time>
      </trkpt>
      <trkpt lat="59.8750968" lon="17.8324248">
        <ele>27.5349</ele>
        <time>2013-04-14T12:18:16Z</time>
      </trkpt>
      <trkpt lat="59.8751575" lon="17.8324427">
        <ele>27.5349</ele>
        <time>2013-04-14T12:18:17Z</time>
      </trkpt>
      <trkpt lat="59.8752175" lon="17.8324625">
        <ele>27.5349</ele>
        <time>2013-04-14T12:18:18Z</time>
      </trkpt>
      <trkpt lat="59.8752769" lon="17.8324843">
        <ele>27.5349</ele>
        <time>2013-04-14T12:18:19Z</time>
      </trkpt>
      <trkpt lat="59.8753356" lon="17.8325086">
        <ele>27.5349</ele>
        <time>2013-04-14T12:18:20Z</time>
      </trkpt>
      <trkpt lat="59.8753929" lon="17.8325369">
        <ele>27.5349</ele>
        <time>2013-04-14T12:18:21Z</time>
      </trkpt>
      <trkpt lat="59.875447" lon="17.8325697">
        <ele>27.5349</ele>
        <time>2013-04-14T12:18:22Z</time>
      </trkpt>
      <trkpt lat="59.8754996" lon="17.8326091">
        <ele>27.5349</ele>
        <time>2013-04-14T12:18:23Z</time>
      </trkpt>
      <trkpt lat="59.8755506" lon="17.8326547">
        <ele>27.0543</ele>
        <time>2013-04-14T12:18:24Z</time>
      </trkpt>
      <trkpt lat="59.8756019" lon="17.8327042">
        <ele>27.0543</ele>
        <time>2013-04-14T12:18:25Z</time>
      </trkpt>
      <trkpt lat="59.8756537" lon="17.8327563">
        <ele>26.5736</ele>
        <time>2013-04-14T12:18:26Z</time>
      </trkpt>
      <trkpt lat="59.875707" lon="17.8328093">
        <ele>26.5736</ele>
        <time>2013-04-14T12:18:27Z</time>
      </trkpt>
      <trkpt lat="59.8757614" lon="17.8328633">
        <ele>26.5736</ele>
        <time>2013-04-14T12:18:28Z</time>
      </trkpt>
      <trkpt lat="59.8758168" lon="17.8329205">
        <ele>26.0929</ele>
        <time>2013-04-14T12:18:29Z</time>
      </trkpt>
      <trkpt lat="59.8758731" lon="17.832981">
        <ele>26.0929</ele>
        <time>2013-04-14T12:18:30Z</time>
      </trkpt>
      <trkpt lat="59.8759315" lon="17.83304">
        <ele>26.0929</ele>
        <time>2013-04-14T12:18:31Z</time>
      </trkpt>
      <trkpt lat="59.8759928" lon="17.8330934">
        <ele>26.0929</ele>
        <time>2013-04-14T12:18:32Z</time>
      </trkpt>
      <trkpt lat="59.8760539" lon="17.8331437">
        <ele>25.6123</ele>
        <time>2013-04-14T12:18:33Z</time>
      </trkpt>
      <trkpt lat="59.8761189" lon="17.8331909">
        <ele>25.6123</ele>
        <time>2013-04-14T12:18:34Z</time>
      </trkpt>
      <trkpt lat="59.8761841" lon="17.8332373">
        <ele>25.6123</ele>
        <time>2013-04-14T12:18:35Z</time>
      </trkpt>
      <trkpt lat="59.8762477" lon="17.8332814">
        <ele>25.6123</ele>
        <time>2013-04-14T12:18:36Z</time>
      </trkpt>
      <trkpt lat="59.8763099" lon="17.8333219">
        <ele>25.1317</ele>
        <time>2013-04-14T12:18:37Z</time>
      </trkpt>
      <trkpt lat="59.8763671" lon="17.8333631">
        <ele>25.1317</ele>
        <time>2013-04-14T12:18:38Z</time>
      </trkpt>
      <trkpt lat="59.876426" lon="17.8334019">
        <ele>25.1317</ele>
        <time>2013-04-14T12:18:39Z</time>
      </trkpt>
      <trkpt lat="59.8764854" lon="17.8334374">
        <ele>25.6123</ele>
        <time>2013-04-14T12:18:40Z</time>
      </trkpt>
      <trkpt lat="59.8765445" lon="17.8334713">
        <ele>26.0929</ele>
        <time>2013-04-14T12:18:41Z</time>
      </trkpt>
      <trkpt lat="59.8766022" lon="17.8335056">
        <ele>26.5736</ele>
        <time>2013-04-14T12:18:42Z</time>
      </trkpt>
      <trkpt lat="59.876662" lon="17.8335405">
        <ele>26.5736</ele>
        <time>2013-04-14T12:18:43Z</time>
      </trkpt>
      <trkpt lat="59.876726" lon="17.8335781">
        <ele>26.0929</ele>
        <time>2013-04-14T12:18:44Z</time>
      </trkpt>
      <trkpt lat="59.8767931" lon="17.8336228">
        <ele>26.0929</ele>
        <time>2013-04-14T12:18:45Z</time>
      </trkpt>
      <trkpt lat="59.8768616" lon="17.8336737">
        <ele>25.1317</ele>
        <time>2013-04-14T12:18:46Z</time>
      </trkpt>
      <trkpt lat="59.8769327" lon="17.8337272">
        <ele>25.1317</ele>
        <time>2013-04-14T12:18:47Z</time>
      </trkpt>
      <trkpt lat="59.8770056" lon="17.8337835">
        <ele>25.1317</ele>
        <time>2013-04-14T12:18:48Z</time>
      </trkpt>
      <trkpt lat="59.8770796" lon="17.8338443">
        <ele>25.1317</ele>
        <time>2013-04-14T12:18:49Z</time>
      </trkpt>
      <trkpt lat="59.8771523" lon="17.8339119">
        <ele>25.6123</ele>
        <time>2013-04-14T12:18:50Z</time>
      </trkpt>
      <trkpt lat="59.8772227" lon="17.8339894">
        <ele>25.6123</ele>
        <time>2013-04-14T12:18:51Z</time>
      </trkpt>
      <trkpt lat="59.8772906" lon="17.8340739">
        <ele>25.6123</ele>
        <time>2013-04-14T12:18:52Z</time>
      </trkpt>
      <trkpt lat="59.8773575" lon="17.8341613">
        <ele>25.6123</ele>
        <time>2013-04-14T12:18:53Z</time>
      </trkpt>
      <trkpt lat="59.8774237" lon="17.8342469">
        <ele>25.6123</ele>
        <time>2013-04-14T12:18:54Z</time>
      </trkpt>
      <trkpt lat="59.8774898" lon="17.834332">
        <ele>25.6123</ele>
        <time>2013-04-14T12:18:55Z</time>
      </trkpt>
      <trkpt lat="59.8775547" lon="17.8344174">
        <ele>25.6123</ele>
        <time>2013-04-14T12:18:56Z</time>
      </trkpt>
      <trkpt lat="59.8776205" lon="17.8344998">
        <ele>25.6123</ele>
        <time>2013-04-14T12:18:57Z</time>
      </trkpt>
      <trkpt lat="59.8776853" lon="17.8345815">
        <ele>26.0929</ele>
        <time>2013-04-14T12:18:58Z</time>
      </trkpt>
      <trkpt lat="59.8777489" lon="17.8346607">
        <ele>26.0929</ele>
        <time>2013-04-14T12:18:59Z</time>
      </trkpt>
      <trkpt lat="59.8778126" lon="17.834737">
        <ele>26.0929</ele>
        <time>2013-04-14T12:19:00Z</time>
      </trkpt>
      <trkpt lat="59.877877" lon="17.8348119">
        <ele>26.0929</ele>
        <time>2013-04-14T12:19:01Z</time>
      </trkpt>
      <trkpt lat="59.8779428" lon="17.8348848">
        <ele>26.0929</ele>
        <time>2013-04-14T12:19:02Z</time>
      </trkpt>
      <trkpt lat="59.8780104" lon="17.8349551">
        <ele>26.0929</ele>
        <time>2013-04-14T12:19:03Z</time>
      </trkpt>
      <trkpt lat="59.878078" lon="17.8350261">
        <ele>26.0929</ele>
        <time>2013-04-14T12:19:04Z</time>
      </trkpt>
      <trkpt lat="59.8781462" lon="17.8350969">
        <ele>26.0929</ele>
        <time>2013-04-14T12:19:05Z</time>
      </trkpt>
      <trkpt lat="59.8782163" lon="17.8351654">
        <ele>26.0929</ele>
        <time>2013-04-14T12:19:06Z</time>
      </trkpt>
      <trkpt lat="59.8782872" lon="17.8352362">
        <ele>26.0929</ele>
        <time>2013-04-14T12:19:07Z</time>
      </trkpt>
      <trkpt lat="59.8783577" lon="17.8353044">
        <ele>26.0929</ele>
        <time>2013-04-14T12:19:08Z</time>
      </trkpt>
      <trkpt lat="59.8784281" lon="17.8353691">
        <ele>26.0929</ele>
        <time>2013-04-14T12:19:09Z</time>
      </trkpt>
      <trkpt lat="59.8784984" lon="17.8354305">
        <ele>26.0929</ele>
        <time>2013-04-14T12:19:10Z</time>
      </trkpt>
      <trkpt lat="59.8785688" lon="17.8354865">
        <ele>26.0929</ele>
        <time>2013-04-14T12:19:11Z</time>
      </trkpt>
      <trkpt lat="59.8786396" lon="17.8355377">
        <ele>26.0929</ele>
        <time>2013-04-14T12:19:12Z</time>
      </trkpt>
      <trkpt lat="59.8787101" lon="17.8355839">
        <ele>26.0929</ele>
        <time>2013-04-14T12:19:13Z</time>
      </trkpt>
      <trkpt lat="59.8787783" lon="17.8356263">
        <ele>26.0929</ele>
        <time>2013-04-14T12:19:14Z</time>
      </trkpt>
      <trkpt lat="59.8788446" lon="17.8356656">
        <ele>26.0929</ele>
        <time>2013-04-14T12:19:15Z</time>
      </trkpt>
      <trkpt lat="59.8789076" lon="17.835699">
        <ele>26.0929</ele>
        <time>2013-04-14T12:19:16Z</time>
      </trkpt>
      <trkpt lat="59.8789715" lon="17.8357255">
        <ele>26.0929</ele>
        <time>2013-04-14T12:19:17Z</time>
      </trkpt>
      <trkpt lat="59.8790369" lon="17.8357476">
        <ele>26.0929</ele>
        <time>2013-04-14T12:19:18Z</time>
      </trkpt>
      <trkpt lat="59.8791039" lon="17.8357647">
        <ele>26.0929</ele>
        <time>2013-04-14T12:19:19Z</time>
      </trkpt>
      <trkpt lat="59.8791741" lon="17.8357773">
        <ele>25.6123</ele>
        <time>2013-04-14T12:19:20Z</time>
      </trkpt>
      <trkpt lat="59.8792464" lon="17.835787">
        <ele>25.1317</ele>
        <time>2013-04-14T12:19:21Z</time>
      </trkpt>
      <trkpt lat="59.8793225" lon="17.8357954">
        <ele>25.1317</ele>
        <time>2013-04-14T12:19:22Z</time>
      </trkpt>
      <trkpt lat="59.8793997" lon="17.8358017">
        <ele>25.1317</ele>
        <time>2013-04-14T12:19:23Z</time>
      </trkpt>
      <trkpt lat="59.879474" lon="17.8358074">
        <ele>24.651</ele>
        <time>2013-04-14T12:19:24Z</time>
      </trkpt>
      <trkpt lat="59.8795476" lon="17.8358119">
        <ele>24.651</ele>
        <time>2013-04-14T12:19:25Z</time>
      </trkpt>
      <trkpt lat="59.8796188" lon="17.8358161">
        <ele>25.1317</ele>
        <time>2013-04-14T12:19:26Z</time>
      </trkpt>
      <trkpt lat="59.8796823" lon="17.8358243">
        <ele>25.1317</ele>
        <time>2013-04-14T12:19:27Z</time>
      </trkpt>
      <trkpt lat="59.8797411" lon="17.8358315">
        <ele>24.651</ele>
        <time>2013-04-14T12:19:28Z</time>
      </trkpt>
      <trkpt lat="59.8797967" lon="17.8358399">
        <ele>24.651</ele>
        <time>2013-04-14T12:19:29Z</time>
      </trkpt>
      <trkpt lat="59.87985" lon="17.8358545">
        <ele>24.651</ele>
        <time>2013-04-14T12:19:30Z</time>
      </trkpt>
      <trkpt lat="59.8799046" lon="17.8358761">
        <ele>25.1317</ele>
        <time>2013-04-14T12:19:31Z</time>
      </trkpt>
      <trkpt lat="59.8799599" lon="17.8359071">
        <ele>24.651</ele>
        <time>2013-04-14T12:19:32Z</time>
      </trkpt>
      <trkpt lat="59.8800175" lon="17.8359479">
        <ele>24.651</ele>
        <time>2013-04-14T12:19:33Z</time>
      </trkpt>
      <trkpt lat="59.8800776" lon="17.8359968">
        <ele>24.1703</ele>
        <time>2013-04-14T12:19:34Z</time>
      </trkpt>
      <trkpt lat="59.8801395" lon="17.8360528">
        <ele>24.1703</ele>
        <time>2013-04-14T12:19:35Z</time>
      </trkpt>
      <trkpt lat="59.8802018" lon="17.8361143">
        <ele>23.6896</ele>
        <time>2013-04-14T12:19:36Z</time>
      </trkpt>
      <trkpt lat="59.8802649" lon="17.8361796">
        <ele>23.6896</ele>
        <time>2013-04-14T12:19:37Z</time>
      </trkpt>
      <trkpt lat="59.8803285" lon="17.8362487">
        <ele>23.6896</ele>
        <time>2013-04-14T12:19:38Z</time>
      </trkpt>
      <trkpt lat="59.8803918" lon="17.836322">
        <ele>23.209</ele>
        <time>2013-04-14T12:19:39Z</time>
      </trkpt>
      <trkpt lat="59.8804539" lon="17.8364002">
        <ele>23.6896</ele>
        <time>2013-04-14T12:19:40Z</time>
      </trkpt>
      <trkpt lat="59.8805146" lon="17.8364815">
        <ele>23.6896</ele>
        <time>2013-04-14T12:19:41Z</time>
      </trkpt>
      <trkpt lat="59.8805747" lon="17.8365635">
        <ele>23.6896</ele>
        <time>2013-04-14T12:19:42Z</time>
      </trkpt>
      <trkpt lat="59.8806342" lon="17.8366458">
        <ele>23.6896</ele>
        <time>2013-04-14T12:19:43Z</time>
      </trkpt>
      <trkpt lat="59.8806918" lon="17.8367299">
        <ele>24.1703</ele>
        <time>2013-04-14T12:19:44Z</time>
      </trkpt>
      <trkpt lat="59.8807462" lon="17.8368169">
        <ele>24.1703</ele>
        <time>2013-04-14T12:19:45Z</time>
      </trkpt>
      <trkpt lat="59.8807981" lon="17.836905">
        <ele>24.651</ele>
        <time>2013-04-14T12:19:46Z</time>
      </trkpt>
      <trkpt lat="59.8808488" lon="17.836993">
        <ele>24.651</ele>
        <time>2013-04-14T12:19:47Z</time>
      </trkpt>
      <trkpt lat="59.8809017" lon="17.8370775">
        <ele>25.1317</ele>
        <time>2013-04-14T12:19:48Z</time>
      </trkpt>
      <trkpt lat="59.8809545" lon="17.8371587">
        <ele>25.6123</ele>
        <time>2013-04-14T12:19:49Z</time>
      </trkpt>
      <trkpt lat="59.8810074" lon="17.837241">
        <ele>25.6123</ele>
        <time>2013-04-14T12:19:50Z</time>
      </trkpt>
      <trkpt lat="59.8810623" lon="17.8373271">
        <ele>25.6123</ele>
        <time>2013-04-14T12:19:51Z</time>
      </trkpt>
      <trkpt lat="59.8811192" lon="17.8374129">
        <ele>25.6123</ele>
        <time>2013-04-14T12:19:52Z</time>
      </trkpt>
      <trkpt lat="59.8811753" lon="17.8375004">
        <ele>25.6123</ele>
        <time>2013-04-14T12:19:53Z</time>
      </trkpt>
      <trkpt lat="59.8812314" lon="17.8375867">
        <ele>25.6123</ele>
        <time>2013-04-14T12:19:54Z</time>
      </trkpt>
      <trkpt lat="59.8812876" lon="17.8376691">
        <ele>25.1317</ele>
        <time>2013-04-14T12:19:55Z</time>
      </trkpt>
      <trkpt lat="59.8813444" lon="17.8377462">
        <ele>25.1317</ele>
        <time>2013-04-14T12:19:56Z</time>
      </trkpt>
      <trkpt lat="59.8814005" lon="17.8378223">
        <ele>25.1317</ele>
        <time>2013-04-14T12:19:57Z</time>
      </trkpt>
      <trkpt lat="59.8814559" lon="17.8379035">
        <ele>25.6123</ele>
        <time>2013-04-14T12:19:58Z</time>
      </trkpt>
      <trkpt lat="59.8815098" lon="17.8379851">
        <ele>25.6123</ele>
        <time>2013-04-14T12:19:59Z</time>
      </trkpt>
      <trkpt lat="59.8815638" lon="17.8380664">
        <ele>25.1317</ele>
        <time>2013-04-14T12:20:00Z</time>
      </trkpt>
      <trkpt lat="59.881617" lon="17.8381487">
        <ele>25.1317</ele>
        <time>2013-04-14T12:20:01Z</time>
      </trkpt>
      <trkpt lat="59.8816698" lon="17.8382278">
        <ele>24.651</ele>
        <time>2013-04-14T12:20:02Z</time>
      </trkpt>
      <trkpt lat="59.8817222" lon="17.8383094">
        <ele>24.651</ele>
        <time>2013-04-14T12:20:03Z</time>
      </trkpt>
      <trkpt lat="59.8817683" lon="17.838402">
        <ele>24.651</ele>
        <time>2013-04-14T12:20:04Z</time>
      </trkpt>
      <trkpt lat="59.8818183" lon="17.838486">
        <ele>24.651</ele>
        <time>2013-04-14T12:20:05Z</time>
      </trkpt>
      <trkpt lat="59.8818696" lon="17.8385588">
        <ele>24.651</ele>
        <time>2013-04-14T12:20:06Z</time>
      </trkpt>
      <trkpt lat="59.8819209" lon="17.8386288">
        <ele>24.651</ele>
        <time>2013-04-14T12:20:07Z</time>
      </trkpt>
      <trkpt lat="59.8819708" lon="17.8387003">
        <ele>24.651</ele>
        <time>2013-04-14T12:20:08Z</time>
      </trkpt>
      <trkpt lat="59.8820262" lon="17.8387763">
        <ele>25.6123</ele>
        <time>2013-04-14T12:20:09Z</time>
      </trkpt>
      <trkpt lat="59.8820817" lon="17.8388349">
        <ele>25.6123</ele>
        <time>2013-04-14T12:20:10Z</time>
      </trkpt>
      <trkpt lat="59.8821396" lon="17.8388806">
        <ele>26.0929</ele>
        <time>2013-04-14T12:20:11Z</time>
      </trkpt>
      <trkpt lat="59.8821987" lon="17.8389178">
        <ele>26.0929</ele>
        <time>2013-04-14T12:20:12Z</time>
      </trkpt>
      <trkpt lat="59.8822581" lon="17.838949">
        <ele>26.5736</ele>
        <time>2013-04-14T12:20:13Z</time>
      </trkpt>
      <trkpt lat="59.8823172" lon="17.8389724">
        <ele>27.0543</ele>
        <time>2013-04-14T12:20:14Z</time>
      </trkpt>
      <trkpt lat="59.8823755" lon="17.8389892">
        <ele>27.0543</ele>
        <time>2013-04-14T12:20:15Z</time>
      </trkpt>
      <trkpt lat="59.8824309" lon="17.839004">
        <ele>27.0543</ele>
        <time>2013-04-14T12:20:16Z</time>
      </trkpt>
      <trkpt lat="59.8824865" lon="17.8390174">
        <ele>27.5349</ele>
        <time>2013-04-14T12:20:17Z</time>
      </trkpt>
      <trkpt lat="59.8825418" lon="17.8390327">
        <ele>28.0155</ele>
        <time>2013-04-14T12:20:18Z</time>
      </trkpt>
      <trkpt lat="59.8825961" lon="17.8390506">
        <ele>28.4962</ele>
        <time>2013-04-14T12:20:19Z</time>
      </trkpt>
      <trkpt lat="59.8826495" lon="17.8390728">
        <ele>28.9769</ele>
        <time>2013-04-14T12:20:20Z</time>
      </trkpt>
      <trkpt lat="59.8827008" lon="17.8391003">
        <ele>28.9769</ele>
        <time>2013-04-14T12:20:21Z</time>
      </trkpt>
      <trkpt lat="59.8827525" lon="17.839136">
        <ele>29.4575</ele>
        <time>2013-04-14T12:20:22Z</time>
      </trkpt>
      <trkpt lat="59.8828058" lon="17.8391786">
        <ele>29.4575</ele>
        <time>2013-04-14T12:20:23Z</time>
      </trkpt>
      <trkpt lat="59.8828592" lon="17.8392272">
        <ele>29.4575</ele>
        <time>2013-04-14T12:20:24Z</time>
      </trkpt>
      <trkpt lat="59.8829136" lon="17.8392822">
        <ele>29.4575</ele>
        <time>2013-04-14T12:20:25Z</time>
      </trkpt>
      <trkpt lat="59.8829704" lon="17.8393458">
        <ele>29.9381</ele>
        <time>2013-04-14T12:20:26Z</time>
      </trkpt>
      <trkpt lat="59.8830296" lon="17.8394209">
        <ele>30.4188</ele>
        <time>2013-04-14T12:20:27Z</time>
      </trkpt>
      <trkpt lat="59.8830871" lon="17.8394961">
        <ele>29.9381</ele>
        <time>2013-04-14T12:20:28Z</time>
      </trkpt>
      <trkpt lat="59.8831456" lon="17.8395788">
        <ele>29.4575</ele>
        <time>2013-04-14T12:20:29Z</time>
      </trkpt>
      <trkpt lat="59.8832095" lon="17.8396653">
        <ele>28.9769</ele>
        <time>2013-04-14T12:20:30Z</time>
      </trkpt>
      <trkpt lat="59.8832771" lon="17.8397554">
        <ele>28.4962</ele>
        <time>2013-04-14T12:20:31Z</time>
      </trkpt>
      <trkpt lat="59.8833461" lon="17.839852">
        <ele>28.4962</ele>
        <time>2013-04-14T12:20:32Z</time>
      </trkpt>
      <trkpt lat="59.883415" lon="17.8399507">
        <ele>28.0155</ele>
        <time>2013-04-14T12:20:33Z</time>
      </trkpt>
      <trkpt lat="59.8834855" lon="17.8400492">
        <ele>27.5349</ele>
        <time>2013-04-14T12:20:34Z</time>
      </trkpt>
      <trkpt lat="59.8835564" lon="17.8401476">
        <ele>27.0543</ele>
        <time>2013-04-14T12:20:35Z</time>
      </trkpt>
      <trkpt lat="59.8836277" lon="17.8402454">
        <ele>26.5736</ele>
        <time>2013-04-14T12:20:36Z</time>
      </trkpt>
      <trkpt lat="59.8836999" lon="17.8403424">
        <ele>26.0929</ele>
        <time>2013-04-14T12:20:37Z</time>
      </trkpt>
      <trkpt lat="59.8837726" lon="17.8404383">
        <ele>25.6123</ele>
        <time>2013-04-14T12:20:38Z</time>
      </trkpt>
      <trkpt lat="59.8838463" lon="17.8405354">
        <ele>25.1317</ele>
        <time>2013-04-14T12:20:39Z</time>
      </trkpt>
      <trkpt lat="59.8839202" lon="17.840633">
        <ele>25.1317</ele>
        <time>2013-04-14T12:20:40Z</time>
      </trkpt>
      <trkpt lat="59.8839932" lon="17.8407266">
        <ele>24.651</ele>
        <time>2013-04-14T12:20:41Z</time>
      </trkpt>
      <trkpt lat="59.8840672" lon="17.8408175">
        <ele>24.651</ele>
        <time>2013-04-14T12:20:42Z</time>
      </trkpt>
      <trkpt lat="59.8841397" lon="17.8409063">
        <ele>24.1703</ele>
        <time>2013-04-14T12:20:43Z</time>
      </trkpt>
      <trkpt lat="59.8842126" lon="17.8409931">
        <ele>23.6896</ele>
        <time>2013-04-14T12:20:44Z</time>
      </trkpt>
      <trkpt lat="59.8842858" lon="17.8410763">
        <ele>23.6896</ele>
        <time>2013-04-14T12:20:45Z</time>
      </trkpt>
      <trkpt lat="59.8843598" lon="17.8411535">
        <ele>23.6896</ele>
        <time>2013-04-14T12:20:46Z</time>
      </trkpt>
      <trkpt lat="59.884435" lon="17.8412241">
        <ele>23.6896</ele>
        <time>2013-04-14T12:20:47Z</time>
      </trkpt>
      <trkpt lat="59.884512" lon="17.8412883">
        <ele>23.6896</ele>
        <time>2013-04-14T12:20:48Z</time>
      </trkpt>
      <trkpt lat="59.8845915" lon="17.8413483">
        <ele>23.6896</ele>
        <time>2013-04-14T12:20:49Z</time>
      </trkpt>
      <trkpt lat="59.8846726" lon="17.841398">
        <ele>23.6896</ele>
        <time>2013-04-14T12:20:50Z</time>
      </trkpt>
      <trkpt lat="59.8847541" lon="17.8414384">
        <ele>23.6896</ele>
        <time>2013-04-14T12:20:51Z</time>
      </trkpt>
      <trkpt lat="59.8848365" lon="17.8414687">
        <ele>24.1703</ele>
        <time>2013-04-14T12:20:52Z</time>
      </trkpt>
      <trkpt lat="59.8849188" lon="17.8414898">
        <ele>24.1703</ele>
        <time>2013-04-14T12:20:53Z</time>
      </trkpt>
      <trkpt lat="59.8850012" lon="17.8414993">
        <ele>24.651</ele>
        <time>2013-04-14T12:20:54Z</time>
      </trkpt>
      <trkpt lat="59.8850802" lon="17.8415011">
        <ele>24.651</ele>
        <time>2013-04-14T12:20:55Z</time>
      </trkpt>
      <trkpt lat="59.8851562" lon="17.8414998">
        <ele>25.1317</ele>
        <time>2013-04-14T12:20:56Z</time>
      </trkpt>
      <trkpt lat="59.8852301" lon="17.8414997">
        <ele>25.1317</ele>
        <time>2013-04-14T12:20:57Z</time>
      </trkpt>
      <trkpt lat="59.8853007" lon="17.8414986">
        <ele>25.6123</ele>
        <time>2013-04-14T12:20:58Z</time>
      </trkpt>
      <trkpt lat="59.8853688" lon="17.8414927">
        <ele>26.0929</ele>
        <time>2013-04-14T12:20:59Z</time>
      </trkpt>
      <trkpt lat="59.8854368" lon="17.841486">
        <ele>26.5736</ele>
        <time>2013-04-14T12:21:00Z</time>
      </trkpt>
      <trkpt lat="59.8855047" lon="17.8414815">
        <ele>26.5736</ele>
        <time>2013-04-14T12:21:01Z</time>
      </trkpt>
      <trkpt lat="59.8855736" lon="17.8414752">
        <ele>26.5736</ele>
        <time>2013-04-14T12:21:02Z</time>
      </trkpt>
      <trkpt lat="59.8856434" lon="17.8414659">
        <ele>26.5736</ele>
        <time>2013-04-14T12:21:03Z</time>
      </trkpt>
      <trkpt lat="59.8857132" lon="17.8414582">
        <ele>26.5736</ele>
        <time>2013-04-14T12:21:04Z</time>
      </trkpt>
      <trkpt lat="59.8857821" lon="17.8414529">
        <ele>26.5736</ele>
        <time>2013-04-14T12:21:05Z</time>
      </trkpt>
      <trkpt lat="59.8858529" lon="17.8414479">
        <ele>27.0543</ele>
        <time>2013-04-14T12:21:06Z</time>
      </trkpt>
      <trkpt lat="59.8859258" lon="17.8414406">
        <ele>27.0543</ele>
        <time>2013-04-14T12:21:07Z</time>
      </trkpt>
      <trkpt lat="59.8859971" lon="17.8414344">
        <ele>27.5349</ele>
        <time>2013-04-14T12:21:08Z</time>
      </trkpt>
      <trkpt lat="59.8860698" lon="17.8414277">
        <ele>27.0543</ele>
        <time>2013-04-14T12:21:09Z</time>
      </trkpt>
      <trkpt lat="59.8861392" lon="17.8414095">
        <ele>27.0543</ele>
        <time>2013-04-14T12:21:10Z</time>
      </trkpt>
      <trkpt lat="59.886205" lon="17.8413831">
        <ele>27.0543</ele>
        <time>2013-04-14T12:21:11Z</time>
      </trkpt>
      <trkpt lat="59.8862714" lon="17.8413546">
        <ele>27.0543</ele>
        <time>2013-04-14T12:21:12Z</time>
      </trkpt>
      <trkpt lat="59.8863396" lon="17.8413235">
        <ele>27.0543</ele>
        <time>2013-04-14T12:21:13Z</time>
      </trkpt>
      <trkpt lat="59.8864091" lon="17.8412888">
        <ele>27.0543</ele>
        <time>2013-04-14T12:21:14Z</time>
      </trkpt>
      <trkpt lat="59.8864779" lon="17.841251">
        <ele>27.0543</ele>
        <time>2013-04-14T12:21:15Z</time>
      </trkpt>
      <trkpt lat="59.8865454" lon="17.8412106">
        <ele>26.5736</ele>
        <time>2013-04-14T12:21:16Z</time>
      </trkpt>
      <trkpt lat="59.8866174" lon="17.841171">
        <ele>26.5736</ele>
        <time>2013-04-14T12:21:17Z</time>
      </trkpt>
      <trkpt lat="59.8866923" lon="17.8411385">
        <ele>26.5736</ele>
        <time>2013-04-14T12:21:18Z</time>
      </trkpt>
      <trkpt lat="59.886768" lon="17.8411153">
        <ele>26.5736</ele>
        <time>2013-04-14T12:21:19Z</time>
      </trkpt>
      <trkpt lat="59.886844" lon="17.8411068">
        <ele>26.5736</ele>
        <time>2013-04-14T12:21:20Z</time>
      </trkpt>
      <trkpt lat="59.8869205" lon="17.8411183">
        <ele>26.5736</ele>
        <time>2013-04-14T12:21:21Z</time>
      </trkpt>
      <trkpt lat="59.886996" lon="17.8411501">
        <ele>26.5736</ele>
        <time>2013-04-14T12:21:22Z</time>
      </trkpt>
      <trkpt lat="59.8870675" lon="17.8412024">
        <ele>26.5736</ele>
        <time>2013-04-14T12:21:23Z</time>
      </trkpt>
      <trkpt lat="59.8871354" lon="17.8412736">
        <ele>27.0543</ele>
        <time>2013-04-14T12:21:24Z</time>
      </trkpt>
      <trkpt lat="59.8871969" lon="17.8413599">
        <ele>27.0543</ele>
        <time>2013-04-14T12:21:25Z</time>
      </trkpt>
      <trkpt lat="59.8872518" lon="17.8414557">
        <ele>27.0543</ele>
        <time>2013-04-14T12:21:26Z</time>
      </trkpt>
      <trkpt lat="59.8872991" lon="17.8415617">
        <ele>26.5736</ele>
        <time>2013-04-14T12:21:27Z</time>
      </trkpt>
      <trkpt lat="59.8873427" lon="17.8416674">
        <ele>27.0543</ele>
        <time>2013-04-14T12:21:28Z</time>
      </trkpt>
      <trkpt lat="59.8873834" lon="17.8417716">
        <ele>26.0929</ele>
        <time>2013-04-14T12:21:29Z</time>
      </trkpt>
      <trkpt lat="59.8874243" lon="17.8418735">
        <ele>25.6123</ele>
        <time>2013-04-14T12:21:30Z</time>
      </trkpt>
      <trkpt lat="59.8874643" lon="17.8419773">
        <ele>25.6123</ele>
        <time>2013-04-14T12:21:31Z</time>
      </trkpt>
      <trkpt lat="59.8875078" lon="17.8420753">
        <ele>25.1317</ele>
        <time>2013-04-14T12:21:32Z</time>
      </trkpt>
      <trkpt lat="59.8875551" lon="17.8421679">
        <ele>25.1317</ele>
        <time>2013-04-14T12:21:33Z</time>
      </trkpt>
      <trkpt lat="59.887605" lon="17.8422592">
        <ele>24.651</ele>
        <time>2013-04-14T12:21:34Z</time>
      </trkpt>
      <trkpt lat="59.8876579" lon="17.8423456">
        <ele>24.651</ele>
        <time>2013-04-14T12:21:35Z</time>
      </trkpt>
      <trkpt lat="59.8877129" lon="17.8424259">
        <ele>24.651</ele>
        <time>2013-04-14T12:21:36Z</time>
      </trkpt>
      <trkpt lat="59.887769" lon="17.8424984">
        <ele>24.651</ele>
        <time>2013-04-14T12:21:37Z</time>
      </trkpt>
      <trkpt lat="59.8878231" lon="17.8425643">
        <ele>24.651</ele>
        <time>2013-04-14T12:21:38Z</time>
      </trkpt>
      <trkpt lat="59.8878808" lon="17.8426272">
        <ele>25.1317</ele>
        <time>2013-04-14T12:21:39Z</time>
      </trkpt>
      <trkpt lat="59.8879404" lon="17.8426853">
        <ele>25.6123</ele>
        <time>2013-04-14T12:21:40Z</time>
      </trkpt>
      <trkpt lat="59.8880002" lon="17.8427433">
        <ele>26.0929</ele>
        <time>2013-04-14T12:21:41Z</time>
      </trkpt>
      <trkpt lat="59.8880598" lon="17.8427994">
        <ele>27.0543</ele>
        <time>2013-04-14T12:21:42Z</time>
      </trkpt>
      <trkpt lat="59.8881206" lon="17.8428522">
        <ele>27.5349</ele>
        <time>2013-04-14T12:21:43Z</time>
      </trkpt>
      <trkpt lat="59.8881812" lon="17.8429056">
        <ele>28.0155</ele>
        <time>2013-04-14T12:21:44Z</time>
      </trkpt>
      <trkpt lat="59.888239" lon="17.8429558">
        <ele>28.4962</ele>
        <time>2013-04-14T12:21:45Z</time>
      </trkpt>
      <trkpt lat="59.8883028" lon="17.8430014">
        <ele>28.9769</ele>
        <time>2013-04-14T12:21:46Z</time>
      </trkpt>
      <trkpt lat="59.8883662" lon="17.8430369">
        <ele>29.4575</ele>
        <time>2013-04-14T12:21:47Z</time>
      </trkpt>
      <trkpt lat="59.8884278" lon="17.8430662">
        <ele>29.9381</ele>
        <time>2013-04-14T12:21:48Z</time>
      </trkpt>
      <trkpt lat="59.8884831" lon="17.8430901">
        <ele>30.4188</ele>
        <time>2013-04-14T12:21:49Z</time>
      </trkpt>
      <trkpt lat="59.8885398" lon="17.8431081">
        <ele>29.9381</ele>
        <time>2013-04-14T12:21:50Z</time>
      </trkpt>
      <trkpt lat="59.8885915" lon="17.8431098">
        <ele>30.4188</ele>
        <time>2013-04-14T12:21:51Z</time>
      </trkpt>
      <trkpt lat="59.8886517" lon="17.8431096">
        <ele>30.4188</ele>
        <time>2013-04-14T12:21:52Z</time>
      </trkpt>
      <trkpt lat="59.8887122" lon="17.8431086">
        <ele>29.9381</ele>
        <time>2013-04-14T12:21:53Z</time>
      </trkpt>
      <trkpt lat="59.8887733" lon="17.8431072">
        <ele>30.4188</ele>
        <time>2013-04-14T12:21:54Z</time>
      </trkpt>
      <trkpt lat="59.8888363" lon="17.8431127">
        <ele>30.8995</ele>
        <time>2013-04-14T12:21:55Z</time>
      </trkpt>
      <trkpt lat="59.8889008" lon="17.8431331">
        <ele>30.8995</ele>
        <time>2013-04-14T12:21:56Z</time>
      </trkpt>
      <trkpt lat="59.8889627" lon="17.8431594">
        <ele>31.3801</ele>
        <time>2013-04-14T12:21:57Z</time>
      </trkpt>
      <trkpt lat="59.8890194" lon="17.8431848">
        <ele>31.3801</ele>
        <time>2013-04-14T12:21:58Z</time>
      </trkpt>
      <trkpt lat="59.8890769" lon="17.8432198">
        <ele>31.3801</ele>
        <time>2013-04-14T12:21:59Z</time>
      </trkpt>
      <trkpt lat="59.8891353" lon="17.843264">
        <ele>29.9381</ele>
        <time>2013-04-14T12:22:00Z</time>
      </trkpt>
      <trkpt lat="59.8891938" lon="17.8433012">
        <ele>30.4188</ele>
        <time>2013-04-14T12:22:01Z</time>
      </trkpt>
      <trkpt lat="59.8892535" lon="17.8433284">
        <ele>30.8995</ele>
        <time>2013-04-14T12:22:02Z</time>
      </trkpt>
      <trkpt lat="59.8893155" lon="17.843351">
        <ele>31.3801</ele>
        <time>2013-04-14T12:22:03Z</time>
      </trkpt>
      <trkpt lat="59.8893804" lon="17.8433634">
        <ele>31.8607</ele>
        <time>2013-04-14T12:22:04Z</time>
      </trkpt>
      <trkpt lat="59.8894439" lon="17.8433648">
        <ele>31.3801</ele>
        <time>2013-04-14T12:22:05Z</time>
      </trkpt>
      <trkpt lat="59.8895094" lon="17.8433446">
        <ele>30.8995</ele>
        <time>2013-04-14T12:22:06Z</time>
      </trkpt>
      <trkpt lat="59.8895711" lon="17.8433001">
        <ele>30.8995</ele>
        <time>2013-04-14T12:22:07Z</time>
      </trkpt>
      <trkpt lat="59.8896605" lon="17.8431334">
        <ele>32.3416</ele>
        <time>2013-04-14T12:22:08Z</time>
      </trkpt>
      <trkpt lat="59.8896933" lon="17.8430315">
        <ele>33.3029</ele>
        <time>2013-04-14T12:22:09Z</time>
      </trkpt>
      <trkpt lat="59.8897166" lon="17.8429269">
        <ele>33.7834</ele>
        <time>2013-04-14T12:22:10Z</time>
      </trkpt>
      <trkpt lat="59.8897327" lon="17.8428117">
        <ele>34.2642</ele>
        <time>2013-04-14T12:22:11Z</time>
      </trkpt>
      <trkpt lat="59.8897477" lon="17.842704">
        <ele>33.3029</ele>
        <time>2013-04-14T12:22:12Z</time>
      </trkpt>
      <trkpt lat="59.8897604" lon="17.842599">
        <ele>33.3029</ele>
        <time>2013-04-14T12:22:13Z</time>
      </trkpt>
      <trkpt lat="59.8897706" lon="17.8424982">
        <ele>34.7449</ele>
        <time>2013-04-14T12:22:14Z</time>
      </trkpt>
      <trkpt lat="59.889785" lon="17.8424118">
        <ele>34.7449</ele>
        <time>2013-04-14T12:22:15Z</time>
      </trkpt>
      <trkpt lat="59.889798" lon="17.8423228">
        <ele>35.7061</ele>
        <time>2013-04-14T12:22:16Z</time>
      </trkpt>
      <trkpt lat="59.8898092" lon="17.8422382">
        <ele>36.1868</ele>
        <time>2013-04-14T12:22:17Z</time>
      </trkpt>
      <trkpt lat="59.8898177" lon="17.8421496">
        <ele>36.1868</ele>
        <time>2013-04-14T12:22:18Z</time>
      </trkpt>
      <trkpt lat="59.889827" lon="17.8420584">
        <ele>36.6675</ele>
        <time>2013-04-14T12:22:19Z</time>
      </trkpt>
      <trkpt lat="59.8898347" lon="17.8419643">
        <ele>37.1481</ele>
        <time>2013-04-14T12:22:20Z</time>
      </trkpt>
      <trkpt lat="59.8898378" lon="17.841868">
        <ele>37.6287</ele>
        <time>2013-04-14T12:22:21Z</time>
      </trkpt>
      <trkpt lat="59.8898461" lon="17.8417724">
        <ele>38.1094</ele>
        <time>2013-04-14T12:22:22Z</time>
      </trkpt>
      <trkpt lat="59.8898524" lon="17.8416819">
        <ele>38.5901</ele>
        <time>2013-04-14T12:22:23Z</time>
      </trkpt>
      <trkpt lat="59.8898637" lon="17.8415924">
        <ele>39.5513</ele>
        <time>2013-04-14T12:22:24Z</time>
      </trkpt>
      <trkpt lat="59.8898793" lon="17.8415046">
        <ele>40.0321</ele>
        <time>2013-04-14T12:22:25Z</time>
      </trkpt>
      <trkpt lat="59.8898964" lon="17.8414249">
        <ele>39.5513</ele>
        <time>2013-04-14T12:22:26Z</time>
      </trkpt>
      <trkpt lat="59.8899172" lon="17.8413484">
        <ele>39.5513</ele>
        <time>2013-04-14T12:22:27Z</time>
      </trkpt>
      <trkpt lat="59.8899376" lon="17.8412629">
        <ele>39.0707</ele>
        <time>2013-04-14T12:22:28Z</time>
      </trkpt>
      <trkpt lat="59.8899597" lon="17.841177">
        <ele>39.0707</ele>
        <time>2013-04-14T12:22:29Z</time>
      </trkpt>
      <trkpt lat="59.889982" lon="17.841078">
        <ele>39.5513</ele>
        <time>2013-04-14T12:22:30Z</time>
      </trkpt>
      <trkpt lat="59.8900103" lon="17.8409873">
        <ele>40.0321</ele>
        <time>2013-04-14T12:22:31Z</time>
      </trkpt>
      <trkpt lat="59.8900438" lon="17.8408944">
        <ele>41.474</ele>
        <time>2013-04-14T12:22:32Z</time>
      </trkpt>
      <trkpt lat="59.8900854" lon="17.8408221">
        <ele>42.4354</ele>
        <time>2013-04-14T12:22:33Z</time>
      </trkpt>
      <trkpt lat="59.8901336" lon="17.8407755">
        <ele>42.916</ele>
        <time>2013-04-14T12:22:34Z</time>
      </trkpt>
      <trkpt lat="59.8901859" lon="17.8407631">
        <ele>42.916</ele>
        <time>2013-04-14T12:22:35Z</time>
      </trkpt>
      <trkpt lat="59.8902362" lon="17.8407844">
        <ele>41.9547</ele>
        <time>2013-04-14T12:22:36Z</time>
      </trkpt>
      <trkpt lat="59.8902844" lon="17.8408221">
        <ele>41.474</ele>
        <time>2013-04-14T12:22:37Z</time>
      </trkpt>
      <trkpt lat="59.89033" lon="17.8408666">
        <ele>41.9547</ele>
        <time>2013-04-14T12:22:38Z</time>
      </trkpt>
      <trkpt lat="59.8903755" lon="17.840931">
        <ele>41.9547</ele>
        <time>2013-04-14T12:22:39Z</time>
      </trkpt>
      <trkpt lat="59.8904178" lon="17.8410029">
        <ele>41.9547</ele>
        <time>2013-04-14T12:22:40Z</time>
      </trkpt>
      <trkpt lat="59.8904611" lon="17.8410739">
        <ele>41.9547</ele>
        <time>2013-04-14T12:22:41Z</time>
      </trkpt>
      <trkpt lat="59.8905038" lon="17.8411462">
        <ele>41.9547</ele>
        <time>2013-04-14T12:22:42Z</time>
      </trkpt>
      <trkpt lat="59.8905422" lon="17.841221">
        <ele>41.474</ele>
        <time>2013-04-14T12:22:43Z</time>
      </trkpt>
      <trkpt lat="59.8905816" lon="17.8412976">
        <ele>41.474</ele>
        <time>2013-04-14T12:22:44Z</time>
      </trkpt>
      <trkpt lat="59.8906251" lon="17.841366">
        <ele>41.474</ele>
        <time>2013-04-14T12:22:45Z</time>
      </trkpt>
      <trkpt lat="59.8906671" lon="17.8414352">
        <ele>40.9934</ele>
        <time>2013-04-14T12:22:46Z</time>
      </trkpt>
      <trkpt lat="59.8907084" lon="17.8415075">
        <ele>41.474</ele>
        <time>2013-04-14T12:22:47Z</time>
      </trkpt>
      <trkpt lat="59.8907526" lon="17.8415779">
        <ele>41.9547</ele>
        <time>2013-04-14T12:22:48Z</time>
      </trkpt>
      <trkpt lat="59.8907977" lon="17.8416473">
        <ele>41.9547</ele>
        <time>2013-04-14T12:22:49Z</time>
      </trkpt>
      <trkpt lat="59.8908477" lon="17.8417033">
        <ele>41.9547</ele>
        <time>2013-04-14T12:22:50Z</time>
      </trkpt>
      <trkpt lat="59.8909027" lon="17.8417441">
        <ele>42.4354</ele>
        <time>2013-04-14T12:22:51Z</time>
      </trkpt>
      <trkpt lat="59.8909542" lon="17.8417888">
        <ele>42.4354</ele>
        <time>2013-04-14T12:22:52Z</time>
      </trkpt>
      <trkpt lat="59.8910011" lon="17.8418431">
        <ele>42.4354</ele>
        <time>2013-04-14T12:22:53Z</time>
      </trkpt>
      <trkpt lat="59.8910494" lon="17.8418965">
        <ele>41.9547</ele>
        <time>2013-04-14T12:22:54Z</time>
      </trkpt>
      <trkpt lat="59.8910988" lon="17.8419476">
        <ele>42.4354</ele>
        <time>2013-04-14T12:22:55Z</time>
      </trkpt>
      <trkpt lat="59.8911494" lon="17.8419867">
        <ele>41.9547</ele>
        <time>2013-04-14T12:22:56Z</time>
      </trkpt>
      <trkpt lat="59.8911967" lon="17.8420294">
        <ele>42.4354</ele>
        <time>2013-04-14T12:22:57Z</time>
      </trkpt>
      <trkpt lat="59.8912489" lon="17.8420677">
        <ele>42.4354</ele>
        <time>2013-04-14T12:22:58Z</time>
      </trkpt>
      <trkpt lat="59.8913026" lon="17.8421061">
        <ele>42.4354</ele>
        <time>2013-04-14T12:22:59Z</time>
      </trkpt>
      <trkpt lat="59.8913567" lon="17.842132">
        <ele>42.4354</ele>
        <time>2013-04-14T12:23:00Z</time>
      </trkpt>
      <trkpt lat="59.8914072" lon="17.8421466">
        <ele>42.4354</ele>
        <time>2013-04-14T12:23:01Z</time>
      </trkpt>
      <trkpt lat="59.8914596" lon="17.8421684">
        <ele>41.9547</ele>
        <time>2013-04-14T12:23:02Z</time>
      </trkpt>
      <trkpt lat="59.8915167" lon="17.8421876">
        <ele>41.474</ele>
        <time>2013-04-14T12:23:03Z</time>
      </trkpt>
      <trkpt lat="59.8915754" lon="17.8422015">
        <ele>41.9547</ele>
        <time>2013-04-14T12:23:04Z</time>
      </trkpt>
      <trkpt lat="59.8916391" lon="17.8422177">
        <ele>42.4354</ele>
        <time>2013-04-14T12:23:05Z</time>
      </trkpt>
      <trkpt lat="59.8917027" lon="17.8422249">
        <ele>42.4354</ele>
        <time>2013-04-14T12:23:06Z</time>
      </trkpt>
      <trkpt lat="59.8917716" lon="17.8422355">
        <ele>42.916</ele>
        <time>2013-04-14T12:23:07Z</time>
      </trkpt>
      <trkpt lat="59.8918409" lon="17.8422378">
        <ele>42.916</ele>
        <time>2013-04-14T12:23:08Z</time>
      </trkpt>
      <trkpt lat="59.8919109" lon="17.8422355">
        <ele>44.358</ele>
        <time>2013-04-14T12:23:09Z</time>
      </trkpt>
      <trkpt lat="59.8919731" lon="17.8422333">
        <ele>44.8386</ele>
        <time>2013-04-14T12:23:10Z</time>
      </trkpt>
      <trkpt lat="59.8920389" lon="17.8422493">
        <ele>44.8386</ele>
        <time>2013-04-14T12:23:11Z</time>
      </trkpt>
      <trkpt lat="59.8921044" lon="17.8422739">
        <ele>46.7612</ele>
        <time>2013-04-14T12:23:12Z</time>
      </trkpt>
      <trkpt lat="59.8921718" lon="17.8422985">
        <ele>48.2034</ele>
        <time>2013-04-14T12:23:13Z</time>
      </trkpt>
      <trkpt lat="59.8922407" lon="17.8423107">
        <ele>49.1646</ele>
        <time>2013-04-14T12:23:14Z</time>
      </trkpt>
      <trkpt lat="59.8923112" lon="17.8423373">
        <ele>51.0872</ele>
        <time>2013-04-14T12:23:15Z</time>
      </trkpt>
      <trkpt lat="59.8923829" lon="17.8423735">
        <ele>53.4905</ele>
        <time>2013-04-14T12:23:16Z</time>
      </trkpt>
      <trkpt lat="59.8924534" lon="17.8423953">
        <ele>55.8938</ele>
        <time>2013-04-14T12:23:17Z</time>
      </trkpt>
      <trkpt lat="59.8925211" lon="17.8424099">
        <ele>57.3358</ele>
        <time>2013-04-14T12:23:18Z</time>
      </trkpt>
      <trkpt lat="59.8925904" lon="17.8424311">
        <ele>57.3358</ele>
        <time>2013-04-14T12:23:19Z</time>
      </trkpt>
      <trkpt lat="59.8926635" lon="17.8424568">
        <ele>58.7777</ele>
        <time>2013-04-14T12:23:20Z</time>
      </trkpt>
      <trkpt lat="59.8927495" lon="17.8425389">
        <ele>60.7003</ele>
        <time>2013-04-14T12:23:21Z</time>
      </trkpt>
      <trkpt lat="59.8928349" lon="17.8426415">
        <ele>59.7391</ele>
        <time>2013-04-14T12:23:22Z</time>
      </trkpt>
      <trkpt lat="59.8929177" lon="17.8427025">
        <ele>60.7003</ele>
        <time>2013-04-14T12:23:23Z</time>
      </trkpt>
      <trkpt lat="59.8929977" lon="17.8427425">
        <ele>60.7003</ele>
        <time>2013-04-14T12:23:24Z</time>
      </trkpt>
      <trkpt lat="59.8930801" lon="17.842789">
        <ele>60.7003</ele>
        <time>2013-04-14T12:23:25Z</time>
      </trkpt>
      <trkpt lat="59.8931617" lon="17.8428248">
        <ele>61.181</ele>
        <time>2013-04-14T12:23:26Z</time>
      </trkpt>
      <trkpt lat="59.8932406" lon="17.8428501">
        <ele>61.6617</ele>
        <time>2013-04-14T12:23:27Z</time>
      </trkpt>
      <trkpt lat="59.8933214" lon="17.8428693">
        <ele>61.6617</ele>
        <time>2013-04-14T12:23:28Z</time>
      </trkpt>
      <trkpt lat="59.8934047" lon="17.842895">
        <ele>61.6617</ele>
        <time>2013-04-14T12:23:29Z</time>
      </trkpt>
      <trkpt lat="59.8934845" lon="17.8429059">
        <ele>62.1423</ele>
        <time>2013-04-14T12:23:30Z</time>
      </trkpt>
      <trkpt lat="59.893557" lon="17.8429061">
        <ele>62.1423</ele>
        <time>2013-04-14T12:23:31Z</time>
      </trkpt>
      <trkpt lat="59.8936249" lon="17.842909">
        <ele>61.181</ele>
        <time>2013-04-14T12:23:32Z</time>
      </trkpt>
      <trkpt lat="59.8936887" lon="17.8429067">
        <ele>61.181</ele>
        <time>2013-04-14T12:23:33Z</time>
      </trkpt>
      <trkpt lat="59.893757" lon="17.8429107">
        <ele>59.7391</ele>
        <time>2013-04-14T12:23:34Z</time>
      </trkpt>
      <trkpt lat="59.8938399" lon="17.8429112">
        <ele>56.8551</ele>
        <time>2013-04-14T12:23:35Z</time>
      </trkpt>
      <trkpt lat="59.893925" lon="17.8429075">
        <ele>55.4131</ele>
        <time>2013-04-14T12:23:36Z</time>
      </trkpt>
      <trkpt lat="59.8940058" lon="17.8429097">
        <ele>54.4518</ele>
        <time>2013-04-14T12:23:37Z</time>
      </trkpt>
      <trkpt lat="59.8940877" lon="17.8429154">
        <ele>52.5292</ele>
        <time>2013-04-14T12:23:38Z</time>
      </trkpt>
      <trkpt lat="59.8941658" lon="17.8429226">
        <ele>51.0872</ele>
        <time>2013-04-14T12:23:39Z</time>
      </trkpt>
      <trkpt lat="59.8942466" lon="17.8429376">
        <ele>49.1646</ele>
        <time>2013-04-14T12:23:40Z</time>
      </trkpt>
      <trkpt lat="59.8943273" lon="17.8429338">
        <ele>49.1646</ele>
        <time>2013-04-14T12:23:41Z</time>
      </trkpt>
      <trkpt lat="59.8944054" lon="17.8429211">
        <ele>48.684</ele>
        <time>2013-04-14T12:23:42Z</time>
      </trkpt>
      <trkpt lat="59.894487" lon="17.8429765">
        <ele>47.2418</ele>
        <time>2013-04-14T12:23:43Z</time>
      </trkpt>
      <trkpt lat="59.8945812" lon="17.8430212">
        <ele>45.7999</ele>
        <time>2013-04-14T12:23:44Z</time>
      </trkpt>
      <trkpt lat="59.8946662" lon="17.8430454">
        <ele>44.358</ele>
        <time>2013-04-14T12:23:45Z</time>
      </trkpt>
      <trkpt lat="59.8947481" lon="17.8430345">
        <ele>42.916</ele>
        <time>2013-04-14T12:23:46Z</time>
      </trkpt>
      <trkpt lat="59.894822" lon="17.843046">
        <ele>42.4354</ele>
        <time>2013-04-14T12:23:47Z</time>
      </trkpt>
      <trkpt lat="59.8948921" lon="17.8430419">
        <ele>42.916</ele>
        <time>2013-04-14T12:23:48Z</time>
      </trkpt>
      <trkpt lat="59.8949711" lon="17.8430599">
        <ele>41.9547</ele>
        <time>2013-04-14T12:23:49Z</time>
      </trkpt>
      <trkpt lat="59.8950522" lon="17.8430609">
        <ele>41.474</ele>
        <time>2013-04-14T12:23:50Z</time>
      </trkpt>
      <trkpt lat="59.8951377" lon="17.8430437">
        <ele>41.9547</ele>
        <time>2013-04-14T12:23:51Z</time>
      </trkpt>
      <trkpt lat="59.8952027" lon="17.8430264">
        <ele>41.474</ele>
        <time>2013-04-14T12:23:52Z</time>
      </trkpt>
      <trkpt lat="59.8952711" lon="17.8429977">
        <ele>41.9547</ele>
        <time>2013-04-14T12:23:53Z</time>
      </trkpt>
      <trkpt lat="59.8953359" lon="17.8429657">
        <ele>41.474</ele>
        <time>2013-04-14T12:23:54Z</time>
      </trkpt>
      <trkpt lat="59.8954052" lon="17.842934">
        <ele>41.9547</ele>
        <time>2013-04-14T12:23:55Z</time>
      </trkpt>
      <trkpt lat="59.8954743" lon="17.8429045">
        <ele>42.916</ele>
        <time>2013-04-14T12:23:56Z</time>
      </trkpt>
      <trkpt lat="59.895552" lon="17.8428772">
        <ele>42.916</ele>
        <time>2013-04-14T12:23:57Z</time>
      </trkpt>
      <trkpt lat="59.8956153" lon="17.8428489">
        <ele>41.9547</ele>
        <time>2013-04-14T12:23:58Z</time>
      </trkpt>
      <trkpt lat="59.8956671" lon="17.8428138">
        <ele>40.9934</ele>
        <time>2013-04-14T12:23:59Z</time>
      </trkpt>
      <trkpt lat="59.8957189" lon="17.8427863">
        <ele>40.0321</ele>
        <time>2013-04-14T12:24:00Z</time>
      </trkpt>
      <trkpt lat="59.8957726" lon="17.8427556">
        <ele>39.5513</ele>
        <time>2013-04-14T12:24:01Z</time>
      </trkpt>
      <trkpt lat="59.8958357" lon="17.8427315">
        <ele>39.0707</ele>
        <time>2013-04-14T12:24:02Z</time>
      </trkpt>
      <trkpt lat="59.8959068" lon="17.8427232">
        <ele>40.5128</ele>
        <time>2013-04-14T12:24:03Z</time>
      </trkpt>
      <trkpt lat="59.8959768" lon="17.8427152">
        <ele>40.5128</ele>
        <time>2013-04-14T12:24:04Z</time>
      </trkpt>
      <trkpt lat="59.8960434" lon="17.842707">
        <ele>40.5128</ele>
        <time>2013-04-14T12:24:05Z</time>
      </trkpt>
      <trkpt lat="59.8961098" lon="17.8427085">
        <ele>40.5128</ele>
        <time>2013-04-14T12:24:06Z</time>
      </trkpt>
      <trkpt lat="59.8961753" lon="17.8427194">
        <ele>40.0321</ele>
        <time>2013-04-14T12:24:07Z</time>
      </trkpt>
      <trkpt lat="59.896241" lon="17.8427361">
        <ele>39.5513</ele>
        <time>2013-04-14T12:24:08Z</time>
      </trkpt>
      <trkpt lat="59.8963045" lon="17.8427591">
        <ele>38.1094</ele>
        <time>2013-04-14T12:24:09Z</time>
      </trkpt>
      <trkpt lat="59.8963653" lon="17.8427859">
        <ele>36.6675</ele>
        <time>2013-04-14T12:24:10Z</time>
      </trkpt>
      <trkpt lat="59.896421" lon="17.8428143">
        <ele>35.2255</ele>
        <time>2013-04-14T12:24:11Z</time>
      </trkpt>
      <trkpt lat="59.8964746" lon="17.8428406">
        <ele>34.7449</ele>
        <time>2013-04-14T12:24:12Z</time>
      </trkpt>
      <trkpt lat="59.8965264" lon="17.8428609">
        <ele>35.2255</ele>
        <time>2013-04-14T12:24:13Z</time>
      </trkpt>
      <trkpt lat="59.8965682" lon="17.842867">
        <ele>35.2255</ele>
        <time>2013-04-14T12:24:14Z</time>
      </trkpt>
      <trkpt lat="59.8966047" lon="17.8428684">
        <ele>35.7061</ele>
        <time>2013-04-14T12:24:15Z</time>
      </trkpt>
      <trkpt lat="59.8966341" lon="17.8428626">
        <ele>36.1868</ele>
        <time>2013-04-14T12:24:16Z</time>
      </trkpt>
      <trkpt lat="59.8966662" lon="17.8428569">
        <ele>36.1868</ele>
        <time>2013-04-14T12:24:17Z</time>
      </trkpt>
      <trkpt lat="59.896701" lon="17.8428532">
        <ele>36.6675</ele>
        <time>2013-04-14T12:24:18Z</time>
      </trkpt>
      <trkpt lat="59.896738" lon="17.8428448">
        <ele>36.6675</ele>
        <time>2013-04-14T12:24:19Z</time>
      </trkpt>
      <trkpt lat="59.8967755" lon="17.8428305">
        <ele>36.6675</ele>
        <time>2013-04-14T12:24:20Z</time>
      </trkpt>
      <trkpt lat="59.8968116" lon="17.8428211">
        <ele>36.6675</ele>
        <time>2013-04-14T12:24:21Z</time>
      </trkpt>
      <trkpt lat="59.8968495" lon="17.8428064">
        <ele>37.6287</ele>
        <time>2013-04-14T12:24:22Z</time>
      </trkpt>
      <trkpt lat="59.8968828" lon="17.8427864">
        <ele>37.6287</ele>
        <time>2013-04-14T12:24:23Z</time>
      </trkpt>
      <trkpt lat="59.896919" lon="17.8427635">
        <ele>37.6287</ele>
        <time>2013-04-14T12:24:24Z</time>
      </trkpt>
      <trkpt lat="59.896958" lon="17.8427325">
        <ele>37.6287</ele>
        <time>2013-04-14T12:24:25Z</time>
      </trkpt>
      <trkpt lat="59.8970054" lon="17.8427035">
        <ele>37.1481</ele>
        <time>2013-04-14T12:24:26Z</time>
      </trkpt>
      <trkpt lat="59.8970485" lon="17.8426677">
        <ele>36.6675</ele>
        <time>2013-04-14T12:24:27Z</time>
      </trkpt>
      <trkpt lat="59.8970891" lon="17.8426315">
        <ele>36.6675</ele>
        <time>2013-04-14T12:24:28Z</time>
      </trkpt>
      <trkpt lat="59.8971305" lon="17.8425984">
        <ele>36.6675</ele>
        <time>2013-04-14T12:24:29Z</time>
      </trkpt>
      <trkpt lat="59.8971713" lon="17.8425697">
        <ele>36.1868</ele>
        <time>2013-04-14T12:24:30Z</time>
      </trkpt>
      <trkpt lat="59.8972086" lon="17.8425386">
        <ele>35.7061</ele>
        <time>2013-04-14T12:24:31Z</time>
      </trkpt>
      <trkpt lat="59.8972472" lon="17.8425127">
        <ele>35.7061</ele>
        <time>2013-04-14T12:24:32Z</time>
      </trkpt>
      <trkpt lat="59.8972877" lon="17.8424833">
        <ele>35.7061</ele>
        <time>2013-04-14T12:24:33Z</time>
      </trkpt>
      <trkpt lat="59.897325" lon="17.8424502">
        <ele>35.7061</ele>
        <time>2013-04-14T12:24:34Z</time>
      </trkpt>
      <trkpt lat="59.8973581" lon="17.8424217">
        <ele>35.2255</ele>
        <time>2013-04-14T12:24:35Z</time>
      </trkpt>
      <trkpt lat="59.8973942" lon="17.8424006">
        <ele>34.7449</ele>
        <time>2013-04-14T12:24:36Z</time>
      </trkpt>
      <trkpt lat="59.8974339" lon="17.8423813">
        <ele>33.7834</ele>
        <time>2013-04-14T12:24:37Z</time>
      </trkpt>
      <trkpt lat="59.8974785" lon="17.8423619">
        <ele>34.2642</ele>
        <time>2013-04-14T12:24:38Z</time>
      </trkpt>
      <trkpt lat="59.8975287" lon="17.8423383">
        <ele>33.7834</ele>
        <time>2013-04-14T12:24:39Z</time>
      </trkpt>
      <trkpt lat="59.8975759" lon="17.8423129">
        <ele>33.3029</ele>
        <time>2013-04-14T12:24:40Z</time>
      </trkpt>
      <trkpt lat="59.8976247" lon="17.8422951">
        <ele>32.8223</ele>
        <time>2013-04-14T12:24:41Z</time>
      </trkpt>
      <trkpt lat="59.8976795" lon="17.842276">
        <ele>32.3416</ele>
        <time>2013-04-14T12:24:42Z</time>
      </trkpt>
      <trkpt lat="59.8977267" lon="17.8422571">
        <ele>31.8607</ele>
        <time>2013-04-14T12:24:43Z</time>
      </trkpt>
      <trkpt lat="59.8977767" lon="17.8422446">
        <ele>31.3801</ele>
        <time>2013-04-14T12:24:44Z</time>
      </trkpt>
      <trkpt lat="59.8978281" lon="17.8422306">
        <ele>31.3801</ele>
        <time>2013-04-14T12:24:45Z</time>
      </trkpt>
      <trkpt lat="59.8978799" lon="17.8422228">
        <ele>30.8995</ele>
        <time>2013-04-14T12:24:46Z</time>
      </trkpt>
      <trkpt lat="59.8979271" lon="17.8422233">
        <ele>30.4188</ele>
        <time>2013-04-14T12:24:47Z</time>
      </trkpt>
      <trkpt lat="59.8979756" lon="17.8422237">
        <ele>31.8607</ele>
        <time>2013-04-14T12:24:48Z</time>
      </trkpt>
      <trkpt lat="59.8980199" lon="17.8422234">
        <ele>32.3416</ele>
        <time>2013-04-14T12:24:49Z</time>
      </trkpt>
      <trkpt lat="59.898059" lon="17.8422179">
        <ele>32.3416</ele>
        <time>2013-04-14T12:24:50Z</time>
      </trkpt>
      <trkpt lat="59.8980995" lon="17.8422169">
        <ele>31.3801</ele>
        <time>2013-04-14T12:24:51Z</time>
      </trkpt>
      <trkpt lat="59.89814" lon="17.8422249">
        <ele>30.8995</ele>
        <time>2013-04-14T12:24:52Z</time>
      </trkpt>
      <trkpt lat="59.8981869" lon="17.8422227">
        <ele>31.3801</ele>
        <time>2013-04-14T12:24:53Z</time>
      </trkpt>
      <trkpt lat="59.8982318" lon="17.8422182">
        <ele>30.8995</ele>
        <time>2013-04-14T12:24:54Z</time>
      </trkpt>
      <trkpt lat="59.8982783" lon="17.842206">
        <ele>31.8607</ele>
        <time>2013-04-14T12:24:55Z</time>
      </trkpt>
      <trkpt lat="59.8983183" lon="17.8421939">
        <ele>32.3416</ele>
        <time>2013-04-14T12:24:56Z</time>
      </trkpt>
      <trkpt lat="59.8983626" lon="17.8421861">
        <ele>33.7834</ele>
        <time>2013-04-14T12:24:57Z</time>
      </trkpt>
      <trkpt lat="59.89841" lon="17.8421718">
        <ele>35.7061</ele>
        <time>2013-04-14T12:24:58Z</time>
      </trkpt>
      <trkpt lat="59.8984545" lon="17.8421561">
        <ele>36.1868</ele>
        <time>2013-04-14T12:24:59Z</time>
      </trkpt>
      <trkpt lat="59.8985011" lon="17.842145">
        <ele>36.1868</ele>
        <time>2013-04-14T12:25:00Z</time>
      </trkpt>
      <trkpt lat="59.8985508" lon="17.8421275">
        <ele>36.1868</ele>
        <time>2013-04-14T12:25:01Z</time>
      </trkpt>
      <trkpt lat="59.8986024" lon="17.8421055">
        <ele>37.6287</ele>
        <time>2013-04-14T12:25:02Z</time>
      </trkpt>
      <trkpt lat="59.8986528" lon="17.8420801">
        <ele>37.6287</ele>
        <time>2013-04-14T12:25:03Z</time>
      </trkpt>
      <trkpt lat="59.8987031" lon="17.8420538">
        <ele>39.0707</ele>
        <time>2013-04-14T12:25:04Z</time>
      </trkpt>
      <trkpt lat="59.8987575" lon="17.842028">
        <ele>40.0321</ele>
        <time>2013-04-14T12:25:05Z</time>
      </trkpt>
      <trkpt lat="59.8988076" lon="17.8420081">
        <ele>40.9934</ele>
        <time>2013-04-14T12:25:06Z</time>
      </trkpt>
      <trkpt lat="59.8988548" lon="17.8419892">
        <ele>41.474</ele>
        <time>2013-04-14T12:25:07Z</time>
      </trkpt>
      <trkpt lat="59.8989038" lon="17.8419674">
        <ele>42.4354</ele>
        <time>2013-04-14T12:25:08Z</time>
      </trkpt>
      <trkpt lat="59.898952" lon="17.8419405">
        <ele>42.4354</ele>
        <time>2013-04-14T12:25:09Z</time>
      </trkpt>
      <trkpt lat="59.8989956" lon="17.8419196">
        <ele>42.916</ele>
        <time>2013-04-14T12:25:10Z</time>
      </trkpt>
      <trkpt lat="59.8990377" lon="17.841896">
        <ele>42.916</ele>
        <time>2013-04-14T12:25:11Z</time>
      </trkpt>
      <trkpt lat="59.8990834" lon="17.8418643">
        <ele>43.3966</ele>
        <time>2013-04-14T12:25:12Z</time>
      </trkpt>
      <trkpt lat="59.8991325" lon="17.8418291">
        <ele>43.8773</ele>
        <time>2013-04-14T12:25:13Z</time>
      </trkpt>
      <trkpt lat="59.8991769" lon="17.8417892">
        <ele>43.8773</ele>
        <time>2013-04-14T12:25:14Z</time>
      </trkpt>
      <trkpt lat="59.8992235" lon="17.8417373">
        <ele>43.3966</ele>
        <time>2013-04-14T12:25:15Z</time>
      </trkpt>
      <trkpt lat="59.8992692" lon="17.8416927">
        <ele>42.4354</ele>
        <time>2013-04-14T12:25:16Z</time>
      </trkpt>
      <trkpt lat="59.899318" lon="17.8416504">
        <ele>41.9547</ele>
        <time>2013-04-14T12:25:17Z</time>
      </trkpt>
      <trkpt lat="59.8993752" lon="17.8416029">
        <ele>41.474</ele>
        <time>2013-04-14T12:25:18Z</time>
      </trkpt>
      <trkpt lat="59.8994375" lon="17.8415494">
        <ele>41.474</ele>
        <time>2013-04-14T12:25:19Z</time>
      </trkpt>
      <trkpt lat="59.8995039" lon="17.8415027">
        <ele>40.9934</ele>
        <time>2013-04-14T12:25:20Z</time>
      </trkpt>
      <trkpt lat="59.8995753" lon="17.8414712">
        <ele>40.0321</ele>
        <time>2013-04-14T12:25:21Z</time>
      </trkpt>
      <trkpt lat="59.8996526" lon="17.8414503">
        <ele>40.0321</ele>
        <time>2013-04-14T12:25:22Z</time>
      </trkpt>
      <trkpt lat="59.8997344" lon="17.8414339">
        <ele>40.0321</ele>
        <time>2013-04-14T12:25:23Z</time>
      </trkpt>
      <trkpt lat="59.8998207" lon="17.8414219">
        <ele>40.5128</ele>
        <time>2013-04-14T12:25:24Z</time>
      </trkpt>
      <trkpt lat="59.8999083" lon="17.841405">
        <ele>40.0321</ele>
        <time>2013-04-14T12:25:25Z</time>
      </trkpt>
      <trkpt lat="59.899997" lon="17.8413902">
        <ele>40.0321</ele>
        <time>2013-04-14T12:25:26Z</time>
      </trkpt>
      <trkpt lat="59.9000881" lon="17.841379">
        <ele>40.5128</ele>
        <time>2013-04-14T12:25:27Z</time>
      </trkpt>
      <trkpt lat="59.9001811" lon="17.8413716">
        <ele>40.9934</ele>
        <time>2013-04-14T12:25:28Z</time>
      </trkpt>
      <trkpt lat="59.9002742" lon="17.8413634">
        <ele>40.9934</ele>
        <time>2013-04-14T12:25:29Z</time>
      </trkpt>
      <trkpt lat="59.9003688" lon="17.8413566">
        <ele>41.9547</ele>
        <time>2013-04-14T12:25:30Z</time>
      </trkpt>
      <trkpt lat="59.9004632" lon="17.8413536">
        <ele>41.9547</ele>
        <time>2013-04-14T12:25:31Z</time>
      </trkpt>
      <trkpt lat="59.9005586" lon="17.841364">
        <ele>42.4354</ele>
        <time>2013-04-14T12:25:32Z</time>
      </trkpt>
      <trkpt lat="59.9006539" lon="17.8413779">
        <ele>42.916</ele>
        <time>2013-04-14T12:25:33Z</time>
      </trkpt>
      <trkpt lat="59.9007466" lon="17.8413893">
        <ele>42.916</ele>
        <time>2013-04-14T12:25:34Z</time>
      </trkpt>
      <trkpt lat="59.9008383" lon="17.8414037">
        <ele>42.916</ele>
        <time>2013-04-14T12:25:35Z</time>
      </trkpt>
      <trkpt lat="59.9009299" lon="17.8414164">
        <ele>43.3966</ele>
        <time>2013-04-14T12:25:36Z</time>
      </trkpt>
      <trkpt lat="59.901018" lon="17.8414202">
        <ele>42.4354</ele>
        <time>2013-04-14T12:25:37Z</time>
      </trkpt>
      <trkpt lat="59.9011035" lon="17.8414261">
        <ele>42.916</ele>
        <time>2013-04-14T12:25:38Z</time>
      </trkpt>
      <trkpt lat="59.9011895" lon="17.841438">
        <ele>42.916</ele>
        <time>2013-04-14T12:25:39Z</time>
      </trkpt>
      <trkpt lat="59.9012745" lon="17.8414551">
        <ele>42.916</ele>
        <time>2013-04-14T12:25:40Z</time>
      </trkpt>
      <trkpt lat="59.9013564" lon="17.8414717">
        <ele>42.4354</ele>
        <time>2013-04-14T12:25:41Z</time>
      </trkpt>
      <trkpt lat="59.9014362" lon="17.8414829">
        <ele>42.4354</ele>
        <time>2013-04-14T12:25:42Z</time>
      </trkpt>
      <trkpt lat="59.9015138" lon="17.8414939">
        <ele>42.916</ele>
        <time>2013-04-14T12:25:43Z</time>
      </trkpt>
      <trkpt lat="59.9015904" lon="17.8415015">
        <ele>42.916</ele>
        <time>2013-04-14T12:25:44Z</time>
      </trkpt>
      <trkpt lat="59.9016623" lon="17.8415078">
        <ele>43.3966</ele>
        <time>2013-04-14T12:25:45Z</time>
      </trkpt>
      <trkpt lat="59.9017337" lon="17.8415177">
        <ele>43.3966</ele>
        <time>2013-04-14T12:25:46Z</time>
      </trkpt>
      <trkpt lat="59.901808" lon="17.8415369">
        <ele>41.9547</ele>
        <time>2013-04-14T12:25:47Z</time>
      </trkpt>
      <trkpt lat="59.9018822" lon="17.8415482">
        <ele>41.474</ele>
        <time>2013-04-14T12:25:48Z</time>
      </trkpt>
      <trkpt lat="59.9019524" lon="17.8415551">
        <ele>40.9934</ele>
        <time>2013-04-14T12:25:49Z</time>
      </trkpt>
      <trkpt lat="59.902013" lon="17.8415671">
        <ele>40.0321</ele>
        <time>2013-04-14T12:25:50Z</time>
      </trkpt>
      <trkpt lat="59.9020633" lon="17.8415821">
        <ele>40.0321</ele>
        <time>2013-04-14T12:25:51Z</time>
      </trkpt>
      <trkpt lat="59.9021169" lon="17.8415928">
        <ele>39.5513</ele>
        <time>2013-04-14T12:25:52Z</time>
      </trkpt>
      <trkpt lat="59.9021857" lon="17.8415903">
        <ele>38.5901</ele>
        <time>2013-04-14T12:25:53Z</time>
      </trkpt>
      <trkpt lat="59.9022634" lon="17.8415737">
        <ele>37.1481</ele>
        <time>2013-04-14T12:25:54Z</time>
      </trkpt>
      <trkpt lat="59.9023512" lon="17.8415437">
        <ele>36.1868</ele>
        <time>2013-04-14T12:25:55Z</time>
      </trkpt>
      <trkpt lat="59.9024441" lon="17.8415103">
        <ele>35.2255</ele>
        <time>2013-04-14T12:25:56Z</time>
      </trkpt>
      <trkpt lat="59.9025315" lon="17.8414803">
        <ele>34.2642</ele>
        <time>2013-04-14T12:25:57Z</time>
      </trkpt>
      <trkpt lat="59.9026146" lon="17.8414495">
        <ele>33.7834</ele>
        <time>2013-04-14T12:25:58Z</time>
      </trkpt>
      <trkpt lat="59.902699" lon="17.8414136">
        <ele>33.7834</ele>
        <time>2013-04-14T12:25:59Z</time>
      </trkpt>
      <trkpt lat="59.9027865" lon="17.8413686">
        <ele>33.3029</ele>
        <time>2013-04-14T12:26:00Z</time>
      </trkpt>
      <trkpt lat="59.9028715" lon="17.841325">
        <ele>32.3416</ele>
        <time>2013-04-14T12:26:01Z</time>
      </trkpt>
      <trkpt lat="59.9029549" lon="17.841285">
        <ele>31.3801</ele>
        <time>2013-04-14T12:26:02Z</time>
      </trkpt>
      <trkpt lat="59.903037" lon="17.8412567">
        <ele>30.8995</ele>
        <time>2013-04-14T12:26:03Z</time>
      </trkpt>
      <trkpt lat="59.9031248" lon="17.8412484">
        <ele>29.9381</ele>
        <time>2013-04-14T12:26:04Z</time>
      </trkpt>
      <trkpt lat="59.9032059" lon="17.8412553">
        <ele>28.4962</ele>
        <time>2013-04-14T12:26:05Z</time>
      </trkpt>
      <trkpt lat="59.9032894" lon="17.8412712">
        <ele>27.5349</ele>
        <time>2013-04-14T12:26:06Z</time>
      </trkpt>
      <trkpt lat="59.903378" lon="17.8412921">
        <ele>25.1317</ele>
        <time>2013-04-14T12:26:07Z</time>
      </trkpt>
      <trkpt lat="59.9034599" lon="17.8413335">
        <ele>22.7283</ele>
        <time>2013-04-14T12:26:08Z</time>
      </trkpt>
      <trkpt lat="59.9035252" lon="17.8414183">
        <ele>21.2864</ele>
        <time>2013-04-14T12:26:09Z</time>
      </trkpt>
      <trkpt lat="59.9035838" lon="17.8415145">
        <ele>19.8444</ele>
        <time>2013-04-14T12:26:10Z</time>
      </trkpt>
      <trkpt lat="59.9036485" lon="17.8416188">
        <ele>20.8057</ele>
        <time>2013-04-14T12:26:11Z</time>
      </trkpt>
      <trkpt lat="59.9037068" lon="17.8417121">
        <ele>19.3638</ele>
        <time>2013-04-14T12:26:12Z</time>
      </trkpt>
      <trkpt lat="59.9037721" lon="17.8418058">
        <ele>20.325</ele>
        <time>2013-04-14T12:26:13Z</time>
      </trkpt>
      <trkpt lat="59.9038402" lon="17.8418891">
        <ele>20.8057</ele>
        <time>2013-04-14T12:26:14Z</time>
      </trkpt>
      <trkpt lat="59.9039105" lon="17.8419663">
        <ele>21.2864</ele>
        <time>2013-04-14T12:26:15Z</time>
      </trkpt>
      <trkpt lat="59.9039852" lon="17.8420405">
        <ele>22.7283</ele>
        <time>2013-04-14T12:26:16Z</time>
      </trkpt>
      <trkpt lat="59.90408" lon="17.8420296">
        <ele>22.2476</ele>
        <time>2013-04-14T12:26:17Z</time>
      </trkpt>
      <trkpt lat="59.9041665" lon="17.8420269">
        <ele>21.767</ele>
        <time>2013-04-14T12:26:18Z</time>
      </trkpt>
      <trkpt lat="59.9042366" lon="17.8419902">
        <ele>20.8057</ele>
        <time>2013-04-14T12:26:19Z</time>
      </trkpt>
      <trkpt lat="59.9043088" lon="17.8419301">
        <ele>19.8444</ele>
        <time>2013-04-14T12:26:20Z</time>
      </trkpt>
      <trkpt lat="59.9043767" lon="17.8418814">
        <ele>21.2864</ele>
        <time>2013-04-14T12:26:21Z</time>
      </trkpt>
      <trkpt lat="59.9044431" lon="17.841825">
        <ele>19.8444</ele>
        <time>2013-04-14T12:26:22Z</time>
      </trkpt>
      <trkpt lat="59.9045131" lon="17.8417726">
        <ele>19.8444</ele>
        <time>2013-04-14T12:26:23Z</time>
      </trkpt>
      <trkpt lat="59.9045828" lon="17.8417295">
        <ele>19.8444</ele>
        <time>2013-04-14T12:26:24Z</time>
      </trkpt>
      <trkpt lat="59.904655" lon="17.8416867">
        <ele>20.8057</ele>
        <time>2013-04-14T12:26:25Z</time>
      </trkpt>
      <trkpt lat="59.9047368" lon="17.8416426">
        <ele>21.767</ele>
        <time>2013-04-14T12:26:26Z</time>
      </trkpt>
      <trkpt lat="59.9048174" lon="17.841595">
        <ele>22.2476</ele>
        <time>2013-04-14T12:26:27Z</time>
      </trkpt>
      <trkpt lat="59.9049" lon="17.8415489">
        <ele>22.7283</ele>
        <time>2013-04-14T12:26:28Z</time>
      </trkpt>
      <trkpt lat="59.9049865" lon="17.8415114">
        <ele>23.209</ele>
        <time>2013-04-14T12:26:29Z</time>
      </trkpt>
      <trkpt lat="59.9050865" lon="17.8414612">
        <ele>24.651</ele>
        <time>2013-04-14T12:26:30Z</time>
      </trkpt>
      <trkpt lat="59.9051751" lon="17.8414277">
        <ele>25.6123</ele>
        <time>2013-04-14T12:26:31Z</time>
      </trkpt>
      <trkpt lat="59.9052688" lon="17.841394">
        <ele>25.6123</ele>
        <time>2013-04-14T12:26:32Z</time>
      </trkpt>
      <trkpt lat="59.9053749" lon="17.8413544">
        <ele>26.5736</ele>
        <time>2013-04-14T12:26:33Z</time>
      </trkpt>
      <trkpt lat="59.9054746" lon="17.8413127">
        <ele>26.0929</ele>
        <time>2013-04-14T12:26:34Z</time>
      </trkpt>
      <trkpt lat="59.9055806" lon="17.8412722">
        <ele>26.0929</ele>
        <time>2013-04-14T12:26:35Z</time>
      </trkpt>
      <trkpt lat="59.9056844" lon="17.8412299">
        <ele>26.5736</ele>
        <time>2013-04-14T12:26:36Z</time>
      </trkpt>
      <trkpt lat="59.9057792" lon="17.8411859">
        <ele>26.5736</ele>
        <time>2013-04-14T12:26:37Z</time>
      </trkpt>
      <trkpt lat="59.9058706" lon="17.841124">
        <ele>26.0929</ele>
        <time>2013-04-14T12:26:38Z</time>
      </trkpt>
      <trkpt lat="59.9059589" lon="17.8410426">
        <ele>25.6123</ele>
        <time>2013-04-14T12:26:39Z</time>
      </trkpt>
      <trkpt lat="59.9060402" lon="17.8409473">
        <ele>25.6123</ele>
        <time>2013-04-14T12:26:40Z</time>
      </trkpt>
      <trkpt lat="59.9061153" lon="17.8408392">
        <ele>25.1317</ele>
        <time>2013-04-14T12:26:41Z</time>
      </trkpt>
      <trkpt lat="59.906184" lon="17.8407258">
        <ele>24.651</ele>
        <time>2013-04-14T12:26:42Z</time>
      </trkpt>
      <trkpt lat="59.9062471" lon="17.8406232">
        <ele>24.651</ele>
        <time>2013-04-14T12:26:43Z</time>
      </trkpt>
      <trkpt lat="59.9063088" lon="17.8405336">
        <ele>24.1703</ele>
        <time>2013-04-14T12:26:44Z</time>
      </trkpt>
      <trkpt lat="59.9063749" lon="17.8404471">
        <ele>23.6896</ele>
        <time>2013-04-14T12:26:45Z</time>
      </trkpt>
      <trkpt lat="59.9064417" lon="17.8403674">
        <ele>24.1703</ele>
        <time>2013-04-14T12:26:46Z</time>
      </trkpt>
      <trkpt lat="59.9065078" lon="17.8402932">
        <ele>24.1703</ele>
        <time>2013-04-14T12:26:47Z</time>
      </trkpt>
      <trkpt lat="59.9065727" lon="17.8402279">
        <ele>24.651</ele>
        <time>2013-04-14T12:26:48Z</time>
      </trkpt>
      <trkpt lat="59.9066377" lon="17.8401658">
        <ele>24.651</ele>
        <time>2013-04-14T12:26:49Z</time>
      </trkpt>
      <trkpt lat="59.9067016" lon="17.8401108">
        <ele>24.1703</ele>
        <time>2013-04-14T12:26:50Z</time>
      </trkpt>
      <trkpt lat="59.9067667" lon="17.8400604">
        <ele>24.1703</ele>
        <time>2013-04-14T12:26:51Z</time>
      </trkpt>
      <trkpt lat="59.9068276" lon="17.840012">
        <ele>23.6896</ele>
        <time>2013-04-14T12:26:52Z</time>
      </trkpt>
      <trkpt lat="59.906888" lon="17.8399628">
        <ele>23.6896</ele>
        <time>2013-04-14T12:26:53Z</time>
      </trkpt>
      <trkpt lat="59.9069477" lon="17.8399144">
        <ele>23.209</ele>
        <time>2013-04-14T12:26:54Z</time>
      </trkpt>
      <trkpt lat="59.9070056" lon="17.8398649">
        <ele>22.2476</ele>
        <time>2013-04-14T12:26:55Z</time>
      </trkpt>
      <trkpt lat="59.907062" lon="17.8398164">
        <ele>22.2476</ele>
        <time>2013-04-14T12:26:56Z</time>
      </trkpt>
      <trkpt lat="59.9071157" lon="17.8397731">
        <ele>21.767</ele>
        <time>2013-04-14T12:26:57Z</time>
      </trkpt>
      <trkpt lat="59.9071715" lon="17.8397312">
        <ele>21.767</ele>
        <time>2013-04-14T12:26:58Z</time>
      </trkpt>
      <trkpt lat="59.9072257" lon="17.8396912">
        <ele>21.767</ele>
        <time>2013-04-14T12:26:59Z</time>
      </trkpt>
      <trkpt lat="59.9072781" lon="17.8396535">
        <ele>22.2476</ele>
        <time>2013-04-14T12:27:00Z</time>
      </trkpt>
      <trkpt lat="59.9073275" lon="17.8396135">
        <ele>21.767</ele>
        <time>2013-04-14T12:27:01Z</time>
      </trkpt>
      <trkpt lat="59.9073765" lon="17.839568">
        <ele>21.767</ele>
        <time>2013-04-14T12:27:02Z</time>
      </trkpt>
      <trkpt lat="59.9074253" lon="17.8395281">
        <ele>21.767</ele>
        <time>2013-04-14T12:27:03Z</time>
      </trkpt>
      <trkpt lat="59.9074724" lon="17.8394808">
        <ele>21.767</ele>
        <time>2013-04-14T12:27:04Z</time>
      </trkpt>
      <trkpt lat="59.9075156" lon="17.8394302">
        <ele>21.767</ele>
        <time>2013-04-14T12:27:05Z</time>
      </trkpt>
      <trkpt lat="59.9075593" lon="17.8393805">
        <ele>22.2476</ele>
        <time>2013-04-14T12:27:06Z</time>
      </trkpt>
      <trkpt lat="59.9076008" lon="17.8393318">
        <ele>22.2476</ele>
        <time>2013-04-14T12:27:07Z</time>
      </trkpt>
      <trkpt lat="59.9076371" lon="17.8392804">
        <ele>22.2476</ele>
        <time>2013-04-14T12:27:08Z</time>
      </trkpt>
      <trkpt lat="59.9076734" lon="17.8392334">
        <ele>22.2476</ele>
        <time>2013-04-14T12:27:09Z</time>
      </trkpt>
      <trkpt lat="59.9077113" lon="17.8391868">
        <ele>21.767</ele>
        <time>2013-04-14T12:27:10Z</time>
      </trkpt>
      <trkpt lat="59.9077511" lon="17.8391356">
        <ele>20.8057</ele>
        <time>2013-04-14T12:27:11Z</time>
      </trkpt>
      <trkpt lat="59.9077957" lon="17.8390785">
        <ele>20.325</ele>
        <time>2013-04-14T12:27:12Z</time>
      </trkpt>
      <trkpt lat="59.9078423" lon="17.8390183">
        <ele>19.8444</ele>
        <time>2013-04-14T12:27:13Z</time>
      </trkpt>
      <trkpt lat="59.9078929" lon="17.8389568">
        <ele>19.3638</ele>
        <time>2013-04-14T12:27:14Z</time>
      </trkpt>
      <trkpt lat="59.9079426" lon="17.8389008">
        <ele>18.4023</ele>
        <time>2013-04-14T12:27:15Z</time>
      </trkpt>
      <trkpt lat="59.9079975" lon="17.8388433">
        <ele>18.4023</ele>
        <time>2013-04-14T12:27:16Z</time>
      </trkpt>
      <trkpt lat="59.9080569" lon="17.8387863">
        <ele>18.8831</ele>
        <time>2013-04-14T12:27:17Z</time>
      </trkpt>
      <trkpt lat="59.9081198" lon="17.8387322">
        <ele>18.4023</ele>
        <time>2013-04-14T12:27:18Z</time>
      </trkpt>
      <trkpt lat="59.9081889" lon="17.838691">
        <ele>17.9218</ele>
        <time>2013-04-14T12:27:19Z</time>
      </trkpt>
      <trkpt lat="59.9082586" lon="17.8386579">
        <ele>18.4023</ele>
        <time>2013-04-14T12:27:20Z</time>
      </trkpt>
      <trkpt lat="59.9083319" lon="17.8386434">
        <ele>17.9218</ele>
        <time>2013-04-14T12:27:21Z</time>
      </trkpt>
      <trkpt lat="59.9084032" lon="17.8386383">
        <ele>17.9218</ele>
        <time>2013-04-14T12:27:22Z</time>
      </trkpt>
      <trkpt lat="59.9084746" lon="17.8386525">
        <ele>17.9218</ele>
        <time>2013-04-14T12:27:23Z</time>
      </trkpt>
      <trkpt lat="59.9085481" lon="17.8386862">
        <ele>17.9218</ele>
        <time>2013-04-14T12:27:24Z</time>
      </trkpt>
      <trkpt lat="59.9086229" lon="17.8387423">
        <ele>17.4412</ele>
        <time>2013-04-14T12:27:25Z</time>
      </trkpt>
      <trkpt lat="59.9086975" lon="17.8388229">
        <ele>17.4412</ele>
        <time>2013-04-14T12:27:26Z</time>
      </trkpt>
      <trkpt lat="59.9087824" lon="17.8389241">
        <ele>16.9604</ele>
        <time>2013-04-14T12:27:27Z</time>
      </trkpt>
      <trkpt lat="59.9088571" lon="17.8390422">
        <ele>16.9604</ele>
        <time>2013-04-14T12:27:28Z</time>
      </trkpt>
      <trkpt lat="59.9089227" lon="17.8391836">
        <ele>15.5184</ele>
        <time>2013-04-14T12:27:29Z</time>
      </trkpt>
      <trkpt lat="59.9089896" lon="17.8393437">
        <ele>13.5958</ele>
        <time>2013-04-14T12:27:30Z</time>
      </trkpt>
      <trkpt lat="59.9090546" lon="17.8395174">
        <ele>11.6732</ele>
        <time>2013-04-14T12:27:31Z</time>
      </trkpt>
      <trkpt lat="59.9091188" lon="17.8397006">
        <ele>11.1925</ele>
        <time>2013-04-14T12:27:32Z</time>
      </trkpt>
      <trkpt lat="59.9091817" lon="17.8398812">
        <ele>9.75061</ele>
        <time>2013-04-14T12:27:33Z</time>
      </trkpt>
      <trkpt lat="59.9092461" lon="17.8400565">
        <ele>9.2699</ele>
        <time>2013-04-14T12:27:34Z</time>
      </trkpt>
      <trkpt lat="59.9093093" lon="17.840228">
        <ele>8.30859</ele>
        <time>2013-04-14T12:27:35Z</time>
      </trkpt>
      <trkpt lat="59.9093714" lon="17.8403984">
        <ele>7.82788</ele>
        <time>2013-04-14T12:27:36Z</time>
      </trkpt>
      <trkpt lat="59.9094331" lon="17.8405698">
        <ele>7.34717</ele>
        <time>2013-04-14T12:27:37Z</time>
      </trkpt>
      <trkpt lat="59.9094914" lon="17.8407397">
        <ele>6.86646</ele>
        <time>2013-04-14T12:27:38Z</time>
      </trkpt>
      <trkpt lat="59.9095436" lon="17.8409141">
        <ele>4.94385</ele>
        <time>2013-04-14T12:27:39Z</time>
      </trkpt>
      <trkpt lat="59.9095859" lon="17.8410956">
        <ele>4.46326</ele>
        <time>2013-04-14T12:27:40Z</time>
      </trkpt>
      <trkpt lat="59.9096153" lon="17.841279">
        <ele>4.46326</ele>
        <time>2013-04-14T12:27:41Z</time>
      </trkpt>
      <trkpt lat="59.9096318" lon="17.8414567">
        <ele>4.94385</ele>
        <time>2013-04-14T12:27:42Z</time>
      </trkpt>
      <trkpt lat="59.9096399" lon="17.8416302">
        <ele>5.90527</ele>
        <time>2013-04-14T12:27:43Z</time>
      </trkpt>
      <trkpt lat="59.9096444" lon="17.8417983">
        <ele>6.86646</ele>
        <time>2013-04-14T12:27:44Z</time>
      </trkpt>
      <trkpt lat="59.9096408" lon="17.8419545">
        <ele>7.82788</ele>
        <time>2013-04-14T12:27:45Z</time>
      </trkpt>
      <trkpt lat="59.909632" lon="17.8421">
        <ele>8.78918</ele>
        <time>2013-04-14T12:27:46Z</time>
      </trkpt>
      <trkpt lat="59.9096237" lon="17.8422373">
        <ele>10.7118</ele>
        <time>2013-04-14T12:27:47Z</time>
      </trkpt>
      <trkpt lat="59.9096149" lon="17.8423684">
        <ele>11.6732</ele>
        <time>2013-04-14T12:27:48Z</time>
      </trkpt>
      <trkpt lat="59.9096072" lon="17.8424923">
        <ele>12.6344</ele>
        <time>2013-04-14T12:27:49Z</time>
      </trkpt>
      <trkpt lat="59.9095988" lon="17.8426155">
        <ele>13.1151</ele>
        <time>2013-04-14T12:27:50Z</time>
      </trkpt>
      <trkpt lat="59.9096011" lon="17.8427351">
        <ele>13.5958</ele>
        <time>2013-04-14T12:27:51Z</time>
      </trkpt>
      <trkpt lat="59.9096179" lon="17.842851">
        <ele>13.5958</ele>
        <time>2013-04-14T12:27:52Z</time>
      </trkpt>
      <trkpt lat="59.9096505" lon="17.8429522">
        <ele>13.1151</ele>
        <time>2013-04-14T12:27:53Z</time>
      </trkpt>
      <trkpt lat="59.9096979" lon="17.8430283">
        <ele>14.0764</ele>
        <time>2013-04-14T12:27:54Z</time>
      </trkpt>
      <trkpt lat="59.9097458" lon="17.8430853">
        <ele>14.557</ele>
        <time>2013-04-14T12:27:55Z</time>
      </trkpt>
      <trkpt lat="59.9097919" lon="17.8431343">
        <ele>15.0377</ele>
        <time>2013-04-14T12:27:56Z</time>
      </trkpt>
      <trkpt lat="59.9098442" lon="17.8431853">
        <ele>15.0377</ele>
        <time>2013-04-14T12:27:57Z</time>
      </trkpt>
      <trkpt lat="59.9098978" lon="17.8432423">
        <ele>15.0377</ele>
        <time>2013-04-14T12:27:58Z</time>
      </trkpt>
      <trkpt lat="59.9099455" lon="17.8433002">
        <ele>15.999</ele>
        <time>2013-04-14T12:27:59Z</time>
      </trkpt>
      <trkpt lat="59.9100003" lon="17.8433531">
        <ele>16.4797</ele>
        <time>2013-04-14T12:28:00Z</time>
      </trkpt>
      <trkpt lat="59.910061" lon="17.8434153">
        <ele>16.9604</ele>
        <time>2013-04-14T12:28:01Z</time>
      </trkpt>
      <trkpt lat="59.9101287" lon="17.8434805">
        <ele>17.4412</ele>
        <time>2013-04-14T12:28:02Z</time>
      </trkpt>
      <trkpt lat="59.9101993" lon="17.8435365">
        <ele>16.9604</ele>
        <time>2013-04-14T12:28:03Z</time>
      </trkpt>
      <trkpt lat="59.9102705" lon="17.8435865">
        <ele>17.4412</ele>
        <time>2013-04-14T12:28:04Z</time>
      </trkpt>
      <trkpt lat="59.9103339" lon="17.8436333">
        <ele>18.4023</ele>
        <time>2013-04-14T12:28:05Z</time>
      </trkpt>
      <trkpt lat="59.9103924" lon="17.8436845">
        <ele>18.4023</ele>
        <time>2013-04-14T12:28:06Z</time>
      </trkpt>
      <trkpt lat="59.9104541" lon="17.8437367">
        <ele>18.4023</ele>
        <time>2013-04-14T12:28:07Z</time>
      </trkpt>
      <trkpt lat="59.910515" lon="17.8437939">
        <ele>19.3638</ele>
        <time>2013-04-14T12:28:08Z</time>
      </trkpt>
      <trkpt lat="59.9105767" lon="17.8438597">
        <ele>20.325</ele>
        <time>2013-04-14T12:28:09Z</time>
      </trkpt>
      <trkpt lat="59.9106453" lon="17.8439285">
        <ele>20.325</ele>
        <time>2013-04-14T12:28:10Z</time>
      </trkpt>
      <trkpt lat="59.9107165" lon="17.8439953">
        <ele>20.325</ele>
        <time>2013-04-14T12:28:11Z</time>
      </trkpt>
      <trkpt lat="59.9107894" lon="17.8440586">
        <ele>19.8444</ele>
        <time>2013-04-14T12:28:12Z</time>
      </trkpt>
      <trkpt lat="59.9108692" lon="17.8441214">
        <ele>19.8444</ele>
        <time>2013-04-14T12:28:13Z</time>
      </trkpt>
      <trkpt lat="59.9109539" lon="17.8441767">
        <ele>19.3638</ele>
        <time>2013-04-14T12:28:14Z</time>
      </trkpt>
      <trkpt lat="59.9110393" lon="17.8442171">
        <ele>19.3638</ele>
        <time>2013-04-14T12:28:15Z</time>
      </trkpt>
      <trkpt lat="59.9111218" lon="17.8442413">
        <ele>18.8831</ele>
        <time>2013-04-14T12:28:16Z</time>
      </trkpt>
      <trkpt lat="59.9111988" lon="17.8442591">
        <ele>18.8831</ele>
        <time>2013-04-14T12:28:17Z</time>
      </trkpt>
      <trkpt lat="59.9112765" lon="17.8442732">
        <ele>19.3638</ele>
        <time>2013-04-14T12:28:18Z</time>
      </trkpt>
      <trkpt lat="59.9113586" lon="17.8442744">
        <ele>18.4023</ele>
        <time>2013-04-14T12:28:19Z</time>
      </trkpt>
      <trkpt lat="59.9114386" lon="17.8442721">
        <ele>16.9604</ele>
        <time>2013-04-14T12:28:20Z</time>
      </trkpt>
      <trkpt lat="59.911517" lon="17.8442696">
        <ele>16.4797</ele>
        <time>2013-04-14T12:28:21Z</time>
      </trkpt>
      <trkpt lat="59.9115891" lon="17.8442653">
        <ele>15.999</ele>
        <time>2013-04-14T12:28:22Z</time>
      </trkpt>
      <trkpt lat="59.9116621" lon="17.8442532">
        <ele>15.999</ele>
        <time>2013-04-14T12:28:23Z</time>
      </trkpt>
      <trkpt lat="59.9117365" lon="17.8442344">
        <ele>15.999</ele>
        <time>2013-04-14T12:28:24Z</time>
      </trkpt>
      <trkpt lat="59.9118118" lon="17.8442123">
        <ele>16.4797</ele>
        <time>2013-04-14T12:28:25Z</time>
      </trkpt>
      <trkpt lat="59.9118834" lon="17.8441892">
        <ele>16.9604</ele>
        <time>2013-04-14T12:28:26Z</time>
      </trkpt>
      <trkpt lat="59.9119506" lon="17.844161">
        <ele>16.9604</ele>
        <time>2013-04-14T12:28:27Z</time>
      </trkpt>
      <trkpt lat="59.9120167" lon="17.8441208">
        <ele>17.4412</ele>
        <time>2013-04-14T12:28:28Z</time>
      </trkpt>
      <trkpt lat="59.9120796" lon="17.8440768">
        <ele>17.4412</ele>
        <time>2013-04-14T12:28:29Z</time>
      </trkpt>
      <trkpt lat="59.9121393" lon="17.8440301">
        <ele>17.4412</ele>
        <time>2013-04-14T12:28:30Z</time>
      </trkpt>
      <trkpt lat="59.9121993" lon="17.8439773">
        <ele>17.9218</ele>
        <time>2013-04-14T12:28:31Z</time>
      </trkpt>
      <trkpt lat="59.9122547" lon="17.8439218">
        <ele>17.9218</ele>
        <time>2013-04-14T12:28:32Z</time>
      </trkpt>
      <trkpt lat="59.9123091" lon="17.843867">
        <ele>18.4023</ele>
        <time>2013-04-14T12:28:33Z</time>
      </trkpt>
      <trkpt lat="59.9123613" lon="17.8438156">
        <ele>18.4023</ele>
        <time>2013-04-14T12:28:34Z</time>
      </trkpt>
      <trkpt lat="59.9124141" lon="17.8437577">
        <ele>18.8831</ele>
        <time>2013-04-14T12:28:35Z</time>
      </trkpt>
      <trkpt lat="59.9124667" lon="17.8437037">
        <ele>18.8831</ele>
        <time>2013-04-14T12:28:36Z</time>
      </trkpt>
      <trkpt lat="59.9125213" lon="17.8436467">
        <ele>18.8831</ele>
        <time>2013-04-14T12:28:37Z</time>
      </trkpt>
      <trkpt lat="59.9125741" lon="17.8435861">
        <ele>17.9218</ele>
        <time>2013-04-14T12:28:38Z</time>
      </trkpt>
      <trkpt lat="59.912628" lon="17.8435323">
        <ele>16.9604</ele>
        <time>2013-04-14T12:28:39Z</time>
      </trkpt>
      <trkpt lat="59.9126856" lon="17.8434837">
        <ele>16.4797</ele>
        <time>2013-04-14T12:28:40Z</time>
      </trkpt>
      <trkpt lat="59.9127474" lon="17.8434428">
        <ele>16.4797</ele>
        <time>2013-04-14T12:28:41Z</time>
      </trkpt>
      <trkpt lat="59.912812" lon="17.8434064">
        <ele>16.4797</ele>
        <time>2013-04-14T12:28:42Z</time>
      </trkpt>
      <trkpt lat="59.9128794" lon="17.8433747">
        <ele>16.4797</ele>
        <time>2013-04-14T12:28:43Z</time>
      </trkpt>
      <trkpt lat="59.91295" lon="17.8433494">
        <ele>16.4797</ele>
        <time>2013-04-14T12:28:44Z</time>
      </trkpt>
      <trkpt lat="59.9130236" lon="17.8433268">
        <ele>16.4797</ele>
        <time>2013-04-14T12:28:45Z</time>
      </trkpt>
      <trkpt lat="59.9130991" lon="17.8433049">
        <ele>16.4797</ele>
        <time>2013-04-14T12:28:46Z</time>
      </trkpt>
      <trkpt lat="59.9131758" lon="17.8432846">
        <ele>16.4797</ele>
        <time>2013-04-14T12:28:47Z</time>
      </trkpt>
      <trkpt lat="59.9132538" lon="17.843265">
        <ele>16.4797</ele>
        <time>2013-04-14T12:28:48Z</time>
      </trkpt>
      <trkpt lat="59.913332" lon="17.8432433">
        <ele>16.4797</ele>
        <time>2013-04-14T12:28:49Z</time>
      </trkpt>
      <trkpt lat="59.9134088" lon="17.8432177">
        <ele>15.999</ele>
        <time>2013-04-14T12:28:50Z</time>
      </trkpt>
      <trkpt lat="59.9134865" lon="17.8431852">
        <ele>15.999</ele>
        <time>2013-04-14T12:28:51Z</time>
      </trkpt>
      <trkpt lat="59.9135633" lon="17.843146">
        <ele>15.5184</ele>
        <time>2013-04-14T12:28:52Z</time>
      </trkpt>
      <trkpt lat="59.9136372" lon="17.8431024">
        <ele>15.5184</ele>
        <time>2013-04-14T12:28:53Z</time>
      </trkpt>
      <trkpt lat="59.9137092" lon="17.8430532">
        <ele>15.0377</ele>
        <time>2013-04-14T12:28:54Z</time>
      </trkpt>
      <trkpt lat="59.9137819" lon="17.8429968">
        <ele>15.0377</ele>
        <time>2013-04-14T12:28:55Z</time>
      </trkpt>
      <trkpt lat="59.9138528" lon="17.8429362">
        <ele>14.557</ele>
        <time>2013-04-14T12:28:56Z</time>
      </trkpt>
      <trkpt lat="59.9139222" lon="17.8428728">
        <ele>14.557</ele>
        <time>2013-04-14T12:28:57Z</time>
      </trkpt>
      <trkpt lat="59.9139912" lon="17.8428074">
        <ele>14.0764</ele>
        <time>2013-04-14T12:28:58Z</time>
      </trkpt>
      <trkpt lat="59.91406" lon="17.8427392">
        <ele>13.5958</ele>
        <time>2013-04-14T12:28:59Z</time>
      </trkpt>
      <trkpt lat="59.9141282" lon="17.8426683">
        <ele>13.5958</ele>
        <time>2013-04-14T12:29:00Z</time>
      </trkpt>
      <trkpt lat="59.9141962" lon="17.8425968">
        <ele>13.1151</ele>
        <time>2013-04-14T12:29:01Z</time>
      </trkpt>
      <trkpt lat="59.9142626" lon="17.8425222">
        <ele>13.1151</ele>
        <time>2013-04-14T12:29:02Z</time>
      </trkpt>
      <trkpt lat="59.9143268" lon="17.8424433">
        <ele>12.6344</ele>
        <time>2013-04-14T12:29:03Z</time>
      </trkpt>
      <trkpt lat="59.91439" lon="17.842364">
        <ele>12.1538</ele>
        <time>2013-04-14T12:29:04Z</time>
      </trkpt>
      <trkpt lat="59.9144526" lon="17.8422866">
        <ele>12.1538</ele>
        <time>2013-04-14T12:29:05Z</time>
      </trkpt>
      <trkpt lat="59.9145132" lon="17.8422131">
        <ele>11.6732</ele>
        <time>2013-04-14T12:29:06Z</time>
      </trkpt>
      <trkpt lat="59.9145718" lon="17.8421445">
        <ele>11.1925</ele>
        <time>2013-04-14T12:29:07Z</time>
      </trkpt>
      <trkpt lat="59.9146308" lon="17.8420817">
        <ele>11.1925</ele>
        <time>2013-04-14T12:29:08Z</time>
      </trkpt>
      <trkpt lat="59.9146907" lon="17.8420248">
        <ele>11.1925</ele>
        <time>2013-04-14T12:29:09Z</time>
      </trkpt>
      <trkpt lat="59.9147518" lon="17.8419746">
        <ele>11.1925</ele>
        <time>2013-04-14T12:29:10Z</time>
      </trkpt>
      <trkpt lat="59.9148137" lon="17.8419307">
        <ele>11.1925</ele>
        <time>2013-04-14T12:29:11Z</time>
      </trkpt>
      <trkpt lat="59.9148759" lon="17.8418892">
        <ele>11.1925</ele>
        <time>2013-04-14T12:29:12Z</time>
      </trkpt>
      <trkpt lat="59.9149388" lon="17.841852">
        <ele>11.1925</ele>
        <time>2013-04-14T12:29:13Z</time>
      </trkpt>
      <trkpt lat="59.9150022" lon="17.8418196">
        <ele>11.1925</ele>
        <time>2013-04-14T12:29:14Z</time>
      </trkpt>
      <trkpt lat="59.9150665" lon="17.8417944">
        <ele>11.1925</ele>
        <time>2013-04-14T12:29:15Z</time>
      </trkpt>
      <trkpt lat="59.9151302" lon="17.8417742">
        <ele>11.6732</ele>
        <time>2013-04-14T12:29:16Z</time>
      </trkpt>
      <trkpt lat="59.9151934" lon="17.8417571">
        <ele>12.1538</ele>
        <time>2013-04-14T12:29:17Z</time>
      </trkpt>
      <trkpt lat="59.9152581" lon="17.8417461">
        <ele>11.6732</ele>
        <time>2013-04-14T12:29:18Z</time>
      </trkpt>
      <trkpt lat="59.9153225" lon="17.8417446">
        <ele>11.1925</ele>
        <time>2013-04-14T12:29:19Z</time>
      </trkpt>
      <trkpt lat="59.9153852" lon="17.8417489">
        <ele>11.1925</ele>
        <time>2013-04-14T12:29:20Z</time>
      </trkpt>
      <trkpt lat="59.915447" lon="17.8417582">
        <ele>11.6732</ele>
        <time>2013-04-14T12:29:21Z</time>
      </trkpt>
      <trkpt lat="59.9155136" lon="17.8417707">
        <ele>11.1925</ele>
        <time>2013-04-14T12:29:22Z</time>
      </trkpt>
      <trkpt lat="59.9155799" lon="17.841785">
        <ele>10.7118</ele>
        <time>2013-04-14T12:29:23Z</time>
      </trkpt>
      <trkpt lat="59.9156441" lon="17.8417908">
        <ele>9.75061</ele>
        <time>2013-04-14T12:29:24Z</time>
      </trkpt>
      <trkpt lat="59.9157088" lon="17.8417923">
        <ele>9.75061</ele>
        <time>2013-04-14T12:29:25Z</time>
      </trkpt>
      <trkpt lat="59.9157702" lon="17.8417924">
        <ele>9.75061</ele>
        <time>2013-04-14T12:29:26Z</time>
      </trkpt>
      <trkpt lat="59.9158307" lon="17.8417997">
        <ele>9.2699</ele>
        <time>2013-04-14T12:29:27Z</time>
      </trkpt>
      <trkpt lat="59.9158915" lon="17.841801">
        <ele>9.2699</ele>
        <time>2013-04-14T12:29:28Z</time>
      </trkpt>
      <trkpt lat="59.9159533" lon="17.84181">
        <ele>8.78918</ele>
        <time>2013-04-14T12:29:29Z</time>
      </trkpt>
      <trkpt lat="59.916016" lon="17.8418328">
        <ele>7.82788</ele>
        <time>2013-04-14T12:29:30Z</time>
      </trkpt>
      <trkpt lat="59.9160741" lon="17.841859">
        <ele>7.82788</ele>
        <time>2013-04-14T12:29:31Z</time>
      </trkpt>
      <trkpt lat="59.91613" lon="17.8418892">
        <ele>7.82788</ele>
        <time>2013-04-14T12:29:32Z</time>
      </trkpt>
      <trkpt lat="59.9161787" lon="17.8419312">
        <ele>8.78918</ele>
        <time>2013-04-14T12:29:33Z</time>
      </trkpt>
      <trkpt lat="59.9162253" lon="17.8419906">
        <ele>9.2699</ele>
        <time>2013-04-14T12:29:34Z</time>
      </trkpt>
      <trkpt lat="59.9162691" lon="17.8420524">
        <ele>9.75061</ele>
        <time>2013-04-14T12:29:35Z</time>
      </trkpt>
      <trkpt lat="59.9163113" lon="17.8421177">
        <ele>8.78918</ele>
        <time>2013-04-14T12:29:36Z</time>
      </trkpt>
      <trkpt lat="59.9163445" lon="17.8421772">
        <ele>9.2699</ele>
        <time>2013-04-14T12:29:37Z</time>
      </trkpt>
      <trkpt lat="59.9163796" lon="17.8422387">
        <ele>9.2699</ele>
        <time>2013-04-14T12:29:38Z</time>
      </trkpt>
      <trkpt lat="59.9164179" lon="17.8423068">
        <ele>9.2699</ele>
        <time>2013-04-14T12:29:39Z</time>
      </trkpt>
      <trkpt lat="59.9164537" lon="17.8423735">
        <ele>9.2699</ele>
        <time>2013-04-14T12:29:40Z</time>
      </trkpt>
      <trkpt lat="59.9164862" lon="17.8424322">
        <ele>9.75061</ele>
        <time>2013-04-14T12:29:41Z</time>
      </trkpt>
      <trkpt lat="59.916522" lon="17.8424887">
        <ele>9.75061</ele>
        <time>2013-04-14T12:29:42Z</time>
      </trkpt>
      <trkpt lat="59.9165581" lon="17.842546">
        <ele>10.2312</ele>
        <time>2013-04-14T12:29:43Z</time>
      </trkpt>
      <trkpt lat="59.9165932" lon="17.8426042">
        <ele>10.2312</ele>
        <time>2013-04-14T12:29:44Z</time>
      </trkpt>
      <trkpt lat="59.9166308" lon="17.8426578">
        <ele>10.2312</ele>
        <time>2013-04-14T12:29:45Z</time>
      </trkpt>
      <trkpt lat="59.9166692" lon="17.8427071">
        <ele>10.7118</ele>
        <time>2013-04-14T12:29:46Z</time>
      </trkpt>
      <trkpt lat="59.9167075" lon="17.8427559">
        <ele>10.7118</ele>
        <time>2013-04-14T12:29:47Z</time>
      </trkpt>
      <trkpt lat="59.9167447" lon="17.8428059">
        <ele>11.6732</ele>
        <time>2013-04-14T12:29:48Z</time>
      </trkpt>
      <trkpt lat="59.9167806" lon="17.8428572">
        <ele>12.6344</ele>
        <time>2013-04-14T12:29:49Z</time>
      </trkpt>
      <trkpt lat="59.9168189" lon="17.8429055">
        <ele>13.5958</ele>
        <time>2013-04-14T12:29:50Z</time>
      </trkpt>
      <trkpt lat="59.9168629" lon="17.8429438">
        <ele>14.0764</ele>
        <time>2013-04-14T12:29:51Z</time>
      </trkpt>
      <trkpt lat="59.9169075" lon="17.8429701">
        <ele>14.0764</ele>
        <time>2013-04-14T12:29:52Z</time>
      </trkpt>
      <trkpt lat="59.9169547" lon="17.842976">
        <ele>14.557</ele>
        <time>2013-04-14T12:29:53Z</time>
      </trkpt>
      <trkpt lat="59.9170054" lon="17.8429632">
        <ele>14.0764</ele>
        <time>2013-04-14T12:29:54Z</time>
      </trkpt>
      <trkpt lat="59.9170566" lon="17.8429393">
        <ele>13.5958</ele>
        <time>2013-04-14T12:29:55Z</time>
      </trkpt>
      <trkpt lat="59.9171107" lon="17.8429107">
        <ele>13.5958</ele>
        <time>2013-04-14T12:29:56Z</time>
      </trkpt>
      <trkpt lat="59.9171654" lon="17.8428784">
        <ele>13.1151</ele>
        <time>2013-04-14T12:29:57Z</time>
      </trkpt>
      <trkpt lat="59.9172204" lon="17.8428418">
        <ele>13.1151</ele>
        <time>2013-04-14T12:29:58Z</time>
      </trkpt>
      <trkpt lat="59.9172742" lon="17.8428015">
        <ele>13.1151</ele>
        <time>2013-04-14T12:29:59Z</time>
      </trkpt>
      <trkpt lat="59.9173286" lon="17.8427605">
        <ele>13.1151</ele>
        <time>2013-04-14T12:30:00Z</time>
      </trkpt>
      <trkpt lat="59.9173831" lon="17.8427196">
        <ele>13.5958</ele>
        <time>2013-04-14T12:30:01Z</time>
      </trkpt>
      <trkpt lat="59.9174369" lon="17.842677">
        <ele>14.0764</ele>
        <time>2013-04-14T12:30:02Z</time>
      </trkpt>
      <trkpt lat="59.917489" lon="17.842632">
        <ele>14.0764</ele>
        <time>2013-04-14T12:30:03Z</time>
      </trkpt>
      <trkpt lat="59.9175395" lon="17.8425884">
        <ele>14.0764</ele>
        <time>2013-04-14T12:30:04Z</time>
      </trkpt>
      <trkpt lat="59.9175876" lon="17.8425459">
        <ele>14.0764</ele>
        <time>2013-04-14T12:30:05Z</time>
      </trkpt>
      <trkpt lat="59.9176374" lon="17.8425015">
        <ele>14.0764</ele>
        <time>2013-04-14T12:30:06Z</time>
      </trkpt>
      <trkpt lat="59.91769" lon="17.8424528">
        <ele>14.0764</ele>
        <time>2013-04-14T12:30:07Z</time>
      </trkpt>
      <trkpt lat="59.9177454" lon="17.8423979">
        <ele>14.0764</ele>
        <time>2013-04-14T12:30:08Z</time>
      </trkpt>
      <trkpt lat="59.9178016" lon="17.8423363">
        <ele>13.1151</ele>
        <time>2013-04-14T12:30:09Z</time>
      </trkpt>
      <trkpt lat="59.9178591" lon="17.8422711">
        <ele>12.6344</ele>
        <time>2013-04-14T12:30:10Z</time>
      </trkpt>
      <trkpt lat="59.9179195" lon="17.8422073">
        <ele>12.1538</ele>
        <time>2013-04-14T12:30:11Z</time>
      </trkpt>
      <trkpt lat="59.9179827" lon="17.8421457">
        <ele>11.6732</ele>
        <time>2013-04-14T12:30:12Z</time>
      </trkpt>
      <trkpt lat="59.918044" lon="17.8420822">
        <ele>11.1925</ele>
        <time>2013-04-14T12:30:13Z</time>
      </trkpt>
      <trkpt lat="59.9181066" lon="17.842018">
        <ele>11.1925</ele>
        <time>2013-04-14T12:30:14Z</time>
      </trkpt>
      <trkpt lat="59.9181694" lon="17.841955">
        <ele>11.1925</ele>
        <time>2013-04-14T12:30:15Z</time>
      </trkpt>
      <trkpt lat="59.9182351" lon="17.8418921">
        <ele>10.7118</ele>
        <time>2013-04-14T12:30:16Z</time>
      </trkpt>
      <trkpt lat="59.918303" lon="17.8418281">
        <ele>9.75061</ele>
        <time>2013-04-14T12:30:17Z</time>
      </trkpt>
      <trkpt lat="59.9183727" lon="17.8417654">
        <ele>9.2699</ele>
        <time>2013-04-14T12:30:18Z</time>
      </trkpt>
      <trkpt lat="59.9184413" lon="17.841703">
        <ele>8.78918</ele>
        <time>2013-04-14T12:30:19Z</time>
      </trkpt>
      <trkpt lat="59.9185107" lon="17.8416407">
        <ele>8.30859</ele>
        <time>2013-04-14T12:30:20Z</time>
      </trkpt>
      <trkpt lat="59.9185805" lon="17.8415799">
        <ele>7.82788</ele>
        <time>2013-04-14T12:30:21Z</time>
      </trkpt>
      <trkpt lat="59.9186504" lon="17.8415194">
        <ele>7.82788</ele>
        <time>2013-04-14T12:30:22Z</time>
      </trkpt>
      <trkpt lat="59.91872" lon="17.8414612">
        <ele>7.82788</ele>
        <time>2013-04-14T12:30:23Z</time>
      </trkpt>
      <trkpt lat="59.9187895" lon="17.841408">
        <ele>7.34717</ele>
        <time>2013-04-14T12:30:24Z</time>
      </trkpt>
      <trkpt lat="59.9188598" lon="17.8413582">
        <ele>7.34717</ele>
        <time>2013-04-14T12:30:25Z</time>
      </trkpt>
      <trkpt lat="59.9189302" lon="17.8413091">
        <ele>7.34717</ele>
        <time>2013-04-14T12:30:26Z</time>
      </trkpt>
      <trkpt lat="59.9190007" lon="17.8412614">
        <ele>7.34717</ele>
        <time>2013-04-14T12:30:27Z</time>
      </trkpt>
      <trkpt lat="59.9190705" lon="17.8412147">
        <ele>7.34717</ele>
        <time>2013-04-14T12:30:28Z</time>
      </trkpt>
      <trkpt lat="59.9191396" lon="17.8411657">
        <ele>7.34717</ele>
        <time>2013-04-14T12:30:29Z</time>
      </trkpt>
      <trkpt lat="59.9192094" lon="17.8411146">
        <ele>7.34717</ele>
        <time>2013-04-14T12:30:30Z</time>
      </trkpt>
      <trkpt lat="59.9192788" lon="17.8410664">
        <ele>7.34717</ele>
        <time>2013-04-14T12:30:31Z</time>
      </trkpt>
      <trkpt lat="59.9193474" lon="17.8410215">
        <ele>7.34717</ele>
        <time>2013-04-14T12:30:32Z</time>
      </trkpt>
      <trkpt lat="59.9194152" lon="17.8409768">
        <ele>7.34717</ele>
        <time>2013-04-14T12:30:33Z</time>
      </trkpt>
      <trkpt lat="59.9194819" lon="17.8409345">
        <ele>7.34717</ele>
        <time>2013-04-14T12:30:34Z</time>
      </trkpt>
      <trkpt lat="59.9195488" lon="17.8408955">
        <ele>7.34717</ele>
        <time>2013-04-14T12:30:35Z</time>
      </trkpt>
      <trkpt lat="59.9196161" lon="17.8408563">
        <ele>7.34717</ele>
        <time>2013-04-14T12:30:36Z</time>
      </trkpt>
      <trkpt lat="59.9196831" lon="17.8408207">
        <ele>7.82788</ele>
        <time>2013-04-14T12:30:37Z</time>
      </trkpt>
      <trkpt lat="59.9197501" lon="17.8407915">
        <ele>7.82788</ele>
        <time>2013-04-14T12:30:38Z</time>
      </trkpt>
      <trkpt lat="59.9198165" lon="17.8407682">
        <ele>7.82788</ele>
        <time>2013-04-14T12:30:39Z</time>
      </trkpt>
      <trkpt lat="59.9198839" lon="17.8407537">
        <ele>8.30859</ele>
        <time>2013-04-14T12:30:40Z</time>
      </trkpt>
      <trkpt lat="59.9199487" lon="17.8407463">
        <ele>8.30859</ele>
        <time>2013-04-14T12:30:41Z</time>
      </trkpt>
      <trkpt lat="59.9200149" lon="17.8407403">
        <ele>8.30859</ele>
        <time>2013-04-14T12:30:42Z</time>
      </trkpt>
      <trkpt lat="59.9200785" lon="17.8407366">
        <ele>8.30859</ele>
        <time>2013-04-14T12:30:43Z</time>
      </trkpt>
      <trkpt lat="59.9201417" lon="17.8407349">
        <ele>8.30859</ele>
        <time>2013-04-14T12:30:44Z</time>
      </trkpt>
      <trkpt lat="59.9202037" lon="17.8407335">
        <ele>8.78918</ele>
        <time>2013-04-14T12:30:45Z</time>
      </trkpt>
      <trkpt lat="59.9202605" lon="17.8407341">
        <ele>9.2699</ele>
        <time>2013-04-14T12:30:46Z</time>
      </trkpt>
      <trkpt lat="59.9203181" lon="17.8407377">
        <ele>9.2699</ele>
        <time>2013-04-14T12:30:47Z</time>
      </trkpt>
      <trkpt lat="59.920379" lon="17.8407429">
        <ele>9.2699</ele>
        <time>2013-04-14T12:30:48Z</time>
      </trkpt>
      <trkpt lat="59.9204403" lon="17.840738">
        <ele>9.75061</ele>
        <time>2013-04-14T12:30:49Z</time>
      </trkpt>
      <trkpt lat="59.9205071" lon="17.8407356">
        <ele>9.75061</ele>
        <time>2013-04-14T12:30:50Z</time>
      </trkpt>
      <trkpt lat="59.9205718" lon="17.8407274">
        <ele>9.2699</ele>
        <time>2013-04-14T12:30:51Z</time>
      </trkpt>
      <trkpt lat="59.9206375" lon="17.8407227">
        <ele>9.75061</ele>
        <time>2013-04-14T12:30:52Z</time>
      </trkpt>
      <trkpt lat="59.9207072" lon="17.8407199">
        <ele>10.2312</ele>
        <time>2013-04-14T12:30:53Z</time>
      </trkpt>
      <trkpt lat="59.920779" lon="17.8407207">
        <ele>9.75061</ele>
        <time>2013-04-14T12:30:54Z</time>
      </trkpt>
      <trkpt lat="59.9208515" lon="17.8407205">
        <ele>10.2312</ele>
        <time>2013-04-14T12:30:55Z</time>
      </trkpt>
      <trkpt lat="59.9209213" lon="17.8407152">
        <ele>10.2312</ele>
        <time>2013-04-14T12:30:56Z</time>
      </trkpt>
      <trkpt lat="59.9209889" lon="17.8407091">
        <ele>10.2312</ele>
        <time>2013-04-14T12:30:57Z</time>
      </trkpt>
      <trkpt lat="59.9210543" lon="17.8407044">
        <ele>9.75061</ele>
        <time>2013-04-14T12:30:58Z</time>
      </trkpt>
      <trkpt lat="59.921119" lon="17.8406997">
        <ele>9.75061</ele>
        <time>2013-04-14T12:30:59Z</time>
      </trkpt>
      <trkpt lat="59.921183" lon="17.8406958">
        <ele>9.75061</ele>
        <time>2013-04-14T12:31:00Z</time>
      </trkpt>
      <trkpt lat="59.9212457" lon="17.8406911">
        <ele>9.2699</ele>
        <time>2013-04-14T12:31:01Z</time>
      </trkpt>
      <trkpt lat="59.9213111" lon="17.8406831">
        <ele>9.2699</ele>
        <time>2013-04-14T12:31:02Z</time>
      </trkpt>
      <trkpt lat="59.9213751" lon="17.840674">
        <ele>9.2699</ele>
        <time>2013-04-14T12:31:03Z</time>
      </trkpt>
      <trkpt lat="59.9214352" lon="17.840665">
        <ele>8.78918</ele>
        <time>2013-04-14T12:31:04Z</time>
      </trkpt>
      <trkpt lat="59.9214961" lon="17.8406526">
        <ele>8.30859</ele>
        <time>2013-04-14T12:31:05Z</time>
      </trkpt>
      <trkpt lat="59.9215582" lon="17.8406401">
        <ele>8.30859</ele>
        <time>2013-04-14T12:31:06Z</time>
      </trkpt>
      <trkpt lat="59.9216203" lon="17.8406274">
        <ele>7.82788</ele>
        <time>2013-04-14T12:31:07Z</time>
      </trkpt>
      <trkpt lat="59.921683" lon="17.8406129">
        <ele>7.82788</ele>
        <time>2013-04-14T12:31:08Z</time>
      </trkpt>
      <trkpt lat="59.9217465" lon="17.8405973">
        <ele>7.82788</ele>
        <time>2013-04-14T12:31:09Z</time>
      </trkpt>
      <trkpt lat="59.9218106" lon="17.840581">
        <ele>7.82788</ele>
        <time>2013-04-14T12:31:10Z</time>
      </trkpt>
      <trkpt lat="59.9218753" lon="17.8405641">
        <ele>7.82788</ele>
        <time>2013-04-14T12:31:11Z</time>
      </trkpt>
      <trkpt lat="59.9219403" lon="17.8405464">
        <ele>7.34717</ele>
        <time>2013-04-14T12:31:12Z</time>
      </trkpt>
      <trkpt lat="59.9220053" lon="17.8405279">
        <ele>7.34717</ele>
        <time>2013-04-14T12:31:13Z</time>
      </trkpt>
      <trkpt lat="59.922071" lon="17.8405087">
        <ele>7.82788</ele>
        <time>2013-04-14T12:31:14Z</time>
      </trkpt>
      <trkpt lat="59.9221374" lon="17.8404886">
        <ele>7.82788</ele>
        <time>2013-04-14T12:31:15Z</time>
      </trkpt>
      <trkpt lat="59.9222036" lon="17.8404688">
        <ele>8.30859</ele>
        <time>2013-04-14T12:31:16Z</time>
      </trkpt>
      <trkpt lat="59.9222714" lon="17.8404466">
        <ele>8.30859</ele>
        <time>2013-04-14T12:31:17Z</time>
      </trkpt>
      <trkpt lat="59.9223399" lon="17.8404226">
        <ele>8.78918</ele>
        <time>2013-04-14T12:31:18Z</time>
      </trkpt>
      <trkpt lat="59.9224087" lon="17.8403946">
        <ele>8.78918</ele>
        <time>2013-04-14T12:31:19Z</time>
      </trkpt>
      <trkpt lat="59.9224776" lon="17.8403641">
        <ele>8.78918</ele>
        <time>2013-04-14T12:31:20Z</time>
      </trkpt>
      <trkpt lat="59.922546" lon="17.840333">
        <ele>9.2699</ele>
        <time>2013-04-14T12:31:21Z</time>
      </trkpt>
      <trkpt lat="59.9226143" lon="17.8402999">
        <ele>9.2699</ele>
        <time>2013-04-14T12:31:22Z</time>
      </trkpt>
      <trkpt lat="59.9226817" lon="17.8402633">
        <ele>9.2699</ele>
        <time>2013-04-14T12:31:23Z</time>
      </trkpt>
      <trkpt lat="59.9227486" lon="17.8402254">
        <ele>9.2699</ele>
        <time>2013-04-14T12:31:24Z</time>
      </trkpt>
      <trkpt lat="59.9228157" lon="17.8401896">
        <ele>9.2699</ele>
        <time>2013-04-14T12:31:25Z</time>
      </trkpt>
      <trkpt lat="59.9228833" lon="17.8401554">
        <ele>9.2699</ele>
        <time>2013-04-14T12:31:26Z</time>
      </trkpt>
      <trkpt lat="59.9229511" lon="17.840119">
        <ele>9.2699</ele>
        <time>2013-04-14T12:31:27Z</time>
      </trkpt>
      <trkpt lat="59.923019" lon="17.8400803">
        <ele>9.2699</ele>
        <time>2013-04-14T12:31:28Z</time>
      </trkpt>
      <trkpt lat="59.9230879" lon="17.840043">
        <ele>9.2699</ele>
        <time>2013-04-14T12:31:29Z</time>
      </trkpt>
      <trkpt lat="59.9231573" lon="17.8400068">
        <ele>9.2699</ele>
        <time>2013-04-14T12:31:30Z</time>
      </trkpt>
      <trkpt lat="59.923227" lon="17.839969">
        <ele>9.2699</ele>
        <time>2013-04-14T12:31:31Z</time>
      </trkpt>
      <trkpt lat="59.9232966" lon="17.8399311">
        <ele>9.2699</ele>
        <time>2013-04-14T12:31:32Z</time>
      </trkpt>
      <trkpt lat="59.9233681" lon="17.8398924">
        <ele>9.2699</ele>
        <time>2013-04-14T12:31:33Z</time>
      </trkpt>
      <trkpt lat="59.9234396" lon="17.8398538">
        <ele>8.78918</ele>
        <time>2013-04-14T12:31:34Z</time>
      </trkpt>
      <trkpt lat="59.9235107" lon="17.8398161">
        <ele>8.78918</ele>
        <time>2013-04-14T12:31:35Z</time>
      </trkpt>
      <trkpt lat="59.9235815" lon="17.8397809">
        <ele>8.78918</ele>
        <time>2013-04-14T12:31:36Z</time>
      </trkpt>
      <trkpt lat="59.9236525" lon="17.8397488">
        <ele>8.30859</ele>
        <time>2013-04-14T12:31:37Z</time>
      </trkpt>
      <trkpt lat="59.9237238" lon="17.8397165">
        <ele>8.30859</ele>
        <time>2013-04-14T12:31:38Z</time>
      </trkpt>
      <trkpt lat="59.9237944" lon="17.8396834">
        <ele>8.30859</ele>
        <time>2013-04-14T12:31:39Z</time>
      </trkpt>
      <trkpt lat="59.9238649" lon="17.8396499">
        <ele>8.30859</ele>
        <time>2013-04-14T12:31:40Z</time>
      </trkpt>
      <trkpt lat="59.9239364" lon="17.8396168">
        <ele>8.30859</ele>
        <time>2013-04-14T12:31:41Z</time>
      </trkpt>
      <trkpt lat="59.9240094" lon="17.839587">
        <ele>8.30859</ele>
        <time>2013-04-14T12:31:42Z</time>
      </trkpt>
      <trkpt lat="59.9240835" lon="17.8395605">
        <ele>8.30859</ele>
        <time>2013-04-14T12:31:43Z</time>
      </trkpt>
      <trkpt lat="59.9241581" lon="17.8395352">
        <ele>7.82788</ele>
        <time>2013-04-14T12:31:44Z</time>
      </trkpt>
      <trkpt lat="59.9242325" lon="17.8395101">
        <ele>7.82788</ele>
        <time>2013-04-14T12:31:45Z</time>
      </trkpt>
      <trkpt lat="59.9243058" lon="17.8394851">
        <ele>7.82788</ele>
        <time>2013-04-14T12:31:46Z</time>
      </trkpt>
      <trkpt lat="59.9243772" lon="17.8394629">
        <ele>7.82788</ele>
        <time>2013-04-14T12:31:47Z</time>
      </trkpt>
      <trkpt lat="59.9244461" lon="17.8394457">
        <ele>8.30859</ele>
        <time>2013-04-14T12:31:48Z</time>
      </trkpt>
      <trkpt lat="59.9245125" lon="17.8394301">
        <ele>8.30859</ele>
        <time>2013-04-14T12:31:49Z</time>
      </trkpt>
      <trkpt lat="59.9245777" lon="17.8394162">
        <ele>8.78918</ele>
        <time>2013-04-14T12:31:50Z</time>
      </trkpt>
      <trkpt lat="59.9246427" lon="17.8394053">
        <ele>8.78918</ele>
        <time>2013-04-14T12:31:51Z</time>
      </trkpt>
      <trkpt lat="59.9247073" lon="17.839397">
        <ele>9.75061</ele>
        <time>2013-04-14T12:31:52Z</time>
      </trkpt>
      <trkpt lat="59.9247707" lon="17.8393918">
        <ele>9.75061</ele>
        <time>2013-04-14T12:31:53Z</time>
      </trkpt>
      <trkpt lat="59.9248365" lon="17.8393876">
        <ele>10.2312</ele>
        <time>2013-04-14T12:31:54Z</time>
      </trkpt>
      <trkpt lat="59.9249038" lon="17.8393826">
        <ele>9.75061</ele>
        <time>2013-04-14T12:31:55Z</time>
      </trkpt>
      <trkpt lat="59.9249708" lon="17.8393768">
        <ele>10.2312</ele>
        <time>2013-04-14T12:31:56Z</time>
      </trkpt>
      <trkpt lat="59.9250369" lon="17.8393739">
        <ele>10.2312</ele>
        <time>2013-04-14T12:31:57Z</time>
      </trkpt>
      <trkpt lat="59.9251029" lon="17.8393712">
        <ele>10.2312</ele>
        <time>2013-04-14T12:31:58Z</time>
      </trkpt>
      <trkpt lat="59.9251695" lon="17.8393685">
        <ele>10.2312</ele>
        <time>2013-04-14T12:31:59Z</time>
      </trkpt>
      <trkpt lat="59.9252361" lon="17.8393691">
        <ele>10.2312</ele>
        <time>2013-04-14T12:32:00Z</time>
      </trkpt>
      <trkpt lat="59.9253038" lon="17.8393728">
        <ele>10.2312</ele>
        <time>2013-04-14T12:32:01Z</time>
      </trkpt>
      <trkpt lat="59.9253711" lon="17.8393813">
        <ele>10.7118</ele>
        <time>2013-04-14T12:32:02Z</time>
      </trkpt>
      <trkpt lat="59.9254397" lon="17.8393919">
        <ele>11.1925</ele>
        <time>2013-04-14T12:32:03Z</time>
      </trkpt>
      <trkpt lat="59.9255104" lon="17.8394023">
        <ele>11.1925</ele>
        <time>2013-04-14T12:32:04Z</time>
      </trkpt>
      <trkpt lat="59.9255829" lon="17.83941">
        <ele>11.6732</ele>
        <time>2013-04-14T12:32:05Z</time>
      </trkpt>
      <trkpt lat="59.9256566" lon="17.8394116">
        <ele>11.6732</ele>
        <time>2013-04-14T12:32:06Z</time>
      </trkpt>
      <trkpt lat="59.9257303" lon="17.8393992">
        <ele>11.6732</ele>
        <time>2013-04-14T12:32:07Z</time>
      </trkpt>
      <trkpt lat="59.9258042" lon="17.839366">
        <ele>11.6732</ele>
        <time>2013-04-14T12:32:08Z</time>
      </trkpt>
      <trkpt lat="59.9258742" lon="17.8393059">
        <ele>12.1538</ele>
        <time>2013-04-14T12:32:09Z</time>
      </trkpt>
      <trkpt lat="59.9259349" lon="17.8392208">
        <ele>12.6344</ele>
        <time>2013-04-14T12:32:10Z</time>
      </trkpt>
      <trkpt lat="59.925989" lon="17.8391235">
        <ele>13.1151</ele>
        <time>2013-04-14T12:32:11Z</time>
      </trkpt>
      <trkpt lat="59.9260395" lon="17.8390267">
        <ele>13.1151</ele>
        <time>2013-04-14T12:32:12Z</time>
      </trkpt>
      <trkpt lat="59.9260881" lon="17.838932">
        <ele>13.5958</ele>
        <time>2013-04-14T12:32:13Z</time>
      </trkpt>
      <trkpt lat="59.9261338" lon="17.8388387">
        <ele>13.5958</ele>
        <time>2013-04-14T12:32:14Z</time>
      </trkpt>
      <trkpt lat="59.9261793" lon="17.838747">
        <ele>13.5958</ele>
        <time>2013-04-14T12:32:15Z</time>
      </trkpt>
      <trkpt lat="59.9262218" lon="17.8386599">
        <ele>14.0764</ele>
        <time>2013-04-14T12:32:16Z</time>
      </trkpt>
      <trkpt lat="59.9262638" lon="17.8385707">
        <ele>14.0764</ele>
        <time>2013-04-14T12:32:17Z</time>
      </trkpt>
      <trkpt lat="59.9263046" lon="17.8384802">
        <ele>14.557</ele>
        <time>2013-04-14T12:32:18Z</time>
      </trkpt>
      <trkpt lat="59.9263452" lon="17.8383906">
        <ele>15.0377</ele>
        <time>2013-04-14T12:32:19Z</time>
      </trkpt>
      <trkpt lat="59.9263869" lon="17.8383054">
        <ele>15.999</ele>
        <time>2013-04-14T12:32:20Z</time>
      </trkpt>
      <trkpt lat="59.9264278" lon="17.8382208">
        <ele>16.4797</ele>
        <time>2013-04-14T12:32:21Z</time>
      </trkpt>
      <trkpt lat="59.9264674" lon="17.8381363">
        <ele>16.4797</ele>
        <time>2013-04-14T12:32:22Z</time>
      </trkpt>
      <trkpt lat="59.9265104" lon="17.838059">
        <ele>16.4797</ele>
        <time>2013-04-14T12:32:23Z</time>
      </trkpt>
      <trkpt lat="59.9265568" lon="17.8379907">
        <ele>16.9604</ele>
        <time>2013-04-14T12:32:24Z</time>
      </trkpt>
      <trkpt lat="59.9266041" lon="17.8379319">
        <ele>16.9604</ele>
        <time>2013-04-14T12:32:25Z</time>
      </trkpt>
      <trkpt lat="59.9266526" lon="17.8378838">
        <ele>17.4412</ele>
        <time>2013-04-14T12:32:26Z</time>
      </trkpt>
      <trkpt lat="59.9266984" lon="17.8378468">
        <ele>17.4412</ele>
        <time>2013-04-14T12:32:27Z</time>
      </trkpt>
      <trkpt lat="59.9267441" lon="17.8378135">
        <ele>17.9218</ele>
        <time>2013-04-14T12:32:28Z</time>
      </trkpt>
      <trkpt lat="59.9267894" lon="17.8377774">
        <ele>18.4023</ele>
        <time>2013-04-14T12:32:29Z</time>
      </trkpt>
      <trkpt lat="59.9268341" lon="17.8377408">
        <ele>18.8831</ele>
        <time>2013-04-14T12:32:30Z</time>
      </trkpt>
      <trkpt lat="59.9268793" lon="17.8377012">
        <ele>19.3638</ele>
        <time>2013-04-14T12:32:31Z</time>
      </trkpt>
      <trkpt lat="59.9269248" lon="17.8376636">
        <ele>19.8444</ele>
        <time>2013-04-14T12:32:32Z</time>
      </trkpt>
      <trkpt lat="59.9269735" lon="17.837625">
        <ele>19.3638</ele>
        <time>2013-04-14T12:32:33Z</time>
      </trkpt>
      <trkpt lat="59.92702" lon="17.8375715">
        <ele>19.3638</ele>
        <time>2013-04-14T12:32:34Z</time>
      </trkpt>
      <trkpt lat="59.9270657" lon="17.83751">
        <ele>19.3638</ele>
        <time>2013-04-14T12:32:35Z</time>
      </trkpt>
      <trkpt lat="59.9271092" lon="17.8374499">
        <ele>18.8831</ele>
        <time>2013-04-14T12:32:36Z</time>
      </trkpt>
      <trkpt lat="59.9271532" lon="17.8373852">
        <ele>17.9218</ele>
        <time>2013-04-14T12:32:37Z</time>
      </trkpt>
      <trkpt lat="59.9271997" lon="17.8373064">
        <ele>17.4412</ele>
        <time>2013-04-14T12:32:38Z</time>
      </trkpt>
      <trkpt lat="59.9272493" lon="17.8372292">
        <ele>17.4412</ele>
        <time>2013-04-14T12:32:39Z</time>
      </trkpt>
      <trkpt lat="59.9272945" lon="17.8371551">
        <ele>17.4412</ele>
        <time>2013-04-14T12:32:40Z</time>
      </trkpt>
      <trkpt lat="59.9273345" lon="17.8370976">
        <ele>16.9604</ele>
        <time>2013-04-14T12:32:41Z</time>
      </trkpt>
      <trkpt lat="59.927378" lon="17.8370446">
        <ele>16.4797</ele>
        <time>2013-04-14T12:32:42Z</time>
      </trkpt>
      <trkpt lat="59.9274215" lon="17.8369848">
        <ele>16.9604</ele>
        <time>2013-04-14T12:32:43Z</time>
      </trkpt>
      <trkpt lat="59.9274636" lon="17.8369438">
        <ele>17.4412</ele>
        <time>2013-04-14T12:32:44Z</time>
      </trkpt>
      <trkpt lat="59.9275043" lon="17.8368987">
        <ele>17.9218</ele>
        <time>2013-04-14T12:32:45Z</time>
      </trkpt>
      <trkpt lat="59.9275438" lon="17.8368474">
        <ele>17.9218</ele>
        <time>2013-04-14T12:32:46Z</time>
      </trkpt>
      <trkpt lat="59.9275832" lon="17.8367975">
        <ele>17.9218</ele>
        <time>2013-04-14T12:32:47Z</time>
      </trkpt>
      <trkpt lat="59.927621" lon="17.8367438">
        <ele>17.9218</ele>
        <time>2013-04-14T12:32:48Z</time>
      </trkpt>
      <trkpt lat="59.9276571" lon="17.8366858">
        <ele>17.9218</ele>
        <time>2013-04-14T12:32:49Z</time>
      </trkpt>
      <trkpt lat="59.9276939" lon="17.8366265">
        <ele>18.4023</ele>
        <time>2013-04-14T12:32:50Z</time>
      </trkpt>
      <trkpt lat="59.9277332" lon="17.8365703">
        <ele>17.9218</ele>
        <time>2013-04-14T12:32:51Z</time>
      </trkpt>
      <trkpt lat="59.9277742" lon="17.8365097">
        <ele>18.4023</ele>
        <time>2013-04-14T12:32:52Z</time>
      </trkpt>
      <trkpt lat="59.9278158" lon="17.8364438">
        <ele>17.9218</ele>
        <time>2013-04-14T12:32:53Z</time>
      </trkpt>
      <trkpt lat="59.9278583" lon="17.8363784">
        <ele>17.9218</ele>
        <time>2013-04-14T12:32:54Z</time>
      </trkpt>
      <trkpt lat="59.9279005" lon="17.8363077">
        <ele>17.4412</ele>
        <time>2013-04-14T12:32:55Z</time>
      </trkpt>
      <trkpt lat="59.9279445" lon="17.8362319">
        <ele>17.4412</ele>
        <time>2013-04-14T12:32:56Z</time>
      </trkpt>
      <trkpt lat="59.9279896" lon="17.8361568">
        <ele>17.4412</ele>
        <time>2013-04-14T12:32:57Z</time>
      </trkpt>
      <trkpt lat="59.9280352" lon="17.8360813">
        <ele>17.4412</ele>
        <time>2013-04-14T12:32:58Z</time>
      </trkpt>
      <trkpt lat="59.9280815" lon="17.8360057">
        <ele>17.9218</ele>
        <time>2013-04-14T12:32:59Z</time>
      </trkpt>
      <trkpt lat="59.9281284" lon="17.8359325">
        <ele>17.9218</ele>
        <time>2013-04-14T12:33:00Z</time>
      </trkpt>
      <trkpt lat="59.9281758" lon="17.835863">
        <ele>17.9218</ele>
        <time>2013-04-14T12:33:01Z</time>
      </trkpt>
      <trkpt lat="59.9282244" lon="17.8357928">
        <ele>18.4023</ele>
        <time>2013-04-14T12:33:02Z</time>
      </trkpt>
      <trkpt lat="59.9282721" lon="17.8357205">
        <ele>18.4023</ele>
        <time>2013-04-14T12:33:03Z</time>
      </trkpt>
      <trkpt lat="59.928318" lon="17.8356489">
        <ele>18.4023</ele>
        <time>2013-04-14T12:33:04Z</time>
      </trkpt>
      <trkpt lat="59.9283648" lon="17.8355791">
        <ele>18.8831</ele>
        <time>2013-04-14T12:33:05Z</time>
      </trkpt>
      <trkpt lat="59.9284125" lon="17.8355104">
        <ele>18.8831</ele>
        <time>2013-04-14T12:33:06Z</time>
      </trkpt>
      <trkpt lat="59.9284603" lon="17.8354403">
        <ele>18.8831</ele>
        <time>2013-04-14T12:33:07Z</time>
      </trkpt>
      <trkpt lat="59.9285078" lon="17.8353685">
        <ele>18.8831</ele>
        <time>2013-04-14T12:33:08Z</time>
      </trkpt>
      <trkpt lat="59.9285549" lon="17.8352966">
        <ele>18.8831</ele>
        <time>2013-04-14T12:33:09Z</time>
      </trkpt>
      <trkpt lat="59.9286017" lon="17.8352249">
        <ele>18.8831</ele>
        <time>2013-04-14T12:33:10Z</time>
      </trkpt>
      <trkpt lat="59.9286497" lon="17.835153">
        <ele>18.8831</ele>
        <time>2013-04-14T12:33:11Z</time>
      </trkpt>
      <trkpt lat="59.9286979" lon="17.8350815">
        <ele>19.3638</ele>
        <time>2013-04-14T12:33:12Z</time>
      </trkpt>
      <trkpt lat="59.9287466" lon="17.835009">
        <ele>19.3638</ele>
        <time>2013-04-14T12:33:13Z</time>
      </trkpt>
      <trkpt lat="59.9287963" lon="17.8349371">
        <ele>19.3638</ele>
        <time>2013-04-14T12:33:14Z</time>
      </trkpt>
      <trkpt lat="59.9288481" lon="17.8348689">
        <ele>19.3638</ele>
        <time>2013-04-14T12:33:15Z</time>
      </trkpt>
      <trkpt lat="59.9289018" lon="17.8348031">
        <ele>19.8444</ele>
        <time>2013-04-14T12:33:16Z</time>
      </trkpt>
      <trkpt lat="59.9289557" lon="17.8347375">
        <ele>19.8444</ele>
        <time>2013-04-14T12:33:17Z</time>
      </trkpt>
      <trkpt lat="59.9290092" lon="17.8346718">
        <ele>20.325</ele>
        <time>2013-04-14T12:33:18Z</time>
      </trkpt>
      <trkpt lat="59.9290624" lon="17.8346065">
        <ele>20.325</ele>
        <time>2013-04-14T12:33:19Z</time>
      </trkpt>
      <trkpt lat="59.9291152" lon="17.8345411">
        <ele>20.8057</ele>
        <time>2013-04-14T12:33:20Z</time>
      </trkpt>
      <trkpt lat="59.9291672" lon="17.8344768">
        <ele>20.8057</ele>
        <time>2013-04-14T12:33:21Z</time>
      </trkpt>
      <trkpt lat="59.9292183" lon="17.8344123">
        <ele>20.8057</ele>
        <time>2013-04-14T12:33:22Z</time>
      </trkpt>
      <trkpt lat="59.9292693" lon="17.8343458">
        <ele>21.2864</ele>
        <time>2013-04-14T12:33:23Z</time>
      </trkpt>
      <trkpt lat="59.9293203" lon="17.8342791">
        <ele>21.2864</ele>
        <time>2013-04-14T12:33:24Z</time>
      </trkpt>
      <trkpt lat="59.9293698" lon="17.8342113">
        <ele>21.767</ele>
        <time>2013-04-14T12:33:25Z</time>
      </trkpt>
      <trkpt lat="59.9294174" lon="17.8341413">
        <ele>21.767</ele>
        <time>2013-04-14T12:33:26Z</time>
      </trkpt>
      <trkpt lat="59.9294651" lon="17.8340725">
        <ele>21.767</ele>
        <time>2013-04-14T12:33:27Z</time>
      </trkpt>
      <trkpt lat="59.9295127" lon="17.8340045">
        <ele>21.767</ele>
        <time>2013-04-14T12:33:28Z</time>
      </trkpt>
      <trkpt lat="59.9295602" lon="17.8339336">
        <ele>21.767</ele>
        <time>2013-04-14T12:33:29Z</time>
      </trkpt>
      <trkpt lat="59.9296061" lon="17.8338565">
        <ele>21.767</ele>
        <time>2013-04-14T12:33:30Z</time>
      </trkpt>
      <trkpt lat="59.9296521" lon="17.8337746">
        <ele>21.2864</ele>
        <time>2013-04-14T12:33:31Z</time>
      </trkpt>
      <trkpt lat="59.9296996" lon="17.8336896">
        <ele>21.767</ele>
        <time>2013-04-14T12:33:32Z</time>
      </trkpt>
      <trkpt lat="59.9297509" lon="17.8336055">
        <ele>22.2476</ele>
        <time>2013-04-14T12:33:33Z</time>
      </trkpt>
      <trkpt lat="59.9298054" lon="17.8335182">
        <ele>21.767</ele>
        <time>2013-04-14T12:33:34Z</time>
      </trkpt>
      <trkpt lat="59.9298576" lon="17.833428">
        <ele>21.767</ele>
        <time>2013-04-14T12:33:35Z</time>
      </trkpt>
      <trkpt lat="59.9299106" lon="17.8333408">
        <ele>21.2864</ele>
        <time>2013-04-14T12:33:36Z</time>
      </trkpt>
      <trkpt lat="59.9299619" lon="17.8332596">
        <ele>21.2864</ele>
        <time>2013-04-14T12:33:37Z</time>
      </trkpt>
      <trkpt lat="59.9300151" lon="17.8331788">
        <ele>21.2864</ele>
        <time>2013-04-14T12:33:38Z</time>
      </trkpt>
      <trkpt lat="59.930067" lon="17.833095">
        <ele>20.8057</ele>
        <time>2013-04-14T12:33:39Z</time>
      </trkpt>
      <trkpt lat="59.9301193" lon="17.8330117">
        <ele>20.8057</ele>
        <time>2013-04-14T12:33:40Z</time>
      </trkpt>
      <trkpt lat="59.930172" lon="17.8329292">
        <ele>20.325</ele>
        <time>2013-04-14T12:33:41Z</time>
      </trkpt>
      <trkpt lat="59.9302249" lon="17.8328441">
        <ele>20.325</ele>
        <time>2013-04-14T12:33:42Z</time>
      </trkpt>
      <trkpt lat="59.9302789" lon="17.8327598">
        <ele>19.8444</ele>
        <time>2013-04-14T12:33:43Z</time>
      </trkpt>
      <trkpt lat="59.9303347" lon="17.8326774">
        <ele>19.8444</ele>
        <time>2013-04-14T12:33:44Z</time>
      </trkpt>
      <trkpt lat="59.9303897" lon="17.8325956">
        <ele>20.325</ele>
        <time>2013-04-14T12:33:45Z</time>
      </trkpt>
      <trkpt lat="59.9304446" lon="17.8325116">
        <ele>20.325</ele>
        <time>2013-04-14T12:33:46Z</time>
      </trkpt>
      <trkpt lat="59.930499" lon="17.8324289">
        <ele>20.325</ele>
        <time>2013-04-14T12:33:47Z</time>
      </trkpt>
      <trkpt lat="59.9305539" lon="17.8323469">
        <ele>20.325</ele>
        <time>2013-04-14T12:33:48Z</time>
      </trkpt>
      <trkpt lat="59.9306083" lon="17.8322624">
        <ele>20.8057</ele>
        <time>2013-04-14T12:33:49Z</time>
      </trkpt>
      <trkpt lat="59.9306623" lon="17.8321779">
        <ele>20.325</ele>
        <time>2013-04-14T12:33:50Z</time>
      </trkpt>
      <trkpt lat="59.9307192" lon="17.8320965">
        <ele>20.325</ele>
        <time>2013-04-14T12:33:51Z</time>
      </trkpt>
      <trkpt lat="59.9307771" lon="17.8320152">
        <ele>20.8057</ele>
        <time>2013-04-14T12:33:52Z</time>
      </trkpt>
      <trkpt lat="59.9308356" lon="17.831931">
        <ele>21.2864</ele>
        <time>2013-04-14T12:33:53Z</time>
      </trkpt>
      <trkpt lat="59.9308938" lon="17.8318438">
        <ele>21.2864</ele>
        <time>2013-04-14T12:33:54Z</time>
      </trkpt>
      <trkpt lat="59.9309521" lon="17.831756">
        <ele>21.767</ele>
        <time>2013-04-14T12:33:55Z</time>
      </trkpt>
      <trkpt lat="59.9310092" lon="17.831665">
        <ele>21.2864</ele>
        <time>2013-04-14T12:33:56Z</time>
      </trkpt>
      <trkpt lat="59.9310662" lon="17.8315715">
        <ele>21.2864</ele>
        <time>2013-04-14T12:33:57Z</time>
      </trkpt>
      <trkpt lat="59.9311233" lon="17.831476">
        <ele>20.8057</ele>
        <time>2013-04-14T12:33:58Z</time>
      </trkpt>
      <trkpt lat="59.9311796" lon="17.8313773">
        <ele>20.8057</ele>
        <time>2013-04-14T12:33:59Z</time>
      </trkpt>
      <trkpt lat="59.9312336" lon="17.8312786">
        <ele>20.8057</ele>
        <time>2013-04-14T12:34:00Z</time>
      </trkpt>
      <trkpt lat="59.9312865" lon="17.8311808">
        <ele>20.8057</ele>
        <time>2013-04-14T12:34:01Z</time>
      </trkpt>
      <trkpt lat="59.9313377" lon="17.8310803">
        <ele>20.8057</ele>
        <time>2013-04-14T12:34:02Z</time>
      </trkpt>
      <trkpt lat="59.9313869" lon="17.8309773">
        <ele>20.8057</ele>
        <time>2013-04-14T12:34:03Z</time>
      </trkpt>
      <trkpt lat="59.931434" lon="17.8308736">
        <ele>20.8057</ele>
        <time>2013-04-14T12:34:04Z</time>
      </trkpt>
      <trkpt lat="59.9314791" lon="17.8307707">
        <ele>20.8057</ele>
        <time>2013-04-14T12:34:05Z</time>
      </trkpt>
      <trkpt lat="59.9315212" lon="17.830668">
        <ele>20.8057</ele>
        <time>2013-04-14T12:34:06Z</time>
      </trkpt>
      <trkpt lat="59.9315608" lon="17.8305666">
        <ele>20.325</ele>
        <time>2013-04-14T12:34:07Z</time>
      </trkpt>
      <trkpt lat="59.9315982" lon="17.8304661">
        <ele>20.325</ele>
        <time>2013-04-14T12:34:08Z</time>
      </trkpt>
      <trkpt lat="59.9316327" lon="17.8303622">
        <ele>20.325</ele>
        <time>2013-04-14T12:34:09Z</time>
      </trkpt>
      <trkpt lat="59.931665" lon="17.8302561">
        <ele>20.325</ele>
        <time>2013-04-14T12:34:10Z</time>
      </trkpt>
      <trkpt lat="59.9316972" lon="17.830149">
        <ele>19.8444</ele>
        <time>2013-04-14T12:34:11Z</time>
      </trkpt>
      <trkpt lat="59.9317272" lon="17.8300341">
        <ele>19.3638</ele>
        <time>2013-04-14T12:34:12Z</time>
      </trkpt>
      <trkpt lat="59.9317588" lon="17.8299196">
        <ele>19.3638</ele>
        <time>2013-04-14T12:34:13Z</time>
      </trkpt>
      <trkpt lat="59.931792" lon="17.8297993">
        <ele>18.8831</ele>
        <time>2013-04-14T12:34:14Z</time>
      </trkpt>
      <trkpt lat="59.9318263" lon="17.8296709">
        <ele>18.8831</ele>
        <time>2013-04-14T12:34:15Z</time>
      </trkpt>
      <trkpt lat="59.9318614" lon="17.8295419">
        <ele>18.4023</ele>
        <time>2013-04-14T12:34:16Z</time>
      </trkpt>
      <trkpt lat="59.9318969" lon="17.8294145">
        <ele>17.9218</ele>
        <time>2013-04-14T12:34:17Z</time>
      </trkpt>
      <trkpt lat="59.9319308" lon="17.8292837">
        <ele>17.9218</ele>
        <time>2013-04-14T12:34:18Z</time>
      </trkpt>
      <trkpt lat="59.9319643" lon="17.8291503">
        <ele>17.4412</ele>
        <time>2013-04-14T12:34:19Z</time>
      </trkpt>
      <trkpt lat="59.9319961" lon="17.829011">
        <ele>17.4412</ele>
        <time>2013-04-14T12:34:20Z</time>
      </trkpt>
      <trkpt lat="59.9320287" lon="17.8288719">
        <ele>17.4412</ele>
        <time>2013-04-14T12:34:21Z</time>
      </trkpt>
      <trkpt lat="59.9320633" lon="17.8287358">
        <ele>17.4412</ele>
        <time>2013-04-14T12:34:22Z</time>
      </trkpt>
      <trkpt lat="59.9321012" lon="17.828605">
        <ele>17.4412</ele>
        <time>2013-04-14T12:34:23Z</time>
      </trkpt>
      <trkpt lat="59.932142" lon="17.8284808">
        <ele>17.4412</ele>
        <time>2013-04-14T12:34:24Z</time>
      </trkpt>
      <trkpt lat="59.9321845" lon="17.8283613">
        <ele>17.4412</ele>
        <time>2013-04-14T12:34:25Z</time>
      </trkpt>
      <trkpt lat="59.932228" lon="17.8282463">
        <ele>17.4412</ele>
        <time>2013-04-14T12:34:26Z</time>
      </trkpt>
      <trkpt lat="59.9322736" lon="17.8281385">
        <ele>16.9604</ele>
        <time>2013-04-14T12:34:27Z</time>
      </trkpt>
      <trkpt lat="59.9323198" lon="17.828035">
        <ele>16.9604</ele>
        <time>2013-04-14T12:34:28Z</time>
      </trkpt>
      <trkpt lat="59.9323659" lon="17.8279375">
        <ele>16.9604</ele>
        <time>2013-04-14T12:34:29Z</time>
      </trkpt>
      <trkpt lat="59.9324131" lon="17.827844">
        <ele>16.4797</ele>
        <time>2013-04-14T12:34:30Z</time>
      </trkpt>
      <trkpt lat="59.9324597" lon="17.8277513">
        <ele>16.4797</ele>
        <time>2013-04-14T12:34:31Z</time>
      </trkpt>
      <trkpt lat="59.9325071" lon="17.8276601">
        <ele>16.4797</ele>
        <time>2013-04-14T12:34:32Z</time>
      </trkpt>
      <trkpt lat="59.9325562" lon="17.8275713">
        <ele>15.999</ele>
        <time>2013-04-14T12:34:33Z</time>
      </trkpt>
      <trkpt lat="59.9326068" lon="17.8274829">
        <ele>15.999</ele>
        <time>2013-04-14T12:34:34Z</time>
      </trkpt>
      <trkpt lat="59.9326576" lon="17.8273927">
        <ele>15.999</ele>
        <time>2013-04-14T12:34:35Z</time>
      </trkpt>
      <trkpt lat="59.9327093" lon="17.8273031">
        <ele>15.5184</ele>
        <time>2013-04-14T12:34:36Z</time>
      </trkpt>
      <trkpt lat="59.9327621" lon="17.8272131">
        <ele>15.5184</ele>
        <time>2013-04-14T12:34:37Z</time>
      </trkpt>
      <trkpt lat="59.9328148" lon="17.8271206">
        <ele>15.0377</ele>
        <time>2013-04-14T12:34:38Z</time>
      </trkpt>
      <trkpt lat="59.9328679" lon="17.827028">
        <ele>15.0377</ele>
        <time>2013-04-14T12:34:39Z</time>
      </trkpt>
      <trkpt lat="59.9329211" lon="17.8269375">
        <ele>14.557</ele>
        <time>2013-04-14T12:34:40Z</time>
      </trkpt>
      <trkpt lat="59.9329762" lon="17.826847">
        <ele>14.557</ele>
        <time>2013-04-14T12:34:41Z</time>
      </trkpt>
      <trkpt lat="59.9330326" lon="17.8267565">
        <ele>14.557</ele>
        <time>2013-04-14T12:34:42Z</time>
      </trkpt>
      <trkpt lat="59.933088" lon="17.8266707">
        <ele>14.557</ele>
        <time>2013-04-14T12:34:43Z</time>
      </trkpt>
      <trkpt lat="59.9331435" lon="17.8265865">
        <ele>14.557</ele>
        <time>2013-04-14T12:34:44Z</time>
      </trkpt>
      <trkpt lat="59.9331997" lon="17.8265048">
        <ele>14.557</ele>
        <time>2013-04-14T12:34:45Z</time>
      </trkpt>
      <trkpt lat="59.9332568" lon="17.8264266">
        <ele>14.557</ele>
        <time>2013-04-14T12:34:46Z</time>
      </trkpt>
      <trkpt lat="59.933315" lon="17.8263551">
        <ele>15.0377</ele>
        <time>2013-04-14T12:34:47Z</time>
      </trkpt>
      <trkpt lat="59.9333746" lon="17.8262934">
        <ele>15.0377</ele>
        <time>2013-04-14T12:34:48Z</time>
      </trkpt>
      <trkpt lat="59.9334341" lon="17.8262375">
        <ele>15.0377</ele>
        <time>2013-04-14T12:34:49Z</time>
      </trkpt>
      <trkpt lat="59.9334931" lon="17.8261841">
        <ele>15.0377</ele>
        <time>2013-04-14T12:34:50Z</time>
      </trkpt>
      <trkpt lat="59.933552" lon="17.8261324">
        <ele>15.5184</ele>
        <time>2013-04-14T12:34:51Z</time>
      </trkpt>
      <trkpt lat="59.9336112" lon="17.8260848">
        <ele>15.5184</ele>
        <time>2013-04-14T12:34:52Z</time>
      </trkpt>
      <trkpt lat="59.9336717" lon="17.8260423">
        <ele>15.999</ele>
        <time>2013-04-14T12:34:53Z</time>
      </trkpt>
      <trkpt lat="59.9337333" lon="17.8260039">
        <ele>15.999</ele>
        <time>2013-04-14T12:34:54Z</time>
      </trkpt>
      <trkpt lat="59.9337962" lon="17.8259665">
        <ele>16.4797</ele>
        <time>2013-04-14T12:34:55Z</time>
      </trkpt>
      <trkpt lat="59.9338597" lon="17.8259296">
        <ele>16.4797</ele>
        <time>2013-04-14T12:34:56Z</time>
      </trkpt>
      <trkpt lat="59.9339246" lon="17.8258949">
        <ele>16.4797</ele>
        <time>2013-04-14T12:34:57Z</time>
      </trkpt>
      <trkpt lat="59.9339912" lon="17.8258616">
        <ele>16.4797</ele>
        <time>2013-04-14T12:34:58Z</time>
      </trkpt>
      <trkpt lat="59.9340598" lon="17.8258308">
        <ele>16.4797</ele>
        <time>2013-04-14T12:34:59Z</time>
      </trkpt>
      <trkpt lat="59.9341292" lon="17.8258014">
        <ele>16.4797</ele>
        <time>2013-04-14T12:35:00Z</time>
      </trkpt>
      <trkpt lat="59.9341982" lon="17.8257706">
        <ele>16.4797</ele>
        <time>2013-04-14T12:35:01Z</time>
      </trkpt>
      <trkpt lat="59.934267" lon="17.8257402">
        <ele>16.4797</ele>
        <time>2013-04-14T12:35:02Z</time>
      </trkpt>
      <trkpt lat="59.9343349" lon="17.8257113">
        <ele>16.4797</ele>
        <time>2013-04-14T12:35:03Z</time>
      </trkpt>
      <trkpt lat="59.9344022" lon="17.8256833">
        <ele>16.4797</ele>
        <time>2013-04-14T12:35:04Z</time>
      </trkpt>
      <trkpt lat="59.9344691" lon="17.8256538">
        <ele>16.9604</ele>
        <time>2013-04-14T12:35:05Z</time>
      </trkpt>
      <trkpt lat="59.9345354" lon="17.8256231">
        <ele>16.9604</ele>
        <time>2013-04-14T12:35:06Z</time>
      </trkpt>
      <trkpt lat="59.9346017" lon="17.8255941">
        <ele>16.9604</ele>
        <time>2013-04-14T12:35:07Z</time>
      </trkpt>
      <trkpt lat="59.9346688" lon="17.8255665">
        <ele>16.9604</ele>
        <time>2013-04-14T12:35:08Z</time>
      </trkpt>
      <trkpt lat="59.9347363" lon="17.8255382">
        <ele>16.9604</ele>
        <time>2013-04-14T12:35:09Z</time>
      </trkpt>
      <trkpt lat="59.9348042" lon="17.8255087">
        <ele>16.9604</ele>
        <time>2013-04-14T12:35:10Z</time>
      </trkpt>
      <trkpt lat="59.934873" lon="17.8254787">
        <ele>16.9604</ele>
        <time>2013-04-14T12:35:11Z</time>
      </trkpt>
      <trkpt lat="59.9349424" lon="17.8254479">
        <ele>16.9604</ele>
        <time>2013-04-14T12:35:12Z</time>
      </trkpt>
      <trkpt lat="59.9350123" lon="17.8254173">
        <ele>16.9604</ele>
        <time>2013-04-14T12:35:13Z</time>
      </trkpt>
      <trkpt lat="59.9350828" lon="17.8253871">
        <ele>17.4412</ele>
        <time>2013-04-14T12:35:14Z</time>
      </trkpt>
      <trkpt lat="59.9351539" lon="17.8253572">
        <ele>17.4412</ele>
        <time>2013-04-14T12:35:15Z</time>
      </trkpt>
      <trkpt lat="59.9352249" lon="17.8253272">
        <ele>17.4412</ele>
        <time>2013-04-14T12:35:16Z</time>
      </trkpt>
      <trkpt lat="59.9352966" lon="17.8252956">
        <ele>17.9218</ele>
        <time>2013-04-14T12:35:17Z</time>
      </trkpt>
      <trkpt lat="59.9353681" lon="17.8252628">
        <ele>17.9218</ele>
        <time>2013-04-14T12:35:18Z</time>
      </trkpt>
      <trkpt lat="59.9354393" lon="17.825231">
        <ele>17.9218</ele>
        <time>2013-04-14T12:35:19Z</time>
      </trkpt>
      <trkpt lat="59.9355103" lon="17.8252008">
        <ele>18.4023</ele>
        <time>2013-04-14T12:35:20Z</time>
      </trkpt>
      <trkpt lat="59.9355815" lon="17.8251718">
        <ele>18.4023</ele>
        <time>2013-04-14T12:35:21Z</time>
      </trkpt>
      <trkpt lat="59.9356526" lon="17.8251435">
        <ele>18.4023</ele>
        <time>2013-04-14T12:35:22Z</time>
      </trkpt>
      <trkpt lat="59.935723" lon="17.8251151">
        <ele>18.8831</ele>
        <time>2013-04-14T12:35:23Z</time>
      </trkpt>
      <trkpt lat="59.9357934" lon="17.825087">
        <ele>18.4023</ele>
        <time>2013-04-14T12:35:24Z</time>
      </trkpt>
      <trkpt lat="59.9358651" lon="17.825058">
        <ele>18.8831</ele>
        <time>2013-04-14T12:35:25Z</time>
      </trkpt>
      <trkpt lat="59.9359379" lon="17.825026">
        <ele>18.8831</ele>
        <time>2013-04-14T12:35:26Z</time>
      </trkpt>
      <trkpt lat="59.9360116" lon="17.8249942">
        <ele>18.8831</ele>
        <time>2013-04-14T12:35:27Z</time>
      </trkpt>
      <trkpt lat="59.9360859" lon="17.8249639">
        <ele>19.3638</ele>
        <time>2013-04-14T12:35:28Z</time>
      </trkpt>
      <trkpt lat="59.93616" lon="17.8249342">
        <ele>19.3638</ele>
        <time>2013-04-14T12:35:29Z</time>
      </trkpt>
      <trkpt lat="59.9362329" lon="17.8249031">
        <ele>19.8444</ele>
        <time>2013-04-14T12:35:30Z</time>
      </trkpt>
      <trkpt lat="59.9363039" lon="17.8248724">
        <ele>19.8444</ele>
        <time>2013-04-14T12:35:31Z</time>
      </trkpt>
      <trkpt lat="59.9363748" lon="17.8248428">
        <ele>19.8444</ele>
        <time>2013-04-14T12:35:32Z</time>
      </trkpt>
      <trkpt lat="59.9364449" lon="17.8248119">
        <ele>20.325</ele>
        <time>2013-04-14T12:35:33Z</time>
      </trkpt>
      <trkpt lat="59.936514" lon="17.8247757">
        <ele>20.8057</ele>
        <time>2013-04-14T12:35:34Z</time>
      </trkpt>
      <trkpt lat="59.9365815" lon="17.8247297">
        <ele>20.8057</ele>
        <time>2013-04-14T12:35:35Z</time>
      </trkpt>
      <trkpt lat="59.9366478" lon="17.8246741">
        <ele>20.8057</ele>
        <time>2013-04-14T12:35:36Z</time>
      </trkpt>
      <trkpt lat="59.9367125" lon="17.8246095">
        <ele>21.2864</ele>
        <time>2013-04-14T12:35:37Z</time>
      </trkpt>
      <trkpt lat="59.9367745" lon="17.8245349">
        <ele>21.767</ele>
        <time>2013-04-14T12:35:38Z</time>
      </trkpt>
      <trkpt lat="59.9368328" lon="17.824452">
        <ele>21.767</ele>
        <time>2013-04-14T12:35:39Z</time>
      </trkpt>
      <trkpt lat="59.9368882" lon="17.8243639">
        <ele>22.2476</ele>
        <time>2013-04-14T12:35:40Z</time>
      </trkpt>
      <trkpt lat="59.93694" lon="17.8242691">
        <ele>22.2476</ele>
        <time>2013-04-14T12:35:41Z</time>
      </trkpt>
      <trkpt lat="59.9369867" lon="17.8241665">
        <ele>21.2864</ele>
        <time>2013-04-14T12:35:42Z</time>
      </trkpt>
      <trkpt lat="59.9370306" lon="17.8240617">
        <ele>20.8057</ele>
        <time>2013-04-14T12:35:43Z</time>
      </trkpt>
      <trkpt lat="59.9370721" lon="17.8239561">
        <ele>20.325</ele>
        <time>2013-04-14T12:35:44Z</time>
      </trkpt>
      <trkpt lat="59.937112" lon="17.823849">
        <ele>19.8444</ele>
        <time>2013-04-14T12:35:45Z</time>
      </trkpt>
      <trkpt lat="59.9371518" lon="17.8237396">
        <ele>19.3638</ele>
        <time>2013-04-14T12:35:46Z</time>
      </trkpt>
      <trkpt lat="59.9371913" lon="17.8236294">
        <ele>18.4023</ele>
        <time>2013-04-14T12:35:47Z</time>
      </trkpt>
      <trkpt lat="59.9372316" lon="17.823521">
        <ele>17.9218</ele>
        <time>2013-04-14T12:35:48Z</time>
      </trkpt>
      <trkpt lat="59.937272" lon="17.8234122">
        <ele>17.4412</ele>
        <time>2013-04-14T12:35:49Z</time>
      </trkpt>
      <trkpt lat="59.9373118" lon="17.8233019">
        <ele>17.4412</ele>
        <time>2013-04-14T12:35:50Z</time>
      </trkpt>
      <trkpt lat="59.9373505" lon="17.8231933">
        <ele>16.9604</ele>
        <time>2013-04-14T12:35:51Z</time>
      </trkpt>
      <trkpt lat="59.9373895" lon="17.8230913">
        <ele>17.9218</ele>
        <time>2013-04-14T12:35:52Z</time>
      </trkpt>
      <trkpt lat="59.9374265" lon="17.8229927">
        <ele>18.4023</ele>
        <time>2013-04-14T12:35:53Z</time>
      </trkpt>
      <trkpt lat="59.9374632" lon="17.8228949">
        <ele>18.4023</ele>
        <time>2013-04-14T12:35:54Z</time>
      </trkpt>
      <trkpt lat="59.9374966" lon="17.8227989">
        <ele>18.4023</ele>
        <time>2013-04-14T12:35:55Z</time>
      </trkpt>
      <trkpt lat="59.9375293" lon="17.8227032">
        <ele>17.9218</ele>
        <time>2013-04-14T12:35:56Z</time>
      </trkpt>
      <trkpt lat="59.937562" lon="17.82261">
        <ele>17.9218</ele>
        <time>2013-04-14T12:35:57Z</time>
      </trkpt>
      <trkpt lat="59.9375942" lon="17.8225165">
        <ele>17.4412</ele>
        <time>2013-04-14T12:35:58Z</time>
      </trkpt>
      <trkpt lat="59.9376262" lon="17.8224254">
        <ele>17.4412</ele>
        <time>2013-04-14T12:35:59Z</time>
      </trkpt>
      <trkpt lat="59.9376584" lon="17.8223398">
        <ele>16.9604</ele>
        <time>2013-04-14T12:36:00Z</time>
      </trkpt>
      <trkpt lat="59.9376906" lon="17.8222559">
        <ele>16.9604</ele>
        <time>2013-04-14T12:36:01Z</time>
      </trkpt>
      <trkpt lat="59.9377231" lon="17.8221708">
        <ele>16.4797</ele>
        <time>2013-04-14T12:36:02Z</time>
      </trkpt>
      <trkpt lat="59.9377556" lon="17.8220853">
        <ele>15.999</ele>
        <time>2013-04-14T12:36:03Z</time>
      </trkpt>
      <trkpt lat="59.9377874" lon="17.8219992">
        <ele>15.999</ele>
        <time>2013-04-14T12:36:04Z</time>
      </trkpt>
      <trkpt lat="59.9378178" lon="17.8219146">
        <ele>15.999</ele>
        <time>2013-04-14T12:36:05Z</time>
      </trkpt>
      <trkpt lat="59.9378497" lon="17.8218277">
        <ele>15.5184</ele>
        <time>2013-04-14T12:36:06Z</time>
      </trkpt>
      <trkpt lat="59.9378832" lon="17.8217382">
        <ele>15.0377</ele>
        <time>2013-04-14T12:36:07Z</time>
      </trkpt>
      <trkpt lat="59.9379165" lon="17.821647">
        <ele>15.0377</ele>
        <time>2013-04-14T12:36:08Z</time>
      </trkpt>
      <trkpt lat="59.9379488" lon="17.8215542">
        <ele>15.0377</ele>
        <time>2013-04-14T12:36:09Z</time>
      </trkpt>
      <trkpt lat="59.9379818" lon="17.8214625">
        <ele>14.557</ele>
        <time>2013-04-14T12:36:10Z</time>
      </trkpt>
      <trkpt lat="59.9380172" lon="17.8213758">
        <ele>14.557</ele>
        <time>2013-04-14T12:36:11Z</time>
      </trkpt>
      <trkpt lat="59.9380528" lon="17.8212905">
        <ele>14.0764</ele>
        <time>2013-04-14T12:36:12Z</time>
      </trkpt>
      <trkpt lat="59.9380884" lon="17.8212056">
        <ele>14.0764</ele>
        <time>2013-04-14T12:36:13Z</time>
      </trkpt>
      <trkpt lat="59.9381247" lon="17.8211212">
        <ele>14.0764</ele>
        <time>2013-04-14T12:36:14Z</time>
      </trkpt>
      <trkpt lat="59.9381613" lon="17.8210388">
        <ele>14.0764</ele>
        <time>2013-04-14T12:36:15Z</time>
      </trkpt>
      <trkpt lat="59.938198" lon="17.8209579">
        <ele>14.0764</ele>
        <time>2013-04-14T12:36:16Z</time>
      </trkpt>
      <trkpt lat="59.938234" lon="17.8208766">
        <ele>13.5958</ele>
        <time>2013-04-14T12:36:17Z</time>
      </trkpt>
      <trkpt lat="59.9382701" lon="17.8207953">
        <ele>13.5958</ele>
        <time>2013-04-14T12:36:18Z</time>
      </trkpt>
      <trkpt lat="59.938306" lon="17.8207141">
        <ele>13.5958</ele>
        <time>2013-04-14T12:36:19Z</time>
      </trkpt>
      <trkpt lat="59.9383408" lon="17.8206311">
        <ele>13.5958</ele>
        <time>2013-04-14T12:36:20Z</time>
      </trkpt>
      <trkpt lat="59.938375" lon="17.8205477">
        <ele>13.5958</ele>
        <time>2013-04-14T12:36:21Z</time>
      </trkpt>
      <trkpt lat="59.9384101" lon="17.8204677">
        <ele>13.1151</ele>
        <time>2013-04-14T12:36:22Z</time>
      </trkpt>
      <trkpt lat="59.9384461" lon="17.8203897">
        <ele>13.1151</ele>
        <time>2013-04-14T12:36:23Z</time>
      </trkpt>
      <trkpt lat="59.9384831" lon="17.8203145">
        <ele>13.1151</ele>
        <time>2013-04-14T12:36:24Z</time>
      </trkpt>
      <trkpt lat="59.9385199" lon="17.8202398">
        <ele>13.1151</ele>
        <time>2013-04-14T12:36:25Z</time>
      </trkpt>
      <trkpt lat="59.938556" lon="17.820165">
        <ele>12.6344</ele>
        <time>2013-04-14T12:36:26Z</time>
      </trkpt>
      <trkpt lat="59.9385902" lon="17.8200898">
        <ele>12.6344</ele>
        <time>2013-04-14T12:36:27Z</time>
      </trkpt>
      <trkpt lat="59.9386217" lon="17.8200112">
        <ele>12.6344</ele>
        <time>2013-04-14T12:36:28Z</time>
      </trkpt>
      <trkpt lat="59.9386529" lon="17.8199333">
        <ele>12.6344</ele>
        <time>2013-04-14T12:36:29Z</time>
      </trkpt>
      <trkpt lat="59.9386852" lon="17.8198603">
        <ele>12.6344</ele>
        <time>2013-04-14T12:36:30Z</time>
      </trkpt>
      <trkpt lat="59.9387173" lon="17.8197898">
        <ele>12.6344</ele>
        <time>2013-04-14T12:36:31Z</time>
      </trkpt>
      <trkpt lat="59.9387483" lon="17.8197172">
        <ele>12.6344</ele>
        <time>2013-04-14T12:36:32Z</time>
      </trkpt>
      <trkpt lat="59.9387795" lon="17.8196438">
        <ele>12.6344</ele>
        <time>2013-04-14T12:36:33Z</time>
      </trkpt>
      <trkpt lat="59.9388131" lon="17.8195754">
        <ele>13.1151</ele>
        <time>2013-04-14T12:36:34Z</time>
      </trkpt>
      <trkpt lat="59.9388467" lon="17.8195046">
        <ele>13.1151</ele>
        <time>2013-04-14T12:36:35Z</time>
      </trkpt>
      <trkpt lat="59.9388814" lon="17.8194314">
        <ele>13.1151</ele>
        <time>2013-04-14T12:36:36Z</time>
      </trkpt>
      <trkpt lat="59.9389162" lon="17.819355">
        <ele>12.6344</ele>
        <time>2013-04-14T12:36:37Z</time>
      </trkpt>
      <trkpt lat="59.9389523" lon="17.8192774">
        <ele>12.6344</ele>
        <time>2013-04-14T12:36:38Z</time>
      </trkpt>
      <trkpt lat="59.9389909" lon="17.8191994">
        <ele>12.6344</ele>
        <time>2013-04-14T12:36:39Z</time>
      </trkpt>
      <trkpt lat="59.9390308" lon="17.8191202">
        <ele>12.6344</ele>
        <time>2013-04-14T12:36:40Z</time>
      </trkpt>
      <trkpt lat="59.9390721" lon="17.8190409">
        <ele>12.1538</ele>
        <time>2013-04-14T12:36:41Z</time>
      </trkpt>
      <trkpt lat="59.9391157" lon="17.8189636">
        <ele>12.1538</ele>
        <time>2013-04-14T12:36:42Z</time>
      </trkpt>
      <trkpt lat="59.9391616" lon="17.818889">
        <ele>12.1538</ele>
        <time>2013-04-14T12:36:43Z</time>
      </trkpt>
      <trkpt lat="59.9392094" lon="17.8188168">
        <ele>12.1538</ele>
        <time>2013-04-14T12:36:44Z</time>
      </trkpt>
      <trkpt lat="59.9392594" lon="17.8187482">
        <ele>11.6732</ele>
        <time>2013-04-14T12:36:45Z</time>
      </trkpt>
      <trkpt lat="59.9393109" lon="17.8186848">
        <ele>11.6732</ele>
        <time>2013-04-14T12:36:46Z</time>
      </trkpt>
      <trkpt lat="59.9393643" lon="17.8186288">
        <ele>11.6732</ele>
        <time>2013-04-14T12:36:47Z</time>
      </trkpt>
      <trkpt lat="59.939419" lon="17.8185865">
        <ele>12.1538</ele>
        <time>2013-04-14T12:36:48Z</time>
      </trkpt>
      <trkpt lat="59.9394734" lon="17.8185492">
        <ele>12.1538</ele>
        <time>2013-04-14T12:36:49Z</time>
      </trkpt>
      <trkpt lat="59.9395259" lon="17.8185183">
        <ele>12.1538</ele>
        <time>2013-04-14T12:36:50Z</time>
      </trkpt>
      <trkpt lat="59.9395771" lon="17.818498">
        <ele>12.6344</ele>
        <time>2013-04-14T12:36:51Z</time>
      </trkpt>
      <trkpt lat="59.9396247" lon="17.8184815">
        <ele>12.6344</ele>
        <time>2013-04-14T12:36:52Z</time>
      </trkpt>
      <trkpt lat="59.9396678" lon="17.818467">
        <ele>13.1151</ele>
        <time>2013-04-14T12:36:53Z</time>
      </trkpt>
      <trkpt lat="59.9397088" lon="17.8184607">
        <ele>13.1151</ele>
        <time>2013-04-14T12:36:54Z</time>
      </trkpt>
      <trkpt lat="59.9397481" lon="17.8184658">
        <ele>13.1151</ele>
        <time>2013-04-14T12:36:55Z</time>
      </trkpt>
      <trkpt lat="59.9397874" lon="17.818471">
        <ele>13.1151</ele>
        <time>2013-04-14T12:36:56Z</time>
      </trkpt>
      <trkpt lat="59.9398264" lon="17.8184731">
        <ele>13.1151</ele>
        <time>2013-04-14T12:36:57Z</time>
      </trkpt>
      <trkpt lat="59.9398641" lon="17.8184819">
        <ele>12.6344</ele>
        <time>2013-04-14T12:36:58Z</time>
      </trkpt>
      <trkpt lat="59.9399024" lon="17.8184983">
        <ele>12.6344</ele>
        <time>2013-04-14T12:36:59Z</time>
      </trkpt>
      <trkpt lat="59.9399406" lon="17.8185205">
        <ele>12.6344</ele>
        <time>2013-04-14T12:37:00Z</time>
      </trkpt>
      <trkpt lat="59.9399781" lon="17.8185508">
        <ele>13.1151</ele>
        <time>2013-04-14T12:37:01Z</time>
      </trkpt>
      <trkpt lat="59.9400152" lon="17.8185881">
        <ele>13.1151</ele>
        <time>2013-04-14T12:37:02Z</time>
      </trkpt>
      <trkpt lat="59.9400528" lon="17.8186259">
        <ele>13.1151</ele>
        <time>2013-04-14T12:37:03Z</time>
      </trkpt>
      <trkpt lat="59.9400908" lon="17.8186648">
        <ele>13.5958</ele>
        <time>2013-04-14T12:37:04Z</time>
      </trkpt>
      <trkpt lat="59.9401289" lon="17.818706">
        <ele>13.5958</ele>
        <time>2013-04-14T12:37:05Z</time>
      </trkpt>
      <trkpt lat="59.9401682" lon="17.8187461">
        <ele>13.5958</ele>
        <time>2013-04-14T12:37:06Z</time>
      </trkpt>
      <trkpt lat="59.9402079" lon="17.8187892">
        <ele>13.5958</ele>
        <time>2013-04-14T12:37:07Z</time>
      </trkpt>
      <trkpt lat="59.9402476" lon="17.8188367">
        <ele>13.5958</ele>
        <time>2013-04-14T12:37:08Z</time>
      </trkpt>
      <trkpt lat="59.940288" lon="17.8188854">
        <ele>13.5958</ele>
        <time>2013-04-14T12:37:09Z</time>
      </trkpt>
      <trkpt lat="59.9403309" lon="17.8189398">
        <ele>14.0764</ele>
        <time>2013-04-14T12:37:10Z</time>
      </trkpt>
      <trkpt lat="59.940376" lon="17.8189999">
        <ele>14.557</ele>
        <time>2013-04-14T12:37:11Z</time>
      </trkpt>
      <trkpt lat="59.9404235" lon="17.8190622">
        <ele>14.557</ele>
        <time>2013-04-14T12:37:12Z</time>
      </trkpt>
      <trkpt lat="59.9404738" lon="17.8191284">
        <ele>14.557</ele>
        <time>2013-04-14T12:37:13Z</time>
      </trkpt>
      <trkpt lat="59.9405267" lon="17.8191967">
        <ele>14.557</ele>
        <time>2013-04-14T12:37:14Z</time>
      </trkpt>
      <trkpt lat="59.9405829" lon="17.8192698">
        <ele>14.557</ele>
        <time>2013-04-14T12:37:15Z</time>
      </trkpt>
      <trkpt lat="59.9406418" lon="17.8193468">
        <ele>14.557</ele>
        <time>2013-04-14T12:37:16Z</time>
      </trkpt>
      <trkpt lat="59.9407039" lon="17.8194266">
        <ele>14.557</ele>
        <time>2013-04-14T12:37:17Z</time>
      </trkpt>
      <trkpt lat="59.9407686" lon="17.8195091">
        <ele>15.0377</ele>
        <time>2013-04-14T12:37:18Z</time>
      </trkpt>
      <trkpt lat="59.9408349" lon="17.8195924">
        <ele>15.0377</ele>
        <time>2013-04-14T12:37:19Z</time>
      </trkpt>
      <trkpt lat="59.9409025" lon="17.8196769">
        <ele>15.0377</ele>
        <time>2013-04-14T12:37:20Z</time>
      </trkpt>
      <trkpt lat="59.9409709" lon="17.8197634">
        <ele>15.0377</ele>
        <time>2013-04-14T12:37:21Z</time>
      </trkpt>
      <trkpt lat="59.9410403" lon="17.8198501">
        <ele>15.0377</ele>
        <time>2013-04-14T12:37:22Z</time>
      </trkpt>
      <trkpt lat="59.9411114" lon="17.8199376">
        <ele>15.0377</ele>
        <time>2013-04-14T12:37:23Z</time>
      </trkpt>
      <trkpt lat="59.9411838" lon="17.820029">
        <ele>15.0377</ele>
        <time>2013-04-14T12:37:24Z</time>
      </trkpt>
      <trkpt lat="59.9412576" lon="17.820123">
        <ele>15.0377</ele>
        <time>2013-04-14T12:37:25Z</time>
      </trkpt>
      <trkpt lat="59.9413331" lon="17.8202178">
        <ele>15.0377</ele>
        <time>2013-04-14T12:37:26Z</time>
      </trkpt>
      <trkpt lat="59.9414095" lon="17.8203132">
        <ele>15.0377</ele>
        <time>2013-04-14T12:37:27Z</time>
      </trkpt>
      <trkpt lat="59.9414865" lon="17.82041">
        <ele>15.0377</ele>
        <time>2013-04-14T12:37:28Z</time>
      </trkpt>
      <trkpt lat="59.9415644" lon="17.8205077">
        <ele>15.0377</ele>
        <time>2013-04-14T12:37:29Z</time>
      </trkpt>
      <trkpt lat="59.9416423" lon="17.8206061">
        <ele>15.0377</ele>
        <time>2013-04-14T12:37:30Z</time>
      </trkpt>
      <trkpt lat="59.9417195" lon="17.8207045">
        <ele>15.0377</ele>
        <time>2013-04-14T12:37:31Z</time>
      </trkpt>
      <trkpt lat="59.9417958" lon="17.8208021">
        <ele>15.5184</ele>
        <time>2013-04-14T12:37:32Z</time>
      </trkpt>
      <trkpt lat="59.9418709" lon="17.8208985">
        <ele>15.5184</ele>
        <time>2013-04-14T12:37:33Z</time>
      </trkpt>
      <trkpt lat="59.9419451" lon="17.8209932">
        <ele>15.5184</ele>
        <time>2013-04-14T12:37:34Z</time>
      </trkpt>
      <trkpt lat="59.9420186" lon="17.8210854">
        <ele>15.999</ele>
        <time>2013-04-14T12:37:35Z</time>
      </trkpt>
      <trkpt lat="59.9420907" lon="17.8211765">
        <ele>16.4797</ele>
        <time>2013-04-14T12:37:36Z</time>
      </trkpt>
      <trkpt lat="59.9421613" lon="17.8212657">
        <ele>16.4797</ele>
        <time>2013-04-14T12:37:37Z</time>
      </trkpt>
      <trkpt lat="59.9422304" lon="17.8213527">
        <ele>16.9604</ele>
        <time>2013-04-14T12:37:38Z</time>
      </trkpt>
      <trkpt lat="59.9422982" lon="17.8214381">
        <ele>16.9604</ele>
        <time>2013-04-14T12:37:39Z</time>
      </trkpt>
      <trkpt lat="59.9423645" lon="17.821521">
        <ele>17.4412</ele>
        <time>2013-04-14T12:37:40Z</time>
      </trkpt>
      <trkpt lat="59.9424287" lon="17.8216002">
        <ele>17.4412</ele>
        <time>2013-04-14T12:37:41Z</time>
      </trkpt>
      <trkpt lat="59.9424914" lon="17.8216779">
        <ele>17.9218</ele>
        <time>2013-04-14T12:37:42Z</time>
      </trkpt>
      <trkpt lat="59.9425527" lon="17.8217542">
        <ele>17.9218</ele>
        <time>2013-04-14T12:37:43Z</time>
      </trkpt>
      <trkpt lat="59.9426128" lon="17.8218293">
        <ele>17.9218</ele>
        <time>2013-04-14T12:37:44Z</time>
      </trkpt>
      <trkpt lat="59.9426723" lon="17.8219031">
        <ele>18.4023</ele>
        <time>2013-04-14T12:37:45Z</time>
      </trkpt>
      <trkpt lat="59.9427313" lon="17.8219764">
        <ele>18.4023</ele>
        <time>2013-04-14T12:37:46Z</time>
      </trkpt>
      <trkpt lat="59.9427899" lon="17.8220503">
        <ele>18.4023</ele>
        <time>2013-04-14T12:37:47Z</time>
      </trkpt>
      <trkpt lat="59.9428482" lon="17.822124">
        <ele>18.8831</ele>
        <time>2013-04-14T12:37:48Z</time>
      </trkpt>
      <trkpt lat="59.9429065" lon="17.8221971">
        <ele>18.8831</ele>
        <time>2013-04-14T12:37:49Z</time>
      </trkpt>
      <trkpt lat="59.9429655" lon="17.8222691">
        <ele>19.3638</ele>
        <time>2013-04-14T12:37:50Z</time>
      </trkpt>
      <trkpt lat="59.943024" lon="17.8223414">
        <ele>19.3638</ele>
        <time>2013-04-14T12:37:51Z</time>
      </trkpt>
      <trkpt lat="59.9430821" lon="17.8224152">
        <ele>19.3638</ele>
        <time>2013-04-14T12:37:52Z</time>
      </trkpt>
      <trkpt lat="59.9431405" lon="17.8224892">
        <ele>19.8444</ele>
        <time>2013-04-14T12:37:53Z</time>
      </trkpt>
      <trkpt lat="59.9431991" lon="17.8225618">
        <ele>19.8444</ele>
        <time>2013-04-14T12:37:54Z</time>
      </trkpt>
      <trkpt lat="59.9432574" lon="17.8226344">
        <ele>19.8444</ele>
        <time>2013-04-14T12:37:55Z</time>
      </trkpt>
      <trkpt lat="59.9433154" lon="17.8227074">
        <ele>20.325</ele>
        <time>2013-04-14T12:37:56Z</time>
      </trkpt>
      <trkpt lat="59.9433737" lon="17.8227801">
        <ele>20.325</ele>
        <time>2013-04-14T12:37:57Z</time>
      </trkpt>
      <trkpt lat="59.9434317" lon="17.8228529">
        <ele>20.8057</ele>
        <time>2013-04-14T12:37:58Z</time>
      </trkpt>
      <trkpt lat="59.9434897" lon="17.8229253">
        <ele>20.8057</ele>
        <time>2013-04-14T12:37:59Z</time>
      </trkpt>
      <trkpt lat="59.9435473" lon="17.8229969">
        <ele>20.8057</ele>
        <time>2013-04-14T12:38:00Z</time>
      </trkpt>
      <trkpt lat="59.9436052" lon="17.8230678">
        <ele>21.2864</ele>
        <time>2013-04-14T12:38:01Z</time>
      </trkpt>
      <trkpt lat="59.9436626" lon="17.8231383">
        <ele>21.2864</ele>
        <time>2013-04-14T12:38:02Z</time>
      </trkpt>
      <trkpt lat="59.9437192" lon="17.8232092">
        <ele>21.767</ele>
        <time>2013-04-14T12:38:03Z</time>
      </trkpt>
      <trkpt lat="59.9437756" lon="17.823279">
        <ele>21.767</ele>
        <time>2013-04-14T12:38:04Z</time>
      </trkpt>
      <trkpt lat="59.9438316" lon="17.8233476">
        <ele>22.2476</ele>
        <time>2013-04-14T12:38:05Z</time>
      </trkpt>
      <trkpt lat="59.943887" lon="17.8234159">
        <ele>22.2476</ele>
        <time>2013-04-14T12:38:06Z</time>
      </trkpt>
      <trkpt lat="59.9439419" lon="17.8234834">
        <ele>22.7283</ele>
        <time>2013-04-14T12:38:07Z</time>
      </trkpt>
      <trkpt lat="59.9439957" lon="17.8235504">
        <ele>22.7283</ele>
        <time>2013-04-14T12:38:08Z</time>
      </trkpt>
      <trkpt lat="59.9440479" lon="17.8236178">
        <ele>22.7283</ele>
        <time>2013-04-14T12:38:09Z</time>
      </trkpt>
      <trkpt lat="59.9440994" lon="17.8236835">
        <ele>22.7283</ele>
        <time>2013-04-14T12:38:10Z</time>
      </trkpt>
      <trkpt lat="59.9441503" lon="17.8237471">
        <ele>23.209</ele>
        <time>2013-04-14T12:38:11Z</time>
      </trkpt>
      <trkpt lat="59.9442004" lon="17.8238091">
        <ele>23.209</ele>
        <time>2013-04-14T12:38:12Z</time>
      </trkpt>
      <trkpt lat="59.9442506" lon="17.8238692">
        <ele>22.7283</ele>
        <time>2013-04-14T12:38:13Z</time>
      </trkpt>
      <trkpt lat="59.9443018" lon="17.8239271">
        <ele>22.7283</ele>
        <time>2013-04-14T12:38:14Z</time>
      </trkpt>
      <trkpt lat="59.944353" lon="17.8239857">
        <ele>22.7283</ele>
        <time>2013-04-14T12:38:15Z</time>
      </trkpt>
      <trkpt lat="59.944405" lon="17.8240462">
        <ele>22.7283</ele>
        <time>2013-04-14T12:38:16Z</time>
      </trkpt>
      <trkpt lat="59.9444583" lon="17.8241071">
        <ele>22.7283</ele>
        <time>2013-04-14T12:38:17Z</time>
      </trkpt>
      <trkpt lat="59.9445128" lon="17.824166">
        <ele>22.7283</ele>
        <time>2013-04-14T12:38:18Z</time>
      </trkpt>
      <trkpt lat="59.9445685" lon="17.8242255">
        <ele>22.7283</ele>
        <time>2013-04-14T12:38:19Z</time>
      </trkpt>
      <trkpt lat="59.9446255" lon="17.8242872">
        <ele>22.7283</ele>
        <time>2013-04-14T12:38:20Z</time>
      </trkpt>
      <trkpt lat="59.9446836" lon="17.8243499">
        <ele>22.7283</ele>
        <time>2013-04-14T12:38:21Z</time>
      </trkpt>
      <trkpt lat="59.9447425" lon="17.8244127">
        <ele>22.7283</ele>
        <time>2013-04-14T12:38:22Z</time>
      </trkpt>
      <trkpt lat="59.9448023" lon="17.8244769">
        <ele>22.7283</ele>
        <time>2013-04-14T12:38:23Z</time>
      </trkpt>
      <trkpt lat="59.9448623" lon="17.8245408">
        <ele>22.7283</ele>
        <time>2013-04-14T12:38:24Z</time>
      </trkpt>
      <trkpt lat="59.9449229" lon="17.8246027">
        <ele>22.2476</ele>
        <time>2013-04-14T12:38:25Z</time>
      </trkpt>
      <trkpt lat="59.9449852" lon="17.8246659">
        <ele>22.2476</ele>
        <time>2013-04-14T12:38:26Z</time>
      </trkpt>
      <trkpt lat="59.9450479" lon="17.82473">
        <ele>22.2476</ele>
        <time>2013-04-14T12:38:27Z</time>
      </trkpt>
      <trkpt lat="59.9451101" lon="17.8247948">
        <ele>21.767</ele>
        <time>2013-04-14T12:38:28Z</time>
      </trkpt>
      <trkpt lat="59.9451725" lon="17.8248587">
        <ele>21.767</ele>
        <time>2013-04-14T12:38:29Z</time>
      </trkpt>
      <trkpt lat="59.9452353" lon="17.8249221">
        <ele>21.767</ele>
        <time>2013-04-14T12:38:30Z</time>
      </trkpt>
      <trkpt lat="59.9452982" lon="17.824986">
        <ele>21.2864</ele>
        <time>2013-04-14T12:38:31Z</time>
      </trkpt>
      <trkpt lat="59.9453605" lon="17.8250475">
        <ele>21.2864</ele>
        <time>2013-04-14T12:38:32Z</time>
      </trkpt>
      <trkpt lat="59.9454217" lon="17.8251107">
        <ele>20.8057</ele>
        <time>2013-04-14T12:38:33Z</time>
      </trkpt>
      <trkpt lat="59.9454828" lon="17.8251741">
        <ele>20.325</ele>
        <time>2013-04-14T12:38:34Z</time>
      </trkpt>
      <trkpt lat="59.9455449" lon="17.8252393">
        <ele>19.8444</ele>
        <time>2013-04-14T12:38:35Z</time>
      </trkpt>
      <trkpt lat="59.9456073" lon="17.8253047">
        <ele>19.3638</ele>
        <time>2013-04-14T12:38:36Z</time>
      </trkpt>
      <trkpt lat="59.9456716" lon="17.8253726">
        <ele>19.3638</ele>
        <time>2013-04-14T12:38:37Z</time>
      </trkpt>
      <trkpt lat="59.9457373" lon="17.8254424">
        <ele>19.3638</ele>
        <time>2013-04-14T12:38:38Z</time>
      </trkpt>
      <trkpt lat="59.9458047" lon="17.825513">
        <ele>18.8831</ele>
        <time>2013-04-14T12:38:39Z</time>
      </trkpt>
      <trkpt lat="59.945873" lon="17.8255848">
        <ele>18.8831</ele>
        <time>2013-04-14T12:38:40Z</time>
      </trkpt>
      <trkpt lat="59.9459419" lon="17.8256562">
        <ele>18.8831</ele>
        <time>2013-04-14T12:38:41Z</time>
      </trkpt>
      <trkpt lat="59.9460114" lon="17.8257286">
        <ele>18.8831</ele>
        <time>2013-04-14T12:38:42Z</time>
      </trkpt>
      <trkpt lat="59.9460818" lon="17.8258029">
        <ele>18.8831</ele>
        <time>2013-04-14T12:38:43Z</time>
      </trkpt>
      <trkpt lat="59.9461537" lon="17.8258774">
        <ele>18.4023</ele>
        <time>2013-04-14T12:38:44Z</time>
      </trkpt>
      <trkpt lat="59.9462268" lon="17.8259516">
        <ele>18.8831</ele>
        <time>2013-04-14T12:38:45Z</time>
      </trkpt>
      <trkpt lat="59.9462999" lon="17.8260276">
        <ele>18.8831</ele>
        <time>2013-04-14T12:38:46Z</time>
      </trkpt>
      <trkpt lat="59.9463736" lon="17.8261054">
        <ele>18.8831</ele>
        <time>2013-04-14T12:38:47Z</time>
      </trkpt>
      <trkpt lat="59.9464484" lon="17.826183">
        <ele>18.8831</ele>
        <time>2013-04-14T12:38:48Z</time>
      </trkpt>
      <trkpt lat="59.946524" lon="17.826261">
        <ele>18.8831</ele>
        <time>2013-04-14T12:38:49Z</time>
      </trkpt>
      <trkpt lat="59.9466002" lon="17.8263396">
        <ele>18.8831</ele>
        <time>2013-04-14T12:38:50Z</time>
      </trkpt>
      <trkpt lat="59.9466773" lon="17.8264172">
        <ele>18.8831</ele>
        <time>2013-04-14T12:38:51Z</time>
      </trkpt>
      <trkpt lat="59.946755" lon="17.8264965">
        <ele>18.8831</ele>
        <time>2013-04-14T12:38:52Z</time>
      </trkpt>
      <trkpt lat="59.9468324" lon="17.8265788">
        <ele>18.8831</ele>
        <time>2013-04-14T12:38:53Z</time>
      </trkpt>
      <trkpt lat="59.9469101" lon="17.8266601">
        <ele>18.8831</ele>
        <time>2013-04-14T12:38:54Z</time>
      </trkpt>
      <trkpt lat="59.9469883" lon="17.82674">
        <ele>18.8831</ele>
        <time>2013-04-14T12:38:55Z</time>
      </trkpt>
      <trkpt lat="59.9470666" lon="17.8268213">
        <ele>18.8831</ele>
        <time>2013-04-14T12:38:56Z</time>
      </trkpt>
      <trkpt lat="59.9471453" lon="17.8269023">
        <ele>18.8831</ele>
        <time>2013-04-14T12:38:57Z</time>
      </trkpt>
      <trkpt lat="59.947223" lon="17.8269818">
        <ele>19.3638</ele>
        <time>2013-04-14T12:38:58Z</time>
      </trkpt>
      <trkpt lat="59.9472984" lon="17.8270597">
        <ele>18.8831</ele>
        <time>2013-04-14T12:38:59Z</time>
      </trkpt>
      <trkpt lat="59.9473726" lon="17.8271368">
        <ele>18.8831</ele>
        <time>2013-04-14T12:39:00Z</time>
      </trkpt>
      <trkpt lat="59.9474456" lon="17.8272115">
        <ele>18.8831</ele>
        <time>2013-04-14T12:39:01Z</time>
      </trkpt>
      <trkpt lat="59.9475172" lon="17.8272856">
        <ele>18.8831</ele>
        <time>2013-04-14T12:39:02Z</time>
      </trkpt>
      <trkpt lat="59.9475873" lon="17.8273581">
        <ele>18.8831</ele>
        <time>2013-04-14T12:39:03Z</time>
      </trkpt>
      <trkpt lat="59.9476561" lon="17.8274299">
        <ele>18.8831</ele>
        <time>2013-04-14T12:39:04Z</time>
      </trkpt>
      <trkpt lat="59.9477239" lon="17.8274989">
        <ele>18.8831</ele>
        <time>2013-04-14T12:39:05Z</time>
      </trkpt>
      <trkpt lat="59.9477905" lon="17.8275657">
        <ele>18.8831</ele>
        <time>2013-04-14T12:39:06Z</time>
      </trkpt>
      <trkpt lat="59.947855" lon="17.8276336">
        <ele>18.4023</ele>
        <time>2013-04-14T12:39:07Z</time>
      </trkpt>
      <trkpt lat="59.9479183" lon="17.8277015">
        <ele>18.4023</ele>
        <time>2013-04-14T12:39:08Z</time>
      </trkpt>
      <trkpt lat="59.9479796" lon="17.8277677">
        <ele>18.4023</ele>
        <time>2013-04-14T12:39:09Z</time>
      </trkpt>
      <trkpt lat="59.9480371" lon="17.8278338">
        <ele>18.4023</ele>
        <time>2013-04-14T12:39:10Z</time>
      </trkpt>
      <trkpt lat="59.9480957" lon="17.8278993">
        <ele>18.4023</ele>
        <time>2013-04-14T12:39:11Z</time>
      </trkpt>
      <trkpt lat="59.9481565" lon="17.8279635">
        <ele>18.4023</ele>
        <time>2013-04-14T12:39:12Z</time>
      </trkpt>
      <trkpt lat="59.9482174" lon="17.8280283">
        <ele>18.4023</ele>
        <time>2013-04-14T12:39:13Z</time>
      </trkpt>
      <trkpt lat="59.9482788" lon="17.8280926">
        <ele>17.9218</ele>
        <time>2013-04-14T12:39:14Z</time>
      </trkpt>
      <trkpt lat="59.9483414" lon="17.8281574">
        <ele>17.9218</ele>
        <time>2013-04-14T12:39:15Z</time>
      </trkpt>
      <trkpt lat="59.9484049" lon="17.8282218">
        <ele>17.9218</ele>
        <time>2013-04-14T12:39:16Z</time>
      </trkpt>
      <trkpt lat="59.9484686" lon="17.8282872">
        <ele>17.9218</ele>
        <time>2013-04-14T12:39:17Z</time>
      </trkpt>
      <trkpt lat="59.9485336" lon="17.8283547">
        <ele>17.9218</ele>
        <time>2013-04-14T12:39:18Z</time>
      </trkpt>
      <trkpt lat="59.9486004" lon="17.8284246">
        <ele>17.9218</ele>
        <time>2013-04-14T12:39:19Z</time>
      </trkpt>
      <trkpt lat="59.9486689" lon="17.828497">
        <ele>17.4412</ele>
        <time>2013-04-14T12:39:20Z</time>
      </trkpt>
      <trkpt lat="59.9487381" lon="17.8285691">
        <ele>17.4412</ele>
        <time>2013-04-14T12:39:21Z</time>
      </trkpt>
      <trkpt lat="59.948807" lon="17.8286401">
        <ele>17.4412</ele>
        <time>2013-04-14T12:39:22Z</time>
      </trkpt>
      <trkpt lat="59.9488768" lon="17.8287048">
        <ele>17.9218</ele>
        <time>2013-04-14T12:39:23Z</time>
      </trkpt>
      <trkpt lat="59.9489481" lon="17.828753">
        <ele>17.9218</ele>
        <time>2013-04-14T12:39:24Z</time>
      </trkpt>
      <trkpt lat="59.9490192" lon="17.8287893">
        <ele>17.9218</ele>
        <time>2013-04-14T12:39:25Z</time>
      </trkpt>
      <trkpt lat="59.9490878" lon="17.8288291">
        <ele>17.9218</ele>
        <time>2013-04-14T12:39:26Z</time>
      </trkpt>
      <trkpt lat="59.9491515" lon="17.8288823">
        <ele>17.9218</ele>
        <time>2013-04-14T12:39:27Z</time>
      </trkpt>
      <trkpt lat="59.949212" lon="17.8289421">
        <ele>18.4023</ele>
        <time>2013-04-14T12:39:28Z</time>
      </trkpt>
      <trkpt lat="59.9492725" lon="17.8289975">
        <ele>18.4023</ele>
        <time>2013-04-14T12:39:29Z</time>
      </trkpt>
      <trkpt lat="59.9493326" lon="17.829052">
        <ele>18.4023</ele>
        <time>2013-04-14T12:39:30Z</time>
      </trkpt>
      <trkpt lat="59.9493897" lon="17.8291144">
        <ele>18.8831</ele>
        <time>2013-04-14T12:39:31Z</time>
      </trkpt>
      <trkpt lat="59.9494437" lon="17.8291848">
        <ele>18.8831</ele>
        <time>2013-04-14T12:39:32Z</time>
      </trkpt>
      <trkpt lat="59.9494959" lon="17.8292605">
        <ele>19.3638</ele>
        <time>2013-04-14T12:39:33Z</time>
      </trkpt>
      <trkpt lat="59.9495464" lon="17.8293393">
        <ele>19.3638</ele>
        <time>2013-04-14T12:39:34Z</time>
      </trkpt>
      <trkpt lat="59.949596" lon="17.829419">
        <ele>19.8444</ele>
        <time>2013-04-14T12:39:35Z</time>
      </trkpt>
      <trkpt lat="59.9496457" lon="17.8294975">
        <ele>19.8444</ele>
        <time>2013-04-14T12:39:36Z</time>
      </trkpt>
      <trkpt lat="59.949695" lon="17.829577">
        <ele>20.325</ele>
        <time>2013-04-14T12:39:37Z</time>
      </trkpt>
      <trkpt lat="59.9497437" lon="17.8296575">
        <ele>20.325</ele>
        <time>2013-04-14T12:39:38Z</time>
      </trkpt>
      <trkpt lat="59.9497933" lon="17.829735">
        <ele>20.325</ele>
        <time>2013-04-14T12:39:39Z</time>
      </trkpt>
      <trkpt lat="59.9498514" lon="17.8297801">
        <ele>20.325</ele>
        <time>2013-04-14T12:39:40Z</time>
      </trkpt>
      <trkpt lat="59.9499209" lon="17.8297437">
        <ele>20.325</ele>
        <time>2013-04-14T12:39:41Z</time>
      </trkpt>
      <trkpt lat="59.9499766" lon="17.8296549">
        <ele>20.325</ele>
        <time>2013-04-14T12:39:42Z</time>
      </trkpt>
      <trkpt lat="59.9500176" lon="17.8295279">
        <ele>19.8444</ele>
        <time>2013-04-14T12:39:43Z</time>
      </trkpt>
      <trkpt lat="59.9500399" lon="17.8293965">
        <ele>19.3638</ele>
        <time>2013-04-14T12:39:44Z</time>
      </trkpt>
      <trkpt lat="59.9500606" lon="17.8292616">
        <ele>18.8831</ele>
        <time>2013-04-14T12:39:45Z</time>
      </trkpt>
      <trkpt lat="59.9500668" lon="17.8291234">
        <ele>18.4023</ele>
        <time>2013-04-14T12:39:46Z</time>
      </trkpt>
      <trkpt lat="59.9500617" lon="17.8289823">
        <ele>18.4023</ele>
        <time>2013-04-14T12:39:47Z</time>
      </trkpt>
      <trkpt lat="59.9500587" lon="17.8288427">
        <ele>18.4023</ele>
        <time>2013-04-14T12:39:48Z</time>
      </trkpt>
      <trkpt lat="59.9500556" lon="17.8287054">
        <ele>18.4023</ele>
        <time>2013-04-14T12:39:49Z</time>
      </trkpt>
      <trkpt lat="59.9500542" lon="17.8285706">
        <ele>18.4023</ele>
        <time>2013-04-14T12:39:50Z</time>
      </trkpt>
      <trkpt lat="59.9500487" lon="17.8284382">
        <ele>18.4023</ele>
        <time>2013-04-14T12:39:51Z</time>
      </trkpt>
      <trkpt lat="59.9500434" lon="17.8283069">
        <ele>18.4023</ele>
        <time>2013-04-14T12:39:52Z</time>
      </trkpt>
      <trkpt lat="59.9500389" lon="17.8281738">
        <ele>18.4023</ele>
        <time>2013-04-14T12:39:53Z</time>
      </trkpt>
      <trkpt lat="59.9500354" lon="17.8280408">
        <ele>17.9218</ele>
        <time>2013-04-14T12:39:54Z</time>
      </trkpt>
      <trkpt lat="59.9500327" lon="17.8279081">
        <ele>17.9218</ele>
        <time>2013-04-14T12:39:55Z</time>
      </trkpt>
      <trkpt lat="59.9500307" lon="17.8277748">
        <ele>17.9218</ele>
        <time>2013-04-14T12:39:56Z</time>
      </trkpt>
      <trkpt lat="59.9500299" lon="17.8276427">
        <ele>17.9218</ele>
        <time>2013-04-14T12:39:57Z</time>
      </trkpt>
      <trkpt lat="59.950029" lon="17.8275122">
        <ele>17.9218</ele>
        <time>2013-04-14T12:39:58Z</time>
      </trkpt>
      <trkpt lat="59.9500288" lon="17.8273839">
        <ele>17.9218</ele>
        <time>2013-04-14T12:39:59Z</time>
      </trkpt>
      <trkpt lat="59.9500307" lon="17.8272578">
        <ele>17.9218</ele>
        <time>2013-04-14T12:40:00Z</time>
      </trkpt>
      <trkpt lat="59.9500335" lon="17.8271337">
        <ele>17.9218</ele>
        <time>2013-04-14T12:40:01Z</time>
      </trkpt>
      <trkpt lat="59.9500361" lon="17.8270115">
        <ele>17.4412</ele>
        <time>2013-04-14T12:40:02Z</time>
      </trkpt>
      <trkpt lat="59.95004" lon="17.8268907">
        <ele>17.4412</ele>
        <time>2013-04-14T12:40:03Z</time>
      </trkpt>
      <trkpt lat="59.950047" lon="17.826771">
        <ele>17.4412</ele>
        <time>2013-04-14T12:40:04Z</time>
      </trkpt>
      <trkpt lat="59.9500568" lon="17.8266535">
        <ele>17.4412</ele>
        <time>2013-04-14T12:40:05Z</time>
      </trkpt>
      <trkpt lat="59.950067" lon="17.8265334">
        <ele>17.4412</ele>
        <time>2013-04-14T12:40:06Z</time>
      </trkpt>
      <trkpt lat="59.9500797" lon="17.8264138">
        <ele>17.4412</ele>
        <time>2013-04-14T12:40:07Z</time>
      </trkpt>
      <trkpt lat="59.9500953" lon="17.826295">
        <ele>16.9604</ele>
        <time>2013-04-14T12:40:08Z</time>
      </trkpt>
      <trkpt lat="59.9501138" lon="17.826179">
        <ele>16.9604</ele>
        <time>2013-04-14T12:40:09Z</time>
      </trkpt>
      <trkpt lat="59.9501367" lon="17.8260661">
        <ele>16.9604</ele>
        <time>2013-04-14T12:40:10Z</time>
      </trkpt>
      <trkpt lat="59.9501605" lon="17.8259511">
        <ele>16.9604</ele>
        <time>2013-04-14T12:40:11Z</time>
      </trkpt>
      <trkpt lat="59.9501844" lon="17.8258383">
        <ele>16.9604</ele>
        <time>2013-04-14T12:40:12Z</time>
      </trkpt>
      <trkpt lat="59.9502073" lon="17.825725">
        <ele>16.9604</ele>
        <time>2013-04-14T12:40:13Z</time>
      </trkpt>
      <trkpt lat="59.9502304" lon="17.8256131">
        <ele>17.4412</ele>
        <time>2013-04-14T12:40:14Z</time>
      </trkpt>
      <trkpt lat="59.9502539" lon="17.8255051">
        <ele>17.4412</ele>
        <time>2013-04-14T12:40:15Z</time>
      </trkpt>
      <trkpt lat="59.9502775" lon="17.8253978">
        <ele>17.4412</ele>
        <time>2013-04-14T12:40:16Z</time>
      </trkpt>
      <trkpt lat="59.9502995" lon="17.8252909">
        <ele>17.9218</ele>
        <time>2013-04-14T12:40:17Z</time>
      </trkpt>
      <trkpt lat="59.9503225" lon="17.8251851">
        <ele>17.9218</ele>
        <time>2013-04-14T12:40:18Z</time>
      </trkpt>
      <trkpt lat="59.9503476" lon="17.8250809">
        <ele>17.9218</ele>
        <time>2013-04-14T12:40:19Z</time>
      </trkpt>
      <trkpt lat="59.9503721" lon="17.8249773">
        <ele>17.9218</ele>
        <time>2013-04-14T12:40:20Z</time>
      </trkpt>
      <trkpt lat="59.9503949" lon="17.8248719">
        <ele>17.9218</ele>
        <time>2013-04-14T12:40:21Z</time>
      </trkpt>
      <trkpt lat="59.9504181" lon="17.8247629">
        <ele>17.9218</ele>
        <time>2013-04-14T12:40:22Z</time>
      </trkpt>
      <trkpt lat="59.9504409" lon="17.824658">
        <ele>18.4023</ele>
        <time>2013-04-14T12:40:23Z</time>
      </trkpt>
      <trkpt lat="59.9504647" lon="17.8245565">
        <ele>18.8831</ele>
        <time>2013-04-14T12:40:24Z</time>
      </trkpt>
      <trkpt lat="59.950487" lon="17.8244582">
        <ele>18.8831</ele>
        <time>2013-04-14T12:40:25Z</time>
      </trkpt>
      <trkpt lat="59.9505066" lon="17.8243632">
        <ele>19.3638</ele>
        <time>2013-04-14T12:40:26Z</time>
      </trkpt>
      <trkpt lat="59.9505279" lon="17.8242696">
        <ele>19.3638</ele>
        <time>2013-04-14T12:40:27Z</time>
      </trkpt>
      <trkpt lat="59.9505523" lon="17.8241722">
        <ele>19.3638</ele>
        <time>2013-04-14T12:40:28Z</time>
      </trkpt>
      <trkpt lat="59.9505683" lon="17.8240749">
        <ele>19.3638</ele>
        <time>2013-04-14T12:40:29Z</time>
      </trkpt>
      <trkpt lat="59.950589" lon="17.8239718">
        <ele>19.3638</ele>
        <time>2013-04-14T12:40:30Z</time>
      </trkpt>
      <trkpt lat="59.9506135" lon="17.8238644">
        <ele>18.8831</ele>
        <time>2013-04-14T12:40:31Z</time>
      </trkpt>
      <trkpt lat="59.9506324" lon="17.8237608">
        <ele>18.8831</ele>
        <time>2013-04-14T12:40:32Z</time>
      </trkpt>
      <trkpt lat="59.9506511" lon="17.8236516">
        <ele>18.8831</ele>
        <time>2013-04-14T12:40:33Z</time>
      </trkpt>
      <trkpt lat="59.9506661" lon="17.8235345">
        <ele>18.8831</ele>
        <time>2013-04-14T12:40:34Z</time>
      </trkpt>
      <trkpt lat="59.9506827" lon="17.8234134">
        <ele>19.3638</ele>
        <time>2013-04-14T12:40:35Z</time>
      </trkpt>
      <trkpt lat="59.9507026" lon="17.8232927">
        <ele>18.8831</ele>
        <time>2013-04-14T12:40:36Z</time>
      </trkpt>
      <trkpt lat="59.9507247" lon="17.8231495">
        <ele>18.8831</ele>
        <time>2013-04-14T12:40:37Z</time>
      </trkpt>
      <trkpt lat="59.9507439" lon="17.8230309">
        <ele>18.8831</ele>
        <time>2013-04-14T12:40:38Z</time>
      </trkpt>
      <trkpt lat="59.9507582" lon="17.8229202">
        <ele>18.4023</ele>
        <time>2013-04-14T12:40:39Z</time>
      </trkpt>
      <trkpt lat="59.9507753" lon="17.822815">
        <ele>18.4023</ele>
        <time>2013-04-14T12:40:40Z</time>
      </trkpt>
      <trkpt lat="59.9508" lon="17.822717">
        <ele>17.9218</ele>
        <time>2013-04-14T12:40:41Z</time>
      </trkpt>
      <trkpt lat="59.950818" lon="17.8226209">
        <ele>17.4412</ele>
        <time>2013-04-14T12:40:42Z</time>
      </trkpt>
      <trkpt lat="59.9508295" lon="17.8225282">
        <ele>17.4412</ele>
        <time>2013-04-14T12:40:43Z</time>
      </trkpt>
      <trkpt lat="59.9508439" lon="17.8224431">
        <ele>16.9604</ele>
        <time>2013-04-14T12:40:44Z</time>
      </trkpt>
      <trkpt lat="59.9508532" lon="17.8223551">
        <ele>16.4797</ele>
        <time>2013-04-14T12:40:45Z</time>
      </trkpt>
      <trkpt lat="59.9508597" lon="17.822265">
        <ele>16.4797</ele>
        <time>2013-04-14T12:40:46Z</time>
      </trkpt>
      <trkpt lat="59.9508647" lon="17.8221784">
        <ele>16.4797</ele>
        <time>2013-04-14T12:40:47Z</time>
      </trkpt>
      <trkpt lat="59.9508625" lon="17.8220769">
        <ele>17.4412</ele>
        <time>2013-04-14T12:40:48Z</time>
      </trkpt>
      <trkpt lat="59.9508637" lon="17.8219824">
        <ele>18.4023</ele>
        <time>2013-04-14T12:40:49Z</time>
      </trkpt>
      <trkpt lat="59.9508646" lon="17.8218945">
        <ele>18.4023</ele>
        <time>2013-04-14T12:40:50Z</time>
      </trkpt>
      <trkpt lat="59.9508703" lon="17.8218127">
        <ele>18.8831</ele>
        <time>2013-04-14T12:40:51Z</time>
      </trkpt>
      <trkpt lat="59.9508739" lon="17.8217291">
        <ele>18.8831</ele>
        <time>2013-04-14T12:40:52Z</time>
      </trkpt>
      <trkpt lat="59.9508771" lon="17.8216443">
        <ele>18.8831</ele>
        <time>2013-04-14T12:40:53Z</time>
      </trkpt>
      <trkpt lat="59.9508802" lon="17.8215597">
        <ele>18.8831</ele>
        <time>2013-04-14T12:40:54Z</time>
      </trkpt>
      <trkpt lat="59.9508838" lon="17.8214739">
        <ele>18.8831</ele>
        <time>2013-04-14T12:40:55Z</time>
      </trkpt>
      <trkpt lat="59.950891" lon="17.8213891">
        <ele>18.8831</ele>
        <time>2013-04-14T12:40:56Z</time>
      </trkpt>
      <trkpt lat="59.9508944" lon="17.8213007">
        <ele>18.8831</ele>
        <time>2013-04-14T12:40:57Z</time>
      </trkpt>
      <trkpt lat="59.9508996" lon="17.8212111">
        <ele>18.8831</ele>
        <time>2013-04-14T12:40:58Z</time>
      </trkpt>
      <trkpt lat="59.9509045" lon="17.8211206">
        <ele>18.8831</ele>
        <time>2013-04-14T12:40:59Z</time>
      </trkpt>
      <trkpt lat="59.9509122" lon="17.8210289">
        <ele>18.8831</ele>
        <time>2013-04-14T12:41:00Z</time>
      </trkpt>
      <trkpt lat="59.9509181" lon="17.8209351">
        <ele>19.3638</ele>
        <time>2013-04-14T12:41:01Z</time>
      </trkpt>
      <trkpt lat="59.9509225" lon="17.8208408">
        <ele>19.3638</ele>
        <time>2013-04-14T12:41:02Z</time>
      </trkpt>
      <trkpt lat="59.9509288" lon="17.8207428">
        <ele>19.3638</ele>
        <time>2013-04-14T12:41:03Z</time>
      </trkpt>
      <trkpt lat="59.9509351" lon="17.8206455">
        <ele>19.8444</ele>
        <time>2013-04-14T12:41:04Z</time>
      </trkpt>
      <trkpt lat="59.9509412" lon="17.8205482">
        <ele>19.8444</ele>
        <time>2013-04-14T12:41:05Z</time>
      </trkpt>
      <trkpt lat="59.9509465" lon="17.8204503">
        <ele>19.8444</ele>
        <time>2013-04-14T12:41:06Z</time>
      </trkpt>
      <trkpt lat="59.9509525" lon="17.8203513">
        <ele>19.8444</ele>
        <time>2013-04-14T12:41:07Z</time>
      </trkpt>
      <trkpt lat="59.9509576" lon="17.8202522">
        <ele>19.8444</ele>
        <time>2013-04-14T12:41:08Z</time>
      </trkpt>
      <trkpt lat="59.9509625" lon="17.8201549">
        <ele>19.3638</ele>
        <time>2013-04-14T12:41:09Z</time>
      </trkpt>
      <trkpt lat="59.9509677" lon="17.8200577">
        <ele>19.3638</ele>
        <time>2013-04-14T12:41:10Z</time>
      </trkpt>
      <trkpt lat="59.9509722" lon="17.8199612">
        <ele>19.3638</ele>
        <time>2013-04-14T12:41:11Z</time>
      </trkpt>
      <trkpt lat="59.9509761" lon="17.819866">
        <ele>18.8831</ele>
        <time>2013-04-14T12:41:12Z</time>
      </trkpt>
      <trkpt lat="59.9509799" lon="17.8197721">
        <ele>18.8831</ele>
        <time>2013-04-14T12:41:13Z</time>
      </trkpt>
      <trkpt lat="59.9509807" lon="17.8196758">
        <ele>18.8831</ele>
        <time>2013-04-14T12:41:14Z</time>
      </trkpt>
      <trkpt lat="59.9509812" lon="17.8195779">
        <ele>18.8831</ele>
        <time>2013-04-14T12:41:15Z</time>
      </trkpt>
      <trkpt lat="59.9509818" lon="17.819479">
        <ele>18.8831</ele>
        <time>2013-04-14T12:41:16Z</time>
      </trkpt>
      <trkpt lat="59.950981" lon="17.8193791">
        <ele>18.8831</ele>
        <time>2013-04-14T12:41:17Z</time>
      </trkpt>
      <trkpt lat="59.9509799" lon="17.8192781">
        <ele>18.8831</ele>
        <time>2013-04-14T12:41:18Z</time>
      </trkpt>
      <trkpt lat="59.9509776" lon="17.8191763">
        <ele>18.8831</ele>
        <time>2013-04-14T12:41:19Z</time>
      </trkpt>
      <trkpt lat="59.9509776" lon="17.819074">
        <ele>18.8831</ele>
        <time>2013-04-14T12:41:20Z</time>
      </trkpt>
      <trkpt lat="59.9509796" lon="17.8189696">
        <ele>19.3638</ele>
        <time>2013-04-14T12:41:21Z</time>
      </trkpt>
      <trkpt lat="59.9509847" lon="17.8188647">
        <ele>19.3638</ele>
        <time>2013-04-14T12:41:22Z</time>
      </trkpt>
      <trkpt lat="59.9509913" lon="17.8187616">
        <ele>19.3638</ele>
        <time>2013-04-14T12:41:23Z</time>
      </trkpt>
      <trkpt lat="59.950998" lon="17.8186595">
        <ele>19.3638</ele>
        <time>2013-04-14T12:41:24Z</time>
      </trkpt>
      <trkpt lat="59.951005" lon="17.8185566">
        <ele>19.3638</ele>
        <time>2013-04-14T12:41:25Z</time>
      </trkpt>
      <trkpt lat="59.9510126" lon="17.8184545">
        <ele>19.3638</ele>
        <time>2013-04-14T12:41:26Z</time>
      </trkpt>
      <trkpt lat="59.9510201" lon="17.8183514">
        <ele>19.3638</ele>
        <time>2013-04-14T12:41:27Z</time>
      </trkpt>
      <trkpt lat="59.9510283" lon="17.8182462">
        <ele>19.3638</ele>
        <time>2013-04-14T12:41:28Z</time>
      </trkpt>
      <trkpt lat="59.9510397" lon="17.8181374">
        <ele>19.3638</ele>
        <time>2013-04-14T12:41:29Z</time>
      </trkpt>
      <trkpt lat="59.9510547" lon="17.8180292">
        <ele>19.8444</ele>
        <time>2013-04-14T12:41:30Z</time>
      </trkpt>
      <trkpt lat="59.9510734" lon="17.8179218">
        <ele>19.3638</ele>
        <time>2013-04-14T12:41:31Z</time>
      </trkpt>
      <trkpt lat="59.9510894" lon="17.8178133">
        <ele>19.3638</ele>
        <time>2013-04-14T12:41:32Z</time>
      </trkpt>
      <trkpt lat="59.9511039" lon="17.8177028">
        <ele>19.3638</ele>
        <time>2013-04-14T12:41:33Z</time>
      </trkpt>
      <trkpt lat="59.9511169" lon="17.8175914">
        <ele>19.3638</ele>
        <time>2013-04-14T12:41:34Z</time>
      </trkpt>
      <trkpt lat="59.9511304" lon="17.8174799">
        <ele>18.8831</ele>
        <time>2013-04-14T12:41:35Z</time>
      </trkpt>
      <trkpt lat="59.9511452" lon="17.8173708">
        <ele>18.8831</ele>
        <time>2013-04-14T12:41:36Z</time>
      </trkpt>
      <trkpt lat="59.9511572" lon="17.8172619">
        <ele>18.8831</ele>
        <time>2013-04-14T12:41:37Z</time>
      </trkpt>
      <trkpt lat="59.9511666" lon="17.8171522">
        <ele>18.8831</ele>
        <time>2013-04-14T12:41:38Z</time>
      </trkpt>
      <trkpt lat="59.9511769" lon="17.8170428">
        <ele>18.8831</ele>
        <time>2013-04-14T12:41:39Z</time>
      </trkpt>
      <trkpt lat="59.9511879" lon="17.8169356">
        <ele>18.8831</ele>
        <time>2013-04-14T12:41:40Z</time>
      </trkpt>
      <trkpt lat="59.9511976" lon="17.8168274">
        <ele>19.3638</ele>
        <time>2013-04-14T12:41:41Z</time>
      </trkpt>
      <trkpt lat="59.951208" lon="17.8167201">
        <ele>18.8831</ele>
        <time>2013-04-14T12:41:42Z</time>
      </trkpt>
      <trkpt lat="59.951218" lon="17.8166128">
        <ele>19.3638</ele>
        <time>2013-04-14T12:41:43Z</time>
      </trkpt>
      <trkpt lat="59.9512287" lon="17.8165056">
        <ele>18.8831</ele>
        <time>2013-04-14T12:41:44Z</time>
      </trkpt>
      <trkpt lat="59.9512386" lon="17.8163985">
        <ele>18.8831</ele>
        <time>2013-04-14T12:41:45Z</time>
      </trkpt>
      <trkpt lat="59.9512489" lon="17.8162924">
        <ele>18.8831</ele>
        <time>2013-04-14T12:41:46Z</time>
      </trkpt>
      <trkpt lat="59.9512591" lon="17.816187">
        <ele>18.8831</ele>
        <time>2013-04-14T12:41:47Z</time>
      </trkpt>
      <trkpt lat="59.9512682" lon="17.8160817">
        <ele>18.8831</ele>
        <time>2013-04-14T12:41:48Z</time>
      </trkpt>
      <trkpt lat="59.9512774" lon="17.8159757">
        <ele>18.8831</ele>
        <time>2013-04-14T12:41:49Z</time>
      </trkpt>
      <trkpt lat="59.9512863" lon="17.8158696">
        <ele>18.8831</ele>
        <time>2013-04-14T12:41:50Z</time>
      </trkpt>
      <trkpt lat="59.951294" lon="17.8157643">
        <ele>18.4023</ele>
        <time>2013-04-14T12:41:51Z</time>
      </trkpt>
      <trkpt lat="59.9513013" lon="17.8156585">
        <ele>18.4023</ele>
        <time>2013-04-14T12:41:52Z</time>
      </trkpt>
      <trkpt lat="59.9513083" lon="17.815552">
        <ele>18.4023</ele>
        <time>2013-04-14T12:41:53Z</time>
      </trkpt>
      <trkpt lat="59.9513137" lon="17.8154453">
        <ele>18.4023</ele>
        <time>2013-04-14T12:41:54Z</time>
      </trkpt>
      <trkpt lat="59.9513189" lon="17.8153389">
        <ele>18.4023</ele>
        <time>2013-04-14T12:41:55Z</time>
      </trkpt>
      <trkpt lat="59.9513235" lon="17.8152335">
        <ele>18.4023</ele>
        <time>2013-04-14T12:41:56Z</time>
      </trkpt>
      <trkpt lat="59.9513272" lon="17.8151284">
        <ele>18.4023</ele>
        <time>2013-04-14T12:41:57Z</time>
      </trkpt>
      <trkpt lat="59.9513297" lon="17.8150237">
        <ele>18.4023</ele>
        <time>2013-04-14T12:41:58Z</time>
      </trkpt>
      <trkpt lat="59.9513308" lon="17.8149195">
        <ele>18.4023</ele>
        <time>2013-04-14T12:41:59Z</time>
      </trkpt>
      <trkpt lat="59.9513313" lon="17.8148164">
        <ele>18.4023</ele>
        <time>2013-04-14T12:42:00Z</time>
      </trkpt>
      <trkpt lat="59.9513328" lon="17.8147138">
        <ele>18.8831</ele>
        <time>2013-04-14T12:42:01Z</time>
      </trkpt>
      <trkpt lat="59.9513356" lon="17.8146106">
        <ele>18.4023</ele>
        <time>2013-04-14T12:42:02Z</time>
      </trkpt>
      <trkpt lat="59.951338" lon="17.8145067">
        <ele>18.4023</ele>
        <time>2013-04-14T12:42:03Z</time>
      </trkpt>
      <trkpt lat="59.9513396" lon="17.8144039">
        <ele>18.4023</ele>
        <time>2013-04-14T12:42:04Z</time>
      </trkpt>
      <trkpt lat="59.9513406" lon="17.8143016">
        <ele>18.4023</ele>
        <time>2013-04-14T12:42:05Z</time>
      </trkpt>
      <trkpt lat="59.9513415" lon="17.8142011">
        <ele>18.8831</ele>
        <time>2013-04-14T12:42:06Z</time>
      </trkpt>
      <trkpt lat="59.9513417" lon="17.8141017">
        <ele>18.8831</ele>
        <time>2013-04-14T12:42:07Z</time>
      </trkpt>
      <trkpt lat="59.9513421" lon="17.8140037">
        <ele>18.8831</ele>
        <time>2013-04-14T12:42:08Z</time>
      </trkpt>
      <trkpt lat="59.9513435" lon="17.8139068">
        <ele>18.8831</ele>
        <time>2013-04-14T12:42:09Z</time>
      </trkpt>
      <trkpt lat="59.9513443" lon="17.8138103">
        <ele>18.8831</ele>
        <time>2013-04-14T12:42:10Z</time>
      </trkpt>
      <trkpt lat="59.9513448" lon="17.8137142">
        <ele>18.8831</ele>
        <time>2013-04-14T12:42:11Z</time>
      </trkpt>
      <trkpt lat="59.9513448" lon="17.8136186">
        <ele>18.8831</ele>
        <time>2013-04-14T12:42:12Z</time>
      </trkpt>
      <trkpt lat="59.9513454" lon="17.813523">
        <ele>18.8831</ele>
        <time>2013-04-14T12:42:13Z</time>
      </trkpt>
      <trkpt lat="59.9513489" lon="17.8134264">
        <ele>18.8831</ele>
        <time>2013-04-14T12:42:14Z</time>
      </trkpt>
      <trkpt lat="59.9513521" lon="17.8133272">
        <ele>18.8831</ele>
        <time>2013-04-14T12:42:15Z</time>
      </trkpt>
      <trkpt lat="59.9513536" lon="17.8132275">
        <ele>18.8831</ele>
        <time>2013-04-14T12:42:16Z</time>
      </trkpt>
      <trkpt lat="59.9513539" lon="17.8131281">
        <ele>18.8831</ele>
        <time>2013-04-14T12:42:17Z</time>
      </trkpt>
      <trkpt lat="59.9513551" lon="17.8130292">
        <ele>18.8831</ele>
        <time>2013-04-14T12:42:18Z</time>
      </trkpt>
      <trkpt lat="59.9513566" lon="17.8129307">
        <ele>18.8831</ele>
        <time>2013-04-14T12:42:19Z</time>
      </trkpt>
      <trkpt lat="59.9513588" lon="17.8128331">
        <ele>18.8831</ele>
        <time>2013-04-14T12:42:20Z</time>
      </trkpt>
      <trkpt lat="59.9513601" lon="17.8127377">
        <ele>19.3638</ele>
        <time>2013-04-14T12:42:21Z</time>
      </trkpt>
      <trkpt lat="59.9513604" lon="17.8126439">
        <ele>19.3638</ele>
        <time>2013-04-14T12:42:22Z</time>
      </trkpt>
      <trkpt lat="59.9513612" lon="17.8125512">
        <ele>19.3638</ele>
        <time>2013-04-14T12:42:23Z</time>
      </trkpt>
      <trkpt lat="59.9513634" lon="17.8124575">
        <ele>19.3638</ele>
        <time>2013-04-14T12:42:24Z</time>
      </trkpt>
      <trkpt lat="59.951365" lon="17.8123631">
        <ele>19.3638</ele>
        <time>2013-04-14T12:42:25Z</time>
      </trkpt>
      <trkpt lat="59.9513667" lon="17.8122669">
        <ele>19.3638</ele>
        <time>2013-04-14T12:42:26Z</time>
      </trkpt>
      <trkpt lat="59.9513697" lon="17.8121705">
        <ele>19.3638</ele>
        <time>2013-04-14T12:42:27Z</time>
      </trkpt>
      <trkpt lat="59.9513754" lon="17.8120741">
        <ele>19.8444</ele>
        <time>2013-04-14T12:42:28Z</time>
      </trkpt>
      <trkpt lat="59.9513811" lon="17.8119767">
        <ele>19.8444</ele>
        <time>2013-04-14T12:42:29Z</time>
      </trkpt>
      <trkpt lat="59.9513878" lon="17.8118809">
        <ele>19.8444</ele>
        <time>2013-04-14T12:42:30Z</time>
      </trkpt>
      <trkpt lat="59.9513971" lon="17.8117857">
        <ele>19.8444</ele>
        <time>2013-04-14T12:42:31Z</time>
      </trkpt>
      <trkpt lat="59.9514079" lon="17.8116917">
        <ele>20.325</ele>
        <time>2013-04-14T12:42:32Z</time>
      </trkpt>
      <trkpt lat="59.9514199" lon="17.8115991">
        <ele>20.325</ele>
        <time>2013-04-14T12:42:33Z</time>
      </trkpt>
      <trkpt lat="59.9514327" lon="17.8115072">
        <ele>20.325</ele>
        <time>2013-04-14T12:42:34Z</time>
      </trkpt>
      <trkpt lat="59.9514453" lon="17.8114143">
        <ele>20.325</ele>
        <time>2013-04-14T12:42:35Z</time>
      </trkpt>
      <trkpt lat="59.9514577" lon="17.8113204">
        <ele>19.8444</ele>
        <time>2013-04-14T12:42:36Z</time>
      </trkpt>
      <trkpt lat="59.9514712" lon="17.8112259">
        <ele>19.8444</ele>
        <time>2013-04-14T12:42:37Z</time>
      </trkpt>
      <trkpt lat="59.9514852" lon="17.8111306">
        <ele>20.325</ele>
        <time>2013-04-14T12:42:38Z</time>
      </trkpt>
      <trkpt lat="59.9515016" lon="17.8110358">
        <ele>20.325</ele>
        <time>2013-04-14T12:42:39Z</time>
      </trkpt>
      <trkpt lat="59.9515204" lon="17.8109412">
        <ele>20.325</ele>
        <time>2013-04-14T12:42:40Z</time>
      </trkpt>
      <trkpt lat="59.9515401" lon="17.8108453">
        <ele>20.325</ele>
        <time>2013-04-14T12:42:41Z</time>
      </trkpt>
      <trkpt lat="59.9515587" lon="17.8107475">
        <ele>20.325</ele>
        <time>2013-04-14T12:42:42Z</time>
      </trkpt>
      <trkpt lat="59.9515779" lon="17.8106502">
        <ele>19.8444</ele>
        <time>2013-04-14T12:42:43Z</time>
      </trkpt>
      <trkpt lat="59.9515976" lon="17.8105532">
        <ele>19.8444</ele>
        <time>2013-04-14T12:42:44Z</time>
      </trkpt>
      <trkpt lat="59.9516179" lon="17.8104569">
        <ele>19.8444</ele>
        <time>2013-04-14T12:42:45Z</time>
      </trkpt>
      <trkpt lat="59.9516393" lon="17.8103615">
        <ele>19.8444</ele>
        <time>2013-04-14T12:42:46Z</time>
      </trkpt>
      <trkpt lat="59.9516617" lon="17.8102666">
        <ele>20.325</ele>
        <time>2013-04-14T12:42:47Z</time>
      </trkpt>
      <trkpt lat="59.9516856" lon="17.8101731">
        <ele>20.325</ele>
        <time>2013-04-14T12:42:48Z</time>
      </trkpt>
      <trkpt lat="59.9517106" lon="17.8100807">
        <ele>20.325</ele>
        <time>2013-04-14T12:42:49Z</time>
      </trkpt>
      <trkpt lat="59.9517355" lon="17.809988">
        <ele>20.325</ele>
        <time>2013-04-14T12:42:50Z</time>
      </trkpt>
      <trkpt lat="59.9517608" lon="17.8098959">
        <ele>20.325</ele>
        <time>2013-04-14T12:42:51Z</time>
      </trkpt>
      <trkpt lat="59.9517872" lon="17.8098045">
        <ele>20.325</ele>
        <time>2013-04-14T12:42:52Z</time>
      </trkpt>
      <trkpt lat="59.9518125" lon="17.809712">
        <ele>20.325</ele>
        <time>2013-04-14T12:42:53Z</time>
      </trkpt>
      <trkpt lat="59.9518379" lon="17.8096199">
        <ele>20.325</ele>
        <time>2013-04-14T12:42:54Z</time>
      </trkpt>
      <trkpt lat="59.9518628" lon="17.8095272">
        <ele>20.325</ele>
        <time>2013-04-14T12:42:55Z</time>
      </trkpt>
      <trkpt lat="59.9518878" lon="17.8094341">
        <ele>20.325</ele>
        <time>2013-04-14T12:42:56Z</time>
      </trkpt>
      <trkpt lat="59.9519137" lon="17.80934">
        <ele>20.8057</ele>
        <time>2013-04-14T12:42:57Z</time>
      </trkpt>
      <trkpt lat="59.9519401" lon="17.8092458">
        <ele>20.8057</ele>
        <time>2013-04-14T12:42:58Z</time>
      </trkpt>
      <trkpt lat="59.9519652" lon="17.8091503">
        <ele>20.8057</ele>
        <time>2013-04-14T12:42:59Z</time>
      </trkpt>
      <trkpt lat="59.9519897" lon="17.8090542">
        <ele>20.8057</ele>
        <time>2013-04-14T12:43:00Z</time>
      </trkpt>
      <trkpt lat="59.9520154" lon="17.8089593">
        <ele>20.8057</ele>
        <time>2013-04-14T12:43:01Z</time>
      </trkpt>
      <trkpt lat="59.9520409" lon="17.808863">
        <ele>20.8057</ele>
        <time>2013-04-14T12:43:02Z</time>
      </trkpt>
      <trkpt lat="59.9520652" lon="17.8087652">
        <ele>21.2864</ele>
        <time>2013-04-14T12:43:03Z</time>
      </trkpt>
      <trkpt lat="59.9520898" lon="17.8086687">
        <ele>21.2864</ele>
        <time>2013-04-14T12:43:04Z</time>
      </trkpt>
      <trkpt lat="59.952116" lon="17.8085737">
        <ele>21.2864</ele>
        <time>2013-04-14T12:43:05Z</time>
      </trkpt>
      <trkpt lat="59.9521424" lon="17.8084784">
        <ele>21.2864</ele>
        <time>2013-04-14T12:43:06Z</time>
      </trkpt>
      <trkpt lat="59.9521674" lon="17.8083826">
        <ele>21.2864</ele>
        <time>2013-04-14T12:43:07Z</time>
      </trkpt>
      <trkpt lat="59.952191" lon="17.8082875">
        <ele>21.2864</ele>
        <time>2013-04-14T12:43:08Z</time>
      </trkpt>
      <trkpt lat="59.952215" lon="17.8081957">
        <ele>21.767</ele>
        <time>2013-04-14T12:43:09Z</time>
      </trkpt>
      <trkpt lat="59.9522395" lon="17.8081036">
        <ele>21.767</ele>
        <time>2013-04-14T12:43:10Z</time>
      </trkpt>
      <trkpt lat="59.9522627" lon="17.8080111">
        <ele>21.767</ele>
        <time>2013-04-14T12:43:11Z</time>
      </trkpt>
      <trkpt lat="59.9522848" lon="17.8079186">
        <ele>22.2476</ele>
        <time>2013-04-14T12:43:12Z</time>
      </trkpt>
      <trkpt lat="59.9523061" lon="17.8078302">
        <ele>22.2476</ele>
        <time>2013-04-14T12:43:13Z</time>
      </trkpt>
      <trkpt lat="59.9523274" lon="17.807744">
        <ele>22.7283</ele>
        <time>2013-04-14T12:43:14Z</time>
      </trkpt>
      <trkpt lat="59.9523485" lon="17.8076568">
        <ele>22.7283</ele>
        <time>2013-04-14T12:43:15Z</time>
      </trkpt>
      <trkpt lat="59.9523702" lon="17.8075695">
        <ele>23.209</ele>
        <time>2013-04-14T12:43:16Z</time>
      </trkpt>
      <trkpt lat="59.9523906" lon="17.807482">
        <ele>23.6896</ele>
        <time>2013-04-14T12:43:17Z</time>
      </trkpt>
      <trkpt lat="59.9524112" lon="17.8073971">
        <ele>23.6896</ele>
        <time>2013-04-14T12:43:18Z</time>
      </trkpt>
      <trkpt lat="59.9524286" lon="17.8073111">
        <ele>24.1703</ele>
        <time>2013-04-14T12:43:19Z</time>
      </trkpt>
      <trkpt lat="59.9524485" lon="17.8072262">
        <ele>24.651</ele>
        <time>2013-04-14T12:43:20Z</time>
      </trkpt>
      <trkpt lat="59.9524689" lon="17.8071436">
        <ele>24.651</ele>
        <time>2013-04-14T12:43:21Z</time>
      </trkpt>
      <trkpt lat="59.9524866" lon="17.807062">
        <ele>25.1317</ele>
        <time>2013-04-14T12:43:22Z</time>
      </trkpt>
      <trkpt lat="59.952501" lon="17.8069817">
        <ele>25.6123</ele>
        <time>2013-04-14T12:43:23Z</time>
      </trkpt>
      <trkpt lat="59.952516" lon="17.8069021">
        <ele>25.6123</ele>
        <time>2013-04-14T12:43:24Z</time>
      </trkpt>
      <trkpt lat="59.9525379" lon="17.8068224">
        <ele>25.6123</ele>
        <time>2013-04-14T12:43:25Z</time>
      </trkpt>
      <trkpt lat="59.9525619" lon="17.8067465">
        <ele>25.1317</ele>
        <time>2013-04-14T12:43:26Z</time>
      </trkpt>
      <trkpt lat="59.9526021" lon="17.8065905">
        <ele>25.1317</ele>
        <time>2013-04-14T12:43:27Z</time>
      </trkpt>
      <trkpt lat="59.9526249" lon="17.806476">
        <ele>25.1317</ele>
        <time>2013-04-14T12:43:28Z</time>
      </trkpt>
      <trkpt lat="59.952646" lon="17.8063919">
        <ele>25.1317</ele>
        <time>2013-04-14T12:43:29Z</time>
      </trkpt>
      <trkpt lat="59.9526579" lon="17.8062957">
        <ele>25.1317</ele>
        <time>2013-04-14T12:43:30Z</time>
      </trkpt>
      <trkpt lat="59.9526808" lon="17.80621">
        <ele>25.1317</ele>
        <time>2013-04-14T12:43:31Z</time>
      </trkpt>
      <trkpt lat="59.952702" lon="17.8061339">
        <ele>25.1317</ele>
        <time>2013-04-14T12:43:32Z</time>
      </trkpt>
      <trkpt lat="59.9527132" lon="17.8060352">
        <ele>25.6123</ele>
        <time>2013-04-14T12:43:33Z</time>
      </trkpt>
      <trkpt lat="59.9527241" lon="17.8059491">
        <ele>25.6123</ele>
        <time>2013-04-14T12:43:34Z</time>
      </trkpt>
      <trkpt lat="59.9527326" lon="17.8058656">
        <ele>25.1317</ele>
        <time>2013-04-14T12:43:35Z</time>
      </trkpt>
      <trkpt lat="59.9527394" lon="17.8057804">
        <ele>25.1317</ele>
        <time>2013-04-14T12:43:36Z</time>
      </trkpt>
      <trkpt lat="59.9527432" lon="17.805686">
        <ele>25.1317</ele>
        <time>2013-04-14T12:43:37Z</time>
      </trkpt>
      <trkpt lat="59.9527497" lon="17.8055902">
        <ele>25.6123</ele>
        <time>2013-04-14T12:43:38Z</time>
      </trkpt>
      <trkpt lat="59.9527584" lon="17.805497">
        <ele>25.6123</ele>
        <time>2013-04-14T12:43:39Z</time>
      </trkpt>
      <trkpt lat="59.9527662" lon="17.8054068">
        <ele>25.6123</ele>
        <time>2013-04-14T12:43:40Z</time>
      </trkpt>
      <trkpt lat="59.9527743" lon="17.8053188">
        <ele>25.1317</ele>
        <time>2013-04-14T12:43:41Z</time>
      </trkpt>
      <trkpt lat="59.9527781" lon="17.8052189">
        <ele>26.0929</ele>
        <time>2013-04-14T12:43:42Z</time>
      </trkpt>
      <trkpt lat="59.9527909" lon="17.8051209">
        <ele>25.6123</ele>
        <time>2013-04-14T12:43:43Z</time>
      </trkpt>
      <trkpt lat="59.9528024" lon="17.8050251">
        <ele>25.6123</ele>
        <time>2013-04-14T12:43:44Z</time>
      </trkpt>
      <trkpt lat="59.9528131" lon="17.8049252">
        <ele>25.6123</ele>
        <time>2013-04-14T12:43:45Z</time>
      </trkpt>
      <trkpt lat="59.9528216" lon="17.8048283">
        <ele>25.6123</ele>
        <time>2013-04-14T12:43:46Z</time>
      </trkpt>
      <trkpt lat="59.9528341" lon="17.8047304">
        <ele>25.1317</ele>
        <time>2013-04-14T12:43:47Z</time>
      </trkpt>
      <trkpt lat="59.9528513" lon="17.8046342">
        <ele>25.1317</ele>
        <time>2013-04-14T12:43:48Z</time>
      </trkpt>
      <trkpt lat="59.9528708" lon="17.8045488">
        <ele>24.651</ele>
        <time>2013-04-14T12:43:49Z</time>
      </trkpt>
      <trkpt lat="59.9528922" lon="17.8044634">
        <ele>25.1317</ele>
        <time>2013-04-14T12:43:50Z</time>
      </trkpt>
      <trkpt lat="59.9529165" lon="17.804376">
        <ele>25.1317</ele>
        <time>2013-04-14T12:43:51Z</time>
      </trkpt>
      <trkpt lat="59.9529453" lon="17.8042979">
        <ele>24.651</ele>
        <time>2013-04-14T12:43:52Z</time>
      </trkpt>
      <trkpt lat="59.9530023" lon="17.8042138">
        <ele>24.651</ele>
        <time>2013-04-14T12:43:53Z</time>
      </trkpt>
      <trkpt lat="59.9530402" lon="17.8041442">
        <ele>24.651</ele>
        <time>2013-04-14T12:43:54Z</time>
      </trkpt>
      <trkpt lat="59.9530811" lon="17.8040772">
        <ele>25.1317</ele>
        <time>2013-04-14T12:43:55Z</time>
      </trkpt>
      <trkpt lat="59.9531162" lon="17.8040104">
        <ele>25.6123</ele>
        <time>2013-04-14T12:43:56Z</time>
      </trkpt>
      <trkpt lat="59.9531475" lon="17.8039367">
        <ele>25.6123</ele>
        <time>2013-04-14T12:43:57Z</time>
      </trkpt>
      <trkpt lat="59.9531835" lon="17.8038585">
        <ele>25.6123</ele>
        <time>2013-04-14T12:43:58Z</time>
      </trkpt>
      <trkpt lat="59.9532178" lon="17.8037918">
        <ele>26.0929</ele>
        <time>2013-04-14T12:43:59Z</time>
      </trkpt>
      <trkpt lat="59.95325" lon="17.8037191">
        <ele>26.5736</ele>
        <time>2013-04-14T12:44:00Z</time>
      </trkpt>
      <trkpt lat="59.9532822" lon="17.8036362">
        <ele>26.5736</ele>
        <time>2013-04-14T12:44:01Z</time>
      </trkpt>
      <trkpt lat="59.9533162" lon="17.8035594">
        <ele>26.5736</ele>
        <time>2013-04-14T12:44:02Z</time>
      </trkpt>
      <trkpt lat="59.9533498" lon="17.8034762">
        <ele>27.0543</ele>
        <time>2013-04-14T12:44:03Z</time>
      </trkpt>
      <trkpt lat="59.9533793" lon="17.8033918">
        <ele>27.0543</ele>
        <time>2013-04-14T12:44:04Z</time>
      </trkpt>
      <trkpt lat="59.9533998" lon="17.8033126">
        <ele>27.0543</ele>
        <time>2013-04-14T12:44:05Z</time>
      </trkpt>
      <trkpt lat="59.9534363" lon="17.8032286">
        <ele>27.5349</ele>
        <time>2013-04-14T12:44:06Z</time>
      </trkpt>
      <trkpt lat="59.9534707" lon="17.803141">
        <ele>27.5349</ele>
        <time>2013-04-14T12:44:07Z</time>
      </trkpt>
      <trkpt lat="59.9534948" lon="17.8030498">
        <ele>27.0543</ele>
        <time>2013-04-14T12:44:08Z</time>
      </trkpt>
      <trkpt lat="59.9535173" lon="17.8029536">
        <ele>27.0543</ele>
        <time>2013-04-14T12:44:09Z</time>
      </trkpt>
      <trkpt lat="59.953538" lon="17.8028555">
        <ele>27.0543</ele>
        <time>2013-04-14T12:44:10Z</time>
      </trkpt>
      <trkpt lat="59.9535578" lon="17.8027514">
        <ele>27.0543</ele>
        <time>2013-04-14T12:44:11Z</time>
      </trkpt>
      <trkpt lat="59.9535764" lon="17.8026504">
        <ele>27.0543</ele>
        <time>2013-04-14T12:44:12Z</time>
      </trkpt>
      <trkpt lat="59.953592" lon="17.8025489">
        <ele>26.5736</ele>
        <time>2013-04-14T12:44:13Z</time>
      </trkpt>
      <trkpt lat="59.9536116" lon="17.8024446">
        <ele>25.6123</ele>
        <time>2013-04-14T12:44:14Z</time>
      </trkpt>
      <trkpt lat="59.9536312" lon="17.8023338">
        <ele>26.0929</ele>
        <time>2013-04-14T12:44:15Z</time>
      </trkpt>
      <trkpt lat="59.9536552" lon="17.8022293">
        <ele>25.6123</ele>
        <time>2013-04-14T12:44:16Z</time>
      </trkpt>
      <trkpt lat="59.9536836" lon="17.8021167">
        <ele>25.1317</ele>
        <time>2013-04-14T12:44:17Z</time>
      </trkpt>
      <trkpt lat="59.9537262" lon="17.801974">
        <ele>24.1703</ele>
        <time>2013-04-14T12:44:18Z</time>
      </trkpt>
      <trkpt lat="59.9537863" lon="17.8018822">
        <ele>23.6896</ele>
        <time>2013-04-14T12:44:19Z</time>
      </trkpt>
      <trkpt lat="59.9538383" lon="17.8017594">
        <ele>22.2476</ele>
        <time>2013-04-14T12:44:20Z</time>
      </trkpt>
      <trkpt lat="59.9538979" lon="17.801693">
        <ele>21.767</ele>
        <time>2013-04-14T12:44:21Z</time>
      </trkpt>
      <trkpt lat="59.95394" lon="17.8015833">
        <ele>20.325</ele>
        <time>2013-04-14T12:44:22Z</time>
      </trkpt>
      <trkpt lat="59.9539816" lon="17.8014659">
        <ele>19.8444</ele>
        <time>2013-04-14T12:44:23Z</time>
      </trkpt>
      <trkpt lat="59.9540192" lon="17.8013501">
        <ele>19.3638</ele>
        <time>2013-04-14T12:44:24Z</time>
      </trkpt>
      <trkpt lat="59.9540204" lon="17.8011325">
        <ele>21.767</ele>
        <time>2013-04-14T12:44:25Z</time>
      </trkpt>
      <trkpt lat="59.9540596" lon="17.800983">
        <ele>22.2476</ele>
        <time>2013-04-14T12:44:26Z</time>
      </trkpt>
      <trkpt lat="59.9541006" lon="17.8008952">
        <ele>22.2476</ele>
        <time>2013-04-14T12:44:27Z</time>
      </trkpt>
      <trkpt lat="59.9541532" lon="17.800784">
        <ele>21.767</ele>
        <time>2013-04-14T12:44:28Z</time>
      </trkpt>
      <trkpt lat="59.9542037" lon="17.8006763">
        <ele>21.767</ele>
        <time>2013-04-14T12:44:29Z</time>
      </trkpt>
      <trkpt lat="59.9542493" lon="17.8005572">
        <ele>21.767</ele>
        <time>2013-04-14T12:44:30Z</time>
      </trkpt>
      <trkpt lat="59.9542917" lon="17.8004411">
        <ele>21.767</ele>
        <time>2013-04-14T12:44:31Z</time>
      </trkpt>
      <trkpt lat="59.9543341" lon="17.8003379">
        <ele>21.2864</ele>
        <time>2013-04-14T12:44:32Z</time>
      </trkpt>
      <trkpt lat="59.9543787" lon="17.8002371">
        <ele>21.2864</ele>
        <time>2013-04-14T12:44:33Z</time>
      </trkpt>
      <trkpt lat="59.9544252" lon="17.8001367">
        <ele>20.8057</ele>
        <time>2013-04-14T12:44:34Z</time>
      </trkpt>
      <trkpt lat="59.9544668" lon="17.8000381">
        <ele>20.8057</ele>
        <time>2013-04-14T12:44:35Z</time>
      </trkpt>
      <trkpt lat="59.9545078" lon="17.7999356">
        <ele>20.8057</ele>
        <time>2013-04-14T12:44:36Z</time>
      </trkpt>
      <trkpt lat="59.9545492" lon="17.799833">
        <ele>20.8057</ele>
        <time>2013-04-14T12:44:37Z</time>
      </trkpt>
      <trkpt lat="59.9545896" lon="17.7997292">
        <ele>20.8057</ele>
        <time>2013-04-14T12:44:38Z</time>
      </trkpt>
      <trkpt lat="59.9546293" lon="17.7996284">
        <ele>20.325</ele>
        <time>2013-04-14T12:44:39Z</time>
      </trkpt>
      <trkpt lat="59.9546739" lon="17.799536">
        <ele>20.325</ele>
        <time>2013-04-14T12:44:40Z</time>
      </trkpt>
      <trkpt lat="59.9547192" lon="17.7994466">
        <ele>20.325</ele>
        <time>2013-04-14T12:44:41Z</time>
      </trkpt>
      <trkpt lat="59.9547616" lon="17.7993616">
        <ele>20.325</ele>
        <time>2013-04-14T12:44:42Z</time>
      </trkpt>
      <trkpt lat="59.9548028" lon="17.7992817">
        <ele>20.8057</ele>
        <time>2013-04-14T12:44:43Z</time>
      </trkpt>
      <trkpt lat="59.9548427" lon="17.7992051">
        <ele>20.8057</ele>
        <time>2013-04-14T12:44:44Z</time>
      </trkpt>
      <trkpt lat="59.9548823" lon="17.7991312">
        <ele>21.2864</ele>
        <time>2013-04-14T12:44:45Z</time>
      </trkpt>
      <trkpt lat="59.9549206" lon="17.7990606">
        <ele>21.2864</ele>
        <time>2013-04-14T12:44:46Z</time>
      </trkpt>
      <trkpt lat="59.9549577" lon="17.7989927">
        <ele>21.767</ele>
        <time>2013-04-14T12:44:47Z</time>
      </trkpt>
      <trkpt lat="59.9549934" lon="17.7989279">
        <ele>22.2476</ele>
        <time>2013-04-14T12:44:48Z</time>
      </trkpt>
      <trkpt lat="59.9550313" lon="17.7988586">
        <ele>22.2476</ele>
        <time>2013-04-14T12:44:49Z</time>
      </trkpt>
      <trkpt lat="59.9550688" lon="17.7987867">
        <ele>22.2476</ele>
        <time>2013-04-14T12:44:50Z</time>
      </trkpt>
      <trkpt lat="59.955105" lon="17.7987121">
        <ele>21.767</ele>
        <time>2013-04-14T12:44:51Z</time>
      </trkpt>
      <trkpt lat="59.9551413" lon="17.7986334">
        <ele>21.767</ele>
        <time>2013-04-14T12:44:52Z</time>
      </trkpt>
      <trkpt lat="59.955177" lon="17.7985521">
        <ele>22.2476</ele>
        <time>2013-04-14T12:44:53Z</time>
      </trkpt>
      <trkpt lat="59.955216" lon="17.7984681">
        <ele>22.2476</ele>
        <time>2013-04-14T12:44:54Z</time>
      </trkpt>
      <trkpt lat="59.955253" lon="17.7983741">
        <ele>22.7283</ele>
        <time>2013-04-14T12:44:55Z</time>
      </trkpt>
      <trkpt lat="59.9552869" lon="17.7982831">
        <ele>22.7283</ele>
        <time>2013-04-14T12:44:56Z</time>
      </trkpt>
      <trkpt lat="59.9553201" lon="17.7981894">
        <ele>22.2476</ele>
        <time>2013-04-14T12:44:57Z</time>
      </trkpt>
      <trkpt lat="59.9553527" lon="17.7980892">
        <ele>22.2476</ele>
        <time>2013-04-14T12:44:58Z</time>
      </trkpt>
      <trkpt lat="59.9553837" lon="17.7979815">
        <ele>22.2476</ele>
        <time>2013-04-14T12:44:59Z</time>
      </trkpt>
      <trkpt lat="59.9554144" lon="17.7978733">
        <ele>22.2476</ele>
        <time>2013-04-14T12:45:00Z</time>
      </trkpt>
      <trkpt lat="59.9554433" lon="17.7977603">
        <ele>22.2476</ele>
        <time>2013-04-14T12:45:01Z</time>
      </trkpt>
      <trkpt lat="59.955478" lon="17.7976527">
        <ele>21.767</ele>
        <time>2013-04-14T12:45:02Z</time>
      </trkpt>
      <trkpt lat="59.9555127" lon="17.7975444">
        <ele>21.2864</ele>
        <time>2013-04-14T12:45:03Z</time>
      </trkpt>
      <trkpt lat="59.9555458" lon="17.797436">
        <ele>21.2864</ele>
        <time>2013-04-14T12:45:04Z</time>
      </trkpt>
      <trkpt lat="59.9555784" lon="17.7973285">
        <ele>20.8057</ele>
        <time>2013-04-14T12:45:05Z</time>
      </trkpt>
      <trkpt lat="59.9556088" lon="17.7972221">
        <ele>20.8057</ele>
        <time>2013-04-14T12:45:06Z</time>
      </trkpt>
      <trkpt lat="59.9556369" lon="17.7971176">
        <ele>20.325</ele>
        <time>2013-04-14T12:45:07Z</time>
      </trkpt>
      <trkpt lat="59.9556628" lon="17.7970103">
        <ele>20.325</ele>
        <time>2013-04-14T12:45:08Z</time>
      </trkpt>
      <trkpt lat="59.9556883" lon="17.796904">
        <ele>20.325</ele>
        <time>2013-04-14T12:45:09Z</time>
      </trkpt>
      <trkpt lat="59.9557161" lon="17.7967986">
        <ele>19.8444</ele>
        <time>2013-04-14T12:45:10Z</time>
      </trkpt>
      <trkpt lat="59.9557406" lon="17.7966916">
        <ele>19.8444</ele>
        <time>2013-04-14T12:45:11Z</time>
      </trkpt>
      <trkpt lat="59.9557642" lon="17.7965842">
        <ele>19.8444</ele>
        <time>2013-04-14T12:45:12Z</time>
      </trkpt>
      <trkpt lat="59.955785" lon="17.7964789">
        <ele>19.8444</ele>
        <time>2013-04-14T12:45:13Z</time>
      </trkpt>
      <trkpt lat="59.9558032" lon="17.796367">
        <ele>20.8057</ele>
        <time>2013-04-14T12:45:14Z</time>
      </trkpt>
      <trkpt lat="59.9558217" lon="17.79627">
        <ele>20.325</ele>
        <time>2013-04-14T12:45:15Z</time>
      </trkpt>
      <trkpt lat="59.955841" lon="17.7961738">
        <ele>20.325</ele>
        <time>2013-04-14T12:45:16Z</time>
      </trkpt>
      <trkpt lat="59.9558618" lon="17.7960737">
        <ele>19.8444</ele>
        <time>2013-04-14T12:45:17Z</time>
      </trkpt>
      <trkpt lat="59.9558825" lon="17.795966">
        <ele>19.8444</ele>
        <time>2013-04-14T12:45:18Z</time>
      </trkpt>
      <trkpt lat="59.9559007" lon="17.7958572">
        <ele>19.8444</ele>
        <time>2013-04-14T12:45:19Z</time>
      </trkpt>
      <trkpt lat="59.9559199" lon="17.7957473">
        <ele>19.8444</ele>
        <time>2013-04-14T12:45:20Z</time>
      </trkpt>
      <trkpt lat="59.9559385" lon="17.7956336">
        <ele>19.8444</ele>
        <time>2013-04-14T12:45:21Z</time>
      </trkpt>
      <trkpt lat="59.9559592" lon="17.7955228">
        <ele>20.325</ele>
        <time>2013-04-14T12:45:22Z</time>
      </trkpt>
      <trkpt lat="59.9559799" lon="17.7954124">
        <ele>20.325</ele>
        <time>2013-04-14T12:45:23Z</time>
      </trkpt>
      <trkpt lat="59.9560022" lon="17.7953021">
        <ele>20.325</ele>
        <time>2013-04-14T12:45:24Z</time>
      </trkpt>
      <trkpt lat="59.956027" lon="17.7951881">
        <ele>20.8057</ele>
        <time>2013-04-14T12:45:25Z</time>
      </trkpt>
      <trkpt lat="59.9560535" lon="17.7950719">
        <ele>20.8057</ele>
        <time>2013-04-14T12:45:26Z</time>
      </trkpt>
      <trkpt lat="59.9560814" lon="17.7949575">
        <ele>20.8057</ele>
        <time>2013-04-14T12:45:27Z</time>
      </trkpt>
      <trkpt lat="59.9561105" lon="17.7948397">
        <ele>20.325</ele>
        <time>2013-04-14T12:45:28Z</time>
      </trkpt>
      <trkpt lat="59.9561382" lon="17.7947239">
        <ele>20.8057</ele>
        <time>2013-04-14T12:45:29Z</time>
      </trkpt>
      <trkpt lat="59.9561633" lon="17.7946125">
        <ele>20.8057</ele>
        <time>2013-04-14T12:45:30Z</time>
      </trkpt>
      <trkpt lat="59.9561828" lon="17.7945069">
        <ele>20.8057</ele>
        <time>2013-04-14T12:45:31Z</time>
      </trkpt>
      <trkpt lat="59.9562022" lon="17.7944067">
        <ele>20.8057</ele>
        <time>2013-04-14T12:45:32Z</time>
      </trkpt>
      <trkpt lat="59.9562249" lon="17.7943157">
        <ele>20.8057</ele>
        <time>2013-04-14T12:45:33Z</time>
      </trkpt>
      <trkpt lat="59.9562492" lon="17.7942264">
        <ele>20.8057</ele>
        <time>2013-04-14T12:45:34Z</time>
      </trkpt>
      <trkpt lat="59.9562726" lon="17.7941331">
        <ele>21.2864</ele>
        <time>2013-04-14T12:45:35Z</time>
      </trkpt>
      <trkpt lat="59.9562953" lon="17.7940383">
        <ele>20.8057</ele>
        <time>2013-04-14T12:45:36Z</time>
      </trkpt>
      <trkpt lat="59.9563162" lon="17.7939411">
        <ele>21.2864</ele>
        <time>2013-04-14T12:45:37Z</time>
      </trkpt>
      <trkpt lat="59.9563378" lon="17.7938431">
        <ele>21.2864</ele>
        <time>2013-04-14T12:45:38Z</time>
      </trkpt>
      <trkpt lat="59.9563592" lon="17.7937439">
        <ele>21.2864</ele>
        <time>2013-04-14T12:45:39Z</time>
      </trkpt>
      <trkpt lat="59.9563799" lon="17.7936428">
        <ele>21.767</ele>
        <time>2013-04-14T12:45:40Z</time>
      </trkpt>
      <trkpt lat="59.9564007" lon="17.7935396">
        <ele>21.767</ele>
        <time>2013-04-14T12:45:41Z</time>
      </trkpt>
      <trkpt lat="59.9564208" lon="17.7934362">
        <ele>22.2476</ele>
        <time>2013-04-14T12:45:42Z</time>
      </trkpt>
      <trkpt lat="59.9564411" lon="17.793333">
        <ele>22.2476</ele>
        <time>2013-04-14T12:45:43Z</time>
      </trkpt>
      <trkpt lat="59.9564625" lon="17.7932298">
        <ele>22.2476</ele>
        <time>2013-04-14T12:45:44Z</time>
      </trkpt>
      <trkpt lat="59.9564844" lon="17.7931274">
        <ele>22.7283</ele>
        <time>2013-04-14T12:45:45Z</time>
      </trkpt>
      <trkpt lat="59.9565052" lon="17.7930212">
        <ele>22.7283</ele>
        <time>2013-04-14T12:45:46Z</time>
      </trkpt>
      <trkpt lat="59.9565265" lon="17.7929155">
        <ele>22.7283</ele>
        <time>2013-04-14T12:45:47Z</time>
      </trkpt>
      <trkpt lat="59.9565433" lon="17.7928145">
        <ele>22.7283</ele>
        <time>2013-04-14T12:45:48Z</time>
      </trkpt>
      <trkpt lat="59.9565604" lon="17.7927171">
        <ele>22.7283</ele>
        <time>2013-04-14T12:45:49Z</time>
      </trkpt>
      <trkpt lat="59.9565788" lon="17.7926223">
        <ele>22.7283</ele>
        <time>2013-04-14T12:45:50Z</time>
      </trkpt>
      <trkpt lat="59.9565969" lon="17.7925273">
        <ele>22.7283</ele>
        <time>2013-04-14T12:45:51Z</time>
      </trkpt>
      <trkpt lat="59.9566143" lon="17.7924331">
        <ele>22.7283</ele>
        <time>2013-04-14T12:45:52Z</time>
      </trkpt>
      <trkpt lat="59.956631" lon="17.792337">
        <ele>22.7283</ele>
        <time>2013-04-14T12:45:53Z</time>
      </trkpt>
      <trkpt lat="59.9566477" lon="17.7922398">
        <ele>22.7283</ele>
        <time>2013-04-14T12:45:54Z</time>
      </trkpt>
      <trkpt lat="59.956663" lon="17.7921411">
        <ele>22.7283</ele>
        <time>2013-04-14T12:45:55Z</time>
      </trkpt>
      <trkpt lat="59.9566776" lon="17.7920427">
        <ele>23.209</ele>
        <time>2013-04-14T12:45:56Z</time>
      </trkpt>
      <trkpt lat="59.9566922" lon="17.7919462">
        <ele>23.209</ele>
        <time>2013-04-14T12:45:57Z</time>
      </trkpt>
      <trkpt lat="59.9567068" lon="17.7918484">
        <ele>23.209</ele>
        <time>2013-04-14T12:45:58Z</time>
      </trkpt>
      <trkpt lat="59.9567213" lon="17.79175">
        <ele>23.209</ele>
        <time>2013-04-14T12:45:59Z</time>
      </trkpt>
      <trkpt lat="59.9567358" lon="17.7916506">
        <ele>23.6896</ele>
        <time>2013-04-14T12:46:00Z</time>
      </trkpt>
      <trkpt lat="59.9567497" lon="17.7915474">
        <ele>24.1703</ele>
        <time>2013-04-14T12:46:01Z</time>
      </trkpt>
      <trkpt lat="59.9567616" lon="17.7914455">
        <ele>24.651</ele>
        <time>2013-04-14T12:46:02Z</time>
      </trkpt>
      <trkpt lat="59.9567674" lon="17.7913434">
        <ele>25.1317</ele>
        <time>2013-04-14T12:46:03Z</time>
      </trkpt>
      <trkpt lat="59.9567709" lon="17.7912289">
        <ele>25.1317</ele>
        <time>2013-04-14T12:46:04Z</time>
      </trkpt>
      <trkpt lat="59.9567747" lon="17.7911397">
        <ele>25.1317</ele>
        <time>2013-04-14T12:46:05Z</time>
      </trkpt>
      <trkpt lat="59.9567713" lon="17.7910466">
        <ele>25.1317</ele>
        <time>2013-04-14T12:46:06Z</time>
      </trkpt>
      <trkpt lat="59.9567684" lon="17.7909562">
        <ele>25.1317</ele>
        <time>2013-04-14T12:46:07Z</time>
      </trkpt>
      <trkpt lat="59.9567658" lon="17.7908626">
        <ele>25.1317</ele>
        <time>2013-04-14T12:46:08Z</time>
      </trkpt>
      <trkpt lat="59.9567529" lon="17.7907668">
        <ele>25.1317</ele>
        <time>2013-04-14T12:46:09Z</time>
      </trkpt>
      <trkpt lat="59.9567315" lon="17.790662">
        <ele>24.651</ele>
        <time>2013-04-14T12:46:10Z</time>
      </trkpt>
      <trkpt lat="59.9567088" lon="17.7905523">
        <ele>24.1703</ele>
        <time>2013-04-14T12:46:11Z</time>
      </trkpt>
      <trkpt lat="59.9566868" lon="17.7904394">
        <ele>24.1703</ele>
        <time>2013-04-14T12:46:12Z</time>
      </trkpt>
      <trkpt lat="59.9566664" lon="17.7903243">
        <ele>23.6896</ele>
        <time>2013-04-14T12:46:13Z</time>
      </trkpt>
      <trkpt lat="59.9566466" lon="17.7902073">
        <ele>23.209</ele>
        <time>2013-04-14T12:46:14Z</time>
      </trkpt>
      <trkpt lat="59.9566306" lon="17.7900851">
        <ele>23.209</ele>
        <time>2013-04-14T12:46:15Z</time>
      </trkpt>
      <trkpt lat="59.9566275" lon="17.7899587">
        <ele>22.7283</ele>
        <time>2013-04-14T12:46:16Z</time>
      </trkpt>
      <trkpt lat="59.9566333" lon="17.7898132">
        <ele>22.7283</ele>
        <time>2013-04-14T12:46:17Z</time>
      </trkpt>
      <trkpt lat="59.956661" lon="17.789693">
        <ele>23.209</ele>
        <time>2013-04-14T12:46:18Z</time>
      </trkpt>
      <trkpt lat="59.9566984" lon="17.7895809">
        <ele>23.209</ele>
        <time>2013-04-14T12:46:19Z</time>
      </trkpt>
      <trkpt lat="59.9567398" lon="17.7894893">
        <ele>22.7283</ele>
        <time>2013-04-14T12:46:20Z</time>
      </trkpt>
      <trkpt lat="59.9567839" lon="17.7894034">
        <ele>23.209</ele>
        <time>2013-04-14T12:46:21Z</time>
      </trkpt>
      <trkpt lat="59.9568309" lon="17.7893397">
        <ele>22.7283</ele>
        <time>2013-04-14T12:46:22Z</time>
      </trkpt>
      <trkpt lat="59.9568811" lon="17.7892796">
        <ele>22.2476</ele>
        <time>2013-04-14T12:46:23Z</time>
      </trkpt>
      <trkpt lat="59.9569346" lon="17.7892195">
        <ele>21.767</ele>
        <time>2013-04-14T12:46:24Z</time>
      </trkpt>
      <trkpt lat="59.9569886" lon="17.7891558">
        <ele>21.767</ele>
        <time>2013-04-14T12:46:25Z</time>
      </trkpt>
      <trkpt lat="59.9570387" lon="17.7890812">
        <ele>22.2476</ele>
        <time>2013-04-14T12:46:26Z</time>
      </trkpt>
      <trkpt lat="59.9570852" lon="17.7890071">
        <ele>22.2476</ele>
        <time>2013-04-14T12:46:27Z</time>
      </trkpt>
      <trkpt lat="59.9571366" lon="17.788929">
        <ele>22.2476</ele>
        <time>2013-04-14T12:46:28Z</time>
      </trkpt>
      <trkpt lat="59.9571853" lon="17.788846">
        <ele>22.2476</ele>
        <time>2013-04-14T12:46:29Z</time>
      </trkpt>
      <trkpt lat="59.9572231" lon="17.7887564">
        <ele>22.2476</ele>
        <time>2013-04-14T12:46:30Z</time>
      </trkpt>
      <trkpt lat="59.9572496" lon="17.7886569">
        <ele>21.767</ele>
        <time>2013-04-14T12:46:31Z</time>
      </trkpt>
      <trkpt lat="59.9572863" lon="17.7885518">
        <ele>21.767</ele>
        <time>2013-04-14T12:46:32Z</time>
      </trkpt>
      <trkpt lat="59.9573175" lon="17.7884585">
        <ele>21.767</ele>
        <time>2013-04-14T12:46:33Z</time>
      </trkpt>
      <trkpt lat="59.9573438" lon="17.7883568">
        <ele>22.2476</ele>
        <time>2013-04-14T12:46:34Z</time>
      </trkpt>
      <trkpt lat="59.9573686" lon="17.7882508">
        <ele>22.2476</ele>
        <time>2013-04-14T12:46:35Z</time>
      </trkpt>
      <trkpt lat="59.9573875" lon="17.7881493">
        <ele>22.7283</ele>
        <time>2013-04-14T12:46:36Z</time>
      </trkpt>
      <trkpt lat="59.9574162" lon="17.7880483">
        <ele>22.2476</ele>
        <time>2013-04-14T12:46:37Z</time>
      </trkpt>
      <trkpt lat="59.9574469" lon="17.7879481">
        <ele>22.2476</ele>
        <time>2013-04-14T12:46:38Z</time>
      </trkpt>
      <trkpt lat="59.9574842" lon="17.7878456">
        <ele>22.2476</ele>
        <time>2013-04-14T12:46:39Z</time>
      </trkpt>
      <trkpt lat="59.9575143" lon="17.7877288">
        <ele>22.7283</ele>
        <time>2013-04-14T12:46:40Z</time>
      </trkpt>
      <trkpt lat="59.95755" lon="17.7876163">
        <ele>22.7283</ele>
        <time>2013-04-14T12:46:41Z</time>
      </trkpt>
      <trkpt lat="59.9575788" lon="17.7874957">
        <ele>23.209</ele>
        <time>2013-04-14T12:46:42Z</time>
      </trkpt>
      <trkpt lat="59.9576091" lon="17.7873827">
        <ele>22.7283</ele>
        <time>2013-04-14T12:46:43Z</time>
      </trkpt>
      <trkpt lat="59.9576358" lon="17.7872713">
        <ele>23.209</ele>
        <time>2013-04-14T12:46:44Z</time>
      </trkpt>
      <trkpt lat="59.9576574" lon="17.7871573">
        <ele>23.209</ele>
        <time>2013-04-14T12:46:45Z</time>
      </trkpt>
      <trkpt lat="59.9576784" lon="17.7870426">
        <ele>23.209</ele>
        <time>2013-04-14T12:46:46Z</time>
      </trkpt>
      <trkpt lat="59.9577016" lon="17.7869288">
        <ele>22.7283</ele>
        <time>2013-04-14T12:46:47Z</time>
      </trkpt>
      <trkpt lat="59.9577301" lon="17.7868168">
        <ele>22.7283</ele>
        <time>2013-04-14T12:46:48Z</time>
      </trkpt>
      <trkpt lat="59.957765" lon="17.7867073">
        <ele>22.2476</ele>
        <time>2013-04-14T12:46:49Z</time>
      </trkpt>
      <trkpt lat="59.9578088" lon="17.7866024">
        <ele>22.2476</ele>
        <time>2013-04-14T12:46:50Z</time>
      </trkpt>
      <trkpt lat="59.9578609" lon="17.7865086">
        <ele>22.2476</ele>
        <time>2013-04-14T12:46:51Z</time>
      </trkpt>
      <trkpt lat="59.9579183" lon="17.7864203">
        <ele>22.2476</ele>
        <time>2013-04-14T12:46:52Z</time>
      </trkpt>
      <trkpt lat="59.9579791" lon="17.7863394">
        <ele>22.2476</ele>
        <time>2013-04-14T12:46:53Z</time>
      </trkpt>
      <trkpt lat="59.9580424" lon="17.7862621">
        <ele>22.7283</ele>
        <time>2013-04-14T12:46:54Z</time>
      </trkpt>
      <trkpt lat="59.9581064" lon="17.7861869">
        <ele>22.7283</ele>
        <time>2013-04-14T12:46:55Z</time>
      </trkpt>
      <trkpt lat="59.9581706" lon="17.7861129">
        <ele>23.209</ele>
        <time>2013-04-14T12:46:56Z</time>
      </trkpt>
      <trkpt lat="59.9582347" lon="17.7860398">
        <ele>23.209</ele>
        <time>2013-04-14T12:46:57Z</time>
      </trkpt>
      <trkpt lat="59.9583011" lon="17.7859664">
        <ele>23.6896</ele>
        <time>2013-04-14T12:46:58Z</time>
      </trkpt>
      <trkpt lat="59.9583643" lon="17.7858912">
        <ele>24.1703</ele>
        <time>2013-04-14T12:46:59Z</time>
      </trkpt>
      <trkpt lat="59.9584285" lon="17.7858181">
        <ele>24.1703</ele>
        <time>2013-04-14T12:47:00Z</time>
      </trkpt>
      <trkpt lat="59.9584939" lon="17.7857484">
        <ele>24.651</ele>
        <time>2013-04-14T12:47:01Z</time>
      </trkpt>
      <trkpt lat="59.958557" lon="17.7856803">
        <ele>24.651</ele>
        <time>2013-04-14T12:47:02Z</time>
      </trkpt>
      <trkpt lat="59.9586186" lon="17.7856145">
        <ele>25.1317</ele>
        <time>2013-04-14T12:47:03Z</time>
      </trkpt>
      <trkpt lat="59.9586788" lon="17.7855513">
        <ele>25.1317</ele>
        <time>2013-04-14T12:47:04Z</time>
      </trkpt>
      <trkpt lat="59.9587399" lon="17.7854934">
        <ele>25.6123</ele>
        <time>2013-04-14T12:47:05Z</time>
      </trkpt>
      <trkpt lat="59.9588029" lon="17.7854387">
        <ele>26.0929</ele>
        <time>2013-04-14T12:47:06Z</time>
      </trkpt>
      <trkpt lat="59.9588659" lon="17.7853865">
        <ele>26.0929</ele>
        <time>2013-04-14T12:47:07Z</time>
      </trkpt>
      <trkpt lat="59.9589304" lon="17.7853377">
        <ele>26.0929</ele>
        <time>2013-04-14T12:47:08Z</time>
      </trkpt>
      <trkpt lat="59.9589964" lon="17.7852902">
        <ele>26.0929</ele>
        <time>2013-04-14T12:47:09Z</time>
      </trkpt>
      <trkpt lat="59.9590624" lon="17.7852422">
        <ele>26.0929</ele>
        <time>2013-04-14T12:47:10Z</time>
      </trkpt>
      <trkpt lat="59.959128" lon="17.7851918">
        <ele>26.0929</ele>
        <time>2013-04-14T12:47:11Z</time>
      </trkpt>
      <trkpt lat="59.9591916" lon="17.7851366">
        <ele>26.5736</ele>
        <time>2013-04-14T12:47:12Z</time>
      </trkpt>
      <trkpt lat="59.9592523" lon="17.7850775">
        <ele>26.5736</ele>
        <time>2013-04-14T12:47:13Z</time>
      </trkpt>
      <trkpt lat="59.9593102" lon="17.7850136">
        <ele>27.0543</ele>
        <time>2013-04-14T12:47:14Z</time>
      </trkpt>
      <trkpt lat="59.959366" lon="17.784945">
        <ele>27.0543</ele>
        <time>2013-04-14T12:47:15Z</time>
      </trkpt>
      <trkpt lat="59.9594188" lon="17.7848722">
        <ele>27.0543</ele>
        <time>2013-04-14T12:47:16Z</time>
      </trkpt>
      <trkpt lat="59.9594687" lon="17.7847941">
        <ele>27.5349</ele>
        <time>2013-04-14T12:47:17Z</time>
      </trkpt>
      <trkpt lat="59.959518" lon="17.7847149">
        <ele>27.5349</ele>
        <time>2013-04-14T12:47:18Z</time>
      </trkpt>
      <trkpt lat="59.9595677" lon="17.7846351">
        <ele>27.5349</ele>
        <time>2013-04-14T12:47:19Z</time>
      </trkpt>
      <trkpt lat="59.9596167" lon="17.7845555">
        <ele>27.5349</ele>
        <time>2013-04-14T12:47:20Z</time>
      </trkpt>
      <trkpt lat="59.9596659" lon="17.7844778">
        <ele>27.5349</ele>
        <time>2013-04-14T12:47:21Z</time>
      </trkpt>
      <trkpt lat="59.9597138" lon="17.7844013">
        <ele>27.0543</ele>
        <time>2013-04-14T12:47:22Z</time>
      </trkpt>
      <trkpt lat="59.9597588" lon="17.7843231">
        <ele>27.0543</ele>
        <time>2013-04-14T12:47:23Z</time>
      </trkpt>
      <trkpt lat="59.959803" lon="17.7842457">
        <ele>27.0543</ele>
        <time>2013-04-14T12:47:24Z</time>
      </trkpt>
      <trkpt lat="59.9598474" lon="17.7841699">
        <ele>27.0543</ele>
        <time>2013-04-14T12:47:25Z</time>
      </trkpt>
      <trkpt lat="59.959889" lon="17.7840884">
        <ele>26.5736</ele>
        <time>2013-04-14T12:47:26Z</time>
      </trkpt>
      <trkpt lat="59.9599288" lon="17.7840016">
        <ele>26.5736</ele>
        <time>2013-04-14T12:47:27Z</time>
      </trkpt>
      <trkpt lat="59.9599674" lon="17.7839125">
        <ele>26.5736</ele>
        <time>2013-04-14T12:47:28Z</time>
      </trkpt>
      <trkpt lat="59.9600047" lon="17.7838216">
        <ele>26.5736</ele>
        <time>2013-04-14T12:47:29Z</time>
      </trkpt>
      <trkpt lat="59.9600421" lon="17.7837307">
        <ele>26.5736</ele>
        <time>2013-04-14T12:47:30Z</time>
      </trkpt>
      <trkpt lat="59.9600789" lon="17.7836411">
        <ele>26.0929</ele>
        <time>2013-04-14T12:47:31Z</time>
      </trkpt>
      <trkpt lat="59.9601138" lon="17.7835484">
        <ele>25.6123</ele>
        <time>2013-04-14T12:47:32Z</time>
      </trkpt>
      <trkpt lat="59.9601474" lon="17.7834541">
        <ele>25.1317</ele>
        <time>2013-04-14T12:47:33Z</time>
      </trkpt>
      <trkpt lat="59.9601799" lon="17.7833597">
        <ele>25.1317</ele>
        <time>2013-04-14T12:47:34Z</time>
      </trkpt>
      <trkpt lat="59.9602129" lon="17.7832669">
        <ele>24.651</ele>
        <time>2013-04-14T12:47:35Z</time>
      </trkpt>
      <trkpt lat="59.9602453" lon="17.7831726">
        <ele>24.651</ele>
        <time>2013-04-14T12:47:36Z</time>
      </trkpt>
      <trkpt lat="59.9602758" lon="17.783078">
        <ele>24.651</ele>
        <time>2013-04-14T12:47:37Z</time>
      </trkpt>
      <trkpt lat="59.9603047" lon="17.7829791">
        <ele>24.651</ele>
        <time>2013-04-14T12:47:38Z</time>
      </trkpt>
      <trkpt lat="59.9603336" lon="17.7828792">
        <ele>25.1317</ele>
        <time>2013-04-14T12:47:39Z</time>
      </trkpt>
      <trkpt lat="59.9603633" lon="17.7827791">
        <ele>25.6123</ele>
        <time>2013-04-14T12:47:40Z</time>
      </trkpt>
      <trkpt lat="59.9603942" lon="17.7826786">
        <ele>25.6123</ele>
        <time>2013-04-14T12:47:41Z</time>
      </trkpt>
      <trkpt lat="59.9604254" lon="17.7825766">
        <ele>25.6123</ele>
        <time>2013-04-14T12:47:42Z</time>
      </trkpt>
      <trkpt lat="59.9604555" lon="17.7824694">
        <ele>25.6123</ele>
        <time>2013-04-14T12:47:43Z</time>
      </trkpt>
      <trkpt lat="59.9604854" lon="17.782359">
        <ele>25.6123</ele>
        <time>2013-04-14T12:47:44Z</time>
      </trkpt>
      <trkpt lat="59.9605167" lon="17.782248">
        <ele>25.6123</ele>
        <time>2013-04-14T12:47:45Z</time>
      </trkpt>
      <trkpt lat="59.9605458" lon="17.7821296">
        <ele>25.6123</ele>
        <time>2013-04-14T12:47:46Z</time>
      </trkpt>
      <trkpt lat="59.9605891" lon="17.7820242">
        <ele>25.1317</ele>
        <time>2013-04-14T12:47:47Z</time>
      </trkpt>
      <trkpt lat="59.9606363" lon="17.7819255">
        <ele>25.1317</ele>
        <time>2013-04-14T12:47:48Z</time>
      </trkpt>
      <trkpt lat="59.9606869" lon="17.7818228">
        <ele>24.651</ele>
        <time>2013-04-14T12:47:49Z</time>
      </trkpt>
      <trkpt lat="59.9607415" lon="17.7817256">
        <ele>24.1703</ele>
        <time>2013-04-14T12:47:50Z</time>
      </trkpt>
      <trkpt lat="59.9607985" lon="17.7816343">
        <ele>24.1703</ele>
        <time>2013-04-14T12:47:51Z</time>
      </trkpt>
      <trkpt lat="59.9608544" lon="17.7815412">
        <ele>24.1703</ele>
        <time>2013-04-14T12:47:52Z</time>
      </trkpt>
      <trkpt lat="59.9609079" lon="17.7814467">
        <ele>23.6896</ele>
        <time>2013-04-14T12:47:53Z</time>
      </trkpt>
      <trkpt lat="59.9609597" lon="17.781353">
        <ele>23.6896</ele>
        <time>2013-04-14T12:47:54Z</time>
      </trkpt>
      <trkpt lat="59.9610115" lon="17.781256">
        <ele>24.1703</ele>
        <time>2013-04-14T12:47:55Z</time>
      </trkpt>
      <trkpt lat="59.9610636" lon="17.7811625">
        <ele>24.1703</ele>
        <time>2013-04-14T12:47:56Z</time>
      </trkpt>
      <trkpt lat="59.961114" lon="17.7810686">
        <ele>24.1703</ele>
        <time>2013-04-14T12:47:57Z</time>
      </trkpt>
      <trkpt lat="59.9611636" lon="17.7809738">
        <ele>23.6896</ele>
        <time>2013-04-14T12:47:58Z</time>
      </trkpt>
      <trkpt lat="59.9612133" lon="17.7808799">
        <ele>23.6896</ele>
        <time>2013-04-14T12:47:59Z</time>
      </trkpt>
      <trkpt lat="59.9612642" lon="17.7807873">
        <ele>23.6896</ele>
        <time>2013-04-14T12:48:00Z</time>
      </trkpt>
      <trkpt lat="59.9613154" lon="17.7806954">
        <ele>23.6896</ele>
        <time>2013-04-14T12:48:01Z</time>
      </trkpt>
      <trkpt lat="59.9613653" lon="17.7806059">
        <ele>23.6896</ele>
        <time>2013-04-14T12:48:02Z</time>
      </trkpt>
      <trkpt lat="59.9614154" lon="17.7805127">
        <ele>23.6896</ele>
        <time>2013-04-14T12:48:03Z</time>
      </trkpt>
      <trkpt lat="59.9614657" lon="17.780419">
        <ele>23.6896</ele>
        <time>2013-04-14T12:48:04Z</time>
      </trkpt>
      <trkpt lat="59.9615153" lon="17.7803244">
        <ele>24.1703</ele>
        <time>2013-04-14T12:48:05Z</time>
      </trkpt>
      <trkpt lat="59.9615636" lon="17.7802279">
        <ele>24.1703</ele>
        <time>2013-04-14T12:48:06Z</time>
      </trkpt>
      <trkpt lat="59.9616111" lon="17.7801285">
        <ele>24.1703</ele>
        <time>2013-04-14T12:48:07Z</time>
      </trkpt>
      <trkpt lat="59.9616562" lon="17.7800279">
        <ele>23.6896</ele>
        <time>2013-04-14T12:48:08Z</time>
      </trkpt>
      <trkpt lat="59.9617019" lon="17.7799263">
        <ele>24.1703</ele>
        <time>2013-04-14T12:48:09Z</time>
      </trkpt>
      <trkpt lat="59.9617464" lon="17.7798244">
        <ele>24.1703</ele>
        <time>2013-04-14T12:48:10Z</time>
      </trkpt>
      <trkpt lat="59.9617895" lon="17.7797231">
        <ele>24.1703</ele>
        <time>2013-04-14T12:48:11Z</time>
      </trkpt>
      <trkpt lat="59.9618332" lon="17.779624">
        <ele>23.6896</ele>
        <time>2013-04-14T12:48:12Z</time>
      </trkpt>
      <trkpt lat="59.9618781" lon="17.7795275">
        <ele>23.6896</ele>
        <time>2013-04-14T12:48:13Z</time>
      </trkpt>
      <trkpt lat="59.9619239" lon="17.7794322">
        <ele>23.6896</ele>
        <time>2013-04-14T12:48:14Z</time>
      </trkpt>
      <trkpt lat="59.9619696" lon="17.7793365">
        <ele>23.6896</ele>
        <time>2013-04-14T12:48:15Z</time>
      </trkpt>
      <trkpt lat="59.9620149" lon="17.7792404">
        <ele>23.6896</ele>
        <time>2013-04-14T12:48:16Z</time>
      </trkpt>
      <trkpt lat="59.9620598" lon="17.7791427">
        <ele>23.6896</ele>
        <time>2013-04-14T12:48:17Z</time>
      </trkpt>
      <trkpt lat="59.9621036" lon="17.7790431">
        <ele>23.6896</ele>
        <time>2013-04-14T12:48:18Z</time>
      </trkpt>
      <trkpt lat="59.9621469" lon="17.7789417">
        <ele>23.6896</ele>
        <time>2013-04-14T12:48:19Z</time>
      </trkpt>
      <trkpt lat="59.9621909" lon="17.7788396">
        <ele>23.6896</ele>
        <time>2013-04-14T12:48:20Z</time>
      </trkpt>
      <trkpt lat="59.9622354" lon="17.7787371">
        <ele>23.209</ele>
        <time>2013-04-14T12:48:21Z</time>
      </trkpt>
      <trkpt lat="59.9622803" lon="17.7786348">
        <ele>23.209</ele>
        <time>2013-04-14T12:48:22Z</time>
      </trkpt>
      <trkpt lat="59.9623243" lon="17.7785319">
        <ele>23.209</ele>
        <time>2013-04-14T12:48:23Z</time>
      </trkpt>
      <trkpt lat="59.9623663" lon="17.7784281">
        <ele>23.209</ele>
        <time>2013-04-14T12:48:24Z</time>
      </trkpt>
      <trkpt lat="59.9624079" lon="17.7783278">
        <ele>23.209</ele>
        <time>2013-04-14T12:48:25Z</time>
      </trkpt>
      <trkpt lat="59.9624499" lon="17.7782313">
        <ele>23.6896</ele>
        <time>2013-04-14T12:48:26Z</time>
      </trkpt>
      <trkpt lat="59.9624906" lon="17.7781356">
        <ele>23.6896</ele>
        <time>2013-04-14T12:48:27Z</time>
      </trkpt>
      <trkpt lat="59.9625301" lon="17.7780461">
        <ele>23.6896</ele>
        <time>2013-04-14T12:48:28Z</time>
      </trkpt>
      <trkpt lat="59.9625709" lon="17.7779612">
        <ele>23.6896</ele>
        <time>2013-04-14T12:48:29Z</time>
      </trkpt>
      <trkpt lat="59.962612" lon="17.7778771">
        <ele>23.6896</ele>
        <time>2013-04-14T12:48:30Z</time>
      </trkpt>
      <trkpt lat="59.9626514" lon="17.7777927">
        <ele>23.6896</ele>
        <time>2013-04-14T12:48:31Z</time>
      </trkpt>
      <trkpt lat="59.9626916" lon="17.7777104">
        <ele>23.6896</ele>
        <time>2013-04-14T12:48:32Z</time>
      </trkpt>
      <trkpt lat="59.962732" lon="17.77763">
        <ele>23.6896</ele>
        <time>2013-04-14T12:48:33Z</time>
      </trkpt>
      <trkpt lat="59.9627716" lon="17.7775488">
        <ele>23.6896</ele>
        <time>2013-04-14T12:48:34Z</time>
      </trkpt>
      <trkpt lat="59.9628092" lon="17.7774679">
        <ele>23.6896</ele>
        <time>2013-04-14T12:48:35Z</time>
      </trkpt>
      <trkpt lat="59.9628467" lon="17.7773861">
        <ele>23.6896</ele>
        <time>2013-04-14T12:48:36Z</time>
      </trkpt>
      <trkpt lat="59.9628845" lon="17.7773038">
        <ele>23.6896</ele>
        <time>2013-04-14T12:48:37Z</time>
      </trkpt>
      <trkpt lat="59.9629224" lon="17.7772201">
        <ele>23.6896</ele>
        <time>2013-04-14T12:48:38Z</time>
      </trkpt>
      <trkpt lat="59.9629597" lon="17.7771334">
        <ele>23.6896</ele>
        <time>2013-04-14T12:48:39Z</time>
      </trkpt>
      <trkpt lat="59.9629963" lon="17.7770436">
        <ele>23.6896</ele>
        <time>2013-04-14T12:48:40Z</time>
      </trkpt>
      <trkpt lat="59.9630312" lon="17.7769525">
        <ele>23.6896</ele>
        <time>2013-04-14T12:48:41Z</time>
      </trkpt>
      <trkpt lat="59.9630635" lon="17.7768603">
        <ele>24.1703</ele>
        <time>2013-04-14T12:48:42Z</time>
      </trkpt>
      <trkpt lat="59.963093" lon="17.7767679">
        <ele>24.1703</ele>
        <time>2013-04-14T12:48:43Z</time>
      </trkpt>
      <trkpt lat="59.9631212" lon="17.776677">
        <ele>24.1703</ele>
        <time>2013-04-14T12:48:44Z</time>
      </trkpt>
      <trkpt lat="59.9631488" lon="17.7765871">
        <ele>24.651</ele>
        <time>2013-04-14T12:48:45Z</time>
      </trkpt>
      <trkpt lat="59.9631754" lon="17.7764963">
        <ele>24.651</ele>
        <time>2013-04-14T12:48:46Z</time>
      </trkpt>
      <trkpt lat="59.9632015" lon="17.7764064">
        <ele>24.651</ele>
        <time>2013-04-14T12:48:47Z</time>
      </trkpt>
      <trkpt lat="59.9632283" lon="17.7763173">
        <ele>25.1317</ele>
        <time>2013-04-14T12:48:48Z</time>
      </trkpt>
      <trkpt lat="59.9632562" lon="17.7762272">
        <ele>25.1317</ele>
        <time>2013-04-14T12:48:49Z</time>
      </trkpt>
      <trkpt lat="59.9632844" lon="17.7761359">
        <ele>25.1317</ele>
        <time>2013-04-14T12:48:50Z</time>
      </trkpt>
      <trkpt lat="59.9633124" lon="17.7760428">
        <ele>25.1317</ele>
        <time>2013-04-14T12:48:51Z</time>
      </trkpt>
      <trkpt lat="59.9633404" lon="17.7759491">
        <ele>25.1317</ele>
        <time>2013-04-14T12:48:52Z</time>
      </trkpt>
      <trkpt lat="59.9633704" lon="17.7758527">
        <ele>25.1317</ele>
        <time>2013-04-14T12:48:53Z</time>
      </trkpt>
      <trkpt lat="59.963402" lon="17.7757536">
        <ele>25.1317</ele>
        <time>2013-04-14T12:48:54Z</time>
      </trkpt>
      <trkpt lat="59.9634342" lon="17.7756516">
        <ele>24.651</ele>
        <time>2013-04-14T12:48:55Z</time>
      </trkpt>
      <trkpt lat="59.9634668" lon="17.7755464">
        <ele>24.651</ele>
        <time>2013-04-14T12:48:56Z</time>
      </trkpt>
      <trkpt lat="59.9635004" lon="17.7754397">
        <ele>24.651</ele>
        <time>2013-04-14T12:48:57Z</time>
      </trkpt>
      <trkpt lat="59.9635349" lon="17.7753315">
        <ele>24.651</ele>
        <time>2013-04-14T12:48:58Z</time>
      </trkpt>
      <trkpt lat="59.9635681" lon="17.7752201">
        <ele>24.651</ele>
        <time>2013-04-14T12:48:59Z</time>
      </trkpt>
      <trkpt lat="59.9635983" lon="17.7751052">
        <ele>24.651</ele>
        <time>2013-04-14T12:49:00Z</time>
      </trkpt>
      <trkpt lat="59.9636261" lon="17.7749878">
        <ele>24.651</ele>
        <time>2013-04-14T12:49:01Z</time>
      </trkpt>
      <trkpt lat="59.9636517" lon="17.7748686">
        <ele>24.651</ele>
        <time>2013-04-14T12:49:02Z</time>
      </trkpt>
      <trkpt lat="59.963675" lon="17.7747485">
        <ele>24.651</ele>
        <time>2013-04-14T12:49:03Z</time>
      </trkpt>
      <trkpt lat="59.9636958" lon="17.7746285">
        <ele>24.651</ele>
        <time>2013-04-14T12:49:04Z</time>
      </trkpt>
      <trkpt lat="59.9637153" lon="17.7745091">
        <ele>25.1317</ele>
        <time>2013-04-14T12:49:05Z</time>
      </trkpt>
      <trkpt lat="59.9637352" lon="17.7743921">
        <ele>25.1317</ele>
        <time>2013-04-14T12:49:06Z</time>
      </trkpt>
      <trkpt lat="59.9637554" lon="17.7742765">
        <ele>25.1317</ele>
        <time>2013-04-14T12:49:07Z</time>
      </trkpt>
      <trkpt lat="59.9637756" lon="17.7741624">
        <ele>24.651</ele>
        <time>2013-04-14T12:49:08Z</time>
      </trkpt>
      <trkpt lat="59.9637982" lon="17.7740452">
        <ele>24.651</ele>
        <time>2013-04-14T12:49:09Z</time>
      </trkpt>
      <trkpt lat="59.963822" lon="17.7739232">
        <ele>24.651</ele>
        <time>2013-04-14T12:49:10Z</time>
      </trkpt>
      <trkpt lat="59.9638439" lon="17.7737969">
        <ele>25.1317</ele>
        <time>2013-04-14T12:49:11Z</time>
      </trkpt>
      <trkpt lat="59.9638659" lon="17.7736693">
        <ele>24.651</ele>
        <time>2013-04-14T12:49:12Z</time>
      </trkpt>
      <trkpt lat="59.9638875" lon="17.7735409">
        <ele>24.651</ele>
        <time>2013-04-14T12:49:13Z</time>
      </trkpt>
      <trkpt lat="59.9639074" lon="17.7734122">
        <ele>24.651</ele>
        <time>2013-04-14T12:49:14Z</time>
      </trkpt>
      <trkpt lat="59.9639247" lon="17.7732854">
        <ele>24.651</ele>
        <time>2013-04-14T12:49:15Z</time>
      </trkpt>
      <trkpt lat="59.96394" lon="17.7731617">
        <ele>24.651</ele>
        <time>2013-04-14T12:49:16Z</time>
      </trkpt>
      <trkpt lat="59.9639516" lon="17.773041">
        <ele>24.651</ele>
        <time>2013-04-14T12:49:17Z</time>
      </trkpt>
      <trkpt lat="59.9639568" lon="17.7729194">
        <ele>24.1703</ele>
        <time>2013-04-14T12:49:18Z</time>
      </trkpt>
      <trkpt lat="59.9639542" lon="17.7727968">
        <ele>24.1703</ele>
        <time>2013-04-14T12:49:19Z</time>
      </trkpt>
      <trkpt lat="59.9639439" lon="17.7726701">
        <ele>24.1703</ele>
        <time>2013-04-14T12:49:20Z</time>
      </trkpt>
      <trkpt lat="59.9639296" lon="17.7725433">
        <ele>24.1703</ele>
        <time>2013-04-14T12:49:21Z</time>
      </trkpt>
      <trkpt lat="59.9639117" lon="17.7724168">
        <ele>24.651</ele>
        <time>2013-04-14T12:49:22Z</time>
      </trkpt>
      <trkpt lat="59.9638925" lon="17.7722961">
        <ele>24.651</ele>
        <time>2013-04-14T12:49:23Z</time>
      </trkpt>
      <trkpt lat="59.9638718" lon="17.7721823">
        <ele>24.1703</ele>
        <time>2013-04-14T12:49:24Z</time>
      </trkpt>
      <trkpt lat="59.9638491" lon="17.7720742">
        <ele>24.1703</ele>
        <time>2013-04-14T12:49:25Z</time>
      </trkpt>
      <trkpt lat="59.9638261" lon="17.7719698">
        <ele>24.651</ele>
        <time>2013-04-14T12:49:26Z</time>
      </trkpt>
      <trkpt lat="59.9638033" lon="17.7718719">
        <ele>24.651</ele>
        <time>2013-04-14T12:49:27Z</time>
      </trkpt>
      <trkpt lat="59.9637777" lon="17.7717839">
        <ele>24.651</ele>
        <time>2013-04-14T12:49:28Z</time>
      </trkpt>
      <trkpt lat="59.963751" lon="17.7717035">
        <ele>25.1317</ele>
        <time>2013-04-14T12:49:29Z</time>
      </trkpt>
      <trkpt lat="59.9637289" lon="17.7716264">
        <ele>25.1317</ele>
        <time>2013-04-14T12:49:30Z</time>
      </trkpt>
      <trkpt lat="59.9637131" lon="17.7715505">
        <ele>25.1317</ele>
        <time>2013-04-14T12:49:31Z</time>
      </trkpt>
      <trkpt lat="59.9636991" lon="17.7714735">
        <ele>25.1317</ele>
        <time>2013-04-14T12:49:32Z</time>
      </trkpt>
      <trkpt lat="59.9636844" lon="17.7713958">
        <ele>25.1317</ele>
        <time>2013-04-14T12:49:33Z</time>
      </trkpt>
      <trkpt lat="59.9636675" lon="17.7713159">
        <ele>25.6123</ele>
        <time>2013-04-14T12:49:34Z</time>
      </trkpt>
      <trkpt lat="59.9636509" lon="17.7712373">
        <ele>25.6123</ele>
        <time>2013-04-14T12:49:35Z</time>
      </trkpt>
      <trkpt lat="59.963634" lon="17.7711544">
        <ele>25.6123</ele>
        <time>2013-04-14T12:49:36Z</time>
      </trkpt>
      <trkpt lat="59.9636142" lon="17.7710674">
        <ele>26.0929</ele>
        <time>2013-04-14T12:49:37Z</time>
      </trkpt>
      <trkpt lat="59.9635934" lon="17.7709766">
        <ele>26.5736</ele>
        <time>2013-04-14T12:49:38Z</time>
      </trkpt>
      <trkpt lat="59.9635735" lon="17.7708823">
        <ele>26.5736</ele>
        <time>2013-04-14T12:49:39Z</time>
      </trkpt>
      <trkpt lat="59.9635564" lon="17.7707903">
        <ele>27.0543</ele>
        <time>2013-04-14T12:49:40Z</time>
      </trkpt>
      <trkpt lat="59.9635427" lon="17.7706995">
        <ele>27.5349</ele>
        <time>2013-04-14T12:49:41Z</time>
      </trkpt>
      <trkpt lat="59.9635292" lon="17.7706059">
        <ele>28.0155</ele>
        <time>2013-04-14T12:49:42Z</time>
      </trkpt>
      <trkpt lat="59.9635185" lon="17.7705183">
        <ele>28.0155</ele>
        <time>2013-04-14T12:49:43Z</time>
      </trkpt>
      <trkpt lat="59.9635134" lon="17.7704332">
        <ele>28.0155</ele>
        <time>2013-04-14T12:49:44Z</time>
      </trkpt>
      <trkpt lat="59.9635088" lon="17.7703469">
        <ele>28.0155</ele>
        <time>2013-04-14T12:49:45Z</time>
      </trkpt>
      <trkpt lat="59.9635051" lon="17.7702586">
        <ele>28.4962</ele>
        <time>2013-04-14T12:49:46Z</time>
      </trkpt>
      <trkpt lat="59.9635013" lon="17.7701672">
        <ele>28.4962</ele>
        <time>2013-04-14T12:49:47Z</time>
      </trkpt>
      <trkpt lat="59.9635004" lon="17.7700747">
        <ele>28.4962</ele>
        <time>2013-04-14T12:49:48Z</time>
      </trkpt>
      <trkpt lat="59.9635" lon="17.7699858">
        <ele>28.4962</ele>
        <time>2013-04-14T12:49:49Z</time>
      </trkpt>
      <trkpt lat="59.9634983" lon="17.7698997">
        <ele>28.4962</ele>
        <time>2013-04-14T12:49:50Z</time>
      </trkpt>
      <trkpt lat="59.9634986" lon="17.7698154">
        <ele>28.9769</ele>
        <time>2013-04-14T12:49:51Z</time>
      </trkpt>
      <trkpt lat="59.963502" lon="17.7697297">
        <ele>28.9769</ele>
        <time>2013-04-14T12:49:52Z</time>
      </trkpt>
      <trkpt lat="59.9635114" lon="17.7696548">
        <ele>28.9769</ele>
        <time>2013-04-14T12:49:53Z</time>
      </trkpt>
      <trkpt lat="59.9635202" lon="17.7695709">
        <ele>28.9769</ele>
        <time>2013-04-14T12:49:54Z</time>
      </trkpt>
      <trkpt lat="59.9635372" lon="17.7694998">
        <ele>28.4962</ele>
        <time>2013-04-14T12:49:55Z</time>
      </trkpt>
      <trkpt lat="59.9635573" lon="17.769427">
        <ele>28.4962</ele>
        <time>2013-04-14T12:49:56Z</time>
      </trkpt>
      <trkpt lat="59.96358" lon="17.7693515">
        <ele>28.4962</ele>
        <time>2013-04-14T12:49:57Z</time>
      </trkpt>
      <trkpt lat="59.9636029" lon="17.7692765">
        <ele>28.0155</ele>
        <time>2013-04-14T12:49:58Z</time>
      </trkpt>
      <trkpt lat="59.9636283" lon="17.7691975">
        <ele>28.0155</ele>
        <time>2013-04-14T12:49:59Z</time>
      </trkpt>
      <trkpt lat="59.9636527" lon="17.7691109">
        <ele>28.0155</ele>
        <time>2013-04-14T12:50:00Z</time>
      </trkpt>
      <trkpt lat="59.9636765" lon="17.7690176">
        <ele>28.0155</ele>
        <time>2013-04-14T12:50:01Z</time>
      </trkpt>
      <trkpt lat="59.9637018" lon="17.7689224">
        <ele>28.0155</ele>
        <time>2013-04-14T12:50:02Z</time>
      </trkpt>
      <trkpt lat="59.9637273" lon="17.7688258">
        <ele>28.0155</ele>
        <time>2013-04-14T12:50:03Z</time>
      </trkpt>
      <trkpt lat="59.9637522" lon="17.7687281">
        <ele>28.4962</ele>
        <time>2013-04-14T12:50:04Z</time>
      </trkpt>
      <trkpt lat="59.9637785" lon="17.7686307">
        <ele>28.4962</ele>
        <time>2013-04-14T12:50:05Z</time>
      </trkpt>
      <trkpt lat="59.9638065" lon="17.7685313">
        <ele>28.4962</ele>
        <time>2013-04-14T12:50:06Z</time>
      </trkpt>
      <trkpt lat="59.963834" lon="17.7684332">
        <ele>28.9769</ele>
        <time>2013-04-14T12:50:07Z</time>
      </trkpt>
      <trkpt lat="59.9638605" lon="17.7683375">
        <ele>28.9769</ele>
        <time>2013-04-14T12:50:08Z</time>
      </trkpt>
      <trkpt lat="59.963884" lon="17.7682411">
        <ele>29.4575</ele>
        <time>2013-04-14T12:50:09Z</time>
      </trkpt>
      <trkpt lat="59.9639081" lon="17.7681499">
        <ele>29.4575</ele>
        <time>2013-04-14T12:50:10Z</time>
      </trkpt>
      <trkpt lat="59.9639302" lon="17.7680658">
        <ele>29.4575</ele>
        <time>2013-04-14T12:50:11Z</time>
      </trkpt>
      <trkpt lat="59.9639511" lon="17.7679804">
        <ele>29.4575</ele>
        <time>2013-04-14T12:50:12Z</time>
      </trkpt>
      <trkpt lat="59.9639711" lon="17.7678894">
        <ele>29.4575</ele>
        <time>2013-04-14T12:50:13Z</time>
      </trkpt>
      <trkpt lat="59.9639889" lon="17.7677966">
        <ele>29.4575</ele>
        <time>2013-04-14T12:50:14Z</time>
      </trkpt>
      <trkpt lat="59.9640082" lon="17.7677019">
        <ele>29.9381</ele>
        <time>2013-04-14T12:50:15Z</time>
      </trkpt>
      <trkpt lat="59.9640303" lon="17.7676091">
        <ele>29.4575</ele>
        <time>2013-04-14T12:50:16Z</time>
      </trkpt>
      <trkpt lat="59.9640505" lon="17.7675164">
        <ele>29.4575</ele>
        <time>2013-04-14T12:50:17Z</time>
      </trkpt>
      <trkpt lat="59.9640685" lon="17.7674199">
        <ele>28.9769</ele>
        <time>2013-04-14T12:50:18Z</time>
      </trkpt>
      <trkpt lat="59.9640847" lon="17.7673191">
        <ele>28.4962</ele>
        <time>2013-04-14T12:50:19Z</time>
      </trkpt>
      <trkpt lat="59.9641002" lon="17.7672181">
        <ele>28.0155</ele>
        <time>2013-04-14T12:50:20Z</time>
      </trkpt>
      <trkpt lat="59.9641141" lon="17.7671166">
        <ele>27.0543</ele>
        <time>2013-04-14T12:50:21Z</time>
      </trkpt>
      <trkpt lat="59.9641252" lon="17.7670165">
        <ele>26.5736</ele>
        <time>2013-04-14T12:50:22Z</time>
      </trkpt>
      <trkpt lat="59.9641328" lon="17.766887">
        <ele>26.0929</ele>
        <time>2013-04-14T12:50:23Z</time>
      </trkpt>
      <trkpt lat="59.9641464" lon="17.7667726">
        <ele>25.1317</ele>
        <time>2013-04-14T12:50:24Z</time>
      </trkpt>
      <trkpt lat="59.9641498" lon="17.7666643">
        <ele>25.1317</ele>
        <time>2013-04-14T12:50:25Z</time>
      </trkpt>
      <trkpt lat="59.9641354" lon="17.7665396">
        <ele>25.1317</ele>
        <time>2013-04-14T12:50:26Z</time>
      </trkpt>
      <trkpt lat="59.9641275" lon="17.766421">
        <ele>25.1317</ele>
        <time>2013-04-14T12:50:27Z</time>
      </trkpt>
      <trkpt lat="59.9641216" lon="17.7663015">
        <ele>24.651</ele>
        <time>2013-04-14T12:50:28Z</time>
      </trkpt>
      <trkpt lat="59.9641317" lon="17.7661997">
        <ele>24.1703</ele>
        <time>2013-04-14T12:50:29Z</time>
      </trkpt>
      <trkpt lat="59.964132" lon="17.7660948">
        <ele>23.209</ele>
        <time>2013-04-14T12:50:30Z</time>
      </trkpt>
      <trkpt lat="59.9641415" lon="17.7659857">
        <ele>22.2476</ele>
        <time>2013-04-14T12:50:31Z</time>
      </trkpt>
      <trkpt lat="59.9641526" lon="17.7658656">
        <ele>21.2864</ele>
        <time>2013-04-14T12:50:32Z</time>
      </trkpt>
      <trkpt lat="59.9641578" lon="17.7657359">
        <ele>19.8444</ele>
        <time>2013-04-14T12:50:33Z</time>
      </trkpt>
      <trkpt lat="59.9641583" lon="17.7655584">
        <ele>19.3638</ele>
        <time>2013-04-14T12:50:34Z</time>
      </trkpt>
      <trkpt lat="59.9641693" lon="17.7653688">
        <ele>18.4023</ele>
        <time>2013-04-14T12:50:35Z</time>
      </trkpt>
      <trkpt lat="59.9641847" lon="17.7652237">
        <ele>16.9604</ele>
        <time>2013-04-14T12:50:36Z</time>
      </trkpt>
      <trkpt lat="59.9642137" lon="17.7650854">
        <ele>16.4797</ele>
        <time>2013-04-14T12:50:37Z</time>
      </trkpt>
      <trkpt lat="59.9642373" lon="17.7649517">
        <ele>15.5184</ele>
        <time>2013-04-14T12:50:38Z</time>
      </trkpt>
      <trkpt lat="59.964265" lon="17.7648166">
        <ele>15.5184</ele>
        <time>2013-04-14T12:50:39Z</time>
      </trkpt>
      <trkpt lat="59.964295" lon="17.7646689">
        <ele>15.0377</ele>
        <time>2013-04-14T12:50:40Z</time>
      </trkpt>
      <trkpt lat="59.9643356" lon="17.7645375">
        <ele>14.557</ele>
        <time>2013-04-14T12:50:41Z</time>
      </trkpt>
      <trkpt lat="59.9643764" lon="17.7644068">
        <ele>14.0764</ele>
        <time>2013-04-14T12:50:42Z</time>
      </trkpt>
      <trkpt lat="59.9644169" lon="17.7642807">
        <ele>13.1151</ele>
        <time>2013-04-14T12:50:43Z</time>
      </trkpt>
      <trkpt lat="59.9644464" lon="17.7641547">
        <ele>12.6344</ele>
        <time>2013-04-14T12:50:44Z</time>
      </trkpt>
      <trkpt lat="59.9644801" lon="17.7640321">
        <ele>11.6732</ele>
        <time>2013-04-14T12:50:45Z</time>
      </trkpt>
      <trkpt lat="59.9645146" lon="17.7639131">
        <ele>10.7118</ele>
        <time>2013-04-14T12:50:46Z</time>
      </trkpt>
      <trkpt lat="59.9645479" lon="17.7637985">
        <ele>9.75061</ele>
        <time>2013-04-14T12:50:47Z</time>
      </trkpt>
      <trkpt lat="59.964579" lon="17.7636821">
        <ele>9.2699</ele>
        <time>2013-04-14T12:50:48Z</time>
      </trkpt>
      <trkpt lat="59.9646094" lon="17.7635647">
        <ele>8.78918</ele>
        <time>2013-04-14T12:50:49Z</time>
      </trkpt>
      <trkpt lat="59.9646424" lon="17.7634557">
        <ele>7.82788</ele>
        <time>2013-04-14T12:50:50Z</time>
      </trkpt>
      <trkpt lat="59.9646758" lon="17.7633523">
        <ele>7.34717</ele>
        <time>2013-04-14T12:50:51Z</time>
      </trkpt>
      <trkpt lat="59.9647039" lon="17.7632439">
        <ele>7.34717</ele>
        <time>2013-04-14T12:50:52Z</time>
      </trkpt>
      <trkpt lat="59.9647317" lon="17.763138">
        <ele>7.34717</ele>
        <time>2013-04-14T12:50:53Z</time>
      </trkpt>
      <trkpt lat="59.9647606" lon="17.7630386">
        <ele>6.86646</ele>
        <time>2013-04-14T12:50:54Z</time>
      </trkpt>
      <trkpt lat="59.9647916" lon="17.7629443">
        <ele>6.38586</ele>
        <time>2013-04-14T12:50:55Z</time>
      </trkpt>
      <trkpt lat="59.9648256" lon="17.7628541">
        <ele>5.90527</ele>
        <time>2013-04-14T12:50:56Z</time>
      </trkpt>
      <trkpt lat="59.9648572" lon="17.7627611">
        <ele>5.90527</ele>
        <time>2013-04-14T12:50:57Z</time>
      </trkpt>
      <trkpt lat="59.9648881" lon="17.7626628">
        <ele>6.38586</ele>
        <time>2013-04-14T12:50:58Z</time>
      </trkpt>
      <trkpt lat="59.9649221" lon="17.76256">
        <ele>6.86646</ele>
        <time>2013-04-14T12:50:59Z</time>
      </trkpt>
      <trkpt lat="59.964956" lon="17.7624617">
        <ele>7.34717</ele>
        <time>2013-04-14T12:51:00Z</time>
      </trkpt>
      <trkpt lat="59.9649895" lon="17.7623669">
        <ele>7.82788</ele>
        <time>2013-04-14T12:51:01Z</time>
      </trkpt>
      <trkpt lat="59.9650208" lon="17.7622782">
        <ele>7.82788</ele>
        <time>2013-04-14T12:51:02Z</time>
      </trkpt>
      <trkpt lat="59.9650489" lon="17.7621959">
        <ele>7.82788</ele>
        <time>2013-04-14T12:51:03Z</time>
      </trkpt>
      <trkpt lat="59.9650747" lon="17.7621057">
        <ele>8.78918</ele>
        <time>2013-04-14T12:51:04Z</time>
      </trkpt>
      <trkpt lat="59.9651353" lon="17.761556">
        <ele>26.0929</ele>
        <time>2013-04-14T12:52:08Z</time>
      </trkpt>
      <trkpt lat="59.9651476" lon="17.7615246">
        <ele>25.6123</ele>
        <time>2013-04-14T12:52:09Z</time>
      </trkpt>
      <trkpt lat="59.9651662" lon="17.761493">
        <ele>25.6123</ele>
        <time>2013-04-14T12:52:10Z</time>
      </trkpt>
      <trkpt lat="59.9651839" lon="17.7614535">
        <ele>25.6123</ele>
        <time>2013-04-14T12:52:11Z</time>
      </trkpt>
      <trkpt lat="59.9651977" lon="17.7614012">
        <ele>25.6123</ele>
        <time>2013-04-14T12:52:12Z</time>
      </trkpt>
      <trkpt lat="59.9652141" lon="17.7613448">
        <ele>25.6123</ele>
        <time>2013-04-14T12:52:13Z</time>
      </trkpt>
      <trkpt lat="59.9652342" lon="17.7612837">
        <ele>25.6123</ele>
        <time>2013-04-14T12:52:14Z</time>
      </trkpt>
      <trkpt lat="59.965259" lon="17.7612253">
        <ele>25.1317</ele>
        <time>2013-04-14T12:52:15Z</time>
      </trkpt>
      <trkpt lat="59.9652865" lon="17.7611608">
        <ele>24.651</ele>
        <time>2013-04-14T12:52:16Z</time>
      </trkpt>
      <trkpt lat="59.9653139" lon="17.7610862">
        <ele>24.1703</ele>
        <time>2013-04-14T12:52:17Z</time>
      </trkpt>
      <trkpt lat="59.9653461" lon="17.7610129">
        <ele>23.6896</ele>
        <time>2013-04-14T12:52:18Z</time>
      </trkpt>
      <trkpt lat="59.9653788" lon="17.7609419">
        <ele>23.209</ele>
        <time>2013-04-14T12:52:19Z</time>
      </trkpt>
      <trkpt lat="59.965415" lon="17.7608689">
        <ele>23.209</ele>
        <time>2013-04-14T12:52:20Z</time>
      </trkpt>
      <trkpt lat="59.9654537" lon="17.7607979">
        <ele>22.7283</ele>
        <time>2013-04-14T12:52:21Z</time>
      </trkpt>
      <trkpt lat="59.9654973" lon="17.7607288">
        <ele>22.7283</ele>
        <time>2013-04-14T12:52:22Z</time>
      </trkpt>
      <trkpt lat="59.9655381" lon="17.7606596">
        <ele>22.2476</ele>
        <time>2013-04-14T12:52:23Z</time>
      </trkpt>
      <trkpt lat="59.9655806" lon="17.7605918">
        <ele>22.2476</ele>
        <time>2013-04-14T12:52:24Z</time>
      </trkpt>
      <trkpt lat="59.965624" lon="17.7605329">
        <ele>21.767</ele>
        <time>2013-04-14T12:52:25Z</time>
      </trkpt>
      <trkpt lat="59.9656769" lon="17.7604746">
        <ele>21.767</ele>
        <time>2013-04-14T12:52:26Z</time>
      </trkpt>
      <trkpt lat="59.9657247" lon="17.7604042">
        <ele>21.767</ele>
        <time>2013-04-14T12:52:27Z</time>
      </trkpt>
      <trkpt lat="59.9657713" lon="17.7603249">
        <ele>21.767</ele>
        <time>2013-04-14T12:52:28Z</time>
      </trkpt>
      <trkpt lat="59.9658154" lon="17.7602424">
        <ele>21.2864</ele>
        <time>2013-04-14T12:52:29Z</time>
      </trkpt>
      <trkpt lat="59.9658598" lon="17.7601543">
        <ele>21.2864</ele>
        <time>2013-04-14T12:52:30Z</time>
      </trkpt>
      <trkpt lat="59.9659023" lon="17.7600617">
        <ele>20.8057</ele>
        <time>2013-04-14T12:52:31Z</time>
      </trkpt>
      <trkpt lat="59.9659449" lon="17.759971">
        <ele>20.8057</ele>
        <time>2013-04-14T12:52:32Z</time>
      </trkpt>
      <trkpt lat="59.9659875" lon="17.7598788">
        <ele>20.8057</ele>
        <time>2013-04-14T12:52:33Z</time>
      </trkpt>
      <trkpt lat="59.9660325" lon="17.7597865">
        <ele>20.8057</ele>
        <time>2013-04-14T12:52:34Z</time>
      </trkpt>
      <trkpt lat="59.9660749" lon="17.7596903">
        <ele>22.2476</ele>
        <time>2013-04-14T12:52:35Z</time>
      </trkpt>
      <trkpt lat="59.96612" lon="17.7596039">
        <ele>22.2476</ele>
        <time>2013-04-14T12:52:36Z</time>
      </trkpt>
      <trkpt lat="59.9661645" lon="17.7595153">
        <ele>22.2476</ele>
        <time>2013-04-14T12:52:37Z</time>
      </trkpt>
      <trkpt lat="59.9662096" lon="17.7594288">
        <ele>22.7283</ele>
        <time>2013-04-14T12:52:38Z</time>
      </trkpt>
      <trkpt lat="59.9662545" lon="17.7593448">
        <ele>22.7283</ele>
        <time>2013-04-14T12:52:39Z</time>
      </trkpt>
      <trkpt lat="59.9662961" lon="17.7592609">
        <ele>23.6896</ele>
        <time>2013-04-14T12:52:40Z</time>
      </trkpt>
      <trkpt lat="59.9663381" lon="17.7591832">
        <ele>24.1703</ele>
        <time>2013-04-14T12:52:41Z</time>
      </trkpt>
      <trkpt lat="59.9663824" lon="17.7591126">
        <ele>24.651</ele>
        <time>2013-04-14T12:52:42Z</time>
      </trkpt>
      <trkpt lat="59.9664272" lon="17.7590433">
        <ele>24.651</ele>
        <time>2013-04-14T12:52:43Z</time>
      </trkpt>
      <trkpt lat="59.966472" lon="17.7589741">
        <ele>25.6123</ele>
        <time>2013-04-14T12:52:44Z</time>
      </trkpt>
      <trkpt lat="59.9665159" lon="17.7589039">
        <ele>26.0929</ele>
        <time>2013-04-14T12:52:45Z</time>
      </trkpt>
      <trkpt lat="59.9665624" lon="17.7588376">
        <ele>26.5736</ele>
        <time>2013-04-14T12:52:46Z</time>
      </trkpt>
      <trkpt lat="59.9666141" lon="17.7587797">
        <ele>27.0543</ele>
        <time>2013-04-14T12:52:47Z</time>
      </trkpt>
      <trkpt lat="59.9666639" lon="17.7587187">
        <ele>28.0155</ele>
        <time>2013-04-14T12:52:48Z</time>
      </trkpt>
      <trkpt lat="59.9667131" lon="17.758662">
        <ele>28.4962</ele>
        <time>2013-04-14T12:52:49Z</time>
      </trkpt>
      <trkpt lat="59.9667694" lon="17.7586299">
        <ele>28.0155</ele>
        <time>2013-04-14T12:52:50Z</time>
      </trkpt>
      <trkpt lat="59.9668188" lon="17.7585713">
        <ele>28.0155</ele>
        <time>2013-04-14T12:52:51Z</time>
      </trkpt>
      <trkpt lat="59.9668726" lon="17.7585172">
        <ele>28.4962</ele>
        <time>2013-04-14T12:52:52Z</time>
      </trkpt>
      <trkpt lat="59.9669258" lon="17.7584612">
        <ele>28.4962</ele>
        <time>2013-04-14T12:52:53Z</time>
      </trkpt>
      <trkpt lat="59.9669814" lon="17.7584072">
        <ele>28.9769</ele>
        <time>2013-04-14T12:52:54Z</time>
      </trkpt>
      <trkpt lat="59.9670374" lon="17.7583571">
        <ele>29.4575</ele>
        <time>2013-04-14T12:52:55Z</time>
      </trkpt>
      <trkpt lat="59.9670922" lon="17.7583136">
        <ele>29.9381</ele>
        <time>2013-04-14T12:52:56Z</time>
      </trkpt>
      <trkpt lat="59.9671549" lon="17.7583125">
        <ele>27.0543</ele>
        <time>2013-04-14T12:52:57Z</time>
      </trkpt>
      <trkpt lat="59.9672178" lon="17.7582859">
        <ele>25.6123</ele>
        <time>2013-04-14T12:52:58Z</time>
      </trkpt>
      <trkpt lat="59.9672813" lon="17.7582491">
        <ele>25.1317</ele>
        <time>2013-04-14T12:52:59Z</time>
      </trkpt>
      <trkpt lat="59.9673416" lon="17.7582094">
        <ele>24.651</ele>
        <time>2013-04-14T12:53:00Z</time>
      </trkpt>
      <trkpt lat="59.967401" lon="17.7581704">
        <ele>23.6896</ele>
        <time>2013-04-14T12:53:01Z</time>
      </trkpt>
      <trkpt lat="59.9674607" lon="17.7581268">
        <ele>23.209</ele>
        <time>2013-04-14T12:53:02Z</time>
      </trkpt>
      <trkpt lat="59.9675231" lon="17.758084">
        <ele>23.209</ele>
        <time>2013-04-14T12:53:03Z</time>
      </trkpt>
      <trkpt lat="59.9675822" lon="17.7580276">
        <ele>23.209</ele>
        <time>2013-04-14T12:53:04Z</time>
      </trkpt>
      <trkpt lat="59.9676393" lon="17.7579747">
        <ele>23.6896</ele>
        <time>2013-04-14T12:53:05Z</time>
      </trkpt>
      <trkpt lat="59.967695" lon="17.7579157">
        <ele>23.6896</ele>
        <time>2013-04-14T12:53:06Z</time>
      </trkpt>
      <trkpt lat="59.9677507" lon="17.7578603">
        <ele>24.1703</ele>
        <time>2013-04-14T12:53:07Z</time>
      </trkpt>
      <trkpt lat="59.9678026" lon="17.7578026">
        <ele>24.1703</ele>
        <time>2013-04-14T12:53:08Z</time>
      </trkpt>
      <trkpt lat="59.9678496" lon="17.757744">
        <ele>24.651</ele>
        <time>2013-04-14T12:53:09Z</time>
      </trkpt>
      <trkpt lat="59.9678976" lon="17.7576906">
        <ele>24.651</ele>
        <time>2013-04-14T12:53:10Z</time>
      </trkpt>
      <trkpt lat="59.9679442" lon="17.7576359">
        <ele>24.651</ele>
        <time>2013-04-14T12:53:11Z</time>
      </trkpt>
      <trkpt lat="59.9679906" lon="17.7575782">
        <ele>25.1317</ele>
        <time>2013-04-14T12:53:12Z</time>
      </trkpt>
      <trkpt lat="59.9680371" lon="17.7575214">
        <ele>25.6123</ele>
        <time>2013-04-14T12:53:13Z</time>
      </trkpt>
      <trkpt lat="59.9680821" lon="17.757466">
        <ele>25.6123</ele>
        <time>2013-04-14T12:53:14Z</time>
      </trkpt>
      <trkpt lat="59.9681247" lon="17.7574091">
        <ele>26.0929</ele>
        <time>2013-04-14T12:53:15Z</time>
      </trkpt>
      <trkpt lat="59.9681646" lon="17.7573534">
        <ele>26.5736</ele>
        <time>2013-04-14T12:53:16Z</time>
      </trkpt>
      <trkpt lat="59.9682034" lon="17.7572998">
        <ele>27.0543</ele>
        <time>2013-04-14T12:53:17Z</time>
      </trkpt>
      <trkpt lat="59.9682411" lon="17.7572463">
        <ele>27.5349</ele>
        <time>2013-04-14T12:53:18Z</time>
      </trkpt>
      <trkpt lat="59.9682783" lon="17.7571931">
        <ele>27.5349</ele>
        <time>2013-04-14T12:53:19Z</time>
      </trkpt>
      <trkpt lat="59.9683149" lon="17.7571402">
        <ele>27.5349</ele>
        <time>2013-04-14T12:53:20Z</time>
      </trkpt>
      <trkpt lat="59.9683545" lon="17.7570815">
        <ele>28.0155</ele>
        <time>2013-04-14T12:53:21Z</time>
      </trkpt>
      <trkpt lat="59.9683946" lon="17.7570248">
        <ele>28.0155</ele>
        <time>2013-04-14T12:53:22Z</time>
      </trkpt>
      <trkpt lat="59.9684363" lon="17.7569709">
        <ele>28.4962</ele>
        <time>2013-04-14T12:53:23Z</time>
      </trkpt>
      <trkpt lat="59.9684786" lon="17.7569189">
        <ele>28.0155</ele>
        <time>2013-04-14T12:53:24Z</time>
      </trkpt>
      <trkpt lat="59.9685213" lon="17.756861">
        <ele>27.5349</ele>
        <time>2013-04-14T12:53:25Z</time>
      </trkpt>
      <trkpt lat="59.9685638" lon="17.756794">
        <ele>28.0155</ele>
        <time>2013-04-14T12:53:26Z</time>
      </trkpt>
      <trkpt lat="59.9686054" lon="17.75673">
        <ele>28.0155</ele>
        <time>2013-04-14T12:53:27Z</time>
      </trkpt>
      <trkpt lat="59.9686458" lon="17.7566672">
        <ele>28.0155</ele>
        <time>2013-04-14T12:53:28Z</time>
      </trkpt>
      <trkpt lat="59.9686898" lon="17.7565994">
        <ele>28.4962</ele>
        <time>2013-04-14T12:53:29Z</time>
      </trkpt>
      <trkpt lat="59.9687293" lon="17.7565274">
        <ele>28.9769</ele>
        <time>2013-04-14T12:53:30Z</time>
      </trkpt>
      <trkpt lat="59.9687699" lon="17.7564593">
        <ele>28.9769</ele>
        <time>2013-04-14T12:53:31Z</time>
      </trkpt>
      <trkpt lat="59.9688095" lon="17.7563952">
        <ele>28.4962</ele>
        <time>2013-04-14T12:53:32Z</time>
      </trkpt>
      <trkpt lat="59.9688497" lon="17.7563275">
        <ele>27.5349</ele>
        <time>2013-04-14T12:53:33Z</time>
      </trkpt>
      <trkpt lat="59.9688908" lon="17.7562495">
        <ele>27.5349</ele>
        <time>2013-04-14T12:53:34Z</time>
      </trkpt>
      <trkpt lat="59.9689302" lon="17.7561651">
        <ele>27.0543</ele>
        <time>2013-04-14T12:53:35Z</time>
      </trkpt>
      <trkpt lat="59.9689702" lon="17.7560776">
        <ele>26.5736</ele>
        <time>2013-04-14T12:53:36Z</time>
      </trkpt>
      <trkpt lat="59.9690126" lon="17.7559846">
        <ele>26.5736</ele>
        <time>2013-04-14T12:53:37Z</time>
      </trkpt>
      <trkpt lat="59.9690571" lon="17.7558923">
        <ele>26.5736</ele>
        <time>2013-04-14T12:53:38Z</time>
      </trkpt>
      <trkpt lat="59.9691022" lon="17.7557923">
        <ele>27.0543</ele>
        <time>2013-04-14T12:53:39Z</time>
      </trkpt>
      <trkpt lat="59.969145" lon="17.755698">
        <ele>27.0543</ele>
        <time>2013-04-14T12:53:40Z</time>
      </trkpt>
      <trkpt lat="59.9691885" lon="17.7556021">
        <ele>26.5736</ele>
        <time>2013-04-14T12:53:41Z</time>
      </trkpt>
      <trkpt lat="59.9692366" lon="17.7555001">
        <ele>27.5349</ele>
        <time>2013-04-14T12:53:42Z</time>
      </trkpt>
      <trkpt lat="59.9692833" lon="17.755399">
        <ele>27.5349</ele>
        <time>2013-04-14T12:53:43Z</time>
      </trkpt>
      <trkpt lat="59.9693322" lon="17.7552972">
        <ele>28.4962</ele>
        <time>2013-04-14T12:53:44Z</time>
      </trkpt>
      <trkpt lat="59.9694288" lon="17.7550965">
        <ele>28.9769</ele>
        <time>2013-04-14T12:53:45Z</time>
      </trkpt>
      <trkpt lat="59.9694781" lon="17.7549961">
        <ele>29.4575</ele>
        <time>2013-04-14T12:53:46Z</time>
      </trkpt>
      <trkpt lat="59.9695249" lon="17.7548998">
        <ele>29.4575</ele>
        <time>2013-04-14T12:53:47Z</time>
      </trkpt>
      <trkpt lat="59.9695731" lon="17.7548049">
        <ele>29.4575</ele>
        <time>2013-04-14T12:53:48Z</time>
      </trkpt>
      <trkpt lat="59.9696196" lon="17.7547137">
        <ele>28.9769</ele>
        <time>2013-04-14T12:53:49Z</time>
      </trkpt>
      <trkpt lat="59.9696677" lon="17.754623">
        <ele>28.9769</ele>
        <time>2013-04-14T12:53:50Z</time>
      </trkpt>
      <trkpt lat="59.9697129" lon="17.7545325">
        <ele>28.4962</ele>
        <time>2013-04-14T12:53:51Z</time>
      </trkpt>
      <trkpt lat="59.9697539" lon="17.7544404">
        <ele>28.4962</ele>
        <time>2013-04-14T12:53:52Z</time>
      </trkpt>
      <trkpt lat="59.9697953" lon="17.7543448">
        <ele>28.0155</ele>
        <time>2013-04-14T12:53:53Z</time>
      </trkpt>
      <trkpt lat="59.9698425" lon="17.7542488">
        <ele>28.0155</ele>
        <time>2013-04-14T12:53:54Z</time>
      </trkpt>
      <trkpt lat="59.969889" lon="17.7541505">
        <ele>28.0155</ele>
        <time>2013-04-14T12:53:55Z</time>
      </trkpt>
      <trkpt lat="59.9699336" lon="17.7540528">
        <ele>28.0155</ele>
        <time>2013-04-14T12:53:56Z</time>
      </trkpt>
      <trkpt lat="59.9699774" lon="17.753953">
        <ele>27.5349</ele>
        <time>2013-04-14T12:53:57Z</time>
      </trkpt>
      <trkpt lat="59.9700238" lon="17.7538524">
        <ele>28.0155</ele>
        <time>2013-04-14T12:53:58Z</time>
      </trkpt>
      <trkpt lat="59.9700655" lon="17.753753">
        <ele>27.5349</ele>
        <time>2013-04-14T12:53:59Z</time>
      </trkpt>
      <trkpt lat="59.9701061" lon="17.7536465">
        <ele>26.5736</ele>
        <time>2013-04-14T12:54:00Z</time>
      </trkpt>
      <trkpt lat="59.9701453" lon="17.7535349">
        <ele>26.0929</ele>
        <time>2013-04-14T12:54:01Z</time>
      </trkpt>
      <trkpt lat="59.9701872" lon="17.7534234">
        <ele>26.0929</ele>
        <time>2013-04-14T12:54:02Z</time>
      </trkpt>
      <trkpt lat="59.9702281" lon="17.7533141">
        <ele>26.0929</ele>
        <time>2013-04-14T12:54:03Z</time>
      </trkpt>
      <trkpt lat="59.9702677" lon="17.7532044">
        <ele>26.0929</ele>
        <time>2013-04-14T12:54:04Z</time>
      </trkpt>
      <trkpt lat="59.9703061" lon="17.7530918">
        <ele>26.0929</ele>
        <time>2013-04-14T12:54:05Z</time>
      </trkpt>
      <trkpt lat="59.970346" lon="17.7529796">
        <ele>26.5736</ele>
        <time>2013-04-14T12:54:06Z</time>
      </trkpt>
      <trkpt lat="59.9703863" lon="17.7528726">
        <ele>26.5736</ele>
        <time>2013-04-14T12:54:07Z</time>
      </trkpt>
      <trkpt lat="59.9704252" lon="17.7527643">
        <ele>26.0929</ele>
        <time>2013-04-14T12:54:08Z</time>
      </trkpt>
      <trkpt lat="59.9704639" lon="17.7526526">
        <ele>26.0929</ele>
        <time>2013-04-14T12:54:09Z</time>
      </trkpt>
      <trkpt lat="59.9705045" lon="17.7525418">
        <ele>25.6123</ele>
        <time>2013-04-14T12:54:10Z</time>
      </trkpt>
      <trkpt lat="59.970551" lon="17.7524382">
        <ele>25.6123</ele>
        <time>2013-04-14T12:54:11Z</time>
      </trkpt>
      <trkpt lat="59.9706008" lon="17.752338">
        <ele>25.6123</ele>
        <time>2013-04-14T12:54:12Z</time>
      </trkpt>
      <trkpt lat="59.9706501" lon="17.7522386">
        <ele>25.6123</ele>
        <time>2013-04-14T12:54:13Z</time>
      </trkpt>
      <trkpt lat="59.9707032" lon="17.7521444">
        <ele>25.6123</ele>
        <time>2013-04-14T12:54:14Z</time>
      </trkpt>
      <trkpt lat="59.970754" lon="17.7520495">
        <ele>25.6123</ele>
        <time>2013-04-14T12:54:15Z</time>
      </trkpt>
      <trkpt lat="59.970809" lon="17.7519635">
        <ele>25.6123</ele>
        <time>2013-04-14T12:54:16Z</time>
      </trkpt>
      <trkpt lat="59.9708673" lon="17.751887">
        <ele>25.1317</ele>
        <time>2013-04-14T12:54:17Z</time>
      </trkpt>
      <trkpt lat="59.9709262" lon="17.7518093">
        <ele>25.6123</ele>
        <time>2013-04-14T12:54:18Z</time>
      </trkpt>
      <trkpt lat="59.970985" lon="17.751731">
        <ele>25.6123</ele>
        <time>2013-04-14T12:54:19Z</time>
      </trkpt>
      <trkpt lat="59.9710394" lon="17.751655">
        <ele>25.6123</ele>
        <time>2013-04-14T12:54:20Z</time>
      </trkpt>
      <trkpt lat="59.9710918" lon="17.7515743">
        <ele>25.6123</ele>
        <time>2013-04-14T12:54:21Z</time>
      </trkpt>
      <trkpt lat="59.9711458" lon="17.7514955">
        <ele>25.6123</ele>
        <time>2013-04-14T12:54:22Z</time>
      </trkpt>
      <trkpt lat="59.9712044" lon="17.7514168">
        <ele>26.0929</ele>
        <time>2013-04-14T12:54:23Z</time>
      </trkpt>
      <trkpt lat="59.9712591" lon="17.7513426">
        <ele>26.0929</ele>
        <time>2013-04-14T12:54:24Z</time>
      </trkpt>
      <trkpt lat="59.9713151" lon="17.7512764">
        <ele>26.0929</ele>
        <time>2013-04-14T12:54:25Z</time>
      </trkpt>
      <trkpt lat="59.971369" lon="17.7512186">
        <ele>26.0929</ele>
        <time>2013-04-14T12:54:26Z</time>
      </trkpt>
      <trkpt lat="59.9714196" lon="17.7511537">
        <ele>25.6123</ele>
        <time>2013-04-14T12:54:27Z</time>
      </trkpt>
      <trkpt lat="59.9714694" lon="17.7510878">
        <ele>26.0929</ele>
        <time>2013-04-14T12:54:28Z</time>
      </trkpt>
      <trkpt lat="59.9715169" lon="17.7510156">
        <ele>25.6123</ele>
        <time>2013-04-14T12:54:29Z</time>
      </trkpt>
      <trkpt lat="59.9715658" lon="17.7509425">
        <ele>26.0929</ele>
        <time>2013-04-14T12:54:30Z</time>
      </trkpt>
      <trkpt lat="59.971613" lon="17.7508692">
        <ele>25.6123</ele>
        <time>2013-04-14T12:54:31Z</time>
      </trkpt>
      <trkpt lat="59.9716597" lon="17.7507991">
        <ele>25.1317</ele>
        <time>2013-04-14T12:54:32Z</time>
      </trkpt>
      <trkpt lat="59.9717072" lon="17.750732">
        <ele>24.651</ele>
        <time>2013-04-14T12:54:33Z</time>
      </trkpt>
      <trkpt lat="59.9717535" lon="17.7506592">
        <ele>24.651</ele>
        <time>2013-04-14T12:54:34Z</time>
      </trkpt>
      <trkpt lat="59.9717999" lon="17.7505889">
        <ele>23.6896</ele>
        <time>2013-04-14T12:54:35Z</time>
      </trkpt>
      <trkpt lat="59.971845" lon="17.7505142">
        <ele>23.6896</ele>
        <time>2013-04-14T12:54:36Z</time>
      </trkpt>
      <trkpt lat="59.9718911" lon="17.7504391">
        <ele>23.6896</ele>
        <time>2013-04-14T12:54:37Z</time>
      </trkpt>
      <trkpt lat="59.9719348" lon="17.7503625">
        <ele>23.209</ele>
        <time>2013-04-14T12:54:38Z</time>
      </trkpt>
      <trkpt lat="59.971978" lon="17.7502896">
        <ele>22.2476</ele>
        <time>2013-04-14T12:54:39Z</time>
      </trkpt>
      <trkpt lat="59.9720223" lon="17.7502242">
        <ele>21.767</ele>
        <time>2013-04-14T12:54:40Z</time>
      </trkpt>
      <trkpt lat="59.9720648" lon="17.7501538">
        <ele>21.767</ele>
        <time>2013-04-14T12:54:41Z</time>
      </trkpt>
      <trkpt lat="59.9720993" lon="17.7500493">
        <ele>23.209</ele>
        <time>2013-04-14T12:54:42Z</time>
      </trkpt>
      <trkpt lat="59.9721382" lon="17.7499668">
        <ele>23.6896</ele>
        <time>2013-04-14T12:54:43Z</time>
      </trkpt>
      <trkpt lat="59.9721754" lon="17.7498854">
        <ele>24.651</ele>
        <time>2013-04-14T12:54:44Z</time>
      </trkpt>
      <trkpt lat="59.9722109" lon="17.7498021">
        <ele>26.0929</ele>
        <time>2013-04-14T12:54:45Z</time>
      </trkpt>
      <trkpt lat="59.9722552" lon="17.7497493">
        <ele>25.6123</ele>
        <time>2013-04-14T12:54:46Z</time>
      </trkpt>
      <trkpt lat="59.9722946" lon="17.7496776">
        <ele>26.0929</ele>
        <time>2013-04-14T12:54:47Z</time>
      </trkpt>
      <trkpt lat="59.9723371" lon="17.749602">
        <ele>26.0929</ele>
        <time>2013-04-14T12:54:48Z</time>
      </trkpt>
      <trkpt lat="59.9723748" lon="17.7495186">
        <ele>26.0929</ele>
        <time>2013-04-14T12:54:49Z</time>
      </trkpt>
      <trkpt lat="59.9724158" lon="17.749433">
        <ele>27.0543</ele>
        <time>2013-04-14T12:54:50Z</time>
      </trkpt>
      <trkpt lat="59.9724511" lon="17.7493379">
        <ele>28.4962</ele>
        <time>2013-04-14T12:54:51Z</time>
      </trkpt>
      <trkpt lat="59.9724868" lon="17.7492411">
        <ele>28.9769</ele>
        <time>2013-04-14T12:54:52Z</time>
      </trkpt>
      <trkpt lat="59.9725255" lon="17.7491497">
        <ele>30.4188</ele>
        <time>2013-04-14T12:54:53Z</time>
      </trkpt>
      <trkpt lat="59.9725646" lon="17.749068">
        <ele>29.9381</ele>
        <time>2013-04-14T12:54:54Z</time>
      </trkpt>
      <trkpt lat="59.9726045" lon="17.7489909">
        <ele>29.4575</ele>
        <time>2013-04-14T12:54:55Z</time>
      </trkpt>
      <trkpt lat="59.9726449" lon="17.7489163">
        <ele>29.4575</ele>
        <time>2013-04-14T12:54:56Z</time>
      </trkpt>
      <trkpt lat="59.9726877" lon="17.7488333">
        <ele>29.9381</ele>
        <time>2013-04-14T12:54:57Z</time>
      </trkpt>
      <trkpt lat="59.9727288" lon="17.7487546">
        <ele>30.4188</ele>
        <time>2013-04-14T12:54:58Z</time>
      </trkpt>
      <trkpt lat="59.9727666" lon="17.7486697">
        <ele>30.4188</ele>
        <time>2013-04-14T12:54:59Z</time>
      </trkpt>
      <trkpt lat="59.9728112" lon="17.7485749">
        <ele>30.8995</ele>
        <time>2013-04-14T12:55:00Z</time>
      </trkpt>
      <trkpt lat="59.9728557" lon="17.7484717">
        <ele>31.3801</ele>
        <time>2013-04-14T12:55:01Z</time>
      </trkpt>
      <trkpt lat="59.9729017" lon="17.7483649">
        <ele>31.8607</ele>
        <time>2013-04-14T12:55:02Z</time>
      </trkpt>
      <trkpt lat="59.9729493" lon="17.7482659">
        <ele>31.8607</ele>
        <time>2013-04-14T12:55:03Z</time>
      </trkpt>
      <trkpt lat="59.9729969" lon="17.7481657">
        <ele>30.4188</ele>
        <time>2013-04-14T12:55:04Z</time>
      </trkpt>
      <trkpt lat="59.9730474" lon="17.7480733">
        <ele>29.4575</ele>
        <time>2013-04-14T12:55:05Z</time>
      </trkpt>
      <trkpt lat="59.9730965" lon="17.7479901">
        <ele>28.4962</ele>
        <time>2013-04-14T12:55:06Z</time>
      </trkpt>
      <trkpt lat="59.9731453" lon="17.7479093">
        <ele>28.4962</ele>
        <time>2013-04-14T12:55:07Z</time>
      </trkpt>
      <trkpt lat="59.9731945" lon="17.7478351">
        <ele>28.4962</ele>
        <time>2013-04-14T12:55:08Z</time>
      </trkpt>
      <trkpt lat="59.9732447" lon="17.7477683">
        <ele>28.0155</ele>
        <time>2013-04-14T12:55:09Z</time>
      </trkpt>
      <trkpt lat="59.9732943" lon="17.7477061">
        <ele>27.5349</ele>
        <time>2013-04-14T12:55:10Z</time>
      </trkpt>
      <trkpt lat="59.9733465" lon="17.7476605">
        <ele>27.0543</ele>
        <time>2013-04-14T12:55:11Z</time>
      </trkpt>
      <trkpt lat="59.973397" lon="17.7476131">
        <ele>26.5736</ele>
        <time>2013-04-14T12:55:12Z</time>
      </trkpt>
      <trkpt lat="59.9734475" lon="17.7475679">
        <ele>26.5736</ele>
        <time>2013-04-14T12:55:13Z</time>
      </trkpt>
      <trkpt lat="59.9734989" lon="17.7475262">
        <ele>26.0929</ele>
        <time>2013-04-14T12:55:14Z</time>
      </trkpt>
      <trkpt lat="59.9735501" lon="17.7474775">
        <ele>26.0929</ele>
        <time>2013-04-14T12:55:15Z</time>
      </trkpt>
      <trkpt lat="59.9735991" lon="17.7474259">
        <ele>26.0929</ele>
        <time>2013-04-14T12:55:16Z</time>
      </trkpt>
      <trkpt lat="59.973647" lon="17.7473768">
        <ele>26.0929</ele>
        <time>2013-04-14T12:55:17Z</time>
      </trkpt>
      <trkpt lat="59.9736948" lon="17.7473266">
        <ele>25.6123</ele>
        <time>2013-04-14T12:55:18Z</time>
      </trkpt>
      <trkpt lat="59.9737446" lon="17.7472737">
        <ele>25.1317</ele>
        <time>2013-04-14T12:55:19Z</time>
      </trkpt>
      <trkpt lat="59.9737984" lon="17.7472279">
        <ele>25.1317</ele>
        <time>2013-04-14T12:55:20Z</time>
      </trkpt>
      <trkpt lat="59.9738519" lon="17.7471792">
        <ele>24.651</ele>
        <time>2013-04-14T12:55:21Z</time>
      </trkpt>
      <trkpt lat="59.9739039" lon="17.7471196">
        <ele>24.1703</ele>
        <time>2013-04-14T12:55:22Z</time>
      </trkpt>
      <trkpt lat="59.9739585" lon="17.7470556">
        <ele>24.1703</ele>
        <time>2013-04-14T12:55:23Z</time>
      </trkpt>
      <trkpt lat="59.9740119" lon="17.7469883">
        <ele>24.1703</ele>
        <time>2013-04-14T12:55:24Z</time>
      </trkpt>
      <trkpt lat="59.9740616" lon="17.7469188">
        <ele>24.1703</ele>
        <time>2013-04-14T12:55:25Z</time>
      </trkpt>
      <trkpt lat="59.9741096" lon="17.746854">
        <ele>23.6896</ele>
        <time>2013-04-14T12:55:26Z</time>
      </trkpt>
      <trkpt lat="59.9741552" lon="17.7467909">
        <ele>23.209</ele>
        <time>2013-04-14T12:55:27Z</time>
      </trkpt>
      <trkpt lat="59.974203" lon="17.7467319">
        <ele>22.7283</ele>
        <time>2013-04-14T12:55:28Z</time>
      </trkpt>
      <trkpt lat="59.9742527" lon="17.7466773">
        <ele>22.2476</ele>
        <time>2013-04-14T12:55:29Z</time>
      </trkpt>
      <trkpt lat="59.9743035" lon="17.7466229">
        <ele>21.767</ele>
        <time>2013-04-14T12:55:30Z</time>
      </trkpt>
      <trkpt lat="59.9743532" lon="17.7465684">
        <ele>21.767</ele>
        <time>2013-04-14T12:55:31Z</time>
      </trkpt>
      <trkpt lat="59.9744003" lon="17.74651">
        <ele>21.2864</ele>
        <time>2013-04-14T12:55:32Z</time>
      </trkpt>
      <trkpt lat="59.9744459" lon="17.746452">
        <ele>21.2864</ele>
        <time>2013-04-14T12:55:33Z</time>
      </trkpt>
      <trkpt lat="59.9744895" lon="17.7463921">
        <ele>21.2864</ele>
        <time>2013-04-14T12:55:34Z</time>
      </trkpt>
      <trkpt lat="59.9745317" lon="17.7463346">
        <ele>21.2864</ele>
        <time>2013-04-14T12:55:35Z</time>
      </trkpt>
      <trkpt lat="59.9745718" lon="17.746276">
        <ele>21.2864</ele>
        <time>2013-04-14T12:55:36Z</time>
      </trkpt>
      <trkpt lat="59.9746101" lon="17.746216">
        <ele>21.2864</ele>
        <time>2013-04-14T12:55:37Z</time>
      </trkpt>
      <trkpt lat="59.9746462" lon="17.7461547">
        <ele>21.767</ele>
        <time>2013-04-14T12:55:38Z</time>
      </trkpt>
      <trkpt lat="59.9746815" lon="17.7460936">
        <ele>21.2864</ele>
        <time>2013-04-14T12:55:39Z</time>
      </trkpt>
      <trkpt lat="59.9747173" lon="17.7460326">
        <ele>21.2864</ele>
        <time>2013-04-14T12:55:40Z</time>
      </trkpt>
      <trkpt lat="59.9747535" lon="17.7459702">
        <ele>21.2864</ele>
        <time>2013-04-14T12:55:41Z</time>
      </trkpt>
      <trkpt lat="59.9747883" lon="17.7459013">
        <ele>21.2864</ele>
        <time>2013-04-14T12:55:42Z</time>
      </trkpt>
      <trkpt lat="59.9748226" lon="17.7458284">
        <ele>20.8057</ele>
        <time>2013-04-14T12:55:43Z</time>
      </trkpt>
      <trkpt lat="59.9748561" lon="17.7457507">
        <ele>20.8057</ele>
        <time>2013-04-14T12:55:44Z</time>
      </trkpt>
      <trkpt lat="59.9748904" lon="17.7456695">
        <ele>20.8057</ele>
        <time>2013-04-14T12:55:45Z</time>
      </trkpt>
      <trkpt lat="59.9749252" lon="17.7455837">
        <ele>20.325</ele>
        <time>2013-04-14T12:55:46Z</time>
      </trkpt>
      <trkpt lat="59.9749603" lon="17.7454938">
        <ele>20.325</ele>
        <time>2013-04-14T12:55:47Z</time>
      </trkpt>
      <trkpt lat="59.9749908" lon="17.7453894">
        <ele>20.325</ele>
        <time>2013-04-14T12:55:48Z</time>
      </trkpt>
      <trkpt lat="59.9750159" lon="17.7452685">
        <ele>21.2864</ele>
        <time>2013-04-14T12:55:49Z</time>
      </trkpt>
      <trkpt lat="59.9750462" lon="17.7451529">
        <ele>21.767</ele>
        <time>2013-04-14T12:55:50Z</time>
      </trkpt>
      <trkpt lat="59.975081" lon="17.7450436">
        <ele>21.767</ele>
        <time>2013-04-14T12:55:51Z</time>
      </trkpt>
      <trkpt lat="59.9751126" lon="17.7449235">
        <ele>22.2476</ele>
        <time>2013-04-14T12:55:52Z</time>
      </trkpt>
      <trkpt lat="59.9751451" lon="17.7448053">
        <ele>23.209</ele>
        <time>2013-04-14T12:55:53Z</time>
      </trkpt>
      <trkpt lat="59.9751795" lon="17.7446914">
        <ele>23.209</ele>
        <time>2013-04-14T12:55:54Z</time>
      </trkpt>
      <trkpt lat="59.9752137" lon="17.7445779">
        <ele>23.209</ele>
        <time>2013-04-14T12:55:55Z</time>
      </trkpt>
      <trkpt lat="59.9752452" lon="17.744462">
        <ele>23.209</ele>
        <time>2013-04-14T12:55:56Z</time>
      </trkpt>
      <trkpt lat="59.9752743" lon="17.7443446">
        <ele>23.209</ele>
        <time>2013-04-14T12:55:57Z</time>
      </trkpt>
      <trkpt lat="59.9753002" lon="17.7442256">
        <ele>23.209</ele>
        <time>2013-04-14T12:55:58Z</time>
      </trkpt>
      <trkpt lat="59.9753224" lon="17.744104">
        <ele>23.209</ele>
        <time>2013-04-14T12:55:59Z</time>
      </trkpt>
      <trkpt lat="59.9753432" lon="17.7439812">
        <ele>23.209</ele>
        <time>2013-04-14T12:56:00Z</time>
      </trkpt>
      <trkpt lat="59.9753647" lon="17.7438599">
        <ele>22.7283</ele>
        <time>2013-04-14T12:56:01Z</time>
      </trkpt>
      <trkpt lat="59.9753856" lon="17.7437331">
        <ele>23.209</ele>
        <time>2013-04-14T12:56:02Z</time>
      </trkpt>
      <trkpt lat="59.9754064" lon="17.7436068">
        <ele>23.6896</ele>
        <time>2013-04-14T12:56:03Z</time>
      </trkpt>
      <trkpt lat="59.9754293" lon="17.7434834">
        <ele>23.6896</ele>
        <time>2013-04-14T12:56:04Z</time>
      </trkpt>
      <trkpt lat="59.9754523" lon="17.7433589">
        <ele>24.1703</ele>
        <time>2013-04-14T12:56:05Z</time>
      </trkpt>
      <trkpt lat="59.9754778" lon="17.7432346">
        <ele>24.1703</ele>
        <time>2013-04-14T12:56:06Z</time>
      </trkpt>
      <trkpt lat="59.9755068" lon="17.7431156">
        <ele>24.651</ele>
        <time>2013-04-14T12:56:07Z</time>
      </trkpt>
      <trkpt lat="59.975536" lon="17.7429965">
        <ele>24.651</ele>
        <time>2013-04-14T12:56:08Z</time>
      </trkpt>
      <trkpt lat="59.9755694" lon="17.7428814">
        <ele>25.1317</ele>
        <time>2013-04-14T12:56:09Z</time>
      </trkpt>
      <trkpt lat="59.9756022" lon="17.7427681">
        <ele>25.1317</ele>
        <time>2013-04-14T12:56:10Z</time>
      </trkpt>
      <trkpt lat="59.9756362" lon="17.7426561">
        <ele>25.1317</ele>
        <time>2013-04-14T12:56:11Z</time>
      </trkpt>
      <trkpt lat="59.9756705" lon="17.7425432">
        <ele>25.1317</ele>
        <time>2013-04-14T12:56:12Z</time>
      </trkpt>
      <trkpt lat="59.9757038" lon="17.7424261">
        <ele>25.1317</ele>
        <time>2013-04-14T12:56:13Z</time>
      </trkpt>
      <trkpt lat="59.9757373" lon="17.7423065">
        <ele>25.6123</ele>
        <time>2013-04-14T12:56:14Z</time>
      </trkpt>
      <trkpt lat="59.9757685" lon="17.7421836">
        <ele>25.6123</ele>
        <time>2013-04-14T12:56:15Z</time>
      </trkpt>
      <trkpt lat="59.9757979" lon="17.7420598">
        <ele>25.6123</ele>
        <time>2013-04-14T12:56:16Z</time>
      </trkpt>
      <trkpt lat="59.9758255" lon="17.7419359">
        <ele>25.6123</ele>
        <time>2013-04-14T12:56:17Z</time>
      </trkpt>
      <trkpt lat="59.9758534" lon="17.7418138">
        <ele>25.6123</ele>
        <time>2013-04-14T12:56:18Z</time>
      </trkpt>
      <trkpt lat="59.9758815" lon="17.7416935">
        <ele>25.1317</ele>
        <time>2013-04-14T12:56:19Z</time>
      </trkpt>
      <trkpt lat="59.9759088" lon="17.7415697">
        <ele>25.1317</ele>
        <time>2013-04-14T12:56:20Z</time>
      </trkpt>
      <trkpt lat="59.9759366" lon="17.7414487">
        <ele>25.1317</ele>
        <time>2013-04-14T12:56:21Z</time>
      </trkpt>
      <trkpt lat="59.9759648" lon="17.7413277">
        <ele>25.1317</ele>
        <time>2013-04-14T12:56:22Z</time>
      </trkpt>
      <trkpt lat="59.9759923" lon="17.7412066">
        <ele>24.651</ele>
        <time>2013-04-14T12:56:23Z</time>
      </trkpt>
      <trkpt lat="59.9760202" lon="17.7410856">
        <ele>24.651</ele>
        <time>2013-04-14T12:56:24Z</time>
      </trkpt>
      <trkpt lat="59.976048" lon="17.7409648">
        <ele>24.651</ele>
        <time>2013-04-14T12:56:25Z</time>
      </trkpt>
      <trkpt lat="59.9760757" lon="17.7408475">
        <ele>24.1703</ele>
        <time>2013-04-14T12:56:26Z</time>
      </trkpt>
      <trkpt lat="59.9761062" lon="17.7407305">
        <ele>24.1703</ele>
        <time>2013-04-14T12:56:27Z</time>
      </trkpt>
      <trkpt lat="59.9761412" lon="17.7406175">
        <ele>23.6896</ele>
        <time>2013-04-14T12:56:28Z</time>
      </trkpt>
      <trkpt lat="59.9761792" lon="17.7405096">
        <ele>23.6896</ele>
        <time>2013-04-14T12:56:29Z</time>
      </trkpt>
      <trkpt lat="59.976217" lon="17.7404001">
        <ele>23.6896</ele>
        <time>2013-04-14T12:56:30Z</time>
      </trkpt>
      <trkpt lat="59.9762538" lon="17.7402877">
        <ele>23.6896</ele>
        <time>2013-04-14T12:56:31Z</time>
      </trkpt>
      <trkpt lat="59.9762914" lon="17.7401747">
        <ele>23.209</ele>
        <time>2013-04-14T12:56:32Z</time>
      </trkpt>
      <trkpt lat="59.9763295" lon="17.7400583">
        <ele>23.209</ele>
        <time>2013-04-14T12:56:33Z</time>
      </trkpt>
      <trkpt lat="59.9763697" lon="17.7399397">
        <ele>22.7283</ele>
        <time>2013-04-14T12:56:34Z</time>
      </trkpt>
      <trkpt lat="59.976416" lon="17.7398237">
        <ele>22.2476</ele>
        <time>2013-04-14T12:56:35Z</time>
      </trkpt>
      <trkpt lat="59.9764686" lon="17.7397159">
        <ele>22.2476</ele>
        <time>2013-04-14T12:56:36Z</time>
      </trkpt>
      <trkpt lat="59.9765268" lon="17.7396196">
        <ele>21.767</ele>
        <time>2013-04-14T12:56:37Z</time>
      </trkpt>
      <trkpt lat="59.9765905" lon="17.7395417">
        <ele>21.767</ele>
        <time>2013-04-14T12:56:38Z</time>
      </trkpt>
      <trkpt lat="59.9766553" lon="17.7394803">
        <ele>21.767</ele>
        <time>2013-04-14T12:56:39Z</time>
      </trkpt>
      <trkpt lat="59.9767203" lon="17.7394316">
        <ele>21.767</ele>
        <time>2013-04-14T12:56:40Z</time>
      </trkpt>
      <trkpt lat="59.9767861" lon="17.7393967">
        <ele>21.767</ele>
        <time>2013-04-14T12:56:41Z</time>
      </trkpt>
      <trkpt lat="59.976851" lon="17.7393726">
        <ele>21.767</ele>
        <time>2013-04-14T12:56:42Z</time>
      </trkpt>
      <trkpt lat="59.9769123" lon="17.7393531">
        <ele>21.767</ele>
        <time>2013-04-14T12:56:43Z</time>
      </trkpt>
      <trkpt lat="59.9769747" lon="17.7393324">
        <ele>22.7283</ele>
        <time>2013-04-14T12:56:44Z</time>
      </trkpt>
      <trkpt lat="59.977039" lon="17.7393073">
        <ele>22.7283</ele>
        <time>2013-04-14T12:56:45Z</time>
      </trkpt>
      <trkpt lat="59.9771013" lon="17.7392793">
        <ele>23.209</ele>
        <time>2013-04-14T12:56:46Z</time>
      </trkpt>
      <trkpt lat="59.9771614" lon="17.739242">
        <ele>23.209</ele>
        <time>2013-04-14T12:56:47Z</time>
      </trkpt>
      <trkpt lat="59.9772224" lon="17.7391979">
        <ele>23.209</ele>
        <time>2013-04-14T12:56:48Z</time>
      </trkpt>
      <trkpt lat="59.9772847" lon="17.739155">
        <ele>23.209</ele>
        <time>2013-04-14T12:56:49Z</time>
      </trkpt>
      <trkpt lat="59.9773489" lon="17.739114">
        <ele>22.7283</ele>
        <time>2013-04-14T12:56:50Z</time>
      </trkpt>
      <trkpt lat="59.9774129" lon="17.7390756">
        <ele>23.209</ele>
        <time>2013-04-14T12:56:51Z</time>
      </trkpt>
      <trkpt lat="59.9774766" lon="17.7390492">
        <ele>23.6896</ele>
        <time>2013-04-14T12:56:52Z</time>
      </trkpt>
      <trkpt lat="59.9775372" lon="17.7390369">
        <ele>23.6896</ele>
        <time>2013-04-14T12:56:53Z</time>
      </trkpt>
      <trkpt lat="59.9776" lon="17.7390206">
        <ele>24.1703</ele>
        <time>2013-04-14T12:56:54Z</time>
      </trkpt>
      <trkpt lat="59.9776613" lon="17.7390098">
        <ele>24.1703</ele>
        <time>2013-04-14T12:56:55Z</time>
      </trkpt>
      <trkpt lat="59.9777188" lon="17.7390196">
        <ele>24.1703</ele>
        <time>2013-04-14T12:56:56Z</time>
      </trkpt>
      <trkpt lat="59.9777743" lon="17.7390394">
        <ele>24.1703</ele>
        <time>2013-04-14T12:56:57Z</time>
      </trkpt>
      <trkpt lat="59.9778281" lon="17.7390661">
        <ele>24.651</ele>
        <time>2013-04-14T12:56:58Z</time>
      </trkpt>
      <trkpt lat="59.9778796" lon="17.7390923">
        <ele>25.1317</ele>
        <time>2013-04-14T12:56:59Z</time>
      </trkpt>
      <trkpt lat="59.9779274" lon="17.7391134">
        <ele>25.6123</ele>
        <time>2013-04-14T12:57:00Z</time>
      </trkpt>
      <trkpt lat="59.9779722" lon="17.7391429">
        <ele>26.0929</ele>
        <time>2013-04-14T12:57:01Z</time>
      </trkpt>
      <trkpt lat="59.9780164" lon="17.7391658">
        <ele>26.0929</ele>
        <time>2013-04-14T12:57:02Z</time>
      </trkpt>
      <trkpt lat="59.9780617" lon="17.7391844">
        <ele>26.5736</ele>
        <time>2013-04-14T12:57:03Z</time>
      </trkpt>
      <trkpt lat="59.9781057" lon="17.7391989">
        <ele>27.0543</ele>
        <time>2013-04-14T12:57:04Z</time>
      </trkpt>
      <trkpt lat="59.9781475" lon="17.7392134">
        <ele>27.0543</ele>
        <time>2013-04-14T12:57:05Z</time>
      </trkpt>
      <trkpt lat="59.9781891" lon="17.7392233">
        <ele>27.5349</ele>
        <time>2013-04-14T12:57:06Z</time>
      </trkpt>
      <trkpt lat="59.9782295" lon="17.7392272">
        <ele>27.5349</ele>
        <time>2013-04-14T12:57:07Z</time>
      </trkpt>
      <trkpt lat="59.9782693" lon="17.7392396">
        <ele>27.5349</ele>
        <time>2013-04-14T12:57:08Z</time>
      </trkpt>
      <trkpt lat="59.9783103" lon="17.7392568">
        <ele>27.0543</ele>
        <time>2013-04-14T12:57:09Z</time>
      </trkpt>
      <trkpt lat="59.9783517" lon="17.7392718">
        <ele>27.0543</ele>
        <time>2013-04-14T12:57:10Z</time>
      </trkpt>
      <trkpt lat="59.9783949" lon="17.7392857">
        <ele>26.5736</ele>
        <time>2013-04-14T12:57:11Z</time>
      </trkpt>
      <trkpt lat="59.9784377" lon="17.7393007">
        <ele>26.5736</ele>
        <time>2013-04-14T12:57:12Z</time>
      </trkpt>
      <trkpt lat="59.9784854" lon="17.7393086">
        <ele>26.0929</ele>
        <time>2013-04-14T12:57:13Z</time>
      </trkpt>
      <trkpt lat="59.978531" lon="17.7393049">
        <ele>26.0929</ele>
        <time>2013-04-14T12:57:14Z</time>
      </trkpt>
      <trkpt lat="59.9785719" lon="17.7393118">
        <ele>25.6123</ele>
        <time>2013-04-14T12:57:15Z</time>
      </trkpt>
      <trkpt lat="59.978624" lon="17.7393103">
        <ele>26.0929</ele>
        <time>2013-04-14T12:57:16Z</time>
      </trkpt>
      <trkpt lat="59.9786693" lon="17.7393093">
        <ele>26.0929</ele>
        <time>2013-04-14T12:57:17Z</time>
      </trkpt>
      <trkpt lat="59.9787116" lon="17.7393103">
        <ele>26.0929</ele>
        <time>2013-04-14T12:57:18Z</time>
      </trkpt>
      <trkpt lat="59.9787543" lon="17.7393077">
        <ele>26.0929</ele>
        <time>2013-04-14T12:57:19Z</time>
      </trkpt>
    </trkseg>
  </trk>
</gpx>